<?xml version='1.0' encoding='UTF-8'?><gpx version="1.1" creator="JPX - https://github.com/jenetics/jpx" xmlns="http://www.topografix.com/GPX/1/1"><trk><trkseg><trkpt lat="45.5030662" lon="11.7925887"><ele>20.0</ele><time>2026-04-26T07:12:28.191Z</time></trkpt><trkpt lat="45.503225" lon="11.7924773"><ele>20.0</ele><time>2026-04-26T07:12:29.192Z</time></trkpt><trkpt lat="45.503386" lon="11.7923668"><ele>20.0</ele><time>2026-04-26T07:12:30.192Z</time></trkpt><trkpt lat="45.5035514" lon="11.792253"><ele>20.0</ele><time>2026-04-26T07:12:31.191Z</time></trkpt><trkpt lat="45.5037255" lon="11.7921306"><ele>20.0</ele><time>2026-04-26T07:12:32.194Z</time></trkpt><trkpt lat="45.5041073" lon="11.7918661"><ele>20.0</ele><time>2026-04-26T07:12:34.191Z</time></trkpt><trkpt lat="45.5043132" lon="11.7917222"><ele>20.0</ele><time>2026-04-26T07:12:35.19Z</time></trkpt><trkpt lat="45.5045291" lon="11.7915722"><ele>20.0</ele><time>2026-04-26T07:12:36.19Z</time></trkpt><trkpt lat="45.5047485" lon="11.7914218"><ele>20.0</ele><time>2026-04-26T07:12:37.192Z</time></trkpt><trkpt lat="45.5049669" lon="11.7912712"><ele>20.0</ele><time>2026-04-26T07:12:38.193Z</time></trkpt><trkpt lat="45.5051854" lon="11.7911204"><ele>20.0</ele><time>2026-04-26T07:12:39.197Z</time></trkpt><trkpt lat="45.5054036" lon="11.7909707"><ele>20.5</ele><time>2026-04-26T07:12:40.197Z</time></trkpt><trkpt lat="45.5056206" lon="11.7908193"><ele>21.0</ele><time>2026-04-26T07:12:41.199Z</time></trkpt><trkpt lat="45.5058266" lon="11.7906759"><ele>21.0</ele><time>2026-04-26T07:12:42.198Z</time></trkpt><trkpt lat="45.5060209" lon="11.7905431"><ele>21.0</ele><time>2026-04-26T07:12:43.197Z</time></trkpt><trkpt lat="45.5062091" lon="11.7904148"><ele>21.0</ele><time>2026-04-26T07:12:44.197Z</time></trkpt><trkpt lat="45.5063943" lon="11.7902885"><ele>21.0</ele><time>2026-04-26T07:12:45.192Z</time></trkpt><trkpt lat="45.5065765" lon="11.7901639"><ele>21.0</ele><time>2026-04-26T07:12:46.195Z</time></trkpt><trkpt lat="45.5067573" lon="11.7900408"><ele>21.0</ele><time>2026-04-26T07:12:47.193Z</time></trkpt><trkpt lat="45.5069386" lon="11.7899169"><ele>21.333333333333332</ele><time>2026-04-26T07:12:48.19Z</time></trkpt><trkpt lat="45.5071208" lon="11.7897918"><ele>21.666666666666664</ele><time>2026-04-26T07:12:49.19Z</time></trkpt><trkpt lat="45.5073039" lon="11.789663"><ele>22.0</ele><time>2026-04-26T07:12:50.196Z</time></trkpt><trkpt lat="45.5074884" lon="11.7895339"><ele>22.0</ele><time>2026-04-26T07:12:51.196Z</time></trkpt><trkpt lat="45.5076757" lon="11.7894037"><ele>22.0</ele><time>2026-04-26T07:12:52.197Z</time></trkpt><trkpt lat="45.5078653" lon="11.7892729"><ele>22.0</ele><time>2026-04-26T07:12:53.195Z</time></trkpt><trkpt lat="45.508249" lon="11.7890063"><ele>22.0</ele><time>2026-04-26T07:12:55.195Z</time></trkpt><trkpt lat="45.5084436" lon="11.7888732"><ele>22.0</ele><time>2026-04-26T07:12:56.194Z</time></trkpt><trkpt lat="45.5086403" lon="11.7887373"><ele>22.0</ele><time>2026-04-26T07:12:57.193Z</time></trkpt><trkpt lat="45.5088408" lon="11.7885992"><ele>22.5</ele><time>2026-04-26T07:12:58.191Z</time></trkpt><trkpt lat="45.5090439" lon="11.7884611"><ele>23.0</ele><time>2026-04-26T07:12:59.189Z</time></trkpt><trkpt lat="45.5092473" lon="11.7883222"><ele>23.0</ele><time>2026-04-26T07:13:00.189Z</time></trkpt><trkpt lat="45.5094494" lon="11.788183"><ele>23.0</ele><time>2026-04-26T07:13:01.189Z</time></trkpt><trkpt lat="45.5096496" lon="11.7880448"><ele>23.0</ele><time>2026-04-26T07:13:02.193Z</time></trkpt><trkpt lat="45.5098463" lon="11.7879089"><ele>22.666666666666668</ele><time>2026-04-26T07:13:03.197Z</time></trkpt><trkpt lat="45.5100354" lon="11.787778"><ele>22.333333333333332</ele><time>2026-04-26T07:13:04.198Z</time></trkpt><trkpt lat="45.5102205" lon="11.7876515"><ele>22.0</ele><time>2026-04-26T07:13:05.2Z</time></trkpt><trkpt lat="45.5104016" lon="11.7875278"><ele>22.0</ele><time>2026-04-26T07:13:06.199Z</time></trkpt><trkpt lat="45.5105791" lon="11.7874064"><ele>22.0</ele><time>2026-04-26T07:13:07.191Z</time></trkpt><trkpt lat="45.5107503" lon="11.7872928"><ele>22.0</ele><time>2026-04-26T07:13:08.194Z</time></trkpt><trkpt lat="45.5109103" lon="11.7871944"><ele>22.0</ele><time>2026-04-26T07:13:09.192Z</time></trkpt><trkpt lat="45.5110628" lon="11.7871109"><ele>22.0</ele><time>2026-04-26T07:13:10.193Z</time></trkpt><trkpt lat="45.5112112" lon="11.7870456"><ele>22.0</ele><time>2026-04-26T07:13:11.197Z</time></trkpt><trkpt lat="45.511353" lon="11.7869941"><ele>22.0</ele><time>2026-04-26T07:13:12.195Z</time></trkpt><trkpt lat="45.5114849" lon="11.7869516"><ele>22.0</ele><time>2026-04-26T07:13:13.195Z</time></trkpt><trkpt lat="45.5116067" lon="11.7869125"><ele>22.0</ele><time>2026-04-26T07:13:14.193Z</time></trkpt><trkpt lat="45.5118621" lon="11.7868392"><ele>22.0</ele><time>2026-04-26T07:13:16.194Z</time></trkpt><trkpt lat="45.5120071" lon="11.7867949"><ele>22.0</ele><time>2026-04-26T07:13:17.196Z</time></trkpt><trkpt lat="45.5121612" lon="11.7867467"><ele>22.0</ele><time>2026-04-26T07:13:18.197Z</time></trkpt><trkpt lat="45.5123249" lon="11.7866995"><ele>22.0</ele><time>2026-04-26T07:13:19.197Z</time></trkpt><trkpt lat="45.5124996" lon="11.7866532"><ele>22.0</ele><time>2026-04-26T07:13:20.198Z</time></trkpt><trkpt lat="45.512686" lon="11.7866048"><ele>22.0</ele><time>2026-04-26T07:13:21.193Z</time></trkpt><trkpt lat="45.512886" lon="11.7865518"><ele>21.5</ele><time>2026-04-26T07:13:22.195Z</time></trkpt><trkpt lat="45.5131038" lon="11.7864913"><ele>21.0</ele><time>2026-04-26T07:13:23.196Z</time></trkpt><trkpt lat="45.5133388" lon="11.7864235"><ele>21.0</ele><time>2026-04-26T07:13:24.197Z</time></trkpt><trkpt lat="45.5135882" lon="11.7863517"><ele>21.0</ele><time>2026-04-26T07:13:25.192Z</time></trkpt><trkpt lat="45.5138504" lon="11.7862766"><ele>21.0</ele><time>2026-04-26T07:13:26.193Z</time></trkpt><trkpt lat="45.5141159" lon="11.7862019"><ele>21.0</ele><time>2026-04-26T07:13:27.194Z</time></trkpt><trkpt lat="45.514374" lon="11.7861292"><ele>21.0</ele><time>2026-04-26T07:13:28.193Z</time></trkpt><trkpt lat="45.5146229" lon="11.7860586"><ele>21.0</ele><time>2026-04-26T07:13:29.195Z</time></trkpt><trkpt lat="45.5148625" lon="11.7859894"><ele>21.5</ele><time>2026-04-26T07:13:30.194Z</time></trkpt><trkpt lat="45.5150945" lon="11.7859229"><ele>22.0</ele><time>2026-04-26T07:13:31.193Z</time></trkpt><trkpt lat="45.5153206" lon="11.7858587"><ele>22.0</ele><time>2026-04-26T07:13:32.195Z</time></trkpt><trkpt lat="45.5155441" lon="11.7857944"><ele>22.0</ele><time>2026-04-26T07:13:33.194Z</time></trkpt><trkpt lat="45.5157662" lon="11.78573"><ele>22.0</ele><time>2026-04-26T07:13:34.193Z</time></trkpt><trkpt lat="45.5159844" lon="11.7856681"><ele>22.0</ele><time>2026-04-26T07:13:35.195Z</time></trkpt><trkpt lat="45.5164017" lon="11.7855524"><ele>21.666666666666664</ele><time>2026-04-26T07:13:37.194Z</time></trkpt><trkpt lat="45.5166038" lon="11.7854948"><ele>21.333333333333332</ele><time>2026-04-26T07:13:38.196Z</time></trkpt><trkpt lat="45.5168006" lon="11.7854375"><ele>21.0</ele><time>2026-04-26T07:13:39.193Z</time></trkpt><trkpt lat="45.5169944" lon="11.7853817"><ele>21.0</ele><time>2026-04-26T07:13:40.193Z</time></trkpt><trkpt lat="45.5171481" lon="11.7853383"><ele>21.0</ele><time>2026-04-26T07:13:40.996Z</time></trkpt><trkpt lat="45.5173749" lon="11.7852739"><ele>21.0</ele><time>2026-04-26T07:13:42.195Z</time></trkpt><trkpt lat="45.5175595" lon="11.7852205"><ele>21.333333333333332</ele><time>2026-04-26T07:13:43.193Z</time></trkpt><trkpt lat="45.5177402" lon="11.7851671"><ele>21.666666666666664</ele><time>2026-04-26T07:13:44.195Z</time></trkpt><trkpt lat="45.5179167" lon="11.7851074"><ele>22.0</ele><time>2026-04-26T07:13:45.194Z</time></trkpt><trkpt lat="45.5180919" lon="11.7850324"><ele>22.0</ele><time>2026-04-26T07:13:46.192Z</time></trkpt><trkpt lat="45.5182708" lon="11.7849451"><ele>22.0</ele><time>2026-04-26T07:13:47.192Z</time></trkpt><trkpt lat="45.5184535" lon="11.7848505"><ele>22.0</ele><time>2026-04-26T07:13:48.192Z</time></trkpt><trkpt lat="45.5186386" lon="11.784752"><ele>21.333333333333332</ele><time>2026-04-26T07:13:49.19Z</time></trkpt><trkpt lat="45.5188257" lon="11.7846524"><ele>20.666666666666668</ele><time>2026-04-26T07:13:50.191Z</time></trkpt><trkpt lat="45.5190104" lon="11.7845553"><ele>20.0</ele><time>2026-04-26T07:13:51.194Z</time></trkpt><trkpt lat="45.5191876" lon="11.7844634"><ele>20.0</ele><time>2026-04-26T07:13:52.192Z</time></trkpt><trkpt lat="45.5193602" lon="11.7843744"><ele>20.0</ele><time>2026-04-26T07:13:53.195Z</time></trkpt><trkpt lat="45.5195319" lon="11.7842858"><ele>20.0</ele><time>2026-04-26T07:13:54.193Z</time></trkpt><trkpt lat="45.5197039" lon="11.7841955"><ele>20.5</ele><time>2026-04-26T07:13:55.193Z</time></trkpt><trkpt lat="45.5198768" lon="11.7841044"><ele>21.0</ele><time>2026-04-26T07:13:56.195Z</time></trkpt><trkpt lat="45.5202202" lon="11.7839217"><ele>21.0</ele><time>2026-04-26T07:13:58.195Z</time></trkpt><trkpt lat="45.5203556" lon="11.7838452"><ele>21.0</ele><time>2026-04-26T07:13:58.993Z</time></trkpt><trkpt lat="45.5205572" lon="11.7837234"><ele>21.0</ele><time>2026-04-26T07:14:00.193Z</time></trkpt><trkpt lat="45.5207212" lon="11.783623"><ele>21.333333333333332</ele><time>2026-04-26T07:14:01.194Z</time></trkpt><trkpt lat="45.5208833" lon="11.783527"><ele>21.666666666666664</ele><time>2026-04-26T07:14:02.193Z</time></trkpt><trkpt lat="45.5210398" lon="11.7834353"><ele>22.0</ele><time>2026-04-26T07:14:03.192Z</time></trkpt><trkpt lat="45.5211887" lon="11.7833435"><ele>22.0</ele><time>2026-04-26T07:14:04.192Z</time></trkpt><trkpt lat="45.5213365" lon="11.7832493"><ele>22.0</ele><time>2026-04-26T07:14:05.193Z</time></trkpt><trkpt lat="45.5214863" lon="11.7831521"><ele>22.0</ele><time>2026-04-26T07:14:06.195Z</time></trkpt><trkpt lat="45.5216367" lon="11.7830557"><ele>22.0</ele><time>2026-04-26T07:14:07.193Z</time></trkpt><trkpt lat="45.5217883" lon="11.7829576"><ele>22.0</ele><time>2026-04-26T07:14:08.194Z</time></trkpt><trkpt lat="45.5219381" lon="11.7828605"><ele>22.0</ele><time>2026-04-26T07:14:09.194Z</time></trkpt><trkpt lat="45.5220834" lon="11.7827693"><ele>22.0</ele><time>2026-04-26T07:14:10.193Z</time></trkpt><trkpt lat="45.5222188" lon="11.7826849"><ele>22.0</ele><time>2026-04-26T07:14:11.193Z</time></trkpt><trkpt lat="45.5223444" lon="11.7826053"><ele>22.0</ele><time>2026-04-26T07:14:12.191Z</time></trkpt><trkpt lat="45.5224634" lon="11.7825326"><ele>22.0</ele><time>2026-04-26T07:14:13.19Z</time></trkpt><trkpt lat="45.5225821" lon="11.7824684"><ele>22.0</ele><time>2026-04-26T07:14:14.191Z</time></trkpt><trkpt lat="45.52271" lon="11.7824117"><ele>22.0</ele><time>2026-04-26T07:14:15.192Z</time></trkpt><trkpt lat="45.5228503" lon="11.7823707"><ele>22.0</ele><time>2026-04-26T07:14:16.192Z</time></trkpt><trkpt lat="45.5229956" lon="11.7823474"><ele>22.0</ele><time>2026-04-26T07:14:17.192Z</time></trkpt><trkpt lat="45.5232592" lon="11.7823421"><ele>22.0</ele><time>2026-04-26T07:14:19.194Z</time></trkpt><trkpt lat="45.5233724" lon="11.7823452"><ele>22.0</ele><time>2026-04-26T07:14:20.194Z</time></trkpt><trkpt lat="45.5234732" lon="11.7823489"><ele>22.0</ele><time>2026-04-26T07:14:21.192Z</time></trkpt><trkpt lat="45.5235615" lon="11.7823567"><ele>22.0</ele><time>2026-04-26T07:14:22.191Z</time></trkpt><trkpt lat="45.5236401" lon="11.7823679"><ele>22.0</ele><time>2026-04-26T07:14:23.193Z</time></trkpt><trkpt lat="45.523717" lon="11.7823966"><ele>22.0</ele><time>2026-04-26T07:14:24.193Z</time></trkpt><trkpt lat="45.5237974" lon="11.7824672"><ele>22.0</ele><time>2026-04-26T07:14:25.193Z</time></trkpt><trkpt lat="45.5238776" lon="11.7825426"><ele>22.0</ele><time>2026-04-26T07:14:26.196Z</time></trkpt><trkpt lat="45.5239623" lon="11.7825794"><ele>22.0</ele><time>2026-04-26T07:14:27.192Z</time></trkpt><trkpt lat="45.5240469" lon="11.7825682"><ele>22.0</ele><time>2026-04-26T07:14:28.194Z</time></trkpt><trkpt lat="45.5241204" lon="11.7825137"><ele>22.0</ele><time>2026-04-26T07:14:29.194Z</time></trkpt><trkpt lat="45.5241878" lon="11.7824331"><ele>22.0</ele><time>2026-04-26T07:14:30.192Z</time></trkpt><trkpt lat="45.5242668" lon="11.7823668"><ele>22.0</ele><time>2026-04-26T07:14:31.192Z</time></trkpt><trkpt lat="45.5243573" lon="11.7823345"><ele>22.0</ele><time>2026-04-26T07:14:32.196Z</time></trkpt><trkpt lat="45.524475" lon="11.78231"><ele>22.0</ele><time>2026-04-26T07:14:33.193Z</time></trkpt><trkpt lat="45.5246165" lon="11.7822546"><ele>22.333333333333332</ele><time>2026-04-26T07:14:34.191Z</time></trkpt><trkpt lat="45.5247851" lon="11.7821657"><ele>22.666666666666668</ele><time>2026-04-26T07:14:35.194Z</time></trkpt><trkpt lat="45.5249811" lon="11.7820737"><ele>23.0</ele><time>2026-04-26T07:14:36.189Z</time></trkpt><trkpt lat="45.5251991" lon="11.7819784"><ele>23.5</ele><time>2026-04-26T07:14:37.193Z</time></trkpt><trkpt lat="45.5254197" lon="11.7818724"><ele>24.0</ele><time>2026-04-26T07:14:38.191Z</time></trkpt><trkpt lat="45.5258739" lon="11.7816323"><ele>24.0</ele><time>2026-04-26T07:14:40.194Z</time></trkpt><trkpt lat="45.5260949" lon="11.7815172"><ele>24.0</ele><time>2026-04-26T07:14:41.193Z</time></trkpt><trkpt lat="45.526302" lon="11.7814135"><ele>23.333333333333332</ele><time>2026-04-26T07:14:42.194Z</time></trkpt><trkpt lat="45.5264994" lon="11.7813159"><ele>22.666666666666664</ele><time>2026-04-26T07:14:43.194Z</time></trkpt><trkpt lat="45.5266884" lon="11.7812178"><ele>22.0</ele><time>2026-04-26T07:14:44.192Z</time></trkpt><trkpt lat="45.5268762" lon="11.7811198"><ele>22.0</ele><time>2026-04-26T07:14:45.191Z</time></trkpt><trkpt lat="45.5270586" lon="11.781027"><ele>22.0</ele><time>2026-04-26T07:14:46.193Z</time></trkpt><trkpt lat="45.5272341" lon="11.7809358"><ele>22.0</ele><time>2026-04-26T07:14:47.194Z</time></trkpt><trkpt lat="45.5274061" lon="11.7808466"><ele>22.333333333333332</ele><time>2026-04-26T07:14:48.193Z</time></trkpt><trkpt lat="45.5275773" lon="11.7807572"><ele>22.666666666666668</ele><time>2026-04-26T07:14:49.194Z</time></trkpt><trkpt lat="45.5277483" lon="11.7806678"><ele>23.0</ele><time>2026-04-26T07:14:50.195Z</time></trkpt><trkpt lat="45.5279137" lon="11.7805817"><ele>23.333333333333336</ele><time>2026-04-26T07:14:51.194Z</time></trkpt><trkpt lat="45.5280708" lon="11.7804959"><ele>23.666666666666668</ele><time>2026-04-26T07:14:52.193Z</time></trkpt><trkpt lat="45.5282245" lon="11.7804099"><ele>24.0</ele><time>2026-04-26T07:14:53.193Z</time></trkpt><trkpt lat="45.5283754" lon="11.7803312"><ele>24.0</ele><time>2026-04-26T07:14:54.193Z</time></trkpt><trkpt lat="45.5285167" lon="11.7802597"><ele>24.0</ele><time>2026-04-26T07:14:55.192Z</time></trkpt><trkpt lat="45.5286399" lon="11.7801971"><ele>24.0</ele><time>2026-04-26T07:14:56.194Z</time></trkpt><trkpt lat="45.5287604" lon="11.7801351"><ele>24.0</ele><time>2026-04-26T07:14:57.195Z</time></trkpt><trkpt lat="45.5288855" lon="11.7800689"><ele>23.5</ele><time>2026-04-26T07:14:58.195Z</time></trkpt><trkpt lat="45.5290184" lon="11.7799961"><ele>23.0</ele><time>2026-04-26T07:14:59.195Z</time></trkpt><trkpt lat="45.529316" lon="11.7798389"><ele>23.0</ele><time>2026-04-26T07:15:01.193Z</time></trkpt><trkpt lat="45.5294165" lon="11.7797861"><ele>23.0</ele><time>2026-04-26T07:15:01.803Z</time></trkpt><trkpt lat="45.5296623" lon="11.779651"><ele>23.0</ele><time>2026-04-26T07:15:03.193Z</time></trkpt><trkpt lat="45.5298395" lon="11.7795596"><ele>23.333333333333336</ele><time>2026-04-26T07:15:04.193Z</time></trkpt><trkpt lat="45.5300091" lon="11.7794753"><ele>23.666666666666668</ele><time>2026-04-26T07:15:05.196Z</time></trkpt><trkpt lat="45.5301698" lon="11.7793948"><ele>24.0</ele><time>2026-04-26T07:15:06.195Z</time></trkpt><trkpt lat="45.5303234" lon="11.7793196"><ele>24.0</ele><time>2026-04-26T07:15:07.197Z</time></trkpt><trkpt lat="45.5304715" lon="11.7792484"><ele>24.0</ele><time>2026-04-26T07:15:08.195Z</time></trkpt><trkpt lat="45.5306164" lon="11.7791753"><ele>24.0</ele><time>2026-04-26T07:15:09.195Z</time></trkpt><trkpt lat="45.5307605" lon="11.7791017"><ele>24.0</ele><time>2026-04-26T07:15:10.197Z</time></trkpt><trkpt lat="45.530904" lon="11.7790279"><ele>24.0</ele><time>2026-04-26T07:15:11.196Z</time></trkpt><trkpt lat="45.5310453" lon="11.7789557"><ele>24.0</ele><time>2026-04-26T07:15:12.196Z</time></trkpt><trkpt lat="45.5311842" lon="11.7788845"><ele>24.25</ele><time>2026-04-26T07:15:13.196Z</time></trkpt><trkpt lat="45.5313223" lon="11.7788124"><ele>24.5</ele><time>2026-04-26T07:15:14.198Z</time></trkpt><trkpt lat="45.5314607" lon="11.7787403"><ele>24.75</ele><time>2026-04-26T07:15:15.197Z</time></trkpt><trkpt lat="45.5315982" lon="11.7786685"><ele>25.0</ele><time>2026-04-26T07:15:16.197Z</time></trkpt><trkpt lat="45.5317298" lon="11.7786018"><ele>25.0</ele><time>2026-04-26T07:15:17.199Z</time></trkpt><trkpt lat="45.5318581" lon="11.7785357"><ele>25.0</ele><time>2026-04-26T07:15:18.195Z</time></trkpt><trkpt lat="45.5319923" lon="11.7784653"><ele>25.0</ele><time>2026-04-26T07:15:19.196Z</time></trkpt><trkpt lat="45.5321291" lon="11.7783939"><ele>25.0</ele><time>2026-04-26T07:15:20.195Z</time></trkpt><trkpt lat="45.5323935" lon="11.7782594"><ele>24.75</ele><time>2026-04-26T07:15:22.195Z</time></trkpt><trkpt lat="45.5325194" lon="11.778193"><ele>24.5</ele><time>2026-04-26T07:15:23.196Z</time></trkpt><trkpt lat="45.5325968" lon="11.7781498"><ele>24.25</ele><time>2026-04-26T07:15:23.805Z</time></trkpt><trkpt lat="45.5327856" lon="11.7780456"><ele>24.0</ele><time>2026-04-26T07:15:25.193Z</time></trkpt><trkpt lat="45.5329215" lon="11.7779756"><ele>24.0</ele><time>2026-04-26T07:15:26.194Z</time></trkpt><trkpt lat="45.5330508" lon="11.7779144"><ele>24.0</ele><time>2026-04-26T07:15:27.192Z</time></trkpt><trkpt lat="45.5331726" lon="11.7778523"><ele>24.0</ele><time>2026-04-26T07:15:28.193Z</time></trkpt><trkpt lat="45.533286" lon="11.7777876"><ele>24.0</ele><time>2026-04-26T07:15:29.198Z</time></trkpt><trkpt lat="45.5333935" lon="11.777728"><ele>24.0</ele><time>2026-04-26T07:15:30.197Z</time></trkpt><trkpt lat="45.5335009" lon="11.777672"><ele>24.0</ele><time>2026-04-26T07:15:31.197Z</time></trkpt><trkpt lat="45.5336171" lon="11.7776132"><ele>24.0</ele><time>2026-04-26T07:15:32.198Z</time></trkpt><trkpt lat="45.5337445" lon="11.7775481"><ele>24.0</ele><time>2026-04-26T07:15:33.197Z</time></trkpt><trkpt lat="45.5338752" lon="11.7774804"><ele>24.25</ele><time>2026-04-26T07:15:34.198Z</time></trkpt><trkpt lat="45.5339992" lon="11.7774189"><ele>24.5</ele><time>2026-04-26T07:15:35.199Z</time></trkpt><trkpt lat="45.5341167" lon="11.7773621"><ele>24.75</ele><time>2026-04-26T07:15:36.197Z</time></trkpt><trkpt lat="45.5342275" lon="11.7773081"><ele>25.0</ele><time>2026-04-26T07:15:37.197Z</time></trkpt><trkpt lat="45.5343316" lon="11.7772531"><ele>25.0</ele><time>2026-04-26T07:15:38.2Z</time></trkpt><trkpt lat="45.5344293" lon="11.7772007"><ele>25.0</ele><time>2026-04-26T07:15:39.196Z</time></trkpt><trkpt lat="45.5345194" lon="11.7771534"><ele>25.0</ele><time>2026-04-26T07:15:40.196Z</time></trkpt><trkpt lat="45.5345911" lon="11.7771193"><ele>25.0</ele><time>2026-04-26T07:15:41.197Z</time></trkpt><trkpt lat="45.5347568" lon="11.777033"><ele>25.0</ele><time>2026-04-26T07:15:45.198Z</time></trkpt><trkpt lat="45.5348384" lon="11.7769878"><ele>25.0</ele><time>2026-04-26T07:15:58.196Z</time></trkpt><trkpt lat="45.5349734" lon="11.776915"><ele>25.0</ele><time>2026-04-26T07:16:00.196Z</time></trkpt><trkpt lat="45.5350769" lon="11.7768609"><ele>25.0</ele><time>2026-04-26T07:16:01.197Z</time></trkpt><trkpt lat="45.5351377" lon="11.7768291"><ele>25.0</ele><time>2026-04-26T07:16:01.806Z</time></trkpt><trkpt lat="45.535396" lon="11.776695"><ele>25.0</ele><time>2026-04-26T07:16:04.198Z</time></trkpt><trkpt lat="45.5355259" lon="11.7766253"><ele>25.0</ele><time>2026-04-26T07:16:05.196Z</time></trkpt><trkpt lat="45.535671" lon="11.7765518"><ele>25.0</ele><time>2026-04-26T07:16:06.198Z</time></trkpt><trkpt lat="45.5358171" lon="11.7764777"><ele>25.0</ele><time>2026-04-26T07:16:07.196Z</time></trkpt><trkpt lat="45.5359604" lon="11.7764043"><ele>25.0</ele><time>2026-04-26T07:16:08.197Z</time></trkpt><trkpt lat="45.5361007" lon="11.7763318"><ele>25.0</ele><time>2026-04-26T07:16:09.196Z</time></trkpt><trkpt lat="45.5362387" lon="11.7762615"><ele>25.0</ele><time>2026-04-26T07:16:10.195Z</time></trkpt><trkpt lat="45.5363682" lon="11.7761959"><ele>25.0</ele><time>2026-04-26T07:16:11.197Z</time></trkpt><trkpt lat="45.5364966" lon="11.7761293"><ele>25.0</ele><time>2026-04-26T07:16:12.195Z</time></trkpt><trkpt lat="45.5366333" lon="11.7760571"><ele>25.0</ele><time>2026-04-26T07:16:13.195Z</time></trkpt><trkpt lat="45.5367776" lon="11.7759818"><ele>25.0</ele><time>2026-04-26T07:16:14.194Z</time></trkpt><trkpt lat="45.5369209" lon="11.7759074"><ele>25.0</ele><time>2026-04-26T07:16:15.194Z</time></trkpt><trkpt lat="45.5370635" lon="11.7758325"><ele>25.0</ele><time>2026-04-26T07:16:16.192Z</time></trkpt><trkpt lat="45.5372083" lon="11.7757574"><ele>25.0</ele><time>2026-04-26T07:16:17.195Z</time></trkpt><trkpt lat="45.5373457" lon="11.7756851"><ele>25.0</ele><time>2026-04-26T07:16:18.196Z</time></trkpt><trkpt lat="45.5374753" lon="11.7756163"><ele>25.0</ele><time>2026-04-26T07:16:19.196Z</time></trkpt><trkpt lat="45.5375969" lon="11.7755469"><ele>25.0</ele><time>2026-04-26T07:16:20.196Z</time></trkpt><trkpt lat="45.5377175" lon="11.7754781"><ele>25.0</ele><time>2026-04-26T07:16:21.195Z</time></trkpt><trkpt lat="45.5378412" lon="11.7754129"><ele>25.0</ele><time>2026-04-26T07:16:22.196Z</time></trkpt><trkpt lat="45.5381022" lon="11.7752824"><ele>25.0</ele><time>2026-04-26T07:16:24.196Z</time></trkpt><trkpt lat="45.5382394" lon="11.7752134"><ele>25.0</ele><time>2026-04-26T07:16:25.195Z</time></trkpt><trkpt lat="45.5383798" lon="11.775142"><ele>25.0</ele><time>2026-04-26T07:16:26.198Z</time></trkpt><trkpt lat="45.5385188" lon="11.775069"><ele>25.0</ele><time>2026-04-26T07:16:27.195Z</time></trkpt><trkpt lat="45.5386515" lon="11.7750014"><ele>25.0</ele><time>2026-04-26T07:16:28.197Z</time></trkpt><trkpt lat="45.5387796" lon="11.7749364"><ele>25.0</ele><time>2026-04-26T07:16:29.198Z</time></trkpt><trkpt lat="45.5389111" lon="11.7748691"><ele>25.5</ele><time>2026-04-26T07:16:30.197Z</time></trkpt><trkpt lat="45.5390484" lon="11.7747988"><ele>26.0</ele><time>2026-04-26T07:16:31.196Z</time></trkpt><trkpt lat="45.5391858" lon="11.7747258"><ele>26.5</ele><time>2026-04-26T07:16:32.196Z</time></trkpt><trkpt lat="45.5393162" lon="11.7746571"><ele>27.0</ele><time>2026-04-26T07:16:33.195Z</time></trkpt><trkpt lat="45.5394408" lon="11.7745903"><ele>27.25</ele><time>2026-04-26T07:16:34.196Z</time></trkpt><trkpt lat="45.5395601" lon="11.7745277"><ele>27.5</ele><time>2026-04-26T07:16:35.197Z</time></trkpt><trkpt lat="45.5396728" lon="11.7744702"><ele>27.75</ele><time>2026-04-26T07:16:36.197Z</time></trkpt><trkpt lat="45.5397789" lon="11.7744163"><ele>28.0</ele><time>2026-04-26T07:16:37.196Z</time></trkpt><trkpt lat="45.5398794" lon="11.7743641"><ele>27.599999999999998</ele><time>2026-04-26T07:16:38.194Z</time></trkpt><trkpt lat="45.5399833" lon="11.7743077"><ele>27.199999999999996</ele><time>2026-04-26T07:16:39.192Z</time></trkpt><trkpt lat="45.5400901" lon="11.7742533"><ele>26.8</ele><time>2026-04-26T07:16:40.195Z</time></trkpt><trkpt lat="45.5401893" lon="11.7742031"><ele>26.4</ele><time>2026-04-26T07:16:41.193Z</time></trkpt><trkpt lat="45.5402781" lon="11.7741555"><ele>26.0</ele><time>2026-04-26T07:16:42.196Z</time></trkpt><trkpt lat="45.5403575" lon="11.7741133"><ele>26.0</ele><time>2026-04-26T07:16:43.196Z</time></trkpt><trkpt lat="45.5404928" lon="11.7740438"><ele>26.0</ele><time>2026-04-26T07:16:45.197Z</time></trkpt><trkpt lat="45.5405607" lon="11.7740118"><ele>26.0</ele><time>2026-04-26T07:16:46.196Z</time></trkpt><trkpt lat="45.5406404" lon="11.7739717"><ele>26.0</ele><time>2026-04-26T07:16:47.197Z</time></trkpt><trkpt lat="45.5407299" lon="11.7739233"><ele>26.0</ele><time>2026-04-26T07:16:48.196Z</time></trkpt><trkpt lat="45.5408201" lon="11.7738746"><ele>26.0</ele><time>2026-04-26T07:16:49.195Z</time></trkpt><trkpt lat="45.5409133" lon="11.7738231"><ele>26.0</ele><time>2026-04-26T07:16:50.197Z</time></trkpt><trkpt lat="45.5410177" lon="11.7737655"><ele>26.0</ele><time>2026-04-26T07:16:51.198Z</time></trkpt><trkpt lat="45.5411342" lon="11.7737019"><ele>26.0</ele><time>2026-04-26T07:16:52.198Z</time></trkpt><trkpt lat="45.541264" lon="11.7736322"><ele>26.0</ele><time>2026-04-26T07:16:53.197Z</time></trkpt><trkpt lat="45.5413977" lon="11.773561"><ele>26.0</ele><time>2026-04-26T07:16:54.196Z</time></trkpt><trkpt lat="45.5415307" lon="11.7734929"><ele>26.0</ele><time>2026-04-26T07:16:55.196Z</time></trkpt><trkpt lat="45.5416692" lon="11.773423"><ele>26.0</ele><time>2026-04-26T07:16:56.196Z</time></trkpt><trkpt lat="45.5418121" lon="11.7733514"><ele>26.0</ele><time>2026-04-26T07:16:57.196Z</time></trkpt><trkpt lat="45.5419551" lon="11.7732792"><ele>26.0</ele><time>2026-04-26T07:16:58.195Z</time></trkpt><trkpt lat="45.5420949" lon="11.7732075"><ele>26.0</ele><time>2026-04-26T07:16:59.196Z</time></trkpt><trkpt lat="45.5422337" lon="11.7731351"><ele>26.0</ele><time>2026-04-26T07:17:00.195Z</time></trkpt><trkpt lat="45.5423771" lon="11.7730595"><ele>26.0</ele><time>2026-04-26T07:17:01.196Z</time></trkpt><trkpt lat="45.5425278" lon="11.7729809"><ele>26.0</ele><time>2026-04-26T07:17:02.195Z</time></trkpt><trkpt lat="45.5426795" lon="11.7729038"><ele>26.0</ele><time>2026-04-26T07:17:03.192Z</time></trkpt><trkpt lat="45.5428231" lon="11.7728308"><ele>26.0</ele><time>2026-04-26T07:17:04.192Z</time></trkpt><trkpt lat="45.5430875" lon="11.7726893"><ele>26.0</ele><time>2026-04-26T07:17:06.196Z</time></trkpt><trkpt lat="45.5432192" lon="11.7726189"><ele>26.0</ele><time>2026-04-26T07:17:07.197Z</time></trkpt><trkpt lat="45.5433551" lon="11.7725462"><ele>26.0</ele><time>2026-04-26T07:17:08.195Z</time></trkpt><trkpt lat="45.5434948" lon="11.7724723"><ele>26.0</ele><time>2026-04-26T07:17:09.196Z</time></trkpt><trkpt lat="45.5436306" lon="11.772401"><ele>26.0</ele><time>2026-04-26T07:17:10.197Z</time></trkpt><trkpt lat="45.5437662" lon="11.7723305"><ele>26.0</ele><time>2026-04-26T07:17:11.197Z</time></trkpt><trkpt lat="45.5438999" lon="11.7722613"><ele>25.75</ele><time>2026-04-26T07:17:12.197Z</time></trkpt><trkpt lat="45.5440372" lon="11.7721907"><ele>25.5</ele><time>2026-04-26T07:17:13.199Z</time></trkpt><trkpt lat="45.5441761" lon="11.7721185"><ele>25.25</ele><time>2026-04-26T07:17:14.201Z</time></trkpt><trkpt lat="45.5443127" lon="11.7720475"><ele>25.0</ele><time>2026-04-26T07:17:15.197Z</time></trkpt><trkpt lat="45.5444507" lon="11.771976"><ele>25.25</ele><time>2026-04-26T07:17:16.196Z</time></trkpt><trkpt lat="45.5445871" lon="11.7719052"><ele>25.5</ele><time>2026-04-26T07:17:17.196Z</time></trkpt><trkpt lat="45.5446958" lon="11.7718501"><ele>25.75</ele><time>2026-04-26T07:17:17.998Z</time></trkpt><trkpt lat="45.5448607" lon="11.771766"><ele>26.0</ele><time>2026-04-26T07:17:19.198Z</time></trkpt><trkpt lat="45.5449953" lon="11.7716956"><ele>26.0</ele><time>2026-04-26T07:17:20.197Z</time></trkpt><trkpt lat="45.5451281" lon="11.771626"><ele>26.0</ele><time>2026-04-26T07:17:21.194Z</time></trkpt><trkpt lat="45.5452632" lon="11.7715552"><ele>26.0</ele><time>2026-04-26T07:17:22.199Z</time></trkpt><trkpt lat="45.5454021" lon="11.7714825"><ele>26.0</ele><time>2026-04-26T07:17:23.199Z</time></trkpt><trkpt lat="45.5455454" lon="11.7714071"><ele>25.5</ele><time>2026-04-26T07:17:24.197Z</time></trkpt><trkpt lat="45.5456937" lon="11.7713281"><ele>25.0</ele><time>2026-04-26T07:17:25.196Z</time></trkpt><trkpt lat="45.5460024" lon="11.7711653"><ele>25.0</ele><time>2026-04-26T07:17:27.194Z</time></trkpt><trkpt lat="45.5461611" lon="11.7710819"><ele>25.0</ele><time>2026-04-26T07:17:28.193Z</time></trkpt><trkpt lat="45.5463178" lon="11.7710007"><ele>25.0</ele><time>2026-04-26T07:17:29.193Z</time></trkpt><trkpt lat="45.546467" lon="11.770923"><ele>24.75</ele><time>2026-04-26T07:17:30.193Z</time></trkpt><trkpt lat="45.5466078" lon="11.7708443"><ele>24.5</ele><time>2026-04-26T07:17:31.196Z</time></trkpt><trkpt lat="45.5467467" lon="11.7707629"><ele>24.25</ele><time>2026-04-26T07:17:32.198Z</time></trkpt><trkpt lat="45.5468838" lon="11.7706865"><ele>24.0</ele><time>2026-04-26T07:17:33.199Z</time></trkpt><trkpt lat="45.5470111" lon="11.7706179"><ele>24.2</ele><time>2026-04-26T07:17:34.197Z</time></trkpt><trkpt lat="45.5471237" lon="11.7705571"><ele>24.4</ele><time>2026-04-26T07:17:35.197Z</time></trkpt><trkpt lat="45.5472226" lon="11.7705032"><ele>24.6</ele><time>2026-04-26T07:17:36.196Z</time></trkpt><trkpt lat="45.5473076" lon="11.7704586"><ele>24.8</ele><time>2026-04-26T07:17:37.2Z</time></trkpt><trkpt lat="45.5473808" lon="11.77042"><ele>25.0</ele><time>2026-04-26T07:17:38.198Z</time></trkpt><trkpt lat="45.5474491" lon="11.7703834"><ele>25.0</ele><time>2026-04-26T07:17:39.196Z</time></trkpt><trkpt lat="45.5475108" lon="11.7703522"><ele>25.0</ele><time>2026-04-26T07:17:40.197Z</time></trkpt><trkpt lat="45.5476207" lon="11.770298"><ele>25.0</ele><time>2026-04-26T07:17:42.197Z</time></trkpt><trkpt lat="45.547716" lon="11.7702462"><ele>25.0</ele><time>2026-04-26T07:17:44.197Z</time></trkpt><trkpt lat="45.5477821" lon="11.7702128"><ele>25.0</ele><time>2026-04-26T07:17:46.195Z</time></trkpt><trkpt lat="45.5479426" lon="11.7701165"><ele>25.000000000000004</ele><time>2026-04-26T07:17:50.197Z</time></trkpt><trkpt lat="45.5480182" lon="11.7700742"><ele>25.0</ele><time>2026-04-26T07:17:51.196Z</time></trkpt><trkpt lat="45.5480943" lon="11.7700337"><ele>25.0</ele><time>2026-04-26T07:17:52.194Z</time></trkpt><trkpt lat="45.548163" lon="11.7699978"><ele>25.0</ele><time>2026-04-26T07:17:53.196Z</time></trkpt><trkpt lat="45.5482235" lon="11.7699664"><ele>25.000000000000004</ele><time>2026-04-26T07:17:54.194Z</time></trkpt><trkpt lat="45.5483175" lon="11.7699197"><ele>25.0</ele><time>2026-04-26T07:17:56.196Z</time></trkpt><trkpt lat="45.5483847" lon="11.769888"><ele>25.0</ele><time>2026-04-26T07:17:58.195Z</time></trkpt><trkpt lat="45.5484478" lon="11.7698645"><ele>25.0</ele><time>2026-04-26T07:18:03.196Z</time></trkpt><trkpt lat="45.5485242" lon="11.7698189"><ele>25.0</ele><time>2026-04-26T07:18:25.195Z</time></trkpt><trkpt lat="45.5487131" lon="11.7696944"><ele>25.0</ele><time>2026-04-26T07:18:27.197Z</time></trkpt><trkpt lat="45.5488545" lon="11.769616"><ele>25.666666666666668</ele><time>2026-04-26T07:18:28.196Z</time></trkpt><trkpt lat="45.5490181" lon="11.7695389"><ele>26.333333333333336</ele><time>2026-04-26T07:18:29.199Z</time></trkpt><trkpt lat="45.5491565" lon="11.7694838"><ele>27.0</ele><time>2026-04-26T07:18:29.997Z</time></trkpt><trkpt lat="45.5493918" lon="11.7693838"><ele>27.0</ele><time>2026-04-26T07:18:31.198Z</time></trkpt><trkpt lat="45.5496088" lon="11.7692722"><ele>27.0</ele><time>2026-04-26T07:18:32.197Z</time></trkpt><trkpt lat="45.5498332" lon="11.7691495"><ele>27.0</ele><time>2026-04-26T07:18:33.197Z</time></trkpt><trkpt lat="45.5500549" lon="11.7690314"><ele>27.0</ele><time>2026-04-26T07:18:34.197Z</time></trkpt><trkpt lat="45.5502783" lon="11.7689179"><ele>27.5</ele><time>2026-04-26T07:18:35.196Z</time></trkpt><trkpt lat="45.5505027" lon="11.7688028"><ele>28.0</ele><time>2026-04-26T07:18:36.197Z</time></trkpt><trkpt lat="45.5507297" lon="11.7686835"><ele>28.0</ele><time>2026-04-26T07:18:37.197Z</time></trkpt><trkpt lat="45.5509558" lon="11.7685655"><ele>28.0</ele><time>2026-04-26T07:18:38.197Z</time></trkpt><trkpt lat="45.5511799" lon="11.7684491"><ele>28.0</ele><time>2026-04-26T07:18:39.196Z</time></trkpt><trkpt lat="45.5513918" lon="11.7683374"><ele>28.0</ele><time>2026-04-26T07:18:40.197Z</time></trkpt><trkpt lat="45.5515954" lon="11.7682295"><ele>28.0</ele><time>2026-04-26T07:18:41.194Z</time></trkpt><trkpt lat="45.5517996" lon="11.768125"><ele>28.0</ele><time>2026-04-26T07:18:42.193Z</time></trkpt><trkpt lat="45.5520049" lon="11.7680197"><ele>28.0</ele><time>2026-04-26T07:18:43.194Z</time></trkpt><trkpt lat="45.5522096" lon="11.7679114"><ele>28.0</ele><time>2026-04-26T07:18:44.195Z</time></trkpt><trkpt lat="45.5523338" lon="11.7678451"><ele>27.0</ele><time>2026-04-26T07:18:44.807Z</time></trkpt><trkpt lat="45.5526179" lon="11.767694"><ele>26.0</ele><time>2026-04-26T07:18:46.196Z</time></trkpt><trkpt lat="45.5530252" lon="11.7674804"><ele>26.0</ele><time>2026-04-26T07:18:48.198Z</time></trkpt><trkpt lat="45.5532241" lon="11.7673715"><ele>26.0</ele><time>2026-04-26T07:18:49.198Z</time></trkpt><trkpt lat="45.5534119" lon="11.7672522"><ele>26.0</ele><time>2026-04-26T07:18:50.197Z</time></trkpt><trkpt lat="45.5535927" lon="11.7671152"><ele>26.0</ele><time>2026-04-26T07:18:51.198Z</time></trkpt><trkpt lat="45.5537667" lon="11.7669634"><ele>26.0</ele><time>2026-04-26T07:18:52.196Z</time></trkpt><trkpt lat="45.553934" lon="11.7667981"><ele>26.0</ele><time>2026-04-26T07:18:53.196Z</time></trkpt><trkpt lat="45.5540965" lon="11.7666236"><ele>26.0</ele><time>2026-04-26T07:18:54.195Z</time></trkpt><trkpt lat="45.5542598" lon="11.7664453"><ele>26.0</ele><time>2026-04-26T07:18:55.195Z</time></trkpt><trkpt lat="45.5544283" lon="11.7662668"><ele>26.0</ele><time>2026-04-26T07:18:56.195Z</time></trkpt><trkpt lat="45.5546018" lon="11.7660809"><ele>27.0</ele><time>2026-04-26T07:18:57.196Z</time></trkpt><trkpt lat="45.5547799" lon="11.7658858"><ele>28.0</ele><time>2026-04-26T07:18:58.197Z</time></trkpt><trkpt lat="45.554962" lon="11.7656817"><ele>28.0</ele><time>2026-04-26T07:18:59.199Z</time></trkpt><trkpt lat="45.5551493" lon="11.7654749"><ele>28.0</ele><time>2026-04-26T07:19:00.196Z</time></trkpt><trkpt lat="45.5553384" lon="11.765269"><ele>27.5</ele><time>2026-04-26T07:19:01.195Z</time></trkpt><trkpt lat="45.555523" lon="11.7650675"><ele>27.0</ele><time>2026-04-26T07:19:02.197Z</time></trkpt><trkpt lat="45.5557012" lon="11.7648756"><ele>27.0</ele><time>2026-04-26T07:19:03.195Z</time></trkpt><trkpt lat="45.5558067" lon="11.7647623"><ele>27.0</ele><time>2026-04-26T07:19:03.806Z</time></trkpt><trkpt lat="45.5560444" lon="11.7645039"><ele>27.0</ele><time>2026-04-26T07:19:05.194Z</time></trkpt><trkpt lat="45.5562141" lon="11.7643181"><ele>27.5</ele><time>2026-04-26T07:19:06.193Z</time></trkpt><trkpt lat="45.5563835" lon="11.7641325"><ele>28.0</ele><time>2026-04-26T07:19:07.194Z</time></trkpt><trkpt lat="45.5567211" lon="11.7637652"><ele>28.0</ele><time>2026-04-26T07:19:09.194Z</time></trkpt><trkpt lat="45.5568878" lon="11.7635835"><ele>28.0</ele><time>2026-04-26T07:19:10.196Z</time></trkpt><trkpt lat="45.5570521" lon="11.7634038"><ele>28.0</ele><time>2026-04-26T07:19:11.196Z</time></trkpt><trkpt lat="45.5572164" lon="11.7632236"><ele>28.0</ele><time>2026-04-26T07:19:12.198Z</time></trkpt><trkpt lat="45.5573814" lon="11.7630428"><ele>28.0</ele><time>2026-04-26T07:19:13.196Z</time></trkpt><trkpt lat="45.5575476" lon="11.7628612"><ele>28.0</ele><time>2026-04-26T07:19:14.198Z</time></trkpt><trkpt lat="45.5577156" lon="11.7626792"><ele>27.333333333333336</ele><time>2026-04-26T07:19:15.198Z</time></trkpt><trkpt lat="45.5578847" lon="11.7624948"><ele>26.666666666666664</ele><time>2026-04-26T07:19:16.196Z</time></trkpt><trkpt lat="45.5580533" lon="11.7623109"><ele>26.0</ele><time>2026-04-26T07:19:17.196Z</time></trkpt><trkpt lat="45.5582201" lon="11.7621287"><ele>26.0</ele><time>2026-04-26T07:19:18.196Z</time></trkpt><trkpt lat="45.5583838" lon="11.7619504"><ele>26.0</ele><time>2026-04-26T07:19:19.196Z</time></trkpt><trkpt lat="45.558546" lon="11.7617744"><ele>26.0</ele><time>2026-04-26T07:19:20.197Z</time></trkpt><trkpt lat="45.5587073" lon="11.7615987"><ele>27.333333333333332</ele><time>2026-04-26T07:19:21.195Z</time></trkpt><trkpt lat="45.5588694" lon="11.7614228"><ele>28.666666666666664</ele><time>2026-04-26T07:19:22.195Z</time></trkpt><trkpt lat="45.5590329" lon="11.7612454"><ele>30.0</ele><time>2026-04-26T07:19:23.196Z</time></trkpt><trkpt lat="45.5591984" lon="11.7610667"><ele>30.0</ele><time>2026-04-26T07:19:24.196Z</time></trkpt><trkpt lat="45.5593662" lon="11.7608881"><ele>30.0</ele><time>2026-04-26T07:19:25.195Z</time></trkpt><trkpt lat="45.5595337" lon="11.7607072"><ele>30.0</ele><time>2026-04-26T07:19:26.194Z</time></trkpt><trkpt lat="45.5596999" lon="11.7605257"><ele>30.0</ele><time>2026-04-26T07:19:27.194Z</time></trkpt><trkpt lat="45.5598659" lon="11.7603437"><ele>30.0</ele><time>2026-04-26T07:19:28.196Z</time></trkpt><trkpt lat="45.5601912" lon="11.7599914"><ele>30.0</ele><time>2026-04-26T07:19:30.195Z</time></trkpt><trkpt lat="45.5603522" lon="11.7598181"><ele>30.0</ele><time>2026-04-26T07:19:31.192Z</time></trkpt><trkpt lat="45.5605149" lon="11.7596448"><ele>30.0</ele><time>2026-04-26T07:19:32.193Z</time></trkpt><trkpt lat="45.5606787" lon="11.75947"><ele>29.333333333333336</ele><time>2026-04-26T07:19:33.194Z</time></trkpt><trkpt lat="45.560844" lon="11.759291"><ele>28.666666666666668</ele><time>2026-04-26T07:19:34.194Z</time></trkpt><trkpt lat="45.5610093" lon="11.7591114"><ele>28.0</ele><time>2026-04-26T07:19:35.196Z</time></trkpt><trkpt lat="45.5611727" lon="11.7589341"><ele>28.0</ele><time>2026-04-26T07:19:36.196Z</time></trkpt><trkpt lat="45.5613331" lon="11.7587599"><ele>28.0</ele><time>2026-04-26T07:19:37.195Z</time></trkpt><trkpt lat="45.5614903" lon="11.7585874"><ele>28.0</ele><time>2026-04-26T07:19:38.198Z</time></trkpt><trkpt lat="45.5616466" lon="11.7584152"><ele>28.0</ele><time>2026-04-26T07:19:39.2Z</time></trkpt><trkpt lat="45.5618026" lon="11.758242"><ele>28.0</ele><time>2026-04-26T07:19:40.195Z</time></trkpt><trkpt lat="45.561959" lon="11.7580693"><ele>28.0</ele><time>2026-04-26T07:19:41.196Z</time></trkpt><trkpt lat="45.5621144" lon="11.7578989"><ele>28.0</ele><time>2026-04-26T07:19:42.196Z</time></trkpt><trkpt lat="45.5622702" lon="11.7577305"><ele>28.0</ele><time>2026-04-26T07:19:43.197Z</time></trkpt><trkpt lat="45.5624252" lon="11.7575643"><ele>28.0</ele><time>2026-04-26T07:19:44.197Z</time></trkpt><trkpt lat="45.5625774" lon="11.7573988"><ele>28.333333333333336</ele><time>2026-04-26T07:19:45.196Z</time></trkpt><trkpt lat="45.5627266" lon="11.7572352"><ele>28.666666666666664</ele><time>2026-04-26T07:19:46.198Z</time></trkpt><trkpt lat="45.5628743" lon="11.7570763"><ele>29.0</ele><time>2026-04-26T07:19:47.197Z</time></trkpt><trkpt lat="45.5630222" lon="11.7569167"><ele>29.0</ele><time>2026-04-26T07:19:48.196Z</time></trkpt><trkpt lat="45.5631693" lon="11.7567555"><ele>29.0</ele><time>2026-04-26T07:19:49.197Z</time></trkpt><trkpt lat="45.5634569" lon="11.7564383"><ele>29.0</ele><time>2026-04-26T07:19:51.195Z</time></trkpt><trkpt lat="45.5635998" lon="11.7562788"><ele>29.0</ele><time>2026-04-26T07:19:52.196Z</time></trkpt><trkpt lat="45.5637447" lon="11.7561189"><ele>29.0</ele><time>2026-04-26T07:19:53.196Z</time></trkpt><trkpt lat="45.5638907" lon="11.7559607"><ele>29.0</ele><time>2026-04-26T07:19:54.194Z</time></trkpt><trkpt lat="45.5640381" lon="11.7558017"><ele>29.0</ele><time>2026-04-26T07:19:55.194Z</time></trkpt><trkpt lat="45.564186" lon="11.7556416"><ele>29.0</ele><time>2026-04-26T07:19:56.192Z</time></trkpt><trkpt lat="45.5643351" lon="11.7554802"><ele>29.0</ele><time>2026-04-26T07:19:57.193Z</time></trkpt><trkpt lat="45.5644862" lon="11.7553185"><ele>29.0</ele><time>2026-04-26T07:19:58.195Z</time></trkpt><trkpt lat="45.5646387" lon="11.7551552"><ele>29.0</ele><time>2026-04-26T07:19:59.195Z</time></trkpt><trkpt lat="45.5647912" lon="11.7549893"><ele>29.0</ele><time>2026-04-26T07:20:00.195Z</time></trkpt><trkpt lat="45.5649446" lon="11.7548219"><ele>29.0</ele><time>2026-04-26T07:20:01.195Z</time></trkpt><trkpt lat="45.5650994" lon="11.754654"><ele>29.0</ele><time>2026-04-26T07:20:02.197Z</time></trkpt><trkpt lat="45.5652552" lon="11.7544885"><ele>28.0</ele><time>2026-04-26T07:20:03.195Z</time></trkpt><trkpt lat="45.5654113" lon="11.7543208"><ele>27.0</ele><time>2026-04-26T07:20:04.194Z</time></trkpt><trkpt lat="45.5655696" lon="11.7541524"><ele>26.0</ele><time>2026-04-26T07:20:05.194Z</time></trkpt><trkpt lat="45.5657247" lon="11.7539777"><ele>26.0</ele><time>2026-04-26T07:20:06.197Z</time></trkpt><trkpt lat="45.5658804" lon="11.7538041"><ele>26.0</ele><time>2026-04-26T07:20:07.194Z</time></trkpt><trkpt lat="45.5660373" lon="11.7536323"><ele>26.0</ele><time>2026-04-26T07:20:08.195Z</time></trkpt><trkpt lat="45.5661943" lon="11.7534597"><ele>27.0</ele><time>2026-04-26T07:20:09.195Z</time></trkpt><trkpt lat="45.5663522" lon="11.7532861"><ele>28.0</ele><time>2026-04-26T07:20:10.198Z</time></trkpt><trkpt lat="45.5666693" lon="11.7529398"><ele>28.0</ele><time>2026-04-26T07:20:12.196Z</time></trkpt><trkpt lat="45.5668291" lon="11.7527667"><ele>28.0</ele><time>2026-04-26T07:20:13.195Z</time></trkpt><trkpt lat="45.5669892" lon="11.752593"><ele>28.0</ele><time>2026-04-26T07:20:14.196Z</time></trkpt><trkpt lat="45.5671498" lon="11.7524191"><ele>28.0</ele><time>2026-04-26T07:20:15.195Z</time></trkpt><trkpt lat="45.5673111" lon="11.7522448"><ele>28.0</ele><time>2026-04-26T07:20:16.196Z</time></trkpt><trkpt lat="45.5674727" lon="11.7520698"><ele>28.0</ele><time>2026-04-26T07:20:17.195Z</time></trkpt><trkpt lat="45.5676348" lon="11.7518945"><ele>28.0</ele><time>2026-04-26T07:20:18.194Z</time></trkpt><trkpt lat="45.5677974" lon="11.7517188"><ele>28.0</ele><time>2026-04-26T07:20:19.195Z</time></trkpt><trkpt lat="45.5679598" lon="11.7515428"><ele>28.0</ele><time>2026-04-26T07:20:20.194Z</time></trkpt><trkpt lat="45.5681161" lon="11.7513719"><ele>28.0</ele><time>2026-04-26T07:20:21.194Z</time></trkpt><trkpt lat="45.5682653" lon="11.751209"><ele>28.0</ele><time>2026-04-26T07:20:22.195Z</time></trkpt><trkpt lat="45.5684132" lon="11.7510487"><ele>28.0</ele><time>2026-04-26T07:20:23.196Z</time></trkpt><trkpt lat="45.5685614" lon="11.7508882"><ele>28.333333333333336</ele><time>2026-04-26T07:20:24.198Z</time></trkpt><trkpt lat="45.5687092" lon="11.7507274"><ele>28.666666666666664</ele><time>2026-04-26T07:20:25.196Z</time></trkpt><trkpt lat="45.5688566" lon="11.7505667"><ele>29.0</ele><time>2026-04-26T07:20:26.198Z</time></trkpt><trkpt lat="45.5690033" lon="11.7504073"><ele>29.0</ele><time>2026-04-26T07:20:27.196Z</time></trkpt><trkpt lat="45.5691498" lon="11.7502486"><ele>29.0</ele><time>2026-04-26T07:20:28.196Z</time></trkpt><trkpt lat="45.569296" lon="11.7500906"><ele>29.0</ele><time>2026-04-26T07:20:29.196Z</time></trkpt><trkpt lat="45.569442" lon="11.7499341"><ele>29.5</ele><time>2026-04-26T07:20:30.196Z</time></trkpt><trkpt lat="45.5695881" lon="11.749778"><ele>30.0</ele><time>2026-04-26T07:20:31.198Z</time></trkpt><trkpt lat="45.5698798" lon="11.7494674"><ele>29.666666666666664</ele><time>2026-04-26T07:20:33.196Z</time></trkpt><trkpt lat="45.5700258" lon="11.7493129"><ele>29.333333333333332</ele><time>2026-04-26T07:20:34.197Z</time></trkpt><trkpt lat="45.5701714" lon="11.7491581"><ele>29.0</ele><time>2026-04-26T07:20:35.199Z</time></trkpt><trkpt lat="45.5703175" lon="11.7489997"><ele>29.666666666666664</ele><time>2026-04-26T07:20:36.198Z</time></trkpt><trkpt lat="45.5704689" lon="11.7488359"><ele>30.333333333333336</ele><time>2026-04-26T07:20:37.196Z</time></trkpt><trkpt lat="45.5706253" lon="11.7486643"><ele>31.0</ele><time>2026-04-26T07:20:38.197Z</time></trkpt><trkpt lat="45.5707886" lon="11.7484843"><ele>31.0</ele><time>2026-04-26T07:20:39.195Z</time></trkpt><trkpt lat="45.5709223" lon="11.7483371"><ele>31.0</ele><time>2026-04-26T07:20:39.998Z</time></trkpt><trkpt lat="45.5711233" lon="11.7481184"><ele>31.0</ele><time>2026-04-26T07:20:41.198Z</time></trkpt><trkpt lat="45.5712889" lon="11.7479398"><ele>30.666666666666668</ele><time>2026-04-26T07:20:42.196Z</time></trkpt><trkpt lat="45.5714525" lon="11.7477625"><ele>30.333333333333336</ele><time>2026-04-26T07:20:43.194Z</time></trkpt><trkpt lat="45.5716167" lon="11.7475842"><ele>30.0</ele><time>2026-04-26T07:20:44.196Z</time></trkpt><trkpt lat="45.5717813" lon="11.7474059"><ele>30.0</ele><time>2026-04-26T07:20:45.196Z</time></trkpt><trkpt lat="45.5719473" lon="11.7472285"><ele>30.0</ele><time>2026-04-26T07:20:46.195Z</time></trkpt><trkpt lat="45.5721147" lon="11.74705"><ele>30.0</ele><time>2026-04-26T07:20:47.198Z</time></trkpt><trkpt lat="45.5722815" lon="11.7468711"><ele>30.666666666666664</ele><time>2026-04-26T07:20:48.197Z</time></trkpt><trkpt lat="45.5724472" lon="11.7466916"><ele>31.333333333333332</ele><time>2026-04-26T07:20:49.195Z</time></trkpt><trkpt lat="45.5726132" lon="11.7465112"><ele>32.0</ele><time>2026-04-26T07:20:50.198Z</time></trkpt><trkpt lat="45.5727795" lon="11.7463294"><ele>30.5</ele><time>2026-04-26T07:20:51.199Z</time></trkpt><trkpt lat="45.5729457" lon="11.7461473"><ele>29.0</ele><time>2026-04-26T07:20:52.195Z</time></trkpt><trkpt lat="45.5732766" lon="11.7457866"><ele>29.0</ele><time>2026-04-26T07:20:54.198Z</time></trkpt><trkpt lat="45.5734373" lon="11.7456124"><ele>29.0</ele><time>2026-04-26T07:20:55.197Z</time></trkpt><trkpt lat="45.5735946" lon="11.7454419"><ele>29.0</ele><time>2026-04-26T07:20:56.198Z</time></trkpt><trkpt lat="45.57375" lon="11.745274"><ele>29.333333333333332</ele><time>2026-04-26T07:20:57.198Z</time></trkpt><trkpt lat="45.5739059" lon="11.7451088"><ele>29.666666666666664</ele><time>2026-04-26T07:20:58.199Z</time></trkpt><trkpt lat="45.5740594" lon="11.7449432"><ele>30.0</ele><time>2026-04-26T07:20:59.198Z</time></trkpt><trkpt lat="45.5741516" lon="11.7448425"><ele>30.0</ele><time>2026-04-26T07:20:59.808Z</time></trkpt><trkpt lat="45.5743589" lon="11.7446153"><ele>30.0</ele><time>2026-04-26T07:21:01.197Z</time></trkpt><trkpt lat="45.5745052" lon="11.7444572"><ele>30.0</ele><time>2026-04-26T07:21:02.199Z</time></trkpt><trkpt lat="45.5746486" lon="11.7443041"><ele>31.0</ele><time>2026-04-26T07:21:03.198Z</time></trkpt><trkpt lat="45.5747883" lon="11.7441521"><ele>32.0</ele><time>2026-04-26T07:21:04.199Z</time></trkpt><trkpt lat="45.5749233" lon="11.7440039"><ele>33.0</ele><time>2026-04-26T07:21:05.199Z</time></trkpt><trkpt lat="45.5750579" lon="11.7438572"><ele>33.0</ele><time>2026-04-26T07:21:06.198Z</time></trkpt><trkpt lat="45.5751944" lon="11.7437088"><ele>33.0</ele><time>2026-04-26T07:21:07.196Z</time></trkpt><trkpt lat="45.5753321" lon="11.7435579"><ele>33.0</ele><time>2026-04-26T07:21:08.198Z</time></trkpt><trkpt lat="45.5754724" lon="11.7434027"><ele>31.666666666666664</ele><time>2026-04-26T07:21:09.195Z</time></trkpt><trkpt lat="45.5756158" lon="11.7432428"><ele>30.333333333333332</ele><time>2026-04-26T07:21:10.196Z</time></trkpt><trkpt lat="45.5757631" lon="11.7430809"><ele>29.0</ele><time>2026-04-26T07:21:11.198Z</time></trkpt><trkpt lat="45.5759127" lon="11.7429185"><ele>29.0</ele><time>2026-04-26T07:21:12.198Z</time></trkpt><trkpt lat="45.576065" lon="11.7427553"><ele>29.0</ele><time>2026-04-26T07:21:13.198Z</time></trkpt><trkpt lat="45.5763784" lon="11.7424163"><ele>30.333333333333332</ele><time>2026-04-26T07:21:15.198Z</time></trkpt><trkpt lat="45.576539" lon="11.7422405"><ele>31.666666666666664</ele><time>2026-04-26T07:21:16.197Z</time></trkpt><trkpt lat="45.576701" lon="11.7420639"><ele>33.0</ele><time>2026-04-26T07:21:17.198Z</time></trkpt><trkpt lat="45.5768641" lon="11.74189"><ele>32.666666666666664</ele><time>2026-04-26T07:21:18.196Z</time></trkpt><trkpt lat="45.5770269" lon="11.7417154"><ele>32.33333333333333</ele><time>2026-04-26T07:21:19.197Z</time></trkpt><trkpt lat="45.5771909" lon="11.7415397"><ele>32.0</ele><time>2026-04-26T07:21:20.197Z</time></trkpt><trkpt lat="45.5773561" lon="11.741365"><ele>32.0</ele><time>2026-04-26T07:21:21.199Z</time></trkpt><trkpt lat="45.5775225" lon="11.7411898"><ele>32.0</ele><time>2026-04-26T07:21:22.198Z</time></trkpt><trkpt lat="45.5776899" lon="11.7410138"><ele>32.0</ele><time>2026-04-26T07:21:23.199Z</time></trkpt><trkpt lat="45.5778584" lon="11.7408367"><ele>31.333333333333332</ele><time>2026-04-26T07:21:24.199Z</time></trkpt><trkpt lat="45.5780267" lon="11.7406588"><ele>30.666666666666664</ele><time>2026-04-26T07:21:25.198Z</time></trkpt><trkpt lat="45.5781951" lon="11.7404801"><ele>30.0</ele><time>2026-04-26T07:21:26.198Z</time></trkpt><trkpt lat="45.578363" lon="11.7403036"><ele>30.333333333333336</ele><time>2026-04-26T07:21:27.197Z</time></trkpt><trkpt lat="45.5785315" lon="11.7401298"><ele>30.666666666666668</ele><time>2026-04-26T07:21:28.198Z</time></trkpt><trkpt lat="45.5786996" lon="11.7399579"><ele>31.0</ele><time>2026-04-26T07:21:29.196Z</time></trkpt><trkpt lat="45.5788671" lon="11.7397893"><ele>31.333333333333336</ele><time>2026-04-26T07:21:30.196Z</time></trkpt><trkpt lat="45.5790331" lon="11.7396214"><ele>31.666666666666664</ele><time>2026-04-26T07:21:31.199Z</time></trkpt><trkpt lat="45.5791991" lon="11.7394564"><ele>32.0</ele><time>2026-04-26T07:21:32.198Z</time></trkpt><trkpt lat="45.579365" lon="11.7392958"><ele>31.5</ele><time>2026-04-26T07:21:33.194Z</time></trkpt><trkpt lat="45.5795328" lon="11.7391378"><ele>31.0</ele><time>2026-04-26T07:21:34.199Z</time></trkpt><trkpt lat="45.5798656" lon="11.7388164"><ele>31.0</ele><time>2026-04-26T07:21:36.196Z</time></trkpt><trkpt lat="45.5800272" lon="11.7386527"><ele>31.0</ele><time>2026-04-26T07:21:37.197Z</time></trkpt><trkpt lat="45.5801575" lon="11.7385212"><ele>31.0</ele><time>2026-04-26T07:21:37.999Z</time></trkpt><trkpt lat="45.580354" lon="11.7383226"><ele>31.333333333333336</ele><time>2026-04-26T07:21:39.196Z</time></trkpt><trkpt lat="45.5805198" lon="11.7381556"><ele>31.666666666666664</ele><time>2026-04-26T07:21:40.198Z</time></trkpt><trkpt lat="45.5806856" lon="11.7379892"><ele>32.0</ele><time>2026-04-26T07:21:41.198Z</time></trkpt><trkpt lat="45.5808509" lon="11.7378246"><ele>32.0</ele><time>2026-04-26T07:21:42.198Z</time></trkpt><trkpt lat="45.5810147" lon="11.7376647"><ele>32.0</ele><time>2026-04-26T07:21:43.198Z</time></trkpt><trkpt lat="45.5811727" lon="11.7375123"><ele>32.0</ele><time>2026-04-26T07:21:44.198Z</time></trkpt><trkpt lat="45.581327" lon="11.7373617"><ele>32.0</ele><time>2026-04-26T07:21:45.2Z</time></trkpt><trkpt lat="45.5814807" lon="11.7372108"><ele>32.0</ele><time>2026-04-26T07:21:46.198Z</time></trkpt><trkpt lat="45.581634" lon="11.7370597"><ele>32.0</ele><time>2026-04-26T07:21:47.199Z</time></trkpt><trkpt lat="45.5817846" lon="11.7369117"><ele>32.0</ele><time>2026-04-26T07:21:48.199Z</time></trkpt><trkpt lat="45.5819326" lon="11.7367671"><ele>32.0</ele><time>2026-04-26T07:21:49.199Z</time></trkpt><trkpt lat="45.5820804" lon="11.7366223"><ele>32.0</ele><time>2026-04-26T07:21:50.199Z</time></trkpt><trkpt lat="45.5822294" lon="11.7364755"><ele>32.0</ele><time>2026-04-26T07:21:51.198Z</time></trkpt><trkpt lat="45.5823765" lon="11.73633"><ele>32.0</ele><time>2026-04-26T07:21:52.196Z</time></trkpt><trkpt lat="45.5825164" lon="11.7361923"><ele>32.0</ele><time>2026-04-26T07:21:53.198Z</time></trkpt><trkpt lat="45.5826457" lon="11.7360651"><ele>32.0</ele><time>2026-04-26T07:21:54.199Z</time></trkpt><trkpt lat="45.5827617" lon="11.7359481"><ele>32.0</ele><time>2026-04-26T07:21:55.198Z</time></trkpt><trkpt lat="45.5829429" lon="11.7357794"><ele>32.0</ele><time>2026-04-26T07:21:57Z</time></trkpt><trkpt lat="45.5830521" lon="11.7356979"><ele>32.0</ele><time>2026-04-26T07:21:58.196Z</time></trkpt><trkpt lat="45.5831408" lon="11.7356458"><ele>32.0</ele><time>2026-04-26T07:21:59.196Z</time></trkpt><trkpt lat="45.5832317" lon="11.7356187"><ele>32.0</ele><time>2026-04-26T07:22:00.195Z</time></trkpt><trkpt lat="45.5833255" lon="11.7356221"><ele>32.0</ele><time>2026-04-26T07:22:01.198Z</time></trkpt><trkpt lat="45.5834166" lon="11.7356067"><ele>32.0</ele><time>2026-04-26T07:22:02.2Z</time></trkpt><trkpt lat="45.5834993" lon="11.7355495"><ele>32.0</ele><time>2026-04-26T07:22:03.198Z</time></trkpt><trkpt lat="45.5835641" lon="11.7354495"><ele>32.0</ele><time>2026-04-26T07:22:04.197Z</time></trkpt><trkpt lat="45.5836325" lon="11.7353037"><ele>32.0</ele><time>2026-04-26T07:22:05.197Z</time></trkpt><trkpt lat="45.5837254" lon="11.7351371"><ele>32.0</ele><time>2026-04-26T07:22:06.198Z</time></trkpt><trkpt lat="45.5838521" lon="11.7349569"><ele>32.0</ele><time>2026-04-26T07:22:07.197Z</time></trkpt><trkpt lat="45.5840017" lon="11.734748"><ele>32.0</ele><time>2026-04-26T07:22:08.199Z</time></trkpt><trkpt lat="45.5841745" lon="11.7345278"><ele>32.0</ele><time>2026-04-26T07:22:09.198Z</time></trkpt><trkpt lat="45.5843692" lon="11.7343208"><ele>31.5</ele><time>2026-04-26T07:22:10.198Z</time></trkpt><trkpt lat="45.5845777" lon="11.7341153"><ele>31.0</ele><time>2026-04-26T07:22:11.198Z</time></trkpt><trkpt lat="45.5847855" lon="11.7339037"><ele>31.0</ele><time>2026-04-26T07:22:12.198Z</time></trkpt><trkpt lat="45.5849919" lon="11.7336908"><ele>31.0</ele><time>2026-04-26T07:22:13.197Z</time></trkpt><trkpt lat="45.5851921" lon="11.7334814"><ele>31.5</ele><time>2026-04-26T07:22:14.198Z</time></trkpt><trkpt lat="45.5853867" lon="11.7332807"><ele>32.0</ele><time>2026-04-26T07:22:15.2Z</time></trkpt><trkpt lat="45.5855761" lon="11.7330864"><ele>31.0</ele><time>2026-04-26T07:22:16.198Z</time></trkpt><trkpt lat="45.5859441" lon="11.7327154"><ele>31.0</ele><time>2026-04-26T07:22:18.198Z</time></trkpt><trkpt lat="45.5861255" lon="11.7325326"><ele>31.0</ele><time>2026-04-26T07:22:19.198Z</time></trkpt><trkpt lat="45.5863061" lon="11.7323489"><ele>31.0</ele><time>2026-04-26T07:22:20.199Z</time></trkpt><trkpt lat="45.5864873" lon="11.7321655"><ele>31.5</ele><time>2026-04-26T07:22:21.195Z</time></trkpt><trkpt lat="45.5866701" lon="11.7319803"><ele>32.0</ele><time>2026-04-26T07:22:22.199Z</time></trkpt><trkpt lat="45.5868536" lon="11.7317921"><ele>32.666666666666664</ele><time>2026-04-26T07:22:23.195Z</time></trkpt><trkpt lat="45.5870375" lon="11.7316014"><ele>33.333333333333336</ele><time>2026-04-26T07:22:24.195Z</time></trkpt><trkpt lat="45.5872193" lon="11.7314199"><ele>34.0</ele><time>2026-04-26T07:22:25.198Z</time></trkpt><trkpt lat="45.5873942" lon="11.7312421"><ele>34.0</ele><time>2026-04-26T07:22:26.198Z</time></trkpt><trkpt lat="45.5875646" lon="11.7310612"><ele>34.0</ele><time>2026-04-26T07:22:27.198Z</time></trkpt><trkpt lat="45.5877347" lon="11.7308841"><ele>34.0</ele><time>2026-04-26T07:22:28.198Z</time></trkpt><trkpt lat="45.5879044" lon="11.7307106"><ele>33.333333333333336</ele><time>2026-04-26T07:22:29.197Z</time></trkpt><trkpt lat="45.5880751" lon="11.730536"><ele>32.666666666666664</ele><time>2026-04-26T07:22:30.198Z</time></trkpt><trkpt lat="45.5882491" lon="11.7303576"><ele>32.0</ele><time>2026-04-26T07:22:31.198Z</time></trkpt><trkpt lat="45.5884279" lon="11.7301757"><ele>32.0</ele><time>2026-04-26T07:22:32.197Z</time></trkpt><trkpt lat="45.5886093" lon="11.7299926"><ele>32.0</ele><time>2026-04-26T07:22:33.2Z</time></trkpt><trkpt lat="45.5887905" lon="11.7298101"><ele>32.0</ele><time>2026-04-26T07:22:34.198Z</time></trkpt><trkpt lat="45.588971" lon="11.7296286"><ele>32.0</ele><time>2026-04-26T07:22:35.198Z</time></trkpt><trkpt lat="45.5891508" lon="11.7294486"><ele>32.0</ele><time>2026-04-26T07:22:36.198Z</time></trkpt><trkpt lat="45.5893295" lon="11.7292691"><ele>32.0</ele><time>2026-04-26T07:22:37.198Z</time></trkpt><trkpt lat="45.5896865" lon="11.7289092"><ele>31.666666666666664</ele><time>2026-04-26T07:22:39.199Z</time></trkpt><trkpt lat="45.5898656" lon="11.7287281"><ele>31.333333333333336</ele><time>2026-04-26T07:22:40.199Z</time></trkpt><trkpt lat="45.5900449" lon="11.7285455"><ele>31.0</ele><time>2026-04-26T07:22:41.198Z</time></trkpt><trkpt lat="45.5902245" lon="11.7283605"><ele>31.666666666666668</ele><time>2026-04-26T07:22:42.2Z</time></trkpt><trkpt lat="45.5904056" lon="11.7281756"><ele>32.333333333333336</ele><time>2026-04-26T07:22:43.198Z</time></trkpt><trkpt lat="45.5905872" lon="11.7279884"><ele>33.0</ele><time>2026-04-26T07:22:44.199Z</time></trkpt><trkpt lat="45.5907661" lon="11.7278037"><ele>33.0</ele><time>2026-04-26T07:22:45.196Z</time></trkpt><trkpt lat="45.59094" lon="11.7276217"><ele>33.0</ele><time>2026-04-26T07:22:46.196Z</time></trkpt><trkpt lat="45.5911147" lon="11.7274391"><ele>33.0</ele><time>2026-04-26T07:22:47.194Z</time></trkpt><trkpt lat="45.5912898" lon="11.7272528"><ele>32.666666666666664</ele><time>2026-04-26T07:22:48.194Z</time></trkpt><trkpt lat="45.5914667" lon="11.7270648"><ele>32.33333333333333</ele><time>2026-04-26T07:22:49.196Z</time></trkpt><trkpt lat="45.5916446" lon="11.726876"><ele>32.0</ele><time>2026-04-26T07:22:50.201Z</time></trkpt><trkpt lat="45.5917522" lon="11.7267615"><ele>32.0</ele><time>2026-04-26T07:22:50.808Z</time></trkpt><trkpt lat="45.5919958" lon="11.7265012"><ele>32.0</ele><time>2026-04-26T07:22:52.2Z</time></trkpt><trkpt lat="45.5921682" lon="11.7263174"><ele>32.0</ele><time>2026-04-26T07:22:53.198Z</time></trkpt><trkpt lat="45.5923396" lon="11.7261359"><ele>32.0</ele><time>2026-04-26T07:22:54.199Z</time></trkpt><trkpt lat="45.5925108" lon="11.7259555"><ele>32.0</ele><time>2026-04-26T07:22:55.199Z</time></trkpt><trkpt lat="45.5926816" lon="11.7257756"><ele>32.0</ele><time>2026-04-26T07:22:56.198Z</time></trkpt><trkpt lat="45.5928528" lon="11.7255938"><ele>32.0</ele><time>2026-04-26T07:22:57.198Z</time></trkpt><trkpt lat="45.5930226" lon="11.7254097"><ele>32.0</ele><time>2026-04-26T07:22:58.197Z</time></trkpt><trkpt lat="45.5933436" lon="11.7250658"><ele>32.0</ele><time>2026-04-26T07:23:00.199Z</time></trkpt><trkpt lat="45.5934927" lon="11.724908"><ele>32.0</ele><time>2026-04-26T07:23:01.199Z</time></trkpt><trkpt lat="45.5936389" lon="11.7247559"><ele>32.0</ele><time>2026-04-26T07:23:02.199Z</time></trkpt><trkpt lat="45.5937825" lon="11.724607"><ele>31.666666666666664</ele><time>2026-04-26T07:23:03.198Z</time></trkpt><trkpt lat="45.5939192" lon="11.724463"><ele>31.333333333333336</ele><time>2026-04-26T07:23:04.199Z</time></trkpt><trkpt lat="45.5940465" lon="11.7243293"><ele>31.0</ele><time>2026-04-26T07:23:05.198Z</time></trkpt><trkpt lat="45.5941683" lon="11.7242013"><ele>30.75</ele><time>2026-04-26T07:23:06.198Z</time></trkpt><trkpt lat="45.5942841" lon="11.724078"><ele>30.5</ele><time>2026-04-26T07:23:07.197Z</time></trkpt><trkpt lat="45.5943989" lon="11.7239557"><ele>30.25</ele><time>2026-04-26T07:23:08.198Z</time></trkpt><trkpt lat="45.594515" lon="11.7238328"><ele>30.0</ele><time>2026-04-26T07:23:09.197Z</time></trkpt><trkpt lat="45.594637" lon="11.7237064"><ele>30.0</ele><time>2026-04-26T07:23:10.198Z</time></trkpt><trkpt lat="45.5947674" lon="11.7235723"><ele>30.0</ele><time>2026-04-26T07:23:11.196Z</time></trkpt><trkpt lat="45.5949068" lon="11.7234249"><ele>30.0</ele><time>2026-04-26T07:23:12.196Z</time></trkpt><trkpt lat="45.5950251" lon="11.7232994"><ele>30.0</ele><time>2026-04-26T07:23:13Z</time></trkpt><trkpt lat="45.5952072" lon="11.723108"><ele>30.0</ele><time>2026-04-26T07:23:14.197Z</time></trkpt><trkpt lat="45.5953604" lon="11.7229481"><ele>30.0</ele><time>2026-04-26T07:23:15.199Z</time></trkpt><trkpt lat="45.5955139" lon="11.7227901"><ele>31.666666666666664</ele><time>2026-04-26T07:23:16.197Z</time></trkpt><trkpt lat="45.5956621" lon="11.7226387"><ele>33.33333333333333</ele><time>2026-04-26T07:23:17.201Z</time></trkpt><trkpt lat="45.5957998" lon="11.7224975"><ele>35.0</ele><time>2026-04-26T07:23:18.197Z</time></trkpt><trkpt lat="45.5959303" lon="11.7223618"><ele>35.0</ele><time>2026-04-26T07:23:19.199Z</time></trkpt><trkpt lat="45.596167" lon="11.7221227"><ele>35.0</ele><time>2026-04-26T07:23:21.198Z</time></trkpt><trkpt lat="45.5962708" lon="11.7220214"><ele>35.0</ele><time>2026-04-26T07:23:22.197Z</time></trkpt><trkpt lat="45.5963634" lon="11.7219302"><ele>35.0</ele><time>2026-04-26T07:23:23.197Z</time></trkpt><trkpt lat="45.5964476" lon="11.721844"><ele>35.0</ele><time>2026-04-26T07:23:24.198Z</time></trkpt><trkpt lat="45.5965257" lon="11.7217621"><ele>35.0</ele><time>2026-04-26T07:23:25.196Z</time></trkpt><trkpt lat="45.5965982" lon="11.7216884"><ele>35.0</ele><time>2026-04-26T07:23:26.199Z</time></trkpt><trkpt lat="45.5966629" lon="11.7216246"><ele>35.0</ele><time>2026-04-26T07:23:27.196Z</time></trkpt><trkpt lat="45.5967192" lon="11.7215612"><ele>35.0</ele><time>2026-04-26T07:23:28.197Z</time></trkpt><trkpt lat="45.5967715" lon="11.7214984"><ele>35.0</ele><time>2026-04-26T07:23:29.197Z</time></trkpt><trkpt lat="45.5968231" lon="11.7214398"><ele>35.0</ele><time>2026-04-26T07:23:30.198Z</time></trkpt><trkpt lat="45.5968736" lon="11.7213847"><ele>35.0</ele><time>2026-04-26T07:23:31.198Z</time></trkpt><trkpt lat="45.5969625" lon="11.7212911"><ele>35.0</ele><time>2026-04-26T07:23:33.198Z</time></trkpt><trkpt lat="45.5970225" lon="11.7212359"><ele>35.0</ele><time>2026-04-26T07:23:35.194Z</time></trkpt><trkpt lat="45.5970813" lon="11.7211623"><ele>35.0</ele><time>2026-04-26T07:23:42.196Z</time></trkpt><trkpt lat="45.5972251" lon="11.7210327"><ele>34.666666666666664</ele><time>2026-04-26T07:23:44.197Z</time></trkpt><trkpt lat="45.5973379" lon="11.720923"><ele>34.333333333333336</ele><time>2026-04-26T07:23:45.197Z</time></trkpt><trkpt lat="45.5974734" lon="11.7207844"><ele>34.0</ele><time>2026-04-26T07:23:46.198Z</time></trkpt><trkpt lat="45.5976298" lon="11.7206228"><ele>34.0</ele><time>2026-04-26T07:23:47.198Z</time></trkpt><trkpt lat="45.597767" lon="11.7204819"><ele>34.0</ele><time>2026-04-26T07:23:47.997Z</time></trkpt><trkpt lat="45.597992" lon="11.7202539"><ele>34.0</ele><time>2026-04-26T07:23:49.197Z</time></trkpt><trkpt lat="45.598192" lon="11.7200499"><ele>34.5</ele><time>2026-04-26T07:23:50.197Z</time></trkpt><trkpt lat="45.5984004" lon="11.7198382"><ele>35.0</ele><time>2026-04-26T07:23:51.199Z</time></trkpt><trkpt lat="45.5986148" lon="11.7196244"><ele>35.0</ele><time>2026-04-26T07:23:52.196Z</time></trkpt><trkpt lat="45.5988316" lon="11.7194053"><ele>35.0</ele><time>2026-04-26T07:23:53.197Z</time></trkpt><trkpt lat="45.5990461" lon="11.7191934"><ele>34.5</ele><time>2026-04-26T07:23:54.196Z</time></trkpt><trkpt lat="45.5992446" lon="11.7189883"><ele>34.0</ele><time>2026-04-26T07:23:55.195Z</time></trkpt><trkpt lat="45.5994325" lon="11.718796"><ele>34.333333333333336</ele><time>2026-04-26T07:23:56.196Z</time></trkpt><trkpt lat="45.5996098" lon="11.7186147"><ele>34.666666666666664</ele><time>2026-04-26T07:23:57.197Z</time></trkpt><trkpt lat="45.5997814" lon="11.7184402"><ele>35.0</ele><time>2026-04-26T07:23:58.198Z</time></trkpt><trkpt lat="45.5999529" lon="11.7182687"><ele>35.0</ele><time>2026-04-26T07:23:59.196Z</time></trkpt><trkpt lat="45.6001253" lon="11.7180953"><ele>35.0</ele><time>2026-04-26T07:24:00.195Z</time></trkpt><trkpt lat="45.6002988" lon="11.7179189"><ele>35.0</ele><time>2026-04-26T07:24:01.197Z</time></trkpt><trkpt lat="45.6004726" lon="11.7177421"><ele>34.5</ele><time>2026-04-26T07:24:02.196Z</time></trkpt><trkpt lat="45.6006402" lon="11.7175723"><ele>34.0</ele><time>2026-04-26T07:24:03.197Z</time></trkpt><trkpt lat="45.6009544" lon="11.7172542"><ele>34.0</ele><time>2026-04-26T07:24:05.2Z</time></trkpt><trkpt lat="45.6010778" lon="11.7171294"><ele>34.0</ele><time>2026-04-26T07:24:06.002Z</time></trkpt><trkpt lat="45.6012594" lon="11.7169462"><ele>34.0</ele><time>2026-04-26T07:24:07.197Z</time></trkpt><trkpt lat="45.6014095" lon="11.7167956"><ele>34.333333333333336</ele><time>2026-04-26T07:24:08.197Z</time></trkpt><trkpt lat="45.60156" lon="11.7166444"><ele>34.666666666666664</ele><time>2026-04-26T07:24:09.196Z</time></trkpt><trkpt lat="45.6017116" lon="11.7164897"><ele>35.0</ele><time>2026-04-26T07:24:10.196Z</time></trkpt><trkpt lat="45.6018643" lon="11.7163308"><ele>35.0</ele><time>2026-04-26T07:24:11.198Z</time></trkpt><trkpt lat="45.6020192" lon="11.7161714"><ele>35.0</ele><time>2026-04-26T07:24:12.198Z</time></trkpt><trkpt lat="45.6021769" lon="11.7160126"><ele>35.0</ele><time>2026-04-26T07:24:13.198Z</time></trkpt><trkpt lat="45.6023396" lon="11.7158525"><ele>35.33333333333333</ele><time>2026-04-26T07:24:14.199Z</time></trkpt><trkpt lat="45.6025053" lon="11.715686"><ele>35.666666666666664</ele><time>2026-04-26T07:24:15.198Z</time></trkpt><trkpt lat="45.6026765" lon="11.7155134"><ele>36.0</ele><time>2026-04-26T07:24:16.197Z</time></trkpt><trkpt lat="45.602853" lon="11.7153353"><ele>36.666666666666664</ele><time>2026-04-26T07:24:17.199Z</time></trkpt><trkpt lat="45.603031" lon="11.7151557"><ele>37.33333333333333</ele><time>2026-04-26T07:24:18.196Z</time></trkpt><trkpt lat="45.6032097" lon="11.7149749"><ele>38.0</ele><time>2026-04-26T07:24:19.198Z</time></trkpt><trkpt lat="45.6033908" lon="11.7147916"><ele>38.0</ele><time>2026-04-26T07:24:20.198Z</time></trkpt><trkpt lat="45.6035747" lon="11.7146059"><ele>38.0</ele><time>2026-04-26T07:24:21.197Z</time></trkpt><trkpt lat="45.6037613" lon="11.7144177"><ele>37.0</ele><time>2026-04-26T07:24:22.196Z</time></trkpt><trkpt lat="45.6039498" lon="11.7142274"><ele>36.0</ele><time>2026-04-26T07:24:23.195Z</time></trkpt><trkpt lat="45.6041384" lon="11.7140364"><ele>37.0</ele><time>2026-04-26T07:24:24.194Z</time></trkpt><trkpt lat="45.6045091" lon="11.7136624"><ele>37.0</ele><time>2026-04-26T07:24:26.196Z</time></trkpt><trkpt lat="45.6046888" lon="11.7134797"><ele>37.0</ele><time>2026-04-26T07:24:27.197Z</time></trkpt><trkpt lat="45.6048668" lon="11.7132996"><ele>37.0</ele><time>2026-04-26T07:24:28.198Z</time></trkpt><trkpt lat="45.6050397" lon="11.7131284"><ele>37.0</ele><time>2026-04-26T07:24:29.2Z</time></trkpt><trkpt lat="45.60521" lon="11.7129614"><ele>37.0</ele><time>2026-04-26T07:24:30.197Z</time></trkpt><trkpt lat="45.605379" lon="11.7127931"><ele>37.0</ele><time>2026-04-26T07:24:31.196Z</time></trkpt><trkpt lat="45.6055481" lon="11.7126217"><ele>36.66666666666667</ele><time>2026-04-26T07:24:32.198Z</time></trkpt><trkpt lat="45.6057178" lon="11.7124496"><ele>36.333333333333336</ele><time>2026-04-26T07:24:33.197Z</time></trkpt><trkpt lat="45.6058876" lon="11.7122778"><ele>36.0</ele><time>2026-04-26T07:24:34.198Z</time></trkpt><trkpt lat="45.6060575" lon="11.7121064"><ele>36.0</ele><time>2026-04-26T07:24:35.2Z</time></trkpt><trkpt lat="45.6062281" lon="11.7119349"><ele>36.0</ele><time>2026-04-26T07:24:36.196Z</time></trkpt><trkpt lat="45.6063999" lon="11.7117624"><ele>36.0</ele><time>2026-04-26T07:24:37.197Z</time></trkpt><trkpt lat="45.6065719" lon="11.711589"><ele>35.666666666666664</ele><time>2026-04-26T07:24:38.199Z</time></trkpt><trkpt lat="45.6067427" lon="11.7114167"><ele>35.33333333333333</ele><time>2026-04-26T07:24:39.197Z</time></trkpt><trkpt lat="45.6069123" lon="11.711245"><ele>35.0</ele><time>2026-04-26T07:24:40.197Z</time></trkpt><trkpt lat="45.6070812" lon="11.7110731"><ele>36.0</ele><time>2026-04-26T07:24:41.198Z</time></trkpt><trkpt lat="45.6072482" lon="11.7109026"><ele>37.0</ele><time>2026-04-26T07:24:42.198Z</time></trkpt><trkpt lat="45.6074135" lon="11.710735"><ele>38.0</ele><time>2026-04-26T07:24:43.196Z</time></trkpt><trkpt lat="45.6075785" lon="11.7105692"><ele>38.0</ele><time>2026-04-26T07:24:44.198Z</time></trkpt><trkpt lat="45.6077416" lon="11.7104065"><ele>38.0</ele><time>2026-04-26T07:24:45.197Z</time></trkpt><trkpt lat="45.6080639" lon="11.7100818"><ele>38.0</ele><time>2026-04-26T07:24:47.197Z</time></trkpt><trkpt lat="45.6082246" lon="11.7099178"><ele>38.0</ele><time>2026-04-26T07:24:48.199Z</time></trkpt><trkpt lat="45.6083856" lon="11.7097539"><ele>38.0</ele><time>2026-04-26T07:24:49.193Z</time></trkpt><trkpt lat="45.6085488" lon="11.7095887"><ele>37.33333333333333</ele><time>2026-04-26T07:24:50.194Z</time></trkpt><trkpt lat="45.6087135" lon="11.7094215"><ele>36.666666666666664</ele><time>2026-04-26T07:24:51.195Z</time></trkpt><trkpt lat="45.6088788" lon="11.7092534"><ele>36.0</ele><time>2026-04-26T07:24:52.196Z</time></trkpt><trkpt lat="45.6090448" lon="11.7090863"><ele>36.0</ele><time>2026-04-26T07:24:53.199Z</time></trkpt><trkpt lat="45.6092122" lon="11.7089217"><ele>36.0</ele><time>2026-04-26T07:24:54.197Z</time></trkpt><trkpt lat="45.6093791" lon="11.7087551"><ele>36.0</ele><time>2026-04-26T07:24:55.199Z</time></trkpt><trkpt lat="45.6095457" lon="11.7085863"><ele>35.666666666666664</ele><time>2026-04-26T07:24:56.198Z</time></trkpt><trkpt lat="45.6097126" lon="11.7084179"><ele>35.33333333333333</ele><time>2026-04-26T07:24:57.196Z</time></trkpt><trkpt lat="45.6098792" lon="11.7082464"><ele>35.0</ele><time>2026-04-26T07:24:58.196Z</time></trkpt><trkpt lat="45.6100449" lon="11.7080721"><ele>35.0</ele><time>2026-04-26T07:24:59.197Z</time></trkpt><trkpt lat="45.6102108" lon="11.7078983"><ele>35.0</ele><time>2026-04-26T07:25:00.197Z</time></trkpt><trkpt lat="45.6103771" lon="11.707728"><ele>35.0</ele><time>2026-04-26T07:25:01.196Z</time></trkpt><trkpt lat="45.6104775" lon="11.707626"><ele>36.0</ele><time>2026-04-26T07:25:01.806Z</time></trkpt><trkpt lat="45.6107076" lon="11.7073929"><ele>37.0</ele><time>2026-04-26T07:25:03.196Z</time></trkpt><trkpt lat="45.6108712" lon="11.7072268"><ele>37.0</ele><time>2026-04-26T07:25:04.196Z</time></trkpt><trkpt lat="45.6110336" lon="11.7070633"><ele>37.0</ele><time>2026-04-26T07:25:05.199Z</time></trkpt><trkpt lat="45.6111968" lon="11.7069029"><ele>37.0</ele><time>2026-04-26T07:25:06.198Z</time></trkpt><trkpt lat="45.6115209" lon="11.7065816"><ele>37.0</ele><time>2026-04-26T07:25:08.197Z</time></trkpt><trkpt lat="45.6116804" lon="11.70642"><ele>37.0</ele><time>2026-04-26T07:25:09.197Z</time></trkpt><trkpt lat="45.6118378" lon="11.7062554"><ele>37.0</ele><time>2026-04-26T07:25:10.198Z</time></trkpt><trkpt lat="45.6119954" lon="11.7060888"><ele>37.0</ele><time>2026-04-26T07:25:11.199Z</time></trkpt><trkpt lat="45.6121548" lon="11.7059253"><ele>37.0</ele><time>2026-04-26T07:25:12.2Z</time></trkpt><trkpt lat="45.612314" lon="11.7057645"><ele>37.0</ele><time>2026-04-26T07:25:13.197Z</time></trkpt><trkpt lat="45.6124738" lon="11.7056045"><ele>37.0</ele><time>2026-04-26T07:25:14.196Z</time></trkpt><trkpt lat="45.6126331" lon="11.7054432"><ele>37.0</ele><time>2026-04-26T07:25:15.195Z</time></trkpt><trkpt lat="45.6127917" lon="11.7052792"><ele>37.0</ele><time>2026-04-26T07:25:16.198Z</time></trkpt><trkpt lat="45.6129504" lon="11.7051136"><ele>37.0</ele><time>2026-04-26T07:25:17.196Z</time></trkpt><trkpt lat="45.6131099" lon="11.7049486"><ele>37.0</ele><time>2026-04-26T07:25:18.197Z</time></trkpt><trkpt lat="45.6132687" lon="11.7047861"><ele>37.0</ele><time>2026-04-26T07:25:19.198Z</time></trkpt><trkpt lat="45.6134272" lon="11.7046252"><ele>37.0</ele><time>2026-04-26T07:25:20.198Z</time></trkpt><trkpt lat="45.6135869" lon="11.7044645"><ele>37.0</ele><time>2026-04-26T07:25:21.197Z</time></trkpt><trkpt lat="45.6137478" lon="11.7043027"><ele>37.0</ele><time>2026-04-26T07:25:22.198Z</time></trkpt><trkpt lat="45.613909" lon="11.704141"><ele>38.0</ele><time>2026-04-26T07:25:23.198Z</time></trkpt><trkpt lat="45.6140712" lon="11.7039778"><ele>39.0</ele><time>2026-04-26T07:25:24.197Z</time></trkpt><trkpt lat="45.614235" lon="11.7038106"><ele>40.0</ele><time>2026-04-26T07:25:25.198Z</time></trkpt><trkpt lat="45.6144019" lon="11.7036408"><ele>39.5</ele><time>2026-04-26T07:25:26.199Z</time></trkpt><trkpt lat="45.614569" lon="11.7034726"><ele>39.0</ele><time>2026-04-26T07:25:27.197Z</time></trkpt><trkpt lat="45.6149015" lon="11.7031415"><ele>39.0</ele><time>2026-04-26T07:25:29.198Z</time></trkpt><trkpt lat="45.6150652" lon="11.7029769"><ele>39.0</ele><time>2026-04-26T07:25:30.197Z</time></trkpt><trkpt lat="45.6152266" lon="11.7028129"><ele>39.0</ele><time>2026-04-26T07:25:31.198Z</time></trkpt><trkpt lat="45.6153873" lon="11.7026491"><ele>39.666666666666664</ele><time>2026-04-26T07:25:32.2Z</time></trkpt><trkpt lat="45.6155468" lon="11.7024864"><ele>40.33333333333333</ele><time>2026-04-26T07:25:33.199Z</time></trkpt><trkpt lat="45.6157036" lon="11.7023259"><ele>41.0</ele><time>2026-04-26T07:25:34.196Z</time></trkpt><trkpt lat="45.6158566" lon="11.7021656"><ele>41.0</ele><time>2026-04-26T07:25:35.198Z</time></trkpt><trkpt lat="45.6160092" lon="11.702007"><ele>41.0</ele><time>2026-04-26T07:25:36.198Z</time></trkpt><trkpt lat="45.6161593" lon="11.7018534"><ele>41.0</ele><time>2026-04-26T07:25:37.196Z</time></trkpt><trkpt lat="45.6163036" lon="11.7017064"><ele>41.666666666666664</ele><time>2026-04-26T07:25:38.196Z</time></trkpt><trkpt lat="45.6164481" lon="11.7015626"><ele>42.333333333333336</ele><time>2026-04-26T07:25:39.195Z</time></trkpt><trkpt lat="45.6165381" lon="11.7014739"><ele>43.0</ele><time>2026-04-26T07:25:39.806Z</time></trkpt><trkpt lat="45.6167416" lon="11.7012678"><ele>43.0</ele><time>2026-04-26T07:25:41.196Z</time></trkpt><trkpt lat="45.6168787" lon="11.70111"><ele>43.0</ele><time>2026-04-26T07:25:42.198Z</time></trkpt><trkpt lat="45.6170038" lon="11.7009271"><ele>43.0</ele><time>2026-04-26T07:25:43.2Z</time></trkpt><trkpt lat="45.6171043" lon="11.7007152"><ele>43.0</ele><time>2026-04-26T07:25:44.196Z</time></trkpt><trkpt lat="45.617176" lon="11.7004747"><ele>43.0</ele><time>2026-04-26T07:25:45.196Z</time></trkpt><trkpt lat="45.6172285" lon="11.7002116"><ele>43.0</ele><time>2026-04-26T07:25:46.195Z</time></trkpt><trkpt lat="45.6172709" lon="11.6999309"><ele>42.5</ele><time>2026-04-26T07:25:47.197Z</time></trkpt><trkpt lat="45.6173106" lon="11.6996525"><ele>42.0</ele><time>2026-04-26T07:25:48.195Z</time></trkpt><trkpt lat="45.6173845" lon="11.6991512"><ele>42.0</ele><time>2026-04-26T07:25:50.198Z</time></trkpt><trkpt lat="45.6174163" lon="11.6989361"><ele>42.0</ele><time>2026-04-26T07:25:51.196Z</time></trkpt><trkpt lat="45.6174523" lon="11.6987381"><ele>42.0</ele><time>2026-04-26T07:25:52.195Z</time></trkpt><trkpt lat="45.6175047" lon="11.6985563"><ele>42.0</ele><time>2026-04-26T07:25:53.197Z</time></trkpt><trkpt lat="45.6175769" lon="11.6983945"><ele>42.0</ele><time>2026-04-26T07:25:54.196Z</time></trkpt><trkpt lat="45.6176625" lon="11.6982553"><ele>42.0</ele><time>2026-04-26T07:25:55.195Z</time></trkpt><trkpt lat="45.6177598" lon="11.6981386"><ele>42.0</ele><time>2026-04-26T07:25:56.197Z</time></trkpt><trkpt lat="45.6178711" lon="11.6980493"><ele>42.0</ele><time>2026-04-26T07:25:57.197Z</time></trkpt><trkpt lat="45.617993" lon="11.6979898"><ele>42.0</ele><time>2026-04-26T07:25:58.196Z</time></trkpt><trkpt lat="45.6181301" lon="11.6979559"><ele>42.0</ele><time>2026-04-26T07:25:59.198Z</time></trkpt><trkpt lat="45.6182865" lon="11.6979543"><ele>42.0</ele><time>2026-04-26T07:26:00.196Z</time></trkpt><trkpt lat="45.6184657" lon="11.6979607"><ele>41.333333333333336</ele><time>2026-04-26T07:26:01.194Z</time></trkpt><trkpt lat="45.6186568" lon="11.6979606"><ele>40.66666666666667</ele><time>2026-04-26T07:26:02.195Z</time></trkpt><trkpt lat="45.6188369" lon="11.6979633"><ele>40.0</ele><time>2026-04-26T07:26:03.194Z</time></trkpt><trkpt lat="45.6190045" lon="11.6979739"><ele>40.0</ele><time>2026-04-26T07:26:04.194Z</time></trkpt><trkpt lat="45.6191631" lon="11.6979878"><ele>40.0</ele><time>2026-04-26T07:26:05.195Z</time></trkpt><trkpt lat="45.619314" lon="11.698001"><ele>40.0</ele><time>2026-04-26T07:26:06.197Z</time></trkpt><trkpt lat="45.6194625" lon="11.698014"><ele>39.66666666666667</ele><time>2026-04-26T07:26:07.196Z</time></trkpt><trkpt lat="45.6196088" lon="11.6980262"><ele>39.333333333333336</ele><time>2026-04-26T07:26:08.197Z</time></trkpt><trkpt lat="45.6197538" lon="11.6980381"><ele>39.0</ele><time>2026-04-26T07:26:09.196Z</time></trkpt><trkpt lat="45.6200231" lon="11.698065"><ele>39.0</ele><time>2026-04-26T07:26:11.198Z</time></trkpt><trkpt lat="45.6201476" lon="11.6980763"><ele>39.0</ele><time>2026-04-26T07:26:12.196Z</time></trkpt><trkpt lat="45.6202683" lon="11.6980867"><ele>39.0</ele><time>2026-04-26T07:26:13.196Z</time></trkpt><trkpt lat="45.6203858" lon="11.6980978"><ele>39.0</ele><time>2026-04-26T07:26:14.196Z</time></trkpt><trkpt lat="45.6204997" lon="11.6981083"><ele>39.166666666666664</ele><time>2026-04-26T07:26:15.195Z</time></trkpt><trkpt lat="45.6206046" lon="11.6981182"><ele>39.333333333333336</ele><time>2026-04-26T07:26:16.195Z</time></trkpt><trkpt lat="45.6206952" lon="11.6981279"><ele>39.5</ele><time>2026-04-26T07:26:17.198Z</time></trkpt><trkpt lat="45.6207704" lon="11.6981418"><ele>39.66666666666667</ele><time>2026-04-26T07:26:18.197Z</time></trkpt><trkpt lat="45.6208399" lon="11.6981671"><ele>39.833333333333336</ele><time>2026-04-26T07:26:19.198Z</time></trkpt><trkpt lat="45.6209099" lon="11.6982227"><ele>40.0</ele><time>2026-04-26T07:26:20.196Z</time></trkpt><trkpt lat="45.6209923" lon="11.6982986"><ele>40.0</ele><time>2026-04-26T07:26:21.198Z</time></trkpt><trkpt lat="45.6210733" lon="11.6983358"><ele>40.0</ele><time>2026-04-26T07:26:22.196Z</time></trkpt><trkpt lat="45.6211442" lon="11.6983169"><ele>40.0</ele><time>2026-04-26T07:26:23.198Z</time></trkpt><trkpt lat="45.6212009" lon="11.6982534"><ele>40.0</ele><time>2026-04-26T07:26:24.197Z</time></trkpt><trkpt lat="45.6212295" lon="11.698153"><ele>40.0</ele><time>2026-04-26T07:26:25.196Z</time></trkpt><trkpt lat="45.6212235" lon="11.6980331"><ele>40.0</ele><time>2026-04-26T07:26:26.198Z</time></trkpt><trkpt lat="45.6211891" lon="11.6978941"><ele>40.66666666666667</ele><time>2026-04-26T07:26:27.193Z</time></trkpt><trkpt lat="45.6211541" lon="11.6977253"><ele>41.333333333333336</ele><time>2026-04-26T07:26:28.192Z</time></trkpt><trkpt lat="45.6211386" lon="11.6975036"><ele>42.0</ele><time>2026-04-26T07:26:29.193Z</time></trkpt><trkpt lat="45.6211454" lon="11.6972339"><ele>43.0</ele><time>2026-04-26T07:26:30.195Z</time></trkpt><trkpt lat="45.6211786" lon="11.6965745"><ele>43.0</ele><time>2026-04-26T07:26:32.197Z</time></trkpt><trkpt lat="45.6211945" lon="11.6962066"><ele>43.0</ele><time>2026-04-26T07:26:33.197Z</time></trkpt><trkpt lat="45.6212109" lon="11.6958508"><ele>42.0</ele><time>2026-04-26T07:26:34.198Z</time></trkpt><trkpt lat="45.6212286" lon="11.6955164"><ele>41.0</ele><time>2026-04-26T07:26:35.197Z</time></trkpt><trkpt lat="45.6212454" lon="11.6951986"><ele>41.0</ele><time>2026-04-26T07:26:36.197Z</time></trkpt><trkpt lat="45.6212613" lon="11.6948904"><ele>41.0</ele><time>2026-04-26T07:26:37.196Z</time></trkpt><trkpt lat="45.6212744" lon="11.6945834"><ele>41.0</ele><time>2026-04-26T07:26:38.196Z</time></trkpt><trkpt lat="45.6212842" lon="11.694277"><ele>40.666666666666664</ele><time>2026-04-26T07:26:39.196Z</time></trkpt><trkpt lat="45.6212931" lon="11.6939722"><ele>40.333333333333336</ele><time>2026-04-26T07:26:40.197Z</time></trkpt><trkpt lat="45.6212975" lon="11.693672"><ele>40.0</ele><time>2026-04-26T07:26:41.197Z</time></trkpt><trkpt lat="45.6212938" lon="11.6933801"><ele>40.0</ele><time>2026-04-26T07:26:42.195Z</time></trkpt><trkpt lat="45.621284" lon="11.6930889"><ele>40.0</ele><time>2026-04-26T07:26:43.196Z</time></trkpt><trkpt lat="45.6212707" lon="11.6927989"><ele>40.0</ele><time>2026-04-26T07:26:44.197Z</time></trkpt><trkpt lat="45.621258" lon="11.6925095"><ele>40.333333333333336</ele><time>2026-04-26T07:26:45.195Z</time></trkpt><trkpt lat="45.6212469" lon="11.6922206"><ele>40.666666666666664</ele><time>2026-04-26T07:26:46.196Z</time></trkpt><trkpt lat="45.6212344" lon="11.6919328"><ele>41.0</ele><time>2026-04-26T07:26:47.197Z</time></trkpt><trkpt lat="45.6212208" lon="11.691643"><ele>42.0</ele><time>2026-04-26T07:26:48.195Z</time></trkpt><trkpt lat="45.6212067" lon="11.6913495"><ele>43.0</ele><time>2026-04-26T07:26:49.195Z</time></trkpt><trkpt lat="45.6211924" lon="11.6910552"><ele>44.0</ele><time>2026-04-26T07:26:50.195Z</time></trkpt><trkpt lat="45.621179" lon="11.6907638"><ele>44.0</ele><time>2026-04-26T07:26:51.194Z</time></trkpt><trkpt lat="45.6211506" lon="11.6902121"><ele>44.0</ele><time>2026-04-26T07:26:53.196Z</time></trkpt><trkpt lat="45.6211377" lon="11.6899658"><ele>44.0</ele><time>2026-04-26T07:26:54.193Z</time></trkpt><trkpt lat="45.6211259" lon="11.6897437"><ele>44.0</ele><time>2026-04-26T07:26:55.197Z</time></trkpt><trkpt lat="45.6211149" lon="11.6895455"><ele>44.0</ele><time>2026-04-26T07:26:56.197Z</time></trkpt><trkpt lat="45.6211049" lon="11.6893679"><ele>44.0</ele><time>2026-04-26T07:26:57.196Z</time></trkpt><trkpt lat="45.6210958" lon="11.689208"><ele>44.0</ele><time>2026-04-26T07:26:58.196Z</time></trkpt><trkpt lat="45.6210921" lon="11.6890547"><ele>44.0</ele><time>2026-04-26T07:26:59.195Z</time></trkpt><trkpt lat="45.6211139" lon="11.6888994"><ele>44.0</ele><time>2026-04-26T07:27:00.195Z</time></trkpt><trkpt lat="45.6211448" lon="11.6888077"><ele>44.0</ele><time>2026-04-26T07:27:00.804Z</time></trkpt><trkpt lat="45.6212585" lon="11.6886297"><ele>45.33333333333333</ele><time>2026-04-26T07:27:02.196Z</time></trkpt><trkpt lat="45.6213761" lon="11.6885389"><ele>46.666666666666664</ele><time>2026-04-26T07:27:03.197Z</time></trkpt><trkpt lat="45.6215229" lon="11.6884784"><ele>48.0</ele><time>2026-04-26T07:27:04.197Z</time></trkpt><trkpt lat="45.6216958" lon="11.6884363"><ele>48.0</ele><time>2026-04-26T07:27:05.199Z</time></trkpt><trkpt lat="45.6218925" lon="11.6883909"><ele>48.0</ele><time>2026-04-26T07:27:06.196Z</time></trkpt><trkpt lat="45.6221049" lon="11.6883344"><ele>48.0</ele><time>2026-04-26T07:27:07.196Z</time></trkpt><trkpt lat="45.6223254" lon="11.6882742"><ele>46.0</ele><time>2026-04-26T07:27:08.199Z</time></trkpt><trkpt lat="45.6225541" lon="11.6882175"><ele>44.0</ele><time>2026-04-26T07:27:09.197Z</time></trkpt><trkpt lat="45.6227896" lon="11.6881626"><ele>44.0</ele><time>2026-04-26T07:27:10.197Z</time></trkpt><trkpt lat="45.6230232" lon="11.6881085"><ele>44.0</ele><time>2026-04-26T07:27:11.197Z</time></trkpt><trkpt lat="45.623243" lon="11.688056"><ele>44.0</ele><time>2026-04-26T07:27:12.197Z</time></trkpt><trkpt lat="45.6236516" lon="11.6879626"><ele>44.0</ele><time>2026-04-26T07:27:14.197Z</time></trkpt><trkpt lat="45.6238051" lon="11.6879263"><ele>44.0</ele><time>2026-04-26T07:27:14.997Z</time></trkpt><trkpt lat="45.6240279" lon="11.6878726"><ele>44.0</ele><time>2026-04-26T07:27:16.194Z</time></trkpt><trkpt lat="45.6242111" lon="11.6878276"><ele>44.0</ele><time>2026-04-26T07:27:17.195Z</time></trkpt><trkpt lat="45.6243931" lon="11.6877816"><ele>44.33333333333333</ele><time>2026-04-26T07:27:18.193Z</time></trkpt><trkpt lat="45.6245735" lon="11.6877369"><ele>44.666666666666664</ele><time>2026-04-26T07:27:19.198Z</time></trkpt><trkpt lat="45.6247482" lon="11.6876955"><ele>45.0</ele><time>2026-04-26T07:27:20.197Z</time></trkpt><trkpt lat="45.6249197" lon="11.6876575"><ele>45.0</ele><time>2026-04-26T07:27:21.197Z</time></trkpt><trkpt lat="45.6250912" lon="11.6876194"><ele>45.0</ele><time>2026-04-26T07:27:22.198Z</time></trkpt><trkpt lat="45.6252625" lon="11.6875794"><ele>45.0</ele><time>2026-04-26T07:27:23.197Z</time></trkpt><trkpt lat="45.6254342" lon="11.6875404"><ele>44.333333333333336</ele><time>2026-04-26T07:27:24.196Z</time></trkpt><trkpt lat="45.6256071" lon="11.6874994"><ele>43.66666666666667</ele><time>2026-04-26T07:27:25.197Z</time></trkpt><trkpt lat="45.6257723" lon="11.6874598"><ele>43.0</ele><time>2026-04-26T07:27:26.198Z</time></trkpt><trkpt lat="45.6259296" lon="11.6874228"><ele>43.0</ele><time>2026-04-26T07:27:27.196Z</time></trkpt><trkpt lat="45.6260807" lon="11.6873857"><ele>43.0</ele><time>2026-04-26T07:27:28.196Z</time></trkpt><trkpt lat="45.6262338" lon="11.6873436"><ele>43.0</ele><time>2026-04-26T07:27:29.199Z</time></trkpt><trkpt lat="45.6263941" lon="11.6872958"><ele>44.0</ele><time>2026-04-26T07:27:30.197Z</time></trkpt><trkpt lat="45.6265632" lon="11.6872404"><ele>45.0</ele><time>2026-04-26T07:27:31.195Z</time></trkpt><trkpt lat="45.6267406" lon="11.6871749"><ele>46.0</ele><time>2026-04-26T07:27:32.197Z</time></trkpt><trkpt lat="45.6269232" lon="11.6871021"><ele>45.5</ele><time>2026-04-26T07:27:33.195Z</time></trkpt><trkpt lat="45.6272835" lon="11.6869414"><ele>45.0</ele><time>2026-04-26T07:27:35.198Z</time></trkpt><trkpt lat="45.6274534" lon="11.6868535"><ele>45.0</ele><time>2026-04-26T07:27:36.195Z</time></trkpt><trkpt lat="45.6276208" lon="11.6867608"><ele>45.0</ele><time>2026-04-26T07:27:37.195Z</time></trkpt><trkpt lat="45.6277872" lon="11.6866639"><ele>45.0</ele><time>2026-04-26T07:27:38.197Z</time></trkpt><trkpt lat="45.6279514" lon="11.6865621"><ele>45.0</ele><time>2026-04-26T07:27:39.197Z</time></trkpt><trkpt lat="45.6281151" lon="11.6864573"><ele>45.0</ele><time>2026-04-26T07:27:40.194Z</time></trkpt><trkpt lat="45.6282793" lon="11.6863498"><ele>45.0</ele><time>2026-04-26T07:27:41.196Z</time></trkpt><trkpt lat="45.6284425" lon="11.6862375"><ele>45.0</ele><time>2026-04-26T07:27:42.195Z</time></trkpt><trkpt lat="45.6286042" lon="11.6861206"><ele>45.0</ele><time>2026-04-26T07:27:43.193Z</time></trkpt><trkpt lat="45.6287644" lon="11.685997"><ele>45.0</ele><time>2026-04-26T07:27:44.195Z</time></trkpt><trkpt lat="45.62892" lon="11.6858683"><ele>44.666666666666664</ele><time>2026-04-26T07:27:45.194Z</time></trkpt><trkpt lat="45.6290703" lon="11.6857404"><ele>44.33333333333333</ele><time>2026-04-26T07:27:46.195Z</time></trkpt><trkpt lat="45.6292182" lon="11.6856119"><ele>44.0</ele><time>2026-04-26T07:27:47.194Z</time></trkpt><trkpt lat="45.6293679" lon="11.6854833"><ele>44.33333333333333</ele><time>2026-04-26T07:27:48.197Z</time></trkpt><trkpt lat="45.6295184" lon="11.6853564"><ele>44.666666666666664</ele><time>2026-04-26T07:27:49.197Z</time></trkpt><trkpt lat="45.6296687" lon="11.6852298"><ele>45.0</ele><time>2026-04-26T07:27:50.197Z</time></trkpt><trkpt lat="45.6298178" lon="11.6851056"><ele>45.0</ele><time>2026-04-26T07:27:51.197Z</time></trkpt><trkpt lat="45.6299662" lon="11.6849821"><ele>45.0</ele><time>2026-04-26T07:27:52.198Z</time></trkpt><trkpt lat="45.6301162" lon="11.6848566"><ele>45.0</ele><time>2026-04-26T07:27:53.196Z</time></trkpt><trkpt lat="45.63027" lon="11.6847278"><ele>45.0</ele><time>2026-04-26T07:27:54.197Z</time></trkpt><trkpt lat="45.6305954" lon="11.6844609"><ele>45.0</ele><time>2026-04-26T07:27:56.198Z</time></trkpt><trkpt lat="45.6307728" lon="11.6843273"><ele>45.333333333333336</ele><time>2026-04-26T07:27:57.196Z</time></trkpt><trkpt lat="45.630965" lon="11.6841985"><ele>45.66666666666667</ele><time>2026-04-26T07:27:58.198Z</time></trkpt><trkpt lat="45.6311702" lon="11.6840777"><ele>46.0</ele><time>2026-04-26T07:27:59.198Z</time></trkpt><trkpt lat="45.6313832" lon="11.6839696"><ele>47.0</ele><time>2026-04-26T07:28:00.196Z</time></trkpt><trkpt lat="45.6316003" lon="11.6838739"><ele>48.0</ele><time>2026-04-26T07:28:01.199Z</time></trkpt><trkpt lat="45.6318178" lon="11.6837871"><ele>48.0</ele><time>2026-04-26T07:28:02.2Z</time></trkpt><trkpt lat="45.6320327" lon="11.6837022"><ele>48.0</ele><time>2026-04-26T07:28:03.198Z</time></trkpt><trkpt lat="45.6322456" lon="11.6836195"><ele>48.0</ele><time>2026-04-26T07:28:04.194Z</time></trkpt><trkpt lat="45.6324581" lon="11.6835403"><ele>48.0</ele><time>2026-04-26T07:28:05.195Z</time></trkpt><trkpt lat="45.6326703" lon="11.6834611"><ele>48.0</ele><time>2026-04-26T07:28:06.193Z</time></trkpt><trkpt lat="45.6328841" lon="11.6833811"><ele>48.0</ele><time>2026-04-26T07:28:07.193Z</time></trkpt><trkpt lat="45.6330991" lon="11.6832967"><ele>48.0</ele><time>2026-04-26T07:28:08.196Z</time></trkpt><trkpt lat="45.6333142" lon="11.683211"><ele>48.0</ele><time>2026-04-26T07:28:09.197Z</time></trkpt><trkpt lat="45.6335281" lon="11.6831253"><ele>48.0</ele><time>2026-04-26T07:28:10.196Z</time></trkpt><trkpt lat="45.6337395" lon="11.6830411"><ele>49.0</ele><time>2026-04-26T07:28:11.196Z</time></trkpt><trkpt lat="45.6339487" lon="11.6829574"><ele>50.0</ele><time>2026-04-26T07:28:12.197Z</time></trkpt><trkpt lat="45.6341572" lon="11.682872"><ele>51.0</ele><time>2026-04-26T07:28:13.196Z</time></trkpt><trkpt lat="45.634367" lon="11.6827879"><ele>50.5</ele><time>2026-04-26T07:28:14.196Z</time></trkpt><trkpt lat="45.6345745" lon="11.6827056"><ele>50.0</ele><time>2026-04-26T07:28:15.196Z</time></trkpt><trkpt lat="45.6349871" lon="11.6825469"><ele>50.0</ele><time>2026-04-26T07:28:17.197Z</time></trkpt><trkpt lat="45.6351948" lon="11.6824663"><ele>50.0</ele><time>2026-04-26T07:28:18.196Z</time></trkpt><trkpt lat="45.6354027" lon="11.6823847"><ele>50.0</ele><time>2026-04-26T07:28:19.199Z</time></trkpt><trkpt lat="45.6356084" lon="11.6823026"><ele>50.0</ele><time>2026-04-26T07:28:20.197Z</time></trkpt><trkpt lat="45.6358141" lon="11.6822216"><ele>50.0</ele><time>2026-04-26T07:28:21.197Z</time></trkpt><trkpt lat="45.6360198" lon="11.6821419"><ele>50.0</ele><time>2026-04-26T07:28:22.194Z</time></trkpt><trkpt lat="45.6362276" lon="11.6820624"><ele>50.0</ele><time>2026-04-26T07:28:23.197Z</time></trkpt><trkpt lat="45.6364382" lon="11.68198"><ele>50.0</ele><time>2026-04-26T07:28:24.197Z</time></trkpt><trkpt lat="45.6366522" lon="11.6818972"><ele>50.0</ele><time>2026-04-26T07:28:25.196Z</time></trkpt><trkpt lat="45.6368669" lon="11.6818145"><ele>49.333333333333336</ele><time>2026-04-26T07:28:26.198Z</time></trkpt><trkpt lat="45.6370785" lon="11.6817355"><ele>48.66666666666667</ele><time>2026-04-26T07:28:27.198Z</time></trkpt><trkpt lat="45.6372818" lon="11.6816571"><ele>48.0</ele><time>2026-04-26T07:28:28.196Z</time></trkpt><trkpt lat="45.6374784" lon="11.6815803"><ele>48.0</ele><time>2026-04-26T07:28:29.195Z</time></trkpt><trkpt lat="45.6376688" lon="11.6815067"><ele>48.0</ele><time>2026-04-26T07:28:30.194Z</time></trkpt><trkpt lat="45.6378578" lon="11.6814334"><ele>48.0</ele><time>2026-04-26T07:28:31.195Z</time></trkpt><trkpt lat="45.6380474" lon="11.6813595"><ele>48.0</ele><time>2026-04-26T07:28:32.196Z</time></trkpt><trkpt lat="45.6382371" lon="11.6812844"><ele>48.0</ele><time>2026-04-26T07:28:33.196Z</time></trkpt><trkpt lat="45.6384286" lon="11.6812087"><ele>48.0</ele><time>2026-04-26T07:28:34.195Z</time></trkpt><trkpt lat="45.6386237" lon="11.6811315"><ele>48.5</ele><time>2026-04-26T07:28:35.197Z</time></trkpt><trkpt lat="45.6388178" lon="11.6810534"><ele>49.0</ele><time>2026-04-26T07:28:36.197Z</time></trkpt><trkpt lat="45.6392199" lon="11.6808782"><ele>49.0</ele><time>2026-04-26T07:28:38.198Z</time></trkpt><trkpt lat="45.6394399" lon="11.6807779"><ele>49.0</ele><time>2026-04-26T07:28:39.197Z</time></trkpt><trkpt lat="45.6396756" lon="11.6806863"><ele>48.5</ele><time>2026-04-26T07:28:40.198Z</time></trkpt><trkpt lat="45.6399271" lon="11.6806005"><ele>48.0</ele><time>2026-04-26T07:28:41.199Z</time></trkpt><trkpt lat="45.6401907" lon="11.6805053"><ele>48.0</ele><time>2026-04-26T07:28:42.197Z</time></trkpt><trkpt lat="45.6404574" lon="11.6804015"><ele>48.0</ele><time>2026-04-26T07:28:43.198Z</time></trkpt><trkpt lat="45.6407158" lon="11.6802999"><ele>48.5</ele><time>2026-04-26T07:28:44.197Z</time></trkpt><trkpt lat="45.6409609" lon="11.6802065"><ele>49.0</ele><time>2026-04-26T07:28:45.203Z</time></trkpt><trkpt lat="45.6411907" lon="11.6801201"><ele>49.33333333333333</ele><time>2026-04-26T07:28:46.197Z</time></trkpt><trkpt lat="45.6414089" lon="11.6800372"><ele>49.66666666666667</ele><time>2026-04-26T07:28:47.203Z</time></trkpt><trkpt lat="45.6416153" lon="11.6799556"><ele>50.0</ele><time>2026-04-26T07:28:48.197Z</time></trkpt><trkpt lat="45.6418144" lon="11.679877"><ele>50.0</ele><time>2026-04-26T07:28:49.198Z</time></trkpt><trkpt lat="45.6420045" lon="11.6798014"><ele>50.0</ele><time>2026-04-26T07:28:50.198Z</time></trkpt><trkpt lat="45.6421865" lon="11.6797278"><ele>50.0</ele><time>2026-04-26T07:28:51.196Z</time></trkpt><trkpt lat="45.6423644" lon="11.6796566"><ele>50.0</ele><time>2026-04-26T07:28:52.197Z</time></trkpt><trkpt lat="45.6425364" lon="11.6795865"><ele>50.0</ele><time>2026-04-26T07:28:53.196Z</time></trkpt><trkpt lat="45.6427059" lon="11.6795186"><ele>50.0</ele><time>2026-04-26T07:28:54.194Z</time></trkpt><trkpt lat="45.6428783" lon="11.6794573"><ele>49.66666666666667</ele><time>2026-04-26T07:28:55.194Z</time></trkpt><trkpt lat="45.6430558" lon="11.6794168"><ele>49.33333333333333</ele><time>2026-04-26T07:28:56.196Z</time></trkpt><trkpt lat="45.643239" lon="11.67941"><ele>49.0</ele><time>2026-04-26T07:28:57.196Z</time></trkpt><trkpt lat="45.6436102" lon="11.6794822"><ele>49.33333333333333</ele><time>2026-04-26T07:28:59.199Z</time></trkpt><trkpt lat="45.6437902" lon="11.6795505"><ele>49.66666666666667</ele><time>2026-04-26T07:29:00.197Z</time></trkpt><trkpt lat="45.6439657" lon="11.6796425"><ele>50.0</ele><time>2026-04-26T07:29:01.197Z</time></trkpt><trkpt lat="45.6441356" lon="11.6797541"><ele>50.0</ele><time>2026-04-26T07:29:02.198Z</time></trkpt><trkpt lat="45.6443008" lon="11.6798755"><ele>50.0</ele><time>2026-04-26T07:29:03.196Z</time></trkpt><trkpt lat="45.6444663" lon="11.6799998"><ele>50.0</ele><time>2026-04-26T07:29:04.198Z</time></trkpt><trkpt lat="45.6446305" lon="11.6801222"><ele>50.0</ele><time>2026-04-26T07:29:05.199Z</time></trkpt><trkpt lat="45.6447926" lon="11.6802416"><ele>50.0</ele><time>2026-04-26T07:29:06.198Z</time></trkpt><trkpt lat="45.6449489" lon="11.680354"><ele>50.0</ele><time>2026-04-26T07:29:07.197Z</time></trkpt><trkpt lat="45.6450989" lon="11.6804602"><ele>50.0</ele><time>2026-04-26T07:29:08.198Z</time></trkpt><trkpt lat="45.6452502" lon="11.6805561"><ele>50.0</ele><time>2026-04-26T07:29:09.197Z</time></trkpt><trkpt lat="45.64541" lon="11.6806362"><ele>50.0</ele><time>2026-04-26T07:29:10.197Z</time></trkpt><trkpt lat="45.6455742" lon="11.6806934"><ele>50.25</ele><time>2026-04-26T07:29:11.199Z</time></trkpt><trkpt lat="45.6457284" lon="11.6807229"><ele>50.5</ele><time>2026-04-26T07:29:12.196Z</time></trkpt><trkpt lat="45.6458658" lon="11.6807348"><ele>50.75</ele><time>2026-04-26T07:29:13.195Z</time></trkpt><trkpt lat="45.6459848" lon="11.6807378"><ele>51.0</ele><time>2026-04-26T07:29:14.199Z</time></trkpt><trkpt lat="45.6460848" lon="11.6807363"><ele>51.199999999999996</ele><time>2026-04-26T07:29:15.197Z</time></trkpt><trkpt lat="45.6461677" lon="11.6807338"><ele>51.4</ele><time>2026-04-26T07:29:16.196Z</time></trkpt><trkpt lat="45.6462366" lon="11.6807315"><ele>51.6</ele><time>2026-04-26T07:29:17.2Z</time></trkpt><trkpt lat="45.6463405" lon="11.6807371"><ele>51.8</ele><time>2026-04-26T07:29:19.193Z</time></trkpt><trkpt lat="45.6464931" lon="11.6806131"><ele>52.0</ele><time>2026-04-26T07:29:23.197Z</time></trkpt><trkpt lat="45.6465473" lon="11.680477"><ele>52.0</ele><time>2026-04-26T07:29:24.198Z</time></trkpt><trkpt lat="45.646623" lon="11.6802964"><ele>52.0</ele><time>2026-04-26T07:29:25.197Z</time></trkpt><trkpt lat="45.6467142" lon="11.6801068"><ele>52.0</ele><time>2026-04-26T07:29:26.197Z</time></trkpt><trkpt lat="45.6468122" lon="11.6799455"><ele>52.0</ele><time>2026-04-26T07:29:27.197Z</time></trkpt><trkpt lat="45.6469265" lon="11.679804"><ele>52.0</ele><time>2026-04-26T07:29:28.197Z</time></trkpt><trkpt lat="45.6470656" lon="11.6796801"><ele>52.0</ele><time>2026-04-26T07:29:29.198Z</time></trkpt><trkpt lat="45.6472138" lon="11.6795709"><ele>51.666666666666664</ele><time>2026-04-26T07:29:30.198Z</time></trkpt><trkpt lat="45.6473608" lon="11.6794852"><ele>51.33333333333333</ele><time>2026-04-26T07:29:31.199Z</time></trkpt><trkpt lat="45.6475031" lon="11.6794216"><ele>51.0</ele><time>2026-04-26T07:29:32.2Z</time></trkpt><trkpt lat="45.6476443" lon="11.6793832"><ele>51.0</ele><time>2026-04-26T07:29:33.196Z</time></trkpt><trkpt lat="45.6477914" lon="11.6793615"><ele>51.0</ele><time>2026-04-26T07:29:34.201Z</time></trkpt><trkpt lat="45.6479385" lon="11.67935"><ele>51.0</ele><time>2026-04-26T07:29:35.199Z</time></trkpt><trkpt lat="45.6480753" lon="11.6793429"><ele>51.0</ele><time>2026-04-26T07:29:36.198Z</time></trkpt><trkpt lat="45.6482045" lon="11.679335"><ele>51.25</ele><time>2026-04-26T07:29:37.198Z</time></trkpt><trkpt lat="45.6483323" lon="11.679326"><ele>51.5</ele><time>2026-04-26T07:29:38.198Z</time></trkpt><trkpt lat="45.6484606" lon="11.6793184"><ele>51.75</ele><time>2026-04-26T07:29:39.196Z</time></trkpt><trkpt lat="45.6485343" lon="11.6793147"><ele>52.0</ele><time>2026-04-26T07:29:39.801Z</time></trkpt><trkpt lat="45.6488132" lon="11.6792984"><ele>52.25</ele><time>2026-04-26T07:29:42.194Z</time></trkpt><trkpt lat="45.6489296" lon="11.6792946"><ele>52.5</ele><time>2026-04-26T07:29:43.2Z</time></trkpt><trkpt lat="45.6490455" lon="11.6792912"><ele>52.75</ele><time>2026-04-26T07:29:44.195Z</time></trkpt><trkpt lat="45.649164" lon="11.679287"><ele>53.0</ele><time>2026-04-26T07:29:45.194Z</time></trkpt><trkpt lat="45.6492883" lon="11.6792864"><ele>53.0</ele><time>2026-04-26T07:29:46.196Z</time></trkpt><trkpt lat="45.6494175" lon="11.6792929"><ele>53.0</ele><time>2026-04-26T07:29:47.199Z</time></trkpt><trkpt lat="45.6495497" lon="11.6793152"><ele>53.0</ele><time>2026-04-26T07:29:48.195Z</time></trkpt><trkpt lat="45.6496837" lon="11.6793596"><ele>53.0</ele><time>2026-04-26T07:29:49.196Z</time></trkpt><trkpt lat="45.6498154" lon="11.6794222"><ele>53.0</ele><time>2026-04-26T07:29:50.196Z</time></trkpt><trkpt lat="45.6499486" lon="11.6794944"><ele>53.0</ele><time>2026-04-26T07:29:51.195Z</time></trkpt><trkpt lat="45.6500844" lon="11.6795702"><ele>53.0</ele><time>2026-04-26T07:29:52.196Z</time></trkpt><trkpt lat="45.6502226" lon="11.6796458"><ele>53.0</ele><time>2026-04-26T07:29:53.196Z</time></trkpt><trkpt lat="45.6503619" lon="11.6797206"><ele>53.0</ele><time>2026-04-26T07:29:54.195Z</time></trkpt><trkpt lat="45.6505013" lon="11.6797853"><ele>53.0</ele><time>2026-04-26T07:29:55.194Z</time></trkpt><trkpt lat="45.6506341" lon="11.6798277"><ele>53.0</ele><time>2026-04-26T07:29:56.196Z</time></trkpt><trkpt lat="45.6507685" lon="11.6798521"><ele>53.0</ele><time>2026-04-26T07:29:57.195Z</time></trkpt><trkpt lat="45.6509113" lon="11.6798671"><ele>53.0</ele><time>2026-04-26T07:29:58.196Z</time></trkpt><trkpt lat="45.651062" lon="11.6798816"><ele>53.0</ele><time>2026-04-26T07:29:59.197Z</time></trkpt><trkpt lat="45.6512121" lon="11.6799091"><ele>53.0</ele><time>2026-04-26T07:30:00.194Z</time></trkpt><trkpt lat="45.6514801" lon="11.6800024"><ele>52.66666666666667</ele><time>2026-04-26T07:30:02.197Z</time></trkpt><trkpt lat="45.6516277" lon="11.6800209"><ele>52.33333333333333</ele><time>2026-04-26T07:30:03.196Z</time></trkpt><trkpt lat="45.6517848" lon="11.6800222"><ele>52.0</ele><time>2026-04-26T07:30:04.197Z</time></trkpt><trkpt lat="45.6519558" lon="11.6800132"><ele>53.0</ele><time>2026-04-26T07:30:05.198Z</time></trkpt><trkpt lat="45.6521271" lon="11.6799897"><ele>54.0</ele><time>2026-04-26T07:30:06.196Z</time></trkpt><trkpt lat="45.6522867" lon="11.6799677"><ele>55.0</ele><time>2026-04-26T07:30:07.194Z</time></trkpt><trkpt lat="45.6524376" lon="11.6799524"><ele>55.0</ele><time>2026-04-26T07:30:08.195Z</time></trkpt><trkpt lat="45.6525868" lon="11.6799423"><ele>55.0</ele><time>2026-04-26T07:30:09.194Z</time></trkpt><trkpt lat="45.6527405" lon="11.6799341"><ele>55.0</ele><time>2026-04-26T07:30:10.193Z</time></trkpt><trkpt lat="45.6528984" lon="11.679936"><ele>55.33333333333333</ele><time>2026-04-26T07:30:11.196Z</time></trkpt><trkpt lat="45.6530579" lon="11.6799483"><ele>55.66666666666667</ele><time>2026-04-26T07:30:12.197Z</time></trkpt><trkpt lat="45.6532183" lon="11.6799679"><ele>56.0</ele><time>2026-04-26T07:30:13.195Z</time></trkpt><trkpt lat="45.6533729" lon="11.6799955"><ele>56.0</ele><time>2026-04-26T07:30:14.197Z</time></trkpt><trkpt lat="45.6535285" lon="11.6800274"><ele>56.0</ele><time>2026-04-26T07:30:15.196Z</time></trkpt><trkpt lat="45.6536931" lon="11.6800572"><ele>56.0</ele><time>2026-04-26T07:30:16.195Z</time></trkpt><trkpt lat="45.6538697" lon="11.6800873"><ele>56.0</ele><time>2026-04-26T07:30:17.196Z</time></trkpt><trkpt lat="45.6540535" lon="11.6801178"><ele>56.0</ele><time>2026-04-26T07:30:18.195Z</time></trkpt><trkpt lat="45.6542371" lon="11.6801481"><ele>56.0</ele><time>2026-04-26T07:30:19.196Z</time></trkpt><trkpt lat="45.6544142" lon="11.6801764"><ele>55.5</ele><time>2026-04-26T07:30:20.197Z</time></trkpt><trkpt lat="45.6545844" lon="11.6802057"><ele>55.0</ele><time>2026-04-26T07:30:21.197Z</time></trkpt><trkpt lat="45.6549249" lon="11.680267"><ele>54.666666666666664</ele><time>2026-04-26T07:30:23.196Z</time></trkpt><trkpt lat="45.6550935" lon="11.6802992"><ele>54.33333333333333</ele><time>2026-04-26T07:30:24.197Z</time></trkpt><trkpt lat="45.6552565" lon="11.6803424"><ele>54.0</ele><time>2026-04-26T07:30:25.196Z</time></trkpt><trkpt lat="45.6554194" lon="11.6804093"><ele>54.0</ele><time>2026-04-26T07:30:26.198Z</time></trkpt><trkpt lat="45.6555794" lon="11.6805027"><ele>54.0</ele><time>2026-04-26T07:30:27.195Z</time></trkpt><trkpt lat="45.6557303" lon="11.6806233"><ele>54.0</ele><time>2026-04-26T07:30:28.196Z</time></trkpt><trkpt lat="45.6558629" lon="11.6807679"><ele>54.0</ele><time>2026-04-26T07:30:29.196Z</time></trkpt><trkpt lat="45.6559776" lon="11.6809343"><ele>54.0</ele><time>2026-04-26T07:30:30.195Z</time></trkpt><trkpt lat="45.6560755" lon="11.6811242"><ele>54.0</ele><time>2026-04-26T07:30:31.195Z</time></trkpt><trkpt lat="45.6561519" lon="11.6813267"><ele>53.66666666666667</ele><time>2026-04-26T07:30:32.196Z</time></trkpt><trkpt lat="45.6562194" lon="11.6815441"><ele>53.333333333333336</ele><time>2026-04-26T07:30:33.194Z</time></trkpt><trkpt lat="45.6562894" lon="11.6817751"><ele>53.0</ele><time>2026-04-26T07:30:34.193Z</time></trkpt><trkpt lat="45.6563633" lon="11.6820209"><ele>53.0</ele><time>2026-04-26T07:30:35.196Z</time></trkpt><trkpt lat="45.6564359" lon="11.682267"><ele>53.0</ele><time>2026-04-26T07:30:36.194Z</time></trkpt><trkpt lat="45.656509" lon="11.6825078"><ele>53.0</ele><time>2026-04-26T07:30:37.195Z</time></trkpt><trkpt lat="45.6565818" lon="11.6827516"><ele>53.66666666666667</ele><time>2026-04-26T07:30:38.197Z</time></trkpt><trkpt lat="45.6566547" lon="11.6829985"><ele>54.33333333333333</ele><time>2026-04-26T07:30:39.196Z</time></trkpt><trkpt lat="45.6567281" lon="11.6832462"><ele>55.0</ele><time>2026-04-26T07:30:40.196Z</time></trkpt><trkpt lat="45.6568007" lon="11.6834908"><ele>55.5</ele><time>2026-04-26T07:30:41.196Z</time></trkpt><trkpt lat="45.6568686" lon="11.6837245"><ele>56.0</ele><time>2026-04-26T07:30:42.197Z</time></trkpt><trkpt lat="45.6569943" lon="11.6841603"><ele>55.5</ele><time>2026-04-26T07:30:44.199Z</time></trkpt><trkpt lat="45.6570519" lon="11.684365"><ele>55.0</ele><time>2026-04-26T07:30:45.195Z</time></trkpt><trkpt lat="45.6571075" lon="11.6845551"><ele>54.5</ele><time>2026-04-26T07:30:46.195Z</time></trkpt><trkpt lat="45.6571583" lon="11.684728"><ele>54.0</ele><time>2026-04-26T07:30:47.196Z</time></trkpt><trkpt lat="45.6572057" lon="11.6848846"><ele>53.800000000000004</ele><time>2026-04-26T07:30:48.195Z</time></trkpt><trkpt lat="45.6572486" lon="11.6850267"><ele>53.60000000000001</ele><time>2026-04-26T07:30:49.196Z</time></trkpt><trkpt lat="45.6572882" lon="11.6851529"><ele>53.4</ele><time>2026-04-26T07:30:50.195Z</time></trkpt><trkpt lat="45.6573234" lon="11.6852613"><ele>53.2</ele><time>2026-04-26T07:30:51.195Z</time></trkpt><trkpt lat="45.6573572" lon="11.6853527"><ele>53.0</ele><time>2026-04-26T07:30:52.195Z</time></trkpt><trkpt lat="45.6574125" lon="11.6854846"><ele>53.25</ele><time>2026-04-26T07:30:54.194Z</time></trkpt><trkpt lat="45.6574684" lon="11.6855806"><ele>53.5</ele><time>2026-04-26T07:30:57.192Z</time></trkpt><trkpt lat="45.6576127" lon="11.6855592"><ele>53.75</ele><time>2026-04-26T07:30:59.194Z</time></trkpt><trkpt lat="45.6577378" lon="11.68549"><ele>54.0</ele><time>2026-04-26T07:31:00.193Z</time></trkpt><trkpt lat="45.6578959" lon="11.6853996"><ele>54.0</ele><time>2026-04-26T07:31:01.195Z</time></trkpt><trkpt lat="45.6580819" lon="11.68531"><ele>54.0</ele><time>2026-04-26T07:31:02.195Z</time></trkpt><trkpt lat="45.6582734" lon="11.6852167"><ele>54.0</ele><time>2026-04-26T07:31:03.194Z</time></trkpt><trkpt lat="45.6586038" lon="11.6849897"><ele>54.66666666666667</ele><time>2026-04-26T07:31:05.196Z</time></trkpt><trkpt lat="45.6587537" lon="11.6848477"><ele>55.333333333333336</ele><time>2026-04-26T07:31:06.195Z</time></trkpt><trkpt lat="45.6589129" lon="11.6847102"><ele>56.0</ele><time>2026-04-26T07:31:07.194Z</time></trkpt><trkpt lat="45.6590861" lon="11.6845957"><ele>56.0</ele><time>2026-04-26T07:31:08.194Z</time></trkpt><trkpt lat="45.6592721" lon="11.6845042"><ele>56.0</ele><time>2026-04-26T07:31:09.195Z</time></trkpt><trkpt lat="45.6594502" lon="11.6844224"><ele>56.0</ele><time>2026-04-26T07:31:10.194Z</time></trkpt><trkpt lat="45.6596191" lon="11.6843435"><ele>56.333333333333336</ele><time>2026-04-26T07:31:11.196Z</time></trkpt><trkpt lat="45.6597843" lon="11.6842669"><ele>56.66666666666667</ele><time>2026-04-26T07:31:12.196Z</time></trkpt><trkpt lat="45.6599541" lon="11.684187"><ele>57.0</ele><time>2026-04-26T07:31:13.196Z</time></trkpt><trkpt lat="45.6601322" lon="11.6841043"><ele>56.66666666666667</ele><time>2026-04-26T07:31:14.195Z</time></trkpt><trkpt lat="45.6603106" lon="11.6840256"><ele>56.333333333333336</ele><time>2026-04-26T07:31:15.195Z</time></trkpt><trkpt lat="45.6604834" lon="11.6839519"><ele>56.0</ele><time>2026-04-26T07:31:16.196Z</time></trkpt><trkpt lat="45.660655" lon="11.6838784"><ele>56.0</ele><time>2026-04-26T07:31:17.195Z</time></trkpt><trkpt lat="45.6608245" lon="11.6838034"><ele>56.0</ele><time>2026-04-26T07:31:18.195Z</time></trkpt><trkpt lat="45.6609929" lon="11.6837255"><ele>56.0</ele><time>2026-04-26T07:31:19.195Z</time></trkpt><trkpt lat="45.6611601" lon="11.683649"><ele>56.333333333333336</ele><time>2026-04-26T07:31:20.194Z</time></trkpt><trkpt lat="45.6613304" lon="11.6835771"><ele>56.66666666666667</ele><time>2026-04-26T07:31:21.193Z</time></trkpt><trkpt lat="45.6615029" lon="11.6835083"><ele>57.0</ele><time>2026-04-26T07:31:22.193Z</time></trkpt><trkpt lat="45.6616755" lon="11.6834366"><ele>57.0</ele><time>2026-04-26T07:31:23.194Z</time></trkpt><trkpt lat="45.6618491" lon="11.6833666"><ele>57.0</ele><time>2026-04-26T07:31:24.195Z</time></trkpt><trkpt lat="45.6621825" lon="11.683229"><ele>56.75</ele><time>2026-04-26T07:31:26.196Z</time></trkpt><trkpt lat="45.6623313" lon="11.6831665"><ele>56.5</ele><time>2026-04-26T07:31:27.194Z</time></trkpt><trkpt lat="45.6624683" lon="11.6831098"><ele>56.25</ele><time>2026-04-26T07:31:28.196Z</time></trkpt><trkpt lat="45.6625986" lon="11.6830549"><ele>56.0</ele><time>2026-04-26T07:31:29.197Z</time></trkpt><trkpt lat="45.6627282" lon="11.6830005"><ele>56.25</ele><time>2026-04-26T07:31:30.195Z</time></trkpt><trkpt lat="45.6628605" lon="11.6829483"><ele>56.5</ele><time>2026-04-26T07:31:31.195Z</time></trkpt><trkpt lat="45.6629907" lon="11.6828957"><ele>56.75</ele><time>2026-04-26T07:31:32.197Z</time></trkpt><trkpt lat="45.6631203" lon="11.6828385"><ele>57.0</ele><time>2026-04-26T07:31:33.195Z</time></trkpt><trkpt lat="45.6631983" lon="11.6828033"><ele>56.75</ele><time>2026-04-26T07:31:33.807Z</time></trkpt><trkpt lat="45.6633817" lon="11.6827545"><ele>56.5</ele><time>2026-04-26T07:31:35.196Z</time></trkpt><trkpt lat="45.6635151" lon="11.6827478"><ele>56.25</ele><time>2026-04-26T07:31:36.194Z</time></trkpt><trkpt lat="45.6636391" lon="11.6827564"><ele>56.0</ele><time>2026-04-26T07:31:37.196Z</time></trkpt><trkpt lat="45.6637529" lon="11.6827724"><ele>55.833333333333336</ele><time>2026-04-26T07:31:38.196Z</time></trkpt><trkpt lat="45.6638581" lon="11.6827928"><ele>55.66666666666667</ele><time>2026-04-26T07:31:39.196Z</time></trkpt><trkpt lat="45.6639532" lon="11.6828172"><ele>55.5</ele><time>2026-04-26T07:31:40.199Z</time></trkpt><trkpt lat="45.6640373" lon="11.6828343"><ele>55.33333333333333</ele><time>2026-04-26T07:31:41.197Z</time></trkpt><trkpt lat="45.6641115" lon="11.6828461"><ele>55.166666666666664</ele><time>2026-04-26T07:31:42.196Z</time></trkpt><trkpt lat="45.6641865" lon="11.6828578"><ele>55.0</ele><time>2026-04-26T07:31:43.196Z</time></trkpt><trkpt lat="45.6642739" lon="11.6828763"><ele>55.0</ele><time>2026-04-26T07:31:44.195Z</time></trkpt><trkpt lat="45.6643746" lon="11.6828962"><ele>55.0</ele><time>2026-04-26T07:31:45.193Z</time></trkpt><trkpt lat="45.6646047" lon="11.6829356"><ele>55.0</ele><time>2026-04-26T07:31:47.193Z</time></trkpt><trkpt lat="45.664709" lon="11.6829568"><ele>55.0</ele><time>2026-04-26T07:31:48.193Z</time></trkpt><trkpt lat="45.6648093" lon="11.6829692"><ele>55.25</ele><time>2026-04-26T07:31:49.195Z</time></trkpt><trkpt lat="45.6649151" lon="11.6829772"><ele>55.5</ele><time>2026-04-26T07:31:50.195Z</time></trkpt><trkpt lat="45.6650361" lon="11.6829839"><ele>55.75</ele><time>2026-04-26T07:31:51.195Z</time></trkpt><trkpt lat="45.6651727" lon="11.6829898"><ele>56.0</ele><time>2026-04-26T07:31:52.195Z</time></trkpt><trkpt lat="45.6653092" lon="11.6829973"><ele>56.25</ele><time>2026-04-26T07:31:53.196Z</time></trkpt><trkpt lat="45.665439" lon="11.6830043"><ele>56.5</ele><time>2026-04-26T07:31:54.196Z</time></trkpt><trkpt lat="45.665567" lon="11.6830114"><ele>56.75</ele><time>2026-04-26T07:31:55.196Z</time></trkpt><trkpt lat="45.6656993" lon="11.6830177"><ele>57.0</ele><time>2026-04-26T07:31:56.197Z</time></trkpt><trkpt lat="45.6658336" lon="11.6830231"><ele>57.0</ele><time>2026-04-26T07:31:57.194Z</time></trkpt><trkpt lat="45.6659169" lon="11.6830255"><ele>57.0</ele><time>2026-04-26T07:31:57.806Z</time></trkpt><trkpt lat="45.6661083" lon="11.6830343"><ele>57.0</ele><time>2026-04-26T07:31:59.196Z</time></trkpt><trkpt lat="45.6662368" lon="11.6830413"><ele>57.0</ele><time>2026-04-26T07:32:00.195Z</time></trkpt><trkpt lat="45.6663539" lon="11.6830471"><ele>57.2</ele><time>2026-04-26T07:32:01.197Z</time></trkpt><trkpt lat="45.6664647" lon="11.683051"><ele>57.400000000000006</ele><time>2026-04-26T07:32:02.197Z</time></trkpt><trkpt lat="45.66657" lon="11.6830513"><ele>57.599999999999994</ele><time>2026-04-26T07:32:03.196Z</time></trkpt><trkpt lat="45.6666791" lon="11.6830495"><ele>57.8</ele><time>2026-04-26T07:32:04.194Z</time></trkpt><trkpt lat="45.6667982" lon="11.6830508"><ele>58.0</ele><time>2026-04-26T07:32:05.195Z</time></trkpt><trkpt lat="45.6669307" lon="11.6830568"><ele>58.33333333333333</ele><time>2026-04-26T07:32:06.196Z</time></trkpt><trkpt lat="45.6672108" lon="11.6830795"><ele>58.66666666666667</ele><time>2026-04-26T07:32:08.196Z</time></trkpt><trkpt lat="45.6673544" lon="11.6830893"><ele>59.0</ele><time>2026-04-26T07:32:09.194Z</time></trkpt><trkpt lat="45.6675059" lon="11.6830977"><ele>59.0</ele><time>2026-04-26T07:32:10.192Z</time></trkpt><trkpt lat="45.6676594" lon="11.6831073"><ele>59.0</ele><time>2026-04-26T07:32:11.194Z</time></trkpt><trkpt lat="45.667805" lon="11.6831171"><ele>59.0</ele><time>2026-04-26T07:32:12.195Z</time></trkpt><trkpt lat="45.667949" lon="11.6831253"><ele>59.0</ele><time>2026-04-26T07:32:13.195Z</time></trkpt><trkpt lat="45.6680944" lon="11.6831313"><ele>59.333333333333336</ele><time>2026-04-26T07:32:14.197Z</time></trkpt><trkpt lat="45.6682458" lon="11.6831389"><ele>59.66666666666667</ele><time>2026-04-26T07:32:15.197Z</time></trkpt><trkpt lat="45.6684033" lon="11.6831474"><ele>60.0</ele><time>2026-04-26T07:32:16.197Z</time></trkpt><trkpt lat="45.6685655" lon="11.6831543"><ele>59.33333333333333</ele><time>2026-04-26T07:32:17.198Z</time></trkpt><trkpt lat="45.6687262" lon="11.683159"><ele>58.666666666666664</ele><time>2026-04-26T07:32:18.197Z</time></trkpt><trkpt lat="45.6688792" lon="11.6831625"><ele>58.0</ele><time>2026-04-26T07:32:19.195Z</time></trkpt><trkpt lat="45.6690293" lon="11.6831659"><ele>58.0</ele><time>2026-04-26T07:32:20.199Z</time></trkpt><trkpt lat="45.6691821" lon="11.6831702"><ele>58.0</ele><time>2026-04-26T07:32:21.197Z</time></trkpt><trkpt lat="45.6693402" lon="11.6831727"><ele>58.0</ele><time>2026-04-26T07:32:22.196Z</time></trkpt><trkpt lat="45.6695011" lon="11.6831752"><ele>58.33333333333333</ele><time>2026-04-26T07:32:23.197Z</time></trkpt><trkpt lat="45.6696636" lon="11.6831764"><ele>58.66666666666667</ele><time>2026-04-26T07:32:24.197Z</time></trkpt><trkpt lat="45.669827" lon="11.6831714"><ele>59.0</ele><time>2026-04-26T07:32:25.199Z</time></trkpt><trkpt lat="45.6699939" lon="11.6831562"><ele>59.0</ele><time>2026-04-26T07:32:26.198Z</time></trkpt><trkpt lat="45.6701651" lon="11.6831326"><ele>59.0</ele><time>2026-04-26T07:32:27.198Z</time></trkpt><trkpt lat="45.6705164" lon="11.6830534"><ele>59.66666666666667</ele><time>2026-04-26T07:32:29.197Z</time></trkpt><trkpt lat="45.6706974" lon="11.6829973"><ele>60.33333333333333</ele><time>2026-04-26T07:32:30.198Z</time></trkpt><trkpt lat="45.6708792" lon="11.6829399"><ele>61.0</ele><time>2026-04-26T07:32:31.197Z</time></trkpt><trkpt lat="45.671056" lon="11.6828877"><ele>61.0</ele><time>2026-04-26T07:32:32.196Z</time></trkpt><trkpt lat="45.6712205" lon="11.6828407"><ele>61.0</ele><time>2026-04-26T07:32:33.195Z</time></trkpt><trkpt lat="45.6713744" lon="11.6827916"><ele>61.0</ele><time>2026-04-26T07:32:34.193Z</time></trkpt><trkpt lat="45.6715288" lon="11.6827379"><ele>61.0</ele><time>2026-04-26T07:32:35.194Z</time></trkpt><trkpt lat="45.6716818" lon="11.682688"><ele>61.0</ele><time>2026-04-26T07:32:36.195Z</time></trkpt><trkpt lat="45.6718399" lon="11.6826493"><ele>61.0</ele><time>2026-04-26T07:32:37.193Z</time></trkpt><trkpt lat="45.672007" lon="11.6826142"><ele>60.33333333333333</ele><time>2026-04-26T07:32:38.198Z</time></trkpt><trkpt lat="45.6721757" lon="11.682579"><ele>59.66666666666667</ele><time>2026-04-26T07:32:39.195Z</time></trkpt><trkpt lat="45.6723369" lon="11.6825456"><ele>59.0</ele><time>2026-04-26T07:32:40.198Z</time></trkpt><trkpt lat="45.6724907" lon="11.6825164"><ele>59.0</ele><time>2026-04-26T07:32:41.199Z</time></trkpt><trkpt lat="45.6726356" lon="11.6824926"><ele>59.0</ele><time>2026-04-26T07:32:42.198Z</time></trkpt><trkpt lat="45.6727708" lon="11.6824744"><ele>59.0</ele><time>2026-04-26T07:32:43.197Z</time></trkpt><trkpt lat="45.6729042" lon="11.6824554"><ele>59.0</ele><time>2026-04-26T07:32:44.197Z</time></trkpt><trkpt lat="45.6730342" lon="11.6824348"><ele>59.25</ele><time>2026-04-26T07:32:45.196Z</time></trkpt><trkpt lat="45.673164" lon="11.6824166"><ele>59.5</ele><time>2026-04-26T07:32:46.197Z</time></trkpt><trkpt lat="45.6733047" lon="11.6823882"><ele>59.75</ele><time>2026-04-26T07:32:47.197Z</time></trkpt><trkpt lat="45.67345" lon="11.6823662"><ele>60.0</ele><time>2026-04-26T07:32:48.196Z</time></trkpt><trkpt lat="45.6737244" lon="11.6823581"><ele>60.66666666666667</ele><time>2026-04-26T07:32:50.198Z</time></trkpt><trkpt lat="45.6738698" lon="11.6823447"><ele>61.333333333333336</ele><time>2026-04-26T07:32:51.195Z</time></trkpt><trkpt lat="45.6740223" lon="11.6823309"><ele>62.0</ele><time>2026-04-26T07:32:52.197Z</time></trkpt><trkpt lat="45.6741804" lon="11.6823208"><ele>62.0</ele><time>2026-04-26T07:32:53.197Z</time></trkpt><trkpt lat="45.6743383" lon="11.6823114"><ele>62.0</ele><time>2026-04-26T07:32:54.197Z</time></trkpt><trkpt lat="45.6744873" lon="11.682305"><ele>62.0</ele><time>2026-04-26T07:32:55.198Z</time></trkpt><trkpt lat="45.6746282" lon="11.6823003"><ele>62.0</ele><time>2026-04-26T07:32:56.197Z</time></trkpt><trkpt lat="45.6747615" lon="11.6822953"><ele>62.25</ele><time>2026-04-26T07:32:57.197Z</time></trkpt><trkpt lat="45.6748877" lon="11.6822936"><ele>62.5</ele><time>2026-04-26T07:32:58.193Z</time></trkpt><trkpt lat="45.6750084" lon="11.6822922"><ele>62.75</ele><time>2026-04-26T07:32:59.194Z</time></trkpt><trkpt lat="45.6751289" lon="11.6822902"><ele>63.0</ele><time>2026-04-26T07:33:00.194Z</time></trkpt><trkpt lat="45.6752451" lon="11.6822852"><ele>62.8</ele><time>2026-04-26T07:33:01.193Z</time></trkpt><trkpt lat="45.6753578" lon="11.6822777"><ele>62.599999999999994</ele><time>2026-04-26T07:33:02.198Z</time></trkpt><trkpt lat="45.6754654" lon="11.6822729"><ele>62.400000000000006</ele><time>2026-04-26T07:33:03.196Z</time></trkpt><trkpt lat="45.6755657" lon="11.6822732"><ele>62.2</ele><time>2026-04-26T07:33:04.197Z</time></trkpt><trkpt lat="45.6756585" lon="11.6822723"><ele>62.0</ele><time>2026-04-26T07:33:05.196Z</time></trkpt><trkpt lat="45.6757439" lon="11.6822788"><ele>62.0</ele><time>2026-04-26T07:33:06.195Z</time></trkpt><trkpt lat="45.6758207" lon="11.6823161"><ele>62.0</ele><time>2026-04-26T07:33:07.196Z</time></trkpt><trkpt lat="45.6758904" lon="11.6824048"><ele>62.0</ele><time>2026-04-26T07:33:08.198Z</time></trkpt><trkpt lat="45.6759461" lon="11.6825387"><ele>62.0</ele><time>2026-04-26T07:33:09.196Z</time></trkpt><trkpt lat="45.6759939" lon="11.6828921"><ele>62.0</ele><time>2026-04-26T07:33:11.197Z</time></trkpt><trkpt lat="45.676001" lon="11.6830917"><ele>62.0</ele><time>2026-04-26T07:33:12.196Z</time></trkpt><trkpt lat="45.6760143" lon="11.6832997"><ele>62.0</ele><time>2026-04-26T07:33:13.196Z</time></trkpt><trkpt lat="45.6760319" lon="11.6835197"><ele>62.0</ele><time>2026-04-26T07:33:14.197Z</time></trkpt><trkpt lat="45.6760542" lon="11.6837531"><ele>62.0</ele><time>2026-04-26T07:33:15.195Z</time></trkpt><trkpt lat="45.6760817" lon="11.6839972"><ele>62.0</ele><time>2026-04-26T07:33:16.197Z</time></trkpt><trkpt lat="45.676111" lon="11.6842469"><ele>62.0</ele><time>2026-04-26T07:33:17.196Z</time></trkpt><trkpt lat="45.676143" lon="11.6844827"><ele>62.333333333333336</ele><time>2026-04-26T07:33:18.196Z</time></trkpt><trkpt lat="45.6761749" lon="11.6847039"><ele>62.66666666666667</ele><time>2026-04-26T07:33:19.195Z</time></trkpt><trkpt lat="45.6762124" lon="11.6849291"><ele>63.0</ele><time>2026-04-26T07:33:20.195Z</time></trkpt><trkpt lat="45.6762571" lon="11.6851697"><ele>61.66666666666667</ele><time>2026-04-26T07:33:21.194Z</time></trkpt><trkpt lat="45.6763052" lon="11.685428"><ele>60.333333333333336</ele><time>2026-04-26T07:33:22.193Z</time></trkpt><trkpt lat="45.676355" lon="11.6856954"><ele>59.0</ele><time>2026-04-26T07:33:23.195Z</time></trkpt><trkpt lat="45.6764061" lon="11.6859528"><ele>58.0</ele><time>2026-04-26T07:33:24.192Z</time></trkpt><trkpt lat="45.6764589" lon="11.68621"><ele>57.0</ele><time>2026-04-26T07:33:25.193Z</time></trkpt><trkpt lat="45.676509" lon="11.6864657"><ele>56.0</ele><time>2026-04-26T07:33:26.195Z</time></trkpt><trkpt lat="45.676557" lon="11.6867156"><ele>55.333333333333336</ele><time>2026-04-26T07:33:27.197Z</time></trkpt><trkpt lat="45.6766045" lon="11.6869637"><ele>54.66666666666667</ele><time>2026-04-26T07:33:28.195Z</time></trkpt><trkpt lat="45.6766524" lon="11.6872138"><ele>54.0</ele><time>2026-04-26T07:33:29.197Z</time></trkpt><trkpt lat="45.6767013" lon="11.687467"><ele>53.5</ele><time>2026-04-26T07:33:30.195Z</time></trkpt><trkpt lat="45.676802" lon="11.6879894"><ele>53.0</ele><time>2026-04-26T07:33:32.195Z</time></trkpt><trkpt lat="45.6768537" lon="11.688261"><ele>53.0</ele><time>2026-04-26T07:33:33.194Z</time></trkpt><trkpt lat="45.6769028" lon="11.6885292"><ele>53.0</ele><time>2026-04-26T07:33:34.196Z</time></trkpt><trkpt lat="45.6769497" lon="11.688784"><ele>53.0</ele><time>2026-04-26T07:33:35.194Z</time></trkpt><trkpt lat="45.676995" lon="11.6890275"><ele>54.333333333333336</ele><time>2026-04-26T07:33:36.196Z</time></trkpt><trkpt lat="45.6770397" lon="11.6892633"><ele>55.66666666666667</ele><time>2026-04-26T07:33:37.196Z</time></trkpt><trkpt lat="45.6770828" lon="11.6894899"><ele>57.0</ele><time>2026-04-26T07:33:38.198Z</time></trkpt><trkpt lat="45.6771228" lon="11.6897077"><ele>58.0</ele><time>2026-04-26T07:33:39.195Z</time></trkpt><trkpt lat="45.6771617" lon="11.6899222"><ele>59.0</ele><time>2026-04-26T07:33:40.194Z</time></trkpt><trkpt lat="45.677201" lon="11.6901353"><ele>60.0</ele><time>2026-04-26T07:33:41.195Z</time></trkpt><trkpt lat="45.6772419" lon="11.6903504"><ele>60.33333333333333</ele><time>2026-04-26T07:33:42.194Z</time></trkpt><trkpt lat="45.677284" lon="11.6905694"><ele>60.666666666666664</ele><time>2026-04-26T07:33:43.195Z</time></trkpt><trkpt lat="45.6773274" lon="11.6907958"><ele>61.0</ele><time>2026-04-26T07:33:44.195Z</time></trkpt><trkpt lat="45.6773751" lon="11.6910297"><ele>61.0</ele><time>2026-04-26T07:33:45.195Z</time></trkpt><trkpt lat="45.6774272" lon="11.6912546"><ele>61.0</ele><time>2026-04-26T07:33:46.195Z</time></trkpt><trkpt lat="45.6774883" lon="11.6914706"><ele>61.0</ele><time>2026-04-26T07:33:47.195Z</time></trkpt><trkpt lat="45.6775621" lon="11.6916858"><ele>61.0</ele><time>2026-04-26T07:33:48.194Z</time></trkpt><trkpt lat="45.6776507" lon="11.6918988"><ele>61.0</ele><time>2026-04-26T07:33:49.192Z</time></trkpt><trkpt lat="45.6777451" lon="11.6921146"><ele>61.0</ele><time>2026-04-26T07:33:50.192Z</time></trkpt><trkpt lat="45.6778414" lon="11.6923288"><ele>62.0</ele><time>2026-04-26T07:33:51.194Z</time></trkpt><trkpt lat="45.6780336" lon="11.6927496"><ele>63.0</ele><time>2026-04-26T07:33:53.197Z</time></trkpt><trkpt lat="45.67813" lon="11.6929606"><ele>63.0</ele><time>2026-04-26T07:33:54.195Z</time></trkpt><trkpt lat="45.6782281" lon="11.6931721"><ele>63.0</ele><time>2026-04-26T07:33:55.196Z</time></trkpt><trkpt lat="45.6783268" lon="11.693381"><ele>63.0</ele><time>2026-04-26T07:33:56.196Z</time></trkpt><trkpt lat="45.6784235" lon="11.6935877"><ele>62.66666666666667</ele><time>2026-04-26T07:33:57.195Z</time></trkpt><trkpt lat="45.6785201" lon="11.6937938"><ele>62.333333333333336</ele><time>2026-04-26T07:33:58.193Z</time></trkpt><trkpt lat="45.6785777" lon="11.6939185"><ele>62.0</ele><time>2026-04-26T07:33:58.802Z</time></trkpt><trkpt lat="45.6787071" lon="11.6942054"><ele>62.0</ele><time>2026-04-26T07:34:00.194Z</time></trkpt><trkpt lat="45.6787997" lon="11.6944091"><ele>62.0</ele><time>2026-04-26T07:34:01.193Z</time></trkpt><trkpt lat="45.6788924" lon="11.6946159"><ele>62.0</ele><time>2026-04-26T07:34:02.196Z</time></trkpt><trkpt lat="45.6789871" lon="11.6948256"><ele>62.333333333333336</ele><time>2026-04-26T07:34:03.194Z</time></trkpt><trkpt lat="45.679084" lon="11.6950385"><ele>62.66666666666667</ele><time>2026-04-26T07:34:04.195Z</time></trkpt><trkpt lat="45.6791812" lon="11.6952531"><ele>63.0</ele><time>2026-04-26T07:34:05.196Z</time></trkpt><trkpt lat="45.6792794" lon="11.6954704"><ele>63.0</ele><time>2026-04-26T07:34:06.195Z</time></trkpt><trkpt lat="45.6793797" lon="11.6956881"><ele>63.0</ele><time>2026-04-26T07:34:07.195Z</time></trkpt><trkpt lat="45.6794801" lon="11.6959055"><ele>63.0</ele><time>2026-04-26T07:34:08.196Z</time></trkpt><trkpt lat="45.6795787" lon="11.6961163"><ele>63.0</ele><time>2026-04-26T07:34:09.194Z</time></trkpt><trkpt lat="45.6796762" lon="11.6963219"><ele>63.0</ele><time>2026-04-26T07:34:10.197Z</time></trkpt><trkpt lat="45.6797701" lon="11.6965256"><ele>63.0</ele><time>2026-04-26T07:34:11.195Z</time></trkpt><trkpt lat="45.6798626" lon="11.6967266"><ele>63.0</ele><time>2026-04-26T07:34:12.193Z</time></trkpt><trkpt lat="45.6800496" lon="11.6971334"><ele>63.0</ele><time>2026-04-26T07:34:14.194Z</time></trkpt><trkpt lat="45.6801431" lon="11.6973354"><ele>63.0</ele><time>2026-04-26T07:34:15.193Z</time></trkpt><trkpt lat="45.6802351" lon="11.6975346"><ele>63.0</ele><time>2026-04-26T07:34:16.196Z</time></trkpt><trkpt lat="45.6803266" lon="11.6977347"><ele>63.0</ele><time>2026-04-26T07:34:17.196Z</time></trkpt><trkpt lat="45.6804176" lon="11.6979345"><ele>62.66666666666667</ele><time>2026-04-26T07:34:18.196Z</time></trkpt><trkpt lat="45.6805063" lon="11.6981281"><ele>62.333333333333336</ele><time>2026-04-26T07:34:19.195Z</time></trkpt><trkpt lat="45.6805925" lon="11.698316"><ele>62.0</ele><time>2026-04-26T07:34:20.197Z</time></trkpt><trkpt lat="45.6806777" lon="11.6985042"><ele>61.66666666666667</ele><time>2026-04-26T07:34:21.195Z</time></trkpt><trkpt lat="45.6807648" lon="11.6986947"><ele>61.33333333333333</ele><time>2026-04-26T07:34:22.195Z</time></trkpt><trkpt lat="45.6808557" lon="11.6988864"><ele>61.0</ele><time>2026-04-26T07:34:23.196Z</time></trkpt><trkpt lat="45.6809508" lon="11.6990789"><ele>61.0</ele><time>2026-04-26T07:34:24.195Z</time></trkpt><trkpt lat="45.6810532" lon="11.69927"><ele>61.0</ele><time>2026-04-26T07:34:25.195Z</time></trkpt><trkpt lat="45.6811639" lon="11.6994581"><ele>61.0</ele><time>2026-04-26T07:34:26.195Z</time></trkpt><trkpt lat="45.6812796" lon="11.6996442"><ele>60.666666666666664</ele><time>2026-04-26T07:34:27.197Z</time></trkpt><trkpt lat="45.6813978" lon="11.6998334"><ele>60.33333333333333</ele><time>2026-04-26T07:34:28.195Z</time></trkpt><trkpt lat="45.6815188" lon="11.7000225"><ele>60.0</ele><time>2026-04-26T07:34:29.197Z</time></trkpt><trkpt lat="45.6816366" lon="11.7002052"><ele>60.33333333333333</ele><time>2026-04-26T07:34:30.195Z</time></trkpt><trkpt lat="45.6817527" lon="11.7003848"><ele>60.666666666666664</ele><time>2026-04-26T07:34:31.195Z</time></trkpt><trkpt lat="45.6818673" lon="11.7005662"><ele>61.0</ele><time>2026-04-26T07:34:32.196Z</time></trkpt><trkpt lat="45.6819782" lon="11.7007479"><ele>62.0</ele><time>2026-04-26T07:34:33.195Z</time></trkpt><trkpt lat="45.6821842" lon="11.7011127"><ele>63.0</ele><time>2026-04-26T07:34:35.196Z</time></trkpt><trkpt lat="45.6822797" lon="11.7013016"><ele>63.0</ele><time>2026-04-26T07:34:36.194Z</time></trkpt><trkpt lat="45.6823703" lon="11.7014904"><ele>63.0</ele><time>2026-04-26T07:34:37.193Z</time></trkpt><trkpt lat="45.6824597" lon="11.701679"><ele>63.0</ele><time>2026-04-26T07:34:38.193Z</time></trkpt><trkpt lat="45.6825148" lon="11.7017923"><ele>63.0</ele><time>2026-04-26T07:34:38.804Z</time></trkpt><trkpt lat="45.6826387" lon="11.7020479"><ele>63.5</ele><time>2026-04-26T07:34:40.193Z</time></trkpt><trkpt lat="45.6827214" lon="11.7022218"><ele>64.0</ele><time>2026-04-26T07:34:41.195Z</time></trkpt><trkpt lat="45.6827975" lon="11.7023809"><ele>64.5</ele><time>2026-04-26T07:34:42.196Z</time></trkpt><trkpt lat="45.682866" lon="11.7025227"><ele>65.0</ele><time>2026-04-26T07:34:43.196Z</time></trkpt><trkpt lat="45.6829222" lon="11.7026499"><ele>65.83333333333334</ele><time>2026-04-26T07:34:44.196Z</time></trkpt><trkpt lat="45.6829629" lon="11.7027705"><ele>66.66666666666667</ele><time>2026-04-26T07:34:45.194Z</time></trkpt><trkpt lat="45.682983" lon="11.7028882"><ele>67.5</ele><time>2026-04-26T07:34:46.196Z</time></trkpt><trkpt lat="45.6829778" lon="11.703007"><ele>68.33333333333333</ele><time>2026-04-26T07:34:47.197Z</time></trkpt><trkpt lat="45.6829487" lon="11.7031154"><ele>69.16666666666666</ele><time>2026-04-26T07:34:48.197Z</time></trkpt><trkpt lat="45.6829149" lon="11.7032065"><ele>70.0</ele><time>2026-04-26T07:34:49.197Z</time></trkpt><trkpt lat="45.6829123" lon="11.7033708"><ele>70.0</ele><time>2026-04-26T07:34:51.196Z</time></trkpt><trkpt lat="45.683023" lon="11.7034465"><ele>70.0</ele><time>2026-04-26T07:34:53.195Z</time></trkpt><trkpt lat="45.6831106" lon="11.7034375"><ele>70.0</ele><time>2026-04-26T07:34:54.193Z</time></trkpt><trkpt lat="45.6833387" lon="11.7034573"><ele>70.0</ele><time>2026-04-26T07:34:56.194Z</time></trkpt><trkpt lat="45.6834458" lon="11.7034779"><ele>70.0</ele><time>2026-04-26T07:34:57.195Z</time></trkpt><trkpt lat="45.6835404" lon="11.7034948"><ele>70.0</ele><time>2026-04-26T07:34:58.195Z</time></trkpt><trkpt lat="45.6836321" lon="11.7035073"><ele>70.0</ele><time>2026-04-26T07:34:59.196Z</time></trkpt><trkpt lat="45.6837332" lon="11.7035227"><ele>70.0</ele><time>2026-04-26T07:35:00.194Z</time></trkpt><trkpt lat="45.6838429" lon="11.7035434"><ele>70.0</ele><time>2026-04-26T07:35:01.192Z</time></trkpt><trkpt lat="45.6839524" lon="11.7035651"><ele>70.0</ele><time>2026-04-26T07:35:02.195Z</time></trkpt><trkpt lat="45.6840509" lon="11.7035817"><ele>70.0</ele><time>2026-04-26T07:35:03.192Z</time></trkpt><trkpt lat="45.6841347" lon="11.7035953"><ele>70.0</ele><time>2026-04-26T07:35:04.193Z</time></trkpt><trkpt lat="45.6842049" lon="11.7036101"><ele>70.0</ele><time>2026-04-26T07:35:05.194Z</time></trkpt><trkpt lat="45.6842717" lon="11.7036292"><ele>70.0</ele><time>2026-04-26T07:35:06.196Z</time></trkpt><trkpt lat="45.6843534" lon="11.7036483"><ele>70.0</ele><time>2026-04-26T07:35:07.195Z</time></trkpt><trkpt lat="45.6844603" lon="11.7036585"><ele>70.33333333333333</ele><time>2026-04-26T07:35:08.197Z</time></trkpt><trkpt lat="45.6845968" lon="11.703668"><ele>70.66666666666667</ele><time>2026-04-26T07:35:09.195Z</time></trkpt><trkpt lat="45.684761" lon="11.7036921"><ele>71.0</ele><time>2026-04-26T07:35:10.196Z</time></trkpt><trkpt lat="45.6849393" lon="11.703725"><ele>71.0</ele><time>2026-04-26T07:35:11.196Z</time></trkpt><trkpt lat="45.685125" lon="11.7037557"><ele>71.0</ele><time>2026-04-26T07:35:12.194Z</time></trkpt><trkpt lat="45.6853033" lon="11.7037813"><ele>71.0</ele><time>2026-04-26T07:35:13.194Z</time></trkpt><trkpt lat="45.6854703" lon="11.7038035"><ele>71.0</ele><time>2026-04-26T07:35:14.194Z</time></trkpt><trkpt lat="45.6855978" lon="11.7038248"><ele>71.0</ele><time>2026-04-26T07:35:14.998Z</time></trkpt><trkpt lat="45.6859232" lon="11.703888"><ele>71.0</ele><time>2026-04-26T07:35:17.195Z</time></trkpt><trkpt lat="45.6860614" lon="11.7039127"><ele>71.0</ele><time>2026-04-26T07:35:18.194Z</time></trkpt><trkpt lat="45.6861924" lon="11.7039355"><ele>71.0</ele><time>2026-04-26T07:35:19.192Z</time></trkpt><trkpt lat="45.6863161" lon="11.7039575"><ele>71.0</ele><time>2026-04-26T07:35:20.194Z</time></trkpt><trkpt lat="45.6864288" lon="11.7039843"><ele>71.0</ele><time>2026-04-26T07:35:21.194Z</time></trkpt><trkpt lat="45.6865334" lon="11.7040084"><ele>71.0</ele><time>2026-04-26T07:35:22.192Z</time></trkpt><trkpt lat="45.6866269" lon="11.7040582"><ele>71.0</ele><time>2026-04-26T07:35:23.193Z</time></trkpt><trkpt lat="45.6867167" lon="11.7041169"><ele>71.0</ele><time>2026-04-26T07:35:24.194Z</time></trkpt><trkpt lat="45.6868073" lon="11.704179"><ele>71.0</ele><time>2026-04-26T07:35:25.191Z</time></trkpt><trkpt lat="45.686906" lon="11.70425"><ele>71.0</ele><time>2026-04-26T07:35:26.194Z</time></trkpt><trkpt lat="45.6870143" lon="11.7043188"><ele>71.0</ele><time>2026-04-26T07:35:27.191Z</time></trkpt><trkpt lat="45.687143" lon="11.7043653"><ele>71.0</ele><time>2026-04-26T07:35:28.192Z</time></trkpt><trkpt lat="45.6872889" lon="11.7044005"><ele>71.0</ele><time>2026-04-26T07:35:29.194Z</time></trkpt><trkpt lat="45.6874471" lon="11.7044544"><ele>71.0</ele><time>2026-04-26T07:35:30.194Z</time></trkpt><trkpt lat="45.6876171" lon="11.7045275"><ele>71.0</ele><time>2026-04-26T07:35:31.196Z</time></trkpt><trkpt lat="45.6877839" lon="11.7046084"><ele>71.0</ele><time>2026-04-26T07:35:32.195Z</time></trkpt><trkpt lat="45.6879372" lon="11.7046957"><ele>71.0</ele><time>2026-04-26T07:35:33.193Z</time></trkpt><trkpt lat="45.6880932" lon="11.7047903"><ele>71.0</ele><time>2026-04-26T07:35:34.194Z</time></trkpt><trkpt lat="45.6882543" lon="11.7048973"><ele>71.0</ele><time>2026-04-26T07:35:35.195Z</time></trkpt><trkpt lat="45.6885675" lon="11.7051252"><ele>71.33333333333334</ele><time>2026-04-26T07:35:37.195Z</time></trkpt><trkpt lat="45.6887109" lon="11.7052372"><ele>71.66666666666667</ele><time>2026-04-26T07:35:38.193Z</time></trkpt><trkpt lat="45.6888197" lon="11.7053232"><ele>72.0</ele><time>2026-04-26T07:35:38.993Z</time></trkpt><trkpt lat="45.6889681" lon="11.7054411"><ele>72.0</ele><time>2026-04-26T07:35:40.193Z</time></trkpt><trkpt lat="45.6890825" lon="11.7055312"><ele>72.0</ele><time>2026-04-26T07:35:41.193Z</time></trkpt><trkpt lat="45.6891906" lon="11.7056164"><ele>72.0</ele><time>2026-04-26T07:35:42.196Z</time></trkpt><trkpt lat="45.689294" lon="11.705697"><ele>72.0</ele><time>2026-04-26T07:35:43.194Z</time></trkpt><trkpt lat="45.6894013" lon="11.7057789"><ele>72.0</ele><time>2026-04-26T07:35:44.193Z</time></trkpt><trkpt lat="45.6895188" lon="11.7058643"><ele>72.0</ele><time>2026-04-26T07:35:45.195Z</time></trkpt><trkpt lat="45.6896506" lon="11.7059546"><ele>72.0</ele><time>2026-04-26T07:35:46.194Z</time></trkpt><trkpt lat="45.6897966" lon="11.7060498"><ele>72.0</ele><time>2026-04-26T07:35:47.194Z</time></trkpt><trkpt lat="45.6899566" lon="11.706148"><ele>72.0</ele><time>2026-04-26T07:35:48.193Z</time></trkpt><trkpt lat="45.6901322" lon="11.7062489"><ele>72.0</ele><time>2026-04-26T07:35:49.193Z</time></trkpt><trkpt lat="45.6903227" lon="11.7063528"><ele>72.0</ele><time>2026-04-26T07:35:50.194Z</time></trkpt><trkpt lat="45.6905202" lon="11.7064575"><ele>72.0</ele><time>2026-04-26T07:35:51.192Z</time></trkpt><trkpt lat="45.6907084" lon="11.7065589"><ele>72.0</ele><time>2026-04-26T07:35:52.192Z</time></trkpt><trkpt lat="45.6908876" lon="11.7066595"><ele>72.0</ele><time>2026-04-26T07:35:53.193Z</time></trkpt><trkpt lat="45.6910641" lon="11.706759"><ele>72.66666666666667</ele><time>2026-04-26T07:35:54.193Z</time></trkpt><trkpt lat="45.6912402" lon="11.7068581"><ele>73.33333333333334</ele><time>2026-04-26T07:35:55.195Z</time></trkpt><trkpt lat="45.691418" lon="11.7069565"><ele>74.0</ele><time>2026-04-26T07:35:56.195Z</time></trkpt><trkpt lat="45.6917732" lon="11.7071554"><ele>73.66666666666667</ele><time>2026-04-26T07:35:58.196Z</time></trkpt><trkpt lat="45.6919419" lon="11.7072492"><ele>73.33333333333333</ele><time>2026-04-26T07:35:59.195Z</time></trkpt><trkpt lat="45.6921042" lon="11.7073391"><ele>73.0</ele><time>2026-04-26T07:36:00.195Z</time></trkpt><trkpt lat="45.6922661" lon="11.7074258"><ele>73.0</ele><time>2026-04-26T07:36:01.194Z</time></trkpt><trkpt lat="45.692432" lon="11.7075123"><ele>73.0</ele><time>2026-04-26T07:36:02.193Z</time></trkpt><trkpt lat="45.6926034" lon="11.7075936"><ele>73.0</ele><time>2026-04-26T07:36:03.195Z</time></trkpt><trkpt lat="45.6927746" lon="11.7076663"><ele>73.0</ele><time>2026-04-26T07:36:04.192Z</time></trkpt><trkpt lat="45.6929398" lon="11.7077293"><ele>73.0</ele><time>2026-04-26T07:36:05.194Z</time></trkpt><trkpt lat="45.6931055" lon="11.7077836"><ele>73.0</ele><time>2026-04-26T07:36:06.194Z</time></trkpt><trkpt lat="45.6932741" lon="11.7078283"><ele>73.0</ele><time>2026-04-26T07:36:07.195Z</time></trkpt><trkpt lat="45.6934447" lon="11.7078669"><ele>73.0</ele><time>2026-04-26T07:36:08.195Z</time></trkpt><trkpt lat="45.6936136" lon="11.7079018"><ele>73.0</ele><time>2026-04-26T07:36:09.193Z</time></trkpt><trkpt lat="45.6937787" lon="11.7079359"><ele>73.0</ele><time>2026-04-26T07:36:10.194Z</time></trkpt><trkpt lat="45.6939434" lon="11.7079678"><ele>73.0</ele><time>2026-04-26T07:36:11.193Z</time></trkpt><trkpt lat="45.69411" lon="11.7079958"><ele>73.0</ele><time>2026-04-26T07:36:12.195Z</time></trkpt><trkpt lat="45.6942793" lon="11.7080201"><ele>73.33333333333333</ele><time>2026-04-26T07:36:13.194Z</time></trkpt><trkpt lat="45.6944514" lon="11.7080413"><ele>73.66666666666667</ele><time>2026-04-26T07:36:14.198Z</time></trkpt><trkpt lat="45.6945875" lon="11.7080562"><ele>74.0</ele><time>2026-04-26T07:36:14.997Z</time></trkpt><trkpt lat="45.6947881" lon="11.7080782"><ele>74.0</ele><time>2026-04-26T07:36:16.192Z</time></trkpt><trkpt lat="45.694957" lon="11.7080972"><ele>74.0</ele><time>2026-04-26T07:36:17.193Z</time></trkpt><trkpt lat="45.6953034" lon="11.7081369"><ele>74.33333333333334</ele><time>2026-04-26T07:36:19.194Z</time></trkpt><trkpt lat="45.6954835" lon="11.7081575"><ele>74.66666666666667</ele><time>2026-04-26T07:36:20.196Z</time></trkpt><trkpt lat="45.6956589" lon="11.7081815"><ele>75.0</ele><time>2026-04-26T07:36:21.197Z</time></trkpt><trkpt lat="45.6958245" lon="11.7082032"><ele>75.0</ele><time>2026-04-26T07:36:22.195Z</time></trkpt><trkpt lat="45.695978" lon="11.7082243"><ele>75.0</ele><time>2026-04-26T07:36:23.196Z</time></trkpt><trkpt lat="45.6961189" lon="11.7082421"><ele>75.0</ele><time>2026-04-26T07:36:24.196Z</time></trkpt><trkpt lat="45.6962404" lon="11.7082598"><ele>75.0</ele><time>2026-04-26T07:36:25.193Z</time></trkpt><trkpt lat="45.6963408" lon="11.708275"><ele>75.0</ele><time>2026-04-26T07:36:26.194Z</time></trkpt><trkpt lat="45.6964199" lon="11.7082889"><ele>75.0</ele><time>2026-04-26T07:36:27.194Z</time></trkpt><trkpt lat="45.6965277" lon="11.7083099"><ele>75.0</ele><time>2026-04-26T07:36:29.196Z</time></trkpt><trkpt lat="45.6965969" lon="11.7083192"><ele>75.0</ele><time>2026-04-26T07:36:31.195Z</time></trkpt><trkpt lat="45.6967151" lon="11.7083373"><ele>75.0</ele><time>2026-04-26T07:37:00.192Z</time></trkpt><trkpt lat="45.6969431" lon="11.7083789"><ele>75.0</ele><time>2026-04-26T07:37:02.193Z</time></trkpt><trkpt lat="45.6970763" lon="11.7084008"><ele>75.0</ele><time>2026-04-26T07:37:03.191Z</time></trkpt><trkpt lat="45.6972173" lon="11.7084312"><ele>75.0</ele><time>2026-04-26T07:37:04.192Z</time></trkpt><trkpt lat="45.6973665" lon="11.7084765"><ele>75.0</ele><time>2026-04-26T07:37:05.191Z</time></trkpt><trkpt lat="45.6975237" lon="11.7085306"><ele>75.25</ele><time>2026-04-26T07:37:06.194Z</time></trkpt><trkpt lat="45.6976721" lon="11.7085822"><ele>75.5</ele><time>2026-04-26T07:37:07.194Z</time></trkpt><trkpt lat="45.697816" lon="11.7086303"><ele>75.75</ele><time>2026-04-26T07:37:08.196Z</time></trkpt><trkpt lat="45.6979362" lon="11.7086712"><ele>76.0</ele><time>2026-04-26T07:37:08.996Z</time></trkpt><trkpt lat="45.6981277" lon="11.7087359"><ele>76.0</ele><time>2026-04-26T07:37:10.194Z</time></trkpt><trkpt lat="45.6982959" lon="11.7087801"><ele>76.0</ele><time>2026-04-26T07:37:11.196Z</time></trkpt><trkpt lat="45.6984504" lon="11.7088186"><ele>76.0</ele><time>2026-04-26T07:37:12.193Z</time></trkpt><trkpt lat="45.6986017" lon="11.7088487"><ele>76.0</ele><time>2026-04-26T07:37:13.195Z</time></trkpt><trkpt lat="45.698755" lon="11.7088759"><ele>76.0</ele><time>2026-04-26T07:37:14.195Z</time></trkpt><trkpt lat="45.6989076" lon="11.708898"><ele>76.0</ele><time>2026-04-26T07:37:15.193Z</time></trkpt><trkpt lat="45.6990499" lon="11.7089187"><ele>76.0</ele><time>2026-04-26T07:37:16.195Z</time></trkpt><trkpt lat="45.6991782" lon="11.7089356"><ele>76.0</ele><time>2026-04-26T07:37:17.195Z</time></trkpt><trkpt lat="45.6992944" lon="11.7089487"><ele>76.0</ele><time>2026-04-26T07:37:18.195Z</time></trkpt><trkpt lat="45.6994078" lon="11.7089644"><ele>76.0</ele><time>2026-04-26T07:37:19.194Z</time></trkpt><trkpt lat="45.6995211" lon="11.7089838"><ele>76.0</ele><time>2026-04-26T07:37:20.195Z</time></trkpt><trkpt lat="45.6996417" lon="11.7090072"><ele>76.0</ele><time>2026-04-26T07:37:21.197Z</time></trkpt><trkpt lat="45.6999018" lon="11.7090602"><ele>76.0</ele><time>2026-04-26T07:37:23.197Z</time></trkpt><trkpt lat="45.7000414" lon="11.7090801"><ele>76.0</ele><time>2026-04-26T07:37:24.196Z</time></trkpt><trkpt lat="45.7001919" lon="11.7090861"><ele>76.0</ele><time>2026-04-26T07:37:25.197Z</time></trkpt><trkpt lat="45.7003508" lon="11.7090823"><ele>76.0</ele><time>2026-04-26T07:37:26.196Z</time></trkpt><trkpt lat="45.7005146" lon="11.7090698"><ele>76.33333333333333</ele><time>2026-04-26T07:37:27.195Z</time></trkpt><trkpt lat="45.7006503" lon="11.709053"><ele>76.66666666666667</ele><time>2026-04-26T07:37:27.998Z</time></trkpt><trkpt lat="45.700857" lon="11.7090272"><ele>77.0</ele><time>2026-04-26T07:37:29.196Z</time></trkpt><trkpt lat="45.7010196" lon="11.7090125"><ele>77.0</ele><time>2026-04-26T07:37:30.194Z</time></trkpt><trkpt lat="45.7011761" lon="11.7089996"><ele>77.0</ele><time>2026-04-26T07:37:31.193Z</time></trkpt><trkpt lat="45.7013377" lon="11.7089924"><ele>77.0</ele><time>2026-04-26T07:37:32.2Z</time></trkpt><trkpt lat="45.7014961" lon="11.7090103"><ele>77.0</ele><time>2026-04-26T07:37:33.196Z</time></trkpt><trkpt lat="45.7016514" lon="11.709059"><ele>77.0</ele><time>2026-04-26T07:37:34.197Z</time></trkpt><trkpt lat="45.7018059" lon="11.7091346"><ele>77.0</ele><time>2026-04-26T07:37:35.196Z</time></trkpt><trkpt lat="45.7019584" lon="11.7092336"><ele>77.33333333333334</ele><time>2026-04-26T07:37:36.197Z</time></trkpt><trkpt lat="45.7020981" lon="11.7093468"><ele>77.66666666666667</ele><time>2026-04-26T07:37:37.196Z</time></trkpt><trkpt lat="45.7022229" lon="11.7094717"><ele>78.0</ele><time>2026-04-26T07:37:38.197Z</time></trkpt><trkpt lat="45.702343" lon="11.7096064"><ele>78.0</ele><time>2026-04-26T07:37:39.198Z</time></trkpt><trkpt lat="45.7024731" lon="11.7097421"><ele>78.0</ele><time>2026-04-26T07:37:40.196Z</time></trkpt><trkpt lat="45.7026219" lon="11.7098663"><ele>78.0</ele><time>2026-04-26T07:37:41.195Z</time></trkpt><trkpt lat="45.7027918" lon="11.7099715"><ele>79.0</ele><time>2026-04-26T07:37:42.196Z</time></trkpt><trkpt lat="45.7031258" lon="11.7101322"><ele>80.0</ele><time>2026-04-26T07:37:44.195Z</time></trkpt><trkpt lat="45.7032806" lon="11.7102103"><ele>79.66666666666667</ele><time>2026-04-26T07:37:45.195Z</time></trkpt><trkpt lat="45.7034358" lon="11.7102896"><ele>79.33333333333333</ele><time>2026-04-26T07:37:46.199Z</time></trkpt><trkpt lat="45.7035933" lon="11.7103674"><ele>79.0</ele><time>2026-04-26T07:37:47.197Z</time></trkpt><trkpt lat="45.7037587" lon="11.7104431"><ele>79.0</ele><time>2026-04-26T07:37:48.196Z</time></trkpt><trkpt lat="45.7038985" lon="11.7104994"><ele>79.0</ele><time>2026-04-26T07:37:48.999Z</time></trkpt><trkpt lat="45.7041171" lon="11.7105772"><ele>79.0</ele><time>2026-04-26T07:37:50.196Z</time></trkpt><trkpt lat="45.704307" lon="11.7106381"><ele>78.33333333333333</ele><time>2026-04-26T07:37:51.196Z</time></trkpt><trkpt lat="45.704502" lon="11.7106971"><ele>77.66666666666667</ele><time>2026-04-26T07:37:52.195Z</time></trkpt><trkpt lat="45.7046982" lon="11.7107545"><ele>77.0</ele><time>2026-04-26T07:37:53.196Z</time></trkpt><trkpt lat="45.7048887" lon="11.7108091"><ele>77.0</ele><time>2026-04-26T07:37:54.195Z</time></trkpt><trkpt lat="45.70507" lon="11.7108617"><ele>77.0</ele><time>2026-04-26T07:37:55.193Z</time></trkpt><trkpt lat="45.7052446" lon="11.7109148"><ele>77.0</ele><time>2026-04-26T07:37:56.197Z</time></trkpt><trkpt lat="45.7054121" lon="11.7109667"><ele>76.66666666666667</ele><time>2026-04-26T07:37:57.195Z</time></trkpt><trkpt lat="45.7055721" lon="11.7110184"><ele>76.33333333333333</ele><time>2026-04-26T07:37:58.199Z</time></trkpt><trkpt lat="45.7057235" lon="11.7110715"><ele>76.0</ele><time>2026-04-26T07:37:59.196Z</time></trkpt><trkpt lat="45.7058701" lon="11.7111216"><ele>76.66666666666666</ele><time>2026-04-26T07:38:00.197Z</time></trkpt><trkpt lat="45.7060237" lon="11.7111658"><ele>77.33333333333333</ele><time>2026-04-26T07:38:01.197Z</time></trkpt><trkpt lat="45.7061815" lon="11.7112141"><ele>78.0</ele><time>2026-04-26T07:38:02.197Z</time></trkpt><trkpt lat="45.7063348" lon="11.7112747"><ele>78.0</ele><time>2026-04-26T07:38:03.197Z</time></trkpt><trkpt lat="45.7066051" lon="11.711408"><ele>78.0</ele><time>2026-04-26T07:38:05.197Z</time></trkpt><trkpt lat="45.7067373" lon="11.7114863"><ele>78.0</ele><time>2026-04-26T07:38:06.197Z</time></trkpt><trkpt lat="45.706874" lon="11.7115824"><ele>79.0</ele><time>2026-04-26T07:38:07.196Z</time></trkpt><trkpt lat="45.7070189" lon="11.7116894"><ele>80.0</ele><time>2026-04-26T07:38:08.195Z</time></trkpt><trkpt lat="45.7071736" lon="11.7118054"><ele>81.0</ele><time>2026-04-26T07:38:09.195Z</time></trkpt><trkpt lat="45.7073366" lon="11.7119319"><ele>81.0</ele><time>2026-04-26T07:38:10.196Z</time></trkpt><trkpt lat="45.7075037" lon="11.7120702"><ele>81.0</ele><time>2026-04-26T07:38:11.199Z</time></trkpt><trkpt lat="45.7076681" lon="11.7122121"><ele>81.0</ele><time>2026-04-26T07:38:12.195Z</time></trkpt><trkpt lat="45.7078262" lon="11.7123515"><ele>81.0</ele><time>2026-04-26T07:38:13.196Z</time></trkpt><trkpt lat="45.7079841" lon="11.7124882"><ele>81.0</ele><time>2026-04-26T07:38:14.197Z</time></trkpt><trkpt lat="45.7081513" lon="11.7126175"><ele>81.0</ele><time>2026-04-26T07:38:15.196Z</time></trkpt><trkpt lat="45.7083315" lon="11.7127457"><ele>81.0</ele><time>2026-04-26T07:38:16.195Z</time></trkpt><trkpt lat="45.7085222" lon="11.7128766"><ele>81.0</ele><time>2026-04-26T07:38:17.198Z</time></trkpt><trkpt lat="45.7087126" lon="11.7130078"><ele>81.0</ele><time>2026-04-26T07:38:18.195Z</time></trkpt><trkpt lat="45.7088998" lon="11.7131372"><ele>81.0</ele><time>2026-04-26T07:38:19.193Z</time></trkpt><trkpt lat="45.7090863" lon="11.7132657"><ele>81.0</ele><time>2026-04-26T07:38:20.195Z</time></trkpt><trkpt lat="45.7092714" lon="11.713394"><ele>81.0</ele><time>2026-04-26T07:38:21.197Z</time></trkpt><trkpt lat="45.7094551" lon="11.7135221"><ele>81.33333333333333</ele><time>2026-04-26T07:38:22.197Z</time></trkpt><trkpt lat="45.7096394" lon="11.7136478"><ele>81.66666666666666</ele><time>2026-04-26T07:38:23.199Z</time></trkpt><trkpt lat="45.7098232" lon="11.7137688"><ele>82.0</ele><time>2026-04-26T07:38:24.196Z</time></trkpt><trkpt lat="45.7101726" lon="11.713987"><ele>82.33333333333333</ele><time>2026-04-26T07:38:26.196Z</time></trkpt><trkpt lat="45.7103332" lon="11.7140835"><ele>82.66666666666667</ele><time>2026-04-26T07:38:27.196Z</time></trkpt><trkpt lat="45.7104843" lon="11.7141756"><ele>83.0</ele><time>2026-04-26T07:38:28.197Z</time></trkpt><trkpt lat="45.7106271" lon="11.7142601"><ele>83.0</ele><time>2026-04-26T07:38:29.195Z</time></trkpt><trkpt lat="45.7107622" lon="11.7143375"><ele>83.0</ele><time>2026-04-26T07:38:30.194Z</time></trkpt><trkpt lat="45.7108942" lon="11.7144083"><ele>83.0</ele><time>2026-04-26T07:38:31.194Z</time></trkpt><trkpt lat="45.7110294" lon="11.7144765"><ele>83.0</ele><time>2026-04-26T07:38:32.194Z</time></trkpt><trkpt lat="45.7111744" lon="11.7145377"><ele>83.0</ele><time>2026-04-26T07:38:33.195Z</time></trkpt><trkpt lat="45.711333" lon="11.7145941"><ele>83.0</ele><time>2026-04-26T07:38:34.196Z</time></trkpt><trkpt lat="45.7115035" lon="11.7146536"><ele>83.0</ele><time>2026-04-26T07:38:35.195Z</time></trkpt><trkpt lat="45.7116761" lon="11.714713"><ele>83.0</ele><time>2026-04-26T07:38:36.196Z</time></trkpt><trkpt lat="45.7118372" lon="11.7147689"><ele>83.0</ele><time>2026-04-26T07:38:37.198Z</time></trkpt><trkpt lat="45.7119879" lon="11.7148327"><ele>83.0</ele><time>2026-04-26T07:38:38.194Z</time></trkpt><trkpt lat="45.7121355" lon="11.7149214"><ele>82.66666666666667</ele><time>2026-04-26T07:38:39.196Z</time></trkpt><trkpt lat="45.7122849" lon="11.7150385"><ele>82.33333333333333</ele><time>2026-04-26T07:38:40.196Z</time></trkpt><trkpt lat="45.7124356" lon="11.7151856"><ele>82.0</ele><time>2026-04-26T07:38:41.194Z</time></trkpt><trkpt lat="45.7125889" lon="11.7153534"><ele>82.66666666666666</ele><time>2026-04-26T07:38:42.194Z</time></trkpt><trkpt lat="45.7127491" lon="11.7155251"><ele>83.33333333333333</ele><time>2026-04-26T07:38:43.194Z</time></trkpt><trkpt lat="45.7129197" lon="11.7156884"><ele>84.0</ele><time>2026-04-26T07:38:44.197Z</time></trkpt><trkpt lat="45.7131018" lon="11.7158485"><ele>85.0</ele><time>2026-04-26T07:38:45.196Z</time></trkpt><trkpt lat="45.7134874" lon="11.7161869"><ele>84.5</ele><time>2026-04-26T07:38:47.196Z</time></trkpt><trkpt lat="45.7136859" lon="11.7163583"><ele>84.0</ele><time>2026-04-26T07:38:48.199Z</time></trkpt><trkpt lat="45.7138865" lon="11.7165238"><ele>84.0</ele><time>2026-04-26T07:38:49.197Z</time></trkpt><trkpt lat="45.7140867" lon="11.7166849"><ele>84.0</ele><time>2026-04-26T07:38:50.198Z</time></trkpt><trkpt lat="45.7142854" lon="11.7168401"><ele>83.5</ele><time>2026-04-26T07:38:51.199Z</time></trkpt><trkpt lat="45.7144863" lon="11.7169873"><ele>83.0</ele><time>2026-04-26T07:38:52.197Z</time></trkpt><trkpt lat="45.7146891" lon="11.7171281"><ele>83.0</ele><time>2026-04-26T07:38:53.198Z</time></trkpt><trkpt lat="45.7148903" lon="11.7172637"><ele>83.0</ele><time>2026-04-26T07:38:54.196Z</time></trkpt><trkpt lat="45.7150898" lon="11.7173947"><ele>83.0</ele><time>2026-04-26T07:38:55.197Z</time></trkpt><trkpt lat="45.7152878" lon="11.7175247"><ele>83.33333333333334</ele><time>2026-04-26T07:38:56.198Z</time></trkpt><trkpt lat="45.7154841" lon="11.7176551"><ele>83.66666666666667</ele><time>2026-04-26T07:38:57.197Z</time></trkpt><trkpt lat="45.715681" lon="11.7177881"><ele>84.0</ele><time>2026-04-26T07:38:58.201Z</time></trkpt><trkpt lat="45.7158775" lon="11.7179194"><ele>84.0</ele><time>2026-04-26T07:38:59.198Z</time></trkpt><trkpt lat="45.7160737" lon="11.7180519"><ele>84.0</ele><time>2026-04-26T07:39:00.198Z</time></trkpt><trkpt lat="45.7162688" lon="11.7181844"><ele>84.0</ele><time>2026-04-26T07:39:01.198Z</time></trkpt><trkpt lat="45.7164617" lon="11.7183162"><ele>84.0</ele><time>2026-04-26T07:39:02.196Z</time></trkpt><trkpt lat="45.7166503" lon="11.7184511"><ele>84.0</ele><time>2026-04-26T07:39:03.196Z</time></trkpt><trkpt lat="45.7168348" lon="11.7185892"><ele>84.0</ele><time>2026-04-26T07:39:04.198Z</time></trkpt><trkpt lat="45.7170143" lon="11.7187293"><ele>84.5</ele><time>2026-04-26T07:39:05.198Z</time></trkpt><trkpt lat="45.7171883" lon="11.7188701"><ele>85.0</ele><time>2026-04-26T07:39:06.195Z</time></trkpt><trkpt lat="45.7175224" lon="11.7191426"><ele>85.0</ele><time>2026-04-26T07:39:08.196Z</time></trkpt><trkpt lat="45.7176766" lon="11.719271"><ele>85.0</ele><time>2026-04-26T07:39:09.198Z</time></trkpt><trkpt lat="45.7178227" lon="11.719391"><ele>85.0</ele><time>2026-04-26T07:39:10.198Z</time></trkpt><trkpt lat="45.7179614" lon="11.719504"><ele>85.75</ele><time>2026-04-26T07:39:11.198Z</time></trkpt><trkpt lat="45.7180917" lon="11.7196137"><ele>86.5</ele><time>2026-04-26T07:39:12.196Z</time></trkpt><trkpt lat="45.7182158" lon="11.7197168"><ele>87.25</ele><time>2026-04-26T07:39:13.196Z</time></trkpt><trkpt lat="45.7183331" lon="11.7198127"><ele>88.0</ele><time>2026-04-26T07:39:14.198Z</time></trkpt><trkpt lat="45.7184375" lon="11.7198983"><ele>88.0</ele><time>2026-04-26T07:39:15.197Z</time></trkpt><trkpt lat="45.7185316" lon="11.7199744"><ele>88.0</ele><time>2026-04-26T07:39:16.197Z</time></trkpt><trkpt lat="45.7186166" lon="11.7200358"><ele>88.0</ele><time>2026-04-26T07:39:17.196Z</time></trkpt><trkpt lat="45.7186879" lon="11.7200844"><ele>88.0</ele><time>2026-04-26T07:39:18.196Z</time></trkpt><trkpt lat="45.7187484" lon="11.720132"><ele>88.0</ele><time>2026-04-26T07:39:19.199Z</time></trkpt><trkpt lat="45.7188155" lon="11.7201893"><ele>88.0</ele><time>2026-04-26T07:39:20.196Z</time></trkpt><trkpt lat="45.7188925" lon="11.7202765"><ele>88.5</ele><time>2026-04-26T07:39:21.198Z</time></trkpt><trkpt lat="45.7189754" lon="11.7203941"><ele>89.0</ele><time>2026-04-26T07:39:22.197Z</time></trkpt><trkpt lat="45.7190452" lon="11.7205375"><ele>89.5</ele><time>2026-04-26T07:39:23.199Z</time></trkpt><trkpt lat="45.719103" lon="11.7207109"><ele>90.0</ele><time>2026-04-26T07:39:24.198Z</time></trkpt><trkpt lat="45.7191633" lon="11.720903"><ele>89.0</ele><time>2026-04-26T07:39:25.198Z</time></trkpt><trkpt lat="45.7192366" lon="11.7211106"><ele>88.0</ele><time>2026-04-26T07:39:26.198Z</time></trkpt><trkpt lat="45.7193192" lon="11.7213386"><ele>87.0</ele><time>2026-04-26T07:39:27.198Z</time></trkpt><trkpt lat="45.7194937" lon="11.7218398"><ele>86.66666666666667</ele><time>2026-04-26T07:39:29.198Z</time></trkpt><trkpt lat="45.719586" lon="11.7221051"><ele>86.33333333333334</ele><time>2026-04-26T07:39:30.196Z</time></trkpt><trkpt lat="45.7196777" lon="11.7223697"><ele>86.0</ele><time>2026-04-26T07:39:31.195Z</time></trkpt><trkpt lat="45.7197656" lon="11.7226181"><ele>86.33333333333334</ele><time>2026-04-26T07:39:32.196Z</time></trkpt><trkpt lat="45.7198483" lon="11.7228518"><ele>86.66666666666667</ele><time>2026-04-26T07:39:33.195Z</time></trkpt><trkpt lat="45.7199243" lon="11.7230753"><ele>87.0</ele><time>2026-04-26T07:39:34.197Z</time></trkpt><trkpt lat="45.7199988" lon="11.7232899"><ele>87.0</ele><time>2026-04-26T07:39:35.199Z</time></trkpt><trkpt lat="45.720077" lon="11.7235095"><ele>87.0</ele><time>2026-04-26T07:39:36.197Z</time></trkpt><trkpt lat="45.7201563" lon="11.7237328"><ele>87.0</ele><time>2026-04-26T07:39:37.198Z</time></trkpt><trkpt lat="45.7202372" lon="11.7239645"><ele>87.0</ele><time>2026-04-26T07:39:38.199Z</time></trkpt><trkpt lat="45.7203211" lon="11.7241984"><ele>87.0</ele><time>2026-04-26T07:39:39.198Z</time></trkpt><trkpt lat="45.720407" lon="11.7244357"><ele>87.0</ele><time>2026-04-26T07:39:40.199Z</time></trkpt><trkpt lat="45.7204899" lon="11.7246731"><ele>87.0</ele><time>2026-04-26T07:39:41.198Z</time></trkpt><trkpt lat="45.720566" lon="11.7249002"><ele>87.0</ele><time>2026-04-26T07:39:42.197Z</time></trkpt><trkpt lat="45.720635" lon="11.7251187"><ele>87.0</ele><time>2026-04-26T07:39:43.198Z</time></trkpt><trkpt lat="45.7206901" lon="11.7253327"><ele>87.66666666666667</ele><time>2026-04-26T07:39:44.198Z</time></trkpt><trkpt lat="45.7207255" lon="11.725554"><ele>88.33333333333334</ele><time>2026-04-26T07:39:45.198Z</time></trkpt><trkpt lat="45.7207445" lon="11.7257903"><ele>89.0</ele><time>2026-04-26T07:39:46.197Z</time></trkpt><trkpt lat="45.7207476" lon="11.7260418"><ele>90.0</ele><time>2026-04-26T07:39:47.197Z</time></trkpt><trkpt lat="45.7207379" lon="11.7262907"><ele>91.0</ele><time>2026-04-26T07:39:48.197Z</time></trkpt><trkpt lat="45.7207067" lon="11.7267595"><ele>90.75</ele><time>2026-04-26T07:39:50.199Z</time></trkpt><trkpt lat="45.7206943" lon="11.7269829"><ele>90.5</ele><time>2026-04-26T07:39:51.198Z</time></trkpt><trkpt lat="45.7206839" lon="11.7272113"><ele>90.25</ele><time>2026-04-26T07:39:52.197Z</time></trkpt><trkpt lat="45.7206764" lon="11.727401"><ele>90.0</ele><time>2026-04-26T07:39:52.995Z</time></trkpt><trkpt lat="45.7206687" lon="11.7276976"><ele>90.66666666666667</ele><time>2026-04-26T07:39:54.197Z</time></trkpt><trkpt lat="45.7206617" lon="11.7279543"><ele>91.33333333333334</ele><time>2026-04-26T07:39:55.196Z</time></trkpt><trkpt lat="45.7206543" lon="11.7282127"><ele>92.0</ele><time>2026-04-26T07:39:56.195Z</time></trkpt><trkpt lat="45.7206468" lon="11.7284603"><ele>92.0</ele><time>2026-04-26T07:39:57.195Z</time></trkpt><trkpt lat="45.7206408" lon="11.7287045"><ele>92.0</ele><time>2026-04-26T07:39:58.195Z</time></trkpt><trkpt lat="45.7206364" lon="11.7289462"><ele>92.0</ele><time>2026-04-26T07:39:59.199Z</time></trkpt><trkpt lat="45.7206308" lon="11.7291856"><ele>91.66666666666667</ele><time>2026-04-26T07:40:00.195Z</time></trkpt><trkpt lat="45.7206261" lon="11.7294288"><ele>91.33333333333333</ele><time>2026-04-26T07:40:01.197Z</time></trkpt><trkpt lat="45.7206197" lon="11.7296665"><ele>91.0</ele><time>2026-04-26T07:40:02.197Z</time></trkpt><trkpt lat="45.7206141" lon="11.7298978"><ele>91.0</ele><time>2026-04-26T07:40:03.195Z</time></trkpt><trkpt lat="45.7206092" lon="11.7301266"><ele>91.0</ele><time>2026-04-26T07:40:04.195Z</time></trkpt><trkpt lat="45.7206083" lon="11.7303551"><ele>91.0</ele><time>2026-04-26T07:40:05.196Z</time></trkpt><trkpt lat="45.7206109" lon="11.7305776"><ele>91.0</ele><time>2026-04-26T07:40:06.195Z</time></trkpt><trkpt lat="45.7206174" lon="11.7307915"><ele>91.0</ele><time>2026-04-26T07:40:07.196Z</time></trkpt><trkpt lat="45.7206275" lon="11.7309952"><ele>91.0</ele><time>2026-04-26T07:40:08.196Z</time></trkpt><trkpt lat="45.7206405" lon="11.7311867"><ele>91.0</ele><time>2026-04-26T07:40:09.198Z</time></trkpt><trkpt lat="45.720688" lon="11.7315651"><ele>91.25</ele><time>2026-04-26T07:40:11.195Z</time></trkpt><trkpt lat="45.7207221" lon="11.7317706"><ele>91.5</ele><time>2026-04-26T07:40:12.196Z</time></trkpt><trkpt lat="45.7207606" lon="11.7319799"><ele>91.75</ele><time>2026-04-26T07:40:13.197Z</time></trkpt><trkpt lat="45.7207981" lon="11.7321764"><ele>92.0</ele><time>2026-04-26T07:40:14.199Z</time></trkpt><trkpt lat="45.7208296" lon="11.732351"><ele>92.0</ele><time>2026-04-26T07:40:15.197Z</time></trkpt><trkpt lat="45.7208553" lon="11.7325009"><ele>92.0</ele><time>2026-04-26T07:40:16.197Z</time></trkpt><trkpt lat="45.7208772" lon="11.7326276"><ele>92.0</ele><time>2026-04-26T07:40:17.198Z</time></trkpt><trkpt lat="45.7208922" lon="11.7327524"><ele>92.0</ele><time>2026-04-26T07:40:18.196Z</time></trkpt><trkpt lat="45.7208925" lon="11.7328852"><ele>92.0</ele><time>2026-04-26T07:40:19.197Z</time></trkpt><trkpt lat="45.7208968" lon="11.7330001"><ele>92.16666666666667</ele><time>2026-04-26T07:40:20.195Z</time></trkpt><trkpt lat="45.7209251" lon="11.733094"><ele>92.33333333333334</ele><time>2026-04-26T07:40:21.194Z</time></trkpt><trkpt lat="45.7209795" lon="11.7331515"><ele>92.5</ele><time>2026-04-26T07:40:22.196Z</time></trkpt><trkpt lat="45.7210574" lon="11.7331682"><ele>92.66666666666667</ele><time>2026-04-26T07:40:23.197Z</time></trkpt><trkpt lat="45.721157" lon="11.7331637"><ele>92.83333333333333</ele><time>2026-04-26T07:40:24.196Z</time></trkpt><trkpt lat="45.7212783" lon="11.7331839"><ele>93.0</ele><time>2026-04-26T07:40:25.196Z</time></trkpt><trkpt lat="45.7214296" lon="11.7332224"><ele>92.66666666666667</ele><time>2026-04-26T07:40:26.198Z</time></trkpt><trkpt lat="45.7216079" lon="11.7332511"><ele>92.33333333333334</ele><time>2026-04-26T07:40:27.198Z</time></trkpt><trkpt lat="45.7217887" lon="11.7332626"><ele>92.0</ele><time>2026-04-26T07:40:28.197Z</time></trkpt><trkpt lat="45.7219559" lon="11.7332626"><ele>92.0</ele><time>2026-04-26T07:40:29.196Z</time></trkpt><trkpt lat="45.7221165" lon="11.7332592"><ele>92.0</ele><time>2026-04-26T07:40:30.198Z</time></trkpt><trkpt lat="45.7224457" lon="11.7332586"><ele>92.0</ele><time>2026-04-26T07:40:32.198Z</time></trkpt><trkpt lat="45.7226165" lon="11.733254"><ele>92.0</ele><time>2026-04-26T07:40:33.198Z</time></trkpt><trkpt lat="45.7227872" lon="11.7332423"><ele>92.0</ele><time>2026-04-26T07:40:34.198Z</time></trkpt><trkpt lat="45.7229608" lon="11.7332207"><ele>92.66666666666667</ele><time>2026-04-26T07:40:35.198Z</time></trkpt><trkpt lat="45.7231378" lon="11.7331931"><ele>93.33333333333333</ele><time>2026-04-26T07:40:36.198Z</time></trkpt><trkpt lat="45.7233115" lon="11.7331666"><ele>94.0</ele><time>2026-04-26T07:40:37.199Z</time></trkpt><trkpt lat="45.7234423" lon="11.7331482"><ele>94.0</ele><time>2026-04-26T07:40:38Z</time></trkpt><trkpt lat="45.7236325" lon="11.7331204"><ele>94.0</ele><time>2026-04-26T07:40:39.195Z</time></trkpt><trkpt lat="45.7237922" lon="11.7330959"><ele>94.0</ele><time>2026-04-26T07:40:40.195Z</time></trkpt><trkpt lat="45.7239552" lon="11.7330709"><ele>94.0</ele><time>2026-04-26T07:40:41.197Z</time></trkpt><trkpt lat="45.7241261" lon="11.733056"><ele>94.0</ele><time>2026-04-26T07:40:42.198Z</time></trkpt><trkpt lat="45.7243041" lon="11.7330582"><ele>94.0</ele><time>2026-04-26T07:40:43.196Z</time></trkpt><trkpt lat="45.7244871" lon="11.7330782"><ele>94.66666666666666</ele><time>2026-04-26T07:40:44.196Z</time></trkpt><trkpt lat="45.7246623" lon="11.7331149"><ele>95.33333333333333</ele><time>2026-04-26T07:40:45.195Z</time></trkpt><trkpt lat="45.7248256" lon="11.7331594"><ele>96.0</ele><time>2026-04-26T07:40:46.197Z</time></trkpt><trkpt lat="45.724983" lon="11.7332065"><ele>96.0</ele><time>2026-04-26T07:40:47.198Z</time></trkpt><trkpt lat="45.7251435" lon="11.7332545"><ele>96.0</ele><time>2026-04-26T07:40:48.2Z</time></trkpt><trkpt lat="45.7253087" lon="11.7333031"><ele>96.0</ele><time>2026-04-26T07:40:49.197Z</time></trkpt><trkpt lat="45.725479" lon="11.7333527"><ele>94.5</ele><time>2026-04-26T07:40:50.197Z</time></trkpt><trkpt lat="45.7256503" lon="11.7334017"><ele>93.0</ele><time>2026-04-26T07:40:51.198Z</time></trkpt><trkpt lat="45.7259687" lon="11.7334937"><ele>94.0</ele><time>2026-04-26T07:40:53.198Z</time></trkpt><trkpt lat="45.7261149" lon="11.7335368"><ele>95.0</ele><time>2026-04-26T07:40:54.199Z</time></trkpt><trkpt lat="45.7262524" lon="11.7335782"><ele>96.0</ele><time>2026-04-26T07:40:55.197Z</time></trkpt><trkpt lat="45.7263866" lon="11.7336161"><ele>97.0</ele><time>2026-04-26T07:40:56.198Z</time></trkpt><trkpt lat="45.7265196" lon="11.7336515"><ele>97.0</ele><time>2026-04-26T07:40:57.197Z</time></trkpt><trkpt lat="45.726643" lon="11.7336977"><ele>97.0</ele><time>2026-04-26T07:40:58.199Z</time></trkpt><trkpt lat="45.7267515" lon="11.7337735"><ele>97.0</ele><time>2026-04-26T07:40:59.197Z</time></trkpt><trkpt lat="45.7268405" lon="11.7338882"><ele>97.0</ele><time>2026-04-26T07:41:00.197Z</time></trkpt><trkpt lat="45.7269036" lon="11.7340214"><ele>97.0</ele><time>2026-04-26T07:41:01.197Z</time></trkpt><trkpt lat="45.7269717" lon="11.73414"><ele>97.0</ele><time>2026-04-26T07:41:02.196Z</time></trkpt><trkpt lat="45.7270587" lon="11.7342246"><ele>97.0</ele><time>2026-04-26T07:41:03.195Z</time></trkpt><trkpt lat="45.7271636" lon="11.7342807"><ele>97.0</ele><time>2026-04-26T07:41:04.197Z</time></trkpt><trkpt lat="45.7272928" lon="11.7342981"><ele>97.0</ele><time>2026-04-26T07:41:05.195Z</time></trkpt><trkpt lat="45.7274526" lon="11.7342963"><ele>97.0</ele><time>2026-04-26T07:41:06.197Z</time></trkpt><trkpt lat="45.7276169" lon="11.7342903"><ele>97.0</ele><time>2026-04-26T07:41:07.195Z</time></trkpt><trkpt lat="45.7277677" lon="11.7342832"><ele>96.75</ele><time>2026-04-26T07:41:08.196Z</time></trkpt><trkpt lat="45.7279085" lon="11.7342761"><ele>96.5</ele><time>2026-04-26T07:41:09.194Z</time></trkpt><trkpt lat="45.7280418" lon="11.734269"><ele>96.25</ele><time>2026-04-26T07:41:10.195Z</time></trkpt><trkpt lat="45.7281691" lon="11.7342636"><ele>96.0</ele><time>2026-04-26T07:41:11.195Z</time></trkpt><trkpt lat="45.7282986" lon="11.7342511"><ele>96.0</ele><time>2026-04-26T07:41:12.195Z</time></trkpt><trkpt lat="45.7285828" lon="11.734162"><ele>96.0</ele><time>2026-04-26T07:41:14.196Z</time></trkpt><trkpt lat="45.7287484" lon="11.7340901"><ele>96.0</ele><time>2026-04-26T07:41:15.197Z</time></trkpt><trkpt lat="45.7289247" lon="11.7340104"><ele>96.0</ele><time>2026-04-26T07:41:16.196Z</time></trkpt><trkpt lat="45.7290942" lon="11.7339348"><ele>96.0</ele><time>2026-04-26T07:41:17.198Z</time></trkpt><trkpt lat="45.7292495" lon="11.7338623"><ele>96.25</ele><time>2026-04-26T07:41:18.199Z</time></trkpt><trkpt lat="45.7293938" lon="11.7337943"><ele>96.5</ele><time>2026-04-26T07:41:19.197Z</time></trkpt><trkpt lat="45.7295045" lon="11.7337438"><ele>96.75</ele><time>2026-04-26T07:41:19.993Z</time></trkpt><trkpt lat="45.729676" lon="11.7336721"><ele>97.0</ele><time>2026-04-26T07:41:21.198Z</time></trkpt><trkpt lat="45.7298192" lon="11.7336215"><ele>97.0</ele><time>2026-04-26T07:41:22.195Z</time></trkpt><trkpt lat="45.7299683" lon="11.7335867"><ele>97.0</ele><time>2026-04-26T07:41:23.197Z</time></trkpt><trkpt lat="45.7301301" lon="11.7335723"><ele>97.0</ele><time>2026-04-26T07:41:24.196Z</time></trkpt><trkpt lat="45.7303064" lon="11.7335696"><ele>97.33333333333334</ele><time>2026-04-26T07:41:25.197Z</time></trkpt><trkpt lat="45.7304851" lon="11.7335681"><ele>97.66666666666666</ele><time>2026-04-26T07:41:26.198Z</time></trkpt><trkpt lat="45.7306686" lon="11.7335664"><ele>98.0</ele><time>2026-04-26T07:41:27.197Z</time></trkpt><trkpt lat="45.7308505" lon="11.7335711"><ele>98.0</ele><time>2026-04-26T07:41:28.197Z</time></trkpt><trkpt lat="45.7310258" lon="11.733575"><ele>98.0</ele><time>2026-04-26T07:41:29.226Z</time></trkpt><trkpt lat="45.7311904" lon="11.7335774"><ele>98.0</ele><time>2026-04-26T07:41:30.226Z</time></trkpt><trkpt lat="45.7313558" lon="11.7335799"><ele>98.0</ele><time>2026-04-26T07:41:31.225Z</time></trkpt><trkpt lat="45.7315231" lon="11.7335766"><ele>98.0</ele><time>2026-04-26T07:41:32.227Z</time></trkpt><trkpt lat="45.7316895" lon="11.7335637"><ele>98.0</ele><time>2026-04-26T07:41:33.208Z</time></trkpt><trkpt lat="45.7320116" lon="11.73351"><ele>98.0</ele><time>2026-04-26T07:41:35.21Z</time></trkpt><trkpt lat="45.7321551" lon="11.7334795"><ele>98.0</ele><time>2026-04-26T07:41:36.21Z</time></trkpt><trkpt lat="45.7322828" lon="11.7334511"><ele>98.0</ele><time>2026-04-26T07:41:37.211Z</time></trkpt><trkpt lat="45.7323947" lon="11.7334259"><ele>98.0</ele><time>2026-04-26T07:41:38.212Z</time></trkpt><trkpt lat="45.732491" lon="11.733406"><ele>98.0</ele><time>2026-04-26T07:41:39.211Z</time></trkpt><trkpt lat="45.7325814" lon="11.7333974"><ele>98.0</ele><time>2026-04-26T07:41:40.226Z</time></trkpt><trkpt lat="45.7326725" lon="11.7334176"><ele>98.0</ele><time>2026-04-26T07:41:41.225Z</time></trkpt><trkpt lat="45.7327726" lon="11.7334493"><ele>98.0</ele><time>2026-04-26T07:41:42.214Z</time></trkpt><trkpt lat="45.732877" lon="11.7334463"><ele>98.0</ele><time>2026-04-26T07:41:43.199Z</time></trkpt><trkpt lat="45.7329894" lon="11.7333992"><ele>98.0</ele><time>2026-04-26T07:41:44.199Z</time></trkpt><trkpt lat="45.7331161" lon="11.7333222"><ele>98.0</ele><time>2026-04-26T07:41:45.199Z</time></trkpt><trkpt lat="45.7332681" lon="11.7332544"><ele>98.0</ele><time>2026-04-26T07:41:46.198Z</time></trkpt><trkpt lat="45.7334461" lon="11.7332085"><ele>99.33333333333333</ele><time>2026-04-26T07:41:47.201Z</time></trkpt><trkpt lat="45.7336446" lon="11.7331669"><ele>100.66666666666666</ele><time>2026-04-26T07:41:48.216Z</time></trkpt><trkpt lat="45.7338388" lon="11.7331238"><ele>102.0</ele><time>2026-04-26T07:41:49.215Z</time></trkpt><trkpt lat="45.7340206" lon="11.7330759"><ele>102.0</ele><time>2026-04-26T07:41:50.215Z</time></trkpt><trkpt lat="45.7341853" lon="11.7330235"><ele>102.0</ele><time>2026-04-26T07:41:51.212Z</time></trkpt><trkpt lat="45.7343335" lon="11.7329694"><ele>102.0</ele><time>2026-04-26T07:41:52.214Z</time></trkpt><trkpt lat="45.734467" lon="11.7329152"><ele>101.66666666666666</ele><time>2026-04-26T07:41:53.211Z</time></trkpt><trkpt lat="45.7345926" lon="11.7328613"><ele>101.33333333333333</ele><time>2026-04-26T07:41:54.211Z</time></trkpt><trkpt lat="45.7348413" lon="11.7327779"><ele>101.0</ele><time>2026-04-26T07:41:56.21Z</time></trkpt><trkpt lat="45.7349736" lon="11.7327575"><ele>101.0</ele><time>2026-04-26T07:41:57.209Z</time></trkpt><trkpt lat="45.7351134" lon="11.7327508"><ele>101.0</ele><time>2026-04-26T07:41:58.207Z</time></trkpt><trkpt lat="45.7352602" lon="11.7327552"><ele>101.0</ele><time>2026-04-26T07:41:59.207Z</time></trkpt><trkpt lat="45.7354151" lon="11.7327598"><ele>101.0</ele><time>2026-04-26T07:42:00.208Z</time></trkpt><trkpt lat="45.7355753" lon="11.7327511"><ele>100.75</ele><time>2026-04-26T07:42:01.209Z</time></trkpt><trkpt lat="45.7357295" lon="11.7327163"><ele>100.5</ele><time>2026-04-26T07:42:02.209Z</time></trkpt><trkpt lat="45.735875" lon="11.7326706"><ele>100.25</ele><time>2026-04-26T07:42:03.21Z</time></trkpt><trkpt lat="45.7360026" lon="11.7326282"><ele>100.0</ele><time>2026-04-26T07:42:04.209Z</time></trkpt><trkpt lat="45.7361168" lon="11.7325866"><ele>99.8</ele><time>2026-04-26T07:42:05.21Z</time></trkpt><trkpt lat="45.7362303" lon="11.7325595"><ele>99.6</ele><time>2026-04-26T07:42:06.209Z</time></trkpt><trkpt lat="45.7363435" lon="11.7325426"><ele>99.4</ele><time>2026-04-26T07:42:07.21Z</time></trkpt><trkpt lat="45.7364552" lon="11.7325159"><ele>99.2</ele><time>2026-04-26T07:42:08.21Z</time></trkpt><trkpt lat="45.7365548" lon="11.7324596"><ele>99.0</ele><time>2026-04-26T07:42:09.212Z</time></trkpt><trkpt lat="45.7366337" lon="11.7323688"><ele>99.0</ele><time>2026-04-26T07:42:10.211Z</time></trkpt><trkpt lat="45.7366886" lon="11.7322491"><ele>99.0</ele><time>2026-04-26T07:42:11.213Z</time></trkpt><trkpt lat="45.7367173" lon="11.7321082"><ele>99.0</ele><time>2026-04-26T07:42:12.21Z</time></trkpt><trkpt lat="45.7367325" lon="11.7319519"><ele>99.0</ele><time>2026-04-26T07:42:13.21Z</time></trkpt><trkpt lat="45.7367573" lon="11.7317932"><ele>99.0</ele><time>2026-04-26T07:42:14.209Z</time></trkpt><trkpt lat="45.7368115" lon="11.7316406"><ele>99.25</ele><time>2026-04-26T07:42:15.212Z</time></trkpt><trkpt lat="45.7369721" lon="11.7314026"><ele>99.5</ele><time>2026-04-26T07:42:17.212Z</time></trkpt><trkpt lat="45.7370582" lon="11.731329"><ele>99.75</ele><time>2026-04-26T07:42:18.21Z</time></trkpt><trkpt lat="45.7371457" lon="11.7312762"><ele>100.0</ele><time>2026-04-26T07:42:19.222Z</time></trkpt><trkpt lat="45.7372385" lon="11.7312435"><ele>100.0</ele><time>2026-04-26T07:42:20.223Z</time></trkpt><trkpt lat="45.7373288" lon="11.7312321"><ele>100.0</ele><time>2026-04-26T07:42:21.221Z</time></trkpt><trkpt lat="45.737405" lon="11.7312383"><ele>100.0</ele><time>2026-04-26T07:42:22.219Z</time></trkpt><trkpt lat="45.7375154" lon="11.7312614"><ele>100.0</ele><time>2026-04-26T07:42:24.22Z</time></trkpt><trkpt lat="45.7376262" lon="11.7312922"><ele>100.0</ele><time>2026-04-26T07:42:26.199Z</time></trkpt><trkpt lat="45.737697" lon="11.7313221"><ele>100.00000000000001</ele><time>2026-04-26T07:42:27.198Z</time></trkpt><trkpt lat="45.7377638" lon="11.7313681"><ele>100.0</ele><time>2026-04-26T07:42:28.198Z</time></trkpt><trkpt lat="45.7378268" lon="11.7314372"><ele>100.0</ele><time>2026-04-26T07:42:29.2Z</time></trkpt><trkpt lat="45.7378894" lon="11.7315269"><ele>100.0</ele><time>2026-04-26T07:42:30.199Z</time></trkpt><trkpt lat="45.7379611" lon="11.7316039"><ele>100.00000000000001</ele><time>2026-04-26T07:42:31.196Z</time></trkpt><trkpt lat="45.7380586" lon="11.7316554"><ele>100.0</ele><time>2026-04-26T07:42:32.199Z</time></trkpt><trkpt lat="45.7381768" lon="11.7316818"><ele>100.0</ele><time>2026-04-26T07:42:33.198Z</time></trkpt><trkpt lat="45.7382969" lon="11.7316767"><ele>100.0</ele><time>2026-04-26T07:42:34.198Z</time></trkpt><trkpt lat="45.7384066" lon="11.7316426"><ele>100.0</ele><time>2026-04-26T07:42:35.198Z</time></trkpt><trkpt lat="45.7385084" lon="11.7315823"><ele>100.0</ele><time>2026-04-26T07:42:36.198Z</time></trkpt><trkpt lat="45.7387195" lon="11.7314096"><ele>99.0</ele><time>2026-04-26T07:42:38.199Z</time></trkpt><trkpt lat="45.7388388" lon="11.7313572"><ele>98.0</ele><time>2026-04-26T07:42:39.199Z</time></trkpt><trkpt lat="45.7389583" lon="11.7313094"><ele>97.0</ele><time>2026-04-26T07:42:40.199Z</time></trkpt><trkpt lat="45.7390704" lon="11.7312597"><ele>96.0</ele><time>2026-04-26T07:42:41.198Z</time></trkpt><trkpt lat="45.7391763" lon="11.7312119"><ele>96.0</ele><time>2026-04-26T07:42:42.197Z</time></trkpt><trkpt lat="45.7392796" lon="11.7311658"><ele>96.0</ele><time>2026-04-26T07:42:43.202Z</time></trkpt><trkpt lat="45.7393862" lon="11.7311191"><ele>96.0</ele><time>2026-04-26T07:42:44.199Z</time></trkpt><trkpt lat="45.7394932" lon="11.731076"><ele>96.0</ele><time>2026-04-26T07:42:45.197Z</time></trkpt><trkpt lat="45.7395954" lon="11.731036"><ele>96.0</ele><time>2026-04-26T07:42:46.197Z</time></trkpt><trkpt lat="45.7396922" lon="11.7309975"><ele>97.19999999999999</ele><time>2026-04-26T07:42:47.196Z</time></trkpt><trkpt lat="45.7397873" lon="11.7309592"><ele>98.39999999999999</ele><time>2026-04-26T07:42:48.196Z</time></trkpt><trkpt lat="45.739882" lon="11.7309211"><ele>99.6</ele><time>2026-04-26T07:42:49.209Z</time></trkpt><trkpt lat="45.7399719" lon="11.7308849"><ele>100.8</ele><time>2026-04-26T07:42:50.208Z</time></trkpt><trkpt lat="45.740055" lon="11.73085"><ele>102.0</ele><time>2026-04-26T07:42:51.197Z</time></trkpt><trkpt lat="45.7401344" lon="11.7308142"><ele>101.8</ele><time>2026-04-26T07:42:52.197Z</time></trkpt><trkpt lat="45.7402215" lon="11.7307779"><ele>101.6</ele><time>2026-04-26T07:42:53.197Z</time></trkpt><trkpt lat="45.7403196" lon="11.7307418"><ele>101.39999999999999</ele><time>2026-04-26T07:42:54.197Z</time></trkpt><trkpt lat="45.7404312" lon="11.7307142"><ele>101.19999999999999</ele><time>2026-04-26T07:42:55.197Z</time></trkpt><trkpt lat="45.7405544" lon="11.7306935"><ele>101.0</ele><time>2026-04-26T07:42:56.197Z</time></trkpt><trkpt lat="45.7406817" lon="11.7306767"><ele>101.0</ele><time>2026-04-26T07:42:57.197Z</time></trkpt><trkpt lat="45.7409163" lon="11.7306472"><ele>101.0</ele><time>2026-04-26T07:42:59.198Z</time></trkpt><trkpt lat="45.7410318" lon="11.7306277"><ele>101.0</ele><time>2026-04-26T07:43:00.197Z</time></trkpt><trkpt lat="45.7411555" lon="11.7306028"><ele>101.33333333333333</ele><time>2026-04-26T07:43:01.196Z</time></trkpt><trkpt lat="45.741292" lon="11.7305668"><ele>101.66666666666666</ele><time>2026-04-26T07:43:02.2Z</time></trkpt><trkpt lat="45.7413839" lon="11.7305391"><ele>102.0</ele><time>2026-04-26T07:43:02.806Z</time></trkpt><trkpt lat="45.7416218" lon="11.7304782"><ele>102.0</ele><time>2026-04-26T07:43:04.197Z</time></trkpt><trkpt lat="45.7417891" lon="11.7304463"><ele>102.0</ele><time>2026-04-26T07:43:05.198Z</time></trkpt><trkpt lat="45.741943" lon="11.7304133"><ele>102.0</ele><time>2026-04-26T07:43:06.199Z</time></trkpt><trkpt lat="45.7420849" lon="11.7303863"><ele>101.75</ele><time>2026-04-26T07:43:07.198Z</time></trkpt><trkpt lat="45.7422175" lon="11.7303678"><ele>101.5</ele><time>2026-04-26T07:43:08.197Z</time></trkpt><trkpt lat="45.7423437" lon="11.7303499"><ele>101.25</ele><time>2026-04-26T07:43:09.197Z</time></trkpt><trkpt lat="45.7424635" lon="11.7303315"><ele>101.0</ele><time>2026-04-26T07:43:10.199Z</time></trkpt><trkpt lat="45.7425765" lon="11.7303149"><ele>101.0</ele><time>2026-04-26T07:43:11.195Z</time></trkpt><trkpt lat="45.7426818" lon="11.7302997"><ele>101.0</ele><time>2026-04-26T07:43:12.194Z</time></trkpt><trkpt lat="45.7427802" lon="11.7302855"><ele>101.0</ele><time>2026-04-26T07:43:13.198Z</time></trkpt><trkpt lat="45.7428716" lon="11.7302705"><ele>101.0</ele><time>2026-04-26T07:43:14.196Z</time></trkpt><trkpt lat="45.7429552" lon="11.7302569"><ele>101.0</ele><time>2026-04-26T07:43:15.197Z</time></trkpt><trkpt lat="45.7430293" lon="11.7302483"><ele>101.0</ele><time>2026-04-26T07:43:16.199Z</time></trkpt><trkpt lat="45.7430996" lon="11.7302488"><ele>101.0</ele><time>2026-04-26T07:43:17.198Z</time></trkpt><trkpt lat="45.7431772" lon="11.7302764"><ele>101.0</ele><time>2026-04-26T07:43:18.199Z</time></trkpt><trkpt lat="45.7433489" lon="11.7303227"><ele>101.0</ele><time>2026-04-26T07:43:20.199Z</time></trkpt><trkpt lat="45.7434269" lon="11.7302849"><ele>101.0</ele><time>2026-04-26T07:43:21.197Z</time></trkpt><trkpt lat="45.7435053" lon="11.7302166"><ele>101.25</ele><time>2026-04-26T07:43:22.199Z</time></trkpt><trkpt lat="45.7435982" lon="11.7301516"><ele>101.5</ele><time>2026-04-26T07:43:23.198Z</time></trkpt><trkpt lat="45.7437114" lon="11.7300947"><ele>101.75</ele><time>2026-04-26T07:43:24.197Z</time></trkpt><trkpt lat="45.7438481" lon="11.7300201"><ele>102.0</ele><time>2026-04-26T07:43:25.197Z</time></trkpt><trkpt lat="45.7439971" lon="11.7299269"><ele>102.0</ele><time>2026-04-26T07:43:26.198Z</time></trkpt><trkpt lat="45.7441407" lon="11.7298294"><ele>102.0</ele><time>2026-04-26T07:43:27.197Z</time></trkpt><trkpt lat="45.7442877" lon="11.7297188"><ele>102.0</ele><time>2026-04-26T07:43:28.196Z</time></trkpt><trkpt lat="45.7444434" lon="11.729587"><ele>102.66666666666666</ele><time>2026-04-26T07:43:29.197Z</time></trkpt><trkpt lat="45.7446093" lon="11.7294369"><ele>103.33333333333333</ele><time>2026-04-26T07:43:30.196Z</time></trkpt><trkpt lat="45.7447801" lon="11.7292819"><ele>104.0</ele><time>2026-04-26T07:43:31.198Z</time></trkpt><trkpt lat="45.7449489" lon="11.7291307"><ele>104.0</ele><time>2026-04-26T07:43:32.2Z</time></trkpt><trkpt lat="45.7451101" lon="11.7289862"><ele>104.0</ele><time>2026-04-26T07:43:33.198Z</time></trkpt><trkpt lat="45.7452657" lon="11.7288429"><ele>104.0</ele><time>2026-04-26T07:43:34.199Z</time></trkpt><trkpt lat="45.7454194" lon="11.7287006"><ele>103.66666666666666</ele><time>2026-04-26T07:43:35.195Z</time></trkpt><trkpt lat="45.7455736" lon="11.7285592"><ele>103.33333333333334</ele><time>2026-04-26T07:43:36.193Z</time></trkpt><trkpt lat="45.7457273" lon="11.7284161"><ele>103.0</ele><time>2026-04-26T07:43:37.195Z</time></trkpt><trkpt lat="45.7458786" lon="11.7282779"><ele>103.0</ele><time>2026-04-26T07:43:38.195Z</time></trkpt><trkpt lat="45.7460241" lon="11.7281464"><ele>103.0</ele><time>2026-04-26T07:43:39.197Z</time></trkpt><trkpt lat="45.7463191" lon="11.7279"><ele>103.33333333333334</ele><time>2026-04-26T07:43:41.198Z</time></trkpt><trkpt lat="45.7464709" lon="11.7277822"><ele>103.66666666666666</ele><time>2026-04-26T07:43:42.196Z</time></trkpt><trkpt lat="45.746624" lon="11.7276649"><ele>104.0</ele><time>2026-04-26T07:43:43.195Z</time></trkpt><trkpt lat="45.7467727" lon="11.7275554"><ele>104.33333333333333</ele><time>2026-04-26T07:43:44.197Z</time></trkpt><trkpt lat="45.7469133" lon="11.7274502"><ele>104.66666666666666</ele><time>2026-04-26T07:43:45.198Z</time></trkpt><trkpt lat="45.7470466" lon="11.7273479"><ele>105.0</ele><time>2026-04-26T07:43:46.198Z</time></trkpt><trkpt lat="45.7471721" lon="11.727252"><ele>105.0</ele><time>2026-04-26T07:43:47.198Z</time></trkpt><trkpt lat="45.7472874" lon="11.7271635"><ele>105.0</ele><time>2026-04-26T07:43:48.198Z</time></trkpt><trkpt lat="45.7473912" lon="11.7270828"><ele>105.0</ele><time>2026-04-26T07:43:49.198Z</time></trkpt><trkpt lat="45.7474876" lon="11.727008"><ele>105.0</ele><time>2026-04-26T07:43:50.199Z</time></trkpt><trkpt lat="45.7475908" lon="11.7269349"><ele>105.5</ele><time>2026-04-26T07:43:51.196Z</time></trkpt><trkpt lat="45.7477128" lon="11.7268735"><ele>106.0</ele><time>2026-04-26T07:43:52.197Z</time></trkpt><trkpt lat="45.7478506" lon="11.7267966"><ele>106.5</ele><time>2026-04-26T07:43:53.197Z</time></trkpt><trkpt lat="45.7479968" lon="11.7266797"><ele>107.0</ele><time>2026-04-26T07:43:54.202Z</time></trkpt><trkpt lat="45.748155" lon="11.7265349"><ele>107.0</ele><time>2026-04-26T07:43:55.196Z</time></trkpt><trkpt lat="45.7483223" lon="11.7263936"><ele>107.0</ele><time>2026-04-26T07:43:56.197Z</time></trkpt><trkpt lat="45.7484882" lon="11.726276"><ele>107.0</ele><time>2026-04-26T07:43:57.199Z</time></trkpt><trkpt lat="45.7486494" lon="11.7261757"><ele>107.0</ele><time>2026-04-26T07:43:58.198Z</time></trkpt><trkpt lat="45.7488059" lon="11.7260893"><ele>107.0</ele><time>2026-04-26T07:43:59.197Z</time></trkpt><trkpt lat="45.7489624" lon="11.7260131"><ele>107.0</ele><time>2026-04-26T07:44:00.197Z</time></trkpt><trkpt lat="45.7492886" lon="11.7258865"><ele>106.0</ele><time>2026-04-26T07:44:02.196Z</time></trkpt><trkpt lat="45.7494499" lon="11.7258392"><ele>105.0</ele><time>2026-04-26T07:44:03.196Z</time></trkpt><trkpt lat="45.7496082" lon="11.7258048"><ele>104.0</ele><time>2026-04-26T07:44:04.197Z</time></trkpt><trkpt lat="45.7497697" lon="11.725782"><ele>104.0</ele><time>2026-04-26T07:44:05.198Z</time></trkpt><trkpt lat="45.7499353" lon="11.7257719"><ele>104.0</ele><time>2026-04-26T07:44:06.197Z</time></trkpt><trkpt lat="45.7501048" lon="11.7257748"><ele>104.0</ele><time>2026-04-26T07:44:07.197Z</time></trkpt><trkpt lat="45.7502793" lon="11.725793"><ele>104.33333333333333</ele><time>2026-04-26T07:44:08.197Z</time></trkpt><trkpt lat="45.7504513" lon="11.725822"><ele>104.66666666666666</ele><time>2026-04-26T07:44:09.197Z</time></trkpt><trkpt lat="45.7506141" lon="11.7258578"><ele>105.0</ele><time>2026-04-26T07:44:10.198Z</time></trkpt><trkpt lat="45.7507702" lon="11.7258992"><ele>105.0</ele><time>2026-04-26T07:44:11.198Z</time></trkpt><trkpt lat="45.7509278" lon="11.7259516"><ele>105.0</ele><time>2026-04-26T07:44:12.196Z</time></trkpt><trkpt lat="45.751089" lon="11.7260163"><ele>105.0</ele><time>2026-04-26T07:44:13.198Z</time></trkpt><trkpt lat="45.7512543" lon="11.7260929"><ele>105.66666666666666</ele><time>2026-04-26T07:44:14.199Z</time></trkpt><trkpt lat="45.7514161" lon="11.7261781"><ele>106.33333333333333</ele><time>2026-04-26T07:44:15.198Z</time></trkpt><trkpt lat="45.7515709" lon="11.7262733"><ele>107.0</ele><time>2026-04-26T07:44:16.196Z</time></trkpt><trkpt lat="45.7517255" lon="11.7263779"><ele>106.33333333333333</ele><time>2026-04-26T07:44:17.197Z</time></trkpt><trkpt lat="45.75188" lon="11.7264846"><ele>105.66666666666666</ele><time>2026-04-26T07:44:18.198Z</time></trkpt><trkpt lat="45.7520262" lon="11.7265887"><ele>105.0</ele><time>2026-04-26T07:44:19.195Z</time></trkpt><trkpt lat="45.752165" lon="11.726689"><ele>105.0</ele><time>2026-04-26T07:44:20.197Z</time></trkpt><trkpt lat="45.7522949" lon="11.7267856"><ele>105.0</ele><time>2026-04-26T07:44:21.196Z</time></trkpt><trkpt lat="45.7525327" lon="11.7269553"><ele>105.0</ele><time>2026-04-26T07:44:23.197Z</time></trkpt><trkpt lat="45.7526365" lon="11.727027"><ele>105.16666666666667</ele><time>2026-04-26T07:44:24.196Z</time></trkpt><trkpt lat="45.7527281" lon="11.727092"><ele>105.33333333333334</ele><time>2026-04-26T07:44:25.196Z</time></trkpt><trkpt lat="45.7528093" lon="11.7271488"><ele>105.5</ele><time>2026-04-26T07:44:26.195Z</time></trkpt><trkpt lat="45.7528808" lon="11.7272006"><ele>105.66666666666667</ele><time>2026-04-26T07:44:27.195Z</time></trkpt><trkpt lat="45.7529434" lon="11.7272519"><ele>105.83333333333334</ele><time>2026-04-26T07:44:28.196Z</time></trkpt><trkpt lat="45.7530078" lon="11.7273219"><ele>106.0</ele><time>2026-04-26T07:44:29.197Z</time></trkpt><trkpt lat="45.7530775" lon="11.7274143"><ele>106.0</ele><time>2026-04-26T07:44:30.196Z</time></trkpt><trkpt lat="45.7531584" lon="11.727483"><ele>106.0</ele><time>2026-04-26T07:44:31.196Z</time></trkpt><trkpt lat="45.7532567" lon="11.727516"><ele>106.0</ele><time>2026-04-26T07:44:32.197Z</time></trkpt><trkpt lat="45.7533281" lon="11.7275316"><ele>106.0</ele><time>2026-04-26T07:44:32.806Z</time></trkpt><trkpt lat="45.7535212" lon="11.7276147"><ele>105.66666666666667</ele><time>2026-04-26T07:44:34.201Z</time></trkpt><trkpt lat="45.7536883" lon="11.7277238"><ele>105.33333333333334</ele><time>2026-04-26T07:44:35.212Z</time></trkpt><trkpt lat="45.7538695" lon="11.7278527"><ele>105.0</ele><time>2026-04-26T07:44:36.212Z</time></trkpt><trkpt lat="45.7540459" lon="11.7279804"><ele>104.66666666666666</ele><time>2026-04-26T07:44:37.212Z</time></trkpt><trkpt lat="45.7542112" lon="11.7280998"><ele>104.33333333333333</ele><time>2026-04-26T07:44:38.21Z</time></trkpt><trkpt lat="45.7543755" lon="11.7282127"><ele>104.0</ele><time>2026-04-26T07:44:39.209Z</time></trkpt><trkpt lat="45.7545462" lon="11.7283306"><ele>104.0</ele><time>2026-04-26T07:44:40.212Z</time></trkpt><trkpt lat="45.7547296" lon="11.7284584"><ele>104.0</ele><time>2026-04-26T07:44:41.212Z</time></trkpt><trkpt lat="45.7549192" lon="11.7285894"><ele>104.0</ele><time>2026-04-26T07:44:42.212Z</time></trkpt><trkpt lat="45.7552699" lon="11.7288331"><ele>104.66666666666666</ele><time>2026-04-26T07:44:44.212Z</time></trkpt><trkpt lat="45.7554341" lon="11.7289497"><ele>105.33333333333334</ele><time>2026-04-26T07:44:45.212Z</time></trkpt><trkpt lat="45.7556006" lon="11.7290674"><ele>106.0</ele><time>2026-04-26T07:44:46.209Z</time></trkpt><trkpt lat="45.7557714" lon="11.7291843"><ele>106.0</ele><time>2026-04-26T07:44:47.21Z</time></trkpt><trkpt lat="45.7559363" lon="11.729302"><ele>106.0</ele><time>2026-04-26T07:44:48.208Z</time></trkpt><trkpt lat="45.7560953" lon="11.7294146"><ele>106.0</ele><time>2026-04-26T07:44:49.208Z</time></trkpt><trkpt lat="45.7562461" lon="11.7295218"><ele>106.33333333333334</ele><time>2026-04-26T07:44:50.209Z</time></trkpt><trkpt lat="45.7563903" lon="11.7296245"><ele>106.66666666666666</ele><time>2026-04-26T07:44:51.208Z</time></trkpt><trkpt lat="45.7565305" lon="11.7297249"><ele>107.0</ele><time>2026-04-26T07:44:52.212Z</time></trkpt><trkpt lat="45.756666" lon="11.7298229"><ele>107.0</ele><time>2026-04-26T07:44:53.214Z</time></trkpt><trkpt lat="45.7567962" lon="11.7299159"><ele>107.0</ele><time>2026-04-26T07:44:54.212Z</time></trkpt><trkpt lat="45.7569195" lon="11.7300035"><ele>107.0</ele><time>2026-04-26T07:44:55.211Z</time></trkpt><trkpt lat="45.7570408" lon="11.7300891"><ele>107.0</ele><time>2026-04-26T07:44:56.226Z</time></trkpt><trkpt lat="45.7571627" lon="11.7301749"><ele>106.5</ele><time>2026-04-26T07:44:57.21Z</time></trkpt><trkpt lat="45.7572878" lon="11.7302628"><ele>106.0</ele><time>2026-04-26T07:44:58.209Z</time></trkpt><trkpt lat="45.757409" lon="11.7303469"><ele>105.5</ele><time>2026-04-26T07:44:59.21Z</time></trkpt><trkpt lat="45.7575294" lon="11.7304279"><ele>105.0</ele><time>2026-04-26T07:45:00.209Z</time></trkpt><trkpt lat="45.7576534" lon="11.7305066"><ele>105.33333333333334</ele><time>2026-04-26T07:45:01.211Z</time></trkpt><trkpt lat="45.7577825" lon="11.7305836"><ele>105.66666666666667</ele><time>2026-04-26T07:45:02.21Z</time></trkpt><trkpt lat="45.7579111" lon="11.7306554"><ele>106.0</ele><time>2026-04-26T07:45:03.224Z</time></trkpt><trkpt lat="45.7581599" lon="11.7307838"><ele>106.0</ele><time>2026-04-26T07:45:05.227Z</time></trkpt><trkpt lat="45.7582942" lon="11.7308527"><ele>106.0</ele><time>2026-04-26T07:45:06.224Z</time></trkpt><trkpt lat="45.7584388" lon="11.730929"><ele>106.0</ele><time>2026-04-26T07:45:07.225Z</time></trkpt><trkpt lat="45.7585961" lon="11.7310101"><ele>107.0</ele><time>2026-04-26T07:45:08.224Z</time></trkpt><trkpt lat="45.7587624" lon="11.7310958"><ele>108.0</ele><time>2026-04-26T07:45:09.226Z</time></trkpt><trkpt lat="45.7588634" lon="11.7311499"><ele>109.0</ele><time>2026-04-26T07:45:09.827Z</time></trkpt><trkpt lat="45.7590989" lon="11.7312833"><ele>109.0</ele><time>2026-04-26T07:45:11.224Z</time></trkpt><trkpt lat="45.7592639" lon="11.7313749"><ele>109.0</ele><time>2026-04-26T07:45:12.224Z</time></trkpt><trkpt lat="45.7594183" lon="11.7314524"><ele>109.0</ele><time>2026-04-26T07:45:13.208Z</time></trkpt><trkpt lat="45.7595672" lon="11.7315202"><ele>109.0</ele><time>2026-04-26T07:45:14.211Z</time></trkpt><trkpt lat="45.7597053" lon="11.7315794"><ele>109.0</ele><time>2026-04-26T07:45:15.208Z</time></trkpt><trkpt lat="45.7598333" lon="11.7316347"><ele>109.0</ele><time>2026-04-26T07:45:16.207Z</time></trkpt><trkpt lat="45.7599499" lon="11.7316848"><ele>109.0</ele><time>2026-04-26T07:45:17.21Z</time></trkpt><trkpt lat="45.7600538" lon="11.7317269"><ele>109.00000000000001</ele><time>2026-04-26T07:45:18.21Z</time></trkpt><trkpt lat="45.7601456" lon="11.7317598"><ele>109.0</ele><time>2026-04-26T07:45:19.21Z</time></trkpt><trkpt lat="45.7602266" lon="11.7317912"><ele>109.0</ele><time>2026-04-26T07:45:20.211Z</time></trkpt><trkpt lat="45.7603025" lon="11.7318324"><ele>109.0</ele><time>2026-04-26T07:45:21.21Z</time></trkpt><trkpt lat="45.7603864" lon="11.7318917"><ele>109.00000000000001</ele><time>2026-04-26T07:45:22.212Z</time></trkpt><trkpt lat="45.7604716" lon="11.7319521"><ele>109.0</ele><time>2026-04-26T07:45:23.212Z</time></trkpt><trkpt lat="45.7605475" lon="11.7319992"><ele>109.75</ele><time>2026-04-26T07:45:24.211Z</time></trkpt><trkpt lat="45.7607061" lon="11.7319831"><ele>110.5</ele><time>2026-04-26T07:45:26.211Z</time></trkpt><trkpt lat="45.7608119" lon="11.7319554"><ele>111.25</ele><time>2026-04-26T07:45:27.212Z</time></trkpt><trkpt lat="45.7609385" lon="11.7319413"><ele>112.0</ele><time>2026-04-26T07:45:28.212Z</time></trkpt><trkpt lat="45.7610944" lon="11.7319462"><ele>112.33333333333334</ele><time>2026-04-26T07:45:29.212Z</time></trkpt><trkpt lat="45.7612657" lon="11.7319582"><ele>112.66666666666666</ele><time>2026-04-26T07:45:30.21Z</time></trkpt><trkpt lat="45.7614334" lon="11.7319695"><ele>113.0</ele><time>2026-04-26T07:45:31.211Z</time></trkpt><trkpt lat="45.7615867" lon="11.7319782"><ele>113.0</ele><time>2026-04-26T07:45:32.211Z</time></trkpt><trkpt lat="45.7617275" lon="11.7319853"><ele>113.0</ele><time>2026-04-26T07:45:33.212Z</time></trkpt><trkpt lat="45.7618575" lon="11.7319909"><ele>113.0</ele><time>2026-04-26T07:45:34.21Z</time></trkpt><trkpt lat="45.7619807" lon="11.7319954"><ele>113.0</ele><time>2026-04-26T07:45:35.212Z</time></trkpt><trkpt lat="45.7621055" lon="11.7319967"><ele>113.5</ele><time>2026-04-26T07:45:36.211Z</time></trkpt><trkpt lat="45.7621859" lon="11.7319971"><ele>114.0</ele><time>2026-04-26T07:45:36.82Z</time></trkpt><trkpt lat="45.7623849" lon="11.7319994"><ele>114.5</ele><time>2026-04-26T07:45:38.196Z</time></trkpt><trkpt lat="45.7625315" lon="11.7320105"><ele>115.0</ele><time>2026-04-26T07:45:39.198Z</time></trkpt><trkpt lat="45.7626661" lon="11.7320313"><ele>115.5</ele><time>2026-04-26T07:45:40.196Z</time></trkpt><trkpt lat="45.7627926" lon="11.7320535"><ele>116.0</ele><time>2026-04-26T07:45:41.196Z</time></trkpt><trkpt lat="45.762911" lon="11.7320712"><ele>116.5</ele><time>2026-04-26T07:45:42.197Z</time></trkpt><trkpt lat="45.7630209" lon="11.7320822"><ele>117.0</ele><time>2026-04-26T07:45:43.198Z</time></trkpt><trkpt lat="45.763119" lon="11.7320906"><ele>117.0</ele><time>2026-04-26T07:45:44.198Z</time></trkpt><trkpt lat="45.7632027" lon="11.7320985"><ele>116.99999999999999</ele><time>2026-04-26T07:45:45.197Z</time></trkpt><trkpt lat="45.7633552" lon="11.7321322"><ele>116.99999999999999</ele><time>2026-04-26T07:45:47.197Z</time></trkpt><trkpt lat="45.7634426" lon="11.7321628"><ele>117.0</ele><time>2026-04-26T07:45:48.196Z</time></trkpt><trkpt lat="45.7635213" lon="11.7321993"><ele>117.0</ele><time>2026-04-26T07:45:49.197Z</time></trkpt><trkpt lat="45.7635858" lon="11.7322268"><ele>116.83333333333333</ele><time>2026-04-26T07:45:50.198Z</time></trkpt><trkpt lat="45.7636561" lon="11.7322526"><ele>116.66666666666666</ele><time>2026-04-26T07:45:52.198Z</time></trkpt><trkpt lat="45.7637555" lon="11.7322403"><ele>116.5</ele><time>2026-04-26T07:45:56.198Z</time></trkpt><trkpt lat="45.7638055" lon="11.7321581"><ele>116.33333333333333</ele><time>2026-04-26T07:45:58.196Z</time></trkpt><trkpt lat="45.763826" lon="11.7320551"><ele>116.16666666666666</ele><time>2026-04-26T07:46:01.194Z</time></trkpt><trkpt lat="45.7638423" lon="11.7319492"><ele>116.0</ele><time>2026-04-26T07:46:03.194Z</time></trkpt><trkpt lat="45.7638554" lon="11.7318598"><ele>116.0</ele><time>2026-04-26T07:46:04.194Z</time></trkpt><trkpt lat="45.7638791" lon="11.7317473"><ele>116.0</ele><time>2026-04-26T07:46:05.197Z</time></trkpt><trkpt lat="45.7639152" lon="11.731621"><ele>116.0</ele><time>2026-04-26T07:46:06.223Z</time></trkpt><trkpt lat="45.764023" lon="11.7313234"><ele>116.0</ele><time>2026-04-26T07:46:08.21Z</time></trkpt><trkpt lat="45.7640888" lon="11.7311627"><ele>115.19999999999999</ele><time>2026-04-26T07:46:09.21Z</time></trkpt><trkpt lat="45.7641512" lon="11.7310252"><ele>114.39999999999999</ele><time>2026-04-26T07:46:10.208Z</time></trkpt><trkpt lat="45.7642071" lon="11.7309017"><ele>113.6</ele><time>2026-04-26T07:46:11.211Z</time></trkpt><trkpt lat="45.7642599" lon="11.730781"><ele>112.8</ele><time>2026-04-26T07:46:12.21Z</time></trkpt><trkpt lat="45.7643127" lon="11.7306588"><ele>112.0</ele><time>2026-04-26T07:46:13.209Z</time></trkpt><trkpt lat="45.7643657" lon="11.7305377"><ele>111.25</ele><time>2026-04-26T07:46:14.211Z</time></trkpt><trkpt lat="45.7644184" lon="11.7304177"><ele>110.5</ele><time>2026-04-26T07:46:15.211Z</time></trkpt><trkpt lat="45.7644691" lon="11.7303011"><ele>109.75</ele><time>2026-04-26T07:46:16.21Z</time></trkpt><trkpt lat="45.7645187" lon="11.7301856"><ele>109.0</ele><time>2026-04-26T07:46:17.208Z</time></trkpt><trkpt lat="45.7646258" lon="11.7299387"><ele>109.2</ele><time>2026-04-26T07:46:19.208Z</time></trkpt><trkpt lat="45.7646792" lon="11.7298195"><ele>109.4</ele><time>2026-04-26T07:46:20.209Z</time></trkpt><trkpt lat="45.76473" lon="11.7297048"><ele>109.6</ele><time>2026-04-26T07:46:21.197Z</time></trkpt><trkpt lat="45.7647796" lon="11.7295859"><ele>109.8</ele><time>2026-04-26T07:46:22.195Z</time></trkpt><trkpt lat="45.7648294" lon="11.7294681"><ele>110.0</ele><time>2026-04-26T07:46:23.197Z</time></trkpt><trkpt lat="45.7648775" lon="11.7293565"><ele>110.0</ele><time>2026-04-26T07:46:24.196Z</time></trkpt><trkpt lat="45.7649241" lon="11.7292505"><ele>110.0</ele><time>2026-04-26T07:46:25.197Z</time></trkpt><trkpt lat="45.7649704" lon="11.7291478"><ele>110.0</ele><time>2026-04-26T07:46:26.195Z</time></trkpt><trkpt lat="45.765017" lon="11.7290394"><ele>110.0</ele><time>2026-04-26T07:46:27.192Z</time></trkpt><trkpt lat="45.7651206" lon="11.728802"><ele>109.99999999999999</ele><time>2026-04-26T07:46:29.196Z</time></trkpt><trkpt lat="45.7651726" lon="11.7286915"><ele>110.0</ele><time>2026-04-26T07:46:30.195Z</time></trkpt><trkpt lat="45.7652199" lon="11.7285902"><ele>110.0</ele><time>2026-04-26T07:46:31.198Z</time></trkpt><trkpt lat="45.7652603" lon="11.7284961"><ele>110.0</ele><time>2026-04-26T07:46:32.196Z</time></trkpt><trkpt lat="45.7652956" lon="11.7284093"><ele>109.99999999999999</ele><time>2026-04-26T07:46:33.197Z</time></trkpt><trkpt lat="45.7653278" lon="11.7283296"><ele>110.0</ele><time>2026-04-26T07:46:34.196Z</time></trkpt><trkpt lat="45.7653882" lon="11.7281828"><ele>110.6</ele><time>2026-04-26T07:46:36.197Z</time></trkpt><trkpt lat="45.7654477" lon="11.7280497"><ele>111.2</ele><time>2026-04-26T07:46:38.197Z</time></trkpt><trkpt lat="45.7655092" lon="11.7279012"><ele>111.80000000000001</ele><time>2026-04-26T07:46:40.197Z</time></trkpt><trkpt lat="45.7655559" lon="11.7277505"><ele>112.4</ele><time>2026-04-26T07:46:42.196Z</time></trkpt><trkpt lat="45.7655965" lon="11.7276248"><ele>113.0</ele><time>2026-04-26T07:46:44.195Z</time></trkpt><trkpt lat="45.7656418" lon="11.7275115"><ele>113.0</ele><time>2026-04-26T07:46:46.196Z</time></trkpt><trkpt lat="45.7657118" lon="11.7274417"><ele>113.00000000000001</ele><time>2026-04-26T07:46:52.193Z</time></trkpt><trkpt lat="45.7658946" lon="11.7273712"><ele>113.00000000000001</ele><time>2026-04-26T07:46:56.198Z</time></trkpt><trkpt lat="45.765961" lon="11.7273769"><ele>113.0</ele><time>2026-04-26T07:46:57.195Z</time></trkpt><trkpt lat="45.7660288" lon="11.7273959"><ele>113.0</ele><time>2026-04-26T07:46:58.195Z</time></trkpt><trkpt lat="45.7660974" lon="11.7274201"><ele>112.83333333333333</ele><time>2026-04-26T07:46:59.196Z</time></trkpt><trkpt lat="45.7661752" lon="11.7274433"><ele>112.66666666666666</ele><time>2026-04-26T07:47:00.197Z</time></trkpt><trkpt lat="45.7662614" lon="11.7274656"><ele>112.5</ele><time>2026-04-26T07:47:01.196Z</time></trkpt><trkpt lat="45.7663467" lon="11.7274871"><ele>112.33333333333334</ele><time>2026-04-26T07:47:02.194Z</time></trkpt><trkpt lat="45.7664258" lon="11.7275075"><ele>112.16666666666667</ele><time>2026-04-26T07:47:03.195Z</time></trkpt><trkpt lat="45.7665005" lon="11.7275256"><ele>112.0</ele><time>2026-04-26T07:47:04.196Z</time></trkpt><trkpt lat="45.766575" lon="11.7275412"><ele>112.00000000000001</ele><time>2026-04-26T07:47:05.194Z</time></trkpt><trkpt lat="45.7666541" lon="11.7275567"><ele>112.0</ele><time>2026-04-26T07:47:06.194Z</time></trkpt><trkpt lat="45.7667361" lon="11.7275756"><ele>112.0</ele><time>2026-04-26T07:47:07.196Z</time></trkpt><trkpt lat="45.7668141" lon="11.7275935"><ele>112.0</ele><time>2026-04-26T07:47:08.195Z</time></trkpt><trkpt lat="45.7668822" lon="11.7276094"><ele>112.00000000000001</ele><time>2026-04-26T07:47:09.194Z</time></trkpt><trkpt lat="45.7669952" lon="11.7276363"><ele>112.0</ele><time>2026-04-26T07:47:11.196Z</time></trkpt><trkpt lat="45.7670973" lon="11.72766"><ele>112.0</ele><time>2026-04-26T07:47:13.194Z</time></trkpt><trkpt lat="45.7672704" lon="11.7276945"><ele>112.0</ele><time>2026-04-26T07:47:18.192Z</time></trkpt><trkpt lat="45.7673781" lon="11.7276994"><ele>112.0</ele><time>2026-04-26T07:47:53.195Z</time></trkpt><trkpt lat="45.7675111" lon="11.7277255"><ele>112.0</ele><time>2026-04-26T07:47:55.193Z</time></trkpt><trkpt lat="45.7675735" lon="11.7277416"><ele>112.39999999999999</ele><time>2026-04-26T07:47:56.195Z</time></trkpt><trkpt lat="45.7676799" lon="11.7277648"><ele>112.79999999999998</ele><time>2026-04-26T07:47:58.195Z</time></trkpt><trkpt lat="45.7677658" lon="11.7277785"><ele>113.2</ele><time>2026-04-26T07:48:00.194Z</time></trkpt><trkpt lat="45.7678634" lon="11.727799"><ele>113.6</ele><time>2026-04-26T07:48:03.193Z</time></trkpt><trkpt lat="45.7679376" lon="11.7278172"><ele>114.0</ele><time>2026-04-26T07:48:05.192Z</time></trkpt><trkpt lat="45.7680205" lon="11.7278319"><ele>114.0</ele><time>2026-04-26T07:48:07.195Z</time></trkpt><trkpt lat="45.7681089" lon="11.7278472"><ele>114.0</ele><time>2026-04-26T07:48:09.193Z</time></trkpt><trkpt lat="45.768219" lon="11.7278731"><ele>114.0</ele><time>2026-04-26T07:48:11.195Z</time></trkpt><trkpt lat="45.7682941" lon="11.7278915"><ele>114.0</ele><time>2026-04-26T07:48:12.196Z</time></trkpt><trkpt lat="45.7683817" lon="11.7279113"><ele>114.0</ele><time>2026-04-26T07:48:13.195Z</time></trkpt><trkpt lat="45.7684758" lon="11.7279302"><ele>113.25</ele><time>2026-04-26T07:48:14.198Z</time></trkpt><trkpt lat="45.7686819" lon="11.7279677"><ele>112.5</ele><time>2026-04-26T07:48:16.194Z</time></trkpt><trkpt lat="45.7687861" lon="11.7279901"><ele>111.75</ele><time>2026-04-26T07:48:17.194Z</time></trkpt><trkpt lat="45.7688806" lon="11.7280145"><ele>111.0</ele><time>2026-04-26T07:48:18.194Z</time></trkpt><trkpt lat="45.7689711" lon="11.7280395"><ele>111.0</ele><time>2026-04-26T07:48:19.196Z</time></trkpt><trkpt lat="45.7690628" lon="11.7280609"><ele>111.0</ele><time>2026-04-26T07:48:20.196Z</time></trkpt><trkpt lat="45.7691549" lon="11.7280812"><ele>111.0</ele><time>2026-04-26T07:48:21.195Z</time></trkpt><trkpt lat="45.7692488" lon="11.7281025"><ele>111.0</ele><time>2026-04-26T07:48:22.196Z</time></trkpt><trkpt lat="45.7693443" lon="11.7281261"><ele>111.0</ele><time>2026-04-26T07:48:23.196Z</time></trkpt><trkpt lat="45.7694349" lon="11.7281475"><ele>111.19999999999999</ele><time>2026-04-26T07:48:24.195Z</time></trkpt><trkpt lat="45.7695242" lon="11.7281662"><ele>111.39999999999999</ele><time>2026-04-26T07:48:25.195Z</time></trkpt><trkpt lat="45.769614" lon="11.7281838"><ele>111.6</ele><time>2026-04-26T07:48:26.196Z</time></trkpt><trkpt lat="45.7697096" lon="11.7282054"><ele>111.8</ele><time>2026-04-26T07:48:27.194Z</time></trkpt><trkpt lat="45.7698126" lon="11.7282281"><ele>112.0</ele><time>2026-04-26T07:48:28.194Z</time></trkpt><trkpt lat="45.7699238" lon="11.7282538"><ele>112.0</ele><time>2026-04-26T07:48:29.193Z</time></trkpt><trkpt lat="45.7700441" lon="11.7282815"><ele>112.0</ele><time>2026-04-26T07:48:30.194Z</time></trkpt><trkpt lat="45.7701655" lon="11.728309"><ele>112.0</ele><time>2026-04-26T07:48:31.193Z</time></trkpt><trkpt lat="45.7702821" lon="11.728334"><ele>112.0</ele><time>2026-04-26T07:48:32.193Z</time></trkpt><trkpt lat="45.7703963" lon="11.7283622"><ele>112.0</ele><time>2026-04-26T07:48:33.194Z</time></trkpt><trkpt lat="45.7705107" lon="11.7283875"><ele>112.0</ele><time>2026-04-26T07:48:34.193Z</time></trkpt><trkpt lat="45.7706228" lon="11.7284123"><ele>112.0</ele><time>2026-04-26T07:48:35.195Z</time></trkpt><trkpt lat="45.7708401" lon="11.7284609"><ele>112.0</ele><time>2026-04-26T07:48:37.196Z</time></trkpt><trkpt lat="45.7709469" lon="11.7284863"><ele>112.0</ele><time>2026-04-26T07:48:38.196Z</time></trkpt><trkpt lat="45.771053" lon="11.7285116"><ele>111.99999999999999</ele><time>2026-04-26T07:48:39.196Z</time></trkpt><trkpt lat="45.7711605" lon="11.7285344"><ele>111.99999999999999</ele><time>2026-04-26T07:48:40.195Z</time></trkpt><trkpt lat="45.7712687" lon="11.7285616"><ele>112.0</ele><time>2026-04-26T07:48:41.195Z</time></trkpt><trkpt lat="45.7713728" lon="11.7285901"><ele>112.0</ele><time>2026-04-26T07:48:42.197Z</time></trkpt><trkpt lat="45.7714705" lon="11.7286141"><ele>112.0</ele><time>2026-04-26T07:48:43.195Z</time></trkpt><trkpt lat="45.7715611" lon="11.728636"><ele>111.99999999999999</ele><time>2026-04-26T07:48:44.195Z</time></trkpt><trkpt lat="45.7716534" lon="11.7286567"><ele>111.99999999999999</ele><time>2026-04-26T07:48:45.194Z</time></trkpt><trkpt lat="45.7717528" lon="11.7286773"><ele>112.0</ele><time>2026-04-26T07:48:46.196Z</time></trkpt><trkpt lat="45.7718617" lon="11.7286969"><ele>112.0</ele><time>2026-04-26T07:48:47.194Z</time></trkpt><trkpt lat="45.7719781" lon="11.7287144"><ele>112.25</ele><time>2026-04-26T07:48:48.195Z</time></trkpt><trkpt lat="45.7720934" lon="11.7287308"><ele>112.5</ele><time>2026-04-26T07:48:49.196Z</time></trkpt><trkpt lat="45.7722037" lon="11.7287417"><ele>112.75</ele><time>2026-04-26T07:48:50.197Z</time></trkpt><trkpt lat="45.7723159" lon="11.7287464"><ele>113.0</ele><time>2026-04-26T07:48:51.196Z</time></trkpt><trkpt lat="45.7724369" lon="11.7287487"><ele>113.0</ele><time>2026-04-26T07:48:52.196Z</time></trkpt><trkpt lat="45.7725656" lon="11.7287505"><ele>113.0</ele><time>2026-04-26T07:48:53.195Z</time></trkpt><trkpt lat="45.7726919" lon="11.7287529"><ele>113.0</ele><time>2026-04-26T07:48:54.195Z</time></trkpt><trkpt lat="45.7728108" lon="11.7287582"><ele>113.0</ele><time>2026-04-26T07:48:55.194Z</time></trkpt><trkpt lat="45.772922" lon="11.7287605"><ele>113.75</ele><time>2026-04-26T07:48:56.194Z</time></trkpt><trkpt lat="45.7731377" lon="11.7287691"><ele>114.5</ele><time>2026-04-26T07:48:58.194Z</time></trkpt><trkpt lat="45.7732402" lon="11.7287742"><ele>115.25</ele><time>2026-04-26T07:48:59.197Z</time></trkpt><trkpt lat="45.7733449" lon="11.728776"><ele>116.0</ele><time>2026-04-26T07:49:00.196Z</time></trkpt><trkpt lat="45.773457" lon="11.7287777"><ele>115.8</ele><time>2026-04-26T07:49:01.196Z</time></trkpt><trkpt lat="45.7735695" lon="11.7287817"><ele>115.6</ele><time>2026-04-26T07:49:02.197Z</time></trkpt><trkpt lat="45.773674" lon="11.7287864"><ele>115.4</ele><time>2026-04-26T07:49:03.196Z</time></trkpt><trkpt lat="45.7737718" lon="11.7287896"><ele>115.2</ele><time>2026-04-26T07:49:04.196Z</time></trkpt><trkpt lat="45.7738626" lon="11.7287937"><ele>115.0</ele><time>2026-04-26T07:49:05.195Z</time></trkpt><trkpt lat="45.7739485" lon="11.7287919"><ele>115.0</ele><time>2026-04-26T07:49:06.194Z</time></trkpt><trkpt lat="45.7740352" lon="11.7287827"><ele>115.0</ele><time>2026-04-26T07:49:07.196Z</time></trkpt><trkpt lat="45.7741279" lon="11.7287585"><ele>115.0</ele><time>2026-04-26T07:49:08.195Z</time></trkpt><trkpt lat="45.7742224" lon="11.7287113"><ele>115.0</ele><time>2026-04-26T07:49:09.196Z</time></trkpt><trkpt lat="45.7743174" lon="11.7286318"><ele>115.0</ele><time>2026-04-26T07:49:10.196Z</time></trkpt><trkpt lat="45.7744148" lon="11.7285227"><ele>115.75</ele><time>2026-04-26T07:49:11.197Z</time></trkpt><trkpt lat="45.7745089" lon="11.7284062"><ele>116.5</ele><time>2026-04-26T07:49:12.195Z</time></trkpt><trkpt lat="45.7746035" lon="11.7282869"><ele>117.25</ele><time>2026-04-26T07:49:13.198Z</time></trkpt><trkpt lat="45.7747038" lon="11.7281551"><ele>118.0</ele><time>2026-04-26T07:49:14.195Z</time></trkpt><trkpt lat="45.7748171" lon="11.7280124"><ele>118.0</ele><time>2026-04-26T07:49:15.195Z</time></trkpt><trkpt lat="45.7749422" lon="11.727859"><ele>118.0</ele><time>2026-04-26T07:49:16.195Z</time></trkpt><trkpt lat="45.7750673" lon="11.727705"><ele>118.0</ele><time>2026-04-26T07:49:17.196Z</time></trkpt><trkpt lat="45.7752881" lon="11.7274333"><ele>118.25</ele><time>2026-04-26T07:49:19.194Z</time></trkpt><trkpt lat="45.7753894" lon="11.7273088"><ele>118.5</ele><time>2026-04-26T07:49:20.194Z</time></trkpt><trkpt lat="45.7754921" lon="11.7271838"><ele>118.75</ele><time>2026-04-26T07:49:21.194Z</time></trkpt><trkpt lat="45.7755957" lon="11.7270553"><ele>119.0</ele><time>2026-04-26T07:49:22.196Z</time></trkpt><trkpt lat="45.7757015" lon="11.7269228"><ele>118.66666666666666</ele><time>2026-04-26T07:49:23.198Z</time></trkpt><trkpt lat="45.7758109" lon="11.7267823"><ele>118.33333333333334</ele><time>2026-04-26T07:49:24.2Z</time></trkpt><trkpt lat="45.77593" lon="11.7266183"><ele>118.0</ele><time>2026-04-26T07:49:25.197Z</time></trkpt><trkpt lat="45.7760639" lon="11.7264495"><ele>118.66666666666667</ele><time>2026-04-26T07:49:26.197Z</time></trkpt><trkpt lat="45.7762005" lon="11.7262929"><ele>119.33333333333334</ele><time>2026-04-26T07:49:27.197Z</time></trkpt><trkpt lat="45.7763266" lon="11.7261435"><ele>120.0</ele><time>2026-04-26T07:49:28.197Z</time></trkpt><trkpt lat="45.7764436" lon="11.7260009"><ele>120.0</ele><time>2026-04-26T07:49:29.197Z</time></trkpt><trkpt lat="45.7765528" lon="11.725866"><ele>120.0</ele><time>2026-04-26T07:49:30.198Z</time></trkpt><trkpt lat="45.7766575" lon="11.7257373"><ele>120.0</ele><time>2026-04-26T07:49:31.199Z</time></trkpt><trkpt lat="45.7767634" lon="11.7256057"><ele>120.0</ele><time>2026-04-26T07:49:32.199Z</time></trkpt><trkpt lat="45.776877" lon="11.7254626"><ele>120.0</ele><time>2026-04-26T07:49:33.198Z</time></trkpt><trkpt lat="45.7770014" lon="11.7253031"><ele>120.0</ele><time>2026-04-26T07:49:34.2Z</time></trkpt><trkpt lat="45.7771371" lon="11.7251265"><ele>120.0</ele><time>2026-04-26T07:49:35.197Z</time></trkpt><trkpt lat="45.7772824" lon="11.724945"><ele>120.0</ele><time>2026-04-26T07:49:36.197Z</time></trkpt><trkpt lat="45.7774239" lon="11.7247717"><ele>120.0</ele><time>2026-04-26T07:49:37.199Z</time></trkpt><trkpt lat="45.7775053" lon="11.7246716"><ele>120.0</ele><time>2026-04-26T07:49:37.801Z</time></trkpt><trkpt lat="45.7778033" lon="11.724303"><ele>120.0</ele><time>2026-04-26T07:49:40.198Z</time></trkpt><trkpt lat="45.7779191" lon="11.7241607"><ele>120.0</ele><time>2026-04-26T07:49:41.2Z</time></trkpt><trkpt lat="45.778034" lon="11.7240193"><ele>120.0</ele><time>2026-04-26T07:49:42.196Z</time></trkpt><trkpt lat="45.77815" lon="11.7238744"><ele>120.0</ele><time>2026-04-26T07:49:43.194Z</time></trkpt><trkpt lat="45.7782663" lon="11.7237281"><ele>120.0</ele><time>2026-04-26T07:49:44.196Z</time></trkpt><trkpt lat="45.7783819" lon="11.723583"><ele>120.0</ele><time>2026-04-26T07:49:45.194Z</time></trkpt><trkpt lat="45.7784995" lon="11.7234378"><ele>120.66666666666666</ele><time>2026-04-26T07:49:46.195Z</time></trkpt><trkpt lat="45.7786206" lon="11.7232878"><ele>121.33333333333333</ele><time>2026-04-26T07:49:47.198Z</time></trkpt><trkpt lat="45.7787426" lon="11.723135"><ele>122.0</ele><time>2026-04-26T07:49:48.198Z</time></trkpt><trkpt lat="45.7788606" lon="11.7229857"><ele>122.0</ele><time>2026-04-26T07:49:49.197Z</time></trkpt><trkpt lat="45.7789732" lon="11.7228413"><ele>122.0</ele><time>2026-04-26T07:49:50.197Z</time></trkpt><trkpt lat="45.7790826" lon="11.7227029"><ele>122.0</ele><time>2026-04-26T07:49:51.198Z</time></trkpt><trkpt lat="45.7791938" lon="11.7225638"><ele>122.0</ele><time>2026-04-26T07:49:52.198Z</time></trkpt><trkpt lat="45.7793075" lon="11.7224255"><ele>123.0</ele><time>2026-04-26T07:49:53.198Z</time></trkpt><trkpt lat="45.7794193" lon="11.7222901"><ele>124.0</ele><time>2026-04-26T07:49:54.198Z</time></trkpt><trkpt lat="45.7795236" lon="11.7221611"><ele>125.0</ele><time>2026-04-26T07:49:55.197Z</time></trkpt><trkpt lat="45.7796208" lon="11.7220357"><ele>126.0</ele><time>2026-04-26T07:49:56.198Z</time></trkpt><trkpt lat="45.7797232" lon="11.7219098"><ele>125.66666666666666</ele><time>2026-04-26T07:49:57.197Z</time></trkpt><trkpt lat="45.7798366" lon="11.7217877"><ele>125.33333333333333</ele><time>2026-04-26T07:49:58.198Z</time></trkpt><trkpt lat="45.7800989" lon="11.7215705"><ele>125.0</ele><time>2026-04-26T07:50:00.198Z</time></trkpt><trkpt lat="45.7802414" lon="11.7214847"><ele>125.75</ele><time>2026-04-26T07:50:01.197Z</time></trkpt><trkpt lat="45.7803804" lon="11.7214194"><ele>126.5</ele><time>2026-04-26T07:50:02.197Z</time></trkpt><trkpt lat="45.7805182" lon="11.7213646"><ele>127.25</ele><time>2026-04-26T07:50:03.196Z</time></trkpt><trkpt lat="45.7806629" lon="11.7213109"><ele>128.0</ele><time>2026-04-26T07:50:04.195Z</time></trkpt><trkpt lat="45.7808114" lon="11.7212556"><ele>128.0</ele><time>2026-04-26T07:50:05.195Z</time></trkpt><trkpt lat="45.7809559" lon="11.7212021"><ele>128.0</ele><time>2026-04-26T07:50:06.195Z</time></trkpt><trkpt lat="45.7810957" lon="11.7211506"><ele>128.0</ele><time>2026-04-26T07:50:07.194Z</time></trkpt><trkpt lat="45.7812411" lon="11.7211063"><ele>128.0</ele><time>2026-04-26T07:50:08.195Z</time></trkpt><trkpt lat="45.781392" lon="11.7210749"><ele>127.66666666666666</ele><time>2026-04-26T07:50:09.193Z</time></trkpt><trkpt lat="45.7815447" lon="11.7210608"><ele>127.33333333333334</ele><time>2026-04-26T07:50:10.193Z</time></trkpt><trkpt lat="45.7817026" lon="11.7210599"><ele>127.0</ele><time>2026-04-26T07:50:11.197Z</time></trkpt><trkpt lat="45.7818614" lon="11.7210671"><ele>127.0</ele><time>2026-04-26T07:50:12.197Z</time></trkpt><trkpt lat="45.782015" lon="11.7210771"><ele>127.0</ele><time>2026-04-26T07:50:13.194Z</time></trkpt><trkpt lat="45.7821661" lon="11.7210914"><ele>127.0</ele><time>2026-04-26T07:50:14.197Z</time></trkpt><trkpt lat="45.7823225" lon="11.7211115"><ele>127.0</ele><time>2026-04-26T07:50:15.196Z</time></trkpt><trkpt lat="45.782484" lon="11.7211365"><ele>127.0</ele><time>2026-04-26T07:50:16.195Z</time></trkpt><trkpt lat="45.7826513" lon="11.7211582"><ele>127.0</ele><time>2026-04-26T07:50:17.196Z</time></trkpt><trkpt lat="45.7827845" lon="11.7211711"><ele>126.0</ele><time>2026-04-26T07:50:17.994Z</time></trkpt><trkpt lat="45.7829773" lon="11.7211929"><ele>125.0</ele><time>2026-04-26T07:50:19.198Z</time></trkpt><trkpt lat="45.7832822" lon="11.721233"><ele>125.0</ele><time>2026-04-26T07:50:21.195Z</time></trkpt><trkpt lat="45.7834405" lon="11.7212562"><ele>125.0</ele><time>2026-04-26T07:50:22.196Z</time></trkpt><trkpt lat="45.7836015" lon="11.7212816"><ele>125.0</ele><time>2026-04-26T07:50:23.197Z</time></trkpt><trkpt lat="45.7837648" lon="11.7213084"><ele>124.66666666666666</ele><time>2026-04-26T07:50:24.195Z</time></trkpt><trkpt lat="45.7839248" lon="11.7213359"><ele>124.33333333333334</ele><time>2026-04-26T07:50:25.195Z</time></trkpt><trkpt lat="45.7840791" lon="11.7213641"><ele>124.0</ele><time>2026-04-26T07:50:26.194Z</time></trkpt><trkpt lat="45.7842281" lon="11.7213914"><ele>123.75</ele><time>2026-04-26T07:50:27.195Z</time></trkpt><trkpt lat="45.7843726" lon="11.7214153"><ele>123.5</ele><time>2026-04-26T07:50:28.195Z</time></trkpt><trkpt lat="45.7845132" lon="11.7214363"><ele>123.25</ele><time>2026-04-26T07:50:29.197Z</time></trkpt><trkpt lat="45.7846488" lon="11.7214523"><ele>123.0</ele><time>2026-04-26T07:50:30.195Z</time></trkpt><trkpt lat="45.7847845" lon="11.7214594"><ele>123.0</ele><time>2026-04-26T07:50:31.196Z</time></trkpt><trkpt lat="45.7849211" lon="11.7214517"><ele>123.0</ele><time>2026-04-26T07:50:32.195Z</time></trkpt><trkpt lat="45.7850637" lon="11.7214166"><ele>123.0</ele><time>2026-04-26T07:50:33.195Z</time></trkpt><trkpt lat="45.7852096" lon="11.7213546"><ele>123.0</ele><time>2026-04-26T07:50:34.194Z</time></trkpt><trkpt lat="45.7853522" lon="11.7212712"><ele>122.33333333333334</ele><time>2026-04-26T07:50:35.196Z</time></trkpt><trkpt lat="45.7854943" lon="11.7211835"><ele>121.66666666666667</ele><time>2026-04-26T07:50:36.198Z</time></trkpt><trkpt lat="45.7856422" lon="11.7211053"><ele>121.0</ele><time>2026-04-26T07:50:37.196Z</time></trkpt><trkpt lat="45.7857995" lon="11.7210425"><ele>122.33333333333334</ele><time>2026-04-26T07:50:38.197Z</time></trkpt><trkpt lat="45.785965" lon="11.7209906"><ele>123.66666666666666</ele><time>2026-04-26T07:50:39.197Z</time></trkpt><trkpt lat="45.786135" lon="11.7209477"><ele>125.0</ele><time>2026-04-26T07:50:40.196Z</time></trkpt><trkpt lat="45.78646" lon="11.7208826"><ele>125.0</ele><time>2026-04-26T07:50:42.196Z</time></trkpt><trkpt lat="45.7866096" lon="11.720841"><ele>125.0</ele><time>2026-04-26T07:50:43.195Z</time></trkpt><trkpt lat="45.786755" lon="11.7207791"><ele>125.0</ele><time>2026-04-26T07:50:44.196Z</time></trkpt><trkpt lat="45.7868929" lon="11.7206829"><ele>124.0</ele><time>2026-04-26T07:50:45.196Z</time></trkpt><trkpt lat="45.7870147" lon="11.7205522"><ele>123.0</ele><time>2026-04-26T07:50:46.197Z</time></trkpt><trkpt lat="45.7871115" lon="11.7203991"><ele>122.0</ele><time>2026-04-26T07:50:47.197Z</time></trkpt><trkpt lat="45.7871848" lon="11.7202283"><ele>121.0</ele><time>2026-04-26T07:50:48.201Z</time></trkpt><trkpt lat="45.7872467" lon="11.7200429"><ele>121.0</ele><time>2026-04-26T07:50:49.198Z</time></trkpt><trkpt lat="45.7873126" lon="11.7198486"><ele>121.0</ele><time>2026-04-26T07:50:50.195Z</time></trkpt><trkpt lat="45.787385" lon="11.7196524"><ele>121.0</ele><time>2026-04-26T07:50:51.195Z</time></trkpt><trkpt lat="45.7874592" lon="11.7194601"><ele>120.75</ele><time>2026-04-26T07:50:52.196Z</time></trkpt><trkpt lat="45.7875313" lon="11.7192751"><ele>120.5</ele><time>2026-04-26T07:50:53.195Z</time></trkpt><trkpt lat="45.7875959" lon="11.7191015"><ele>120.25</ele><time>2026-04-26T07:50:54.198Z</time></trkpt><trkpt lat="45.7876639" lon="11.7189464"><ele>120.0</ele><time>2026-04-26T07:50:55.197Z</time></trkpt><trkpt lat="45.7877459" lon="11.7188074"><ele>120.0</ele><time>2026-04-26T07:50:56.194Z</time></trkpt><trkpt lat="45.7878379" lon="11.71868"><ele>120.0</ele><time>2026-04-26T07:50:57.193Z</time></trkpt><trkpt lat="45.7879181" lon="11.7185856"><ele>120.0</ele><time>2026-04-26T07:50:58.193Z</time></trkpt><trkpt lat="45.7879877" lon="11.7185185"><ele>120.0</ele><time>2026-04-26T07:50:59.192Z</time></trkpt><trkpt lat="45.7880473" lon="11.718471"><ele>120.0</ele><time>2026-04-26T07:51:00.195Z</time></trkpt><trkpt lat="45.7881331" lon="11.7184122"><ele>120.0</ele><time>2026-04-26T07:51:02.196Z</time></trkpt><trkpt lat="45.7884215" lon="11.7181776"><ele>120.0</ele><time>2026-04-26T07:52:12.192Z</time></trkpt><trkpt lat="45.7885216" lon="11.718117"><ele>120.0</ele><time>2026-04-26T07:52:13.194Z</time></trkpt><trkpt lat="45.7886183" lon="11.7180697"><ele>120.0</ele><time>2026-04-26T07:52:14.196Z</time></trkpt><trkpt lat="45.7887158" lon="11.7180241"><ele>120.0</ele><time>2026-04-26T07:52:15.195Z</time></trkpt><trkpt lat="45.7888214" lon="11.7179756"><ele>120.0</ele><time>2026-04-26T07:52:16.196Z</time></trkpt><trkpt lat="45.7889209" lon="11.7179289"><ele>120.0</ele><time>2026-04-26T07:52:17.196Z</time></trkpt><trkpt lat="45.7890165" lon="11.7178762"><ele>120.0</ele><time>2026-04-26T07:52:18.195Z</time></trkpt><trkpt lat="45.7891163" lon="11.7178166"><ele>120.0</ele><time>2026-04-26T07:52:19.195Z</time></trkpt><trkpt lat="45.7892138" lon="11.7177513"><ele>120.0</ele><time>2026-04-26T07:52:20.196Z</time></trkpt><trkpt lat="45.7893042" lon="11.7176882"><ele>120.0</ele><time>2026-04-26T07:52:21.195Z</time></trkpt><trkpt lat="45.7893941" lon="11.7176211"><ele>120.0</ele><time>2026-04-26T07:52:22.194Z</time></trkpt><trkpt lat="45.789493" lon="11.7175535"><ele>120.0</ele><time>2026-04-26T07:52:23.195Z</time></trkpt><trkpt lat="45.7895922" lon="11.7174515"><ele>119.33333333333334</ele><time>2026-04-26T07:52:24.197Z</time></trkpt><trkpt lat="45.7897" lon="11.7173259"><ele>118.66666666666667</ele><time>2026-04-26T07:52:25.195Z</time></trkpt><trkpt lat="45.7898157" lon="11.7171719"><ele>118.0</ele><time>2026-04-26T07:52:26.197Z</time></trkpt><trkpt lat="45.7899316" lon="11.7169972"><ele>117.5</ele><time>2026-04-26T07:52:27.195Z</time></trkpt><trkpt lat="45.7900416" lon="11.7168323"><ele>117.0</ele><time>2026-04-26T07:52:28.197Z</time></trkpt><trkpt lat="45.7901429" lon="11.7166825"><ele>116.5</ele><time>2026-04-26T07:52:29.195Z</time></trkpt><trkpt lat="45.7902373" lon="11.7165464"><ele>116.0</ele><time>2026-04-26T07:52:30.195Z</time></trkpt><trkpt lat="45.7904303" lon="11.7162776"><ele>116.0</ele><time>2026-04-26T07:52:32.2Z</time></trkpt><trkpt lat="45.7905406" lon="11.7161453"><ele>116.0</ele><time>2026-04-26T07:52:33.196Z</time></trkpt><trkpt lat="45.7906669" lon="11.7160142"><ele>116.0</ele><time>2026-04-26T07:52:34.193Z</time></trkpt><trkpt lat="45.7908074" lon="11.7158908"><ele>116.0</ele><time>2026-04-26T07:52:35.194Z</time></trkpt><trkpt lat="45.7909561" lon="11.7157736"><ele>116.0</ele><time>2026-04-26T07:52:36.192Z</time></trkpt><trkpt lat="45.7911055" lon="11.7156576"><ele>116.0</ele><time>2026-04-26T07:52:37.192Z</time></trkpt><trkpt lat="45.7912574" lon="11.715539"><ele>116.0</ele><time>2026-04-26T07:52:38.193Z</time></trkpt><trkpt lat="45.7914059" lon="11.7154268"><ele>116.0</ele><time>2026-04-26T07:52:39.194Z</time></trkpt><trkpt lat="45.7915498" lon="11.7153242"><ele>116.0</ele><time>2026-04-26T07:52:40.194Z</time></trkpt><trkpt lat="45.7916968" lon="11.7152256"><ele>117.33333333333333</ele><time>2026-04-26T07:52:41.195Z</time></trkpt><trkpt lat="45.7918509" lon="11.715133"><ele>118.66666666666666</ele><time>2026-04-26T07:52:42.195Z</time></trkpt><trkpt lat="45.7920147" lon="11.7150498"><ele>120.0</ele><time>2026-04-26T07:52:43.196Z</time></trkpt><trkpt lat="45.792192" lon="11.7149745"><ele>120.0</ele><time>2026-04-26T07:52:44.197Z</time></trkpt><trkpt lat="45.7923845" lon="11.7149079"><ele>120.0</ele><time>2026-04-26T07:52:45.196Z</time></trkpt><trkpt lat="45.792587" lon="11.7148489"><ele>120.0</ele><time>2026-04-26T07:52:46.195Z</time></trkpt><trkpt lat="45.7927792" lon="11.7147953"><ele>119.33333333333334</ele><time>2026-04-26T07:52:47.195Z</time></trkpt><trkpt lat="45.7929623" lon="11.7147418"><ele>118.66666666666667</ele><time>2026-04-26T07:52:48.195Z</time></trkpt><trkpt lat="45.7931392" lon="11.7146876"><ele>118.0</ele><time>2026-04-26T07:52:49.195Z</time></trkpt><trkpt lat="45.7933152" lon="11.7146337"><ele>118.0</ele><time>2026-04-26T07:52:50.196Z</time></trkpt><trkpt lat="45.7934894" lon="11.7145817"><ele>118.0</ele><time>2026-04-26T07:52:51.196Z</time></trkpt><trkpt lat="45.7938317" lon="11.7144773"><ele>117.66666666666667</ele><time>2026-04-26T07:52:53.198Z</time></trkpt><trkpt lat="45.7940028" lon="11.7144257"><ele>117.33333333333334</ele><time>2026-04-26T07:52:54.195Z</time></trkpt><trkpt lat="45.7941786" lon="11.7143737"><ele>117.0</ele><time>2026-04-26T07:52:55.194Z</time></trkpt><trkpt lat="45.794354" lon="11.7143222"><ele>120.33333333333334</ele><time>2026-04-26T07:52:56.195Z</time></trkpt><trkpt lat="45.7945237" lon="11.7142719"><ele>123.66666666666667</ele><time>2026-04-26T07:52:57.196Z</time></trkpt><trkpt lat="45.7946886" lon="11.7142229"><ele>127.0</ele><time>2026-04-26T07:52:58.193Z</time></trkpt><trkpt lat="45.7948493" lon="11.7141732"><ele>127.0</ele><time>2026-04-26T07:52:59.193Z</time></trkpt><trkpt lat="45.7950102" lon="11.714124"><ele>127.0</ele><time>2026-04-26T07:53:00.193Z</time></trkpt><trkpt lat="45.7951736" lon="11.7140748"><ele>127.0</ele><time>2026-04-26T07:53:01.193Z</time></trkpt><trkpt lat="45.795338" lon="11.7140259"><ele>124.0</ele><time>2026-04-26T07:53:02.192Z</time></trkpt><trkpt lat="45.795501" lon="11.7139767"><ele>121.0</ele><time>2026-04-26T07:53:03.193Z</time></trkpt><trkpt lat="45.7956593" lon="11.7139327"><ele>118.0</ele><time>2026-04-26T07:53:04.193Z</time></trkpt><trkpt lat="45.7958196" lon="11.7138842"><ele>118.0</ele><time>2026-04-26T07:53:05.194Z</time></trkpt><trkpt lat="45.7959827" lon="11.7138397"><ele>118.0</ele><time>2026-04-26T07:53:06.194Z</time></trkpt><trkpt lat="45.7961434" lon="11.713789"><ele>118.0</ele><time>2026-04-26T07:53:07.196Z</time></trkpt><trkpt lat="45.796296" lon="11.7137293"><ele>116.33333333333334</ele><time>2026-04-26T07:53:08.196Z</time></trkpt><trkpt lat="45.7964425" lon="11.7136476"><ele>114.66666666666666</ele><time>2026-04-26T07:53:09.194Z</time></trkpt><trkpt lat="45.796584" lon="11.713543"><ele>113.0</ele><time>2026-04-26T07:53:10.193Z</time></trkpt><trkpt lat="45.7967231" lon="11.713424"><ele>118.0</ele><time>2026-04-26T07:53:11.194Z</time></trkpt><trkpt lat="45.7968602" lon="11.7133028"><ele>123.0</ele><time>2026-04-26T07:53:12.191Z</time></trkpt><trkpt lat="45.7971276" lon="11.7130838"><ele>123.0</ele><time>2026-04-26T07:53:14.19Z</time></trkpt><trkpt lat="45.7972689" lon="11.7130018"><ele>123.0</ele><time>2026-04-26T07:53:15.19Z</time></trkpt><trkpt lat="45.7974078" lon="11.7128927"><ele>123.0</ele><time>2026-04-26T07:53:16.187Z</time></trkpt><trkpt lat="45.7975363" lon="11.7127789"><ele>122.25</ele><time>2026-04-26T07:53:17.189Z</time></trkpt><trkpt lat="45.7976607" lon="11.7126825"><ele>121.5</ele><time>2026-04-26T07:53:18.187Z</time></trkpt><trkpt lat="45.7977822" lon="11.7125754"><ele>120.75</ele><time>2026-04-26T07:53:19.188Z</time></trkpt><trkpt lat="45.7979258" lon="11.7124948"><ele>120.0</ele><time>2026-04-26T07:53:20.193Z</time></trkpt><trkpt lat="45.7980907" lon="11.7124015"><ele>120.0</ele><time>2026-04-26T07:53:21.192Z</time></trkpt><trkpt lat="45.7982513" lon="11.7122887"><ele>120.0</ele><time>2026-04-26T07:53:22.194Z</time></trkpt><trkpt lat="45.7984117" lon="11.7121829"><ele>120.0</ele><time>2026-04-26T07:53:23.193Z</time></trkpt><trkpt lat="45.7985695" lon="11.7120829"><ele>120.66666666666666</ele><time>2026-04-26T07:53:24.192Z</time></trkpt><trkpt lat="45.7987279" lon="11.7119899"><ele>121.33333333333333</ele><time>2026-04-26T07:53:25.191Z</time></trkpt><trkpt lat="45.7988882" lon="11.7119025"><ele>122.0</ele><time>2026-04-26T07:53:26.193Z</time></trkpt><trkpt lat="45.7990492" lon="11.71182"><ele>122.0</ele><time>2026-04-26T07:53:27.194Z</time></trkpt><trkpt lat="45.7992053" lon="11.7117407"><ele>122.0</ele><time>2026-04-26T07:53:28.194Z</time></trkpt><trkpt lat="45.7993551" lon="11.7116704"><ele>122.0</ele><time>2026-04-26T07:53:29.196Z</time></trkpt><trkpt lat="45.7995012" lon="11.7116139"><ele>123.33333333333333</ele><time>2026-04-26T07:53:30.195Z</time></trkpt><trkpt lat="45.7996474" lon="11.7115666"><ele>124.66666666666666</ele><time>2026-04-26T07:53:31.196Z</time></trkpt><trkpt lat="45.7997954" lon="11.7115217"><ele>126.0</ele><time>2026-04-26T07:53:32.198Z</time></trkpt><trkpt lat="45.799943" lon="11.7114776"><ele>126.66666666666666</ele><time>2026-04-26T07:53:33.195Z</time></trkpt><trkpt lat="45.8002197" lon="11.7113945"><ele>127.33333333333333</ele><time>2026-04-26T07:53:35.196Z</time></trkpt><trkpt lat="45.8003565" lon="11.7113539"><ele>128.0</ele><time>2026-04-26T07:53:36.197Z</time></trkpt><trkpt lat="45.8004982" lon="11.711317"><ele>128.0</ele><time>2026-04-26T07:53:37.195Z</time></trkpt><trkpt lat="45.8006435" lon="11.7112823"><ele>128.0</ele><time>2026-04-26T07:53:38.195Z</time></trkpt><trkpt lat="45.800788" lon="11.7112494"><ele>128.0</ele><time>2026-04-26T07:53:39.195Z</time></trkpt><trkpt lat="45.8009272" lon="11.7112161"><ele>128.0</ele><time>2026-04-26T07:53:40.195Z</time></trkpt><trkpt lat="45.8010675" lon="11.7111789"><ele>128.0</ele><time>2026-04-26T07:53:41.196Z</time></trkpt><trkpt lat="45.8012023" lon="11.7111422"><ele>128.0</ele><time>2026-04-26T07:53:42.197Z</time></trkpt><trkpt lat="45.801328" lon="11.7111093"><ele>128.0</ele><time>2026-04-26T07:53:43.195Z</time></trkpt><trkpt lat="45.8014451" lon="11.7110787"><ele>128.0</ele><time>2026-04-26T07:53:44.197Z</time></trkpt><trkpt lat="45.8015529" lon="11.7110523"><ele>128.4</ele><time>2026-04-26T07:53:45.198Z</time></trkpt><trkpt lat="45.8016535" lon="11.7110392"><ele>128.8</ele><time>2026-04-26T07:53:46.196Z</time></trkpt><trkpt lat="45.8017484" lon="11.7110409"><ele>129.2</ele><time>2026-04-26T07:53:47.195Z</time></trkpt><trkpt lat="45.8018404" lon="11.711056"><ele>129.6</ele><time>2026-04-26T07:53:48.193Z</time></trkpt><trkpt lat="45.8019362" lon="11.7110811"><ele>130.0</ele><time>2026-04-26T07:53:49.193Z</time></trkpt><trkpt lat="45.8020353" lon="11.7111249"><ele>130.0</ele><time>2026-04-26T07:53:50.193Z</time></trkpt><trkpt lat="45.8020977" lon="11.7111621"><ele>130.0</ele><time>2026-04-26T07:53:50.804Z</time></trkpt><trkpt lat="45.8022542" lon="11.7112721"><ele>130.0</ele><time>2026-04-26T07:53:52.194Z</time></trkpt><trkpt lat="45.8023786" lon="11.7113632"><ele>130.0</ele><time>2026-04-26T07:53:53.196Z</time></trkpt><trkpt lat="45.8025118" lon="11.7114541"><ele>130.33333333333334</ele><time>2026-04-26T07:53:54.195Z</time></trkpt><trkpt lat="45.802762" lon="11.7116235"><ele>130.66666666666666</ele><time>2026-04-26T07:53:56.195Z</time></trkpt><trkpt lat="45.8028766" lon="11.7117048"><ele>131.0</ele><time>2026-04-26T07:53:57.195Z</time></trkpt><trkpt lat="45.8029918" lon="11.7117802"><ele>131.0</ele><time>2026-04-26T07:53:58.196Z</time></trkpt><trkpt lat="45.8031101" lon="11.71185"><ele>131.0</ele><time>2026-04-26T07:53:59.196Z</time></trkpt><trkpt lat="45.8032326" lon="11.7119093"><ele>131.0</ele><time>2026-04-26T07:54:00.195Z</time></trkpt><trkpt lat="45.8033533" lon="11.7119584"><ele>131.0</ele><time>2026-04-26T07:54:01.195Z</time></trkpt><trkpt lat="45.8034699" lon="11.7119967"><ele>131.0</ele><time>2026-04-26T07:54:02.196Z</time></trkpt><trkpt lat="45.8035863" lon="11.7120235"><ele>131.0</ele><time>2026-04-26T07:54:03.192Z</time></trkpt><trkpt lat="45.8037071" lon="11.7120413"><ele>131.0</ele><time>2026-04-26T07:54:04.194Z</time></trkpt><trkpt lat="45.8038303" lon="11.7120463"><ele>131.0</ele><time>2026-04-26T07:54:05.193Z</time></trkpt><trkpt lat="45.803948" lon="11.7120362"><ele>131.0</ele><time>2026-04-26T07:54:06.193Z</time></trkpt><trkpt lat="45.8040615" lon="11.7120057"><ele>131.0</ele><time>2026-04-26T07:54:07.194Z</time></trkpt><trkpt lat="45.8041683" lon="11.7119481"><ele>131.0</ele><time>2026-04-26T07:54:08.197Z</time></trkpt><trkpt lat="45.8042755" lon="11.7118732"><ele>131.0</ele><time>2026-04-26T07:54:09.194Z</time></trkpt><trkpt lat="45.8043836" lon="11.7117939"><ele>131.0</ele><time>2026-04-26T07:54:10.197Z</time></trkpt><trkpt lat="45.8044906" lon="11.7117131"><ele>131.0</ele><time>2026-04-26T07:54:11.195Z</time></trkpt><trkpt lat="45.804601" lon="11.7116319"><ele>131.0</ele><time>2026-04-26T07:54:12.193Z</time></trkpt><trkpt lat="45.8047167" lon="11.7115477"><ele>131.0</ele><time>2026-04-26T07:54:13.192Z</time></trkpt><trkpt lat="45.8047909" lon="11.7114981"><ele>131.0</ele><time>2026-04-26T07:54:13.801Z</time></trkpt><trkpt lat="45.8049729" lon="11.7113848"><ele>131.0</ele><time>2026-04-26T07:54:15.191Z</time></trkpt><trkpt lat="45.8052232" lon="11.7112388"><ele>131.6</ele><time>2026-04-26T07:54:17.195Z</time></trkpt><trkpt lat="45.8053355" lon="11.7111754"><ele>132.2</ele><time>2026-04-26T07:54:18.194Z</time></trkpt><trkpt lat="45.8054429" lon="11.7111213"><ele>132.8</ele><time>2026-04-26T07:54:19.195Z</time></trkpt><trkpt lat="45.8055442" lon="11.7110795"><ele>133.4</ele><time>2026-04-26T07:54:20.197Z</time></trkpt><trkpt lat="45.8056516" lon="11.7110641"><ele>134.0</ele><time>2026-04-26T07:54:21.193Z</time></trkpt><trkpt lat="45.8057622" lon="11.7110769"><ele>134.0</ele><time>2026-04-26T07:54:22.194Z</time></trkpt><trkpt lat="45.8058637" lon="11.7111259"><ele>134.0</ele><time>2026-04-26T07:54:23.195Z</time></trkpt><trkpt lat="45.8059561" lon="11.711202"><ele>134.0</ele><time>2026-04-26T07:54:24.193Z</time></trkpt><trkpt lat="45.8060539" lon="11.7112854"><ele>134.0</ele><time>2026-04-26T07:54:25.193Z</time></trkpt><trkpt lat="45.8061578" lon="11.7113772"><ele>134.0</ele><time>2026-04-26T07:54:26.194Z</time></trkpt><trkpt lat="45.8062663" lon="11.7114813"><ele>134.5</ele><time>2026-04-26T07:54:27.195Z</time></trkpt><trkpt lat="45.8063837" lon="11.7115894"><ele>135.0</ele><time>2026-04-26T07:54:28.196Z</time></trkpt><trkpt lat="45.8065096" lon="11.711696"><ele>135.5</ele><time>2026-04-26T07:54:29.195Z</time></trkpt><trkpt lat="45.806648" lon="11.7117823"><ele>136.0</ele><time>2026-04-26T07:54:30.195Z</time></trkpt><trkpt lat="45.8068031" lon="11.7118482"><ele>135.0</ele><time>2026-04-26T07:54:31.195Z</time></trkpt><trkpt lat="45.8069568" lon="11.7119006"><ele>134.0</ele><time>2026-04-26T07:54:32.195Z</time></trkpt><trkpt lat="45.8071027" lon="11.7119439"><ele>133.0</ele><time>2026-04-26T07:54:33.194Z</time></trkpt><trkpt lat="45.8072473" lon="11.7119848"><ele>133.0</ele><time>2026-04-26T07:54:34.195Z</time></trkpt><trkpt lat="45.8073964" lon="11.7120283"><ele>133.0</ele><time>2026-04-26T07:54:35.193Z</time></trkpt><trkpt lat="45.8074902" lon="11.7120566"><ele>133.0</ele><time>2026-04-26T07:54:35.803Z</time></trkpt><trkpt lat="45.8078898" lon="11.7121793"><ele>133.0</ele><time>2026-04-26T07:54:38.196Z</time></trkpt><trkpt lat="45.8080783" lon="11.7122382"><ele>133.0</ele><time>2026-04-26T07:54:39.193Z</time></trkpt><trkpt lat="45.8082709" lon="11.7122975"><ele>133.0</ele><time>2026-04-26T07:54:40.194Z</time></trkpt><trkpt lat="45.8084587" lon="11.7123559"><ele>134.66666666666669</ele><time>2026-04-26T07:54:41.197Z</time></trkpt><trkpt lat="45.8086409" lon="11.7124123"><ele>136.33333333333334</ele><time>2026-04-26T07:54:42.194Z</time></trkpt><trkpt lat="45.8088238" lon="11.7124667"><ele>138.0</ele><time>2026-04-26T07:54:43.194Z</time></trkpt><trkpt lat="45.8090116" lon="11.7125244"><ele>138.0</ele><time>2026-04-26T07:54:44.195Z</time></trkpt><trkpt lat="45.8092027" lon="11.7125868"><ele>138.0</ele><time>2026-04-26T07:54:45.196Z</time></trkpt><trkpt lat="45.8093998" lon="11.7126518"><ele>138.0</ele><time>2026-04-26T07:54:46.198Z</time></trkpt><trkpt lat="45.8095943" lon="11.7127147"><ele>136.33333333333334</ele><time>2026-04-26T07:54:47.196Z</time></trkpt><trkpt lat="45.8097826" lon="11.712772"><ele>134.66666666666669</ele><time>2026-04-26T07:54:48.195Z</time></trkpt><trkpt lat="45.809965" lon="11.7128266"><ele>133.0</ele><time>2026-04-26T07:54:49.193Z</time></trkpt><trkpt lat="45.8101454" lon="11.7128822"><ele>133.0</ele><time>2026-04-26T07:54:50.195Z</time></trkpt><trkpt lat="45.8103244" lon="11.7129404"><ele>133.0</ele><time>2026-04-26T07:54:51.196Z</time></trkpt><trkpt lat="45.8104991" lon="11.7129985"><ele>133.0</ele><time>2026-04-26T07:54:52.194Z</time></trkpt><trkpt lat="45.8106662" lon="11.7130527"><ele>133.0</ele><time>2026-04-26T07:54:53.198Z</time></trkpt><trkpt lat="45.8107959" lon="11.7130938"><ele>133.0</ele><time>2026-04-26T07:54:53.993Z</time></trkpt><trkpt lat="45.8109955" lon="11.7131533"><ele>133.0</ele><time>2026-04-26T07:54:55.194Z</time></trkpt><trkpt lat="45.8111679" lon="11.7132048"><ele>133.5</ele><time>2026-04-26T07:54:56.195Z</time></trkpt><trkpt lat="45.8115362" lon="11.7133193"><ele>134.0</ele><time>2026-04-26T07:54:58.196Z</time></trkpt><trkpt lat="45.8117233" lon="11.7133778"><ele>136.0</ele><time>2026-04-26T07:54:59.195Z</time></trkpt><trkpt lat="45.8119065" lon="11.7134336"><ele>138.0</ele><time>2026-04-26T07:55:00.194Z</time></trkpt><trkpt lat="45.8120862" lon="11.7134895"><ele>140.0</ele><time>2026-04-26T07:55:01.192Z</time></trkpt><trkpt lat="45.8122634" lon="11.7135468"><ele>138.66666666666666</ele><time>2026-04-26T07:55:02.192Z</time></trkpt><trkpt lat="45.8124396" lon="11.7136017"><ele>137.33333333333334</ele><time>2026-04-26T07:55:03.191Z</time></trkpt><trkpt lat="45.8126156" lon="11.7136522"><ele>136.0</ele><time>2026-04-26T07:55:04.205Z</time></trkpt><trkpt lat="45.8127882" lon="11.7136994"><ele>136.0</ele><time>2026-04-26T07:55:05.206Z</time></trkpt><trkpt lat="45.8129608" lon="11.7137502"><ele>136.0</ele><time>2026-04-26T07:55:06.206Z</time></trkpt><trkpt lat="45.8131367" lon="11.7138001"><ele>136.0</ele><time>2026-04-26T07:55:07.195Z</time></trkpt><trkpt lat="45.8133209" lon="11.7138499"><ele>138.0</ele><time>2026-04-26T07:55:08.198Z</time></trkpt><trkpt lat="45.8135121" lon="11.7139036"><ele>140.0</ele><time>2026-04-26T07:55:09.196Z</time></trkpt><trkpt lat="45.8137052" lon="11.7139592"><ele>142.0</ele><time>2026-04-26T07:55:10.195Z</time></trkpt><trkpt lat="45.8138956" lon="11.714014"><ele>142.0</ele><time>2026-04-26T07:55:11.196Z</time></trkpt><trkpt lat="45.81408" lon="11.7140676"><ele>142.0</ele><time>2026-04-26T07:55:12.195Z</time></trkpt><trkpt lat="45.8142669" lon="11.7141188"><ele>142.0</ele><time>2026-04-26T07:55:13.196Z</time></trkpt><trkpt lat="45.8144527" lon="11.7141698"><ele>145.33333333333334</ele><time>2026-04-26T07:55:14.196Z</time></trkpt><trkpt lat="45.8146306" lon="11.7142224"><ele>148.66666666666666</ele><time>2026-04-26T07:55:15.194Z</time></trkpt><trkpt lat="45.8148037" lon="11.7142737"><ele>152.0</ele><time>2026-04-26T07:55:16.197Z</time></trkpt><trkpt lat="45.8149755" lon="11.7143244"><ele>139.5</ele><time>2026-04-26T07:55:17.197Z</time></trkpt><trkpt lat="45.8153115" lon="11.7144168"><ele>127.0</ele><time>2026-04-26T07:55:19.195Z</time></trkpt><trkpt lat="45.8154852" lon="11.7144455"><ele>127.0</ele><time>2026-04-26T07:55:20.196Z</time></trkpt><trkpt lat="45.8156726" lon="11.7144355"><ele>127.0</ele><time>2026-04-26T07:55:21.193Z</time></trkpt><trkpt lat="45.8158722" lon="11.7143992"><ele>127.0</ele><time>2026-04-26T07:55:22.194Z</time></trkpt><trkpt lat="45.8160717" lon="11.7143575"><ele>134.33333333333334</ele><time>2026-04-26T07:55:23.197Z</time></trkpt><trkpt lat="45.816262" lon="11.7143168"><ele>141.66666666666666</ele><time>2026-04-26T07:55:24.193Z</time></trkpt><trkpt lat="45.8164526" lon="11.71427"><ele>149.0</ele><time>2026-04-26T07:55:25.195Z</time></trkpt><trkpt lat="45.8166438" lon="11.7142032"><ele>143.0</ele><time>2026-04-26T07:55:26.194Z</time></trkpt><trkpt lat="45.8168327" lon="11.7141178"><ele>137.0</ele><time>2026-04-26T07:55:27.193Z</time></trkpt><trkpt lat="45.8170117" lon="11.714025"><ele>131.0</ele><time>2026-04-26T07:55:28.191Z</time></trkpt><trkpt lat="45.8171822" lon="11.7139243"><ele>131.0</ele><time>2026-04-26T07:55:29.193Z</time></trkpt><trkpt lat="45.8173496" lon="11.7138021"><ele>131.0</ele><time>2026-04-26T07:55:30.193Z</time></trkpt><trkpt lat="45.8175114" lon="11.7136515"><ele>131.0</ele><time>2026-04-26T07:55:31.194Z</time></trkpt><trkpt lat="45.8176666" lon="11.7134942"><ele>130.66666666666666</ele><time>2026-04-26T07:55:32.194Z</time></trkpt><trkpt lat="45.8178151" lon="11.7133428"><ele>130.33333333333334</ele><time>2026-04-26T07:55:33.194Z</time></trkpt><trkpt lat="45.8179612" lon="11.7131811"><ele>130.0</ele><time>2026-04-26T07:55:34.193Z</time></trkpt><trkpt lat="45.818111" lon="11.713023"><ele>130.0</ele><time>2026-04-26T07:55:35.195Z</time></trkpt><trkpt lat="45.8182572" lon="11.7128716"><ele>130.0</ele><time>2026-04-26T07:55:36.194Z</time></trkpt><trkpt lat="45.8183947" lon="11.7127274"><ele>130.0</ele><time>2026-04-26T07:55:37.193Z</time></trkpt><trkpt lat="45.8185213" lon="11.7125957"><ele>130.0</ele><time>2026-04-26T07:55:38.194Z</time></trkpt><trkpt lat="45.8187396" lon="11.7123558"><ele>130.0</ele><time>2026-04-26T07:55:40.192Z</time></trkpt><trkpt lat="45.8188465" lon="11.7122153"><ele>130.0</ele><time>2026-04-26T07:55:41.193Z</time></trkpt><trkpt lat="45.8189496" lon="11.7120511"><ele>135.66666666666669</ele><time>2026-04-26T07:55:42.193Z</time></trkpt><trkpt lat="45.819053" lon="11.7118811"><ele>141.33333333333334</ele><time>2026-04-26T07:55:43.193Z</time></trkpt><trkpt lat="45.8191596" lon="11.7117205"><ele>147.0</ele><time>2026-04-26T07:55:44.195Z</time></trkpt><trkpt lat="45.8192676" lon="11.7115765"><ele>139.33333333333334</ele><time>2026-04-26T07:55:45.192Z</time></trkpt><trkpt lat="45.8193875" lon="11.7114469"><ele>131.66666666666669</ele><time>2026-04-26T07:55:46.195Z</time></trkpt><trkpt lat="45.819513" lon="11.7113178"><ele>124.0</ele><time>2026-04-26T07:55:47.195Z</time></trkpt><trkpt lat="45.8196411" lon="11.7111844"><ele>129.0</ele><time>2026-04-26T07:55:48.193Z</time></trkpt><trkpt lat="45.8197676" lon="11.7110516"><ele>134.0</ele><time>2026-04-26T07:55:49.196Z</time></trkpt><trkpt lat="45.8198924" lon="11.7109249"><ele>139.0</ele><time>2026-04-26T07:55:50.192Z</time></trkpt><trkpt lat="45.8200216" lon="11.7107979"><ele>139.0</ele><time>2026-04-26T07:55:51.192Z</time></trkpt><trkpt lat="45.8201499" lon="11.7106624"><ele>139.0</ele><time>2026-04-26T07:55:52.191Z</time></trkpt><trkpt lat="45.8202733" lon="11.7105283"><ele>139.0</ele><time>2026-04-26T07:55:53.191Z</time></trkpt><trkpt lat="45.8203946" lon="11.7103965"><ele>136.33333333333334</ele><time>2026-04-26T07:55:54.194Z</time></trkpt><trkpt lat="45.820518" lon="11.7102626"><ele>133.66666666666666</ele><time>2026-04-26T07:55:55.193Z</time></trkpt><trkpt lat="45.8206418" lon="11.710125"><ele>131.0</ele><time>2026-04-26T07:55:56.194Z</time></trkpt><trkpt lat="45.820762" lon="11.7099722"><ele>131.0</ele><time>2026-04-26T07:55:57.194Z</time></trkpt><trkpt lat="45.8208761" lon="11.7098046"><ele>131.0</ele><time>2026-04-26T07:55:58.195Z</time></trkpt><trkpt lat="45.820982" lon="11.7096373"><ele>131.0</ele><time>2026-04-26T07:55:59.194Z</time></trkpt><trkpt lat="45.8211955" lon="11.7092998"><ele>129.0</ele><time>2026-04-26T07:56:01.195Z</time></trkpt><trkpt lat="45.8213053" lon="11.709131"><ele>127.0</ele><time>2026-04-26T07:56:02.195Z</time></trkpt><trkpt lat="45.8214153" lon="11.7089693"><ele>125.0</ele><time>2026-04-26T07:56:03.195Z</time></trkpt><trkpt lat="45.8215297" lon="11.7088181"><ele>125.0</ele><time>2026-04-26T07:56:04.195Z</time></trkpt><trkpt lat="45.8216426" lon="11.7086838"><ele>125.0</ele><time>2026-04-26T07:56:05.196Z</time></trkpt><trkpt lat="45.8217543" lon="11.7085614"><ele>125.0</ele><time>2026-04-26T07:56:06.197Z</time></trkpt><trkpt lat="45.8218683" lon="11.7084387"><ele>125.0</ele><time>2026-04-26T07:56:07.195Z</time></trkpt><trkpt lat="45.8219855" lon="11.7083113"><ele>125.66666666666666</ele><time>2026-04-26T07:56:08.197Z</time></trkpt><trkpt lat="45.8221069" lon="11.7081831"><ele>126.33333333333334</ele><time>2026-04-26T07:56:09.197Z</time></trkpt><trkpt lat="45.8222298" lon="11.7080532"><ele>127.0</ele><time>2026-04-26T07:56:10.196Z</time></trkpt><trkpt lat="45.8223535" lon="11.7079222"><ele>127.0</ele><time>2026-04-26T07:56:11.196Z</time></trkpt><trkpt lat="45.822477" lon="11.7077916"><ele>127.0</ele><time>2026-04-26T07:56:12.195Z</time></trkpt><trkpt lat="45.8225993" lon="11.7076622"><ele>127.0</ele><time>2026-04-26T07:56:13.198Z</time></trkpt><trkpt lat="45.8227201" lon="11.707528"><ele>128.33333333333334</ele><time>2026-04-26T07:56:14.196Z</time></trkpt><trkpt lat="45.8228418" lon="11.7073888"><ele>129.66666666666666</ele><time>2026-04-26T07:56:15.193Z</time></trkpt><trkpt lat="45.8229672" lon="11.7072473"><ele>131.0</ele><time>2026-04-26T07:56:16.192Z</time></trkpt><trkpt lat="45.823092" lon="11.7071089"><ele>131.0</ele><time>2026-04-26T07:56:17.193Z</time></trkpt><trkpt lat="45.8232111" lon="11.7069739"><ele>131.0</ele><time>2026-04-26T07:56:18.197Z</time></trkpt><trkpt lat="45.8233237" lon="11.7068418"><ele>131.0</ele><time>2026-04-26T07:56:19.196Z</time></trkpt><trkpt lat="45.8234315" lon="11.7067128"><ele>131.0</ele><time>2026-04-26T07:56:20.197Z</time></trkpt><trkpt lat="45.8236377" lon="11.7064616"><ele>131.5</ele><time>2026-04-26T07:56:22.194Z</time></trkpt><trkpt lat="45.823743" lon="11.7063371"><ele>132.0</ele><time>2026-04-26T07:56:23.196Z</time></trkpt><trkpt lat="45.8238529" lon="11.7062157"><ele>132.5</ele><time>2026-04-26T07:56:24.193Z</time></trkpt><trkpt lat="45.8239698" lon="11.7060978"><ele>133.0</ele><time>2026-04-26T07:56:25.194Z</time></trkpt><trkpt lat="45.8240934" lon="11.7059809"><ele>132.66666666666669</ele><time>2026-04-26T07:56:26.194Z</time></trkpt><trkpt lat="45.8242206" lon="11.7058678"><ele>132.33333333333334</ele><time>2026-04-26T07:56:27.194Z</time></trkpt><trkpt lat="45.8243491" lon="11.7057518"><ele>132.0</ele><time>2026-04-26T07:56:28.196Z</time></trkpt><trkpt lat="45.8244766" lon="11.7056216"><ele>132.0</ele><time>2026-04-26T07:56:29.193Z</time></trkpt><trkpt lat="45.824599" lon="11.7054784"><ele>132.0</ele><time>2026-04-26T07:56:30.192Z</time></trkpt><trkpt lat="45.8247172" lon="11.7053324"><ele>132.0</ele><time>2026-04-26T07:56:31.192Z</time></trkpt><trkpt lat="45.8248333" lon="11.7051834"><ele>131.66666666666666</ele><time>2026-04-26T07:56:32.196Z</time></trkpt><trkpt lat="45.8249502" lon="11.705035"><ele>131.33333333333331</ele><time>2026-04-26T07:56:33.194Z</time></trkpt><trkpt lat="45.8250689" lon="11.7048844"><ele>131.0</ele><time>2026-04-26T07:56:34.194Z</time></trkpt><trkpt lat="45.8251895" lon="11.7047311"><ele>131.0</ele><time>2026-04-26T07:56:35.194Z</time></trkpt><trkpt lat="45.8253117" lon="11.7045753"><ele>131.0</ele><time>2026-04-26T07:56:36.194Z</time></trkpt><trkpt lat="45.8254309" lon="11.7044229"><ele>131.0</ele><time>2026-04-26T07:56:37.193Z</time></trkpt><trkpt lat="45.8255458" lon="11.7042736"><ele>130.75</ele><time>2026-04-26T07:56:38.193Z</time></trkpt><trkpt lat="45.8256538" lon="11.7041321"><ele>130.5</ele><time>2026-04-26T07:56:39.191Z</time></trkpt><trkpt lat="45.8257554" lon="11.7040029"><ele>130.25</ele><time>2026-04-26T07:56:40.192Z</time></trkpt><trkpt lat="45.8258518" lon="11.7038816"><ele>130.0</ele><time>2026-04-26T07:56:41.191Z</time></trkpt><trkpt lat="45.8260486" lon="11.7036185"><ele>131.66666666666669</ele><time>2026-04-26T07:56:43.192Z</time></trkpt><trkpt lat="45.8261595" lon="11.703478"><ele>133.33333333333334</ele><time>2026-04-26T07:56:44.194Z</time></trkpt><trkpt lat="45.8262814" lon="11.7033349"><ele>135.0</ele><time>2026-04-26T07:56:45.194Z</time></trkpt><trkpt lat="45.8264046" lon="11.7032038"><ele>135.0</ele><time>2026-04-26T07:56:46.194Z</time></trkpt><trkpt lat="45.82652" lon="11.7030823"><ele>135.0</ele><time>2026-04-26T07:56:47.197Z</time></trkpt><trkpt lat="45.826626" lon="11.7029637"><ele>135.0</ele><time>2026-04-26T07:56:48.193Z</time></trkpt><trkpt lat="45.8267269" lon="11.7028417"><ele>135.0</ele><time>2026-04-26T07:56:49.194Z</time></trkpt><trkpt lat="45.8268257" lon="11.7027108"><ele>134.75</ele><time>2026-04-26T07:56:50.193Z</time></trkpt><trkpt lat="45.8269119" lon="11.7025544"><ele>134.5</ele><time>2026-04-26T07:56:51.194Z</time></trkpt><trkpt lat="45.8269922" lon="11.7023761"><ele>134.25</ele><time>2026-04-26T07:56:52.193Z</time></trkpt><trkpt lat="45.8270734" lon="11.7021914"><ele>134.0</ele><time>2026-04-26T07:56:53.195Z</time></trkpt><trkpt lat="45.8271579" lon="11.7020111"><ele>135.66666666666666</ele><time>2026-04-26T07:56:54.192Z</time></trkpt><trkpt lat="45.8272437" lon="11.7018365"><ele>137.33333333333334</ele><time>2026-04-26T07:56:55.193Z</time></trkpt><trkpt lat="45.8273326" lon="11.7016614"><ele>139.0</ele><time>2026-04-26T07:56:56.194Z</time></trkpt><trkpt lat="45.8274326" lon="11.7014904"><ele>139.0</ele><time>2026-04-26T07:56:57.193Z</time></trkpt><trkpt lat="45.8275464" lon="11.7013251"><ele>139.0</ele><time>2026-04-26T07:56:58.194Z</time></trkpt><trkpt lat="45.8276583" lon="11.7011707"><ele>139.0</ele><time>2026-04-26T07:56:59.194Z</time></trkpt><trkpt lat="45.8277633" lon="11.7010224"><ele>138.66666666666669</ele><time>2026-04-26T07:57:00.194Z</time></trkpt><trkpt lat="45.8278666" lon="11.700879"><ele>138.33333333333334</ele><time>2026-04-26T07:57:01.195Z</time></trkpt><trkpt lat="45.8279686" lon="11.7007393"><ele>138.0</ele><time>2026-04-26T07:57:02.195Z</time></trkpt><trkpt lat="45.8281684" lon="11.7005023"><ele>138.0</ele><time>2026-04-26T07:57:04.191Z</time></trkpt><trkpt lat="45.8282656" lon="11.7004102"><ele>138.0</ele><time>2026-04-26T07:57:05.191Z</time></trkpt><trkpt lat="45.8283617" lon="11.7003351"><ele>138.0</ele><time>2026-04-26T07:57:06.191Z</time></trkpt><trkpt lat="45.8284457" lon="11.7002659"><ele>138.0</ele><time>2026-04-26T07:57:07.192Z</time></trkpt><trkpt lat="45.8285117" lon="11.7002024"><ele>138.0</ele><time>2026-04-26T07:57:08.193Z</time></trkpt><trkpt lat="45.8286097" lon="11.7001083"><ele>138.75</ele><time>2026-04-26T07:57:10.192Z</time></trkpt><trkpt lat="45.828716" lon="11.7000032"><ele>139.5</ele><time>2026-04-26T07:57:12.191Z</time></trkpt><trkpt lat="45.8287891" lon="11.6999262"><ele>140.25</ele><time>2026-04-26T07:57:13.191Z</time></trkpt><trkpt lat="45.8288656" lon="11.6998687"><ele>141.0</ele><time>2026-04-26T07:57:13.986Z</time></trkpt><trkpt lat="45.8290044" lon="11.6997569"><ele>141.0</ele><time>2026-04-26T07:57:15.19Z</time></trkpt><trkpt lat="45.82914" lon="11.6996474"><ele>141.0</ele><time>2026-04-26T07:57:16.191Z</time></trkpt><trkpt lat="45.8292745" lon="11.6995337"><ele>141.0</ele><time>2026-04-26T07:57:17.195Z</time></trkpt><trkpt lat="45.8294024" lon="11.6994226"><ele>142.0</ele><time>2026-04-26T07:57:18.192Z</time></trkpt><trkpt lat="45.8295276" lon="11.699311"><ele>143.0</ele><time>2026-04-26T07:57:19.193Z</time></trkpt><trkpt lat="45.8296547" lon="11.6991971"><ele>144.0</ele><time>2026-04-26T07:57:20.195Z</time></trkpt><trkpt lat="45.8297915" lon="11.6990774"><ele>144.0</ele><time>2026-04-26T07:57:21.193Z</time></trkpt><trkpt lat="45.829936" lon="11.6989497"><ele>144.0</ele><time>2026-04-26T07:57:22.194Z</time></trkpt><trkpt lat="45.8300753" lon="11.6988214"><ele>144.0</ele><time>2026-04-26T07:57:23.193Z</time></trkpt><trkpt lat="45.8303371" lon="11.6985655"><ele>142.33333333333334</ele><time>2026-04-26T07:57:25.191Z</time></trkpt><trkpt lat="45.8304719" lon="11.6984309"><ele>140.66666666666669</ele><time>2026-04-26T07:57:26.193Z</time></trkpt><trkpt lat="45.8305796" lon="11.6983263"><ele>139.0</ele><time>2026-04-26T07:57:26.991Z</time></trkpt><trkpt lat="45.8307336" lon="11.6981719"><ele>139.0</ele><time>2026-04-26T07:57:28.191Z</time></trkpt><trkpt lat="45.8308607" lon="11.6980429"><ele>139.0</ele><time>2026-04-26T07:57:29.191Z</time></trkpt><trkpt lat="45.8309916" lon="11.6979124"><ele>139.0</ele><time>2026-04-26T07:57:30.193Z</time></trkpt><trkpt lat="45.8311257" lon="11.6977815"><ele>138.0</ele><time>2026-04-26T07:57:31.191Z</time></trkpt><trkpt lat="45.8312608" lon="11.6976486"><ele>137.0</ele><time>2026-04-26T07:57:32.192Z</time></trkpt><trkpt lat="45.8313955" lon="11.6975148"><ele>136.0</ele><time>2026-04-26T07:57:33.194Z</time></trkpt><trkpt lat="45.8315234" lon="11.6973868"><ele>136.0</ele><time>2026-04-26T07:57:34.193Z</time></trkpt><trkpt lat="45.8316447" lon="11.6972665"><ele>136.0</ele><time>2026-04-26T07:57:35.196Z</time></trkpt><trkpt lat="45.8317627" lon="11.6971488"><ele>136.0</ele><time>2026-04-26T07:57:36.196Z</time></trkpt><trkpt lat="45.8318799" lon="11.6970282"><ele>136.0</ele><time>2026-04-26T07:57:37.194Z</time></trkpt><trkpt lat="45.8320058" lon="11.6968987"><ele>136.33333333333334</ele><time>2026-04-26T07:57:38.195Z</time></trkpt><trkpt lat="45.8321381" lon="11.6967714"><ele>136.66666666666666</ele><time>2026-04-26T07:57:39.196Z</time></trkpt><trkpt lat="45.8322714" lon="11.6966444"><ele>137.0</ele><time>2026-04-26T07:57:40.195Z</time></trkpt><trkpt lat="45.8324038" lon="11.6965106"><ele>137.0</ele><time>2026-04-26T07:57:41.198Z</time></trkpt><trkpt lat="45.8325351" lon="11.6963737"><ele>137.0</ele><time>2026-04-26T07:57:42.196Z</time></trkpt><trkpt lat="45.8326614" lon="11.6962388"><ele>137.0</ele><time>2026-04-26T07:57:43.194Z</time></trkpt><trkpt lat="45.8327822" lon="11.6961007"><ele>136.5</ele><time>2026-04-26T07:57:44.195Z</time></trkpt><trkpt lat="45.8330096" lon="11.6957939"><ele>136.0</ele><time>2026-04-26T07:57:46.194Z</time></trkpt><trkpt lat="45.8331114" lon="11.6956227"><ele>136.0</ele><time>2026-04-26T07:57:47.196Z</time></trkpt><trkpt lat="45.8332011" lon="11.6954352"><ele>136.0</ele><time>2026-04-26T07:57:48.196Z</time></trkpt><trkpt lat="45.8332529" lon="11.6953164"><ele>136.0</ele><time>2026-04-26T07:57:48.799Z</time></trkpt><trkpt lat="45.8333701" lon="11.6950409"><ele>135.0</ele><time>2026-04-26T07:57:50.194Z</time></trkpt><trkpt lat="45.8334526" lon="11.6948439"><ele>134.0</ele><time>2026-04-26T07:57:51.193Z</time></trkpt><trkpt lat="45.8335351" lon="11.6946401"><ele>133.0</ele><time>2026-04-26T07:57:52.191Z</time></trkpt><trkpt lat="45.83362" lon="11.6944318"><ele>133.66666666666669</ele><time>2026-04-26T07:57:53.19Z</time></trkpt><trkpt lat="45.8337083" lon="11.694223"><ele>134.33333333333334</ele><time>2026-04-26T07:57:54.19Z</time></trkpt><trkpt lat="45.8337972" lon="11.6940184"><ele>135.0</ele><time>2026-04-26T07:57:55.191Z</time></trkpt><trkpt lat="45.8338856" lon="11.6938185"><ele>135.0</ele><time>2026-04-26T07:57:56.192Z</time></trkpt><trkpt lat="45.833969" lon="11.6936272"><ele>135.0</ele><time>2026-04-26T07:57:57.192Z</time></trkpt><trkpt lat="45.8340481" lon="11.6934422"><ele>135.0</ele><time>2026-04-26T07:57:58.194Z</time></trkpt><trkpt lat="45.8341257" lon="11.6932629"><ele>135.25</ele><time>2026-04-26T07:57:59.194Z</time></trkpt><trkpt lat="45.8342001" lon="11.693084"><ele>135.5</ele><time>2026-04-26T07:58:00.196Z</time></trkpt><trkpt lat="45.8342772" lon="11.6929042"><ele>135.75</ele><time>2026-04-26T07:58:01.195Z</time></trkpt><trkpt lat="45.8343553" lon="11.6927293"><ele>136.0</ele><time>2026-04-26T07:58:02.196Z</time></trkpt><trkpt lat="45.8344307" lon="11.6925537"><ele>136.0</ele><time>2026-04-26T07:58:03.193Z</time></trkpt><trkpt lat="45.8345062" lon="11.6923739"><ele>136.0</ele><time>2026-04-26T07:58:04.193Z</time></trkpt><trkpt lat="45.8345819" lon="11.6921966"><ele>136.0</ele><time>2026-04-26T07:58:05.195Z</time></trkpt><trkpt lat="45.8347377" lon="11.6918508"><ele>136.33333333333334</ele><time>2026-04-26T07:58:07.195Z</time></trkpt><trkpt lat="45.8348208" lon="11.6916766"><ele>136.66666666666666</ele><time>2026-04-26T07:58:08.194Z</time></trkpt><trkpt lat="45.8349133" lon="11.6915037"><ele>137.0</ele><time>2026-04-26T07:58:09.196Z</time></trkpt><trkpt lat="45.8350185" lon="11.6913322"><ele>137.0</ele><time>2026-04-26T07:58:10.194Z</time></trkpt><trkpt lat="45.8350868" lon="11.6912277"><ele>137.0</ele><time>2026-04-26T07:58:10.8Z</time></trkpt><trkpt lat="45.8352377" lon="11.6909958"><ele>137.0</ele><time>2026-04-26T07:58:12.194Z</time></trkpt><trkpt lat="45.8353352" lon="11.6908388"><ele>137.25</ele><time>2026-04-26T07:58:13.193Z</time></trkpt><trkpt lat="45.8354248" lon="11.690689"><ele>137.5</ele><time>2026-04-26T07:58:14.196Z</time></trkpt><trkpt lat="45.8355108" lon="11.6905506"><ele>137.75</ele><time>2026-04-26T07:58:15.193Z</time></trkpt><trkpt lat="45.8355962" lon="11.690417"><ele>138.0</ele><time>2026-04-26T07:58:16.194Z</time></trkpt><trkpt lat="45.8356819" lon="11.6902845"><ele>138.0</ele><time>2026-04-26T07:58:17.193Z</time></trkpt><trkpt lat="45.8357697" lon="11.6901554"><ele>138.0</ele><time>2026-04-26T07:58:18.192Z</time></trkpt><trkpt lat="45.8358589" lon="11.6900281"><ele>138.0</ele><time>2026-04-26T07:58:19.192Z</time></trkpt><trkpt lat="45.8359527" lon="11.6898984"><ele>138.0</ele><time>2026-04-26T07:58:20.192Z</time></trkpt><trkpt lat="45.8360476" lon="11.6897598"><ele>138.0</ele><time>2026-04-26T07:58:21.193Z</time></trkpt><trkpt lat="45.8361475" lon="11.6896147"><ele>138.0</ele><time>2026-04-26T07:58:22.194Z</time></trkpt><trkpt lat="45.8362524" lon="11.6894697"><ele>138.0</ele><time>2026-04-26T07:58:23.195Z</time></trkpt><trkpt lat="45.8363596" lon="11.6893249"><ele>138.0</ele><time>2026-04-26T07:58:24.194Z</time></trkpt><trkpt lat="45.8364655" lon="11.6891857"><ele>137.33333333333334</ele><time>2026-04-26T07:58:25.194Z</time></trkpt><trkpt lat="45.8365658" lon="11.6890578"><ele>136.66666666666669</ele><time>2026-04-26T07:58:26.195Z</time></trkpt><trkpt lat="45.8367512" lon="11.6888088"><ele>136.0</ele><time>2026-04-26T07:58:28.193Z</time></trkpt><trkpt lat="45.8368436" lon="11.6886754"><ele>136.0</ele><time>2026-04-26T07:58:29.195Z</time></trkpt><trkpt lat="45.836939" lon="11.6885406"><ele>136.0</ele><time>2026-04-26T07:58:30.195Z</time></trkpt><trkpt lat="45.8370327" lon="11.6884027"><ele>136.0</ele><time>2026-04-26T07:58:31.196Z</time></trkpt><trkpt lat="45.8371124" lon="11.6882644"><ele>136.0</ele><time>2026-04-26T07:58:32.195Z</time></trkpt><trkpt lat="45.8371805" lon="11.6881299"><ele>136.0</ele><time>2026-04-26T07:58:33.195Z</time></trkpt><trkpt lat="45.8372439" lon="11.6879998"><ele>136.0</ele><time>2026-04-26T07:58:34.193Z</time></trkpt><trkpt lat="45.8373091" lon="11.6878721"><ele>136.0</ele><time>2026-04-26T07:58:35.195Z</time></trkpt><trkpt lat="45.8373807" lon="11.6877341"><ele>136.0</ele><time>2026-04-26T07:58:36.196Z</time></trkpt><trkpt lat="45.8374563" lon="11.687584"><ele>135.5</ele><time>2026-04-26T07:58:37.193Z</time></trkpt><trkpt lat="45.8375401" lon="11.6874238"><ele>135.0</ele><time>2026-04-26T07:58:38.195Z</time></trkpt><trkpt lat="45.83763" lon="11.6872601"><ele>134.5</ele><time>2026-04-26T07:58:39.195Z</time></trkpt><trkpt lat="45.8377158" lon="11.6871015"><ele>134.0</ele><time>2026-04-26T07:58:40.195Z</time></trkpt><trkpt lat="45.8377962" lon="11.6869462"><ele>135.25</ele><time>2026-04-26T07:58:41.195Z</time></trkpt><trkpt lat="45.8378722" lon="11.6868015"><ele>136.5</ele><time>2026-04-26T07:58:42.193Z</time></trkpt><trkpt lat="45.8379443" lon="11.6866703"><ele>137.75</ele><time>2026-04-26T07:58:43.195Z</time></trkpt><trkpt lat="45.8380116" lon="11.6865514"><ele>139.0</ele><time>2026-04-26T07:58:44.193Z</time></trkpt><trkpt lat="45.8380718" lon="11.6864359"><ele>139.0</ele><time>2026-04-26T07:58:45.193Z</time></trkpt><trkpt lat="45.8381313" lon="11.6863177"><ele>139.0</ele><time>2026-04-26T07:58:46.193Z</time></trkpt><trkpt lat="45.8381926" lon="11.6861969"><ele>139.0</ele><time>2026-04-26T07:58:47.196Z</time></trkpt><trkpt lat="45.8383233" lon="11.685941"><ele>139.0</ele><time>2026-04-26T07:58:49.195Z</time></trkpt><trkpt lat="45.8383905" lon="11.6858116"><ele>139.0</ele><time>2026-04-26T07:58:50.195Z</time></trkpt><trkpt lat="45.8384563" lon="11.6856824"><ele>139.0</ele><time>2026-04-26T07:58:51.194Z</time></trkpt><trkpt lat="45.8385229" lon="11.6855502"><ele>139.0</ele><time>2026-04-26T07:58:52.194Z</time></trkpt><trkpt lat="45.8385932" lon="11.6854089"><ele>139.0</ele><time>2026-04-26T07:58:53.195Z</time></trkpt><trkpt lat="45.8386756" lon="11.6852612"><ele>139.0</ele><time>2026-04-26T07:58:54.194Z</time></trkpt><trkpt lat="45.8387672" lon="11.6851194"><ele>139.0</ele><time>2026-04-26T07:58:55.194Z</time></trkpt><trkpt lat="45.8388638" lon="11.6849769"><ele>139.0</ele><time>2026-04-26T07:58:56.196Z</time></trkpt><trkpt lat="45.8389604" lon="11.6848302"><ele>139.0</ele><time>2026-04-26T07:58:57.194Z</time></trkpt><trkpt lat="45.8390524" lon="11.6846913"><ele>139.0</ele><time>2026-04-26T07:58:58.195Z</time></trkpt><trkpt lat="45.83914" lon="11.6845599"><ele>139.0</ele><time>2026-04-26T07:58:59.195Z</time></trkpt><trkpt lat="45.8392265" lon="11.6844298"><ele>139.0</ele><time>2026-04-26T07:59:00.193Z</time></trkpt><trkpt lat="45.8393096" lon="11.6843032"><ele>139.0</ele><time>2026-04-26T07:59:01.194Z</time></trkpt><trkpt lat="45.8393904" lon="11.6841807"><ele>138.75</ele><time>2026-04-26T07:59:02.195Z</time></trkpt><trkpt lat="45.8394715" lon="11.6840566"><ele>138.5</ele><time>2026-04-26T07:59:03.194Z</time></trkpt><trkpt lat="45.8395559" lon="11.683927"><ele>138.25</ele><time>2026-04-26T07:59:04.195Z</time></trkpt><trkpt lat="45.8396443" lon="11.6838068"><ele>138.0</ele><time>2026-04-26T07:59:05.195Z</time></trkpt><trkpt lat="45.8397265" lon="11.6836859"><ele>138.66666666666666</ele><time>2026-04-26T07:59:06.191Z</time></trkpt><trkpt lat="45.8398097" lon="11.6835673"><ele>139.33333333333331</ele><time>2026-04-26T07:59:07.191Z</time></trkpt><trkpt lat="45.8398918" lon="11.6834455"><ele>140.0</ele><time>2026-04-26T07:59:08.195Z</time></trkpt><trkpt lat="45.8400598" lon="11.6831959"><ele>139.25</ele><time>2026-04-26T07:59:10.199Z</time></trkpt><trkpt lat="45.8401463" lon="11.6830658"><ele>138.5</ele><time>2026-04-26T07:59:11.195Z</time></trkpt><trkpt lat="45.8402286" lon="11.6829443"><ele>137.75</ele><time>2026-04-26T07:59:12.196Z</time></trkpt><trkpt lat="45.8403057" lon="11.6828306"><ele>137.0</ele><time>2026-04-26T07:59:13.195Z</time></trkpt><trkpt lat="45.8403806" lon="11.6827234"><ele>137.0</ele><time>2026-04-26T07:59:14.196Z</time></trkpt><trkpt lat="45.8404576" lon="11.6826207"><ele>137.0</ele><time>2026-04-26T07:59:15.195Z</time></trkpt><trkpt lat="45.8405395" lon="11.6825119"><ele>137.0</ele><time>2026-04-26T07:59:16.194Z</time></trkpt><trkpt lat="45.8406228" lon="11.6823867"><ele>137.0</ele><time>2026-04-26T07:59:17.197Z</time></trkpt><trkpt lat="45.8406966" lon="11.6822465"><ele>137.0</ele><time>2026-04-26T07:59:18.194Z</time></trkpt><trkpt lat="45.8407555" lon="11.6820927"><ele>137.0</ele><time>2026-04-26T07:59:19.193Z</time></trkpt><trkpt lat="45.8408049" lon="11.6819197"><ele>137.0</ele><time>2026-04-26T07:59:20.194Z</time></trkpt><trkpt lat="45.8408492" lon="11.6817314"><ele>137.0</ele><time>2026-04-26T07:59:21.196Z</time></trkpt><trkpt lat="45.8408919" lon="11.6815329"><ele>136.33333333333331</ele><time>2026-04-26T07:59:22.196Z</time></trkpt><trkpt lat="45.8409406" lon="11.68132"><ele>135.66666666666666</ele><time>2026-04-26T07:59:23.194Z</time></trkpt><trkpt lat="45.8409947" lon="11.6810891"><ele>135.0</ele><time>2026-04-26T07:59:24.196Z</time></trkpt><trkpt lat="45.8410471" lon="11.680864"><ele>135.0</ele><time>2026-04-26T07:59:25.195Z</time></trkpt><trkpt lat="45.8410977" lon="11.680646"><ele>135.0</ele><time>2026-04-26T07:59:26.193Z</time></trkpt><trkpt lat="45.841149" lon="11.6804294"><ele>135.0</ele><time>2026-04-26T07:59:27.194Z</time></trkpt><trkpt lat="45.8411999" lon="11.6802256"><ele>136.0</ele><time>2026-04-26T07:59:28.194Z</time></trkpt><trkpt lat="45.8412514" lon="11.6800312"><ele>137.0</ele><time>2026-04-26T07:59:29.195Z</time></trkpt><trkpt lat="45.8413726" lon="11.6796402"><ele>138.0</ele><time>2026-04-26T07:59:31.192Z</time></trkpt><trkpt lat="45.8414323" lon="11.6794506"><ele>139.0</ele><time>2026-04-26T07:59:32.193Z</time></trkpt><trkpt lat="45.8414865" lon="11.6792655"><ele>140.0</ele><time>2026-04-26T07:59:33.192Z</time></trkpt><trkpt lat="45.8415445" lon="11.6790834"><ele>141.0</ele><time>2026-04-26T07:59:34.193Z</time></trkpt><trkpt lat="45.8416037" lon="11.6789031"><ele>142.0</ele><time>2026-04-26T07:59:35.194Z</time></trkpt><trkpt lat="45.8416585" lon="11.6787269"><ele>143.0</ele><time>2026-04-26T07:59:36.193Z</time></trkpt><trkpt lat="45.8417122" lon="11.6785538"><ele>144.0</ele><time>2026-04-26T07:59:37.195Z</time></trkpt><trkpt lat="45.8417666" lon="11.6783852"><ele>145.0</ele><time>2026-04-26T07:59:38.195Z</time></trkpt><trkpt lat="45.8418211" lon="11.6782174"><ele>146.0</ele><time>2026-04-26T07:59:39.194Z</time></trkpt><trkpt lat="45.8418552" lon="11.6781168"><ele>144.75</ele><time>2026-04-26T07:59:39.803Z</time></trkpt><trkpt lat="45.8419332" lon="11.6778855"><ele>143.5</ele><time>2026-04-26T07:59:41.195Z</time></trkpt><trkpt lat="45.8419808" lon="11.6777133"><ele>142.25</ele><time>2026-04-26T07:59:42.193Z</time></trkpt><trkpt lat="45.8420102" lon="11.6775248"><ele>141.0</ele><time>2026-04-26T07:59:43.193Z</time></trkpt><trkpt lat="45.8420265" lon="11.6773197"><ele>141.0</ele><time>2026-04-26T07:59:44.195Z</time></trkpt><trkpt lat="45.8420447" lon="11.6771218"><ele>141.0</ele><time>2026-04-26T07:59:45.192Z</time></trkpt><trkpt lat="45.8420694" lon="11.6769333"><ele>141.0</ele><time>2026-04-26T07:59:46.194Z</time></trkpt><trkpt lat="45.8420952" lon="11.6767476"><ele>141.0</ele><time>2026-04-26T07:59:47.195Z</time></trkpt><trkpt lat="45.8421216" lon="11.6765597"><ele>140.66666666666666</ele><time>2026-04-26T07:59:48.195Z</time></trkpt><trkpt lat="45.8421529" lon="11.6763739"><ele>140.33333333333331</ele><time>2026-04-26T07:59:49.195Z</time></trkpt><trkpt lat="45.8421981" lon="11.6761894"><ele>140.0</ele><time>2026-04-26T07:59:50.195Z</time></trkpt><trkpt lat="45.8423498" lon="11.675828"><ele>140.25</ele><time>2026-04-26T07:59:52.194Z</time></trkpt><trkpt lat="45.8424323" lon="11.6756542"><ele>140.5</ele><time>2026-04-26T07:59:53.195Z</time></trkpt><trkpt lat="45.8425095" lon="11.6754906"><ele>140.75</ele><time>2026-04-26T07:59:54.195Z</time></trkpt><trkpt lat="45.8425837" lon="11.6753289"><ele>141.0</ele><time>2026-04-26T07:59:55.192Z</time></trkpt><trkpt lat="45.8426581" lon="11.6751636"><ele>141.0</ele><time>2026-04-26T07:59:56.194Z</time></trkpt><trkpt lat="45.8427278" lon="11.6749898"><ele>141.0</ele><time>2026-04-26T07:59:57.193Z</time></trkpt><trkpt lat="45.8427856" lon="11.6748018"><ele>141.0</ele><time>2026-04-26T07:59:58.193Z</time></trkpt><trkpt lat="45.8428313" lon="11.6745997"><ele>141.0</ele><time>2026-04-26T07:59:59.195Z</time></trkpt><trkpt lat="45.8428729" lon="11.6743991"><ele>141.5</ele><time>2026-04-26T08:00:00.193Z</time></trkpt><trkpt lat="45.8429151" lon="11.6742084"><ele>142.0</ele><time>2026-04-26T08:00:01.195Z</time></trkpt><trkpt lat="45.8429605" lon="11.6740228"><ele>142.5</ele><time>2026-04-26T08:00:02.195Z</time></trkpt><trkpt lat="45.8430201" lon="11.6738373"><ele>143.0</ele><time>2026-04-26T08:00:03.193Z</time></trkpt><trkpt lat="45.843093" lon="11.6736511"><ele>143.5</ele><time>2026-04-26T08:00:04.195Z</time></trkpt><trkpt lat="45.8431693" lon="11.6734682"><ele>144.0</ele><time>2026-04-26T08:00:05.194Z</time></trkpt><trkpt lat="45.8432386" lon="11.673295"><ele>144.5</ele><time>2026-04-26T08:00:06.193Z</time></trkpt><trkpt lat="45.8432999" lon="11.673126"><ele>145.0</ele><time>2026-04-26T08:00:07.195Z</time></trkpt><trkpt lat="45.8433634" lon="11.6729595"><ele>145.0</ele><time>2026-04-26T08:00:08.196Z</time></trkpt><trkpt lat="45.8434345" lon="11.6727985"><ele>145.0</ele><time>2026-04-26T08:00:09.195Z</time></trkpt><trkpt lat="45.8435128" lon="11.6726445"><ele>145.0</ele><time>2026-04-26T08:00:10.195Z</time></trkpt><trkpt lat="45.8435953" lon="11.6725036"><ele>145.0</ele><time>2026-04-26T08:00:11.195Z</time></trkpt><trkpt lat="45.8437831" lon="11.67225"><ele>145.5</ele><time>2026-04-26T08:00:13.194Z</time></trkpt><trkpt lat="45.8438901" lon="11.6721305"><ele>146.0</ele><time>2026-04-26T08:00:14.194Z</time></trkpt><trkpt lat="45.8439981" lon="11.672014"><ele>146.5</ele><time>2026-04-26T08:00:15.194Z</time></trkpt><trkpt lat="45.8441051" lon="11.6718999"><ele>147.0</ele><time>2026-04-26T08:00:16.194Z</time></trkpt><trkpt lat="45.8442099" lon="11.6717858"><ele>147.0</ele><time>2026-04-26T08:00:17.195Z</time></trkpt><trkpt lat="45.8443131" lon="11.6716687"><ele>147.0</ele><time>2026-04-26T08:00:18.193Z</time></trkpt><trkpt lat="45.8444095" lon="11.6715561"><ele>147.0</ele><time>2026-04-26T08:00:19.194Z</time></trkpt><trkpt lat="45.8445011" lon="11.6714449"><ele>147.0</ele><time>2026-04-26T08:00:20.192Z</time></trkpt><trkpt lat="45.8445863" lon="11.671341"><ele>147.0</ele><time>2026-04-26T08:00:21.191Z</time></trkpt><trkpt lat="45.8446648" lon="11.671245"><ele>147.0</ele><time>2026-04-26T08:00:22.191Z</time></trkpt><trkpt lat="45.8447339" lon="11.6711524"><ele>147.0</ele><time>2026-04-26T08:00:23.192Z</time></trkpt><trkpt lat="45.844802" lon="11.6710621"><ele>147.0</ele><time>2026-04-26T08:00:24.194Z</time></trkpt><trkpt lat="45.8448753" lon="11.6709658"><ele>147.0</ele><time>2026-04-26T08:00:25.194Z</time></trkpt><trkpt lat="45.8449566" lon="11.670859"><ele>147.0</ele><time>2026-04-26T08:00:26.195Z</time></trkpt><trkpt lat="45.8450502" lon="11.6707423"><ele>147.0</ele><time>2026-04-26T08:00:27.193Z</time></trkpt><trkpt lat="45.845149" lon="11.6706258"><ele>147.0</ele><time>2026-04-26T08:00:28.193Z</time></trkpt><trkpt lat="45.8452396" lon="11.6705176"><ele>147.0</ele><time>2026-04-26T08:00:29.192Z</time></trkpt><trkpt lat="45.8453189" lon="11.6704175"><ele>147.0</ele><time>2026-04-26T08:00:30.191Z</time></trkpt><trkpt lat="45.8453914" lon="11.6703372"><ele>147.0</ele><time>2026-04-26T08:00:31.191Z</time></trkpt><trkpt lat="45.845452" lon="11.6702584"><ele>147.0</ele><time>2026-04-26T08:00:32.196Z</time></trkpt><trkpt lat="45.8455734" lon="11.670121"><ele>147.0</ele><time>2026-04-26T08:00:34.19Z</time></trkpt><trkpt lat="45.8456272" lon="11.6700568"><ele>147.0</ele><time>2026-04-26T08:00:35.192Z</time></trkpt><trkpt lat="45.8456787" lon="11.6699908"><ele>147.42857142857142</ele><time>2026-04-26T08:00:36.191Z</time></trkpt><trkpt lat="45.8457408" lon="11.6699241"><ele>147.85714285714286</ele><time>2026-04-26T08:00:37.19Z</time></trkpt><trkpt lat="45.8458105" lon="11.6698771"><ele>148.28571428571428</ele><time>2026-04-26T08:00:38.193Z</time></trkpt><trkpt lat="45.8458756" lon="11.6698347"><ele>148.71428571428572</ele><time>2026-04-26T08:00:39.192Z</time></trkpt><trkpt lat="45.8459416" lon="11.6698007"><ele>149.14285714285714</ele><time>2026-04-26T08:00:40.194Z</time></trkpt><trkpt lat="45.8460119" lon="11.6697676"><ele>149.57142857142856</ele><time>2026-04-26T08:00:41.194Z</time></trkpt><trkpt lat="45.8460831" lon="11.6697311"><ele>150.0</ele><time>2026-04-26T08:00:42.193Z</time></trkpt><trkpt lat="45.8461556" lon="11.6696972"><ele>149.42857142857142</ele><time>2026-04-26T08:00:43.193Z</time></trkpt><trkpt lat="45.8462229" lon="11.669663"><ele>148.85714285714286</ele><time>2026-04-26T08:00:44.191Z</time></trkpt><trkpt lat="45.8462854" lon="11.6696279"><ele>148.28571428571428</ele><time>2026-04-26T08:00:45.192Z</time></trkpt><trkpt lat="45.8463462" lon="11.669594"><ele>147.71428571428572</ele><time>2026-04-26T08:00:46.193Z</time></trkpt><trkpt lat="45.8464029" lon="11.6695533"><ele>147.14285714285714</ele><time>2026-04-26T08:00:47.191Z</time></trkpt><trkpt lat="45.8464496" lon="11.6694909"><ele>146.57142857142856</ele><time>2026-04-26T08:00:48.194Z</time></trkpt><trkpt lat="45.846471" lon="11.6694049"><ele>146.0</ele><time>2026-04-26T08:00:49.195Z</time></trkpt><trkpt lat="45.8464711" lon="11.6693082"><ele>146.0</ele><time>2026-04-26T08:00:50.196Z</time></trkpt><trkpt lat="45.8464521" lon="11.6691448"><ele>146.0</ele><time>2026-04-26T08:00:52.196Z</time></trkpt><trkpt lat="45.8464354" lon="11.6689769"><ele>146.0</ele><time>2026-04-26T08:00:54.195Z</time></trkpt><trkpt lat="45.8464203" lon="11.6687874"><ele>146.0</ele><time>2026-04-26T08:00:56.196Z</time></trkpt><trkpt lat="45.8464044" lon="11.668609"><ele>145.0</ele><time>2026-04-26T08:00:58.193Z</time></trkpt><trkpt lat="45.8463996" lon="11.668517"><ele>144.0</ele><time>2026-04-26T08:00:59.196Z</time></trkpt><trkpt lat="45.8463962" lon="11.6684252"><ele>143.0</ele><time>2026-04-26T08:01:00.195Z</time></trkpt><trkpt lat="45.8463886" lon="11.6682571"><ele>142.0</ele><time>2026-04-26T08:01:02.195Z</time></trkpt><trkpt lat="45.8463762" lon="11.668093"><ele>141.0</ele><time>2026-04-26T08:01:04.196Z</time></trkpt><trkpt lat="45.8463668" lon="11.6679218"><ele>144.4</ele><time>2026-04-26T08:01:06.194Z</time></trkpt><trkpt lat="45.846429" lon="11.6677691"><ele>147.8</ele><time>2026-04-26T08:01:08.193Z</time></trkpt><trkpt lat="45.8464986" lon="11.6677256"><ele>151.20000000000002</ele><time>2026-04-26T08:01:09.193Z</time></trkpt><trkpt lat="45.8465827" lon="11.6677023"><ele>154.6</ele><time>2026-04-26T08:01:10.192Z</time></trkpt><trkpt lat="45.8466725" lon="11.6677016"><ele>158.0</ele><time>2026-04-26T08:01:11.191Z</time></trkpt><trkpt lat="45.8467554" lon="11.6677216"><ele>157.25</ele><time>2026-04-26T08:01:12.192Z</time></trkpt><trkpt lat="45.8468488" lon="11.6677564"><ele>156.5</ele><time>2026-04-26T08:01:13.196Z</time></trkpt><trkpt lat="45.8469524" lon="11.667796"><ele>155.75</ele><time>2026-04-26T08:01:14.194Z</time></trkpt><trkpt lat="45.847058" lon="11.66781"><ele>155.0</ele><time>2026-04-26T08:01:15.194Z</time></trkpt><trkpt lat="45.8473023" lon="11.6677085"><ele>155.0</ele><time>2026-04-26T08:01:17.193Z</time></trkpt><trkpt lat="45.8474293" lon="11.6676262"><ele>155.0</ele><time>2026-04-26T08:01:18.193Z</time></trkpt><trkpt lat="45.8475095" lon="11.6675738"><ele>155.0</ele><time>2026-04-26T08:01:18.802Z</time></trkpt><trkpt lat="45.8476878" lon="11.6674586"><ele>155.0</ele><time>2026-04-26T08:01:20.193Z</time></trkpt><trkpt lat="45.8478054" lon="11.667382"><ele>154.0</ele><time>2026-04-26T08:01:21.195Z</time></trkpt><trkpt lat="45.847917" lon="11.667309"><ele>153.0</ele><time>2026-04-26T08:01:22.195Z</time></trkpt><trkpt lat="45.8480271" lon="11.6672385"><ele>152.0</ele><time>2026-04-26T08:01:23.194Z</time></trkpt><trkpt lat="45.8481376" lon="11.6671737"><ele>151.0</ele><time>2026-04-26T08:01:24.193Z</time></trkpt><trkpt lat="45.848239" lon="11.6671138"><ele>151.0</ele><time>2026-04-26T08:01:25.193Z</time></trkpt><trkpt lat="45.8483338" lon="11.6670598"><ele>151.0</ele><time>2026-04-26T08:01:26.194Z</time></trkpt><trkpt lat="45.8484289" lon="11.6670102"><ele>151.0</ele><time>2026-04-26T08:01:27.194Z</time></trkpt><trkpt lat="45.8485263" lon="11.6669697"><ele>151.0</ele><time>2026-04-26T08:01:28.192Z</time></trkpt><trkpt lat="45.8486216" lon="11.666943"><ele>151.0</ele><time>2026-04-26T08:01:29.194Z</time></trkpt><trkpt lat="45.848716" lon="11.6669527"><ele>151.4</ele><time>2026-04-26T08:01:30.192Z</time></trkpt><trkpt lat="45.8488014" lon="11.666979"><ele>151.8</ele><time>2026-04-26T08:01:31.19Z</time></trkpt><trkpt lat="45.8489006" lon="11.6669884"><ele>152.20000000000002</ele><time>2026-04-26T08:01:32.192Z</time></trkpt><trkpt lat="45.8490082" lon="11.6669933"><ele>152.6</ele><time>2026-04-26T08:01:33.187Z</time></trkpt><trkpt lat="45.8491173" lon="11.6669937"><ele>153.0</ele><time>2026-04-26T08:01:34.19Z</time></trkpt><trkpt lat="45.8492146" lon="11.667"><ele>153.0</ele><time>2026-04-26T08:01:35.188Z</time></trkpt><trkpt lat="45.8493206" lon="11.6670124"><ele>153.0</ele><time>2026-04-26T08:01:36.19Z</time></trkpt><trkpt lat="45.8495299" lon="11.6669963"><ele>153.0</ele><time>2026-04-26T08:01:38.193Z</time></trkpt><trkpt lat="45.8496271" lon="11.6669634"><ele>153.0</ele><time>2026-04-26T08:01:39.193Z</time></trkpt><trkpt lat="45.8497275" lon="11.6669127"><ele>153.0</ele><time>2026-04-26T08:01:40.192Z</time></trkpt><trkpt lat="45.8498351" lon="11.6668484"><ele>153.0</ele><time>2026-04-26T08:01:41.193Z</time></trkpt><trkpt lat="45.849943" lon="11.6667755"><ele>153.0</ele><time>2026-04-26T08:01:42.193Z</time></trkpt><trkpt lat="45.8500545" lon="11.6666895"><ele>153.0</ele><time>2026-04-26T08:01:43.193Z</time></trkpt><trkpt lat="45.8501431" lon="11.6666202"><ele>151.5</ele><time>2026-04-26T08:01:43.989Z</time></trkpt><trkpt lat="45.8502743" lon="11.6665204"><ele>150.0</ele><time>2026-04-26T08:01:45.191Z</time></trkpt><trkpt lat="45.8503851" lon="11.6664277"><ele>148.5</ele><time>2026-04-26T08:01:46.193Z</time></trkpt><trkpt lat="45.8504987" lon="11.6663318"><ele>147.0</ele><time>2026-04-26T08:01:47.191Z</time></trkpt><trkpt lat="45.8506123" lon="11.6662382"><ele>147.0</ele><time>2026-04-26T08:01:48.19Z</time></trkpt><trkpt lat="45.850726" lon="11.6661465"><ele>147.0</ele><time>2026-04-26T08:01:49.19Z</time></trkpt><trkpt lat="45.8508367" lon="11.6660591"><ele>147.0</ele><time>2026-04-26T08:01:50.193Z</time></trkpt><trkpt lat="45.8509401" lon="11.6659769"><ele>147.0</ele><time>2026-04-26T08:01:51.193Z</time></trkpt><trkpt lat="45.8510398" lon="11.6658957"><ele>147.5</ele><time>2026-04-26T08:01:52.193Z</time></trkpt><trkpt lat="45.8511432" lon="11.6658148"><ele>148.0</ele><time>2026-04-26T08:01:53.194Z</time></trkpt><trkpt lat="45.8512545" lon="11.6657284"><ele>148.5</ele><time>2026-04-26T08:01:54.192Z</time></trkpt><trkpt lat="45.8513755" lon="11.6656402"><ele>149.0</ele><time>2026-04-26T08:01:55.191Z</time></trkpt><trkpt lat="45.8514918" lon="11.6655559"><ele>149.0</ele><time>2026-04-26T08:01:56.191Z</time></trkpt><trkpt lat="45.8516075" lon="11.6654817"><ele>149.0</ele><time>2026-04-26T08:01:57.191Z</time></trkpt><trkpt lat="45.8518318" lon="11.6653376"><ele>149.0</ele><time>2026-04-26T08:01:59.19Z</time></trkpt><trkpt lat="45.8519341" lon="11.6652718"><ele>149.2</ele><time>2026-04-26T08:02:00.189Z</time></trkpt><trkpt lat="45.8520348" lon="11.6652091"><ele>149.4</ele><time>2026-04-26T08:02:01.189Z</time></trkpt><trkpt lat="45.8521349" lon="11.6651478"><ele>149.6</ele><time>2026-04-26T08:02:02.192Z</time></trkpt><trkpt lat="45.852236" lon="11.6650821"><ele>149.8</ele><time>2026-04-26T08:02:03.191Z</time></trkpt><trkpt lat="45.852337" lon="11.6650141"><ele>150.0</ele><time>2026-04-26T08:02:04.191Z</time></trkpt><trkpt lat="45.8524362" lon="11.6649603"><ele>150.0</ele><time>2026-04-26T08:02:05.192Z</time></trkpt><trkpt lat="45.8525274" lon="11.6649047"><ele>150.0</ele><time>2026-04-26T08:02:06.191Z</time></trkpt><trkpt lat="45.8526194" lon="11.6648534"><ele>150.0</ele><time>2026-04-26T08:02:07.194Z</time></trkpt><trkpt lat="45.8527172" lon="11.6648001"><ele>150.0</ele><time>2026-04-26T08:02:08.193Z</time></trkpt><trkpt lat="45.8528159" lon="11.6647327"><ele>150.0</ele><time>2026-04-26T08:02:09.193Z</time></trkpt><trkpt lat="45.8529057" lon="11.6646466"><ele>149.8</ele><time>2026-04-26T08:02:10.193Z</time></trkpt><trkpt lat="45.8529837" lon="11.6645462"><ele>149.6</ele><time>2026-04-26T08:02:11.194Z</time></trkpt><trkpt lat="45.8530501" lon="11.6644328"><ele>149.4</ele><time>2026-04-26T08:02:12.192Z</time></trkpt><trkpt lat="45.8531153" lon="11.6643123"><ele>149.2</ele><time>2026-04-26T08:02:13.194Z</time></trkpt><trkpt lat="45.8531861" lon="11.6641948"><ele>149.0</ele><time>2026-04-26T08:02:14.194Z</time></trkpt><trkpt lat="45.8532619" lon="11.6640826"><ele>149.0</ele><time>2026-04-26T08:02:15.192Z</time></trkpt><trkpt lat="45.85335" lon="11.6639813"><ele>149.0</ele><time>2026-04-26T08:02:16.189Z</time></trkpt><trkpt lat="45.85345" lon="11.6638868"><ele>149.0</ele><time>2026-04-26T08:02:17.191Z</time></trkpt><trkpt lat="45.8535493" lon="11.663797"><ele>149.0</ele><time>2026-04-26T08:02:18.191Z</time></trkpt><trkpt lat="45.8537342" lon="11.6636519"><ele>149.8</ele><time>2026-04-26T08:02:20.193Z</time></trkpt><trkpt lat="45.8538176" lon="11.6635843"><ele>150.60000000000002</ele><time>2026-04-26T08:02:21.193Z</time></trkpt><trkpt lat="45.8539007" lon="11.6635189"><ele>151.4</ele><time>2026-04-26T08:02:22.19Z</time></trkpt><trkpt lat="45.8539872" lon="11.6634516"><ele>152.20000000000002</ele><time>2026-04-26T08:02:23.192Z</time></trkpt><trkpt lat="45.8540822" lon="11.6633772"><ele>153.0</ele><time>2026-04-26T08:02:24.194Z</time></trkpt><trkpt lat="45.8541787" lon="11.6633017"><ele>153.0</ele><time>2026-04-26T08:02:25.191Z</time></trkpt><trkpt lat="45.8542565" lon="11.6632418"><ele>153.0</ele><time>2026-04-26T08:02:25.99Z</time></trkpt><trkpt lat="45.8543738" lon="11.6631481"><ele>153.0</ele><time>2026-04-26T08:02:27.192Z</time></trkpt><trkpt lat="45.8544662" lon="11.6630755"><ele>153.0</ele><time>2026-04-26T08:02:28.194Z</time></trkpt><trkpt lat="45.8545552" lon="11.6630095"><ele>153.0</ele><time>2026-04-26T08:02:29.193Z</time></trkpt><trkpt lat="45.8546457" lon="11.6629447"><ele>152.20000000000002</ele><time>2026-04-26T08:02:30.192Z</time></trkpt><trkpt lat="45.8547439" lon="11.6628733"><ele>151.4</ele><time>2026-04-26T08:02:31.193Z</time></trkpt><trkpt lat="45.8548431" lon="11.662797"><ele>150.60000000000002</ele><time>2026-04-26T08:02:32.193Z</time></trkpt><trkpt lat="45.8549381" lon="11.6627246"><ele>149.8</ele><time>2026-04-26T08:02:33.193Z</time></trkpt><trkpt lat="45.8550288" lon="11.6626561"><ele>149.0</ele><time>2026-04-26T08:02:34.196Z</time></trkpt><trkpt lat="45.8551142" lon="11.6625928"><ele>148.4</ele><time>2026-04-26T08:02:35.193Z</time></trkpt><trkpt lat="45.8551932" lon="11.6625323"><ele>147.8</ele><time>2026-04-26T08:02:36.193Z</time></trkpt><trkpt lat="45.8552655" lon="11.6624765"><ele>147.2</ele><time>2026-04-26T08:02:37.193Z</time></trkpt><trkpt lat="45.8553284" lon="11.6624282"><ele>146.6</ele><time>2026-04-26T08:02:38.193Z</time></trkpt><trkpt lat="45.8553913" lon="11.6623318"><ele>146.0</ele><time>2026-04-26T08:02:40.194Z</time></trkpt><trkpt lat="45.8552723" lon="11.6622681"><ele>146.0</ele><time>2026-04-26T08:02:43.193Z</time></trkpt><trkpt lat="45.8551772" lon="11.6622781"><ele>146.0</ele><time>2026-04-26T08:02:44.193Z</time></trkpt><trkpt lat="45.8550664" lon="11.6622852"><ele>146.0</ele><time>2026-04-26T08:02:45.194Z</time></trkpt><trkpt lat="45.854962" lon="11.6622902"><ele>146.0</ele><time>2026-04-26T08:02:46.191Z</time></trkpt><trkpt lat="45.8548711" lon="11.6622877"><ele>146.0</ele><time>2026-04-26T08:02:47.193Z</time></trkpt><trkpt lat="45.8547873" lon="11.6622608"><ele>146.6</ele><time>2026-04-26T08:02:48.191Z</time></trkpt><trkpt lat="45.8547098" lon="11.662192"><ele>147.2</ele><time>2026-04-26T08:02:49.19Z</time></trkpt><trkpt lat="45.8546563" lon="11.662091"><ele>147.8</ele><time>2026-04-26T08:02:50.19Z</time></trkpt><trkpt lat="45.8546468" lon="11.6619726"><ele>148.4</ele><time>2026-04-26T08:02:51.193Z</time></trkpt><trkpt lat="45.8546788" lon="11.6618569"><ele>149.0</ele><time>2026-04-26T08:02:52.193Z</time></trkpt><trkpt lat="45.8547527" lon="11.6617424"><ele>150.0</ele><time>2026-04-26T08:02:53.194Z</time></trkpt><trkpt lat="45.8548566" lon="11.6616206"><ele>151.0</ele><time>2026-04-26T08:02:54.192Z</time></trkpt><trkpt lat="45.8549951" lon="11.6614909"><ele>152.0</ele><time>2026-04-26T08:02:55.191Z</time></trkpt><trkpt lat="45.8551508" lon="11.6613671"><ele>152.0</ele><time>2026-04-26T08:02:56.193Z</time></trkpt><trkpt lat="45.855308" lon="11.6612772"><ele>152.0</ele><time>2026-04-26T08:02:57.192Z</time></trkpt><trkpt lat="45.8554523" lon="11.6612233"><ele>152.0</ele><time>2026-04-26T08:02:58.195Z</time></trkpt><trkpt lat="45.8555814" lon="11.6611846"><ele>152.0</ele><time>2026-04-26T08:02:59.193Z</time></trkpt><trkpt lat="45.8556686" lon="11.6611506"><ele>152.0</ele><time>2026-04-26T08:02:59.989Z</time></trkpt><trkpt lat="45.8557799" lon="11.6610991"><ele>152.0</ele><time>2026-04-26T08:03:01.194Z</time></trkpt><trkpt lat="45.8559394" lon="11.6609388"><ele>152.0</ele><time>2026-04-26T08:03:03.192Z</time></trkpt><trkpt lat="45.8560191" lon="11.6608038"><ele>152.75</ele><time>2026-04-26T08:03:04.193Z</time></trkpt><trkpt lat="45.8560942" lon="11.6606598"><ele>153.5</ele><time>2026-04-26T08:03:05.192Z</time></trkpt><trkpt lat="45.8561747" lon="11.6605189"><ele>154.25</ele><time>2026-04-26T08:03:06.195Z</time></trkpt><trkpt lat="45.8562572" lon="11.6603729"><ele>155.0</ele><time>2026-04-26T08:03:07.191Z</time></trkpt><trkpt lat="45.856326" lon="11.660223"><ele>155.0</ele><time>2026-04-26T08:03:08.192Z</time></trkpt><trkpt lat="45.8563817" lon="11.6600653"><ele>155.0</ele><time>2026-04-26T08:03:09.191Z</time></trkpt><trkpt lat="45.8564234" lon="11.6598774"><ele>155.0</ele><time>2026-04-26T08:03:10.19Z</time></trkpt><trkpt lat="45.8564576" lon="11.6596603"><ele>155.0</ele><time>2026-04-26T08:03:11.192Z</time></trkpt><trkpt lat="45.8564997" lon="11.6594483"><ele>154.25</ele><time>2026-04-26T08:03:12.19Z</time></trkpt><trkpt lat="45.8565477" lon="11.6592796"><ele>153.5</ele><time>2026-04-26T08:03:13.191Z</time></trkpt><trkpt lat="45.8566143" lon="11.6591284"><ele>152.75</ele><time>2026-04-26T08:03:14.189Z</time></trkpt><trkpt lat="45.8566973" lon="11.6589794"><ele>152.0</ele><time>2026-04-26T08:03:15.191Z</time></trkpt><trkpt lat="45.85679" lon="11.6588442"><ele>152.0</ele><time>2026-04-26T08:03:16.193Z</time></trkpt><trkpt lat="45.8568426" lon="11.6587718"><ele>152.0</ele><time>2026-04-26T08:03:16.799Z</time></trkpt><trkpt lat="45.8569653" lon="11.6586409"><ele>152.0</ele><time>2026-04-26T08:03:18.193Z</time></trkpt><trkpt lat="45.857064" lon="11.658576"><ele>152.0</ele><time>2026-04-26T08:03:19.193Z</time></trkpt><trkpt lat="45.8571759" lon="11.6585197"><ele>155.33333333333331</ele><time>2026-04-26T08:03:20.192Z</time></trkpt><trkpt lat="45.857296" lon="11.6584599"><ele>158.66666666666666</ele><time>2026-04-26T08:03:21.192Z</time></trkpt><trkpt lat="45.8574255" lon="11.6583942"><ele>162.0</ele><time>2026-04-26T08:03:22.193Z</time></trkpt><trkpt lat="45.857698" lon="11.6582152"><ele>162.0</ele><time>2026-04-26T08:03:24.193Z</time></trkpt><trkpt lat="45.8578267" lon="11.6581449"><ele>162.0</ele><time>2026-04-26T08:03:25.194Z</time></trkpt><trkpt lat="45.8579565" lon="11.6580964"><ele>162.0</ele><time>2026-04-26T08:03:26.194Z</time></trkpt><trkpt lat="45.8580781" lon="11.6580578"><ele>162.0</ele><time>2026-04-26T08:03:27.194Z</time></trkpt><trkpt lat="45.8581806" lon="11.6580277"><ele>162.0</ele><time>2026-04-26T08:03:28.193Z</time></trkpt><trkpt lat="45.858267" lon="11.6580122"><ele>162.0</ele><time>2026-04-26T08:03:29.195Z</time></trkpt><trkpt lat="45.8583484" lon="11.6580036"><ele>162.0</ele><time>2026-04-26T08:03:30.194Z</time></trkpt><trkpt lat="45.8584379" lon="11.6579709"><ele>162.0</ele><time>2026-04-26T08:03:31.194Z</time></trkpt><trkpt lat="45.8585415" lon="11.6579132"><ele>162.0</ele><time>2026-04-26T08:03:32.195Z</time></trkpt><trkpt lat="45.8586511" lon="11.6578824"><ele>159.79999999999998</ele><time>2026-04-26T08:03:33.195Z</time></trkpt><trkpt lat="45.8587575" lon="11.6578712"><ele>157.6</ele><time>2026-04-26T08:03:34.192Z</time></trkpt><trkpt lat="45.8588529" lon="11.6578563"><ele>155.39999999999998</ele><time>2026-04-26T08:03:35.193Z</time></trkpt><trkpt lat="45.8589365" lon="11.6578308"><ele>153.2</ele><time>2026-04-26T08:03:36.193Z</time></trkpt><trkpt lat="45.8590157" lon="11.6577973"><ele>151.0</ele><time>2026-04-26T08:03:37.192Z</time></trkpt><trkpt lat="45.8590901" lon="11.6577511"><ele>152.16666666666669</ele><time>2026-04-26T08:03:38.195Z</time></trkpt><trkpt lat="45.8591581" lon="11.6576836"><ele>153.33333333333334</ele><time>2026-04-26T08:03:39.192Z</time></trkpt><trkpt lat="45.8592204" lon="11.6576025"><ele>154.5</ele><time>2026-04-26T08:03:40.193Z</time></trkpt><trkpt lat="45.8592733" lon="11.6575185"><ele>155.66666666666666</ele><time>2026-04-26T08:03:41.194Z</time></trkpt><trkpt lat="45.8593183" lon="11.6574318"><ele>156.83333333333331</ele><time>2026-04-26T08:03:42.194Z</time></trkpt><trkpt lat="45.8593592" lon="11.6573413"><ele>158.0</ele><time>2026-04-26T08:03:43.193Z</time></trkpt><trkpt lat="45.8594375" lon="11.6571545"><ele>158.0</ele><time>2026-04-26T08:03:45.194Z</time></trkpt><trkpt lat="45.8594845" lon="11.6570523"><ele>158.0</ele><time>2026-04-26T08:03:46.193Z</time></trkpt><trkpt lat="45.8595364" lon="11.6569448"><ele>158.0</ele><time>2026-04-26T08:03:47.194Z</time></trkpt><trkpt lat="45.8595926" lon="11.6568327"><ele>158.0</ele><time>2026-04-26T08:03:48.192Z</time></trkpt><trkpt lat="45.859659" lon="11.6567302"><ele>158.0</ele><time>2026-04-26T08:03:49.193Z</time></trkpt><trkpt lat="45.8597418" lon="11.6566567"><ele>160.16666666666666</ele><time>2026-04-26T08:03:50.193Z</time></trkpt><trkpt lat="45.8598265" lon="11.6566095"><ele>162.33333333333331</ele><time>2026-04-26T08:03:51.193Z</time></trkpt><trkpt lat="45.8598904" lon="11.6565825"><ele>164.5</ele><time>2026-04-26T08:03:52.194Z</time></trkpt><trkpt lat="45.8599713" lon="11.656536"><ele>166.66666666666666</ele><time>2026-04-26T08:03:54.193Z</time></trkpt><trkpt lat="45.860032" lon="11.6565119"><ele>168.83333333333334</ele><time>2026-04-26T08:03:56.194Z</time></trkpt><trkpt lat="45.8601473" lon="11.656451"><ele>171.0</ele><time>2026-04-26T08:03:58.195Z</time></trkpt><trkpt lat="45.8602286" lon="11.6563916"><ele>171.20000000000002</ele><time>2026-04-26T08:03:59.196Z</time></trkpt><trkpt lat="45.8603095" lon="11.6563247"><ele>171.4</ele><time>2026-04-26T08:04:00.193Z</time></trkpt><trkpt lat="45.8603847" lon="11.6562675"><ele>171.6</ele><time>2026-04-26T08:04:01.191Z</time></trkpt><trkpt lat="45.8604618" lon="11.6562125"><ele>171.8</ele><time>2026-04-26T08:04:02.192Z</time></trkpt><trkpt lat="45.8605426" lon="11.6561522"><ele>172.0</ele><time>2026-04-26T08:04:03.193Z</time></trkpt><trkpt lat="45.8606282" lon="11.6560796"><ele>174.39999999999998</ele><time>2026-04-26T08:04:04.196Z</time></trkpt><trkpt lat="45.8607851" lon="11.655947"><ele>176.79999999999998</ele><time>2026-04-26T08:04:06.196Z</time></trkpt><trkpt lat="45.8608536" lon="11.6558895"><ele>179.2</ele><time>2026-04-26T08:04:07.195Z</time></trkpt><trkpt lat="45.8609186" lon="11.6558339"><ele>181.6</ele><time>2026-04-26T08:04:08.195Z</time></trkpt><trkpt lat="45.8609793" lon="11.6557714"><ele>184.0</ele><time>2026-04-26T08:04:09.196Z</time></trkpt><trkpt lat="45.8610336" lon="11.6556945"><ele>185.5</ele><time>2026-04-26T08:04:10.197Z</time></trkpt><trkpt lat="45.8610731" lon="11.6556066"><ele>187.0</ele><time>2026-04-26T08:04:11.196Z</time></trkpt><trkpt lat="45.8611019" lon="11.6555129"><ele>188.5</ele><time>2026-04-26T08:04:12.196Z</time></trkpt><trkpt lat="45.861124" lon="11.6554094"><ele>190.0</ele><time>2026-04-26T08:04:13.197Z</time></trkpt><trkpt lat="45.8611412" lon="11.6553"><ele>191.49999999999997</ele><time>2026-04-26T08:04:14.197Z</time></trkpt><trkpt lat="45.8611567" lon="11.6551828"><ele>193.0</ele><time>2026-04-26T08:04:15.196Z</time></trkpt><trkpt lat="45.8611746" lon="11.6550543"><ele>192.99999999999997</ele><time>2026-04-26T08:04:16.196Z</time></trkpt><trkpt lat="45.8612069" lon="11.6549197"><ele>193.0</ele><time>2026-04-26T08:04:17.197Z</time></trkpt><trkpt lat="45.8612595" lon="11.6548022"><ele>193.0</ele><time>2026-04-26T08:04:18.196Z</time></trkpt><trkpt lat="45.8613209" lon="11.6547131"><ele>193.0</ele><time>2026-04-26T08:04:19.195Z</time></trkpt><trkpt lat="45.8613778" lon="11.6546346"><ele>192.99999999999997</ele><time>2026-04-26T08:04:20.196Z</time></trkpt><trkpt lat="45.8614289" lon="11.6545559"><ele>193.0</ele><time>2026-04-26T08:04:21.195Z</time></trkpt><trkpt lat="45.86147" lon="11.6544637"><ele>193.2</ele><time>2026-04-26T08:04:22.197Z</time></trkpt><trkpt lat="45.8615013" lon="11.6543489"><ele>193.4</ele><time>2026-04-26T08:04:23.195Z</time></trkpt><trkpt lat="45.8615212" lon="11.6542309"><ele>193.6</ele><time>2026-04-26T08:04:24.193Z</time></trkpt><trkpt lat="45.8615324" lon="11.6541197"><ele>193.79999999999998</ele><time>2026-04-26T08:04:25.192Z</time></trkpt><trkpt lat="45.8615681" lon="11.6538549"><ele>194.0</ele><time>2026-04-26T08:04:27.191Z</time></trkpt><trkpt lat="45.861591" lon="11.6537055"><ele>194.0</ele><time>2026-04-26T08:04:28.191Z</time></trkpt><trkpt lat="45.8616087" lon="11.6535686"><ele>194.0</ele><time>2026-04-26T08:04:29.194Z</time></trkpt><trkpt lat="45.8616265" lon="11.6534292"><ele>194.0</ele><time>2026-04-26T08:04:30.196Z</time></trkpt><trkpt lat="45.8616527" lon="11.6532824"><ele>194.0</ele><time>2026-04-26T08:04:31.193Z</time></trkpt><trkpt lat="45.8616885" lon="11.6531305"><ele>194.0</ele><time>2026-04-26T08:04:32.193Z</time></trkpt><trkpt lat="45.8617257" lon="11.6529838"><ele>194.0</ele><time>2026-04-26T08:04:33.193Z</time></trkpt><trkpt lat="45.8617619" lon="11.6528462"><ele>194.0</ele><time>2026-04-26T08:04:34.192Z</time></trkpt><trkpt lat="45.8617967" lon="11.652713"><ele>194.0</ele><time>2026-04-26T08:04:35.192Z</time></trkpt><trkpt lat="45.8618296" lon="11.6525733"><ele>194.0</ele><time>2026-04-26T08:04:36.192Z</time></trkpt><trkpt lat="45.861868" lon="11.6524327"><ele>194.0</ele><time>2026-04-26T08:04:37.192Z</time></trkpt><trkpt lat="45.8619281" lon="11.6523042"><ele>198.25</ele><time>2026-04-26T08:04:38.192Z</time></trkpt><trkpt lat="45.8620133" lon="11.6521836"><ele>202.5</ele><time>2026-04-26T08:04:39.193Z</time></trkpt><trkpt lat="45.8621244" lon="11.6520636"><ele>206.75</ele><time>2026-04-26T08:04:40.191Z</time></trkpt><trkpt lat="45.8622527" lon="11.6519323"><ele>211.0</ele><time>2026-04-26T08:04:41.191Z</time></trkpt><trkpt lat="45.8623969" lon="11.6517763"><ele>212.33333333333331</ele><time>2026-04-26T08:04:42.192Z</time></trkpt><trkpt lat="45.8625622" lon="11.6516036"><ele>213.66666666666669</ele><time>2026-04-26T08:04:43.19Z</time></trkpt><trkpt lat="45.8627308" lon="11.6514326"><ele>215.0</ele><time>2026-04-26T08:04:44.19Z</time></trkpt><trkpt lat="45.8628983" lon="11.6512585"><ele>216.0</ele><time>2026-04-26T08:04:45.189Z</time></trkpt><trkpt lat="45.8630659" lon="11.6510851"><ele>217.0</ele><time>2026-04-26T08:04:46.19Z</time></trkpt><trkpt lat="45.863369" lon="11.650766"><ele>220.33333333333331</ele><time>2026-04-26T08:04:48.19Z</time></trkpt><trkpt lat="45.8635075" lon="11.6506044"><ele>223.66666666666669</ele><time>2026-04-26T08:04:49.188Z</time></trkpt><trkpt lat="45.8636393" lon="11.6504293"><ele>227.0</ele><time>2026-04-26T08:04:50.19Z</time></trkpt><trkpt lat="45.8637635" lon="11.650249"><ele>227.0</ele><time>2026-04-26T08:04:51.188Z</time></trkpt><trkpt lat="45.8638795" lon="11.6500829"><ele>227.0</ele><time>2026-04-26T08:04:52.189Z</time></trkpt><trkpt lat="45.8639864" lon="11.6499285"><ele>227.0</ele><time>2026-04-26T08:04:53.192Z</time></trkpt><trkpt lat="45.8640929" lon="11.6497899"><ele>227.0</ele><time>2026-04-26T08:04:54.192Z</time></trkpt><trkpt lat="45.8642132" lon="11.649659"><ele>227.0</ele><time>2026-04-26T08:04:55.19Z</time></trkpt><trkpt lat="45.8643476" lon="11.649568"><ele>227.0</ele><time>2026-04-26T08:04:56.192Z</time></trkpt><trkpt lat="45.8645099" lon="11.6495046"><ele>232.0</ele><time>2026-04-26T08:04:57.191Z</time></trkpt><trkpt lat="45.8646847" lon="11.6494448"><ele>237.0</ele><time>2026-04-26T08:04:58.191Z</time></trkpt><trkpt lat="45.8648492" lon="11.6494001"><ele>242.0</ele><time>2026-04-26T08:04:59.191Z</time></trkpt><trkpt lat="45.8650027" lon="11.6493781"><ele>237.75</ele><time>2026-04-26T08:05:00.19Z</time></trkpt><trkpt lat="45.8651436" lon="11.6493529"><ele>233.5</ele><time>2026-04-26T08:05:01.19Z</time></trkpt><trkpt lat="45.8652642" lon="11.6493187"><ele>229.25</ele><time>2026-04-26T08:05:02.191Z</time></trkpt><trkpt lat="45.8653573" lon="11.6492738"><ele>225.0</ele><time>2026-04-26T08:05:03.191Z</time></trkpt><trkpt lat="45.8654383" lon="11.6491821"><ele>225.0</ele><time>2026-04-26T08:05:04.193Z</time></trkpt><trkpt lat="45.8655252" lon="11.6490526"><ele>225.0</ele><time>2026-04-26T08:05:05.192Z</time></trkpt><trkpt lat="45.8656284" lon="11.648891"><ele>225.0</ele><time>2026-04-26T08:05:06.191Z</time></trkpt><trkpt lat="45.865738" lon="11.6487235"><ele>225.0</ele><time>2026-04-26T08:05:07.189Z</time></trkpt><trkpt lat="45.8658879" lon="11.6483922"><ele>229.0</ele><time>2026-04-26T08:05:09.19Z</time></trkpt><trkpt lat="45.8659474" lon="11.6482394"><ele>233.0</ele><time>2026-04-26T08:05:10.193Z</time></trkpt><trkpt lat="45.8660006" lon="11.6481573"><ele>237.0</ele><time>2026-04-26T08:05:10.795Z</time></trkpt><trkpt lat="45.866154" lon="11.6479727"><ele>241.0</ele><time>2026-04-26T08:05:12.191Z</time></trkpt><trkpt lat="45.8662409" lon="11.6478444"><ele>239.0</ele><time>2026-04-26T08:05:13.191Z</time></trkpt><trkpt lat="45.8662941" lon="11.6477"><ele>237.00000000000003</ele><time>2026-04-26T08:05:14.189Z</time></trkpt><trkpt lat="45.8663288" lon="11.6475314"><ele>235.00000000000003</ele><time>2026-04-26T08:05:15.189Z</time></trkpt><trkpt lat="45.8663618" lon="11.6473831"><ele>233.0</ele><time>2026-04-26T08:05:16.189Z</time></trkpt><trkpt lat="45.8664066" lon="11.6472738"><ele>231.0</ele><time>2026-04-26T08:05:17.193Z</time></trkpt><trkpt lat="45.8664674" lon="11.6471887"><ele>231.0</ele><time>2026-04-26T08:05:18.193Z</time></trkpt><trkpt lat="45.8665276" lon="11.647111"><ele>231.0</ele><time>2026-04-26T08:05:19.193Z</time></trkpt><trkpt lat="45.8665886" lon="11.647033"><ele>231.0</ele><time>2026-04-26T08:05:20.193Z</time></trkpt><trkpt lat="45.8666447" lon="11.6469512"><ele>231.0</ele><time>2026-04-26T08:05:21.197Z</time></trkpt><trkpt lat="45.8666949" lon="11.6468732"><ele>231.0</ele><time>2026-04-26T08:05:22.193Z</time></trkpt><trkpt lat="45.8667331" lon="11.6467961"><ele>231.0</ele><time>2026-04-26T08:05:23.194Z</time></trkpt><trkpt lat="45.8667833" lon="11.6466459"><ele>235.0</ele><time>2026-04-26T08:05:25.194Z</time></trkpt><trkpt lat="45.8668731" lon="11.6466187"><ele>239.0</ele><time>2026-04-26T08:05:27.192Z</time></trkpt><trkpt lat="45.8669242" lon="11.6467976"><ele>243.0</ele><time>2026-04-26T08:05:29.193Z</time></trkpt><trkpt lat="45.8669186" lon="11.6470908"><ele>247.0</ele><time>2026-04-26T08:05:31.19Z</time></trkpt><trkpt lat="45.8669081" lon="11.6472185"><ele>251.57142857142858</ele><time>2026-04-26T08:05:32.192Z</time></trkpt><trkpt lat="45.8668988" lon="11.6473382"><ele>256.1428571428571</ele><time>2026-04-26T08:05:33.191Z</time></trkpt><trkpt lat="45.866891" lon="11.6474459"><ele>260.71428571428567</ele><time>2026-04-26T08:05:34.194Z</time></trkpt><trkpt lat="45.8668819" lon="11.6475425"><ele>265.2857142857143</ele><time>2026-04-26T08:05:35.193Z</time></trkpt><trkpt lat="45.8668633" lon="11.6476385"><ele>269.85714285714283</ele><time>2026-04-26T08:05:36.191Z</time></trkpt><trkpt lat="45.8668482" lon="11.6477302"><ele>274.4285714285714</ele><time>2026-04-26T08:05:37.192Z</time></trkpt><trkpt lat="45.8668295" lon="11.6478311"><ele>279.0</ele><time>2026-04-26T08:05:38.19Z</time></trkpt><trkpt lat="45.8668112" lon="11.6479217"><ele>284.5</ele><time>2026-04-26T08:05:39.189Z</time></trkpt><trkpt lat="45.8667865" lon="11.648012"><ele>290.0</ele><time>2026-04-26T08:05:40.192Z</time></trkpt><trkpt lat="45.8667463" lon="11.6481185"><ele>295.5</ele><time>2026-04-26T08:05:41.191Z</time></trkpt><trkpt lat="45.8667074" lon="11.6482238"><ele>301.0</ele><time>2026-04-26T08:05:42.192Z</time></trkpt><trkpt lat="45.8666682" lon="11.6483128"><ele>306.5</ele><time>2026-04-26T08:05:43.191Z</time></trkpt><trkpt lat="45.8666297" lon="11.6483982"><ele>312.0</ele><time>2026-04-26T08:05:44.195Z</time></trkpt><trkpt lat="45.8665804" lon="11.6484827"><ele>305.5</ele><time>2026-04-26T08:05:45.193Z</time></trkpt><trkpt lat="45.8665147" lon="11.6485641"><ele>299.0</ele><time>2026-04-26T08:05:46.191Z</time></trkpt><trkpt lat="45.8664402" lon="11.648632"><ele>292.5</ele><time>2026-04-26T08:05:47.193Z</time></trkpt><trkpt lat="45.8663735" lon="11.6487021"><ele>286.0</ele><time>2026-04-26T08:05:48.193Z</time></trkpt><trkpt lat="45.8663153" lon="11.6487998"><ele>279.5</ele><time>2026-04-26T08:05:49.193Z</time></trkpt><trkpt lat="45.8662759" lon="11.6489037"><ele>273.0</ele><time>2026-04-26T08:05:50.194Z</time></trkpt><trkpt lat="45.8662081" lon="11.6491153"><ele>273.0</ele><time>2026-04-26T08:05:52.198Z</time></trkpt><trkpt lat="45.8661531" lon="11.64921"><ele>273.0</ele><time>2026-04-26T08:05:53.195Z</time></trkpt><trkpt lat="45.8660991" lon="11.6492843"><ele>273.0</ele><time>2026-04-26T08:05:54.192Z</time></trkpt><trkpt lat="45.8660452" lon="11.6493647"><ele>273.0</ele><time>2026-04-26T08:05:55.191Z</time></trkpt><trkpt lat="45.8659917" lon="11.6494561"><ele>273.0</ele><time>2026-04-26T08:05:56.193Z</time></trkpt><trkpt lat="45.8659381" lon="11.6495523"><ele>273.0</ele><time>2026-04-26T08:05:57.192Z</time></trkpt><trkpt lat="45.8658919" lon="11.6496426"><ele>270.8333333333333</ele><time>2026-04-26T08:05:58.192Z</time></trkpt><trkpt lat="45.8658519" lon="11.6497265"><ele>268.6666666666667</ele><time>2026-04-26T08:05:59.192Z</time></trkpt><trkpt lat="45.8657895" lon="11.6498731"><ele>266.5</ele><time>2026-04-26T08:06:01.191Z</time></trkpt><trkpt lat="45.8657717" lon="11.6500057"><ele>264.33333333333337</ele><time>2026-04-26T08:06:03.19Z</time></trkpt><trkpt lat="45.8658515" lon="11.6500215"><ele>262.1666666666667</ele><time>2026-04-26T08:06:05.194Z</time></trkpt><trkpt lat="45.865902" lon="11.6499464"><ele>260.0</ele><time>2026-04-26T08:06:06.189Z</time></trkpt><trkpt lat="45.8659503" lon="11.6498166"><ele>262.6</ele><time>2026-04-26T08:06:07.19Z</time></trkpt><trkpt lat="45.8659984" lon="11.6496801"><ele>265.2</ele><time>2026-04-26T08:06:08.192Z</time></trkpt><trkpt lat="45.8660658" lon="11.6495669"><ele>267.8</ele><time>2026-04-26T08:06:09.191Z</time></trkpt><trkpt lat="45.866143" lon="11.6494967"><ele>270.4</ele><time>2026-04-26T08:06:10.191Z</time></trkpt><trkpt lat="45.8662266" lon="11.6494706"><ele>273.0</ele><time>2026-04-26T08:06:11.192Z</time></trkpt><trkpt lat="45.8663489" lon="11.6493288"><ele>273.0</ele><time>2026-04-26T08:06:13.191Z</time></trkpt><trkpt lat="45.8663654" lon="11.6492277"><ele>273.0</ele><time>2026-04-26T08:06:14.193Z</time></trkpt><trkpt lat="45.8663797" lon="11.6491278"><ele>273.0</ele><time>2026-04-26T08:06:15.192Z</time></trkpt><trkpt lat="45.8664054" lon="11.6490256"><ele>273.0</ele><time>2026-04-26T08:06:16.192Z</time></trkpt><trkpt lat="45.8664562" lon="11.6489445"><ele>273.0</ele><time>2026-04-26T08:06:17.192Z</time></trkpt><trkpt lat="45.8665303" lon="11.6488837"><ele>273.0</ele><time>2026-04-26T08:06:18.192Z</time></trkpt><trkpt lat="45.8666189" lon="11.6488431"><ele>273.0</ele><time>2026-04-26T08:06:19.192Z</time></trkpt><trkpt lat="45.8667082" lon="11.6488053"><ele>273.0</ele><time>2026-04-26T08:06:20.192Z</time></trkpt><trkpt lat="45.8667799" lon="11.648744"><ele>273.0</ele><time>2026-04-26T08:06:21.191Z</time></trkpt><trkpt lat="45.8668522" lon="11.6486685"><ele>273.0</ele><time>2026-04-26T08:06:22.191Z</time></trkpt><trkpt lat="45.8669125" lon="11.6485659"><ele>273.0</ele><time>2026-04-26T08:06:23.191Z</time></trkpt><trkpt lat="45.8669569" lon="11.6484619"><ele>273.0</ele><time>2026-04-26T08:06:24.192Z</time></trkpt><trkpt lat="45.8669945" lon="11.6483709"><ele>273.85714285714283</ele><time>2026-04-26T08:06:25.191Z</time></trkpt><trkpt lat="45.8670374" lon="11.6482922"><ele>274.7142857142857</ele><time>2026-04-26T08:06:26.192Z</time></trkpt><trkpt lat="45.8670859" lon="11.6482111"><ele>275.57142857142856</ele><time>2026-04-26T08:06:27.189Z</time></trkpt><trkpt lat="45.8671385" lon="11.6481253"><ele>276.42857142857144</ele><time>2026-04-26T08:06:28.19Z</time></trkpt><trkpt lat="45.8671818" lon="11.6480262"><ele>277.2857142857143</ele><time>2026-04-26T08:06:29.188Z</time></trkpt><trkpt lat="45.8671929" lon="11.6479221"><ele>278.1428571428571</ele><time>2026-04-26T08:06:30.189Z</time></trkpt><trkpt lat="45.8671921" lon="11.6478261"><ele>279.0</ele><time>2026-04-26T08:06:31.191Z</time></trkpt><trkpt lat="45.8672093" lon="11.6477317"><ele>279.0</ele><time>2026-04-26T08:06:32.192Z</time></trkpt><trkpt lat="45.8672928" lon="11.6475846"><ele>279.0</ele><time>2026-04-26T08:06:34.192Z</time></trkpt><trkpt lat="45.8673144" lon="11.6474962"><ele>279.0</ele><time>2026-04-26T08:06:35.191Z</time></trkpt><trkpt lat="45.8672988" lon="11.6474003"><ele>279.0</ele><time>2026-04-26T08:06:36.191Z</time></trkpt><trkpt lat="45.867274" lon="11.647296"><ele>279.0</ele><time>2026-04-26T08:06:37.191Z</time></trkpt><trkpt lat="45.8672724" lon="11.6471761"><ele>279.0</ele><time>2026-04-26T08:06:38.191Z</time></trkpt><trkpt lat="45.8672934" lon="11.6470742"><ele>279.0</ele><time>2026-04-26T08:06:39.191Z</time></trkpt><trkpt lat="45.867345" lon="11.6469884"><ele>279.0</ele><time>2026-04-26T08:06:41.19Z</time></trkpt><trkpt lat="45.8673875" lon="11.6471105"><ele>279.0</ele><time>2026-04-26T08:06:44.19Z</time></trkpt><trkpt lat="45.867376" lon="11.6472296"><ele>279.0</ele><time>2026-04-26T08:06:45.191Z</time></trkpt><trkpt lat="45.8673754" lon="11.6473451"><ele>279.0</ele><time>2026-04-26T08:06:46.191Z</time></trkpt><trkpt lat="45.8673932" lon="11.6474364"><ele>279.0</ele><time>2026-04-26T08:06:47.19Z</time></trkpt><trkpt lat="45.8673933" lon="11.6475366"><ele>279.0</ele><time>2026-04-26T08:06:48.191Z</time></trkpt><trkpt lat="45.8673574" lon="11.6476477"><ele>279.0</ele><time>2026-04-26T08:06:49.192Z</time></trkpt><trkpt lat="45.8673239" lon="11.6477821"><ele>279.0</ele><time>2026-04-26T08:06:50.191Z</time></trkpt><trkpt lat="45.8673084" lon="11.647946"><ele>279.0</ele><time>2026-04-26T08:06:51.189Z</time></trkpt><trkpt lat="45.8672826" lon="11.6480844"><ele>279.0</ele><time>2026-04-26T08:06:52.188Z</time></trkpt><trkpt lat="45.8672164" lon="11.6481983"><ele>287.25</ele><time>2026-04-26T08:06:53.189Z</time></trkpt><trkpt lat="45.8671125" lon="11.6484514"><ele>295.5</ele><time>2026-04-26T08:06:55.191Z</time></trkpt><trkpt lat="45.8670995" lon="11.6486173"><ele>303.75</ele><time>2026-04-26T08:06:56.191Z</time></trkpt><trkpt lat="45.8670654" lon="11.6487419"><ele>312.0</ele><time>2026-04-26T08:06:57.19Z</time></trkpt><trkpt lat="45.8669961" lon="11.6488402"><ele>320.5</ele><time>2026-04-26T08:06:58.19Z</time></trkpt><trkpt lat="45.8668849" lon="11.6489142"><ele>329.0</ele><time>2026-04-26T08:06:59.19Z</time></trkpt><trkpt lat="45.8667626" lon="11.6490161"><ele>337.5</ele><time>2026-04-26T08:07:00.191Z</time></trkpt><trkpt lat="45.8666696" lon="11.6491143"><ele>346.0</ele><time>2026-04-26T08:07:01.192Z</time></trkpt><trkpt lat="45.8666053" lon="11.649207"><ele>341.66666666666663</ele><time>2026-04-26T08:07:02.192Z</time></trkpt><trkpt lat="45.8665865" lon="11.649318"><ele>337.3333333333333</ele><time>2026-04-26T08:07:03.191Z</time></trkpt><trkpt lat="45.8666003" lon="11.6494591"><ele>333.0</ele><time>2026-04-26T08:07:04.192Z</time></trkpt><trkpt lat="45.8666166" lon="11.6495882"><ele>328.6666666666667</ele><time>2026-04-26T08:07:05.19Z</time></trkpt><trkpt lat="45.8666043" lon="11.6496883"><ele>324.33333333333337</ele><time>2026-04-26T08:07:06.191Z</time></trkpt><trkpt lat="45.866548" lon="11.6497386"><ele>320.0</ele><time>2026-04-26T08:07:07.19Z</time></trkpt><trkpt lat="45.8664555" lon="11.6497843"><ele>320.0</ele><time>2026-04-26T08:07:08.191Z</time></trkpt><trkpt lat="45.866361" lon="11.6498301"><ele>320.0</ele><time>2026-04-26T08:07:09.189Z</time></trkpt><trkpt lat="45.8662873" lon="11.6499057"><ele>320.0</ele><time>2026-04-26T08:07:10.189Z</time></trkpt><trkpt lat="45.8662372" lon="11.6499917"><ele>320.0</ele><time>2026-04-26T08:07:11.192Z</time></trkpt><trkpt lat="45.8661971" lon="11.650067"><ele>320.0</ele><time>2026-04-26T08:07:12.191Z</time></trkpt><trkpt lat="45.8661491" lon="11.6501488"><ele>320.0</ele><time>2026-04-26T08:07:13.19Z</time></trkpt><trkpt lat="45.8660745" lon="11.6502403"><ele>319.75</ele><time>2026-04-26T08:07:14.191Z</time></trkpt><trkpt lat="45.8659041" lon="11.6504902"><ele>319.5</ele><time>2026-04-26T08:07:16.194Z</time></trkpt><trkpt lat="45.8658087" lon="11.6505634"><ele>319.25</ele><time>2026-04-26T08:07:17.187Z</time></trkpt><trkpt lat="45.8657274" lon="11.6506361"><ele>319.0</ele><time>2026-04-26T08:07:18.187Z</time></trkpt><trkpt lat="45.8656349" lon="11.650701"><ele>319.0</ele><time>2026-04-26T08:07:19.187Z</time></trkpt><trkpt lat="45.8655183" lon="11.6507291"><ele>319.0</ele><time>2026-04-26T08:07:20.19Z</time></trkpt><trkpt lat="45.8654208" lon="11.6507513"><ele>319.0</ele><time>2026-04-26T08:07:21.19Z</time></trkpt><trkpt lat="45.8653414" lon="11.6507708"><ele>319.0</ele><time>2026-04-26T08:07:22.192Z</time></trkpt><trkpt lat="45.8652743" lon="11.6508146"><ele>319.0</ele><time>2026-04-26T08:07:23.193Z</time></trkpt><trkpt lat="45.8652125" lon="11.6509029"><ele>319.0</ele><time>2026-04-26T08:07:24.19Z</time></trkpt><trkpt lat="45.8651686" lon="11.6510428"><ele>319.0</ele><time>2026-04-26T08:07:25.191Z</time></trkpt><trkpt lat="45.8651402" lon="11.6511621"><ele>319.0</ele><time>2026-04-26T08:07:26.19Z</time></trkpt><trkpt lat="45.8650986" lon="11.6512447"><ele>319.0</ele><time>2026-04-26T08:07:27.192Z</time></trkpt><trkpt lat="45.8650162" lon="11.6512745"><ele>319.0</ele><time>2026-04-26T08:07:28.192Z</time></trkpt><trkpt lat="45.864901" lon="11.6513012"><ele>322.0</ele><time>2026-04-26T08:07:29.193Z</time></trkpt><trkpt lat="45.8647808" lon="11.6513537"><ele>325.0</ele><time>2026-04-26T08:07:30.189Z</time></trkpt><trkpt lat="45.8646668" lon="11.65141"><ele>328.0</ele><time>2026-04-26T08:07:31.19Z</time></trkpt><trkpt lat="45.8645881" lon="11.6514495"><ele>331.0</ele><time>2026-04-26T08:07:31.99Z</time></trkpt><trkpt lat="45.8644899" lon="11.6515251"><ele>334.0</ele><time>2026-04-26T08:07:33.191Z</time></trkpt><trkpt lat="45.8644286" lon="11.6516266"><ele>334.0</ele><time>2026-04-26T08:07:34.192Z</time></trkpt><trkpt lat="45.8643853" lon="11.6517678"><ele>334.0</ele><time>2026-04-26T08:07:35.191Z</time></trkpt><trkpt lat="45.8642919" lon="11.65198"><ele>334.0</ele><time>2026-04-26T08:07:37.191Z</time></trkpt><trkpt lat="45.8642114" lon="11.6520189"><ele>334.0</ele><time>2026-04-26T08:07:38.191Z</time></trkpt><trkpt lat="45.8641131" lon="11.652055"><ele>332.4</ele><time>2026-04-26T08:07:39.194Z</time></trkpt><trkpt lat="45.8640306" lon="11.6521241"><ele>330.79999999999995</ele><time>2026-04-26T08:07:40.19Z</time></trkpt><trkpt lat="45.8639746" lon="11.6521931"><ele>329.20000000000005</ele><time>2026-04-26T08:07:41.191Z</time></trkpt><trkpt lat="45.8639525" lon="11.6523255"><ele>327.6</ele><time>2026-04-26T08:07:43.19Z</time></trkpt><trkpt lat="45.8640371" lon="11.6523411"><ele>326.0</ele><time>2026-04-26T08:07:45.191Z</time></trkpt><trkpt lat="45.8641382" lon="11.6522096"><ele>326.0</ele><time>2026-04-26T08:07:47.192Z</time></trkpt><trkpt lat="45.8642144" lon="11.652151"><ele>326.0</ele><time>2026-04-26T08:07:48.19Z</time></trkpt><trkpt lat="45.8643071" lon="11.6521317"><ele>326.0</ele><time>2026-04-26T08:07:49.192Z</time></trkpt><trkpt lat="45.8643791" lon="11.6520802"><ele>326.0</ele><time>2026-04-26T08:07:50.192Z</time></trkpt><trkpt lat="45.8644303" lon="11.6519601"><ele>326.0</ele><time>2026-04-26T08:07:51.195Z</time></trkpt><trkpt lat="45.8644842" lon="11.6518315"><ele>327.6</ele><time>2026-04-26T08:07:52.192Z</time></trkpt><trkpt lat="45.8645512" lon="11.6517431"><ele>329.20000000000005</ele><time>2026-04-26T08:07:53.191Z</time></trkpt><trkpt lat="45.8646435" lon="11.6516987"><ele>330.79999999999995</ele><time>2026-04-26T08:07:54.191Z</time></trkpt><trkpt lat="45.8647588" lon="11.6516871"><ele>332.4</ele><time>2026-04-26T08:07:55.191Z</time></trkpt><trkpt lat="45.8648662" lon="11.6516461"><ele>334.0</ele><time>2026-04-26T08:07:56.191Z</time></trkpt><trkpt lat="45.8650698" lon="11.6515479"><ele>339.16666666666663</ele><time>2026-04-26T08:07:58.191Z</time></trkpt><trkpt lat="45.865176" lon="11.6515553"><ele>344.3333333333333</ele><time>2026-04-26T08:07:59.19Z</time></trkpt><trkpt lat="45.8652653" lon="11.6515676"><ele>349.5</ele><time>2026-04-26T08:08:00.191Z</time></trkpt><trkpt lat="45.8653275" lon="11.6515358"><ele>354.6666666666667</ele><time>2026-04-26T08:08:01.19Z</time></trkpt><trkpt lat="45.8653626" lon="11.6514599"><ele>359.83333333333337</ele><time>2026-04-26T08:08:02.19Z</time></trkpt><trkpt lat="45.8653742" lon="11.6513524"><ele>365.0</ele><time>2026-04-26T08:08:03.192Z</time></trkpt><trkpt lat="45.865396" lon="11.6512586"><ele>365.0</ele><time>2026-04-26T08:08:04.195Z</time></trkpt><trkpt lat="45.8654421" lon="11.6511821"><ele>365.0</ele><time>2026-04-26T08:08:05.19Z</time></trkpt><trkpt lat="45.8655314" lon="11.6511259"><ele>365.0</ele><time>2026-04-26T08:08:06.19Z</time></trkpt><trkpt lat="45.8656549" lon="11.6510812"><ele>365.0</ele><time>2026-04-26T08:08:07.191Z</time></trkpt><trkpt lat="45.8657916" lon="11.6510249"><ele>365.0</ele><time>2026-04-26T08:08:08.192Z</time></trkpt><trkpt lat="45.8659042" lon="11.6509599"><ele>365.0</ele><time>2026-04-26T08:08:09.193Z</time></trkpt><trkpt lat="45.866002" lon="11.6509049"><ele>365.0</ele><time>2026-04-26T08:08:10.192Z</time></trkpt><trkpt lat="45.8661094" lon="11.650868"><ele>365.0</ele><time>2026-04-26T08:08:11.192Z</time></trkpt><trkpt lat="45.8662089" lon="11.6508067"><ele>365.0</ele><time>2026-04-26T08:08:12.191Z</time></trkpt><trkpt lat="45.8662963" lon="11.6506848"><ele>365.0</ele><time>2026-04-26T08:08:13.191Z</time></trkpt><trkpt lat="45.8663859" lon="11.6505467"><ele>365.0</ele><time>2026-04-26T08:08:14.194Z</time></trkpt><trkpt lat="45.8664711" lon="11.6504408"><ele>365.0</ele><time>2026-04-26T08:08:15.192Z</time></trkpt><trkpt lat="45.8665541" lon="11.6503583"><ele>365.0</ele><time>2026-04-26T08:08:16.193Z</time></trkpt><trkpt lat="45.8666605" lon="11.6503153"><ele>365.0</ele><time>2026-04-26T08:08:17.193Z</time></trkpt><trkpt lat="45.8668941" lon="11.6502805"><ele>368.0</ele><time>2026-04-26T08:08:19.191Z</time></trkpt><trkpt lat="45.8669758" lon="11.6502623"><ele>371.0</ele><time>2026-04-26T08:08:20.192Z</time></trkpt><trkpt lat="45.8670419" lon="11.6502232"><ele>374.0</ele><time>2026-04-26T08:08:21.189Z</time></trkpt><trkpt lat="45.86708" lon="11.6501278"><ele>377.0</ele><time>2026-04-26T08:08:22.192Z</time></trkpt><trkpt lat="45.8670939" lon="11.6499848"><ele>380.0</ele><time>2026-04-26T08:08:23.193Z</time></trkpt><trkpt lat="45.8671018" lon="11.6498093"><ele>380.0</ele><time>2026-04-26T08:08:24.192Z</time></trkpt><trkpt lat="45.8671157" lon="11.649659"><ele>380.0</ele><time>2026-04-26T08:08:25.194Z</time></trkpt><trkpt lat="45.8671376" lon="11.6495385"><ele>380.0</ele><time>2026-04-26T08:08:26.193Z</time></trkpt><trkpt lat="45.8671901" lon="11.6494604"><ele>380.0</ele><time>2026-04-26T08:08:27.193Z</time></trkpt><trkpt lat="45.8672697" lon="11.6494153"><ele>380.0</ele><time>2026-04-26T08:08:28.193Z</time></trkpt><trkpt lat="45.8673467" lon="11.6493721"><ele>380.0</ele><time>2026-04-26T08:08:29.193Z</time></trkpt><trkpt lat="45.8674029" lon="11.6492827"><ele>371.5</ele><time>2026-04-26T08:08:30.191Z</time></trkpt><trkpt lat="45.8674484" lon="11.6491537"><ele>363.0</ele><time>2026-04-26T08:08:31.191Z</time></trkpt><trkpt lat="45.8674946" lon="11.6490095"><ele>354.5</ele><time>2026-04-26T08:08:32.192Z</time></trkpt><trkpt lat="45.8675681" lon="11.6488594"><ele>346.0</ele><time>2026-04-26T08:08:33.191Z</time></trkpt><trkpt lat="45.8676759" lon="11.6487007"><ele>356.3333333333333</ele><time>2026-04-26T08:08:34.193Z</time></trkpt><trkpt lat="45.8678049" lon="11.6485191"><ele>366.6666666666667</ele><time>2026-04-26T08:08:35.194Z</time></trkpt><trkpt lat="45.8679317" lon="11.6483459"><ele>377.0</ele><time>2026-04-26T08:08:36.194Z</time></trkpt><trkpt lat="45.8680431" lon="11.6481928"><ele>377.0</ele><time>2026-04-26T08:08:37.192Z</time></trkpt><trkpt lat="45.8681402" lon="11.6480522"><ele>377.0</ele><time>2026-04-26T08:08:38.192Z</time></trkpt><trkpt lat="45.8683266" lon="11.6477456"><ele>377.0</ele><time>2026-04-26T08:08:40.191Z</time></trkpt><trkpt lat="45.8684005" lon="11.6476019"><ele>378.0</ele><time>2026-04-26T08:08:41.193Z</time></trkpt><trkpt lat="45.868463" lon="11.6474811"><ele>379.0</ele><time>2026-04-26T08:08:42.192Z</time></trkpt><trkpt lat="45.868525" lon="11.6473922"><ele>380.0</ele><time>2026-04-26T08:08:43.192Z</time></trkpt><trkpt lat="45.8686077" lon="11.6473595"><ele>381.0</ele><time>2026-04-26T08:08:44.193Z</time></trkpt><trkpt lat="45.8687251" lon="11.6473572"><ele>382.0</ele><time>2026-04-26T08:08:45.192Z</time></trkpt><trkpt lat="45.8688671" lon="11.6473614"><ele>382.0</ele><time>2026-04-26T08:08:46.191Z</time></trkpt><trkpt lat="45.8690225" lon="11.6473647"><ele>382.0</ele><time>2026-04-26T08:08:47.192Z</time></trkpt><trkpt lat="45.8691609" lon="11.6473694"><ele>382.0</ele><time>2026-04-26T08:08:48.191Z</time></trkpt><trkpt lat="45.8692778" lon="11.6473829"><ele>382.0</ele><time>2026-04-26T08:08:49.19Z</time></trkpt><trkpt lat="45.8693702" lon="11.6473815"><ele>382.0</ele><time>2026-04-26T08:08:50.191Z</time></trkpt><trkpt lat="45.8694402" lon="11.6473563"><ele>382.0</ele><time>2026-04-26T08:08:51.19Z</time></trkpt><trkpt lat="45.8695214" lon="11.6473762"><ele>382.0</ele><time>2026-04-26T08:08:53.193Z</time></trkpt><trkpt lat="45.8694915" lon="11.6474705"><ele>382.0</ele><time>2026-04-26T08:08:55.188Z</time></trkpt><trkpt lat="45.8693479" lon="11.6474722"><ele>382.0</ele><time>2026-04-26T08:08:57.189Z</time></trkpt><trkpt lat="45.869227" lon="11.6474608"><ele>382.0</ele><time>2026-04-26T08:08:58.191Z</time></trkpt><trkpt lat="45.8690919" lon="11.6474667"><ele>382.0</ele><time>2026-04-26T08:08:59.19Z</time></trkpt><trkpt lat="45.8688573" lon="11.6475296"><ele>382.0</ele><time>2026-04-26T08:09:01.192Z</time></trkpt><trkpt lat="45.8687696" lon="11.647571"><ele>382.0</ele><time>2026-04-26T08:09:02.193Z</time></trkpt><trkpt lat="45.8686958" lon="11.64764"><ele>382.0</ele><time>2026-04-26T08:09:03.192Z</time></trkpt><trkpt lat="45.8686412" lon="11.6477594"><ele>382.0</ele><time>2026-04-26T08:09:04.193Z</time></trkpt><trkpt lat="45.8685891" lon="11.647923"><ele>382.0</ele><time>2026-04-26T08:09:05.192Z</time></trkpt><trkpt lat="45.8685217" lon="11.6481116"><ele>380.3333333333333</ele><time>2026-04-26T08:09:06.191Z</time></trkpt><trkpt lat="45.8684323" lon="11.6483091"><ele>378.6666666666667</ele><time>2026-04-26T08:09:07.192Z</time></trkpt><trkpt lat="45.8683206" lon="11.6485087"><ele>377.0</ele><time>2026-04-26T08:09:08.192Z</time></trkpt><trkpt lat="45.8682094" lon="11.6487064"><ele>386.75</ele><time>2026-04-26T08:09:09.192Z</time></trkpt><trkpt lat="45.8681057" lon="11.6488837"><ele>396.5</ele><time>2026-04-26T08:09:10.193Z</time></trkpt><trkpt lat="45.8680096" lon="11.6490334"><ele>406.25</ele><time>2026-04-26T08:09:11.192Z</time></trkpt><trkpt lat="45.8679265" lon="11.6491689"><ele>416.0</ele><time>2026-04-26T08:09:12.191Z</time></trkpt><trkpt lat="45.8678659" lon="11.6493072"><ele>416.0</ele><time>2026-04-26T08:09:13.192Z</time></trkpt><trkpt lat="45.8678322" lon="11.6494582"><ele>416.0</ele><time>2026-04-26T08:09:14.194Z</time></trkpt><trkpt lat="45.8678142" lon="11.6496139"><ele>416.0</ele><time>2026-04-26T08:09:15.193Z</time></trkpt><trkpt lat="45.8677864" lon="11.6497437"><ele>416.0</ele><time>2026-04-26T08:09:16.192Z</time></trkpt><trkpt lat="45.867738" lon="11.6498334"><ele>416.0</ele><time>2026-04-26T08:09:17.191Z</time></trkpt><trkpt lat="45.8676815" lon="11.6498816"><ele>421.4</ele><time>2026-04-26T08:09:18.193Z</time></trkpt><trkpt lat="45.8676031" lon="11.6499682"><ele>426.8</ele><time>2026-04-26T08:09:20.19Z</time></trkpt><trkpt lat="45.8677621" lon="11.6499574"><ele>432.19999999999993</ele><time>2026-04-26T08:09:24.191Z</time></trkpt><trkpt lat="45.8678208" lon="11.649856"><ele>437.59999999999997</ele><time>2026-04-26T08:09:25.194Z</time></trkpt><trkpt lat="45.867853" lon="11.6497347"><ele>443.0</ele><time>2026-04-26T08:09:26.192Z</time></trkpt><trkpt lat="45.8678735" lon="11.6496056"><ele>443.0</ele><time>2026-04-26T08:09:27.193Z</time></trkpt><trkpt lat="45.8679066" lon="11.6494741"><ele>443.0</ele><time>2026-04-26T08:09:28.192Z</time></trkpt><trkpt lat="45.8679787" lon="11.6493498"><ele>443.0</ele><time>2026-04-26T08:09:29.193Z</time></trkpt><trkpt lat="45.8680884" lon="11.6492172"><ele>443.0</ele><time>2026-04-26T08:09:30.192Z</time></trkpt><trkpt lat="45.8682182" lon="11.6490549"><ele>449.3333333333333</ele><time>2026-04-26T08:09:31.192Z</time></trkpt><trkpt lat="45.8683606" lon="11.6488821"><ele>455.66666666666663</ele><time>2026-04-26T08:09:32.196Z</time></trkpt><trkpt lat="45.8685082" lon="11.6487407"><ele>462.0</ele><time>2026-04-26T08:09:33.191Z</time></trkpt><trkpt lat="45.8686457" lon="11.6486218"><ele>452.5</ele><time>2026-04-26T08:09:34.193Z</time></trkpt><trkpt lat="45.8687645" lon="11.6485049"><ele>443.0</ele><time>2026-04-26T08:09:35.192Z</time></trkpt><trkpt lat="45.8688722" lon="11.6483956"><ele>433.5</ele><time>2026-04-26T08:09:36.191Z</time></trkpt><trkpt lat="45.8689809" lon="11.6483023"><ele>424.0</ele><time>2026-04-26T08:09:37.193Z</time></trkpt><trkpt lat="45.8691023" lon="11.6482382"><ele>424.0</ele><time>2026-04-26T08:09:38.192Z</time></trkpt><trkpt lat="45.8692212" lon="11.6481921"><ele>424.0</ele><time>2026-04-26T08:09:39.192Z</time></trkpt><trkpt lat="45.8693403" lon="11.6481664"><ele>424.0</ele><time>2026-04-26T08:09:40.192Z</time></trkpt><trkpt lat="45.869466" lon="11.6481666"><ele>424.0</ele><time>2026-04-26T08:09:41.192Z</time></trkpt><trkpt lat="45.8696472" lon="11.6481676"><ele>428.4</ele><time>2026-04-26T08:09:43.19Z</time></trkpt><trkpt lat="45.8697344" lon="11.6481887"><ele>432.79999999999995</ele><time>2026-04-26T08:09:45.188Z</time></trkpt><trkpt lat="45.8697056" lon="11.6482724"><ele>437.20000000000005</ele><time>2026-04-26T08:09:47.193Z</time></trkpt><trkpt lat="45.8695739" lon="11.6482412"><ele>441.6</ele><time>2026-04-26T08:09:49.189Z</time></trkpt><trkpt lat="45.8694594" lon="11.6482234"><ele>446.0</ele><time>2026-04-26T08:09:50.19Z</time></trkpt><trkpt lat="45.8693287" lon="11.6482503"><ele>438.66666666666663</ele><time>2026-04-26T08:09:51.191Z</time></trkpt><trkpt lat="45.8691972" lon="11.6483334"><ele>431.33333333333337</ele><time>2026-04-26T08:09:52.193Z</time></trkpt><trkpt lat="45.8690662" lon="11.6484579"><ele>424.0</ele><time>2026-04-26T08:09:53.192Z</time></trkpt><trkpt lat="45.8689374" lon="11.6486229"><ele>433.5</ele><time>2026-04-26T08:09:54.191Z</time></trkpt><trkpt lat="45.8688272" lon="11.6488061"><ele>443.0</ele><time>2026-04-26T08:09:55.192Z</time></trkpt><trkpt lat="45.8687309" lon="11.648959"><ele>452.5</ele><time>2026-04-26T08:09:56.191Z</time></trkpt><trkpt lat="45.8686345" lon="11.6490481"><ele>462.0</ele><time>2026-04-26T08:09:57.192Z</time></trkpt><trkpt lat="45.8685518" lon="11.6491198"><ele>462.0</ele><time>2026-04-26T08:09:58.192Z</time></trkpt><trkpt lat="45.8684891" lon="11.6492319"><ele>462.0</ele><time>2026-04-26T08:09:59.192Z</time></trkpt><trkpt lat="45.8684357" lon="11.6493892"><ele>462.0</ele><time>2026-04-26T08:10:00.192Z</time></trkpt><trkpt lat="45.8683684" lon="11.6495355"><ele>462.0</ele><time>2026-04-26T08:10:01.191Z</time></trkpt><trkpt lat="45.8682955" lon="11.6496609"><ele>457.25</ele><time>2026-04-26T08:10:02.192Z</time></trkpt><trkpt lat="45.8682235" lon="11.6499291"><ele>452.5</ele><time>2026-04-26T08:10:04.192Z</time></trkpt><trkpt lat="45.8682004" lon="11.6500253"><ele>447.75</ele><time>2026-04-26T08:10:05.192Z</time></trkpt><trkpt lat="45.8682142" lon="11.6501582"><ele>443.0</ele><time>2026-04-26T08:10:07.192Z</time></trkpt><trkpt lat="45.8682971" lon="11.6501184"><ele>443.0</ele><time>2026-04-26T08:10:09.191Z</time></trkpt><trkpt lat="45.8683084" lon="11.6499034"><ele>443.0</ele><time>2026-04-26T08:10:11.189Z</time></trkpt><trkpt lat="45.8683315" lon="11.6497783"><ele>443.0</ele><time>2026-04-26T08:10:12.193Z</time></trkpt><trkpt lat="45.8683921" lon="11.649645"><ele>443.0</ele><time>2026-04-26T08:10:13.193Z</time></trkpt><trkpt lat="45.8684741" lon="11.6494964"><ele>447.75</ele><time>2026-04-26T08:10:14.192Z</time></trkpt><trkpt lat="45.8685479" lon="11.6493676"><ele>452.5</ele><time>2026-04-26T08:10:15.191Z</time></trkpt><trkpt lat="45.8686234" lon="11.6492717"><ele>457.25</ele><time>2026-04-26T08:10:16.193Z</time></trkpt><trkpt lat="45.8687261" lon="11.6492067"><ele>462.0</ele><time>2026-04-26T08:10:17.192Z</time></trkpt><trkpt lat="45.8688476" lon="11.649141"><ele>462.0</ele><time>2026-04-26T08:10:18.193Z</time></trkpt><trkpt lat="45.8689807" lon="11.6490347"><ele>462.0</ele><time>2026-04-26T08:10:19.191Z</time></trkpt><trkpt lat="45.8691254" lon="11.648915"><ele>462.0</ele><time>2026-04-26T08:10:20.193Z</time></trkpt><trkpt lat="45.8692552" lon="11.6488178"><ele>469.33333333333337</ele><time>2026-04-26T08:10:21.192Z</time></trkpt><trkpt lat="45.8693833" lon="11.6487538"><ele>476.6666666666667</ele><time>2026-04-26T08:10:22.191Z</time></trkpt><trkpt lat="45.869525" lon="11.6487176"><ele>484.0</ele><time>2026-04-26T08:10:23.192Z</time></trkpt><trkpt lat="45.8698381" lon="11.6487116"><ele>484.0</ele><time>2026-04-26T08:10:25.191Z</time></trkpt><trkpt lat="45.8699714" lon="11.6487013"><ele>484.0</ele><time>2026-04-26T08:10:26.192Z</time></trkpt><trkpt lat="45.8700957" lon="11.648683"><ele>484.0</ele><time>2026-04-26T08:10:27.192Z</time></trkpt><trkpt lat="45.8701955" lon="11.6486346"><ele>484.0</ele><time>2026-04-26T08:10:28.194Z</time></trkpt><trkpt lat="45.8702785" lon="11.6485441"><ele>485.25</ele><time>2026-04-26T08:10:29.193Z</time></trkpt><trkpt lat="45.870339" lon="11.648401"><ele>486.5</ele><time>2026-04-26T08:10:30.193Z</time></trkpt><trkpt lat="45.8703941" lon="11.6482177"><ele>487.75</ele><time>2026-04-26T08:10:31.193Z</time></trkpt><trkpt lat="45.8704489" lon="11.6480385"><ele>489.0</ele><time>2026-04-26T08:10:32.191Z</time></trkpt><trkpt lat="45.8705017" lon="11.6478863"><ele>480.25</ele><time>2026-04-26T08:10:33.189Z</time></trkpt><trkpt lat="45.8705717" lon="11.6477684"><ele>471.5</ele><time>2026-04-26T08:10:34.19Z</time></trkpt><trkpt lat="45.8706694" lon="11.6476966"><ele>462.75</ele><time>2026-04-26T08:10:35.19Z</time></trkpt><trkpt lat="45.870796" lon="11.6476702"><ele>454.0</ele><time>2026-04-26T08:10:36.192Z</time></trkpt><trkpt lat="45.8709235" lon="11.6476733"><ele>464.75</ele><time>2026-04-26T08:10:37.192Z</time></trkpt><trkpt lat="45.8710379" lon="11.6476511"><ele>475.5</ele><time>2026-04-26T08:10:38.193Z</time></trkpt><trkpt lat="45.8711467" lon="11.6475758"><ele>486.25</ele><time>2026-04-26T08:10:39.193Z</time></trkpt><trkpt lat="45.8712671" lon="11.647464"><ele>497.0</ele><time>2026-04-26T08:10:40.192Z</time></trkpt><trkpt lat="45.871374" lon="11.6473532"><ele>497.0</ele><time>2026-04-26T08:10:41.193Z</time></trkpt><trkpt lat="45.8714425" lon="11.6472176"><ele>497.0</ele><time>2026-04-26T08:10:42.191Z</time></trkpt><trkpt lat="45.8714895" lon="11.6470761"><ele>497.0</ele><time>2026-04-26T08:10:43.194Z</time></trkpt><trkpt lat="45.8715549" lon="11.6469594"><ele>497.0</ele><time>2026-04-26T08:10:44.192Z</time></trkpt><trkpt lat="45.8717575" lon="11.6468528"><ele>491.75</ele><time>2026-04-26T08:10:46.192Z</time></trkpt><trkpt lat="45.8719004" lon="11.6468503"><ele>486.5</ele><time>2026-04-26T08:10:47.192Z</time></trkpt><trkpt lat="45.8720478" lon="11.6468658"><ele>481.25</ele><time>2026-04-26T08:10:48.193Z</time></trkpt><trkpt lat="45.8721799" lon="11.646882"><ele>476.0</ele><time>2026-04-26T08:10:49.192Z</time></trkpt><trkpt lat="45.8722902" lon="11.6468783"><ele>476.0</ele><time>2026-04-26T08:10:50.192Z</time></trkpt><trkpt lat="45.8723787" lon="11.6468755"><ele>476.0</ele><time>2026-04-26T08:10:51.194Z</time></trkpt><trkpt lat="45.8724432" lon="11.646886"><ele>476.0</ele><time>2026-04-26T08:10:52.191Z</time></trkpt><trkpt lat="45.8724632" lon="11.64699"><ele>476.0</ele><time>2026-04-26T08:10:54.189Z</time></trkpt><trkpt lat="45.8723261" lon="11.6469913"><ele>476.0</ele><time>2026-04-26T08:10:56.191Z</time></trkpt><trkpt lat="45.8722053" lon="11.6469708"><ele>476.0</ele><time>2026-04-26T08:10:57.189Z</time></trkpt><trkpt lat="45.8720478" lon="11.6469405"><ele>476.0</ele><time>2026-04-26T08:10:58.188Z</time></trkpt><trkpt lat="45.8719051" lon="11.6469386"><ele>476.0</ele><time>2026-04-26T08:10:59.19Z</time></trkpt><trkpt lat="45.8717864" lon="11.6469612"><ele>476.0</ele><time>2026-04-26T08:11:00.191Z</time></trkpt><trkpt lat="45.8716924" lon="11.6469968"><ele>481.25</ele><time>2026-04-26T08:11:01.194Z</time></trkpt><trkpt lat="45.8716272" lon="11.6470661"><ele>486.5</ele><time>2026-04-26T08:11:02.192Z</time></trkpt><trkpt lat="45.8715837" lon="11.6471855"><ele>491.75</ele><time>2026-04-26T08:11:03.191Z</time></trkpt><trkpt lat="45.8715282" lon="11.6473457"><ele>497.0</ele><time>2026-04-26T08:11:04.191Z</time></trkpt><trkpt lat="45.8714398" lon="11.6475258"><ele>509.66666666666663</ele><time>2026-04-26T08:11:05.191Z</time></trkpt><trkpt lat="45.8712595" lon="11.6478142"><ele>522.3333333333334</ele><time>2026-04-26T08:11:07.192Z</time></trkpt><trkpt lat="45.8711595" lon="11.6478974"><ele>535.0</ele><time>2026-04-26T08:11:08.193Z</time></trkpt><trkpt lat="45.8710571" lon="11.6479352"><ele>535.0</ele><time>2026-04-26T08:11:09.192Z</time></trkpt><trkpt lat="45.8709652" lon="11.6479675"><ele>535.0</ele><time>2026-04-26T08:11:10.193Z</time></trkpt><trkpt lat="45.8708917" lon="11.6480231"><ele>535.0</ele><time>2026-04-26T08:11:11.192Z</time></trkpt><trkpt lat="45.8708378" lon="11.6481079"><ele>535.0</ele><time>2026-04-26T08:11:12.192Z</time></trkpt><trkpt lat="45.870802" lon="11.64821"><ele>535.0</ele><time>2026-04-26T08:11:13.193Z</time></trkpt><trkpt lat="45.8707808" lon="11.64832"><ele>535.0</ele><time>2026-04-26T08:11:14.195Z</time></trkpt><trkpt lat="45.8707793" lon="11.6484411"><ele>531.1666666666667</ele><time>2026-04-26T08:11:15.192Z</time></trkpt><trkpt lat="45.8707939" lon="11.6485588"><ele>527.3333333333334</ele><time>2026-04-26T08:11:16.191Z</time></trkpt><trkpt lat="45.8708093" lon="11.6486636"><ele>523.5</ele><time>2026-04-26T08:11:17.191Z</time></trkpt><trkpt lat="45.8708149" lon="11.6487637"><ele>519.6666666666666</ele><time>2026-04-26T08:11:18.192Z</time></trkpt><trkpt lat="45.8707986" lon="11.6488611"><ele>515.8333333333333</ele><time>2026-04-26T08:11:19.191Z</time></trkpt><trkpt lat="45.8707575" lon="11.6489576"><ele>512.0</ele><time>2026-04-26T08:11:20.193Z</time></trkpt><trkpt lat="45.8706691" lon="11.6490431"><ele>512.0</ele><time>2026-04-26T08:11:21.19Z</time></trkpt><trkpt lat="45.8705376" lon="11.6491236"><ele>512.0</ele><time>2026-04-26T08:11:22.188Z</time></trkpt><trkpt lat="45.8703857" lon="11.6492241"><ele>512.0</ele><time>2026-04-26T08:11:23.191Z</time></trkpt><trkpt lat="45.8702238" lon="11.6493671"><ele>512.0</ele><time>2026-04-26T08:11:24.19Z</time></trkpt><trkpt lat="45.8700477" lon="11.6495275"><ele>512.0</ele><time>2026-04-26T08:11:25.192Z</time></trkpt><trkpt lat="45.8698616" lon="11.649676"><ele>512.0</ele><time>2026-04-26T08:11:26.191Z</time></trkpt><trkpt lat="45.8695248" lon="11.64989"><ele>512.0</ele><time>2026-04-26T08:11:28.191Z</time></trkpt><trkpt lat="45.8693891" lon="11.6499606"><ele>512.0</ele><time>2026-04-26T08:11:29.192Z</time></trkpt><trkpt lat="45.8692786" lon="11.6500169"><ele>512.0</ele><time>2026-04-26T08:11:30.192Z</time></trkpt><trkpt lat="45.8691937" lon="11.6500577"><ele>512.0</ele><time>2026-04-26T08:11:31.193Z</time></trkpt><trkpt lat="45.8691376" lon="11.6501016"><ele>512.0</ele><time>2026-04-26T08:11:32.193Z</time></trkpt><trkpt lat="45.8691437" lon="11.65023"><ele>512.0</ele><time>2026-04-26T08:11:34.193Z</time></trkpt><trkpt lat="45.8692661" lon="11.6502091"><ele>512.0</ele><time>2026-04-26T08:11:36.191Z</time></trkpt><trkpt lat="45.8693488" lon="11.6501541"><ele>512.0</ele><time>2026-04-26T08:11:37.192Z</time></trkpt><trkpt lat="45.8694703" lon="11.6501155"><ele>512.0</ele><time>2026-04-26T08:11:38.192Z</time></trkpt><trkpt lat="45.8696248" lon="11.6500933"><ele>512.0</ele><time>2026-04-26T08:11:39.195Z</time></trkpt><trkpt lat="45.8698018" lon="11.6500669"><ele>512.0</ele><time>2026-04-26T08:11:40.193Z</time></trkpt><trkpt lat="45.8699932" lon="11.6500358"><ele>512.0</ele><time>2026-04-26T08:11:41.194Z</time></trkpt><trkpt lat="45.8701707" lon="11.6499847"><ele>520.6666666666666</ele><time>2026-04-26T08:11:42.195Z</time></trkpt><trkpt lat="45.8703445" lon="11.6498914"><ele>529.3333333333334</ele><time>2026-04-26T08:11:43.193Z</time></trkpt><trkpt lat="45.8705244" lon="11.6497578"><ele>538.0</ele><time>2026-04-26T08:11:44.194Z</time></trkpt><trkpt lat="45.8706908" lon="11.6496238"><ele>538.0</ele><time>2026-04-26T08:11:45.193Z</time></trkpt><trkpt lat="45.8708423" lon="11.649517"><ele>538.0</ele><time>2026-04-26T08:11:46.19Z</time></trkpt><trkpt lat="45.8709723" lon="11.6494341"><ele>538.0</ele><time>2026-04-26T08:11:47.191Z</time></trkpt><trkpt lat="45.8711691" lon="11.6492408"><ele>541.5</ele><time>2026-04-26T08:11:49.192Z</time></trkpt><trkpt lat="45.8712338" lon="11.6490717"><ele>545.0</ele><time>2026-04-26T08:11:50.194Z</time></trkpt><trkpt lat="45.8712791" lon="11.64889"><ele>548.5</ele><time>2026-04-26T08:11:51.194Z</time></trkpt><trkpt lat="45.8713124" lon="11.6487455"><ele>552.0</ele><time>2026-04-26T08:11:52.194Z</time></trkpt><trkpt lat="45.8713355" lon="11.648642"><ele>552.0</ele><time>2026-04-26T08:11:53.193Z</time></trkpt><trkpt lat="45.8713967" lon="11.6485749"><ele>552.0</ele><time>2026-04-26T08:11:55.19Z</time></trkpt><trkpt lat="45.871425" lon="11.6486995"><ele>552.0</ele><time>2026-04-26T08:11:57.194Z</time></trkpt><trkpt lat="45.8713882" lon="11.6488232"><ele>552.0</ele><time>2026-04-26T08:11:58.193Z</time></trkpt><trkpt lat="45.8713398" lon="11.6489882"><ele>552.0</ele><time>2026-04-26T08:11:59.193Z</time></trkpt><trkpt lat="45.8713129" lon="11.6491641"><ele>552.0</ele><time>2026-04-26T08:12:00.194Z</time></trkpt><trkpt lat="45.8712956" lon="11.6493378"><ele>552.0</ele><time>2026-04-26T08:12:01.194Z</time></trkpt><trkpt lat="45.8712441" lon="11.6494792"><ele>552.0</ele><time>2026-04-26T08:12:02.193Z</time></trkpt><trkpt lat="45.8711485" lon="11.6496011"><ele>552.0</ele><time>2026-04-26T08:12:03.193Z</time></trkpt><trkpt lat="45.8710252" lon="11.649732"><ele>547.3333333333334</ele><time>2026-04-26T08:12:04.193Z</time></trkpt><trkpt lat="45.8708915" lon="11.6498984"><ele>542.6666666666667</ele><time>2026-04-26T08:12:05.194Z</time></trkpt><trkpt lat="45.8707617" lon="11.6500918"><ele>538.0</ele><time>2026-04-26T08:12:06.194Z</time></trkpt><trkpt lat="45.8706464" lon="11.650259"><ele>544.5</ele><time>2026-04-26T08:12:07.196Z</time></trkpt><trkpt lat="45.870546" lon="11.6503725"><ele>551.0</ele><time>2026-04-26T08:12:08.195Z</time></trkpt><trkpt lat="45.8704103" lon="11.6505002"><ele>557.5</ele><time>2026-04-26T08:12:10.191Z</time></trkpt><trkpt lat="45.8704343" lon="11.6506126"><ele>564.0</ele><time>2026-04-26T08:12:12.188Z</time></trkpt><trkpt lat="45.8705469" lon="11.650545"><ele>564.0</ele><time>2026-04-26T08:12:14.192Z</time></trkpt><trkpt lat="45.8706333" lon="11.6504349"><ele>564.0</ele><time>2026-04-26T08:12:15.191Z</time></trkpt><trkpt lat="45.8707497" lon="11.6502926"><ele>564.0</ele><time>2026-04-26T08:12:16.193Z</time></trkpt><trkpt lat="45.8708875" lon="11.6501336"><ele>564.0</ele><time>2026-04-26T08:12:17.191Z</time></trkpt><trkpt lat="45.8710278" lon="11.6499789"><ele>565.75</ele><time>2026-04-26T08:12:18.193Z</time></trkpt><trkpt lat="45.8711597" lon="11.6498488"><ele>567.5</ele><time>2026-04-26T08:12:19.191Z</time></trkpt><trkpt lat="45.8712903" lon="11.6497633"><ele>569.25</ele><time>2026-04-26T08:12:20.195Z</time></trkpt><trkpt lat="45.8714044" lon="11.6496978"><ele>571.0</ele><time>2026-04-26T08:12:21.194Z</time></trkpt><trkpt lat="45.8714868" lon="11.6496155"><ele>571.0</ele><time>2026-04-26T08:12:22.194Z</time></trkpt><trkpt lat="45.8715246" lon="11.6494998"><ele>571.0</ele><time>2026-04-26T08:12:23.193Z</time></trkpt><trkpt lat="45.8715341" lon="11.6493578"><ele>571.0</ele><time>2026-04-26T08:12:24.194Z</time></trkpt><trkpt lat="45.8715506" lon="11.6491897"><ele>571.0</ele><time>2026-04-26T08:12:25.194Z</time></trkpt><trkpt lat="45.8716037" lon="11.6490054"><ele>571.0</ele><time>2026-04-26T08:12:26.196Z</time></trkpt><trkpt lat="45.8716592" lon="11.6488483"><ele>567.2</ele><time>2026-04-26T08:12:27.195Z</time></trkpt><trkpt lat="45.8716951" lon="11.6487249"><ele>563.4000000000001</ele><time>2026-04-26T08:12:28.194Z</time></trkpt><trkpt lat="45.8717299" lon="11.6486405"><ele>559.6</ele><time>2026-04-26T08:12:29.194Z</time></trkpt><trkpt lat="45.8717796" lon="11.6487863"><ele>555.8000000000001</ele><time>2026-04-26T08:12:33.193Z</time></trkpt><trkpt lat="45.8717219" lon="11.6489225"><ele>552.0</ele><time>2026-04-26T08:12:34.192Z</time></trkpt><trkpt lat="45.8716673" lon="11.6490946"><ele>552.0</ele><time>2026-04-26T08:12:35.191Z</time></trkpt><trkpt lat="45.8716422" lon="11.6492743"><ele>552.0</ele><time>2026-04-26T08:12:36.192Z</time></trkpt><trkpt lat="45.8716507" lon="11.6494435"><ele>552.0</ele><time>2026-04-26T08:12:37.19Z</time></trkpt><trkpt lat="45.8716506" lon="11.6495943"><ele>552.0</ele><time>2026-04-26T08:12:38.192Z</time></trkpt><trkpt lat="45.8716154" lon="11.6497148"><ele>552.0</ele><time>2026-04-26T08:12:39.195Z</time></trkpt><trkpt lat="45.8715479" lon="11.6498088"><ele>556.75</ele><time>2026-04-26T08:12:40.194Z</time></trkpt><trkpt lat="45.8714576" lon="11.6499179"><ele>561.5</ele><time>2026-04-26T08:12:41.193Z</time></trkpt><trkpt lat="45.8713714" lon="11.6500783"><ele>566.25</ele><time>2026-04-26T08:12:42.196Z</time></trkpt><trkpt lat="45.871284" lon="11.6502833"><ele>571.0</ele><time>2026-04-26T08:12:43.193Z</time></trkpt><trkpt lat="45.8711807" lon="11.6505058"><ele>568.6666666666667</ele><time>2026-04-26T08:12:44.194Z</time></trkpt><trkpt lat="45.8710608" lon="11.650703"><ele>566.3333333333334</ele><time>2026-04-26T08:12:45.194Z</time></trkpt><trkpt lat="45.8709355" lon="11.6508604"><ele>564.0</ele><time>2026-04-26T08:12:46.193Z</time></trkpt><trkpt lat="45.8708135" lon="11.6509863"><ele>564.0</ele><time>2026-04-26T08:12:47.193Z</time></trkpt><trkpt lat="45.8706935" lon="11.6510901"><ele>564.0</ele><time>2026-04-26T08:12:48.192Z</time></trkpt><trkpt lat="45.8705666" lon="11.65117"><ele>564.0</ele><time>2026-04-26T08:12:49.193Z</time></trkpt><trkpt lat="45.8704439" lon="11.6512089"><ele>564.0</ele><time>2026-04-26T08:12:50.193Z</time></trkpt><trkpt lat="45.8702553" lon="11.6512256"><ele>570.8</ele><time>2026-04-26T08:12:52.194Z</time></trkpt><trkpt lat="45.8701712" lon="11.6513172"><ele>577.5999999999999</ele><time>2026-04-26T08:12:54.194Z</time></trkpt><trkpt lat="45.8702386" lon="11.6514417"><ele>584.4</ele><time>2026-04-26T08:12:56.195Z</time></trkpt><trkpt lat="45.8703186" lon="11.6514259"><ele>591.1999999999999</ele><time>2026-04-26T08:12:57.193Z</time></trkpt><trkpt lat="45.8704326" lon="11.6513908"><ele>598.0</ele><time>2026-04-26T08:12:58.192Z</time></trkpt><trkpt lat="45.8705822" lon="11.6513468"><ele>598.0</ele><time>2026-04-26T08:12:59.193Z</time></trkpt><trkpt lat="45.8707495" lon="11.6512747"><ele>598.0</ele><time>2026-04-26T08:13:00.191Z</time></trkpt><trkpt lat="45.8709319" lon="11.6511737"><ele>598.0</ele><time>2026-04-26T08:13:01.191Z</time></trkpt><trkpt lat="45.8711029" lon="11.6510543"><ele>598.0</ele><time>2026-04-26T08:13:02.191Z</time></trkpt><trkpt lat="45.8712541" lon="11.6509353"><ele>598.0</ele><time>2026-04-26T08:13:03.191Z</time></trkpt><trkpt lat="45.871391" lon="11.6508067"><ele>598.0</ele><time>2026-04-26T08:13:04.193Z</time></trkpt><trkpt lat="45.8715119" lon="11.6506405"><ele>598.0</ele><time>2026-04-26T08:13:05.194Z</time></trkpt><trkpt lat="45.8716259" lon="11.6504589"><ele>598.0</ele><time>2026-04-26T08:13:06.195Z</time></trkpt><trkpt lat="45.8717348" lon="11.6502982"><ele>598.0</ele><time>2026-04-26T08:13:07.193Z</time></trkpt><trkpt lat="45.8718455" lon="11.6501739"><ele>601.5</ele><time>2026-04-26T08:13:08.194Z</time></trkpt><trkpt lat="45.8719597" lon="11.6500901"><ele>605.0</ele><time>2026-04-26T08:13:09.193Z</time></trkpt><trkpt lat="45.8720586" lon="11.6500123"><ele>608.5</ele><time>2026-04-26T08:13:10.194Z</time></trkpt><trkpt lat="45.8721267" lon="11.6498979"><ele>612.0</ele><time>2026-04-26T08:13:11.194Z</time></trkpt><trkpt lat="45.8721861" lon="11.6495705"><ele>607.5</ele><time>2026-04-26T08:13:13.194Z</time></trkpt><trkpt lat="45.8722331" lon="11.649401"><ele>603.0</ele><time>2026-04-26T08:13:14.193Z</time></trkpt><trkpt lat="45.8723113" lon="11.6492359"><ele>598.5</ele><time>2026-04-26T08:13:15.196Z</time></trkpt><trkpt lat="45.8724001" lon="11.6490961"><ele>594.0</ele><time>2026-04-26T08:13:16.194Z</time></trkpt><trkpt lat="45.8724904" lon="11.6489883"><ele>594.0</ele><time>2026-04-26T08:13:17.194Z</time></trkpt><trkpt lat="45.8725864" lon="11.6489052"><ele>594.0</ele><time>2026-04-26T08:13:18.193Z</time></trkpt><trkpt lat="45.8727048" lon="11.6488658"><ele>594.0</ele><time>2026-04-26T08:13:19.193Z</time></trkpt><trkpt lat="45.8728424" lon="11.6488409"><ele>594.0</ele><time>2026-04-26T08:13:20.196Z</time></trkpt><trkpt lat="45.8729932" lon="11.6488125"><ele>593.3333333333334</ele><time>2026-04-26T08:13:21.193Z</time></trkpt><trkpt lat="45.8731504" lon="11.6487789"><ele>592.6666666666667</ele><time>2026-04-26T08:13:22.194Z</time></trkpt><trkpt lat="45.8732937" lon="11.6487161"><ele>592.0</ele><time>2026-04-26T08:13:23.193Z</time></trkpt><trkpt lat="45.8734266" lon="11.648603"><ele>602.75</ele><time>2026-04-26T08:13:24.192Z</time></trkpt><trkpt lat="45.8735465" lon="11.6484856"><ele>613.5</ele><time>2026-04-26T08:13:25.192Z</time></trkpt><trkpt lat="45.8736636" lon="11.6484178"><ele>624.25</ele><time>2026-04-26T08:13:26.191Z</time></trkpt><trkpt lat="45.8737785" lon="11.6483963"><ele>635.0</ele><time>2026-04-26T08:13:27.192Z</time></trkpt><trkpt lat="45.8739313" lon="11.6482549"><ele>635.0</ele><time>2026-04-26T08:13:29.195Z</time></trkpt><trkpt lat="45.8739613" lon="11.6481514"><ele>635.0</ele><time>2026-04-26T08:13:30.194Z</time></trkpt><trkpt lat="45.8739691" lon="11.648059"><ele>635.0</ele><time>2026-04-26T08:13:31.194Z</time></trkpt><trkpt lat="45.8740198" lon="11.6479715"><ele>635.0</ele><time>2026-04-26T08:13:33.193Z</time></trkpt><trkpt lat="45.8740233" lon="11.6482053"><ele>635.0</ele><time>2026-04-26T08:13:36.191Z</time></trkpt><trkpt lat="45.8739708" lon="11.6483426"><ele>635.0</ele><time>2026-04-26T08:13:37.196Z</time></trkpt><trkpt lat="45.8738898" lon="11.6484353"><ele>635.0</ele><time>2026-04-26T08:13:38.194Z</time></trkpt><trkpt lat="45.8737788" lon="11.6484841"><ele>635.0</ele><time>2026-04-26T08:13:39.193Z</time></trkpt><trkpt lat="45.8736711" lon="11.6485424"><ele>635.0</ele><time>2026-04-26T08:13:40.193Z</time></trkpt><trkpt lat="45.8735761" lon="11.6486594"><ele>634.5</ele><time>2026-04-26T08:13:41.194Z</time></trkpt><trkpt lat="45.8734827" lon="11.6488197"><ele>634.0</ele><time>2026-04-26T08:13:42.197Z</time></trkpt><trkpt lat="45.8733767" lon="11.6489608"><ele>633.5</ele><time>2026-04-26T08:13:43.193Z</time></trkpt><trkpt lat="45.8732353" lon="11.6490661"><ele>633.0</ele><time>2026-04-26T08:13:44.195Z</time></trkpt><trkpt lat="45.8730873" lon="11.6491451"><ele>633.0</ele><time>2026-04-26T08:13:45.194Z</time></trkpt><trkpt lat="45.8729563" lon="11.6492143"><ele>633.0</ele><time>2026-04-26T08:13:46.194Z</time></trkpt><trkpt lat="45.8728477" lon="11.6492943"><ele>633.0</ele><time>2026-04-26T08:13:47.194Z</time></trkpt><trkpt lat="45.8727614" lon="11.6494036"><ele>633.0</ele><time>2026-04-26T08:13:48.194Z</time></trkpt><trkpt lat="45.8726966" lon="11.6495542"><ele>639.25</ele><time>2026-04-26T08:13:49.192Z</time></trkpt><trkpt lat="45.8726602" lon="11.6497113"><ele>645.5</ele><time>2026-04-26T08:13:50.191Z</time></trkpt><trkpt lat="45.8726547" lon="11.6498601"><ele>651.75</ele><time>2026-04-26T08:13:51.191Z</time></trkpt><trkpt lat="45.8726759" lon="11.6500197"><ele>658.0</ele><time>2026-04-26T08:13:52.194Z</time></trkpt><trkpt lat="45.8727027" lon="11.6501906"><ele>662.25</ele><time>2026-04-26T08:13:53.194Z</time></trkpt><trkpt lat="45.8727255" lon="11.6503493"><ele>666.5</ele><time>2026-04-26T08:13:54.193Z</time></trkpt><trkpt lat="45.872689" lon="11.65061"><ele>670.75</ele><time>2026-04-26T08:13:56.194Z</time></trkpt><trkpt lat="45.8726142" lon="11.6506904"><ele>675.0</ele><time>2026-04-26T08:13:57.193Z</time></trkpt><trkpt lat="45.872524" lon="11.6507452"><ele>672.0</ele><time>2026-04-26T08:13:58.192Z</time></trkpt><trkpt lat="45.8724176" lon="11.6507494"><ele>669.0</ele><time>2026-04-26T08:13:59.192Z</time></trkpt><trkpt lat="45.8723382" lon="11.6507987"><ele>666.0</ele><time>2026-04-26T08:14:00.193Z</time></trkpt><trkpt lat="45.8722818" lon="11.6509017"><ele>663.0</ele><time>2026-04-26T08:14:01.192Z</time></trkpt><trkpt lat="45.8722242" lon="11.6510368"><ele>660.0</ele><time>2026-04-26T08:14:02.194Z</time></trkpt><trkpt lat="45.8721547" lon="11.651195"><ele>660.0</ele><time>2026-04-26T08:14:03.193Z</time></trkpt><trkpt lat="45.8720743" lon="11.6513718"><ele>660.0</ele><time>2026-04-26T08:14:04.191Z</time></trkpt><trkpt lat="45.871987" lon="11.6515645"><ele>660.0</ele><time>2026-04-26T08:14:05.192Z</time></trkpt><trkpt lat="45.87191" lon="11.6517614"><ele>660.0</ele><time>2026-04-26T08:14:06.191Z</time></trkpt><trkpt lat="45.8718315" lon="11.6519503"><ele>660.0</ele><time>2026-04-26T08:14:07.193Z</time></trkpt><trkpt lat="45.8717429" lon="11.6521234"><ele>660.0</ele><time>2026-04-26T08:14:08.192Z</time></trkpt><trkpt lat="45.8716521" lon="11.6522534"><ele>660.0</ele><time>2026-04-26T08:14:09.192Z</time></trkpt><trkpt lat="45.8715658" lon="11.6523361"><ele>655.0</ele><time>2026-04-26T08:14:10.193Z</time></trkpt><trkpt lat="45.8714914" lon="11.6523911"><ele>650.0</ele><time>2026-04-26T08:14:11.195Z</time></trkpt><trkpt lat="45.8714273" lon="11.6524274"><ele>645.0</ele><time>2026-04-26T08:14:12.195Z</time></trkpt><trkpt lat="45.8713777" lon="11.6525326"><ele>640.0</ele><time>2026-04-26T08:14:14.196Z</time></trkpt><trkpt lat="45.871451" lon="11.6526015"><ele>635.0</ele><time>2026-04-26T08:14:16.196Z</time></trkpt><trkpt lat="45.8716069" lon="11.6524577"><ele>635.0</ele><time>2026-04-26T08:14:23.197Z</time></trkpt><trkpt lat="45.8716749" lon="11.6523757"><ele>635.0</ele><time>2026-04-26T08:14:24.195Z</time></trkpt><trkpt lat="45.8717711" lon="11.6522657"><ele>635.0</ele><time>2026-04-26T08:14:25.195Z</time></trkpt><trkpt lat="45.8718855" lon="11.6521243"><ele>635.0</ele><time>2026-04-26T08:14:26.197Z</time></trkpt><trkpt lat="45.8720084" lon="11.6519454"><ele>643.3333333333333</ele><time>2026-04-26T08:14:27.196Z</time></trkpt><trkpt lat="45.872139" lon="11.6517592"><ele>651.6666666666666</ele><time>2026-04-26T08:14:28.196Z</time></trkpt><trkpt lat="45.8722623" lon="11.6515987"><ele>660.0</ele><time>2026-04-26T08:14:29.194Z</time></trkpt><trkpt lat="45.8723708" lon="11.6514589"><ele>660.0</ele><time>2026-04-26T08:14:30.193Z</time></trkpt><trkpt lat="45.8724695" lon="11.6513453"><ele>660.0</ele><time>2026-04-26T08:14:31.193Z</time></trkpt><trkpt lat="45.872568" lon="11.6512694"><ele>660.0</ele><time>2026-04-26T08:14:32.193Z</time></trkpt><trkpt lat="45.8726823" lon="11.6512347"><ele>660.0</ele><time>2026-04-26T08:14:33.192Z</time></trkpt><trkpt lat="45.8728141" lon="11.6512207"><ele>663.75</ele><time>2026-04-26T08:14:34.193Z</time></trkpt><trkpt lat="45.8729561" lon="11.6512073"><ele>667.5</ele><time>2026-04-26T08:14:35.193Z</time></trkpt><trkpt lat="45.8730714" lon="11.651166"><ele>671.25</ele><time>2026-04-26T08:14:36.191Z</time></trkpt><trkpt lat="45.8731646" lon="11.6510929"><ele>675.0</ele><time>2026-04-26T08:14:37.191Z</time></trkpt><trkpt lat="45.8732437" lon="11.650806"><ele>675.0</ele><time>2026-04-26T08:14:39.191Z</time></trkpt><trkpt lat="45.8732504" lon="11.6506208"><ele>675.0</ele><time>2026-04-26T08:14:40.19Z</time></trkpt><trkpt lat="45.8732483" lon="11.6504505"><ele>675.0</ele><time>2026-04-26T08:14:41.192Z</time></trkpt><trkpt lat="45.8732551" lon="11.6503092"><ele>675.0</ele><time>2026-04-26T08:14:42.191Z</time></trkpt><trkpt lat="45.8732972" lon="11.6501973"><ele>675.0</ele><time>2026-04-26T08:14:43.193Z</time></trkpt><trkpt lat="45.8733666" lon="11.6501028"><ele>681.75</ele><time>2026-04-26T08:14:44.193Z</time></trkpt><trkpt lat="45.8734696" lon="11.6500271"><ele>688.5</ele><time>2026-04-26T08:14:45.195Z</time></trkpt><trkpt lat="45.8736006" lon="11.649949"><ele>695.25</ele><time>2026-04-26T08:14:46.193Z</time></trkpt><trkpt lat="45.8737316" lon="11.6498489"><ele>702.0</ele><time>2026-04-26T08:14:47.194Z</time></trkpt><trkpt lat="45.8738538" lon="11.6497194"><ele>702.0</ele><time>2026-04-26T08:14:48.193Z</time></trkpt><trkpt lat="45.8739739" lon="11.6495932"><ele>702.0</ele><time>2026-04-26T08:14:49.193Z</time></trkpt><trkpt lat="45.8740972" lon="11.649466"><ele>702.0</ele><time>2026-04-26T08:14:50.193Z</time></trkpt><trkpt lat="45.8742373" lon="11.6493745"><ele>703.4000000000001</ele><time>2026-04-26T08:14:51.194Z</time></trkpt><trkpt lat="45.8743626" lon="11.6493169"><ele>704.8000000000001</ele><time>2026-04-26T08:14:52.193Z</time></trkpt><trkpt lat="45.8744729" lon="11.6492851"><ele>706.2</ele><time>2026-04-26T08:14:53.193Z</time></trkpt><trkpt lat="45.8745626" lon="11.6492405"><ele>707.6</ele><time>2026-04-26T08:14:54.191Z</time></trkpt><trkpt lat="45.8746332" lon="11.6491464"><ele>709.0</ele><time>2026-04-26T08:14:55.191Z</time></trkpt><trkpt lat="45.8746832" lon="11.6490086"><ele>709.0</ele><time>2026-04-26T08:14:56.193Z</time></trkpt><trkpt lat="45.8747189" lon="11.6488537"><ele>709.0</ele><time>2026-04-26T08:14:57.193Z</time></trkpt><trkpt lat="45.8747674" lon="11.648713"><ele>709.0</ele><time>2026-04-26T08:14:58.193Z</time></trkpt><trkpt lat="45.8749423" lon="11.6484912"><ele>712.75</ele><time>2026-04-26T08:15:00.192Z</time></trkpt><trkpt lat="45.8750729" lon="11.6484072"><ele>716.5</ele><time>2026-04-26T08:15:01.192Z</time></trkpt><trkpt lat="45.8751967" lon="11.6483232"><ele>720.25</ele><time>2026-04-26T08:15:02.19Z</time></trkpt><trkpt lat="45.8753009" lon="11.6482564"><ele>724.0</ele><time>2026-04-26T08:15:03.191Z</time></trkpt><trkpt lat="45.8753969" lon="11.6482238"><ele>724.0</ele><time>2026-04-26T08:15:04.189Z</time></trkpt><trkpt lat="45.8754881" lon="11.648225"><ele>724.0</ele><time>2026-04-26T08:15:05.192Z</time></trkpt><trkpt lat="45.875577" lon="11.6482142"><ele>724.0</ele><time>2026-04-26T08:15:06.192Z</time></trkpt><trkpt lat="45.8756627" lon="11.6481512"><ele>724.0</ele><time>2026-04-26T08:15:07.192Z</time></trkpt><trkpt lat="45.8757345" lon="11.6480439"><ele>724.0</ele><time>2026-04-26T08:15:08.192Z</time></trkpt><trkpt lat="45.8757715" lon="11.6479214"><ele>724.0</ele><time>2026-04-26T08:15:09.19Z</time></trkpt><trkpt lat="45.8757896" lon="11.6478216"><ele>724.0</ele><time>2026-04-26T08:15:10.193Z</time></trkpt><trkpt lat="45.8758514" lon="11.6477155"><ele>724.0</ele><time>2026-04-26T08:15:12.191Z</time></trkpt><trkpt lat="45.8758704" lon="11.6478624"><ele>724.0</ele><time>2026-04-26T08:15:15.19Z</time></trkpt><trkpt lat="45.8758253" lon="11.6479877"><ele>724.0</ele><time>2026-04-26T08:15:16.192Z</time></trkpt><trkpt lat="45.8757643" lon="11.6481363"><ele>724.0</ele><time>2026-04-26T08:15:17.194Z</time></trkpt><trkpt lat="45.8756903" lon="11.6482552"><ele>724.0</ele><time>2026-04-26T08:15:18.192Z</time></trkpt><trkpt lat="45.875601" lon="11.6483266"><ele>724.0</ele><time>2026-04-26T08:15:19.193Z</time></trkpt><trkpt lat="45.8753742" lon="11.6484325"><ele>724.0</ele><time>2026-04-26T08:15:21.192Z</time></trkpt><trkpt lat="45.8752565" lon="11.6485481"><ele>724.0</ele><time>2026-04-26T08:15:22.193Z</time></trkpt><trkpt lat="45.8751459" lon="11.6486723"><ele>724.0</ele><time>2026-04-26T08:15:23.194Z</time></trkpt><trkpt lat="45.8750615" lon="11.6487897"><ele>724.0</ele><time>2026-04-26T08:15:24.192Z</time></trkpt><trkpt lat="45.8750043" lon="11.648909"><ele>721.0</ele><time>2026-04-26T08:15:25.194Z</time></trkpt><trkpt lat="45.8749853" lon="11.6490422"><ele>718.0</ele><time>2026-04-26T08:15:26.192Z</time></trkpt><trkpt lat="45.8749872" lon="11.6491891"><ele>715.0</ele><time>2026-04-26T08:15:27.192Z</time></trkpt><trkpt lat="45.8749679" lon="11.6493368"><ele>712.0</ele><time>2026-04-26T08:15:28.191Z</time></trkpt><trkpt lat="45.8749172" lon="11.6494582"><ele>709.0</ele><time>2026-04-26T08:15:29.191Z</time></trkpt><trkpt lat="45.8748636" lon="11.6495424"><ele>709.0</ele><time>2026-04-26T08:15:30.195Z</time></trkpt><trkpt lat="45.8748195" lon="11.6496855"><ele>709.0</ele><time>2026-04-26T08:15:32.194Z</time></trkpt><trkpt lat="45.874902" lon="11.6497394"><ele>709.0</ele><time>2026-04-26T08:15:34.191Z</time></trkpt><trkpt lat="45.874953" lon="11.649674"><ele>709.0</ele><time>2026-04-26T08:15:35.192Z</time></trkpt><trkpt lat="45.8750005" lon="11.6495607"><ele>709.0</ele><time>2026-04-26T08:15:36.191Z</time></trkpt><trkpt lat="45.8750522" lon="11.6493999"><ele>709.0</ele><time>2026-04-26T08:15:37.193Z</time></trkpt><trkpt lat="45.8750783" lon="11.6492442"><ele>709.0</ele><time>2026-04-26T08:15:38.193Z</time></trkpt><trkpt lat="45.8751021" lon="11.6491111"><ele>709.0</ele><time>2026-04-26T08:15:39.194Z</time></trkpt><trkpt lat="45.8751439" lon="11.6489936"><ele>709.0</ele><time>2026-04-26T08:15:40.192Z</time></trkpt><trkpt lat="45.8753414" lon="11.6488097"><ele>712.0</ele><time>2026-04-26T08:15:42.194Z</time></trkpt><trkpt lat="45.8754632" lon="11.6487357"><ele>715.0</ele><time>2026-04-26T08:15:43.192Z</time></trkpt><trkpt lat="45.8755661" lon="11.6486951"><ele>718.0</ele><time>2026-04-26T08:15:44.193Z</time></trkpt><trkpt lat="45.8756566" lon="11.6486836"><ele>721.0</ele><time>2026-04-26T08:15:45.193Z</time></trkpt><trkpt lat="45.8757354" lon="11.6486665"><ele>724.0</ele><time>2026-04-26T08:15:46.192Z</time></trkpt><trkpt lat="45.8758093" lon="11.6486069"><ele>724.0</ele><time>2026-04-26T08:15:47.193Z</time></trkpt><trkpt lat="45.8758732" lon="11.6485034"><ele>724.0</ele><time>2026-04-26T08:15:48.193Z</time></trkpt><trkpt lat="45.8759062" lon="11.6483226"><ele>724.0</ele><time>2026-04-26T08:15:49.194Z</time></trkpt><trkpt lat="45.8759493" lon="11.648167"><ele>724.0</ele><time>2026-04-26T08:15:50.192Z</time></trkpt><trkpt lat="45.8759988" lon="11.6480401"><ele>724.0</ele><time>2026-04-26T08:15:51.191Z</time></trkpt><trkpt lat="45.8760741" lon="11.6479661"><ele>731.4000000000001</ele><time>2026-04-26T08:15:52.193Z</time></trkpt><trkpt lat="45.8761611" lon="11.6479394"><ele>738.8</ele><time>2026-04-26T08:15:53.191Z</time></trkpt><trkpt lat="45.8762596" lon="11.6479572"><ele>746.2</ele><time>2026-04-26T08:15:54.19Z</time></trkpt><trkpt lat="45.8763639" lon="11.6479937"><ele>753.5999999999999</ele><time>2026-04-26T08:15:55.192Z</time></trkpt><trkpt lat="45.8764588" lon="11.6480259"><ele>761.0</ele><time>2026-04-26T08:15:56.193Z</time></trkpt><trkpt lat="45.8765592" lon="11.6480253"><ele>761.0</ele><time>2026-04-26T08:15:57.192Z</time></trkpt><trkpt lat="45.8766646" lon="11.647961"><ele>761.0</ele><time>2026-04-26T08:15:58.191Z</time></trkpt><trkpt lat="45.8767759" lon="11.647856"><ele>761.0</ele><time>2026-04-26T08:15:59.192Z</time></trkpt><trkpt lat="45.8768747" lon="11.6477281"><ele>761.0</ele><time>2026-04-26T08:16:00.19Z</time></trkpt><trkpt lat="45.8769754" lon="11.6476066"><ele>761.5</ele><time>2026-04-26T08:16:01.191Z</time></trkpt><trkpt lat="45.877037" lon="11.6473003"><ele>762.0</ele><time>2026-04-26T08:16:03.192Z</time></trkpt><trkpt lat="45.8770518" lon="11.6471554"><ele>762.5</ele><time>2026-04-26T08:16:04.192Z</time></trkpt><trkpt lat="45.8770946" lon="11.6470287"><ele>763.0</ele><time>2026-04-26T08:16:05.194Z</time></trkpt><trkpt lat="45.8771735" lon="11.6469219"><ele>760.5</ele><time>2026-04-26T08:16:06.193Z</time></trkpt><trkpt lat="45.8772867" lon="11.6468335"><ele>758.0</ele><time>2026-04-26T08:16:07.192Z</time></trkpt><trkpt lat="45.8774265" lon="11.6467512"><ele>755.5</ele><time>2026-04-26T08:16:08.194Z</time></trkpt><trkpt lat="45.877571" lon="11.6466915"><ele>753.0</ele><time>2026-04-26T08:16:09.194Z</time></trkpt><trkpt lat="45.8776962" lon="11.6466592"><ele>753.0</ele><time>2026-04-26T08:16:10.193Z</time></trkpt><trkpt lat="45.8778047" lon="11.6466619"><ele>753.0</ele><time>2026-04-26T08:16:11.194Z</time></trkpt><trkpt lat="45.8779152" lon="11.6467242"><ele>753.0</ele><time>2026-04-26T08:16:12.192Z</time></trkpt><trkpt lat="45.8780305" lon="11.6468153"><ele>753.0</ele><time>2026-04-26T08:16:13.193Z</time></trkpt><trkpt lat="45.8781421" lon="11.646881"><ele>753.0</ele><time>2026-04-26T08:16:14.192Z</time></trkpt><trkpt lat="45.8782487" lon="11.6468936"><ele>753.0</ele><time>2026-04-26T08:16:15.19Z</time></trkpt><trkpt lat="45.8783581" lon="11.6468538"><ele>753.0</ele><time>2026-04-26T08:16:16.191Z</time></trkpt><trkpt lat="45.8784701" lon="11.6467551"><ele>753.0</ele><time>2026-04-26T08:16:17.19Z</time></trkpt><trkpt lat="45.8785876" lon="11.646624"><ele>762.75</ele><time>2026-04-26T08:16:18.19Z</time></trkpt><trkpt lat="45.8787035" lon="11.6465098"><ele>772.5</ele><time>2026-04-26T08:16:19.19Z</time></trkpt><trkpt lat="45.8788322" lon="11.6464378"><ele>782.25</ele><time>2026-04-26T08:16:20.193Z</time></trkpt><trkpt lat="45.8789752" lon="11.6463896"><ele>792.0</ele><time>2026-04-26T08:16:21.191Z</time></trkpt><trkpt lat="45.8791109" lon="11.6463429"><ele>796.3333333333333</ele><time>2026-04-26T08:16:22.191Z</time></trkpt><trkpt lat="45.8793195" lon="11.6462454"><ele>800.6666666666666</ele><time>2026-04-26T08:16:24.191Z</time></trkpt><trkpt lat="45.8794224" lon="11.6459877"><ele>805.0</ele><time>2026-04-26T08:16:26.193Z</time></trkpt><trkpt lat="45.8794532" lon="11.6458404"><ele>805.0</ele><time>2026-04-26T08:16:27.19Z</time></trkpt><trkpt lat="45.879507" lon="11.6457166"><ele>805.0</ele><time>2026-04-26T08:16:28.191Z</time></trkpt><trkpt lat="45.8795957" lon="11.6456096"><ele>805.0</ele><time>2026-04-26T08:16:29.191Z</time></trkpt><trkpt lat="45.87971" lon="11.6455038"><ele>805.0</ele><time>2026-04-26T08:16:30.192Z</time></trkpt><trkpt lat="45.8798149" lon="11.6453724"><ele>805.75</ele><time>2026-04-26T08:16:31.192Z</time></trkpt><trkpt lat="45.8798969" lon="11.6452135"><ele>806.5</ele><time>2026-04-26T08:16:32.192Z</time></trkpt><trkpt lat="45.8799702" lon="11.6450523"><ele>807.25</ele><time>2026-04-26T08:16:33.192Z</time></trkpt><trkpt lat="45.8800731" lon="11.6449307"><ele>808.0</ele><time>2026-04-26T08:16:34.192Z</time></trkpt><trkpt lat="45.8802064" lon="11.6448221"><ele>808.0</ele><time>2026-04-26T08:16:35.191Z</time></trkpt><trkpt lat="45.8803618" lon="11.6447158"><ele>808.0</ele><time>2026-04-26T08:16:36.191Z</time></trkpt><trkpt lat="45.8805318" lon="11.6446081"><ele>808.0</ele><time>2026-04-26T08:16:37.194Z</time></trkpt><trkpt lat="45.8806967" lon="11.6445088"><ele>802.0</ele><time>2026-04-26T08:16:38.193Z</time></trkpt><trkpt lat="45.8808483" lon="11.6444294"><ele>796.0</ele><time>2026-04-26T08:16:39.19Z</time></trkpt><trkpt lat="45.8809686" lon="11.6443869"><ele>790.0</ele><time>2026-04-26T08:16:39.989Z</time></trkpt><trkpt lat="45.8811679" lon="11.6443562"><ele>790.0</ele><time>2026-04-26T08:16:41.189Z</time></trkpt><trkpt lat="45.8813439" lon="11.6443276"><ele>790.0</ele><time>2026-04-26T08:16:42.188Z</time></trkpt><trkpt lat="45.8815301" lon="11.6442613"><ele>790.0</ele><time>2026-04-26T08:16:43.191Z</time></trkpt><trkpt lat="45.8818614" lon="11.6440547"><ele>801.0</ele><time>2026-04-26T08:16:45.19Z</time></trkpt><trkpt lat="45.8819959" lon="11.643957"><ele>812.0</ele><time>2026-04-26T08:16:46.191Z</time></trkpt><trkpt lat="45.8821145" lon="11.643856"><ele>823.0</ele><time>2026-04-26T08:16:47.194Z</time></trkpt><trkpt lat="45.8822251" lon="11.6437502"><ele>834.0</ele><time>2026-04-26T08:16:48.191Z</time></trkpt><trkpt lat="45.8823205" lon="11.6436523"><ele>830.2</ele><time>2026-04-26T08:16:49.189Z</time></trkpt><trkpt lat="45.8823775" lon="11.6435482"><ele>826.4000000000001</ele><time>2026-04-26T08:16:50.191Z</time></trkpt><trkpt lat="45.882383" lon="11.6434321"><ele>822.6</ele><time>2026-04-26T08:16:51.191Z</time></trkpt><trkpt lat="45.8823524" lon="11.6433115"><ele>818.8</ele><time>2026-04-26T08:16:52.192Z</time></trkpt><trkpt lat="45.8822804" lon="11.6431872"><ele>815.0</ele><time>2026-04-26T08:16:53.191Z</time></trkpt><trkpt lat="45.8821766" lon="11.6430966"><ele>815.0</ele><time>2026-04-26T08:16:54.193Z</time></trkpt><trkpt lat="45.8820522" lon="11.6430627"><ele>815.0</ele><time>2026-04-26T08:16:55.192Z</time></trkpt><trkpt lat="45.8819101" lon="11.6430798"><ele>815.0</ele><time>2026-04-26T08:16:56.19Z</time></trkpt><trkpt lat="45.8817591" lon="11.6431106"><ele>815.0</ele><time>2026-04-26T08:16:57.193Z</time></trkpt><trkpt lat="45.8815934" lon="11.6430888"><ele>809.3333333333334</ele><time>2026-04-26T08:16:58.19Z</time></trkpt><trkpt lat="45.8814173" lon="11.6430302"><ele>803.6666666666667</ele><time>2026-04-26T08:16:59.193Z</time></trkpt><trkpt lat="45.8812627" lon="11.6429693"><ele>798.0</ele><time>2026-04-26T08:17:00.191Z</time></trkpt><trkpt lat="45.8811267" lon="11.6428848"><ele>803.5</ele><time>2026-04-26T08:17:01.19Z</time></trkpt><trkpt lat="45.8810061" lon="11.6427724"><ele>809.0</ele><time>2026-04-26T08:17:02.191Z</time></trkpt><trkpt lat="45.8809093" lon="11.6426321"><ele>814.5</ele><time>2026-04-26T08:17:03.191Z</time></trkpt><trkpt lat="45.8807971" lon="11.6425299"><ele>820.0</ele><time>2026-04-26T08:17:04.193Z</time></trkpt><trkpt lat="45.8805257" lon="11.642461"><ele>820.0</ele><time>2026-04-26T08:17:06.191Z</time></trkpt><trkpt lat="45.8804094" lon="11.6424746"><ele>820.0</ele><time>2026-04-26T08:17:07.192Z</time></trkpt><trkpt lat="45.8803059" lon="11.6424951"><ele>820.0</ele><time>2026-04-26T08:17:08.192Z</time></trkpt><trkpt lat="45.8802133" lon="11.6424602"><ele>820.0</ele><time>2026-04-26T08:17:09.193Z</time></trkpt><trkpt lat="45.8801437" lon="11.6423633"><ele>820.0</ele><time>2026-04-26T08:17:10.192Z</time></trkpt><trkpt lat="45.8800862" lon="11.6422249"><ele>824.75</ele><time>2026-04-26T08:17:11.193Z</time></trkpt><trkpt lat="45.8800357" lon="11.6420651"><ele>829.5</ele><time>2026-04-26T08:17:12.191Z</time></trkpt><trkpt lat="45.8799457" lon="11.6419472"><ele>834.25</ele><time>2026-04-26T08:17:13.193Z</time></trkpt><trkpt lat="45.8798129" lon="11.6418654"><ele>839.0</ele><time>2026-04-26T08:17:14.195Z</time></trkpt><trkpt lat="45.8796663" lon="11.64182"><ele>839.0</ele><time>2026-04-26T08:17:15.193Z</time></trkpt><trkpt lat="45.879526" lon="11.6418267"><ele>839.0</ele><time>2026-04-26T08:17:16.195Z</time></trkpt><trkpt lat="45.8794087" lon="11.6418528"><ele>839.0</ele><time>2026-04-26T08:17:17.195Z</time></trkpt><trkpt lat="45.8793196" lon="11.6418806"><ele>839.0</ele><time>2026-04-26T08:17:18.195Z</time></trkpt><trkpt lat="45.8792533" lon="11.6418913"><ele>839.0</ele><time>2026-04-26T08:17:19.194Z</time></trkpt><trkpt lat="45.8791908" lon="11.6417964"><ele>839.0</ele><time>2026-04-26T08:17:21.193Z</time></trkpt><trkpt lat="45.8792782" lon="11.64171"><ele>839.0</ele><time>2026-04-26T08:17:23.196Z</time></trkpt><trkpt lat="45.8793753" lon="11.6416973"><ele>839.0</ele><time>2026-04-26T08:17:24.194Z</time></trkpt><trkpt lat="45.8794983" lon="11.641662"><ele>839.0</ele><time>2026-04-26T08:17:25.194Z</time></trkpt><trkpt lat="45.8797731" lon="11.6416098"><ele>839.0</ele><time>2026-04-26T08:17:27.194Z</time></trkpt><trkpt lat="45.8799035" lon="11.641638"><ele>839.0</ele><time>2026-04-26T08:17:28.194Z</time></trkpt><trkpt lat="45.8800184" lon="11.6417096"><ele>839.0</ele><time>2026-04-26T08:17:29.192Z</time></trkpt><trkpt lat="45.8801129" lon="11.6418349"><ele>839.0</ele><time>2026-04-26T08:17:30.195Z</time></trkpt><trkpt lat="45.8801987" lon="11.6419395"><ele>834.25</ele><time>2026-04-26T08:17:31.194Z</time></trkpt><trkpt lat="45.8802934" lon="11.6419855"><ele>829.5</ele><time>2026-04-26T08:17:32.194Z</time></trkpt><trkpt lat="45.8804069" lon="11.6419793"><ele>824.75</ele><time>2026-04-26T08:17:33.195Z</time></trkpt><trkpt lat="45.8805316" lon="11.6419542"><ele>820.0</ele><time>2026-04-26T08:17:34.194Z</time></trkpt><trkpt lat="45.8806649" lon="11.6419648"><ele>820.0</ele><time>2026-04-26T08:17:35.196Z</time></trkpt><trkpt lat="45.8808109" lon="11.6420137"><ele>820.0</ele><time>2026-04-26T08:17:36.194Z</time></trkpt><trkpt lat="45.8809685" lon="11.6420936"><ele>820.0</ele><time>2026-04-26T08:17:37.193Z</time></trkpt><trkpt lat="45.8811459" lon="11.6421952"><ele>829.0</ele><time>2026-04-26T08:17:38.194Z</time></trkpt><trkpt lat="45.8813342" lon="11.6422975"><ele>838.0</ele><time>2026-04-26T08:17:39.196Z</time></trkpt><trkpt lat="45.8815105" lon="11.6423901"><ele>847.0</ele><time>2026-04-26T08:17:40.195Z</time></trkpt><trkpt lat="45.8816683" lon="11.6424615"><ele>852.6666666666666</ele><time>2026-04-26T08:17:41.194Z</time></trkpt><trkpt lat="45.8818221" lon="11.6425071"><ele>858.3333333333333</ele><time>2026-04-26T08:17:42.196Z</time></trkpt><trkpt lat="45.8819807" lon="11.6425149"><ele>864.0</ele><time>2026-04-26T08:17:43.195Z</time></trkpt><trkpt lat="45.8821324" lon="11.642497"><ele>864.0</ele><time>2026-04-26T08:17:44.193Z</time></trkpt><trkpt lat="45.8822772" lon="11.6424418"><ele>864.0</ele><time>2026-04-26T08:17:45.195Z</time></trkpt><trkpt lat="45.8824084" lon="11.6423525"><ele>864.0</ele><time>2026-04-26T08:17:46.192Z</time></trkpt><trkpt lat="45.8826208" lon="11.6422086"><ele>868.0</ele><time>2026-04-26T08:17:48.193Z</time></trkpt><trkpt lat="45.8826913" lon="11.6421594"><ele>872.0</ele><time>2026-04-26T08:17:49.192Z</time></trkpt><trkpt lat="45.8827615" lon="11.6421204"><ele>876.0</ele><time>2026-04-26T08:17:50.189Z</time></trkpt><trkpt lat="45.8828272" lon="11.6421541"><ele>880.0</ele><time>2026-04-26T08:17:51.188Z</time></trkpt><trkpt lat="45.882894" lon="11.6422457"><ele>884.0</ele><time>2026-04-26T08:17:52.188Z</time></trkpt><trkpt lat="45.8829719" lon="11.6423752"><ele>888.0</ele><time>2026-04-26T08:17:53.188Z</time></trkpt><trkpt lat="45.8830184" lon="11.6425028"><ele>888.0</ele><time>2026-04-26T08:17:54.19Z</time></trkpt><trkpt lat="45.8830861" lon="11.6425754"><ele>888.0</ele><time>2026-04-26T08:17:55.194Z</time></trkpt><trkpt lat="45.8831905" lon="11.6426087"><ele>888.0</ele><time>2026-04-26T08:17:56.195Z</time></trkpt><trkpt lat="45.883325" lon="11.6426223"><ele>888.0</ele><time>2026-04-26T08:17:57.193Z</time></trkpt><trkpt lat="45.8834885" lon="11.6426359"><ele>893.0</ele><time>2026-04-26T08:17:58.195Z</time></trkpt><trkpt lat="45.8836731" lon="11.6426619"><ele>898.0</ele><time>2026-04-26T08:17:59.195Z</time></trkpt><trkpt lat="45.8838633" lon="11.6426967"><ele>903.0</ele><time>2026-04-26T08:18:00.196Z</time></trkpt><trkpt lat="45.884034" lon="11.6427352"><ele>903.0</ele><time>2026-04-26T08:18:01.194Z</time></trkpt><trkpt lat="45.8841873" lon="11.6427688"><ele>903.0</ele><time>2026-04-26T08:18:02.195Z</time></trkpt><trkpt lat="45.8843339" lon="11.6427971"><ele>903.0</ele><time>2026-04-26T08:18:03.196Z</time></trkpt><trkpt lat="45.8844733" lon="11.642806"><ele>903.0</ele><time>2026-04-26T08:18:04.195Z</time></trkpt><trkpt lat="45.8846152" lon="11.6427767"><ele>901.0</ele><time>2026-04-26T08:18:05.195Z</time></trkpt><trkpt lat="45.8847669" lon="11.6427088"><ele>899.0</ele><time>2026-04-26T08:18:06.195Z</time></trkpt><trkpt lat="45.884917" lon="11.6426276"><ele>897.0</ele><time>2026-04-26T08:18:07.195Z</time></trkpt><trkpt lat="45.8852089" lon="11.6425093"><ele>896.3333333333333</ele><time>2026-04-26T08:18:09.194Z</time></trkpt><trkpt lat="45.8853687" lon="11.6424792"><ele>895.6666666666666</ele><time>2026-04-26T08:18:10.195Z</time></trkpt><trkpt lat="45.8855389" lon="11.642458"><ele>895.0</ele><time>2026-04-26T08:18:11.194Z</time></trkpt><trkpt lat="45.8857034" lon="11.6424656"><ele>895.0</ele><time>2026-04-26T08:18:12.193Z</time></trkpt><trkpt lat="45.8858718" lon="11.6425117"><ele>895.0</ele><time>2026-04-26T08:18:13.195Z</time></trkpt><trkpt lat="45.8860463" lon="11.6425677"><ele>895.0</ele><time>2026-04-26T08:18:14.193Z</time></trkpt><trkpt lat="45.8862134" lon="11.6425851"><ele>896.3333333333333</ele><time>2026-04-26T08:18:15.193Z</time></trkpt><trkpt lat="45.8863825" lon="11.6425486"><ele>897.6666666666667</ele><time>2026-04-26T08:18:16.194Z</time></trkpt><trkpt lat="45.8865558" lon="11.6424618"><ele>899.0</ele><time>2026-04-26T08:18:17.192Z</time></trkpt><trkpt lat="45.8867313" lon="11.6423591"><ele>899.3333333333334</ele><time>2026-04-26T08:18:18.19Z</time></trkpt><trkpt lat="45.8869057" lon="11.6422915"><ele>899.6666666666667</ele><time>2026-04-26T08:18:19.191Z</time></trkpt><trkpt lat="45.8870732" lon="11.6422602"><ele>900.0</ele><time>2026-04-26T08:18:20.191Z</time></trkpt><trkpt lat="45.8872174" lon="11.6422201"><ele>900.0</ele><time>2026-04-26T08:18:21.191Z</time></trkpt><trkpt lat="45.887355" lon="11.6421366"><ele>900.0</ele><time>2026-04-26T08:18:22.194Z</time></trkpt><trkpt lat="45.8874855" lon="11.6419958"><ele>900.0</ele><time>2026-04-26T08:18:23.192Z</time></trkpt><trkpt lat="45.8876044" lon="11.641838"><ele>902.3333333333333</ele><time>2026-04-26T08:18:24.194Z</time></trkpt><trkpt lat="45.8877206" lon="11.6417061"><ele>904.6666666666666</ele><time>2026-04-26T08:18:25.192Z</time></trkpt><trkpt lat="45.8878532" lon="11.6416074"><ele>907.0</ele><time>2026-04-26T08:18:26.193Z</time></trkpt><trkpt lat="45.8880049" lon="11.6415406"><ele>907.0</ele><time>2026-04-26T08:18:27.193Z</time></trkpt><trkpt lat="45.888177" lon="11.6414883"><ele>907.0</ele><time>2026-04-26T08:18:28.191Z</time></trkpt><trkpt lat="45.888565" lon="11.6413682"><ele>906.0</ele><time>2026-04-26T08:18:30.191Z</time></trkpt><trkpt lat="45.8887735" lon="11.6412926"><ele>905.0</ele><time>2026-04-26T08:18:31.192Z</time></trkpt><trkpt lat="45.8889801" lon="11.6412208"><ele>904.0</ele><time>2026-04-26T08:18:32.194Z</time></trkpt><trkpt lat="45.8891832" lon="11.6411495"><ele>908.6666666666666</ele><time>2026-04-26T08:18:33.193Z</time></trkpt><trkpt lat="45.8893446" lon="11.6411013"><ele>913.3333333333333</ele><time>2026-04-26T08:18:33.992Z</time></trkpt><trkpt lat="45.8895834" lon="11.6410284"><ele>918.0</ele><time>2026-04-26T08:18:35.194Z</time></trkpt><trkpt lat="45.8897803" lon="11.6409732"><ele>918.0</ele><time>2026-04-26T08:18:36.194Z</time></trkpt><trkpt lat="45.88998" lon="11.640925"><ele>918.0</ele><time>2026-04-26T08:18:37.195Z</time></trkpt><trkpt lat="45.8901819" lon="11.6408831"><ele>918.0</ele><time>2026-04-26T08:18:38.193Z</time></trkpt><trkpt lat="45.8903767" lon="11.6408422"><ele>919.3333333333333</ele><time>2026-04-26T08:18:39.196Z</time></trkpt><trkpt lat="45.8905578" lon="11.6408014"><ele>920.6666666666666</ele><time>2026-04-26T08:18:40.194Z</time></trkpt><trkpt lat="45.8907204" lon="11.6407593"><ele>922.0</ele><time>2026-04-26T08:18:41.195Z</time></trkpt><trkpt lat="45.8908631" lon="11.6407118"><ele>922.5</ele><time>2026-04-26T08:18:42.195Z</time></trkpt><trkpt lat="45.8909866" lon="11.6406632"><ele>923.0</ele><time>2026-04-26T08:18:43.193Z</time></trkpt><trkpt lat="45.8911012" lon="11.6406378"><ele>923.5</ele><time>2026-04-26T08:18:44.192Z</time></trkpt><trkpt lat="45.891218" lon="11.6406476"><ele>924.0</ele><time>2026-04-26T08:18:45.191Z</time></trkpt><trkpt lat="45.8913461" lon="11.6406892"><ele>924.0</ele><time>2026-04-26T08:18:46.194Z</time></trkpt><trkpt lat="45.8914706" lon="11.6407333"><ele>924.0</ele><time>2026-04-26T08:18:47.195Z</time></trkpt><trkpt lat="45.8915829" lon="11.6407523"><ele>924.0</ele><time>2026-04-26T08:18:48.196Z</time></trkpt><trkpt lat="45.8916823" lon="11.6407583"><ele>924.0</ele><time>2026-04-26T08:18:49.195Z</time></trkpt><trkpt lat="45.8918693" lon="11.6407393"><ele>924.75</ele><time>2026-04-26T08:18:51.197Z</time></trkpt><trkpt lat="45.8919748" lon="11.6407002"><ele>925.5</ele><time>2026-04-26T08:18:52.195Z</time></trkpt><trkpt lat="45.8920927" lon="11.6406322"><ele>926.25</ele><time>2026-04-26T08:18:53.195Z</time></trkpt><trkpt lat="45.8922149" lon="11.640541"><ele>927.0</ele><time>2026-04-26T08:18:54.195Z</time></trkpt><trkpt lat="45.8923358" lon="11.6404361"><ele>927.0</ele><time>2026-04-26T08:18:55.197Z</time></trkpt><trkpt lat="45.8924539" lon="11.6403204"><ele>927.0</ele><time>2026-04-26T08:18:56.197Z</time></trkpt><trkpt lat="45.8925734" lon="11.6401782"><ele>927.0</ele><time>2026-04-26T08:18:57.196Z</time></trkpt><trkpt lat="45.8927037" lon="11.6400037"><ele>929.6666666666667</ele><time>2026-04-26T08:18:58.195Z</time></trkpt><trkpt lat="45.8928395" lon="11.6398143"><ele>932.3333333333334</ele><time>2026-04-26T08:18:59.196Z</time></trkpt><trkpt lat="45.8929537" lon="11.6396349"><ele>935.0</ele><time>2026-04-26T08:19:00.197Z</time></trkpt><trkpt lat="45.8930462" lon="11.6394778"><ele>942.25</ele><time>2026-04-26T08:19:01.195Z</time></trkpt><trkpt lat="45.8931426" lon="11.63936"><ele>949.5</ele><time>2026-04-26T08:19:02.195Z</time></trkpt><trkpt lat="45.8932086" lon="11.6393163"><ele>956.75</ele><time>2026-04-26T08:19:02.798Z</time></trkpt><trkpt lat="45.8933838" lon="11.6393011"><ele>964.0</ele><time>2026-04-26T08:19:04.196Z</time></trkpt><trkpt lat="45.8935333" lon="11.6393414"><ele>964.3333333333333</ele><time>2026-04-26T08:19:05.197Z</time></trkpt><trkpt lat="45.8937015" lon="11.6393831"><ele>964.6666666666667</ele><time>2026-04-26T08:19:06.195Z</time></trkpt><trkpt lat="45.8938842" lon="11.6394077"><ele>965.0</ele><time>2026-04-26T08:19:07.193Z</time></trkpt><trkpt lat="45.894059" lon="11.6394287"><ele>965.0</ele><time>2026-04-26T08:19:08.196Z</time></trkpt><trkpt lat="45.894218" lon="11.6394459"><ele>965.0</ele><time>2026-04-26T08:19:09.191Z</time></trkpt><trkpt lat="45.8943686" lon="11.6394568"><ele>965.0</ele><time>2026-04-26T08:19:10.194Z</time></trkpt><trkpt lat="45.8946702" lon="11.6394114"><ele>962.75</ele><time>2026-04-26T08:19:12.197Z</time></trkpt><trkpt lat="45.8948001" lon="11.6393407"><ele>960.5</ele><time>2026-04-26T08:19:13.197Z</time></trkpt><trkpt lat="45.8949057" lon="11.63923"><ele>958.25</ele><time>2026-04-26T08:19:14.197Z</time></trkpt><trkpt lat="45.8949889" lon="11.6390826"><ele>956.0</ele><time>2026-04-26T08:19:15.196Z</time></trkpt><trkpt lat="45.8950496" lon="11.6388975"><ele>956.0</ele><time>2026-04-26T08:19:16.195Z</time></trkpt><trkpt lat="45.8950839" lon="11.6386791"><ele>956.0</ele><time>2026-04-26T08:19:17.196Z</time></trkpt><trkpt lat="45.8951007" lon="11.6384377"><ele>956.0</ele><time>2026-04-26T08:19:18.195Z</time></trkpt><trkpt lat="45.8950912" lon="11.6381753"><ele>960.3333333333334</ele><time>2026-04-26T08:19:19.195Z</time></trkpt><trkpt lat="45.8950677" lon="11.6378877"><ele>964.6666666666667</ele><time>2026-04-26T08:19:20.196Z</time></trkpt><trkpt lat="45.8950349" lon="11.6375893"><ele>969.0</ele><time>2026-04-26T08:19:21.195Z</time></trkpt><trkpt lat="45.8950056" lon="11.6372894"><ele>971.3333333333333</ele><time>2026-04-26T08:19:22.195Z</time></trkpt><trkpt lat="45.8949764" lon="11.6370006"><ele>973.6666666666666</ele><time>2026-04-26T08:19:23.195Z</time></trkpt><trkpt lat="45.894958" lon="11.6367108"><ele>976.0</ele><time>2026-04-26T08:19:24.196Z</time></trkpt><trkpt lat="45.8949391" lon="11.636427"><ele>977.0</ele><time>2026-04-26T08:19:25.195Z</time></trkpt><trkpt lat="45.8949202" lon="11.6361687"><ele>978.0</ele><time>2026-04-26T08:19:26.197Z</time></trkpt><trkpt lat="45.8949079" lon="11.6359362"><ele>979.0</ele><time>2026-04-26T08:19:27.194Z</time></trkpt><trkpt lat="45.8948919" lon="11.635726"><ele>979.75</ele><time>2026-04-26T08:19:28.195Z</time></trkpt><trkpt lat="45.8948593" lon="11.6355402"><ele>980.5</ele><time>2026-04-26T08:19:29.196Z</time></trkpt><trkpt lat="45.8948305" lon="11.6353781"><ele>981.25</ele><time>2026-04-26T08:19:30.196Z</time></trkpt><trkpt lat="45.894829" lon="11.6352347"><ele>982.0</ele><time>2026-04-26T08:19:31.193Z</time></trkpt><trkpt lat="45.8949287" lon="11.6349424"><ele>981.5</ele><time>2026-04-26T08:19:33.193Z</time></trkpt><trkpt lat="45.8950032" lon="11.6347841"><ele>981.0</ele><time>2026-04-26T08:19:34.192Z</time></trkpt><trkpt lat="45.895062" lon="11.6346325"><ele>980.5</ele><time>2026-04-26T08:19:35.197Z</time></trkpt><trkpt lat="45.8951207" lon="11.6345021"><ele>980.0</ele><time>2026-04-26T08:19:36.195Z</time></trkpt><trkpt lat="45.8952116" lon="11.6343986"><ele>982.0</ele><time>2026-04-26T08:19:37.193Z</time></trkpt><trkpt lat="45.895331" lon="11.6343031"><ele>984.0</ele><time>2026-04-26T08:19:38.196Z</time></trkpt><trkpt lat="45.8954738" lon="11.6342098"><ele>986.0</ele><time>2026-04-26T08:19:39.195Z</time></trkpt><trkpt lat="45.8956305" lon="11.6341056"><ele>986.0</ele><time>2026-04-26T08:19:40.195Z</time></trkpt><trkpt lat="45.89578" lon="11.6339989"><ele>986.0</ele><time>2026-04-26T08:19:41.197Z</time></trkpt><trkpt lat="45.8959128" lon="11.6339028"><ele>986.0</ele><time>2026-04-26T08:19:42.195Z</time></trkpt><trkpt lat="45.8960311" lon="11.6338221"><ele>986.0</ele><time>2026-04-26T08:19:43.195Z</time></trkpt><trkpt lat="45.8961197" lon="11.633749"><ele>990.0000000000001</ele><time>2026-04-26T08:19:44.194Z</time></trkpt><trkpt lat="45.8961973" lon="11.6337032"><ele>994.0</ele><time>2026-04-26T08:19:45.198Z</time></trkpt><trkpt lat="45.8962679" lon="11.6337065"><ele>998.0</ele><time>2026-04-26T08:19:46.194Z</time></trkpt><trkpt lat="45.8963357" lon="11.6337634"><ele>1002.0</ele><time>2026-04-26T08:19:47.194Z</time></trkpt><trkpt lat="45.8963905" lon="11.6338717"><ele>1006.0000000000001</ele><time>2026-04-26T08:19:48.195Z</time></trkpt><trkpt lat="45.8964215" lon="11.6340314"><ele>1010.0</ele><time>2026-04-26T08:19:49.195Z</time></trkpt><trkpt lat="45.8964296" lon="11.6342349"><ele>1010.3333333333334</ele><time>2026-04-26T08:19:50.194Z</time></trkpt><trkpt lat="45.8964231" lon="11.6344764"><ele>1010.6666666666667</ele><time>2026-04-26T08:19:51.193Z</time></trkpt><trkpt lat="45.8964114" lon="11.6347431"><ele>1011.0</ele><time>2026-04-26T08:19:52.191Z</time></trkpt><trkpt lat="45.8964068" lon="11.6352886"><ele>1011.3333333333333</ele><time>2026-04-26T08:19:54.194Z</time></trkpt><trkpt lat="45.8964193" lon="11.6355406"><ele>1011.6666666666666</ele><time>2026-04-26T08:19:55.193Z</time></trkpt><trkpt lat="45.8964355" lon="11.635765"><ele>1012.0</ele><time>2026-04-26T08:19:56.193Z</time></trkpt><trkpt lat="45.8964538" lon="11.6359693"><ele>1010.5</ele><time>2026-04-26T08:19:57.193Z</time></trkpt><trkpt lat="45.8964852" lon="11.6361629"><ele>1009.0</ele><time>2026-04-26T08:19:58.194Z</time></trkpt><trkpt lat="45.8965378" lon="11.6363394"><ele>1007.5</ele><time>2026-04-26T08:19:59.194Z</time></trkpt><trkpt lat="45.8966057" lon="11.6365129"><ele>1006.0</ele><time>2026-04-26T08:20:00.196Z</time></trkpt><trkpt lat="45.8966719" lon="11.6367095"><ele>1006.0</ele><time>2026-04-26T08:20:01.196Z</time></trkpt><trkpt lat="45.8967237" lon="11.6369131"><ele>1006.0</ele><time>2026-04-26T08:20:02.198Z</time></trkpt><trkpt lat="45.8967756" lon="11.637094"><ele>1006.0</ele><time>2026-04-26T08:20:03.195Z</time></trkpt><trkpt lat="45.896849" lon="11.6372557"><ele>1006.0</ele><time>2026-04-26T08:20:04.195Z</time></trkpt><trkpt lat="45.8969554" lon="11.6374055"><ele>1004.5</ele><time>2026-04-26T08:20:05.198Z</time></trkpt><trkpt lat="45.8970691" lon="11.6375531"><ele>1003.0</ele><time>2026-04-26T08:20:06.197Z</time></trkpt><trkpt lat="45.8971717" lon="11.6376801"><ele>1001.5</ele><time>2026-04-26T08:20:07.196Z</time></trkpt><trkpt lat="45.8972796" lon="11.6377785"><ele>1000.0</ele><time>2026-04-26T08:20:08.195Z</time></trkpt><trkpt lat="45.8974185" lon="11.6378189"><ele>1000.0</ele><time>2026-04-26T08:20:09.195Z</time></trkpt><trkpt lat="45.8975793" lon="11.6378237"><ele>1000.0</ele><time>2026-04-26T08:20:10.196Z</time></trkpt><trkpt lat="45.8977569" lon="11.6378021"><ele>1000.0</ele><time>2026-04-26T08:20:11.195Z</time></trkpt><trkpt lat="45.8979563" lon="11.6377498"><ele>1011.5</ele><time>2026-04-26T08:20:12.196Z</time></trkpt><trkpt lat="45.8981638" lon="11.6376666"><ele>1023.0</ele><time>2026-04-26T08:20:13.195Z</time></trkpt><trkpt lat="45.8986068" lon="11.6374549"><ele>1023.0</ele><time>2026-04-26T08:20:15.195Z</time></trkpt><trkpt lat="45.8988301" lon="11.6373411"><ele>1023.0</ele><time>2026-04-26T08:20:16.194Z</time></trkpt><trkpt lat="45.8990422" lon="11.6372404"><ele>1023.0</ele><time>2026-04-26T08:20:17.196Z</time></trkpt><trkpt lat="45.8992382" lon="11.63714"><ele>1023.0</ele><time>2026-04-26T08:20:18.196Z</time></trkpt><trkpt lat="45.8994218" lon="11.6370323"><ele>1023.0</ele><time>2026-04-26T08:20:19.195Z</time></trkpt><trkpt lat="45.8995965" lon="11.6369261"><ele>1028.6666666666667</ele><time>2026-04-26T08:20:20.193Z</time></trkpt><trkpt lat="45.8997575" lon="11.6368269"><ele>1034.3333333333335</ele><time>2026-04-26T08:20:21.194Z</time></trkpt><trkpt lat="45.8999053" lon="11.6367361"><ele>1040.0</ele><time>2026-04-26T08:20:22.195Z</time></trkpt><trkpt lat="45.9000429" lon="11.6366482"><ele>1040.5</ele><time>2026-04-26T08:20:23.195Z</time></trkpt><trkpt lat="45.9001692" lon="11.6365508"><ele>1041.0</ele><time>2026-04-26T08:20:24.197Z</time></trkpt><trkpt lat="45.9002884" lon="11.6364337"><ele>1041.5</ele><time>2026-04-26T08:20:25.195Z</time></trkpt><trkpt lat="45.9004056" lon="11.636289"><ele>1042.0</ele><time>2026-04-26T08:20:26.198Z</time></trkpt><trkpt lat="45.9005136" lon="11.6361174"><ele>1042.0</ele><time>2026-04-26T08:20:27.196Z</time></trkpt><trkpt lat="45.9005942" lon="11.6359193"><ele>1042.0</ele><time>2026-04-26T08:20:28.196Z</time></trkpt><trkpt lat="45.9006378" lon="11.6357014"><ele>1042.0</ele><time>2026-04-26T08:20:29.197Z</time></trkpt><trkpt lat="45.9006399" lon="11.6354631"><ele>1040.6666666666665</ele><time>2026-04-26T08:20:30.195Z</time></trkpt><trkpt lat="45.9006073" lon="11.6352109"><ele>1039.3333333333333</ele><time>2026-04-26T08:20:31.197Z</time></trkpt><trkpt lat="45.9005485" lon="11.6349493"><ele>1038.0</ele><time>2026-04-26T08:20:32.198Z</time></trkpt><trkpt lat="45.9004789" lon="11.6346788"><ele>1034.5</ele><time>2026-04-26T08:20:33.196Z</time></trkpt><trkpt lat="45.9004021" lon="11.6344155"><ele>1031.0</ele><time>2026-04-26T08:20:34.194Z</time></trkpt><trkpt lat="45.9002005" lon="11.6339138"><ele>1031.0</ele><time>2026-04-26T08:20:36.195Z</time></trkpt><trkpt lat="45.9000872" lon="11.633675"><ele>1031.0</ele><time>2026-04-26T08:20:37.196Z</time></trkpt><trkpt lat="45.8999735" lon="11.6334423"><ele>1031.0</ele><time>2026-04-26T08:20:38.195Z</time></trkpt><trkpt lat="45.8998521" lon="11.6332093"><ele>1041.0</ele><time>2026-04-26T08:20:39.195Z</time></trkpt><trkpt lat="45.8997244" lon="11.6329686"><ele>1051.0</ele><time>2026-04-26T08:20:40.196Z</time></trkpt><trkpt lat="45.8995965" lon="11.6327274"><ele>1061.0</ele><time>2026-04-26T08:20:41.195Z</time></trkpt><trkpt lat="45.8994705" lon="11.6325038"><ele>1061.0</ele><time>2026-04-26T08:20:42.196Z</time></trkpt><trkpt lat="45.8993445" lon="11.6323087"><ele>1061.0</ele><time>2026-04-26T08:20:43.196Z</time></trkpt><trkpt lat="45.8992234" lon="11.6321338"><ele>1061.0</ele><time>2026-04-26T08:20:44.195Z</time></trkpt><trkpt lat="45.8991155" lon="11.6319722"><ele>1065.25</ele><time>2026-04-26T08:20:45.194Z</time></trkpt><trkpt lat="45.8990344" lon="11.6318095"><ele>1069.5</ele><time>2026-04-26T08:20:46.192Z</time></trkpt><trkpt lat="45.8989749" lon="11.631634"><ele>1073.75</ele><time>2026-04-26T08:20:47.193Z</time></trkpt><trkpt lat="45.8989512" lon="11.631448"><ele>1078.0</ele><time>2026-04-26T08:20:48.193Z</time></trkpt><trkpt lat="45.8989665" lon="11.6312691"><ele>1077.6666666666665</ele><time>2026-04-26T08:20:49.196Z</time></trkpt><trkpt lat="45.8990272" lon="11.631099"><ele>1077.3333333333333</ele><time>2026-04-26T08:20:50.195Z</time></trkpt><trkpt lat="45.8991219" lon="11.6309244"><ele>1077.0</ele><time>2026-04-26T08:20:51.196Z</time></trkpt><trkpt lat="45.899242" lon="11.6307385"><ele>1071.3333333333333</ele><time>2026-04-26T08:20:52.197Z</time></trkpt><trkpt lat="45.8993775" lon="11.6305687"><ele>1065.6666666666665</ele><time>2026-04-26T08:20:53.196Z</time></trkpt><trkpt lat="45.8995182" lon="11.6304342"><ele>1060.0</ele><time>2026-04-26T08:20:54.197Z</time></trkpt><trkpt lat="45.899649" lon="11.6303249"><ele>1066.3333333333333</ele><time>2026-04-26T08:20:55.197Z</time></trkpt><trkpt lat="45.8998797" lon="11.6301502"><ele>1072.6666666666667</ele><time>2026-04-26T08:20:57.202Z</time></trkpt><trkpt lat="45.8999797" lon="11.6300838"><ele>1079.0</ele><time>2026-04-26T08:20:58.196Z</time></trkpt><trkpt lat="45.9000692" lon="11.6300297"><ele>1079.0</ele><time>2026-04-26T08:20:59.198Z</time></trkpt><trkpt lat="45.9001415" lon="11.6299889"><ele>1079.0</ele><time>2026-04-26T08:21:00.196Z</time></trkpt><trkpt lat="45.9002396" lon="11.6299386"><ele>1079.0</ele><time>2026-04-26T08:21:02.198Z</time></trkpt><trkpt lat="45.9003107" lon="11.6299037"><ele>1079.0</ele><time>2026-04-26T08:21:49.195Z</time></trkpt><trkpt lat="45.9004716" lon="11.6298988"><ele>1079.0</ele><time>2026-04-26T08:21:53.196Z</time></trkpt><trkpt lat="45.9005414" lon="11.6299191"><ele>1079.0</ele><time>2026-04-26T08:22:13.193Z</time></trkpt><trkpt lat="45.9007362" lon="11.629952"><ele>1079.0</ele><time>2026-04-26T08:22:17.192Z</time></trkpt><trkpt lat="45.9008063" lon="11.6299663"><ele>1079.0</ele><time>2026-04-26T08:22:18.192Z</time></trkpt><trkpt lat="45.900902" lon="11.6299868"><ele>1079.0</ele><time>2026-04-26T08:22:19.191Z</time></trkpt><trkpt lat="45.9010255" lon="11.6300085"><ele>1080.75</ele><time>2026-04-26T08:22:20.193Z</time></trkpt><trkpt lat="45.9011732" lon="11.6300182"><ele>1082.5</ele><time>2026-04-26T08:22:21.192Z</time></trkpt><trkpt lat="45.9013394" lon="11.630011"><ele>1084.25</ele><time>2026-04-26T08:22:22.192Z</time></trkpt><trkpt lat="45.9014419" lon="11.6300022"><ele>1086.0</ele><time>2026-04-26T08:22:22.803Z</time></trkpt><trkpt lat="45.9016575" lon="11.6299833"><ele>1091.0</ele><time>2026-04-26T08:22:24.191Z</time></trkpt><trkpt lat="45.901798" lon="11.6299707"><ele>1096.0</ele><time>2026-04-26T08:22:25.192Z</time></trkpt><trkpt lat="45.9019303" lon="11.6299683"><ele>1101.0</ele><time>2026-04-26T08:22:26.193Z</time></trkpt><trkpt lat="45.9020556" lon="11.6300024"><ele>1106.0</ele><time>2026-04-26T08:22:27.192Z</time></trkpt><trkpt lat="45.9021686" lon="11.6301004"><ele>1106.0</ele><time>2026-04-26T08:22:28.192Z</time></trkpt><trkpt lat="45.9022693" lon="11.6302555"><ele>1106.0</ele><time>2026-04-26T08:22:29.193Z</time></trkpt><trkpt lat="45.9023704" lon="11.6304518"><ele>1106.0</ele><time>2026-04-26T08:22:30.193Z</time></trkpt><trkpt lat="45.9024911" lon="11.6306649"><ele>1109.0</ele><time>2026-04-26T08:22:31.193Z</time></trkpt><trkpt lat="45.9026178" lon="11.6308617"><ele>1112.0</ele><time>2026-04-26T08:22:32.193Z</time></trkpt><trkpt lat="45.9027407" lon="11.6310309"><ele>1115.0</ele><time>2026-04-26T08:22:33.192Z</time></trkpt><trkpt lat="45.9028708" lon="11.6311678"><ele>1100.0</ele><time>2026-04-26T08:22:34.193Z</time></trkpt><trkpt lat="45.9031985" lon="11.6313991"><ele>1085.0</ele><time>2026-04-26T08:22:36.194Z</time></trkpt><trkpt lat="45.9033929" lon="11.6315207"><ele>1092.3333333333335</ele><time>2026-04-26T08:22:37.193Z</time></trkpt><trkpt lat="45.9035924" lon="11.631633"><ele>1099.6666666666667</ele><time>2026-04-26T08:22:38.193Z</time></trkpt><trkpt lat="45.9037836" lon="11.6317183"><ele>1107.0</ele><time>2026-04-26T08:22:39.192Z</time></trkpt><trkpt lat="45.9039542" lon="11.6317883"><ele>1107.0</ele><time>2026-04-26T08:22:40.192Z</time></trkpt><trkpt lat="45.904106" lon="11.6318675"><ele>1107.0</ele><time>2026-04-26T08:22:41.193Z</time></trkpt><trkpt lat="45.9042468" lon="11.6319853"><ele>1107.0</ele><time>2026-04-26T08:22:42.194Z</time></trkpt><trkpt lat="45.9043735" lon="11.6321541"><ele>1108.6666666666667</ele><time>2026-04-26T08:22:43.192Z</time></trkpt><trkpt lat="45.9044441" lon="11.6322849"><ele>1110.3333333333335</ele><time>2026-04-26T08:22:43.798Z</time></trkpt><trkpt lat="45.9046099" lon="11.6326225"><ele>1112.0</ele><time>2026-04-26T08:22:45.192Z</time></trkpt><trkpt lat="45.90472" lon="11.6328512"><ele>1107.25</ele><time>2026-04-26T08:22:46.196Z</time></trkpt><trkpt lat="45.9048214" lon="11.6330517"><ele>1102.5</ele><time>2026-04-26T08:22:47.193Z</time></trkpt><trkpt lat="45.9049134" lon="11.6332169"><ele>1097.75</ele><time>2026-04-26T08:22:48.19Z</time></trkpt><trkpt lat="45.9050056" lon="11.6333398"><ele>1093.0</ele><time>2026-04-26T08:22:49.19Z</time></trkpt><trkpt lat="45.9050956" lon="11.6334019"><ele>1093.0</ele><time>2026-04-26T08:22:50.193Z</time></trkpt><trkpt lat="45.9051836" lon="11.6333994"><ele>1093.0</ele><time>2026-04-26T08:22:51.193Z</time></trkpt><trkpt lat="45.9052737" lon="11.6333374"><ele>1093.0</ele><time>2026-04-26T08:22:52.192Z</time></trkpt><trkpt lat="45.9053749" lon="11.633217"><ele>1093.0</ele><time>2026-04-26T08:22:53.194Z</time></trkpt><trkpt lat="45.9054877" lon="11.6330695"><ele>1093.0</ele><time>2026-04-26T08:22:54.192Z</time></trkpt><trkpt lat="45.9055948" lon="11.6329387"><ele>1093.0</ele><time>2026-04-26T08:22:55.193Z</time></trkpt><trkpt lat="45.9058046" lon="11.6327848"><ele>1093.0</ele><time>2026-04-26T08:22:57.192Z</time></trkpt><trkpt lat="45.9059159" lon="11.6327891"><ele>1102.75</ele><time>2026-04-26T08:22:58.192Z</time></trkpt><trkpt lat="45.9060098" lon="11.6328628"><ele>1112.5</ele><time>2026-04-26T08:22:59.194Z</time></trkpt><trkpt lat="45.9060887" lon="11.6330029"><ele>1122.25</ele><time>2026-04-26T08:23:00.193Z</time></trkpt><trkpt lat="45.9061529" lon="11.6332015"><ele>1132.0</ele><time>2026-04-26T08:23:01.191Z</time></trkpt><trkpt lat="45.9061985" lon="11.6334471"><ele>1129.3333333333333</ele><time>2026-04-26T08:23:02.191Z</time></trkpt><trkpt lat="45.9062238" lon="11.6337212"><ele>1126.6666666666667</ele><time>2026-04-26T08:23:03.189Z</time></trkpt><trkpt lat="45.9062528" lon="11.6339963"><ele>1124.0</ele><time>2026-04-26T08:23:04.191Z</time></trkpt><trkpt lat="45.9062999" lon="11.6342765"><ele>1121.3333333333335</ele><time>2026-04-26T08:23:05.192Z</time></trkpt><trkpt lat="45.9063617" lon="11.6345757"><ele>1118.6666666666667</ele><time>2026-04-26T08:23:06.192Z</time></trkpt><trkpt lat="45.9064167" lon="11.6348776"><ele>1116.0</ele><time>2026-04-26T08:23:07.193Z</time></trkpt><trkpt lat="45.906453" lon="11.6351672"><ele>1112.6666666666667</ele><time>2026-04-26T08:23:08.193Z</time></trkpt><trkpt lat="45.9064775" lon="11.6354398"><ele>1109.3333333333335</ele><time>2026-04-26T08:23:09.192Z</time></trkpt><trkpt lat="45.9065052" lon="11.6356956"><ele>1106.0</ele><time>2026-04-26T08:23:10.191Z</time></trkpt><trkpt lat="45.9065395" lon="11.6359337"><ele>1106.0</ele><time>2026-04-26T08:23:11.192Z</time></trkpt><trkpt lat="45.906562" lon="11.6360688"><ele>1106.0</ele><time>2026-04-26T08:23:11.8Z</time></trkpt><trkpt lat="45.906618" lon="11.6363461"><ele>1106.0</ele><time>2026-04-26T08:23:13.19Z</time></trkpt><trkpt lat="45.9066714" lon="11.6365127"><ele>1106.0</ele><time>2026-04-26T08:23:14.189Z</time></trkpt><trkpt lat="45.9067537" lon="11.6366526"><ele>1108.0</ele><time>2026-04-26T08:23:15.19Z</time></trkpt><trkpt lat="45.9068675" lon="11.6367834"><ele>1110.0</ele><time>2026-04-26T08:23:16.189Z</time></trkpt><trkpt lat="45.907108" lon="11.6370811"><ele>1110.0</ele><time>2026-04-26T08:23:18.189Z</time></trkpt><trkpt lat="45.90721" lon="11.6372227"><ele>1110.0</ele><time>2026-04-26T08:23:19.19Z</time></trkpt><trkpt lat="45.9072876" lon="11.6373748"><ele>1110.0</ele><time>2026-04-26T08:23:20.19Z</time></trkpt><trkpt lat="45.9073334" lon="11.6375444"><ele>1110.0</ele><time>2026-04-26T08:23:21.191Z</time></trkpt><trkpt lat="45.9073407" lon="11.6377317"><ele>1114.3333333333333</ele><time>2026-04-26T08:23:22.192Z</time></trkpt><trkpt lat="45.9073055" lon="11.6379328"><ele>1118.6666666666665</ele><time>2026-04-26T08:23:23.191Z</time></trkpt><trkpt lat="45.9072375" lon="11.638147"><ele>1123.0</ele><time>2026-04-26T08:23:24.189Z</time></trkpt><trkpt lat="45.9071356" lon="11.6383769"><ele>1123.0</ele><time>2026-04-26T08:23:25.189Z</time></trkpt><trkpt lat="45.9070136" lon="11.6386125"><ele>1123.0</ele><time>2026-04-26T08:23:26.189Z</time></trkpt><trkpt lat="45.9068928" lon="11.6388259"><ele>1123.0</ele><time>2026-04-26T08:23:27.191Z</time></trkpt><trkpt lat="45.906772" lon="11.6390111"><ele>1116.6666666666665</ele><time>2026-04-26T08:23:28.191Z</time></trkpt><trkpt lat="45.9066454" lon="11.639159"><ele>1110.3333333333333</ele><time>2026-04-26T08:23:29.19Z</time></trkpt><trkpt lat="45.9065171" lon="11.6392778"><ele>1104.0</ele><time>2026-04-26T08:23:30.19Z</time></trkpt><trkpt lat="45.9063968" lon="11.6393855"><ele>1111.0</ele><time>2026-04-26T08:23:31.19Z</time></trkpt><trkpt lat="45.9062987" lon="11.6395068"><ele>1118.0</ele><time>2026-04-26T08:23:32.189Z</time></trkpt><trkpt lat="45.9062183" lon="11.6396508"><ele>1125.0</ele><time>2026-04-26T08:23:33.189Z</time></trkpt><trkpt lat="45.9061584" lon="11.6398265"><ele>1132.0</ele><time>2026-04-26T08:23:34.19Z</time></trkpt><trkpt lat="45.9060899" lon="11.6400154"><ele>1132.0</ele><time>2026-04-26T08:23:35.189Z</time></trkpt><trkpt lat="45.9059973" lon="11.6402075"><ele>1132.0</ele><time>2026-04-26T08:23:36.19Z</time></trkpt><trkpt lat="45.9059044" lon="11.6403985"><ele>1132.0</ele><time>2026-04-26T08:23:37.186Z</time></trkpt><trkpt lat="45.9057815" lon="11.6407878"><ele>1127.6666666666665</ele><time>2026-04-26T08:23:38.993Z</time></trkpt><trkpt lat="45.9057192" lon="11.6410567"><ele>1123.3333333333333</ele><time>2026-04-26T08:23:40.192Z</time></trkpt><trkpt lat="45.9056683" lon="11.6412665"><ele>1119.0</ele><time>2026-04-26T08:23:41.191Z</time></trkpt><trkpt lat="45.9056102" lon="11.6414628"><ele>1119.0</ele><time>2026-04-26T08:23:42.191Z</time></trkpt><trkpt lat="45.9055454" lon="11.641645"><ele>1119.0</ele><time>2026-04-26T08:23:43.193Z</time></trkpt><trkpt lat="45.905483" lon="11.641817"><ele>1119.0</ele><time>2026-04-26T08:23:44.189Z</time></trkpt><trkpt lat="45.9054385" lon="11.6419918"><ele>1119.0</ele><time>2026-04-26T08:23:45.192Z</time></trkpt><trkpt lat="45.9054141" lon="11.6421668"><ele>1119.6000000000001</ele><time>2026-04-26T08:23:46.192Z</time></trkpt><trkpt lat="45.9054002" lon="11.6423361"><ele>1120.2</ele><time>2026-04-26T08:23:47.192Z</time></trkpt><trkpt lat="45.9053868" lon="11.6424974"><ele>1120.8000000000002</ele><time>2026-04-26T08:23:48.193Z</time></trkpt><trkpt lat="45.9053757" lon="11.6426515"><ele>1121.4</ele><time>2026-04-26T08:23:49.19Z</time></trkpt><trkpt lat="45.9053659" lon="11.6428035"><ele>1122.0</ele><time>2026-04-26T08:23:50.192Z</time></trkpt><trkpt lat="45.9053555" lon="11.6429641"><ele>1122.2</ele><time>2026-04-26T08:23:51.192Z</time></trkpt><trkpt lat="45.9053445" lon="11.6431288"><ele>1122.4</ele><time>2026-04-26T08:23:52.194Z</time></trkpt><trkpt lat="45.9053344" lon="11.643289"><ele>1122.6</ele><time>2026-04-26T08:23:53.195Z</time></trkpt><trkpt lat="45.9053251" lon="11.6434421"><ele>1122.8</ele><time>2026-04-26T08:23:54.192Z</time></trkpt><trkpt lat="45.9053163" lon="11.6435875"><ele>1123.0</ele><time>2026-04-26T08:23:55.192Z</time></trkpt><trkpt lat="45.9053098" lon="11.6437228"><ele>1121.8</ele><time>2026-04-26T08:23:56.194Z</time></trkpt><trkpt lat="45.9053041" lon="11.6438501"><ele>1120.6</ele><time>2026-04-26T08:23:57.192Z</time></trkpt><trkpt lat="45.9052981" lon="11.6439725"><ele>1119.4</ele><time>2026-04-26T08:23:58.192Z</time></trkpt><trkpt lat="45.9053034" lon="11.6442221"><ele>1118.2</ele><time>2026-04-26T08:24:00.193Z</time></trkpt><trkpt lat="45.905311" lon="11.6443557"><ele>1117.0</ele><time>2026-04-26T08:24:01.193Z</time></trkpt><trkpt lat="45.9053208" lon="11.6444923"><ele>1115.1666666666665</ele><time>2026-04-26T08:24:02.192Z</time></trkpt><trkpt lat="45.9053301" lon="11.6446269"><ele>1113.3333333333333</ele><time>2026-04-26T08:24:03.191Z</time></trkpt><trkpt lat="45.9053385" lon="11.6447526"><ele>1111.5</ele><time>2026-04-26T08:24:04.192Z</time></trkpt><trkpt lat="45.9053471" lon="11.6448659"><ele>1109.6666666666667</ele><time>2026-04-26T08:24:05.193Z</time></trkpt><trkpt lat="45.9053546" lon="11.6449645"><ele>1107.8333333333335</ele><time>2026-04-26T08:24:06.194Z</time></trkpt><trkpt lat="45.9053581" lon="11.6450556"><ele>1106.0</ele><time>2026-04-26T08:24:07.195Z</time></trkpt><trkpt lat="45.9053569" lon="11.6452305"><ele>1104.2</ele><time>2026-04-26T08:24:09.193Z</time></trkpt><trkpt lat="45.9053741" lon="11.6453305"><ele>1102.3999999999999</ele><time>2026-04-26T08:24:10.193Z</time></trkpt><trkpt lat="45.9054059" lon="11.6454378"><ele>1100.6</ele><time>2026-04-26T08:24:11.194Z</time></trkpt><trkpt lat="45.9054396" lon="11.6455504"><ele>1098.8</ele><time>2026-04-26T08:24:12.192Z</time></trkpt><trkpt lat="45.9055137" lon="11.6457527"><ele>1097.0</ele><time>2026-04-26T08:24:14.194Z</time></trkpt><trkpt lat="45.9055962" lon="11.6458236"><ele>1097.0</ele><time>2026-04-26T08:24:16.194Z</time></trkpt><trkpt lat="45.9056743" lon="11.6458283"><ele>1097.0</ele><time>2026-04-26T08:24:19.196Z</time></trkpt><trkpt lat="45.9058426" lon="11.645815"><ele>1097.0</ele><time>2026-04-26T08:24:24.195Z</time></trkpt><trkpt lat="45.9059111" lon="11.645805"><ele>1097.0</ele><time>2026-04-26T08:24:25.193Z</time></trkpt><trkpt lat="45.9059843" lon="11.6458031"><ele>1097.0</ele><time>2026-04-26T08:24:26.192Z</time></trkpt><trkpt lat="45.9060657" lon="11.6458187"><ele>1097.75</ele><time>2026-04-26T08:24:27.194Z</time></trkpt><trkpt lat="45.906155" lon="11.6458632"><ele>1098.5</ele><time>2026-04-26T08:24:28.19Z</time></trkpt><trkpt lat="45.906253" lon="11.6459515"><ele>1099.25</ele><time>2026-04-26T08:24:29.195Z</time></trkpt><trkpt lat="45.9063649" lon="11.64608"><ele>1100.0</ele><time>2026-04-26T08:24:30.195Z</time></trkpt><trkpt lat="45.9064964" lon="11.6462329"><ele>1100.0</ele><time>2026-04-26T08:24:31.194Z</time></trkpt><trkpt lat="45.9066539" lon="11.6463848"><ele>1100.0</ele><time>2026-04-26T08:24:32.195Z</time></trkpt><trkpt lat="45.9068295" lon="11.64653"><ele>1100.0</ele><time>2026-04-26T08:24:33.194Z</time></trkpt><trkpt lat="45.9069923" lon="11.6466618"><ele>1102.3333333333335</ele><time>2026-04-26T08:24:34.193Z</time></trkpt><trkpt lat="45.9071388" lon="11.6467905"><ele>1104.6666666666667</ele><time>2026-04-26T08:24:35.195Z</time></trkpt><trkpt lat="45.9072754" lon="11.6469194"><ele>1107.0</ele><time>2026-04-26T08:24:36.194Z</time></trkpt><trkpt lat="45.9074109" lon="11.6470226"><ele>1107.0</ele><time>2026-04-26T08:24:37.193Z</time></trkpt><trkpt lat="45.9075603" lon="11.647105"><ele>1107.0</ele><time>2026-04-26T08:24:38.195Z</time></trkpt><trkpt lat="45.9077209" lon="11.6471926"><ele>1107.0</ele><time>2026-04-26T08:24:39.194Z</time></trkpt><trkpt lat="45.9078721" lon="11.6473073"><ele>1117.5</ele><time>2026-04-26T08:24:40.194Z</time></trkpt><trkpt lat="45.9081454" lon="11.647589"><ele>1128.0</ele><time>2026-04-26T08:24:42.192Z</time></trkpt><trkpt lat="45.9083047" lon="11.6477072"><ele>1133.0</ele><time>2026-04-26T08:24:43.193Z</time></trkpt><trkpt lat="45.9084587" lon="11.6478111"><ele>1138.0</ele><time>2026-04-26T08:24:44.195Z</time></trkpt><trkpt lat="45.9085933" lon="11.6479107"><ele>1143.0</ele><time>2026-04-26T08:24:45.196Z</time></trkpt><trkpt lat="45.9087036" lon="11.648007"><ele>1143.0</ele><time>2026-04-26T08:24:46.194Z</time></trkpt><trkpt lat="45.9087903" lon="11.6481001"><ele>1143.0</ele><time>2026-04-26T08:24:47.195Z</time></trkpt><trkpt lat="45.9088675" lon="11.6481914"><ele>1143.0</ele><time>2026-04-26T08:24:48.195Z</time></trkpt><trkpt lat="45.9089517" lon="11.648276"><ele>1143.0</ele><time>2026-04-26T08:24:49.196Z</time></trkpt><trkpt lat="45.909057" lon="11.6483512"><ele>1143.0</ele><time>2026-04-26T08:24:50.192Z</time></trkpt><trkpt lat="45.909183" lon="11.6484116"><ele>1145.75</ele><time>2026-04-26T08:24:51.192Z</time></trkpt><trkpt lat="45.9093036" lon="11.6484671"><ele>1148.5</ele><time>2026-04-26T08:24:52.192Z</time></trkpt><trkpt lat="45.9094117" lon="11.6485575"><ele>1151.25</ele><time>2026-04-26T08:24:53.194Z</time></trkpt><trkpt lat="45.9095108" lon="11.648693"><ele>1154.0</ele><time>2026-04-26T08:24:54.193Z</time></trkpt><trkpt lat="45.9096172" lon="11.6488533"><ele>1154.0</ele><time>2026-04-26T08:24:55.196Z</time></trkpt><trkpt lat="45.909744" lon="11.6490133"><ele>1154.0</ele><time>2026-04-26T08:24:56.194Z</time></trkpt><trkpt lat="45.9098798" lon="11.649155"><ele>1154.0</ele><time>2026-04-26T08:24:57.194Z</time></trkpt><trkpt lat="45.9100077" lon="11.6492774"><ele>1154.6666666666667</ele><time>2026-04-26T08:24:58.194Z</time></trkpt><trkpt lat="45.9101323" lon="11.649387"><ele>1155.3333333333333</ele><time>2026-04-26T08:24:59.196Z</time></trkpt><trkpt lat="45.9102694" lon="11.6494809"><ele>1156.0</ele><time>2026-04-26T08:25:00.193Z</time></trkpt><trkpt lat="45.9104258" lon="11.6495603"><ele>1156.0</ele><time>2026-04-26T08:25:01.195Z</time></trkpt><trkpt lat="45.9107586" lon="11.6497342"><ele>1156.0</ele><time>2026-04-26T08:25:03.193Z</time></trkpt><trkpt lat="45.9108792" lon="11.6498206"><ele>1162.0</ele><time>2026-04-26T08:25:04.193Z</time></trkpt><trkpt lat="45.9109697" lon="11.6498926"><ele>1168.0</ele><time>2026-04-26T08:25:05.195Z</time></trkpt><trkpt lat="45.9110397" lon="11.6499585"><ele>1174.0</ele><time>2026-04-26T08:25:06.194Z</time></trkpt><trkpt lat="45.911093" lon="11.6500199"><ele>1180.0</ele><time>2026-04-26T08:25:07.194Z</time></trkpt><trkpt lat="45.9111915" lon="11.6500482"><ele>1186.0</ele><time>2026-04-26T08:25:09.205Z</time></trkpt><trkpt lat="45.9112033" lon="11.6499072"><ele>1186.0</ele><time>2026-04-26T08:25:11.207Z</time></trkpt><trkpt lat="45.9111436" lon="11.6498361"><ele>1186.0</ele><time>2026-04-26T08:25:12.208Z</time></trkpt><trkpt lat="45.9110474" lon="11.6497594"><ele>1186.0</ele><time>2026-04-26T08:25:13.206Z</time></trkpt><trkpt lat="45.9109294" lon="11.6496515"><ele>1186.0</ele><time>2026-04-26T08:25:14.204Z</time></trkpt><trkpt lat="45.9107992" lon="11.6495028"><ele>1186.25</ele><time>2026-04-26T08:25:15.216Z</time></trkpt><trkpt lat="45.9106738" lon="11.6493462"><ele>1186.5</ele><time>2026-04-26T08:25:16.205Z</time></trkpt><trkpt lat="45.9105566" lon="11.6492131"><ele>1186.75</ele><time>2026-04-26T08:25:17.217Z</time></trkpt><trkpt lat="45.9104514" lon="11.6490959"><ele>1187.0</ele><time>2026-04-26T08:25:18.22Z</time></trkpt><trkpt lat="45.9103495" lon="11.6489693"><ele>1187.0</ele><time>2026-04-26T08:25:19.193Z</time></trkpt><trkpt lat="45.9102498" lon="11.6488049"><ele>1187.0</ele><time>2026-04-26T08:25:20.195Z</time></trkpt><trkpt lat="45.910157" lon="11.6486217"><ele>1187.0</ele><time>2026-04-26T08:25:21.194Z</time></trkpt><trkpt lat="45.9100676" lon="11.6484299"><ele>1184.5</ele><time>2026-04-26T08:25:22.194Z</time></trkpt><trkpt lat="45.9099259" lon="11.6480314"><ele>1182.0</ele><time>2026-04-26T08:25:24.197Z</time></trkpt><trkpt lat="45.909854" lon="11.6478596"><ele>1189.5</ele><time>2026-04-26T08:25:25.192Z</time></trkpt><trkpt lat="45.9097576" lon="11.6476918"><ele>1197.0</ele><time>2026-04-26T08:25:26.193Z</time></trkpt><trkpt lat="45.9096489" lon="11.6475294"><ele>1204.5</ele><time>2026-04-26T08:25:27.193Z</time></trkpt><trkpt lat="45.909547" lon="11.6473895"><ele>1212.0</ele><time>2026-04-26T08:25:28.194Z</time></trkpt><trkpt lat="45.9094636" lon="11.6472575"><ele>1212.0</ele><time>2026-04-26T08:25:29.192Z</time></trkpt><trkpt lat="45.9093929" lon="11.6471097"><ele>1212.0</ele><time>2026-04-26T08:25:30.193Z</time></trkpt><trkpt lat="45.9093201" lon="11.6469404"><ele>1212.0</ele><time>2026-04-26T08:25:31.191Z</time></trkpt><trkpt lat="45.9092341" lon="11.6467422"><ele>1212.0</ele><time>2026-04-26T08:25:32.195Z</time></trkpt><trkpt lat="45.9091269" lon="11.6465656"><ele>1207.3333333333333</ele><time>2026-04-26T08:25:33.192Z</time></trkpt><trkpt lat="45.9090059" lon="11.6463764"><ele>1202.6666666666665</ele><time>2026-04-26T08:25:34.192Z</time></trkpt><trkpt lat="45.908886" lon="11.646191"><ele>1198.0</ele><time>2026-04-26T08:25:35.192Z</time></trkpt><trkpt lat="45.9088231" lon="11.646085"><ele>1208.6666666666665</ele><time>2026-04-26T08:25:35.8Z</time></trkpt><trkpt lat="45.9086973" lon="11.6458673"><ele>1219.3333333333333</ele><time>2026-04-26T08:25:37.202Z</time></trkpt><trkpt lat="45.9086119" lon="11.645737"><ele>1230.0</ele><time>2026-04-26T08:25:38.191Z</time></trkpt><trkpt lat="45.9085158" lon="11.6456054"><ele>1230.0</ele><time>2026-04-26T08:25:39.189Z</time></trkpt><trkpt lat="45.9084124" lon="11.645492"><ele>1230.0</ele><time>2026-04-26T08:25:40.189Z</time></trkpt><trkpt lat="45.9083144" lon="11.6454065"><ele>1230.0</ele><time>2026-04-26T08:25:41.192Z</time></trkpt><trkpt lat="45.9082356" lon="11.6453348"><ele>1230.0</ele><time>2026-04-26T08:25:42.19Z</time></trkpt><trkpt lat="45.9081796" lon="11.645273"><ele>1230.0</ele><time>2026-04-26T08:25:43.193Z</time></trkpt><trkpt lat="45.9082448" lon="11.6451846"><ele>1230.0</ele><time>2026-04-26T08:25:47.195Z</time></trkpt><trkpt lat="45.9082996" lon="11.645252"><ele>1230.0</ele><time>2026-04-26T08:25:48.194Z</time></trkpt><trkpt lat="45.9083801" lon="11.6453262"><ele>1230.0</ele><time>2026-04-26T08:25:49.194Z</time></trkpt><trkpt lat="45.9084892" lon="11.6454023"><ele>1230.0</ele><time>2026-04-26T08:25:50.193Z</time></trkpt><trkpt lat="45.9086215" lon="11.6455013"><ele>1230.0</ele><time>2026-04-26T08:25:51.193Z</time></trkpt><trkpt lat="45.9087639" lon="11.6456456"><ele>1230.0</ele><time>2026-04-26T08:25:52.194Z</time></trkpt><trkpt lat="45.9089176" lon="11.6458088"><ele>1230.0</ele><time>2026-04-26T08:25:53.193Z</time></trkpt><trkpt lat="45.9090694" lon="11.6459577"><ele>1230.0</ele><time>2026-04-26T08:25:54.193Z</time></trkpt><trkpt lat="45.9092096" lon="11.6460872"><ele>1232.75</ele><time>2026-04-26T08:25:55.194Z</time></trkpt><trkpt lat="45.9093362" lon="11.6462091"><ele>1235.5</ele><time>2026-04-26T08:25:56.195Z</time></trkpt><trkpt lat="45.9094494" lon="11.6463418"><ele>1238.25</ele><time>2026-04-26T08:25:57.193Z</time></trkpt><trkpt lat="45.9095509" lon="11.6464896"><ele>1241.0</ele><time>2026-04-26T08:25:58.195Z</time></trkpt><trkpt lat="45.9096439" lon="11.6466365"><ele>1241.0</ele><time>2026-04-26T08:25:59.193Z</time></trkpt><trkpt lat="45.9097496" lon="11.6467663"><ele>1241.0</ele><time>2026-04-26T08:26:00.195Z</time></trkpt><trkpt lat="45.9098806" lon="11.6468755"><ele>1241.0</ele><time>2026-04-26T08:26:01.195Z</time></trkpt><trkpt lat="45.9100313" lon="11.6469811"><ele>1244.0</ele><time>2026-04-26T08:26:02.195Z</time></trkpt><trkpt lat="45.910187" lon="11.6471046"><ele>1247.0</ele><time>2026-04-26T08:26:03.193Z</time></trkpt><trkpt lat="45.9103436" lon="11.6472578"><ele>1250.0</ele><time>2026-04-26T08:26:04.19Z</time></trkpt><trkpt lat="45.9106223" lon="11.6475704"><ele>1250.0</ele><time>2026-04-26T08:26:06.192Z</time></trkpt><trkpt lat="45.9107315" lon="11.6477107"><ele>1250.0</ele><time>2026-04-26T08:26:07.194Z</time></trkpt><trkpt lat="45.9108437" lon="11.6478237"><ele>1250.0</ele><time>2026-04-26T08:26:08.194Z</time></trkpt><trkpt lat="45.9109789" lon="11.6479161"><ele>1250.0</ele><time>2026-04-26T08:26:09.194Z</time></trkpt><trkpt lat="45.9111293" lon="11.6480082"><ele>1251.3333333333335</ele><time>2026-04-26T08:26:10.193Z</time></trkpt><trkpt lat="45.9112854" lon="11.6481183"><ele>1252.6666666666667</ele><time>2026-04-26T08:26:11.195Z</time></trkpt><trkpt lat="45.91144" lon="11.6482426"><ele>1254.0</ele><time>2026-04-26T08:26:12.194Z</time></trkpt><trkpt lat="45.9115906" lon="11.6483704"><ele>1251.3333333333333</ele><time>2026-04-26T08:26:13.196Z</time></trkpt><trkpt lat="45.9117415" lon="11.648502"><ele>1248.6666666666665</ele><time>2026-04-26T08:26:14.195Z</time></trkpt><trkpt lat="45.911906" lon="11.6486278"><ele>1246.0</ele><time>2026-04-26T08:26:15.195Z</time></trkpt><trkpt lat="45.9120681" lon="11.6487364"><ele>1246.0</ele><time>2026-04-26T08:26:16.195Z</time></trkpt><trkpt lat="45.9122149" lon="11.6488303"><ele>1246.0</ele><time>2026-04-26T08:26:17.196Z</time></trkpt><trkpt lat="45.9123412" lon="11.6489169"><ele>1246.0</ele><time>2026-04-26T08:26:18.195Z</time></trkpt><trkpt lat="45.9124529" lon="11.6489967"><ele>1246.0</ele><time>2026-04-26T08:26:19.193Z</time></trkpt><trkpt lat="45.9125503" lon="11.6490724"><ele>1247.6666666666665</ele><time>2026-04-26T08:26:20.195Z</time></trkpt><trkpt lat="45.9126362" lon="11.6491377"><ele>1249.3333333333333</ele><time>2026-04-26T08:26:21.194Z</time></trkpt><trkpt lat="45.9127161" lon="11.6491711"><ele>1251.0</ele><time>2026-04-26T08:26:22.195Z</time></trkpt><trkpt lat="45.9127916" lon="11.6491538"><ele>1252.6666666666667</ele><time>2026-04-26T08:26:23.194Z</time></trkpt><trkpt lat="45.9128522" lon="11.6490859"><ele>1254.3333333333335</ele><time>2026-04-26T08:26:24.194Z</time></trkpt><trkpt lat="45.912904" lon="11.6489751"><ele>1256.0</ele><time>2026-04-26T08:26:25.194Z</time></trkpt><trkpt lat="45.9130077" lon="11.6486884"><ele>1259.8</ele><time>2026-04-26T08:26:27.194Z</time></trkpt><trkpt lat="45.9130674" lon="11.6485488"><ele>1263.6</ele><time>2026-04-26T08:26:28.192Z</time></trkpt><trkpt lat="45.9131383" lon="11.6484209"><ele>1267.4</ele><time>2026-04-26T08:26:29.195Z</time></trkpt><trkpt lat="45.9132214" lon="11.6483212"><ele>1271.2</ele><time>2026-04-26T08:26:30.193Z</time></trkpt><trkpt lat="45.913313" lon="11.6482647"><ele>1275.0</ele><time>2026-04-26T08:26:31.192Z</time></trkpt><trkpt lat="45.913409" lon="11.648255"><ele>1276.0</ele><time>2026-04-26T08:26:32.194Z</time></trkpt><trkpt lat="45.9135071" lon="11.6482709"><ele>1277.0</ele><time>2026-04-26T08:26:33.194Z</time></trkpt><trkpt lat="45.9136069" lon="11.6482648"><ele>1278.0</ele><time>2026-04-26T08:26:34.194Z</time></trkpt><trkpt lat="45.9137057" lon="11.6482222"><ele>1279.0</ele><time>2026-04-26T08:26:35.193Z</time></trkpt><trkpt lat="45.9138116" lon="11.6481781"><ele>1280.0</ele><time>2026-04-26T08:26:36.192Z</time></trkpt><trkpt lat="45.9139201" lon="11.6481883"><ele>1280.0</ele><time>2026-04-26T08:26:37.193Z</time></trkpt><trkpt lat="45.9140252" lon="11.6482534"><ele>1280.0</ele><time>2026-04-26T08:26:38.196Z</time></trkpt><trkpt lat="45.9141227" lon="11.6483745"><ele>1280.0</ele><time>2026-04-26T08:26:39.194Z</time></trkpt><trkpt lat="45.9142152" lon="11.6485046"><ele>1280.0</ele><time>2026-04-26T08:26:40.195Z</time></trkpt><trkpt lat="45.9143066" lon="11.6485894"><ele>1280.0</ele><time>2026-04-26T08:26:41.197Z</time></trkpt><trkpt lat="45.9144019" lon="11.6486177"><ele>1280.0</ele><time>2026-04-26T08:26:42.195Z</time></trkpt><trkpt lat="45.9145112" lon="11.6486044"><ele>1280.0</ele><time>2026-04-26T08:26:43.196Z</time></trkpt><trkpt lat="45.914632" lon="11.6485553"><ele>1280.0</ele><time>2026-04-26T08:26:44.195Z</time></trkpt><trkpt lat="45.9147553" lon="11.6484642"><ele>1280.0</ele><time>2026-04-26T08:26:45.194Z</time></trkpt><trkpt lat="45.9148695" lon="11.6483363"><ele>1280.0</ele><time>2026-04-26T08:26:46.196Z</time></trkpt><trkpt lat="45.9150236" lon="11.6480745"><ele>1280.0</ele><time>2026-04-26T08:26:48.195Z</time></trkpt><trkpt lat="45.9150604" lon="11.6479385"><ele>1282.6</ele><time>2026-04-26T08:26:49.194Z</time></trkpt><trkpt lat="45.9150791" lon="11.6477951"><ele>1285.2</ele><time>2026-04-26T08:26:50.194Z</time></trkpt><trkpt lat="45.9151" lon="11.6476855"><ele>1287.8000000000002</ele><time>2026-04-26T08:26:50.996Z</time></trkpt><trkpt lat="45.9151735" lon="11.6475661"><ele>1290.4</ele><time>2026-04-26T08:26:52.191Z</time></trkpt><trkpt lat="45.915266" lon="11.6475149"><ele>1293.0</ele><time>2026-04-26T08:26:53.191Z</time></trkpt><trkpt lat="45.9153816" lon="11.6474848"><ele>1293.0</ele><time>2026-04-26T08:26:54.192Z</time></trkpt><trkpt lat="45.9155172" lon="11.6474404"><ele>1293.0</ele><time>2026-04-26T08:26:55.193Z</time></trkpt><trkpt lat="45.9156555" lon="11.6473556"><ele>1293.0</ele><time>2026-04-26T08:26:56.193Z</time></trkpt><trkpt lat="45.9158049" lon="11.6472332"><ele>1295.6666666666667</ele><time>2026-04-26T08:26:57.193Z</time></trkpt><trkpt lat="45.915964" lon="11.6470865"><ele>1298.3333333333335</ele><time>2026-04-26T08:26:58.195Z</time></trkpt><trkpt lat="45.9161348" lon="11.6469156"><ele>1301.0</ele><time>2026-04-26T08:26:59.195Z</time></trkpt><trkpt lat="45.9163107" lon="11.6467295"><ele>1301.0</ele><time>2026-04-26T08:27:00.195Z</time></trkpt><trkpt lat="45.916481" lon="11.6465431"><ele>1301.0</ele><time>2026-04-26T08:27:01.193Z</time></trkpt><trkpt lat="45.916637" lon="11.6463691"><ele>1301.0</ele><time>2026-04-26T08:27:02.193Z</time></trkpt><trkpt lat="45.916781" lon="11.6462109"><ele>1305.0</ele><time>2026-04-26T08:27:03.194Z</time></trkpt><trkpt lat="45.91692" lon="11.6460648"><ele>1309.0</ele><time>2026-04-26T08:27:04.194Z</time></trkpt><trkpt lat="45.9170606" lon="11.6459263"><ele>1313.0</ele><time>2026-04-26T08:27:05.193Z</time></trkpt><trkpt lat="45.9172071" lon="11.6458072"><ele>1313.0</ele><time>2026-04-26T08:27:06.193Z</time></trkpt><trkpt lat="45.9173607" lon="11.6456973"><ele>1313.0</ele><time>2026-04-26T08:27:07.192Z</time></trkpt><trkpt lat="45.9176686" lon="11.6455014"><ele>1307.6666666666667</ele><time>2026-04-26T08:27:09.195Z</time></trkpt><trkpt lat="45.9178122" lon="11.6454136"><ele>1302.3333333333333</ele><time>2026-04-26T08:27:10.195Z</time></trkpt><trkpt lat="45.9179545" lon="11.6453279"><ele>1297.0</ele><time>2026-04-26T08:27:11.195Z</time></trkpt><trkpt lat="45.918087" lon="11.6452461"><ele>1302.25</ele><time>2026-04-26T08:27:12.195Z</time></trkpt><trkpt lat="45.9182048" lon="11.6451628"><ele>1307.5</ele><time>2026-04-26T08:27:13.193Z</time></trkpt><trkpt lat="45.9183061" lon="11.6450718"><ele>1312.75</ele><time>2026-04-26T08:27:14.195Z</time></trkpt><trkpt lat="45.9183889" lon="11.6449741"><ele>1318.0</ele><time>2026-04-26T08:27:15.194Z</time></trkpt><trkpt lat="45.9184592" lon="11.644869"><ele>1318.0</ele><time>2026-04-26T08:27:16.195Z</time></trkpt><trkpt lat="45.9185261" lon="11.6447623"><ele>1318.0</ele><time>2026-04-26T08:27:17.193Z</time></trkpt><trkpt lat="45.9186095" lon="11.6446694"><ele>1318.0</ele><time>2026-04-26T08:27:18.193Z</time></trkpt><trkpt lat="45.9187154" lon="11.6446136"><ele>1318.0</ele><time>2026-04-26T08:27:19.193Z</time></trkpt><trkpt lat="45.9188401" lon="11.6445815"><ele>1318.0</ele><time>2026-04-26T08:27:20.194Z</time></trkpt><trkpt lat="45.9189668" lon="11.6445427"><ele>1318.0</ele><time>2026-04-26T08:27:21.196Z</time></trkpt><trkpt lat="45.9190812" lon="11.6444941"><ele>1318.0</ele><time>2026-04-26T08:27:22.196Z</time></trkpt><trkpt lat="45.9191942" lon="11.6444412"><ele>1318.0</ele><time>2026-04-26T08:27:23.195Z</time></trkpt><trkpt lat="45.9193138" lon="11.6443747"><ele>1318.0</ele><time>2026-04-26T08:27:24.196Z</time></trkpt><trkpt lat="45.919432" lon="11.6442891"><ele>1324.5</ele><time>2026-04-26T08:27:25.195Z</time></trkpt><trkpt lat="45.9195434" lon="11.6441976"><ele>1331.0</ele><time>2026-04-26T08:27:26.197Z</time></trkpt><trkpt lat="45.9196451" lon="11.6441128"><ele>1337.5</ele><time>2026-04-26T08:27:27.197Z</time></trkpt><trkpt lat="45.9197388" lon="11.6440173"><ele>1344.0</ele><time>2026-04-26T08:27:28.196Z</time></trkpt><trkpt lat="45.9199163" lon="11.6437305"><ele>1347.2</ele><time>2026-04-26T08:27:30.196Z</time></trkpt><trkpt lat="45.9199955" lon="11.6435785"><ele>1350.4</ele><time>2026-04-26T08:27:31.196Z</time></trkpt><trkpt lat="45.9200619" lon="11.6434397"><ele>1353.6</ele><time>2026-04-26T08:27:32.195Z</time></trkpt><trkpt lat="45.9201154" lon="11.643314"><ele>1356.8</ele><time>2026-04-26T08:27:33.194Z</time></trkpt><trkpt lat="45.920173" lon="11.6432192"><ele>1360.0</ele><time>2026-04-26T08:27:34.192Z</time></trkpt><trkpt lat="45.9202413" lon="11.6431745"><ele>1359.4</ele><time>2026-04-26T08:27:35.195Z</time></trkpt><trkpt lat="45.9203173" lon="11.6431825"><ele>1358.8</ele><time>2026-04-26T08:27:36.195Z</time></trkpt><trkpt lat="45.9203881" lon="11.6432478"><ele>1358.1999999999998</ele><time>2026-04-26T08:27:37.196Z</time></trkpt><trkpt lat="45.9204577" lon="11.6433739"><ele>1357.6</ele><time>2026-04-26T08:27:38.195Z</time></trkpt><trkpt lat="45.9205283" lon="11.643551"><ele>1357.0</ele><time>2026-04-26T08:27:39.194Z</time></trkpt><trkpt lat="45.9205958" lon="11.6437231"><ele>1357.0</ele><time>2026-04-26T08:27:40.196Z</time></trkpt><trkpt lat="45.9206649" lon="11.643863"><ele>1357.0</ele><time>2026-04-26T08:27:41.193Z</time></trkpt><trkpt lat="45.9207383" lon="11.6439815"><ele>1357.0</ele><time>2026-04-26T08:27:42.193Z</time></trkpt><trkpt lat="45.9208166" lon="11.6440843"><ele>1357.0</ele><time>2026-04-26T08:27:43.192Z</time></trkpt><trkpt lat="45.9209052" lon="11.6441807"><ele>1357.0</ele><time>2026-04-26T08:27:44.193Z</time></trkpt><trkpt lat="45.9210083" lon="11.6442596"><ele>1356.0</ele><time>2026-04-26T08:27:45.196Z</time></trkpt><trkpt lat="45.9211113" lon="11.6443163"><ele>1355.0</ele><time>2026-04-26T08:27:46.194Z</time></trkpt><trkpt lat="45.9212061" lon="11.6443457"><ele>1354.0</ele><time>2026-04-26T08:27:47.193Z</time></trkpt><trkpt lat="45.9212958" lon="11.6443458"><ele>1353.0</ele><time>2026-04-26T08:27:48.196Z</time></trkpt><trkpt lat="45.9213876" lon="11.6443095"><ele>1352.0</ele><time>2026-04-26T08:27:49.194Z</time></trkpt><trkpt lat="45.9215612" lon="11.6441367"><ele>1352.0</ele><time>2026-04-26T08:27:51.195Z</time></trkpt><trkpt lat="45.9216232" lon="11.6440481"><ele>1352.0</ele><time>2026-04-26T08:27:52.195Z</time></trkpt><trkpt lat="45.9216711" lon="11.6439739"><ele>1352.0</ele><time>2026-04-26T08:27:53.197Z</time></trkpt><trkpt lat="45.9217425" lon="11.6438454"><ele>1352.0</ele><time>2026-04-26T08:27:55.195Z</time></trkpt><trkpt lat="45.9217885" lon="11.6437526"><ele>1352.0</ele><time>2026-04-26T08:27:57.194Z</time></trkpt><trkpt lat="45.9218487" lon="11.6436415"><ele>1352.0</ele><time>2026-04-26T08:28:30.196Z</time></trkpt><trkpt lat="45.9219469" lon="11.6434622"><ele>1353.6666666666667</ele><time>2026-04-26T08:28:32.195Z</time></trkpt><trkpt lat="45.9219923" lon="11.64336"><ele>1355.3333333333335</ele><time>2026-04-26T08:28:33.193Z</time></trkpt><trkpt lat="45.9220346" lon="11.6432538"><ele>1357.0</ele><time>2026-04-26T08:28:34.195Z</time></trkpt><trkpt lat="45.9220705" lon="11.643153"><ele>1358.6666666666667</ele><time>2026-04-26T08:28:35.197Z</time></trkpt><trkpt lat="45.9221015" lon="11.6430389"><ele>1360.3333333333333</ele><time>2026-04-26T08:28:36.195Z</time></trkpt><trkpt lat="45.9221319" lon="11.6429175"><ele>1362.0</ele><time>2026-04-26T08:28:37.194Z</time></trkpt><trkpt lat="45.9221696" lon="11.64282"><ele>1362.5</ele><time>2026-04-26T08:28:38.196Z</time></trkpt><trkpt lat="45.9222114" lon="11.6427471"><ele>1363.0</ele><time>2026-04-26T08:28:39.195Z</time></trkpt><trkpt lat="45.9222558" lon="11.642667"><ele>1363.5</ele><time>2026-04-26T08:28:40.195Z</time></trkpt><trkpt lat="45.9223" lon="11.6425772"><ele>1364.0</ele><time>2026-04-26T08:28:41.195Z</time></trkpt><trkpt lat="45.9223469" lon="11.6424896"><ele>1364.5</ele><time>2026-04-26T08:28:42.194Z</time></trkpt><trkpt lat="45.9223968" lon="11.6423512"><ele>1365.0</ele><time>2026-04-26T08:28:44.198Z</time></trkpt><trkpt lat="45.9224468" lon="11.642264"><ele>1365.0</ele><time>2026-04-26T08:28:46.197Z</time></trkpt><trkpt lat="45.922532" lon="11.6422722"><ele>1365.0</ele><time>2026-04-26T08:28:48.196Z</time></trkpt><trkpt lat="45.9225872" lon="11.642366"><ele>1365.0</ele><time>2026-04-26T08:28:50.196Z</time></trkpt><trkpt lat="45.9226209" lon="11.6425051"><ele>1365.0</ele><time>2026-04-26T08:28:52.196Z</time></trkpt><trkpt lat="45.9226917" lon="11.6426893"><ele>1365.0</ele><time>2026-04-26T08:28:54.195Z</time></trkpt><trkpt lat="45.9227265" lon="11.6427948"><ele>1365.3333333333333</ele><time>2026-04-26T08:28:55.194Z</time></trkpt><trkpt lat="45.9227582" lon="11.6428782"><ele>1365.6666666666667</ele><time>2026-04-26T08:28:56.195Z</time></trkpt><trkpt lat="45.9228127" lon="11.6429595"><ele>1366.0</ele><time>2026-04-26T08:28:58.194Z</time></trkpt><trkpt lat="45.9228723" lon="11.6428396"><ele>1366.3333333333335</ele><time>2026-04-26T08:29:01.198Z</time></trkpt><trkpt lat="45.9228727" lon="11.6427297"><ele>1366.6666666666667</ele><time>2026-04-26T08:29:02.197Z</time></trkpt><trkpt lat="45.9228774" lon="11.6426359"><ele>1367.0</ele><time>2026-04-26T08:29:03.195Z</time></trkpt><trkpt lat="45.9228953" lon="11.642536"><ele>1368.0</ele><time>2026-04-26T08:29:04.197Z</time></trkpt><trkpt lat="45.9229187" lon="11.6424252"><ele>1369.0</ele><time>2026-04-26T08:29:05.198Z</time></trkpt><trkpt lat="45.9229401" lon="11.6423153"><ele>1370.0</ele><time>2026-04-26T08:29:06.198Z</time></trkpt><trkpt lat="45.9229676" lon="11.642199"><ele>1371.0</ele><time>2026-04-26T08:29:07.198Z</time></trkpt><trkpt lat="45.9229976" lon="11.6420813"><ele>1372.0</ele><time>2026-04-26T08:29:08.198Z</time></trkpt><trkpt lat="45.9230212" lon="11.6419597"><ele>1373.0</ele><time>2026-04-26T08:29:09.196Z</time></trkpt><trkpt lat="45.9230318" lon="11.6418515"><ele>1376.0</ele><time>2026-04-26T08:29:10.198Z</time></trkpt><trkpt lat="45.9230339" lon="11.6417402"><ele>1379.0</ele><time>2026-04-26T08:29:11.199Z</time></trkpt><trkpt lat="45.9230391" lon="11.6416235"><ele>1382.0</ele><time>2026-04-26T08:29:12.198Z</time></trkpt><trkpt lat="45.9230471" lon="11.6415017"><ele>1385.0</ele><time>2026-04-26T08:29:13.197Z</time></trkpt><trkpt lat="45.9230635" lon="11.6412487"><ele>1388.0</ele><time>2026-04-26T08:29:15.196Z</time></trkpt><trkpt lat="45.9230747" lon="11.6411289"><ele>1390.6000000000001</ele><time>2026-04-26T08:29:16.196Z</time></trkpt><trkpt lat="45.9230877" lon="11.641011"><ele>1393.2</ele><time>2026-04-26T08:29:17.195Z</time></trkpt><trkpt lat="45.9231018" lon="11.6408926"><ele>1395.8</ele><time>2026-04-26T08:29:18.196Z</time></trkpt><trkpt lat="45.9231073" lon="11.6407953"><ele>1398.4</ele><time>2026-04-26T08:29:19.195Z</time></trkpt><trkpt lat="45.9230767" lon="11.6406412"><ele>1401.0</ele><time>2026-04-26T08:29:21.194Z</time></trkpt><trkpt lat="45.9229757" lon="11.6405378"><ele>1401.0</ele><time>2026-04-26T08:29:23.195Z</time></trkpt><trkpt lat="45.9228932" lon="11.6405018"><ele>1401.0</ele><time>2026-04-26T08:29:24.193Z</time></trkpt><trkpt lat="45.9228002" lon="11.6404723"><ele>1401.0</ele><time>2026-04-26T08:29:25.195Z</time></trkpt><trkpt lat="45.9226998" lon="11.6404524"><ele>1401.0</ele><time>2026-04-26T08:29:26.196Z</time></trkpt><trkpt lat="45.9225882" lon="11.6404302"><ele>1401.0</ele><time>2026-04-26T08:29:27.195Z</time></trkpt><trkpt lat="45.9224657" lon="11.6404126"><ele>1401.0</ele><time>2026-04-26T08:29:28.195Z</time></trkpt><trkpt lat="45.9223385" lon="11.6404062"><ele>1401.0</ele><time>2026-04-26T08:29:29.195Z</time></trkpt><trkpt lat="45.9222231" lon="11.6404046"><ele>1401.0</ele><time>2026-04-26T08:29:30.195Z</time></trkpt><trkpt lat="45.9221282" lon="11.6404095"><ele>1401.0</ele><time>2026-04-26T08:29:31.196Z</time></trkpt><trkpt lat="45.9220526" lon="11.6404139"><ele>1401.0</ele><time>2026-04-26T08:29:32.197Z</time></trkpt><trkpt lat="45.9219406" lon="11.640398"><ele>1407.5</ele><time>2026-04-26T08:29:34.197Z</time></trkpt><trkpt lat="45.9218348" lon="11.6401746"><ele>1414.0</ele><time>2026-04-26T08:29:37.196Z</time></trkpt><trkpt lat="45.9218077" lon="11.6400013"><ele>1420.5</ele><time>2026-04-26T08:29:39.195Z</time></trkpt><trkpt lat="45.9217945" lon="11.6398993"><ele>1427.0</ele><time>2026-04-26T08:29:40.193Z</time></trkpt><trkpt lat="45.9217769" lon="11.6397834"><ele>1425.3999999999999</ele><time>2026-04-26T08:29:41.192Z</time></trkpt><trkpt lat="45.9216961" lon="11.6395412"><ele>1423.8</ele><time>2026-04-26T08:29:43.192Z</time></trkpt><trkpt lat="45.921639" lon="11.6394442"><ele>1422.2</ele><time>2026-04-26T08:29:44.192Z</time></trkpt><trkpt lat="45.9215845" lon="11.6393472"><ele>1420.6</ele><time>2026-04-26T08:29:45.192Z</time></trkpt><trkpt lat="45.9215363" lon="11.6392631"><ele>1419.0</ele><time>2026-04-26T08:29:46.192Z</time></trkpt><trkpt lat="45.9214831" lon="11.6392021"><ele>1423.0</ele><time>2026-04-26T08:29:47.194Z</time></trkpt><trkpt lat="45.9214254" lon="11.639164"><ele>1427.0</ele><time>2026-04-26T08:29:48.197Z</time></trkpt><trkpt lat="45.9213046" lon="11.6391734"><ele>1431.0</ele><time>2026-04-26T08:29:50.197Z</time></trkpt><trkpt lat="45.9211961" lon="11.6392411"><ele>1435.0</ele><time>2026-04-26T08:29:52.2Z</time></trkpt><trkpt lat="45.9210739" lon="11.6393044"><ele>1439.0</ele><time>2026-04-26T08:29:54.197Z</time></trkpt><trkpt lat="45.9210044" lon="11.6393271"><ele>1439.0</ele><time>2026-04-26T08:29:55.199Z</time></trkpt><trkpt lat="45.9208606" lon="11.6393337"><ele>1439.0</ele><time>2026-04-26T08:29:57.197Z</time></trkpt><trkpt lat="45.9207804" lon="11.6393106"><ele>1439.0</ele><time>2026-04-26T08:29:58.196Z</time></trkpt><trkpt lat="45.92071" lon="11.6392713"><ele>1439.0</ele><time>2026-04-26T08:29:59.195Z</time></trkpt><trkpt lat="45.9206484" lon="11.6392094"><ele>1439.0</ele><time>2026-04-26T08:30:00.197Z</time></trkpt><trkpt lat="45.9205961" lon="11.6391384"><ele>1439.0</ele><time>2026-04-26T08:30:01.195Z</time></trkpt><trkpt lat="45.9205548" lon="11.6390679"><ele>1439.0</ele><time>2026-04-26T08:30:02.193Z</time></trkpt><trkpt lat="45.9204676" lon="11.6389506"><ele>1439.0</ele><time>2026-04-26T08:30:04.196Z</time></trkpt><trkpt lat="45.9204137" lon="11.638886"><ele>1439.0</ele><time>2026-04-26T08:30:05.196Z</time></trkpt><trkpt lat="45.9203545" lon="11.6388101"><ele>1439.0</ele><time>2026-04-26T08:30:06.196Z</time></trkpt><trkpt lat="45.9202879" lon="11.6387238"><ele>1439.0</ele><time>2026-04-26T08:30:07.195Z</time></trkpt><trkpt lat="45.9202238" lon="11.6386386"><ele>1439.0</ele><time>2026-04-26T08:30:08.194Z</time></trkpt><trkpt lat="45.9201632" lon="11.6385521"><ele>1441.5</ele><time>2026-04-26T08:30:09.194Z</time></trkpt><trkpt lat="45.9201013" lon="11.638462"><ele>1444.0</ele><time>2026-04-26T08:30:10.192Z</time></trkpt><trkpt lat="45.9200423" lon="11.6383806"><ele>1446.5</ele><time>2026-04-26T08:30:11.194Z</time></trkpt><trkpt lat="45.9199889" lon="11.6383064"><ele>1449.0</ele><time>2026-04-26T08:30:12.209Z</time></trkpt><trkpt lat="45.9199293" lon="11.638232"><ele>1451.5</ele><time>2026-04-26T08:30:13.21Z</time></trkpt><trkpt lat="45.9198726" lon="11.6381815"><ele>1454.0</ele><time>2026-04-26T08:30:14.207Z</time></trkpt><trkpt lat="45.9198081" lon="11.6381612"><ele>1454.0</ele><time>2026-04-26T08:30:15.196Z</time></trkpt><trkpt lat="45.9197355" lon="11.6381732"><ele>1454.0</ele><time>2026-04-26T08:30:16.196Z</time></trkpt><trkpt lat="45.9195975" lon="11.6382966"><ele>1454.0</ele><time>2026-04-26T08:30:18.195Z</time></trkpt><trkpt lat="45.9195267" lon="11.638392"><ele>1454.0</ele><time>2026-04-26T08:30:19.195Z</time></trkpt><trkpt lat="45.9194534" lon="11.6384843"><ele>1454.0</ele><time>2026-04-26T08:30:20.195Z</time></trkpt><trkpt lat="45.9193797" lon="11.6385737"><ele>1451.5</ele><time>2026-04-26T08:30:21.197Z</time></trkpt><trkpt lat="45.919308" lon="11.6386429"><ele>1449.0</ele><time>2026-04-26T08:30:22.197Z</time></trkpt><trkpt lat="45.9192371" lon="11.6386975"><ele>1446.5</ele><time>2026-04-26T08:30:23.197Z</time></trkpt><trkpt lat="45.9191736" lon="11.6387305"><ele>1444.0</ele><time>2026-04-26T08:30:24.2Z</time></trkpt><trkpt lat="45.9191051" lon="11.6387369"><ele>1441.5</ele><time>2026-04-26T08:30:25.198Z</time></trkpt><trkpt lat="45.919029" lon="11.6387096"><ele>1439.0</ele><time>2026-04-26T08:30:26.197Z</time></trkpt><trkpt lat="45.9189529" lon="11.63865"><ele>1443.5</ele><time>2026-04-26T08:30:27.195Z</time></trkpt><trkpt lat="45.918873" lon="11.6385489"><ele>1448.0</ele><time>2026-04-26T08:30:28.196Z</time></trkpt><trkpt lat="45.9187814" lon="11.6384062"><ele>1452.5</ele><time>2026-04-26T08:30:29.197Z</time></trkpt><trkpt lat="45.9186861" lon="11.6382512"><ele>1457.0</ele><time>2026-04-26T08:30:30.206Z</time></trkpt><trkpt lat="45.9185964" lon="11.6381158"><ele>1457.0</ele><time>2026-04-26T08:30:31.205Z</time></trkpt><trkpt lat="45.9185008" lon="11.6379811"><ele>1457.0</ele><time>2026-04-26T08:30:32.206Z</time></trkpt><trkpt lat="45.9184046" lon="11.6378491"><ele>1457.0</ele><time>2026-04-26T08:30:33.205Z</time></trkpt><trkpt lat="45.918314" lon="11.6377204"><ele>1457.0</ele><time>2026-04-26T08:30:34.204Z</time></trkpt><trkpt lat="45.9182172" lon="11.6375935"><ele>1457.75</ele><time>2026-04-26T08:30:35.204Z</time></trkpt><trkpt lat="45.9181254" lon="11.6374663"><ele>1458.5</ele><time>2026-04-26T08:30:36.217Z</time></trkpt><trkpt lat="45.9180496" lon="11.637355"><ele>1459.25</ele><time>2026-04-26T08:30:37.219Z</time></trkpt><trkpt lat="45.9179319" lon="11.6372119"><ele>1460.0</ele><time>2026-04-26T08:30:39.22Z</time></trkpt><trkpt lat="45.9178213" lon="11.637146"><ele>1460.0</ele><time>2026-04-26T08:30:41.196Z</time></trkpt><trkpt lat="45.9177115" lon="11.637217"><ele>1460.0</ele><time>2026-04-26T08:30:43.196Z</time></trkpt><trkpt lat="45.9176615" lon="11.6373134"><ele>1460.0</ele><time>2026-04-26T08:30:44.197Z</time></trkpt><trkpt lat="45.9176196" lon="11.6374611"><ele>1460.0</ele><time>2026-04-26T08:30:45.208Z</time></trkpt><trkpt lat="45.9175864" lon="11.6376239"><ele>1460.0</ele><time>2026-04-26T08:30:46.209Z</time></trkpt><trkpt lat="45.917554" lon="11.6377558"><ele>1457.8</ele><time>2026-04-26T08:30:47.211Z</time></trkpt><trkpt lat="45.9175138" lon="11.6378583"><ele>1455.6</ele><time>2026-04-26T08:30:48.21Z</time></trkpt><trkpt lat="45.9174549" lon="11.6379371"><ele>1453.4</ele><time>2026-04-26T08:30:49.223Z</time></trkpt><trkpt lat="45.9173767" lon="11.6379859"><ele>1451.2</ele><time>2026-04-26T08:30:50.223Z</time></trkpt><trkpt lat="45.9172786" lon="11.6380198"><ele>1449.0</ele><time>2026-04-26T08:30:51.21Z</time></trkpt><trkpt lat="45.9171671" lon="11.638049"><ele>1449.0</ele><time>2026-04-26T08:30:52.208Z</time></trkpt><trkpt lat="45.9170628" lon="11.6380655"><ele>1449.0</ele><time>2026-04-26T08:30:53.207Z</time></trkpt><trkpt lat="45.9169678" lon="11.6380868"><ele>1449.0</ele><time>2026-04-26T08:30:54.212Z</time></trkpt><trkpt lat="45.9168867" lon="11.6380957"><ele>1449.0</ele><time>2026-04-26T08:30:55.209Z</time></trkpt><trkpt lat="45.9168208" lon="11.6380996"><ele>1449.0</ele><time>2026-04-26T08:30:56.209Z</time></trkpt><trkpt lat="45.9167317" lon="11.6380511"><ele>1449.0</ele><time>2026-04-26T08:30:58.216Z</time></trkpt><trkpt lat="45.91667" lon="11.6377601"><ele>1449.4</ele><time>2026-04-26T08:31:01.207Z</time></trkpt><trkpt lat="45.9166425" lon="11.6376124"><ele>1449.8000000000002</ele><time>2026-04-26T08:31:02.211Z</time></trkpt><trkpt lat="45.9166043" lon="11.6374878"><ele>1450.1999999999998</ele><time>2026-04-26T08:31:03.209Z</time></trkpt><trkpt lat="45.9165583" lon="11.6373676"><ele>1450.6</ele><time>2026-04-26T08:31:04.209Z</time></trkpt><trkpt lat="45.9165007" lon="11.6372409"><ele>1451.0</ele><time>2026-04-26T08:31:05.212Z</time></trkpt><trkpt lat="45.9164386" lon="11.6371142"><ele>1451.0</ele><time>2026-04-26T08:31:06.197Z</time></trkpt><trkpt lat="45.9163865" lon="11.6369962"><ele>1451.0</ele><time>2026-04-26T08:31:07.195Z</time></trkpt><trkpt lat="45.916345" lon="11.6368757"><ele>1451.0</ele><time>2026-04-26T08:31:08.196Z</time></trkpt><trkpt lat="45.9163176" lon="11.6367511"><ele>1451.0</ele><time>2026-04-26T08:31:09.196Z</time></trkpt><trkpt lat="45.9163009" lon="11.6366156"><ele>1451.0</ele><time>2026-04-26T08:31:10.195Z</time></trkpt><trkpt lat="45.9162883" lon="11.6364723"><ele>1453.4</ele><time>2026-04-26T08:31:11.196Z</time></trkpt><trkpt lat="45.9162782" lon="11.6363449"><ele>1455.8</ele><time>2026-04-26T08:31:12.195Z</time></trkpt><trkpt lat="45.9162678" lon="11.6362185"><ele>1458.2</ele><time>2026-04-26T08:31:13.195Z</time></trkpt><trkpt lat="45.9162636" lon="11.6360823"><ele>1460.6000000000001</ele><time>2026-04-26T08:31:14.195Z</time></trkpt><trkpt lat="45.9162689" lon="11.6359682"><ele>1463.0</ele><time>2026-04-26T08:31:14.998Z</time></trkpt><trkpt lat="45.9162898" lon="11.6358063"><ele>1464.4</ele><time>2026-04-26T08:31:16.194Z</time></trkpt><trkpt lat="45.9163095" lon="11.6356726"><ele>1465.8000000000002</ele><time>2026-04-26T08:31:17.195Z</time></trkpt><trkpt lat="45.9163316" lon="11.6355441"><ele>1467.2</ele><time>2026-04-26T08:31:18.195Z</time></trkpt><trkpt lat="45.916351" lon="11.6354263"><ele>1468.6</ele><time>2026-04-26T08:31:19.195Z</time></trkpt><trkpt lat="45.9163457" lon="11.635216"><ele>1470.0</ele><time>2026-04-26T08:31:21.192Z</time></trkpt><trkpt lat="45.9163061" lon="11.6351128"><ele>1471.0</ele><time>2026-04-26T08:31:22.192Z</time></trkpt><trkpt lat="45.9162397" lon="11.6350005"><ele>1472.0</ele><time>2026-04-26T08:31:23.192Z</time></trkpt><trkpt lat="45.9161581" lon="11.6348849"><ele>1473.0</ele><time>2026-04-26T08:31:24.19Z</time></trkpt><trkpt lat="45.916087" lon="11.6347824"><ele>1474.0</ele><time>2026-04-26T08:31:25.191Z</time></trkpt><trkpt lat="45.9160294" lon="11.6346829"><ele>1475.0</ele><time>2026-04-26T08:31:26.194Z</time></trkpt><trkpt lat="45.9159839" lon="11.6345713"><ele>1477.0</ele><time>2026-04-26T08:31:27.194Z</time></trkpt><trkpt lat="45.9159588" lon="11.6344583"><ele>1479.0</ele><time>2026-04-26T08:31:28.195Z</time></trkpt><trkpt lat="45.9159499" lon="11.6343345"><ele>1481.0</ele><time>2026-04-26T08:31:29.195Z</time></trkpt><trkpt lat="45.9159536" lon="11.6341749"><ele>1483.0</ele><time>2026-04-26T08:31:30.194Z</time></trkpt><trkpt lat="45.9159556" lon="11.6340185"><ele>1485.0</ele><time>2026-04-26T08:31:31.194Z</time></trkpt><trkpt lat="45.9159418" lon="11.6338773"><ele>1485.0</ele><time>2026-04-26T08:31:32.195Z</time></trkpt><trkpt lat="45.915926" lon="11.6337519"><ele>1485.0</ele><time>2026-04-26T08:31:33.194Z</time></trkpt><trkpt lat="45.9159261" lon="11.6336342"><ele>1485.0</ele><time>2026-04-26T08:31:34.193Z</time></trkpt><trkpt lat="45.9159506" lon="11.6335021"><ele>1485.0</ele><time>2026-04-26T08:31:35.193Z</time></trkpt><trkpt lat="45.9159967" lon="11.6333606"><ele>1485.0</ele><time>2026-04-26T08:31:36.196Z</time></trkpt><trkpt lat="45.9160472" lon="11.633224"><ele>1485.0</ele><time>2026-04-26T08:31:37.194Z</time></trkpt><trkpt lat="45.916098" lon="11.6330783"><ele>1485.0</ele><time>2026-04-26T08:31:38.196Z</time></trkpt><trkpt lat="45.9161509" lon="11.6329548"><ele>1485.0</ele><time>2026-04-26T08:31:39.195Z</time></trkpt><trkpt lat="45.9162055" lon="11.6328513"><ele>1485.0</ele><time>2026-04-26T08:31:40.193Z</time></trkpt><trkpt lat="45.9162857" lon="11.6326291"><ele>1484.8</ele><time>2026-04-26T08:31:42.194Z</time></trkpt><trkpt lat="45.9163016" lon="11.6324873"><ele>1484.6</ele><time>2026-04-26T08:31:43.193Z</time></trkpt><trkpt lat="45.916299" lon="11.6323286"><ele>1484.4</ele><time>2026-04-26T08:31:44.194Z</time></trkpt><trkpt lat="45.9162887" lon="11.6321743"><ele>1484.2</ele><time>2026-04-26T08:31:45.196Z</time></trkpt><trkpt lat="45.9162835" lon="11.6320249"><ele>1484.0</ele><time>2026-04-26T08:31:46.193Z</time></trkpt><trkpt lat="45.9162875" lon="11.6318995"><ele>1484.0</ele><time>2026-04-26T08:31:47.192Z</time></trkpt><trkpt lat="45.9162937" lon="11.6317977"><ele>1484.0</ele><time>2026-04-26T08:31:48.192Z</time></trkpt><trkpt lat="45.9163175" lon="11.6317012"><ele>1484.0</ele><time>2026-04-26T08:31:49.192Z</time></trkpt><trkpt lat="45.9163495" lon="11.6316075"><ele>1484.0</ele><time>2026-04-26T08:31:50.192Z</time></trkpt><trkpt lat="45.9164061" lon="11.6314814"><ele>1484.0</ele><time>2026-04-26T08:31:52.193Z</time></trkpt><trkpt lat="45.9164713" lon="11.6313953"><ele>1484.0</ele><time>2026-04-26T08:31:54.191Z</time></trkpt><trkpt lat="45.9165458" lon="11.6313086"><ele>1484.0</ele><time>2026-04-26T08:31:56.193Z</time></trkpt><trkpt lat="45.9166468" lon="11.6312025"><ele>1484.0</ele><time>2026-04-26T08:31:58.189Z</time></trkpt><trkpt lat="45.9167078" lon="11.6311241"><ele>1484.0</ele><time>2026-04-26T08:31:59.189Z</time></trkpt><trkpt lat="45.9167748" lon="11.6310304"><ele>1484.0</ele><time>2026-04-26T08:32:00.189Z</time></trkpt><trkpt lat="45.9168443" lon="11.630904"><ele>1484.0</ele><time>2026-04-26T08:32:01.19Z</time></trkpt><trkpt lat="45.9169794" lon="11.6305813"><ele>1488.5</ele><time>2026-04-26T08:32:03.191Z</time></trkpt><trkpt lat="45.9170169" lon="11.6304848"><ele>1493.0</ele><time>2026-04-26T08:32:03.799Z</time></trkpt><trkpt lat="45.9171041" lon="11.6302826"><ele>1497.5</ele><time>2026-04-26T08:32:05.19Z</time></trkpt><trkpt lat="45.9171655" lon="11.6301449"><ele>1502.0</ele><time>2026-04-26T08:32:06.19Z</time></trkpt><trkpt lat="45.9172406" lon="11.630011"><ele>1502.0</ele><time>2026-04-26T08:32:07.19Z</time></trkpt><trkpt lat="45.9173225" lon="11.6298804"><ele>1502.0</ele><time>2026-04-26T08:32:08.192Z</time></trkpt><trkpt lat="45.9173962" lon="11.6297527"><ele>1502.0</ele><time>2026-04-26T08:32:09.189Z</time></trkpt><trkpt lat="45.9174664" lon="11.6296372"><ele>1502.0</ele><time>2026-04-26T08:32:10.189Z</time></trkpt><trkpt lat="45.9175413" lon="11.6295339"><ele>1502.0</ele><time>2026-04-26T08:32:11.19Z</time></trkpt><trkpt lat="45.917614" lon="11.6294342"><ele>1508.0</ele><time>2026-04-26T08:32:12.188Z</time></trkpt><trkpt lat="45.9176704" lon="11.6293223"><ele>1514.0</ele><time>2026-04-26T08:32:13.188Z</time></trkpt><trkpt lat="45.9177247" lon="11.6292079"><ele>1520.0</ele><time>2026-04-26T08:32:14.19Z</time></trkpt><trkpt lat="45.9177684" lon="11.6290945"><ele>1526.0</ele><time>2026-04-26T08:32:15.188Z</time></trkpt><trkpt lat="45.9178094" lon="11.6289734"><ele>1532.0</ele><time>2026-04-26T08:32:16.19Z</time></trkpt><trkpt lat="45.9178508" lon="11.6288551"><ele>1532.0</ele><time>2026-04-26T08:32:17.189Z</time></trkpt><trkpt lat="45.917899" lon="11.6287419"><ele>1532.0</ele><time>2026-04-26T08:32:18.19Z</time></trkpt><trkpt lat="45.9179476" lon="11.6286308"><ele>1532.0</ele><time>2026-04-26T08:32:19.19Z</time></trkpt><trkpt lat="45.9179896" lon="11.6285286"><ele>1532.0</ele><time>2026-04-26T08:32:20.192Z</time></trkpt><trkpt lat="45.9180249" lon="11.6284406"><ele>1532.0</ele><time>2026-04-26T08:32:21.189Z</time></trkpt><trkpt lat="45.9180569" lon="11.6283531"><ele>1532.0</ele><time>2026-04-26T08:32:22.188Z</time></trkpt><trkpt lat="45.918113" lon="11.6281681"><ele>1528.6</ele><time>2026-04-26T08:32:24.189Z</time></trkpt><trkpt lat="45.9181468" lon="11.6280512"><ele>1525.1999999999998</ele><time>2026-04-26T08:32:25.191Z</time></trkpt><trkpt lat="45.918189" lon="11.6279222"><ele>1521.8</ele><time>2026-04-26T08:32:26.189Z</time></trkpt><trkpt lat="45.9182334" lon="11.6277914"><ele>1518.4</ele><time>2026-04-26T08:32:27.189Z</time></trkpt><trkpt lat="45.9182725" lon="11.6276675"><ele>1515.0</ele><time>2026-04-26T08:32:28.19Z</time></trkpt><trkpt lat="45.9183119" lon="11.6275512"><ele>1513.0</ele><time>2026-04-26T08:32:29.193Z</time></trkpt><trkpt lat="45.9183584" lon="11.6274357"><ele>1511.0</ele><time>2026-04-26T08:32:30.19Z</time></trkpt><trkpt lat="45.9184204" lon="11.6273147"><ele>1509.0</ele><time>2026-04-26T08:32:31.191Z</time></trkpt><trkpt lat="45.9184758" lon="11.6272146"><ele>1507.0</ele><time>2026-04-26T08:32:31.992Z</time></trkpt><trkpt lat="45.9185537" lon="11.6270539"><ele>1505.0</ele><time>2026-04-26T08:32:33.191Z</time></trkpt><trkpt lat="45.9186042" lon="11.6269069"><ele>1511.4</ele><time>2026-04-26T08:32:34.19Z</time></trkpt><trkpt lat="45.9186453" lon="11.6267674"><ele>1517.8</ele><time>2026-04-26T08:32:35.188Z</time></trkpt><trkpt lat="45.9186772" lon="11.6266372"><ele>1524.1999999999998</ele><time>2026-04-26T08:32:36.188Z</time></trkpt><trkpt lat="45.9187124" lon="11.6265061"><ele>1530.6</ele><time>2026-04-26T08:32:37.187Z</time></trkpt><trkpt lat="45.9187451" lon="11.6264102"><ele>1537.0</ele><time>2026-04-26T08:32:38.189Z</time></trkpt><trkpt lat="45.9188205" lon="11.6262659"><ele>1532.8</ele><time>2026-04-26T08:32:40.19Z</time></trkpt><trkpt lat="45.9188983" lon="11.6261358"><ele>1528.6</ele><time>2026-04-26T08:32:42.192Z</time></trkpt><trkpt lat="45.918959" lon="11.6260774"><ele>1524.3999999999999</ele><time>2026-04-26T08:32:43.19Z</time></trkpt><trkpt lat="45.9190956" lon="11.625976"><ele>1520.1999999999998</ele><time>2026-04-26T08:32:45.19Z</time></trkpt><trkpt lat="45.9191605" lon="11.6259337"><ele>1516.0</ele><time>2026-04-26T08:32:46.191Z</time></trkpt><trkpt lat="45.9192287" lon="11.6258991"><ele>1521.6</ele><time>2026-04-26T08:32:47.193Z</time></trkpt><trkpt lat="45.9193131" lon="11.6258717"><ele>1527.1999999999998</ele><time>2026-04-26T08:32:48.191Z</time></trkpt><trkpt lat="45.9194047" lon="11.6258498"><ele>1532.8000000000002</ele><time>2026-04-26T08:32:49.19Z</time></trkpt><trkpt lat="45.9194925" lon="11.6258306"><ele>1538.4</ele><time>2026-04-26T08:32:50.192Z</time></trkpt><trkpt lat="45.9195836" lon="11.6258201"><ele>1544.0</ele><time>2026-04-26T08:32:51.189Z</time></trkpt><trkpt lat="45.9196809" lon="11.6258183"><ele>1544.0</ele><time>2026-04-26T08:32:52.191Z</time></trkpt><trkpt lat="45.9197844" lon="11.6258074"><ele>1544.0</ele><time>2026-04-26T08:32:53.191Z</time></trkpt><trkpt lat="45.9198889" lon="11.6257853"><ele>1544.0</ele><time>2026-04-26T08:32:54.191Z</time></trkpt><trkpt lat="45.9199965" lon="11.6257519"><ele>1544.0</ele><time>2026-04-26T08:32:55.19Z</time></trkpt><trkpt lat="45.920099" lon="11.6257141"><ele>1544.0</ele><time>2026-04-26T08:32:56.19Z</time></trkpt><trkpt lat="45.9201935" lon="11.6256647"><ele>1549.1666666666665</ele><time>2026-04-26T08:32:57.19Z</time></trkpt><trkpt lat="45.9202779" lon="11.6256206"><ele>1554.3333333333333</ele><time>2026-04-26T08:32:58.189Z</time></trkpt><trkpt lat="45.9203512" lon="11.6255747"><ele>1559.5</ele><time>2026-04-26T08:32:59.187Z</time></trkpt><trkpt lat="45.9204221" lon="11.6255255"><ele>1564.6666666666665</ele><time>2026-04-26T08:33:00.186Z</time></trkpt><trkpt lat="45.9204956" lon="11.6254933"><ele>1569.8333333333333</ele><time>2026-04-26T08:33:01.188Z</time></trkpt><trkpt lat="45.9205748" lon="11.6254635"><ele>1575.0</ele><time>2026-04-26T08:33:02.187Z</time></trkpt><trkpt lat="45.9206633" lon="11.6254284"><ele>1575.0</ele><time>2026-04-26T08:33:03.19Z</time></trkpt><trkpt lat="45.9207472" lon="11.6253866"><ele>1575.0</ele><time>2026-04-26T08:33:04.187Z</time></trkpt><trkpt lat="45.9208871" lon="11.6252828"><ele>1575.0</ele><time>2026-04-26T08:33:06.187Z</time></trkpt><trkpt lat="45.9209622" lon="11.6252147"><ele>1575.0</ele><time>2026-04-26T08:33:07.188Z</time></trkpt><trkpt lat="45.9210374" lon="11.6251476"><ele>1575.0</ele><time>2026-04-26T08:33:08.19Z</time></trkpt><trkpt lat="45.9211051" lon="11.6250874"><ele>1576.142857142857</ele><time>2026-04-26T08:33:09.189Z</time></trkpt><trkpt lat="45.9211551" lon="11.6250307"><ele>1577.2857142857142</ele><time>2026-04-26T08:33:10.187Z</time></trkpt><trkpt lat="45.9212007" lon="11.624967"><ele>1578.4285714285716</ele><time>2026-04-26T08:33:11.187Z</time></trkpt><trkpt lat="45.9212426" lon="11.6248942"><ele>1579.5714285714284</ele><time>2026-04-26T08:33:12.188Z</time></trkpt><trkpt lat="45.9212882" lon="11.6248107"><ele>1580.7142857142858</ele><time>2026-04-26T08:33:13.189Z</time></trkpt><trkpt lat="45.9213278" lon="11.6247196"><ele>1581.857142857143</ele><time>2026-04-26T08:33:14.189Z</time></trkpt><trkpt lat="45.9213607" lon="11.6246283"><ele>1583.0</ele><time>2026-04-26T08:33:15.189Z</time></trkpt><trkpt lat="45.921385" lon="11.62454"><ele>1579.4999999999998</ele><time>2026-04-26T08:33:16.188Z</time></trkpt><trkpt lat="45.9214078" lon="11.6244459"><ele>1576.0</ele><time>2026-04-26T08:33:17.19Z</time></trkpt><trkpt lat="45.9214292" lon="11.6243414"><ele>1572.5</ele><time>2026-04-26T08:33:18.19Z</time></trkpt><trkpt lat="45.9214438" lon="11.6242461"><ele>1569.0</ele><time>2026-04-26T08:33:19.189Z</time></trkpt><trkpt lat="45.9214588" lon="11.6241578"><ele>1565.4999999999998</ele><time>2026-04-26T08:33:20.189Z</time></trkpt><trkpt lat="45.9215044" lon="11.6239985"><ele>1562.0</ele><time>2026-04-26T08:33:22.19Z</time></trkpt><trkpt lat="45.9215805" lon="11.6238723"><ele>1562.0</ele><time>2026-04-26T08:33:24.188Z</time></trkpt><trkpt lat="45.9216343" lon="11.6238002"><ele>1562.0</ele><time>2026-04-26T08:33:25.188Z</time></trkpt><trkpt lat="45.9217643" lon="11.6236281"><ele>1562.0</ele><time>2026-04-26T08:33:27.187Z</time></trkpt><trkpt lat="45.9218235" lon="11.6235375"><ele>1562.0</ele><time>2026-04-26T08:33:28.189Z</time></trkpt><trkpt lat="45.9218822" lon="11.6234475"><ele>1562.0</ele><time>2026-04-26T08:33:29.189Z</time></trkpt><trkpt lat="45.9219478" lon="11.6233675"><ele>1566.3333333333333</ele><time>2026-04-26T08:33:30.189Z</time></trkpt><trkpt lat="45.9220076" lon="11.6232873"><ele>1570.6666666666665</ele><time>2026-04-26T08:33:31.189Z</time></trkpt><trkpt lat="45.9220532" lon="11.6232058"><ele>1575.0</ele><time>2026-04-26T08:33:32.19Z</time></trkpt><trkpt lat="45.9220907" lon="11.6231194"><ele>1579.3333333333335</ele><time>2026-04-26T08:33:33.191Z</time></trkpt><trkpt lat="45.9221198" lon="11.6230155"><ele>1583.6666666666667</ele><time>2026-04-26T08:33:34.189Z</time></trkpt><trkpt lat="45.9221445" lon="11.622899"><ele>1588.0</ele><time>2026-04-26T08:33:35.19Z</time></trkpt><trkpt lat="45.9221594" lon="11.6227688"><ele>1588.0</ele><time>2026-04-26T08:33:36.191Z</time></trkpt><trkpt lat="45.9221699" lon="11.6226292"><ele>1588.0</ele><time>2026-04-26T08:33:37.19Z</time></trkpt><trkpt lat="45.9221776" lon="11.6224944"><ele>1588.0</ele><time>2026-04-26T08:33:38.192Z</time></trkpt><trkpt lat="45.9221866" lon="11.6223674"><ele>1588.0</ele><time>2026-04-26T08:33:39.19Z</time></trkpt><trkpt lat="45.9222035" lon="11.6222486"><ele>1588.0</ele><time>2026-04-26T08:33:40.19Z</time></trkpt><trkpt lat="45.9222218" lon="11.6221122"><ele>1588.0000000000002</ele><time>2026-04-26T08:33:41.19Z</time></trkpt><trkpt lat="45.9222319" lon="11.6219884"><ele>1588.0</ele><time>2026-04-26T08:33:42.191Z</time></trkpt><trkpt lat="45.922236" lon="11.6218893"><ele>1588.0</ele><time>2026-04-26T08:33:43.189Z</time></trkpt><trkpt lat="45.9222476" lon="11.6217928"><ele>1588.0</ele><time>2026-04-26T08:33:44.19Z</time></trkpt><trkpt lat="45.922274" lon="11.6216855"><ele>1588.0000000000002</ele><time>2026-04-26T08:33:45.191Z</time></trkpt><trkpt lat="45.922311" lon="11.6215642"><ele>1588.0</ele><time>2026-04-26T08:33:46.19Z</time></trkpt><trkpt lat="45.9223983" lon="11.6213166"><ele>1588.8000000000002</ele><time>2026-04-26T08:33:48.19Z</time></trkpt><trkpt lat="45.9224468" lon="11.6211934"><ele>1589.6</ele><time>2026-04-26T08:33:49.188Z</time></trkpt><trkpt lat="45.9224959" lon="11.6210688"><ele>1590.4</ele><time>2026-04-26T08:33:50.187Z</time></trkpt><trkpt lat="45.9225387" lon="11.620953"><ele>1591.1999999999998</ele><time>2026-04-26T08:33:51.187Z</time></trkpt><trkpt lat="45.922573" lon="11.6208611"><ele>1592.0</ele><time>2026-04-26T08:33:52.189Z</time></trkpt><trkpt lat="45.9226251" lon="11.6207289"><ele>1593.6666666666665</ele><time>2026-04-26T08:33:54.191Z</time></trkpt><trkpt lat="45.922682" lon="11.6205827"><ele>1595.3333333333333</ele><time>2026-04-26T08:33:56.191Z</time></trkpt><trkpt lat="45.9227284" lon="11.6205011"><ele>1597.0</ele><time>2026-04-26T08:33:57.191Z</time></trkpt><trkpt lat="45.9227863" lon="11.6204266"><ele>1598.6666666666665</ele><time>2026-04-26T08:33:58.193Z</time></trkpt><trkpt lat="45.9228528" lon="11.6203543"><ele>1600.3333333333333</ele><time>2026-04-26T08:33:59.192Z</time></trkpt><trkpt lat="45.9229234" lon="11.6202775"><ele>1602.0</ele><time>2026-04-26T08:34:00.191Z</time></trkpt><trkpt lat="45.9229801" lon="11.6201955"><ele>1602.0</ele><time>2026-04-26T08:34:01.19Z</time></trkpt><trkpt lat="45.9230228" lon="11.620103"><ele>1602.0</ele><time>2026-04-26T08:34:02.192Z</time></trkpt><trkpt lat="45.9230652" lon="11.6200045"><ele>1602.0</ele><time>2026-04-26T08:34:03.19Z</time></trkpt><trkpt lat="45.9230989" lon="11.6199096"><ele>1602.0</ele><time>2026-04-26T08:34:04.192Z</time></trkpt><trkpt lat="45.9231508" lon="11.6197666"><ele>1602.0</ele><time>2026-04-26T08:34:06.19Z</time></trkpt><trkpt lat="45.9231851" lon="11.6196436"><ele>1602.0</ele><time>2026-04-26T08:34:08.19Z</time></trkpt><trkpt lat="45.9232641" lon="11.6194729"><ele>1602.0</ele><time>2026-04-26T08:34:15.187Z</time></trkpt><trkpt lat="45.9232993" lon="11.61939"><ele>1602.0</ele><time>2026-04-26T08:34:25.191Z</time></trkpt><trkpt lat="45.9233266" lon="11.6193073"><ele>1602.0</ele><time>2026-04-26T08:34:30.19Z</time></trkpt><trkpt lat="45.9233929" lon="11.6190957"><ele>1602.0</ele><time>2026-04-26T08:34:38.189Z</time></trkpt><trkpt lat="45.9234328" lon="11.6189885"><ele>1602.0</ele><time>2026-04-26T08:34:41.19Z</time></trkpt><trkpt lat="45.9234754" lon="11.6188776"><ele>1605.1999999999998</ele><time>2026-04-26T08:34:43.191Z</time></trkpt><trkpt lat="45.9235307" lon="11.6187156"><ele>1608.4</ele><time>2026-04-26T08:34:45.19Z</time></trkpt><trkpt lat="45.9235756" lon="11.6186113"><ele>1611.6</ele><time>2026-04-26T08:34:46.193Z</time></trkpt><trkpt lat="45.9236263" lon="11.6184826"><ele>1614.8000000000002</ele><time>2026-04-26T08:34:47.192Z</time></trkpt><trkpt lat="45.923669" lon="11.6183679"><ele>1618.0</ele><time>2026-04-26T08:34:48.19Z</time></trkpt><trkpt lat="45.9237021" lon="11.6182688"><ele>1618.0</ele><time>2026-04-26T08:34:49.192Z</time></trkpt><trkpt lat="45.9237247" lon="11.6181675"><ele>1618.0</ele><time>2026-04-26T08:34:50.192Z</time></trkpt><trkpt lat="45.923743" lon="11.6180662"><ele>1618.0</ele><time>2026-04-26T08:34:51.191Z</time></trkpt><trkpt lat="45.9238692" lon="11.6178033"><ele>1618.0</ele><time>2026-04-26T08:34:55.192Z</time></trkpt><trkpt lat="45.9239301" lon="11.6177664"><ele>1618.0</ele><time>2026-04-26T08:34:56.192Z</time></trkpt><trkpt lat="45.9239992" lon="11.617738"><ele>1617.6666666666667</ele><time>2026-04-26T08:34:57.192Z</time></trkpt><trkpt lat="45.9240646" lon="11.6177151"><ele>1617.3333333333335</ele><time>2026-04-26T08:34:58.192Z</time></trkpt><trkpt lat="45.924147" lon="11.6176582"><ele>1617.0</ele><time>2026-04-26T08:35:00.192Z</time></trkpt><trkpt lat="45.9241987" lon="11.6175938"><ele>1616.6666666666665</ele><time>2026-04-26T08:35:02.189Z</time></trkpt><trkpt lat="45.9242304" lon="11.6174939"><ele>1616.3333333333333</ele><time>2026-04-26T08:35:04.19Z</time></trkpt><trkpt lat="45.9242373" lon="11.617367"><ele>1616.0</ele><time>2026-04-26T08:35:07.19Z</time></trkpt><trkpt lat="45.924214" lon="11.6172577"><ele>1614.8333333333333</ele><time>2026-04-26T08:35:10.189Z</time></trkpt><trkpt lat="45.9241883" lon="11.6171555"><ele>1613.6666666666665</ele><time>2026-04-26T08:35:13.191Z</time></trkpt><trkpt lat="45.924141" lon="11.6169813"><ele>1612.5</ele><time>2026-04-26T08:35:19.192Z</time></trkpt><trkpt lat="45.9241178" lon="11.61688"><ele>1611.3333333333335</ele><time>2026-04-26T08:35:22.191Z</time></trkpt><trkpt lat="45.9240914" lon="11.6167963"><ele>1610.1666666666667</ele><time>2026-04-26T08:35:30.187Z</time></trkpt><trkpt lat="45.9241283" lon="11.6169126"><ele>1609.0</ele><time>2026-04-26T08:36:20.194Z</time></trkpt><trkpt lat="45.9241995" lon="11.6171708"><ele>1609.0</ele><time>2026-04-26T08:36:24.192Z</time></trkpt><trkpt lat="45.9242404" lon="11.617314"><ele>1609.0</ele><time>2026-04-26T08:36:26.191Z</time></trkpt><trkpt lat="45.9242373" lon="11.6174596"><ele>1609.0</ele><time>2026-04-26T08:36:28.193Z</time></trkpt><trkpt lat="45.9242066" lon="11.6175699"><ele>1609.0</ele><time>2026-04-26T08:36:30.192Z</time></trkpt><trkpt lat="45.9241317" lon="11.6176479"><ele>1609.0</ele><time>2026-04-26T08:36:32.192Z</time></trkpt><trkpt lat="45.9240674" lon="11.6176809"><ele>1609.0</ele><time>2026-04-26T08:36:33.191Z</time></trkpt><trkpt lat="45.9239606" lon="11.6177143"><ele>1609.0</ele><time>2026-04-26T08:36:35.194Z</time></trkpt><trkpt lat="45.9238752" lon="11.6177366"><ele>1609.0</ele><time>2026-04-26T08:37:18.192Z</time></trkpt><trkpt lat="45.9237673" lon="11.6179236"><ele>1609.0</ele><time>2026-04-26T08:37:22.193Z</time></trkpt><trkpt lat="45.9237457" lon="11.6180678"><ele>1610.8000000000002</ele><time>2026-04-26T08:37:24.192Z</time></trkpt><trkpt lat="45.9237198" lon="11.6182083"><ele>1612.6000000000001</ele><time>2026-04-26T08:37:26.192Z</time></trkpt><trkpt lat="45.9236693" lon="11.6183588"><ele>1614.4</ele><time>2026-04-26T08:37:28.192Z</time></trkpt><trkpt lat="45.9236055" lon="11.6185209"><ele>1616.2</ele><time>2026-04-26T08:37:30.189Z</time></trkpt><trkpt lat="45.9235708" lon="11.6186031"><ele>1618.0</ele><time>2026-04-26T08:37:31.191Z</time></trkpt><trkpt lat="45.9235399" lon="11.618683"><ele>1619.2</ele><time>2026-04-26T08:37:32.191Z</time></trkpt><trkpt lat="45.9234901" lon="11.6188179"><ele>1620.4</ele><time>2026-04-26T08:37:34.192Z</time></trkpt><trkpt lat="45.9234434" lon="11.618918"><ele>1621.6000000000001</ele><time>2026-04-26T08:37:36.191Z</time></trkpt><trkpt lat="45.9234093" lon="11.6190013"><ele>1622.8000000000002</ele><time>2026-04-26T08:37:38.192Z</time></trkpt><trkpt lat="45.9233859" lon="11.6190913"><ele>1624.0</ele><time>2026-04-26T08:37:41.191Z</time></trkpt><trkpt lat="45.9233274" lon="11.619265"><ele>1619.6</ele><time>2026-04-26T08:38:05.191Z</time></trkpt><trkpt lat="45.9232668" lon="11.6194285"><ele>1615.2</ele><time>2026-04-26T08:38:13.191Z</time></trkpt><trkpt lat="45.9232126" lon="11.6195358"><ele>1610.8</ele><time>2026-04-26T08:38:15.19Z</time></trkpt><trkpt lat="45.9231895" lon="11.6196254"><ele>1606.3999999999999</ele><time>2026-04-26T08:38:16.191Z</time></trkpt><trkpt lat="45.9231573" lon="11.6197235"><ele>1602.0</ele><time>2026-04-26T08:38:17.191Z</time></trkpt><trkpt lat="45.9231118" lon="11.6198379"><ele>1602.0</ele><time>2026-04-26T08:38:18.19Z</time></trkpt><trkpt lat="45.9230631" lon="11.6199534"><ele>1602.0</ele><time>2026-04-26T08:38:19.188Z</time></trkpt><trkpt lat="45.9230124" lon="11.6200613"><ele>1602.0</ele><time>2026-04-26T08:38:20.191Z</time></trkpt><trkpt lat="45.922954" lon="11.6201592"><ele>1602.0</ele><time>2026-04-26T08:38:21.188Z</time></trkpt><trkpt lat="45.9228833" lon="11.6202467"><ele>1602.0</ele><time>2026-04-26T08:38:22.191Z</time></trkpt><trkpt lat="45.9228056" lon="11.620332"><ele>1600.3333333333333</ele><time>2026-04-26T08:38:23.191Z</time></trkpt><trkpt lat="45.9227414" lon="11.6204153"><ele>1598.6666666666665</ele><time>2026-04-26T08:38:24.192Z</time></trkpt><trkpt lat="45.9226957" lon="11.6204991"><ele>1597.0</ele><time>2026-04-26T08:38:25.189Z</time></trkpt><trkpt lat="45.922665" lon="11.6205847"><ele>1595.3333333333333</ele><time>2026-04-26T08:38:26.19Z</time></trkpt><trkpt lat="45.922597" lon="11.620763"><ele>1593.6666666666665</ele><time>2026-04-26T08:38:28.19Z</time></trkpt><trkpt lat="45.9225592" lon="11.6208457"><ele>1592.0</ele><time>2026-04-26T08:38:29.192Z</time></trkpt><trkpt lat="45.9225259" lon="11.6209309"><ele>1591.9999999999998</ele><time>2026-04-26T08:38:30.19Z</time></trkpt><trkpt lat="45.9224935" lon="11.6210195"><ele>1592.0</ele><time>2026-04-26T08:38:31.19Z</time></trkpt><trkpt lat="45.922464" lon="11.6211093"><ele>1592.0</ele><time>2026-04-26T08:38:32.191Z</time></trkpt><trkpt lat="45.9224318" lon="11.6211976"><ele>1592.0</ele><time>2026-04-26T08:38:33.192Z</time></trkpt><trkpt lat="45.922403" lon="11.6212836"><ele>1592.0</ele><time>2026-04-26T08:38:34.191Z</time></trkpt><trkpt lat="45.9223704" lon="11.6213703"><ele>1591.9999999999998</ele><time>2026-04-26T08:38:35.19Z</time></trkpt><trkpt lat="45.922341" lon="11.6214542"><ele>1592.0</ele><time>2026-04-26T08:38:36.19Z</time></trkpt><trkpt lat="45.9223077" lon="11.6215468"><ele>1591.9999999999998</ele><time>2026-04-26T08:38:37.193Z</time></trkpt><trkpt lat="45.9222834" lon="11.6216467"><ele>1592.0</ele><time>2026-04-26T08:38:38.191Z</time></trkpt><trkpt lat="45.9222686" lon="11.621749"><ele>1592.0</ele><time>2026-04-26T08:38:39.193Z</time></trkpt><trkpt lat="45.9222586" lon="11.6218516"><ele>1592.0</ele><time>2026-04-26T08:38:40.19Z</time></trkpt><trkpt lat="45.9222509" lon="11.6219551"><ele>1592.0</ele><time>2026-04-26T08:38:41.191Z</time></trkpt><trkpt lat="45.9222462" lon="11.6220569"><ele>1591.9999999999998</ele><time>2026-04-26T08:38:42.191Z</time></trkpt><trkpt lat="45.9222343" lon="11.6221578"><ele>1592.0</ele><time>2026-04-26T08:38:43.187Z</time></trkpt><trkpt lat="45.9222196" lon="11.6222572"><ele>1591.8</ele><time>2026-04-26T08:38:44.191Z</time></trkpt><trkpt lat="45.9222107" lon="11.6223573"><ele>1591.6</ele><time>2026-04-26T08:38:45.187Z</time></trkpt><trkpt lat="45.9222053" lon="11.6224709"><ele>1591.3999999999999</ele><time>2026-04-26T08:38:46.188Z</time></trkpt><trkpt lat="45.9221986" lon="11.6225924"><ele>1591.1999999999998</ele><time>2026-04-26T08:38:47.192Z</time></trkpt><trkpt lat="45.9221662" lon="11.6228227"><ele>1591.0</ele><time>2026-04-26T08:38:49.19Z</time></trkpt><trkpt lat="45.9221437" lon="11.6229297"><ele>1591.0000000000002</ele><time>2026-04-26T08:38:50.19Z</time></trkpt><trkpt lat="45.9221119" lon="11.6230298"><ele>1591.0</ele><time>2026-04-26T08:38:51.189Z</time></trkpt><trkpt lat="45.9220717" lon="11.6231205"><ele>1591.0</ele><time>2026-04-26T08:38:52.19Z</time></trkpt><trkpt lat="45.9220226" lon="11.6232113"><ele>1591.0</ele><time>2026-04-26T08:38:53.189Z</time></trkpt><trkpt lat="45.9219693" lon="11.6232987"><ele>1591.0000000000002</ele><time>2026-04-26T08:38:54.19Z</time></trkpt><trkpt lat="45.9219132" lon="11.6233802"><ele>1591.0</ele><time>2026-04-26T08:38:55.189Z</time></trkpt><trkpt lat="45.921853" lon="11.623457"><ele>1591.0000000000002</ele><time>2026-04-26T08:38:56.189Z</time></trkpt><trkpt lat="45.9217949" lon="11.6235266"><ele>1591.0</ele><time>2026-04-26T08:38:57.19Z</time></trkpt><trkpt lat="45.9217392" lon="11.6235945"><ele>1591.0</ele><time>2026-04-26T08:38:58.189Z</time></trkpt><trkpt lat="45.9216878" lon="11.6236629"><ele>1591.0</ele><time>2026-04-26T08:38:59.19Z</time></trkpt><trkpt lat="45.9216371" lon="11.6237318"><ele>1591.0000000000002</ele><time>2026-04-26T08:39:00.189Z</time></trkpt><trkpt lat="45.9215906" lon="11.623794"><ele>1591.0</ele><time>2026-04-26T08:39:01.19Z</time></trkpt><trkpt lat="45.9215266" lon="11.6239122"><ele>1589.0</ele><time>2026-04-26T08:39:03.19Z</time></trkpt><trkpt lat="45.9214868" lon="11.6240346"><ele>1587.0</ele><time>2026-04-26T08:39:05.188Z</time></trkpt><trkpt lat="45.9214619" lon="11.6241552"><ele>1585.0</ele><time>2026-04-26T08:39:07.188Z</time></trkpt><trkpt lat="45.9214498" lon="11.6242664"><ele>1583.0</ele><time>2026-04-26T08:39:09.19Z</time></trkpt><trkpt lat="45.9213564" lon="11.6245463"><ele>1582.9999999999998</ele><time>2026-04-26T08:39:19.189Z</time></trkpt><trkpt lat="45.9213252" lon="11.6246282"><ele>1583.0</ele><time>2026-04-26T08:39:20.19Z</time></trkpt><trkpt lat="45.9212897" lon="11.6247068"><ele>1583.0</ele><time>2026-04-26T08:39:21.189Z</time></trkpt><trkpt lat="45.9212521" lon="11.6247846"><ele>1583.0</ele><time>2026-04-26T08:39:22.188Z</time></trkpt><trkpt lat="45.9212112" lon="11.6248582"><ele>1582.9999999999998</ele><time>2026-04-26T08:39:23.188Z</time></trkpt><trkpt lat="45.9211362" lon="11.6249803"><ele>1583.0</ele><time>2026-04-26T08:39:25.187Z</time></trkpt><trkpt lat="45.9210466" lon="11.62506"><ele>1583.0</ele><time>2026-04-26T08:39:27.187Z</time></trkpt><trkpt lat="45.9209463" lon="11.6251441"><ele>1583.0</ele><time>2026-04-26T08:39:29.189Z</time></trkpt><trkpt lat="45.9208934" lon="11.625194"><ele>1583.0</ele><time>2026-04-26T08:39:30.188Z</time></trkpt><trkpt lat="45.9207762" lon="11.6252924"><ele>1583.0</ele><time>2026-04-26T08:39:32.185Z</time></trkpt><trkpt lat="45.9207145" lon="11.6253355"><ele>1583.0</ele><time>2026-04-26T08:39:33.184Z</time></trkpt><trkpt lat="45.9206505" lon="11.6253744"><ele>1581.857142857143</ele><time>2026-04-26T08:39:34.184Z</time></trkpt><trkpt lat="45.920584" lon="11.6254008"><ele>1580.7142857142858</ele><time>2026-04-26T08:39:35.186Z</time></trkpt><trkpt lat="45.9205153" lon="11.6254213"><ele>1579.5714285714284</ele><time>2026-04-26T08:39:36.189Z</time></trkpt><trkpt lat="45.9204469" lon="11.6254447"><ele>1578.4285714285716</ele><time>2026-04-26T08:39:37.187Z</time></trkpt><trkpt lat="45.9203792" lon="11.6254816"><ele>1577.2857142857142</ele><time>2026-04-26T08:39:38.188Z</time></trkpt><trkpt lat="45.920313" lon="11.6255292"><ele>1576.142857142857</ele><time>2026-04-26T08:39:39.187Z</time></trkpt><trkpt lat="45.9202456" lon="11.6255721"><ele>1575.0</ele><time>2026-04-26T08:39:40.189Z</time></trkpt><trkpt lat="45.9201739" lon="11.6256103"><ele>1575.0</ele><time>2026-04-26T08:39:41.189Z</time></trkpt><trkpt lat="45.9201025" lon="11.6256422"><ele>1575.0</ele><time>2026-04-26T08:39:42.188Z</time></trkpt><trkpt lat="45.9200278" lon="11.6256696"><ele>1575.0</ele><time>2026-04-26T08:39:43.187Z</time></trkpt><trkpt lat="45.9199561" lon="11.6256952"><ele>1575.0</ele><time>2026-04-26T08:39:44.189Z</time></trkpt><trkpt lat="45.9198798" lon="11.6257217"><ele>1575.0</ele><time>2026-04-26T08:39:45.189Z</time></trkpt><trkpt lat="45.9197941" lon="11.6257477"><ele>1575.0</ele><time>2026-04-26T08:39:46.186Z</time></trkpt><trkpt lat="45.9197095" lon="11.6257642"><ele>1568.8</ele><time>2026-04-26T08:39:47.189Z</time></trkpt><trkpt lat="45.9196269" lon="11.6257765"><ele>1562.6</ele><time>2026-04-26T08:39:48.189Z</time></trkpt><trkpt lat="45.9195469" lon="11.6257871"><ele>1556.4</ele><time>2026-04-26T08:39:49.186Z</time></trkpt><trkpt lat="45.9194682" lon="11.6257955"><ele>1550.2</ele><time>2026-04-26T08:39:50.189Z</time></trkpt><trkpt lat="45.9193928" lon="11.6258076"><ele>1544.0</ele><time>2026-04-26T08:39:51.19Z</time></trkpt><trkpt lat="45.9192526" lon="11.6258344"><ele>1543.0000000000002</ele><time>2026-04-26T08:39:53.189Z</time></trkpt><trkpt lat="45.9191859" lon="11.6258617"><ele>1542.0</ele><time>2026-04-26T08:39:54.19Z</time></trkpt><trkpt lat="45.9191167" lon="11.6259022"><ele>1541.0</ele><time>2026-04-26T08:39:55.19Z</time></trkpt><trkpt lat="45.9190483" lon="11.6259494"><ele>1540.0</ele><time>2026-04-26T08:39:56.19Z</time></trkpt><trkpt lat="45.9189832" lon="11.626004"><ele>1539.0</ele><time>2026-04-26T08:39:57.189Z</time></trkpt><trkpt lat="45.9189236" lon="11.626067"><ele>1538.0000000000002</ele><time>2026-04-26T08:39:58.188Z</time></trkpt><trkpt lat="45.9188664" lon="11.6261315"><ele>1537.0</ele><time>2026-04-26T08:39:59.188Z</time></trkpt><trkpt lat="45.9188159" lon="11.6262014"><ele>1537.0000000000002</ele><time>2026-04-26T08:40:00.19Z</time></trkpt><trkpt lat="45.918776" lon="11.626276"><ele>1537.0</ele><time>2026-04-26T08:40:01.19Z</time></trkpt><trkpt lat="45.9187185" lon="11.6264344"><ele>1537.0</ele><time>2026-04-26T08:40:03.19Z</time></trkpt><trkpt lat="45.9186959" lon="11.6265207"><ele>1537.0</ele><time>2026-04-26T08:40:04.19Z</time></trkpt><trkpt lat="45.9186756" lon="11.6266079"><ele>1537.0000000000002</ele><time>2026-04-26T08:40:05.19Z</time></trkpt><trkpt lat="45.918655" lon="11.6267042"><ele>1537.0</ele><time>2026-04-26T08:40:06.189Z</time></trkpt><trkpt lat="45.9186289" lon="11.6267988"><ele>1537.0000000000002</ele><time>2026-04-26T08:40:07.188Z</time></trkpt><trkpt lat="45.9185963" lon="11.6268978"><ele>1537.0</ele><time>2026-04-26T08:40:08.19Z</time></trkpt><trkpt lat="45.9185648" lon="11.6269961"><ele>1537.0</ele><time>2026-04-26T08:40:09.189Z</time></trkpt><trkpt lat="45.9185301" lon="11.6270906"><ele>1537.0</ele><time>2026-04-26T08:40:10.189Z</time></trkpt><trkpt lat="45.9184886" lon="11.6271754"><ele>1537.0000000000002</ele><time>2026-04-26T08:40:11.192Z</time></trkpt><trkpt lat="45.9183892" lon="11.6273336"><ele>1537.0</ele><time>2026-04-26T08:40:13.189Z</time></trkpt><trkpt lat="45.9183121" lon="11.6275025"><ele>1533.3333333333335</ele><time>2026-04-26T08:40:15.192Z</time></trkpt><trkpt lat="45.9182827" lon="11.6275881"><ele>1529.6666666666667</ele><time>2026-04-26T08:40:16.19Z</time></trkpt><trkpt lat="45.9182567" lon="11.6276854"><ele>1526.0</ele><time>2026-04-26T08:40:17.19Z</time></trkpt><trkpt lat="45.9182339" lon="11.6277916"><ele>1522.3333333333335</ele><time>2026-04-26T08:40:18.19Z</time></trkpt><trkpt lat="45.9182009" lon="11.6279045"><ele>1518.6666666666667</ele><time>2026-04-26T08:40:19.19Z</time></trkpt><trkpt lat="45.9181645" lon="11.6280142"><ele>1515.0</ele><time>2026-04-26T08:40:20.188Z</time></trkpt><trkpt lat="45.918127" lon="11.6281182"><ele>1515.0</ele><time>2026-04-26T08:40:21.188Z</time></trkpt><trkpt lat="45.9180922" lon="11.628219"><ele>1515.0</ele><time>2026-04-26T08:40:22.187Z</time></trkpt><trkpt lat="45.9180615" lon="11.6283199"><ele>1515.0</ele><time>2026-04-26T08:40:23.188Z</time></trkpt><trkpt lat="45.9180277" lon="11.6284353"><ele>1515.0</ele><time>2026-04-26T08:40:24.189Z</time></trkpt><trkpt lat="45.9179892" lon="11.628543"><ele>1515.0</ele><time>2026-04-26T08:40:25.189Z</time></trkpt><trkpt lat="45.9179463" lon="11.628646"><ele>1515.0</ele><time>2026-04-26T08:40:26.189Z</time></trkpt><trkpt lat="45.9179023" lon="11.6287395"><ele>1517.8333333333333</ele><time>2026-04-26T08:40:27.191Z</time></trkpt><trkpt lat="45.9178578" lon="11.62883"><ele>1520.6666666666667</ele><time>2026-04-26T08:40:28.189Z</time></trkpt><trkpt lat="45.9178133" lon="11.6289251"><ele>1523.5</ele><time>2026-04-26T08:40:29.189Z</time></trkpt><trkpt lat="45.9177742" lon="11.6290264"><ele>1526.3333333333335</ele><time>2026-04-26T08:40:30.189Z</time></trkpt><trkpt lat="45.9177382" lon="11.6291357"><ele>1529.1666666666667</ele><time>2026-04-26T08:40:31.19Z</time></trkpt><trkpt lat="45.9177022" lon="11.6292401"><ele>1532.0</ele><time>2026-04-26T08:40:32.189Z</time></trkpt><trkpt lat="45.9176534" lon="11.6293336"><ele>1532.0</ele><time>2026-04-26T08:40:33.192Z</time></trkpt><trkpt lat="45.9176001" lon="11.6294152"><ele>1532.0</ele><time>2026-04-26T08:40:34.191Z</time></trkpt><trkpt lat="45.917479" lon="11.6295769"><ele>1532.0</ele><time>2026-04-26T08:40:36.192Z</time></trkpt><trkpt lat="45.917425" lon="11.6296643"><ele>1532.0</ele><time>2026-04-26T08:40:37.192Z</time></trkpt><trkpt lat="45.9173218" lon="11.6298526"><ele>1529.5</ele><time>2026-04-26T08:40:39.19Z</time></trkpt><trkpt lat="45.9172716" lon="11.6299332"><ele>1527.0</ele><time>2026-04-26T08:40:40.19Z</time></trkpt><trkpt lat="45.9172148" lon="11.630015"><ele>1524.5</ele><time>2026-04-26T08:40:41.19Z</time></trkpt><trkpt lat="45.9171617" lon="11.6301073"><ele>1522.0</ele><time>2026-04-26T08:40:42.19Z</time></trkpt><trkpt lat="45.9171074" lon="11.6302147"><ele>1519.5</ele><time>2026-04-26T08:40:43.189Z</time></trkpt><trkpt lat="45.9170587" lon="11.6303249"><ele>1517.0</ele><time>2026-04-26T08:40:44.192Z</time></trkpt><trkpt lat="45.9170134" lon="11.6304321"><ele>1517.0</ele><time>2026-04-26T08:40:45.189Z</time></trkpt><trkpt lat="45.9169716" lon="11.6305303"><ele>1517.0</ele><time>2026-04-26T08:40:46.19Z</time></trkpt><trkpt lat="45.916934" lon="11.630626"><ele>1517.0</ele><time>2026-04-26T08:40:47.189Z</time></trkpt><trkpt lat="45.9169013" lon="11.6307238"><ele>1517.0</ele><time>2026-04-26T08:40:48.189Z</time></trkpt><trkpt lat="45.9168677" lon="11.6308195"><ele>1517.0</ele><time>2026-04-26T08:40:49.19Z</time></trkpt><trkpt lat="45.9168256" lon="11.6309082"><ele>1517.0</ele><time>2026-04-26T08:40:50.192Z</time></trkpt><trkpt lat="45.916774" lon="11.6309879"><ele>1510.3999999999999</ele><time>2026-04-26T08:40:51.191Z</time></trkpt><trkpt lat="45.9167149" lon="11.6310626"><ele>1503.8</ele><time>2026-04-26T08:40:52.19Z</time></trkpt><trkpt lat="45.9166596" lon="11.6311355"><ele>1497.2</ele><time>2026-04-26T08:40:53.191Z</time></trkpt><trkpt lat="45.9166008" lon="11.6312054"><ele>1490.6</ele><time>2026-04-26T08:40:54.188Z</time></trkpt><trkpt lat="45.9165381" lon="11.6312781"><ele>1484.0</ele><time>2026-04-26T08:40:55.189Z</time></trkpt><trkpt lat="45.9164328" lon="11.6314284"><ele>1484.0</ele><time>2026-04-26T08:40:57.19Z</time></trkpt><trkpt lat="45.9163866" lon="11.6315052"><ele>1484.0</ele><time>2026-04-26T08:40:58.19Z</time></trkpt><trkpt lat="45.9163427" lon="11.6315811"><ele>1484.0</ele><time>2026-04-26T08:40:59.19Z</time></trkpt><trkpt lat="45.9163038" lon="11.6316662"><ele>1484.0</ele><time>2026-04-26T08:41:00.19Z</time></trkpt><trkpt lat="45.9162816" lon="11.6317621"><ele>1484.0</ele><time>2026-04-26T08:41:01.189Z</time></trkpt><trkpt lat="45.9162766" lon="11.6318558"><ele>1484.0</ele><time>2026-04-26T08:41:02.191Z</time></trkpt><trkpt lat="45.9162846" lon="11.6320194"><ele>1485.0</ele><time>2026-04-26T08:41:04.191Z</time></trkpt><trkpt lat="45.9162883" lon="11.6321615"><ele>1486.0</ele><time>2026-04-26T08:41:06.191Z</time></trkpt><trkpt lat="45.9163014" lon="11.6323479"><ele>1487.0</ele><time>2026-04-26T08:41:08.193Z</time></trkpt><trkpt lat="45.9163036" lon="11.6324618"><ele>1488.0</ele><time>2026-04-26T08:41:09.191Z</time></trkpt><trkpt lat="45.9162892" lon="11.6325812"><ele>1489.0</ele><time>2026-04-26T08:41:10.189Z</time></trkpt><trkpt lat="45.9162609" lon="11.6326954"><ele>1489.0</ele><time>2026-04-26T08:41:11.188Z</time></trkpt><trkpt lat="45.9162212" lon="11.6328025"><ele>1489.0</ele><time>2026-04-26T08:41:12.192Z</time></trkpt><trkpt lat="45.9161679" lon="11.6329069"><ele>1489.0</ele><time>2026-04-26T08:41:13.19Z</time></trkpt><trkpt lat="45.9161167" lon="11.6330082"><ele>1489.0</ele><time>2026-04-26T08:41:14.191Z</time></trkpt><trkpt lat="45.9160722" lon="11.6331136"><ele>1489.0</ele><time>2026-04-26T08:41:15.193Z</time></trkpt><trkpt lat="45.9160341" lon="11.6332218"><ele>1489.0</ele><time>2026-04-26T08:41:16.193Z</time></trkpt><trkpt lat="45.915968" lon="11.6334"><ele>1488.2</ele><time>2026-04-26T08:41:18.192Z</time></trkpt><trkpt lat="45.9159198" lon="11.6335686"><ele>1487.4</ele><time>2026-04-26T08:41:20.193Z</time></trkpt><trkpt lat="45.9159145" lon="11.633662"><ele>1486.6</ele><time>2026-04-26T08:41:21.192Z</time></trkpt><trkpt lat="45.915921" lon="11.6337545"><ele>1485.8</ele><time>2026-04-26T08:41:22.194Z</time></trkpt><trkpt lat="45.9159318" lon="11.6338441"><ele>1485.0</ele><time>2026-04-26T08:41:23.194Z</time></trkpt><trkpt lat="45.9159513" lon="11.6340307"><ele>1485.0</ele><time>2026-04-26T08:41:25.193Z</time></trkpt><trkpt lat="45.9159521" lon="11.6341275"><ele>1485.0</ele><time>2026-04-26T08:41:26.195Z</time></trkpt><trkpt lat="45.9159379" lon="11.634303"><ele>1485.0</ele><time>2026-04-26T08:41:28.194Z</time></trkpt><trkpt lat="45.9159388" lon="11.6343991"><ele>1485.0</ele><time>2026-04-26T08:41:29.193Z</time></trkpt><trkpt lat="45.9159489" lon="11.6344986"><ele>1485.0</ele><time>2026-04-26T08:41:30.194Z</time></trkpt><trkpt lat="45.9159738" lon="11.6345948"><ele>1485.0</ele><time>2026-04-26T08:41:31.194Z</time></trkpt><trkpt lat="45.9160121" lon="11.634688"><ele>1483.3333333333333</ele><time>2026-04-26T08:41:32.194Z</time></trkpt><trkpt lat="45.9160568" lon="11.6347655"><ele>1481.6666666666667</ele><time>2026-04-26T08:41:33.203Z</time></trkpt><trkpt lat="45.9161091" lon="11.6348311"><ele>1480.0</ele><time>2026-04-26T08:41:34.202Z</time></trkpt><trkpt lat="45.9161692" lon="11.6348998"><ele>1478.3333333333335</ele><time>2026-04-26T08:41:35.201Z</time></trkpt><trkpt lat="45.916224" lon="11.6349753"><ele>1476.6666666666667</ele><time>2026-04-26T08:41:36.2Z</time></trkpt><trkpt lat="45.9162745" lon="11.635047"><ele>1475.0</ele><time>2026-04-26T08:41:37.201Z</time></trkpt><trkpt lat="45.9163539" lon="11.6352847"><ele>1474.2857142857142</ele><time>2026-04-26T08:41:40.206Z</time></trkpt><trkpt lat="45.9163482" lon="11.6353795"><ele>1473.5714285714287</ele><time>2026-04-26T08:41:41.205Z</time></trkpt><trkpt lat="45.9163225" lon="11.6354958"><ele>1472.857142857143</ele><time>2026-04-26T08:41:42.206Z</time></trkpt><trkpt lat="45.9162945" lon="11.6355926"><ele>1472.142857142857</ele><time>2026-04-26T08:41:43.206Z</time></trkpt><trkpt lat="45.9162803" lon="11.6356839"><ele>1471.4285714285716</ele><time>2026-04-26T08:41:44.218Z</time></trkpt><trkpt lat="45.9162651" lon="11.6357811"><ele>1470.7142857142858</ele><time>2026-04-26T08:41:45.205Z</time></trkpt><trkpt lat="45.9162485" lon="11.6358795"><ele>1470.0</ele><time>2026-04-26T08:41:46.217Z</time></trkpt><trkpt lat="45.9162405" lon="11.6359772"><ele>1470.0</ele><time>2026-04-26T08:41:47.215Z</time></trkpt><trkpt lat="45.9162398" lon="11.6360738"><ele>1470.0</ele><time>2026-04-26T08:41:48.204Z</time></trkpt><trkpt lat="45.9162423" lon="11.6361748"><ele>1470.0</ele><time>2026-04-26T08:41:49.203Z</time></trkpt><trkpt lat="45.9162504" lon="11.6362958"><ele>1470.0</ele><time>2026-04-26T08:41:50.205Z</time></trkpt><trkpt lat="45.9162623" lon="11.6364243"><ele>1470.0</ele><time>2026-04-26T08:41:51.205Z</time></trkpt><trkpt lat="45.9162731" lon="11.6365434"><ele>1470.0</ele><time>2026-04-26T08:41:52.206Z</time></trkpt><trkpt lat="45.9162817" lon="11.6366564"><ele>1468.6</ele><time>2026-04-26T08:41:53.208Z</time></trkpt><trkpt lat="45.9162943" lon="11.6367654"><ele>1467.2</ele><time>2026-04-26T08:41:54.209Z</time></trkpt><trkpt lat="45.916326" lon="11.6368922"><ele>1465.8000000000002</ele><time>2026-04-26T08:41:55.222Z</time></trkpt><trkpt lat="45.9163747" lon="11.6370251"><ele>1464.4</ele><time>2026-04-26T08:41:56.223Z</time></trkpt><trkpt lat="45.9164419" lon="11.6371526"><ele>1463.0</ele><time>2026-04-26T08:41:57.208Z</time></trkpt><trkpt lat="45.91652" lon="11.6372955"><ele>1460.0</ele><time>2026-04-26T08:41:58.203Z</time></trkpt><trkpt lat="45.9166175" lon="11.6375492"><ele>1457.0</ele><time>2026-04-26T08:42:00.205Z</time></trkpt><trkpt lat="45.9166419" lon="11.6376573"><ele>1454.0</ele><time>2026-04-26T08:42:01.203Z</time></trkpt><trkpt lat="45.9166544" lon="11.6377577"><ele>1451.0</ele><time>2026-04-26T08:42:02.204Z</time></trkpt><trkpt lat="45.9166667" lon="11.6379008"><ele>1450.6</ele><time>2026-04-26T08:42:04.207Z</time></trkpt><trkpt lat="45.9166821" lon="11.6379899"><ele>1450.1999999999998</ele><time>2026-04-26T08:42:06.21Z</time></trkpt><trkpt lat="45.916732" lon="11.6380753"><ele>1449.8000000000002</ele><time>2026-04-26T08:42:08.194Z</time></trkpt><trkpt lat="45.9168546" lon="11.6381008"><ele>1449.4</ele><time>2026-04-26T08:42:10.195Z</time></trkpt><trkpt lat="45.9169402" lon="11.638081"><ele>1449.0</ele><time>2026-04-26T08:42:11.195Z</time></trkpt><trkpt lat="45.917039" lon="11.6380566"><ele>1449.0</ele><time>2026-04-26T08:42:12.195Z</time></trkpt><trkpt lat="45.9171362" lon="11.6380411"><ele>1449.0</ele><time>2026-04-26T08:42:13.195Z</time></trkpt><trkpt lat="45.9172246" lon="11.6380265"><ele>1449.0</ele><time>2026-04-26T08:42:14.195Z</time></trkpt><trkpt lat="45.9173036" lon="11.6380101"><ele>1449.0</ele><time>2026-04-26T08:42:15.194Z</time></trkpt><trkpt lat="45.9173741" lon="11.6379885"><ele>1449.0</ele><time>2026-04-26T08:42:16.194Z</time></trkpt><trkpt lat="45.9174331" lon="11.6379499"><ele>1449.0</ele><time>2026-04-26T08:42:17.193Z</time></trkpt><trkpt lat="45.9174869" lon="11.6378853"><ele>1450.5</ele><time>2026-04-26T08:42:18.196Z</time></trkpt><trkpt lat="45.9175338" lon="11.6377935"><ele>1452.0</ele><time>2026-04-26T08:42:19.195Z</time></trkpt><trkpt lat="45.9176009" lon="11.6375135"><ele>1453.5</ele><time>2026-04-26T08:42:21.194Z</time></trkpt><trkpt lat="45.9176254" lon="11.6373809"><ele>1455.0</ele><time>2026-04-26T08:42:22.193Z</time></trkpt><trkpt lat="45.9176546" lon="11.6372751"><ele>1455.8333333333333</ele><time>2026-04-26T08:42:23.193Z</time></trkpt><trkpt lat="45.9176933" lon="11.6372023"><ele>1456.6666666666667</ele><time>2026-04-26T08:42:24.192Z</time></trkpt><trkpt lat="45.9177474" lon="11.6371519"><ele>1457.5</ele><time>2026-04-26T08:42:25.191Z</time></trkpt><trkpt lat="45.9178109" lon="11.6371315"><ele>1458.3333333333335</ele><time>2026-04-26T08:42:26.192Z</time></trkpt><trkpt lat="45.9179448" lon="11.6372143"><ele>1459.1666666666667</ele><time>2026-04-26T08:42:28.193Z</time></trkpt><trkpt lat="45.9180198" lon="11.6373145"><ele>1460.0</ele><time>2026-04-26T08:42:29.194Z</time></trkpt><trkpt lat="45.9181046" lon="11.6374441"><ele>1460.0</ele><time>2026-04-26T08:42:30.193Z</time></trkpt><trkpt lat="45.9181979" lon="11.6375712"><ele>1460.0</ele><time>2026-04-26T08:42:31.19Z</time></trkpt><trkpt lat="45.9182878" lon="11.6376941"><ele>1460.0</ele><time>2026-04-26T08:42:32.193Z</time></trkpt><trkpt lat="45.918376" lon="11.6378191"><ele>1460.0</ele><time>2026-04-26T08:42:33.19Z</time></trkpt><trkpt lat="45.9184599" lon="11.6379341"><ele>1459.4</ele><time>2026-04-26T08:42:34.194Z</time></trkpt><trkpt lat="45.9185378" lon="11.6380469"><ele>1458.8</ele><time>2026-04-26T08:42:35.194Z</time></trkpt><trkpt lat="45.9186172" lon="11.638168"><ele>1458.1999999999998</ele><time>2026-04-26T08:42:36.193Z</time></trkpt><trkpt lat="45.9186892" lon="11.6382806"><ele>1457.6</ele><time>2026-04-26T08:42:37.195Z</time></trkpt><trkpt lat="45.9187522" lon="11.6383777"><ele>1457.0</ele><time>2026-04-26T08:42:38.196Z</time></trkpt><trkpt lat="45.9188062" lon="11.6384648"><ele>1457.0</ele><time>2026-04-26T08:42:39.194Z</time></trkpt><trkpt lat="45.9188568" lon="11.6385437"><ele>1457.0</ele><time>2026-04-26T08:42:40.195Z</time></trkpt><trkpt lat="45.9189917" lon="11.6386911"><ele>1457.0</ele><time>2026-04-26T08:42:43.195Z</time></trkpt><trkpt lat="45.9190526" lon="11.6387141"><ele>1457.0</ele><time>2026-04-26T08:42:46.195Z</time></trkpt><trkpt lat="45.9191311" lon="11.6387218"><ele>1457.0</ele><time>2026-04-26T08:43:20.193Z</time></trkpt><trkpt lat="45.9193471" lon="11.6386011"><ele>1456.5</ele><time>2026-04-26T08:43:23.192Z</time></trkpt><trkpt lat="45.9194193" lon="11.6385179"><ele>1456.0</ele><time>2026-04-26T08:43:24.194Z</time></trkpt><trkpt lat="45.9194802" lon="11.6384268"><ele>1455.5</ele><time>2026-04-26T08:43:25.193Z</time></trkpt><trkpt lat="45.9195378" lon="11.6383388"><ele>1455.0</ele><time>2026-04-26T08:43:26.194Z</time></trkpt><trkpt lat="45.919596" lon="11.6382597"><ele>1454.5</ele><time>2026-04-26T08:43:27.193Z</time></trkpt><trkpt lat="45.9196569" lon="11.6382003"><ele>1454.0</ele><time>2026-04-26T08:43:28.195Z</time></trkpt><trkpt lat="45.9197177" lon="11.6381654"><ele>1454.0</ele><time>2026-04-26T08:43:29.194Z</time></trkpt><trkpt lat="45.9198365" lon="11.6381773"><ele>1454.0</ele><time>2026-04-26T08:43:31.192Z</time></trkpt><trkpt lat="45.9198949" lon="11.6382245"><ele>1454.0</ele><time>2026-04-26T08:43:32.196Z</time></trkpt><trkpt lat="45.9199605" lon="11.6383012"><ele>1454.0</ele><time>2026-04-26T08:43:33.194Z</time></trkpt><trkpt lat="45.9200305" lon="11.638396"><ele>1454.0</ele><time>2026-04-26T08:43:34.193Z</time></trkpt><trkpt lat="45.9200963" lon="11.638491"><ele>1455.8000000000002</ele><time>2026-04-26T08:43:35.193Z</time></trkpt><trkpt lat="45.9201625" lon="11.6385849"><ele>1457.6000000000001</ele><time>2026-04-26T08:43:36.192Z</time></trkpt><trkpt lat="45.9202308" lon="11.6386755"><ele>1459.4</ele><time>2026-04-26T08:43:37.189Z</time></trkpt><trkpt lat="45.9203069" lon="11.6387634"><ele>1461.2</ele><time>2026-04-26T08:43:38.191Z</time></trkpt><trkpt lat="45.9203788" lon="11.6388551"><ele>1463.0</ele><time>2026-04-26T08:43:39.191Z</time></trkpt><trkpt lat="45.9204436" lon="11.6389433"><ele>1459.0</ele><time>2026-04-26T08:43:40.192Z</time></trkpt><trkpt lat="45.9205052" lon="11.6390262"><ele>1455.0</ele><time>2026-04-26T08:43:41.193Z</time></trkpt><trkpt lat="45.9206134" lon="11.6391769"><ele>1451.0</ele><time>2026-04-26T08:43:43.192Z</time></trkpt><trkpt lat="45.920668" lon="11.639237"><ele>1447.0</ele><time>2026-04-26T08:43:44.194Z</time></trkpt><trkpt lat="45.9207303" lon="11.63928"><ele>1443.0</ele><time>2026-04-26T08:43:45.193Z</time></trkpt><trkpt lat="45.9208028" lon="11.6393114"><ele>1439.0</ele><time>2026-04-26T08:43:46.194Z</time></trkpt><trkpt lat="45.9208741" lon="11.639322"><ele>1439.0</ele><time>2026-04-26T08:43:47.194Z</time></trkpt><trkpt lat="45.920947" lon="11.6393183"><ele>1439.0</ele><time>2026-04-26T08:43:48.194Z</time></trkpt><trkpt lat="45.9210242" lon="11.6392987"><ele>1439.0</ele><time>2026-04-26T08:43:49.194Z</time></trkpt><trkpt lat="45.9210995" lon="11.6392658"><ele>1439.0</ele><time>2026-04-26T08:43:50.196Z</time></trkpt><trkpt lat="45.9211695" lon="11.6392303"><ele>1439.0</ele><time>2026-04-26T08:43:51.195Z</time></trkpt><trkpt lat="45.9212317" lon="11.6391929"><ele>1439.0</ele><time>2026-04-26T08:43:52.195Z</time></trkpt><trkpt lat="45.9213437" lon="11.6391261"><ele>1439.0</ele><time>2026-04-26T08:43:54.196Z</time></trkpt><trkpt lat="45.9214585" lon="11.6391517"><ele>1439.0</ele><time>2026-04-26T08:43:56.195Z</time></trkpt><trkpt lat="45.92151" lon="11.6392043"><ele>1439.0</ele><time>2026-04-26T08:43:57.194Z</time></trkpt><trkpt lat="45.9215588" lon="11.6392928"><ele>1439.0</ele><time>2026-04-26T08:43:58.195Z</time></trkpt><trkpt lat="45.9216175" lon="11.6394054"><ele>1439.0</ele><time>2026-04-26T08:43:59.195Z</time></trkpt><trkpt lat="45.9216757" lon="11.639499"><ele>1439.0</ele><time>2026-04-26T08:44:00.192Z</time></trkpt><trkpt lat="45.9217272" lon="11.6395885"><ele>1436.6</ele><time>2026-04-26T08:44:01.19Z</time></trkpt><trkpt lat="45.9217654" lon="11.6396858"><ele>1434.2</ele><time>2026-04-26T08:44:02.194Z</time></trkpt><trkpt lat="45.9217974" lon="11.6399023"><ele>1431.8</ele><time>2026-04-26T08:44:04.192Z</time></trkpt><trkpt lat="45.9218053" lon="11.6400251"><ele>1429.3999999999999</ele><time>2026-04-26T08:44:05.195Z</time></trkpt><trkpt lat="45.9218179" lon="11.6401341"><ele>1427.0</ele><time>2026-04-26T08:44:06.194Z</time></trkpt><trkpt lat="45.9218353" lon="11.6402255"><ele>1421.8</ele><time>2026-04-26T08:44:07.195Z</time></trkpt><trkpt lat="45.9219067" lon="11.6403596"><ele>1416.6</ele><time>2026-04-26T08:44:09.195Z</time></trkpt><trkpt lat="45.9220316" lon="11.6403977"><ele>1411.3999999999999</ele><time>2026-04-26T08:44:11.194Z</time></trkpt><trkpt lat="45.9221033" lon="11.6404036"><ele>1406.1999999999998</ele><time>2026-04-26T08:44:12.193Z</time></trkpt><trkpt lat="45.9221749" lon="11.6404066"><ele>1401.0</ele><time>2026-04-26T08:44:13.194Z</time></trkpt><trkpt lat="45.9222533" lon="11.6404063"><ele>1401.0</ele><time>2026-04-26T08:44:14.196Z</time></trkpt><trkpt lat="45.9223523" lon="11.6403979"><ele>1401.0</ele><time>2026-04-26T08:44:15.194Z</time></trkpt><trkpt lat="45.9224694" lon="11.6403983"><ele>1401.0</ele><time>2026-04-26T08:44:16.194Z</time></trkpt><trkpt lat="45.9225825" lon="11.6404136"><ele>1401.0</ele><time>2026-04-26T08:44:17.196Z</time></trkpt><trkpt lat="45.9227664" lon="11.6404569"><ele>1401.0</ele><time>2026-04-26T08:44:19.193Z</time></trkpt><trkpt lat="45.9228403" lon="11.6404734"><ele>1401.0</ele><time>2026-04-26T08:44:20.195Z</time></trkpt><trkpt lat="45.9229066" lon="11.6404837"><ele>1401.0</ele><time>2026-04-26T08:44:21.192Z</time></trkpt><trkpt lat="45.9230224" lon="11.6405392"><ele>1401.0</ele><time>2026-04-26T08:44:23.196Z</time></trkpt><trkpt lat="45.9231031" lon="11.6407994"><ele>1401.0</ele><time>2026-04-26T08:44:27.191Z</time></trkpt><trkpt lat="45.9230907" lon="11.6409044"><ele>1401.0</ele><time>2026-04-26T08:44:28.192Z</time></trkpt><trkpt lat="45.9230735" lon="11.6410185"><ele>1401.0</ele><time>2026-04-26T08:44:29.191Z</time></trkpt><trkpt lat="45.9230549" lon="11.6411297"><ele>1401.0</ele><time>2026-04-26T08:44:30.192Z</time></trkpt><trkpt lat="45.923042" lon="11.641244"><ele>1401.0</ele><time>2026-04-26T08:44:31.192Z</time></trkpt><trkpt lat="45.9230332" lon="11.6413589"><ele>1401.0</ele><time>2026-04-26T08:44:32.193Z</time></trkpt><trkpt lat="45.9230235" lon="11.6414665"><ele>1398.8333333333333</ele><time>2026-04-26T08:44:33.194Z</time></trkpt><trkpt lat="45.9230144" lon="11.6415717"><ele>1396.6666666666667</ele><time>2026-04-26T08:44:34.194Z</time></trkpt><trkpt lat="45.9230085" lon="11.6416797"><ele>1394.5</ele><time>2026-04-26T08:44:35.196Z</time></trkpt><trkpt lat="45.9230063" lon="11.6417833"><ele>1392.3333333333335</ele><time>2026-04-26T08:44:36.194Z</time></trkpt><trkpt lat="45.9230025" lon="11.6419371"><ele>1390.1666666666667</ele><time>2026-04-26T08:44:38.194Z</time></trkpt><trkpt lat="45.9229848" lon="11.6420877"><ele>1388.0</ele><time>2026-04-26T08:44:40.194Z</time></trkpt><trkpt lat="45.9229582" lon="11.642227"><ele>1384.25</ele><time>2026-04-26T08:44:42.195Z</time></trkpt><trkpt lat="45.9229158" lon="11.6423621"><ele>1380.5</ele><time>2026-04-26T08:44:44.195Z</time></trkpt><trkpt lat="45.9228766" lon="11.6426627"><ele>1376.75</ele><time>2026-04-26T08:44:48.194Z</time></trkpt><trkpt lat="45.9228747" lon="11.642815"><ele>1373.0</ele><time>2026-04-26T08:44:50.193Z</time></trkpt><trkpt lat="45.9228718" lon="11.6429616"><ele>1372.0</ele><time>2026-04-26T08:44:52.193Z</time></trkpt><trkpt lat="45.9228964" lon="11.6431047"><ele>1371.0</ele><time>2026-04-26T08:44:54.194Z</time></trkpt><trkpt lat="45.9229814" lon="11.643202"><ele>1370.0</ele><time>2026-04-26T08:44:56.196Z</time></trkpt><trkpt lat="45.9230545" lon="11.6432235"><ele>1369.0</ele><time>2026-04-26T08:44:57.195Z</time></trkpt><trkpt lat="45.9231344" lon="11.6432353"><ele>1368.0</ele><time>2026-04-26T08:44:58.193Z</time></trkpt><trkpt lat="45.9232152" lon="11.643238"><ele>1367.0</ele><time>2026-04-26T08:44:59.196Z</time></trkpt><trkpt lat="45.9232938" lon="11.6432416"><ele>1367.0</ele><time>2026-04-26T08:45:00.196Z</time></trkpt><trkpt lat="45.9233727" lon="11.6432466"><ele>1367.0</ele><time>2026-04-26T08:45:01.195Z</time></trkpt><trkpt lat="45.9234472" lon="11.6432583"><ele>1367.0</ele><time>2026-04-26T08:45:02.197Z</time></trkpt><trkpt lat="45.923514" lon="11.6432699"><ele>1367.0</ele><time>2026-04-26T08:45:03.194Z</time></trkpt><trkpt lat="45.9236101" lon="11.6432846"><ele>1367.0</ele><time>2026-04-26T08:45:05.195Z</time></trkpt><trkpt lat="45.9238031" lon="11.6433768"><ele>1367.3999999999999</ele><time>2026-04-26T08:45:09.193Z</time></trkpt><trkpt lat="45.9238909" lon="11.6433874"><ele>1367.8</ele><time>2026-04-26T08:45:10.193Z</time></trkpt><trkpt lat="45.9239772" lon="11.6433751"><ele>1368.2</ele><time>2026-04-26T08:45:11.193Z</time></trkpt><trkpt lat="45.9240601" lon="11.6433535"><ele>1368.6</ele><time>2026-04-26T08:45:12.193Z</time></trkpt><trkpt lat="45.9241567" lon="11.6433288"><ele>1369.0</ele><time>2026-04-26T08:45:13.192Z</time></trkpt><trkpt lat="45.9242669" lon="11.6432983"><ele>1369.0</ele><time>2026-04-26T08:45:14.192Z</time></trkpt><trkpt lat="45.9243816" lon="11.643259"><ele>1369.0</ele><time>2026-04-26T08:45:15.189Z</time></trkpt><trkpt lat="45.9244819" lon="11.643193"><ele>1369.0</ele><time>2026-04-26T08:45:16.192Z</time></trkpt><trkpt lat="45.9245666" lon="11.6431007"><ele>1369.0</ele><time>2026-04-26T08:45:17.191Z</time></trkpt><trkpt lat="45.9246585" lon="11.6430287"><ele>1369.0</ele><time>2026-04-26T08:45:18.193Z</time></trkpt><trkpt lat="45.9247652" lon="11.6429888"><ele>1369.0</ele><time>2026-04-26T08:45:19.192Z</time></trkpt><trkpt lat="45.924871" lon="11.6429571"><ele>1369.0</ele><time>2026-04-26T08:45:20.194Z</time></trkpt><trkpt lat="45.9249639" lon="11.6429023"><ele>1369.0</ele><time>2026-04-26T08:45:21.193Z</time></trkpt><trkpt lat="45.9250579" lon="11.6428638"><ele>1369.0</ele><time>2026-04-26T08:45:22.194Z</time></trkpt><trkpt lat="45.9251558" lon="11.6428806"><ele>1369.0</ele><time>2026-04-26T08:45:23.193Z</time></trkpt><trkpt lat="45.9252565" lon="11.6429385"><ele>1368.0</ele><time>2026-04-26T08:45:24.194Z</time></trkpt><trkpt lat="45.9253579" lon="11.6430093"><ele>1367.0</ele><time>2026-04-26T08:45:25.194Z</time></trkpt><trkpt lat="45.9254537" lon="11.6430702"><ele>1366.0</ele><time>2026-04-26T08:45:26.194Z</time></trkpt><trkpt lat="45.9256389" lon="11.6431581"><ele>1365.0</ele><time>2026-04-26T08:45:28.193Z</time></trkpt><trkpt lat="45.925725" lon="11.6431783"><ele>1365.0</ele><time>2026-04-26T08:45:29.194Z</time></trkpt><trkpt lat="45.9258084" lon="11.6431538"><ele>1365.0</ele><time>2026-04-26T08:45:30.195Z</time></trkpt><trkpt lat="45.9258782" lon="11.643081"><ele>1365.0</ele><time>2026-04-26T08:45:31.196Z</time></trkpt><trkpt lat="45.9259208" lon="11.6429781"><ele>1365.0</ele><time>2026-04-26T08:45:32.195Z</time></trkpt><trkpt lat="45.9259432" lon="11.6428561"><ele>1365.0</ele><time>2026-04-26T08:45:33.196Z</time></trkpt><trkpt lat="45.9259563" lon="11.6427304"><ele>1365.0</ele><time>2026-04-26T08:45:34.193Z</time></trkpt><trkpt lat="45.9259703" lon="11.6426057"><ele>1364.4</ele><time>2026-04-26T08:45:35.195Z</time></trkpt><trkpt lat="45.9259921" lon="11.6424764"><ele>1363.8</ele><time>2026-04-26T08:45:36.194Z</time></trkpt><trkpt lat="45.9260269" lon="11.6423395"><ele>1363.1999999999998</ele><time>2026-04-26T08:45:37.194Z</time></trkpt><trkpt lat="45.9260754" lon="11.6422004"><ele>1362.6</ele><time>2026-04-26T08:45:38.194Z</time></trkpt><trkpt lat="45.9261264" lon="11.6420723"><ele>1362.0</ele><time>2026-04-26T08:45:39.192Z</time></trkpt><trkpt lat="45.926178" lon="11.6419516"><ele>1362.0</ele><time>2026-04-26T08:45:40.192Z</time></trkpt><trkpt lat="45.9262335" lon="11.6418451"><ele>1362.0</ele><time>2026-04-26T08:45:41.192Z</time></trkpt><trkpt lat="45.9262946" lon="11.6417562"><ele>1362.0</ele><time>2026-04-26T08:45:42.191Z</time></trkpt><trkpt lat="45.9263598" lon="11.6416818"><ele>1362.0</ele><time>2026-04-26T08:45:43.194Z</time></trkpt><trkpt lat="45.9264333" lon="11.6416181"><ele>1362.0</ele><time>2026-04-26T08:45:44.195Z</time></trkpt><trkpt lat="45.9265185" lon="11.6415742"><ele>1362.0</ele><time>2026-04-26T08:45:45.194Z</time></trkpt><trkpt lat="45.9265993" lon="11.6415291"><ele>1362.0</ele><time>2026-04-26T08:45:46.192Z</time></trkpt><trkpt lat="45.9266634" lon="11.6414508"><ele>1362.0</ele><time>2026-04-26T08:45:47.195Z</time></trkpt><trkpt lat="45.9267365" lon="11.6411695"><ele>1362.0</ele><time>2026-04-26T08:45:49.193Z</time></trkpt><trkpt lat="45.9267342" lon="11.6410291"><ele>1362.0</ele><time>2026-04-26T08:45:49.995Z</time></trkpt><trkpt lat="45.926703" lon="11.6408205"><ele>1362.25</ele><time>2026-04-26T08:45:51.194Z</time></trkpt><trkpt lat="45.9266757" lon="11.6406545"><ele>1362.5</ele><time>2026-04-26T08:45:52.196Z</time></trkpt><trkpt lat="45.9266636" lon="11.64049"><ele>1362.75</ele><time>2026-04-26T08:45:53.195Z</time></trkpt><trkpt lat="45.9266684" lon="11.6403285"><ele>1363.0</ele><time>2026-04-26T08:45:54.194Z</time></trkpt><trkpt lat="45.9266885" lon="11.6401722"><ele>1362.8000000000002</ele><time>2026-04-26T08:45:55.196Z</time></trkpt><trkpt lat="45.9267193" lon="11.6400274"><ele>1362.6</ele><time>2026-04-26T08:45:56.193Z</time></trkpt><trkpt lat="45.9267437" lon="11.6398861"><ele>1362.4</ele><time>2026-04-26T08:45:57.192Z</time></trkpt><trkpt lat="45.9267528" lon="11.6397237"><ele>1362.1999999999998</ele><time>2026-04-26T08:45:58.193Z</time></trkpt><trkpt lat="45.9267487" lon="11.6395452"><ele>1362.0</ele><time>2026-04-26T08:45:59.192Z</time></trkpt><trkpt lat="45.9267448" lon="11.6393754"><ele>1362.75</ele><time>2026-04-26T08:46:00.193Z</time></trkpt><trkpt lat="45.9267464" lon="11.6392139"><ele>1363.5</ele><time>2026-04-26T08:46:01.193Z</time></trkpt><trkpt lat="45.9267572" lon="11.6390527"><ele>1364.25</ele><time>2026-04-26T08:46:02.192Z</time></trkpt><trkpt lat="45.9267766" lon="11.6388796"><ele>1365.0</ele><time>2026-04-26T08:46:03.191Z</time></trkpt><trkpt lat="45.9268032" lon="11.6386905"><ele>1366.0</ele><time>2026-04-26T08:46:04.189Z</time></trkpt><trkpt lat="45.9268406" lon="11.6385159"><ele>1367.0</ele><time>2026-04-26T08:46:05.191Z</time></trkpt><trkpt lat="45.9268851" lon="11.6383751"><ele>1368.0</ele><time>2026-04-26T08:46:06.19Z</time></trkpt><trkpt lat="45.9269415" lon="11.6382688"><ele>1369.0</ele><time>2026-04-26T08:46:07.191Z</time></trkpt><trkpt lat="45.9270183" lon="11.6381918"><ele>1370.0</ele><time>2026-04-26T08:46:08.192Z</time></trkpt><trkpt lat="45.9272097" lon="11.6380499"><ele>1370.0</ele><time>2026-04-26T08:46:10.192Z</time></trkpt><trkpt lat="45.9272871" lon="11.6379459"><ele>1370.0</ele><time>2026-04-26T08:46:11.198Z</time></trkpt><trkpt lat="45.9273509" lon="11.6378156"><ele>1370.0</ele><time>2026-04-26T08:46:12.194Z</time></trkpt><trkpt lat="45.9273969" lon="11.6376627"><ele>1370.0</ele><time>2026-04-26T08:46:13.194Z</time></trkpt><trkpt lat="45.927429" lon="11.6374987"><ele>1371.0</ele><time>2026-04-26T08:46:14.195Z</time></trkpt><trkpt lat="45.9274484" lon="11.6373365"><ele>1372.0</ele><time>2026-04-26T08:46:15.194Z</time></trkpt><trkpt lat="45.9274589" lon="11.6371833"><ele>1373.0</ele><time>2026-04-26T08:46:16.192Z</time></trkpt><trkpt lat="45.9274755" lon="11.6370387"><ele>1374.0</ele><time>2026-04-26T08:46:17.198Z</time></trkpt><trkpt lat="45.9275125" lon="11.6369097"><ele>1375.0</ele><time>2026-04-26T08:46:18.192Z</time></trkpt><trkpt lat="45.9275769" lon="11.6367945"><ele>1372.4</ele><time>2026-04-26T08:46:19.192Z</time></trkpt><trkpt lat="45.9276569" lon="11.636705"><ele>1369.8</ele><time>2026-04-26T08:46:20.195Z</time></trkpt><trkpt lat="45.9277369" lon="11.6366025"><ele>1367.1999999999998</ele><time>2026-04-26T08:46:21.192Z</time></trkpt><trkpt lat="45.9278105" lon="11.6364763"><ele>1364.6</ele><time>2026-04-26T08:46:22.194Z</time></trkpt><trkpt lat="45.9278733" lon="11.6363477"><ele>1362.0</ele><time>2026-04-26T08:46:23.194Z</time></trkpt><trkpt lat="45.9279264" lon="11.6362175"><ele>1362.3999999999999</ele><time>2026-04-26T08:46:24.192Z</time></trkpt><trkpt lat="45.9279648" lon="11.636085"><ele>1362.8</ele><time>2026-04-26T08:46:25.193Z</time></trkpt><trkpt lat="45.9279891" lon="11.6359419"><ele>1363.2</ele><time>2026-04-26T08:46:26.191Z</time></trkpt><trkpt lat="45.928013" lon="11.6357823"><ele>1363.6</ele><time>2026-04-26T08:46:27.191Z</time></trkpt><trkpt lat="45.9280294" lon="11.635606"><ele>1364.0</ele><time>2026-04-26T08:46:28.19Z</time></trkpt><trkpt lat="45.9280524" lon="11.6354119"><ele>1365.6666666666667</ele><time>2026-04-26T08:46:29.19Z</time></trkpt><trkpt lat="45.9281044" lon="11.6350378"><ele>1367.3333333333333</ele><time>2026-04-26T08:46:31.19Z</time></trkpt><trkpt lat="45.928132" lon="11.6348612"><ele>1369.0</ele><time>2026-04-26T08:46:32.191Z</time></trkpt><trkpt lat="45.9281758" lon="11.6346855"><ele>1369.0</ele><time>2026-04-26T08:46:33.189Z</time></trkpt><trkpt lat="45.9282117" lon="11.634573"><ele>1369.0</ele><time>2026-04-26T08:46:33.799Z</time></trkpt><trkpt lat="45.9283031" lon="11.6343451"><ele>1369.0</ele><time>2026-04-26T08:46:35.191Z</time></trkpt><trkpt lat="45.9283818" lon="11.6342029"><ele>1369.0</ele><time>2026-04-26T08:46:36.188Z</time></trkpt><trkpt lat="45.9284624" lon="11.6340716"><ele>1369.25</ele><time>2026-04-26T08:46:37.19Z</time></trkpt><trkpt lat="45.9285423" lon="11.6339443"><ele>1369.5</ele><time>2026-04-26T08:46:38.19Z</time></trkpt><trkpt lat="45.928621" lon="11.6338108"><ele>1369.75</ele><time>2026-04-26T08:46:39.191Z</time></trkpt><trkpt lat="45.9287129" lon="11.633671"><ele>1370.0</ele><time>2026-04-26T08:46:40.19Z</time></trkpt><trkpt lat="45.9288258" lon="11.633538"><ele>1370.0</ele><time>2026-04-26T08:46:41.19Z</time></trkpt><trkpt lat="45.9289473" lon="11.6334005"><ele>1370.0</ele><time>2026-04-26T08:46:42.189Z</time></trkpt><trkpt lat="45.9290653" lon="11.6332762"><ele>1370.0</ele><time>2026-04-26T08:46:43.19Z</time></trkpt><trkpt lat="45.9291708" lon="11.633158"><ele>1370.0</ele><time>2026-04-26T08:46:44.19Z</time></trkpt><trkpt lat="45.929267" lon="11.6330363"><ele>1368.25</ele><time>2026-04-26T08:46:45.19Z</time></trkpt><trkpt lat="45.9293675" lon="11.6329095"><ele>1366.5</ele><time>2026-04-26T08:46:46.188Z</time></trkpt><trkpt lat="45.9294774" lon="11.6327776"><ele>1364.75</ele><time>2026-04-26T08:46:47.19Z</time></trkpt><trkpt lat="45.9295984" lon="11.6326397"><ele>1363.0</ele><time>2026-04-26T08:46:48.189Z</time></trkpt><trkpt lat="45.9297254" lon="11.6324945"><ele>1363.0</ele><time>2026-04-26T08:46:49.188Z</time></trkpt><trkpt lat="45.9298557" lon="11.6323602"><ele>1363.0</ele><time>2026-04-26T08:46:50.189Z</time></trkpt><trkpt lat="45.9301121" lon="11.632109"><ele>1364.5</ele><time>2026-04-26T08:46:52.189Z</time></trkpt><trkpt lat="45.9302402" lon="11.6320022"><ele>1366.0</ele><time>2026-04-26T08:46:53.187Z</time></trkpt><trkpt lat="45.9303673" lon="11.6319066"><ele>1367.5</ele><time>2026-04-26T08:46:54.186Z</time></trkpt><trkpt lat="45.9304953" lon="11.6318207"><ele>1369.0</ele><time>2026-04-26T08:46:55.187Z</time></trkpt><trkpt lat="45.9306234" lon="11.6317435"><ele>1369.0</ele><time>2026-04-26T08:46:56.19Z</time></trkpt><trkpt lat="45.9307519" lon="11.6316645"><ele>1369.0</ele><time>2026-04-26T08:46:57.19Z</time></trkpt><trkpt lat="45.9308775" lon="11.6315831"><ele>1369.0</ele><time>2026-04-26T08:46:58.191Z</time></trkpt><trkpt lat="45.9309994" lon="11.6315046"><ele>1369.0</ele><time>2026-04-26T08:46:59.19Z</time></trkpt><trkpt lat="45.931129" lon="11.6314304"><ele>1365.0</ele><time>2026-04-26T08:47:00.191Z</time></trkpt><trkpt lat="45.9312604" lon="11.6313681"><ele>1361.0</ele><time>2026-04-26T08:47:01.19Z</time></trkpt><trkpt lat="45.931385" lon="11.631315"><ele>1357.0</ele><time>2026-04-26T08:47:02.191Z</time></trkpt><trkpt lat="45.9315055" lon="11.6312602"><ele>1353.0</ele><time>2026-04-26T08:47:03.189Z</time></trkpt><trkpt lat="45.9316198" lon="11.6311978"><ele>1354.75</ele><time>2026-04-26T08:47:04.189Z</time></trkpt><trkpt lat="45.9317262" lon="11.6311291"><ele>1356.5</ele><time>2026-04-26T08:47:05.192Z</time></trkpt><trkpt lat="45.9318328" lon="11.6310589"><ele>1358.25</ele><time>2026-04-26T08:47:06.194Z</time></trkpt><trkpt lat="45.9319399" lon="11.6309826"><ele>1360.0</ele><time>2026-04-26T08:47:07.193Z</time></trkpt><trkpt lat="45.9320438" lon="11.6308992"><ele>1360.0</ele><time>2026-04-26T08:47:08.19Z</time></trkpt><trkpt lat="45.932145" lon="11.6308072"><ele>1360.0</ele><time>2026-04-26T08:47:09.191Z</time></trkpt><trkpt lat="45.9322436" lon="11.630706"><ele>1360.0</ele><time>2026-04-26T08:47:10.192Z</time></trkpt><trkpt lat="45.9323342" lon="11.6306028"><ele>1360.0</ele><time>2026-04-26T08:47:11.191Z</time></trkpt><trkpt lat="45.9325292" lon="11.630418"><ele>1356.8</ele><time>2026-04-26T08:47:13.19Z</time></trkpt><trkpt lat="45.932632" lon="11.6303435"><ele>1353.6</ele><time>2026-04-26T08:47:14.191Z</time></trkpt><trkpt lat="45.932725" lon="11.6302611"><ele>1350.4</ele><time>2026-04-26T08:47:15.192Z</time></trkpt><trkpt lat="45.9328049" lon="11.630163"><ele>1347.2</ele><time>2026-04-26T08:47:16.192Z</time></trkpt><trkpt lat="45.9328818" lon="11.630069"><ele>1344.0</ele><time>2026-04-26T08:47:17.191Z</time></trkpt><trkpt lat="45.9329645" lon="11.6299972"><ele>1350.4</ele><time>2026-04-26T08:47:18.188Z</time></trkpt><trkpt lat="45.9330628" lon="11.6299552"><ele>1356.8000000000002</ele><time>2026-04-26T08:47:19.189Z</time></trkpt><trkpt lat="45.9331755" lon="11.6299452"><ele>1363.1999999999998</ele><time>2026-04-26T08:47:20.189Z</time></trkpt><trkpt lat="45.9332821" lon="11.6299608"><ele>1369.6</ele><time>2026-04-26T08:47:21.19Z</time></trkpt><trkpt lat="45.9333856" lon="11.6299826"><ele>1376.0</ele><time>2026-04-26T08:47:22.19Z</time></trkpt><trkpt lat="45.9334961" lon="11.6300092"><ele>1377.1999999999998</ele><time>2026-04-26T08:47:23.192Z</time></trkpt><trkpt lat="45.9336087" lon="11.6300557"><ele>1378.3999999999999</ele><time>2026-04-26T08:47:24.19Z</time></trkpt><trkpt lat="45.9337104" lon="11.6301158"><ele>1379.6</ele><time>2026-04-26T08:47:25.19Z</time></trkpt><trkpt lat="45.9338082" lon="11.6301729"><ele>1380.8</ele><time>2026-04-26T08:47:26.192Z</time></trkpt><trkpt lat="45.93391" lon="11.6302238"><ele>1382.0</ele><time>2026-04-26T08:47:27.191Z</time></trkpt><trkpt lat="45.9340118" lon="11.6302692"><ele>1372.75</ele><time>2026-04-26T08:47:28.19Z</time></trkpt><trkpt lat="45.934123" lon="11.6303083"><ele>1363.5</ele><time>2026-04-26T08:47:29.192Z</time></trkpt><trkpt lat="45.934243" lon="11.630325"><ele>1354.25</ele><time>2026-04-26T08:47:30.192Z</time></trkpt><trkpt lat="45.9343616" lon="11.6303246"><ele>1345.0</ele><time>2026-04-26T08:47:31.19Z</time></trkpt><trkpt lat="45.9344729" lon="11.6303156"><ele>1356.0</ele><time>2026-04-26T08:47:32.19Z</time></trkpt><trkpt lat="45.9347139" lon="11.6302895"><ele>1367.0</ele><time>2026-04-26T08:47:34.19Z</time></trkpt><trkpt lat="45.9348337" lon="11.6302609"><ele>1378.0</ele><time>2026-04-26T08:47:35.19Z</time></trkpt><trkpt lat="45.9349565" lon="11.6302162"><ele>1374.5</ele><time>2026-04-26T08:47:36.19Z</time></trkpt><trkpt lat="45.9350841" lon="11.6301648"><ele>1371.0</ele><time>2026-04-26T08:47:37.192Z</time></trkpt><trkpt lat="45.9352089" lon="11.6301168"><ele>1367.5</ele><time>2026-04-26T08:47:38.192Z</time></trkpt><trkpt lat="45.9353313" lon="11.6300714"><ele>1364.0</ele><time>2026-04-26T08:47:39.192Z</time></trkpt><trkpt lat="45.9354485" lon="11.6300253"><ele>1364.0</ele><time>2026-04-26T08:47:40.191Z</time></trkpt><trkpt lat="45.9355582" lon="11.6299766"><ele>1364.0</ele><time>2026-04-26T08:47:41.191Z</time></trkpt><trkpt lat="45.9356609" lon="11.6299258"><ele>1364.0</ele><time>2026-04-26T08:47:42.19Z</time></trkpt><trkpt lat="45.9357557" lon="11.6298666"><ele>1364.0</ele><time>2026-04-26T08:47:43.188Z</time></trkpt><trkpt lat="45.9358416" lon="11.6297931"><ele>1364.0</ele><time>2026-04-26T08:47:44.189Z</time></trkpt><trkpt lat="45.935925" lon="11.6296995"><ele>1364.25</ele><time>2026-04-26T08:47:45.189Z</time></trkpt><trkpt lat="45.9360142" lon="11.6295962"><ele>1364.5</ele><time>2026-04-26T08:47:46.193Z</time></trkpt><trkpt lat="45.9361143" lon="11.6295041"><ele>1364.75</ele><time>2026-04-26T08:47:47.191Z</time></trkpt><trkpt lat="45.9362208" lon="11.6294245"><ele>1365.0</ele><time>2026-04-26T08:47:48.193Z</time></trkpt><trkpt lat="45.9363329" lon="11.6293292"><ele>1365.0</ele><time>2026-04-26T08:47:49.193Z</time></trkpt><trkpt lat="45.9364436" lon="11.6292131"><ele>1365.0</ele><time>2026-04-26T08:47:50.193Z</time></trkpt><trkpt lat="45.936547" lon="11.6290949"><ele>1365.0</ele><time>2026-04-26T08:47:51.192Z</time></trkpt><trkpt lat="45.9366466" lon="11.6289833"><ele>1365.0</ele><time>2026-04-26T08:47:52.191Z</time></trkpt><trkpt lat="45.9367434" lon="11.6288778"><ele>1364.3333333333333</ele><time>2026-04-26T08:47:53.192Z</time></trkpt><trkpt lat="45.9369276" lon="11.6286681"><ele>1363.6666666666665</ele><time>2026-04-26T08:47:55.191Z</time></trkpt><trkpt lat="45.9370299" lon="11.6285744"><ele>1363.0</ele><time>2026-04-26T08:47:56.192Z</time></trkpt><trkpt lat="45.9371358" lon="11.6285135"><ele>1363.0</ele><time>2026-04-26T08:47:57.193Z</time></trkpt><trkpt lat="45.9372399" lon="11.6284692"><ele>1363.0</ele><time>2026-04-26T08:47:58.193Z</time></trkpt><trkpt lat="45.9373358" lon="11.6284154"><ele>1363.0</ele><time>2026-04-26T08:47:59.191Z</time></trkpt><trkpt lat="45.9374272" lon="11.6283429"><ele>1363.0</ele><time>2026-04-26T08:48:00.192Z</time></trkpt><trkpt lat="45.9375064" lon="11.6282538"><ele>1363.0</ele><time>2026-04-26T08:48:01.189Z</time></trkpt><trkpt lat="45.9375738" lon="11.6281524"><ele>1355.75</ele><time>2026-04-26T08:48:02.194Z</time></trkpt><trkpt lat="45.9376312" lon="11.6280371"><ele>1348.5</ele><time>2026-04-26T08:48:03.19Z</time></trkpt><trkpt lat="45.937682" lon="11.6278962"><ele>1341.25</ele><time>2026-04-26T08:48:04.19Z</time></trkpt><trkpt lat="45.9377307" lon="11.627733"><ele>1334.0</ele><time>2026-04-26T08:48:05.191Z</time></trkpt><trkpt lat="45.9377769" lon="11.627567"><ele>1334.0</ele><time>2026-04-26T08:48:06.191Z</time></trkpt><trkpt lat="45.937811" lon="11.627406"><ele>1334.0</ele><time>2026-04-26T08:48:07.19Z</time></trkpt><trkpt lat="45.937834" lon="11.6272528"><ele>1334.0</ele><time>2026-04-26T08:48:08.191Z</time></trkpt><trkpt lat="45.9378472" lon="11.6271041"><ele>1334.0</ele><time>2026-04-26T08:48:09.189Z</time></trkpt><trkpt lat="45.9378531" lon="11.6269589"><ele>1334.0</ele><time>2026-04-26T08:48:10.193Z</time></trkpt><trkpt lat="45.937856" lon="11.6268082"><ele>1334.75</ele><time>2026-04-26T08:48:11.192Z</time></trkpt><trkpt lat="45.9378552" lon="11.6266485"><ele>1335.5</ele><time>2026-04-26T08:48:12.191Z</time></trkpt><trkpt lat="45.9378494" lon="11.6264821"><ele>1336.25</ele><time>2026-04-26T08:48:13.19Z</time></trkpt><trkpt lat="45.9378407" lon="11.6263059"><ele>1337.0</ele><time>2026-04-26T08:48:14.189Z</time></trkpt><trkpt lat="45.9378211" lon="11.6259492"><ele>1337.25</ele><time>2026-04-26T08:48:16.19Z</time></trkpt><trkpt lat="45.9378207" lon="11.6257836"><ele>1337.5</ele><time>2026-04-26T08:48:17.192Z</time></trkpt><trkpt lat="45.9378216" lon="11.6256193"><ele>1337.75</ele><time>2026-04-26T08:48:18.188Z</time></trkpt><trkpt lat="45.9378029" lon="11.6254627"><ele>1338.0</ele><time>2026-04-26T08:48:19.188Z</time></trkpt><trkpt lat="45.9377806" lon="11.6253054"><ele>1339.2</ele><time>2026-04-26T08:48:20.19Z</time></trkpt><trkpt lat="45.9377602" lon="11.6251507"><ele>1340.4</ele><time>2026-04-26T08:48:21.192Z</time></trkpt><trkpt lat="45.9377477" lon="11.6249936"><ele>1341.6000000000001</ele><time>2026-04-26T08:48:22.189Z</time></trkpt><trkpt lat="45.9377453" lon="11.6248299"><ele>1342.8000000000002</ele><time>2026-04-26T08:48:23.189Z</time></trkpt><trkpt lat="45.9377546" lon="11.6247295"><ele>1344.0</ele><time>2026-04-26T08:48:23.799Z</time></trkpt><trkpt lat="45.9377852" lon="11.6245041"><ele>1345.0</ele><time>2026-04-26T08:48:25.19Z</time></trkpt><trkpt lat="45.9378208" lon="11.6243488"><ele>1346.0</ele><time>2026-04-26T08:48:26.189Z</time></trkpt><trkpt lat="45.9378526" lon="11.6242102"><ele>1347.0</ele><time>2026-04-26T08:48:27.19Z</time></trkpt><trkpt lat="45.9378963" lon="11.6240693"><ele>1348.0</ele><time>2026-04-26T08:48:28.19Z</time></trkpt><trkpt lat="45.9379494" lon="11.6239194"><ele>1349.0</ele><time>2026-04-26T08:48:29.19Z</time></trkpt><trkpt lat="45.9380109" lon="11.623764"><ele>1352.25</ele><time>2026-04-26T08:48:30.189Z</time></trkpt><trkpt lat="45.9380761" lon="11.6236071"><ele>1355.5</ele><time>2026-04-26T08:48:31.188Z</time></trkpt><trkpt lat="45.9381469" lon="11.6234468"><ele>1358.75</ele><time>2026-04-26T08:48:32.186Z</time></trkpt><trkpt lat="45.9382213" lon="11.6232941"><ele>1362.0</ele><time>2026-04-26T08:48:33.188Z</time></trkpt><trkpt lat="45.9382943" lon="11.6231406"><ele>1362.0</ele><time>2026-04-26T08:48:34.186Z</time></trkpt><trkpt lat="45.9383726" lon="11.6229907"><ele>1362.0</ele><time>2026-04-26T08:48:35.188Z</time></trkpt><trkpt lat="45.9385371" lon="11.6226959"><ele>1362.0</ele><time>2026-04-26T08:48:37.19Z</time></trkpt><trkpt lat="45.9386179" lon="11.622556"><ele>1358.6</ele><time>2026-04-26T08:48:38.191Z</time></trkpt><trkpt lat="45.9386924" lon="11.6224239"><ele>1355.1999999999998</ele><time>2026-04-26T08:48:39.19Z</time></trkpt><trkpt lat="45.9387695" lon="11.6223054"><ele>1351.8</ele><time>2026-04-26T08:48:40.19Z</time></trkpt><trkpt lat="45.9388496" lon="11.6221974"><ele>1348.4</ele><time>2026-04-26T08:48:41.192Z</time></trkpt><trkpt lat="45.9389291" lon="11.6220962"><ele>1345.0</ele><time>2026-04-26T08:48:42.192Z</time></trkpt><trkpt lat="45.9390094" lon="11.621985"><ele>1344.0</ele><time>2026-04-26T08:48:43.191Z</time></trkpt><trkpt lat="45.9390851" lon="11.6218642"><ele>1343.0</ele><time>2026-04-26T08:48:44.191Z</time></trkpt><trkpt lat="45.9391562" lon="11.6217447"><ele>1342.0</ele><time>2026-04-26T08:48:45.189Z</time></trkpt><trkpt lat="45.9392221" lon="11.621627"><ele>1341.0</ele><time>2026-04-26T08:48:46.19Z</time></trkpt><trkpt lat="45.939273" lon="11.6215304"><ele>1340.0</ele><time>2026-04-26T08:48:46.994Z</time></trkpt><trkpt lat="45.9393459" lon="11.6213732"><ele>1340.0</ele><time>2026-04-26T08:48:48.192Z</time></trkpt><trkpt lat="45.9394011" lon="11.6212418"><ele>1340.0</ele><time>2026-04-26T08:48:49.19Z</time></trkpt><trkpt lat="45.9394494" lon="11.6211099"><ele>1340.0</ele><time>2026-04-26T08:48:50.192Z</time></trkpt><trkpt lat="45.9394968" lon="11.6209792"><ele>1340.0</ele><time>2026-04-26T08:48:51.19Z</time></trkpt><trkpt lat="45.9395474" lon="11.6208531"><ele>1340.0</ele><time>2026-04-26T08:48:52.191Z</time></trkpt><trkpt lat="45.9396089" lon="11.6207369"><ele>1340.75</ele><time>2026-04-26T08:48:53.192Z</time></trkpt><trkpt lat="45.9396859" lon="11.6206436"><ele>1341.5</ele><time>2026-04-26T08:48:54.19Z</time></trkpt><trkpt lat="45.9397694" lon="11.6205723"><ele>1342.25</ele><time>2026-04-26T08:48:55.189Z</time></trkpt><trkpt lat="45.9398505" lon="11.620504"><ele>1343.0</ele><time>2026-04-26T08:48:56.191Z</time></trkpt><trkpt lat="45.9399599" lon="11.6203333"><ele>1343.8000000000002</ele><time>2026-04-26T08:48:58.19Z</time></trkpt><trkpt lat="45.9399744" lon="11.6202159"><ele>1344.6</ele><time>2026-04-26T08:48:59.193Z</time></trkpt><trkpt lat="45.939977" lon="11.6200802"><ele>1345.4</ele><time>2026-04-26T08:49:00.192Z</time></trkpt><trkpt lat="45.9399744" lon="11.6199327"><ele>1346.1999999999998</ele><time>2026-04-26T08:49:01.193Z</time></trkpt><trkpt lat="45.9399693" lon="11.6197767"><ele>1347.0</ele><time>2026-04-26T08:49:02.193Z</time></trkpt><trkpt lat="45.9399673" lon="11.619624"><ele>1347.1666666666667</ele><time>2026-04-26T08:49:03.19Z</time></trkpt><trkpt lat="45.9399662" lon="11.619478"><ele>1347.3333333333333</ele><time>2026-04-26T08:49:04.192Z</time></trkpt><trkpt lat="45.9399654" lon="11.6193432"><ele>1347.5</ele><time>2026-04-26T08:49:05.195Z</time></trkpt><trkpt lat="45.9399636" lon="11.6192204"><ele>1347.6666666666665</ele><time>2026-04-26T08:49:06.192Z</time></trkpt><trkpt lat="45.9399622" lon="11.6191082"><ele>1347.8333333333333</ele><time>2026-04-26T08:49:07.191Z</time></trkpt><trkpt lat="45.939961" lon="11.619002"><ele>1348.0</ele><time>2026-04-26T08:49:08.193Z</time></trkpt><trkpt lat="45.939959" lon="11.6188966"><ele>1348.0</ele><time>2026-04-26T08:49:09.192Z</time></trkpt><trkpt lat="45.939955" lon="11.6187794"><ele>1348.0</ele><time>2026-04-26T08:49:10.191Z</time></trkpt><trkpt lat="45.9399487" lon="11.6186452"><ele>1348.0</ele><time>2026-04-26T08:49:11.193Z</time></trkpt><trkpt lat="45.939941" lon="11.6185012"><ele>1348.0</ele><time>2026-04-26T08:49:12.193Z</time></trkpt><trkpt lat="45.9399335" lon="11.6183556"><ele>1348.0</ele><time>2026-04-26T08:49:13.193Z</time></trkpt><trkpt lat="45.9399269" lon="11.6182184"><ele>1346.6000000000001</ele><time>2026-04-26T08:49:14.193Z</time></trkpt><trkpt lat="45.9399225" lon="11.6180901"><ele>1345.2</ele><time>2026-04-26T08:49:15.192Z</time></trkpt><trkpt lat="45.9399183" lon="11.6179688"><ele>1343.8</ele><time>2026-04-26T08:49:16.193Z</time></trkpt><trkpt lat="45.9399138" lon="11.6178455"><ele>1342.4</ele><time>2026-04-26T08:49:17.193Z</time></trkpt><trkpt lat="45.939893" lon="11.6175878"><ele>1341.0</ele><time>2026-04-26T08:49:19.191Z</time></trkpt><trkpt lat="45.9398783" lon="11.617454"><ele>1341.1999999999998</ele><time>2026-04-26T08:49:20.191Z</time></trkpt><trkpt lat="45.9398643" lon="11.617316"><ele>1341.3999999999999</ele><time>2026-04-26T08:49:21.191Z</time></trkpt><trkpt lat="45.9398511" lon="11.6171761"><ele>1341.6</ele><time>2026-04-26T08:49:22.191Z</time></trkpt><trkpt lat="45.9398422" lon="11.6170506"><ele>1341.8</ele><time>2026-04-26T08:49:23.192Z</time></trkpt><trkpt lat="45.9398465" lon="11.6169485"><ele>1342.0</ele><time>2026-04-26T08:49:24.192Z</time></trkpt><trkpt lat="45.9398707" lon="11.6167801"><ele>1342.0</ele><time>2026-04-26T08:49:26.193Z</time></trkpt><trkpt lat="45.9398996" lon="11.6166472"><ele>1342.0</ele><time>2026-04-26T08:49:28.194Z</time></trkpt><trkpt lat="45.9399168" lon="11.6165271"><ele>1342.0</ele><time>2026-04-26T08:49:30.193Z</time></trkpt><trkpt lat="45.9399468" lon="11.6163505"><ele>1342.0</ele><time>2026-04-26T08:49:32.194Z</time></trkpt><trkpt lat="45.9399739" lon="11.6162344"><ele>1342.0</ele><time>2026-04-26T08:49:33.194Z</time></trkpt><trkpt lat="45.9400038" lon="11.6160925"><ele>1343.0</ele><time>2026-04-26T08:49:34.193Z</time></trkpt><trkpt lat="45.9400349" lon="11.6159298"><ele>1344.0</ele><time>2026-04-26T08:49:35.193Z</time></trkpt><trkpt lat="45.9400681" lon="11.6157533"><ele>1345.0</ele><time>2026-04-26T08:49:36.191Z</time></trkpt><trkpt lat="45.9401012" lon="11.6155752"><ele>1346.0</ele><time>2026-04-26T08:49:37.193Z</time></trkpt><trkpt lat="45.9401354" lon="11.6154051"><ele>1341.0</ele><time>2026-04-26T08:49:38.194Z</time></trkpt><trkpt lat="45.940201" lon="11.6150926"><ele>1336.0</ele><time>2026-04-26T08:49:40.196Z</time></trkpt><trkpt lat="45.9402308" lon="11.6149433"><ele>1331.0</ele><time>2026-04-26T08:49:41.195Z</time></trkpt><trkpt lat="45.9402583" lon="11.6147972"><ele>1326.0</ele><time>2026-04-26T08:49:42.193Z</time></trkpt><trkpt lat="45.940285" lon="11.614654"><ele>1326.0</ele><time>2026-04-26T08:49:43.193Z</time></trkpt><trkpt lat="45.9403119" lon="11.6145121"><ele>1326.0</ele><time>2026-04-26T08:49:44.191Z</time></trkpt><trkpt lat="45.9403373" lon="11.6143715"><ele>1326.0</ele><time>2026-04-26T08:49:45.191Z</time></trkpt><trkpt lat="45.9403596" lon="11.6142322"><ele>1326.0</ele><time>2026-04-26T08:49:46.191Z</time></trkpt><trkpt lat="45.9403663" lon="11.6140946"><ele>1326.0</ele><time>2026-04-26T08:49:47.192Z</time></trkpt><trkpt lat="45.9403534" lon="11.6139606"><ele>1324.8</ele><time>2026-04-26T08:49:48.193Z</time></trkpt><trkpt lat="45.9403309" lon="11.6138293"><ele>1323.6</ele><time>2026-04-26T08:49:49.192Z</time></trkpt><trkpt lat="45.9403107" lon="11.6136964"><ele>1322.4</ele><time>2026-04-26T08:49:50.195Z</time></trkpt><trkpt lat="45.9402915" lon="11.6135643"><ele>1321.2</ele><time>2026-04-26T08:49:51.194Z</time></trkpt><trkpt lat="45.940274" lon="11.6134307"><ele>1320.0</ele><time>2026-04-26T08:49:52.194Z</time></trkpt><trkpt lat="45.9402587" lon="11.613295"><ele>1319.6666666666667</ele><time>2026-04-26T08:49:53.195Z</time></trkpt><trkpt lat="45.9402537" lon="11.6131591"><ele>1319.3333333333333</ele><time>2026-04-26T08:49:54.191Z</time></trkpt><trkpt lat="45.9402635" lon="11.6130254"><ele>1319.0</ele><time>2026-04-26T08:49:55.192Z</time></trkpt><trkpt lat="45.9402636" lon="11.6129048"><ele>1318.6666666666665</ele><time>2026-04-26T08:49:56.195Z</time></trkpt><trkpt lat="45.9402368" lon="11.6128094"><ele>1318.3333333333333</ele><time>2026-04-26T08:49:57.193Z</time></trkpt><trkpt lat="45.9401832" lon="11.6127399"><ele>1318.0</ele><time>2026-04-26T08:49:58.192Z</time></trkpt><trkpt lat="45.9401156" lon="11.6126831"><ele>1321.25</ele><time>2026-04-26T08:49:59.192Z</time></trkpt><trkpt lat="45.9399895" lon="11.6124883"><ele>1324.5</ele><time>2026-04-26T08:50:01.192Z</time></trkpt><trkpt lat="45.9399504" lon="11.6123617"><ele>1327.75</ele><time>2026-04-26T08:50:02.194Z</time></trkpt><trkpt lat="45.9399219" lon="11.6122438"><ele>1331.0</ele><time>2026-04-26T08:50:03.194Z</time></trkpt><trkpt lat="45.9399085" lon="11.6121258"><ele>1331.0</ele><time>2026-04-26T08:50:04.192Z</time></trkpt><trkpt lat="45.9399168" lon="11.612005"><ele>1331.0</ele><time>2026-04-26T08:50:05.192Z</time></trkpt><trkpt lat="45.9399374" lon="11.6118783"><ele>1331.0</ele><time>2026-04-26T08:50:06.191Z</time></trkpt><trkpt lat="45.9399653" lon="11.6117386"><ele>1331.0</ele><time>2026-04-26T08:50:07.191Z</time></trkpt><trkpt lat="45.9400041" lon="11.6115957"><ele>1331.0</ele><time>2026-04-26T08:50:08.192Z</time></trkpt><trkpt lat="45.9400594" lon="11.6114629"><ele>1326.75</ele><time>2026-04-26T08:50:09.192Z</time></trkpt><trkpt lat="45.9401251" lon="11.6113411"><ele>1322.5</ele><time>2026-04-26T08:50:10.189Z</time></trkpt><trkpt lat="45.9401966" lon="11.6112151"><ele>1318.25</ele><time>2026-04-26T08:50:11.191Z</time></trkpt><trkpt lat="45.9402809" lon="11.611076"><ele>1314.0</ele><time>2026-04-26T08:50:12.192Z</time></trkpt><trkpt lat="45.9403841" lon="11.610924"><ele>1314.0</ele><time>2026-04-26T08:50:13.193Z</time></trkpt><trkpt lat="45.9404919" lon="11.6107816"><ele>1314.0</ele><time>2026-04-26T08:50:14.193Z</time></trkpt><trkpt lat="45.9405948" lon="11.6106517"><ele>1314.0</ele><time>2026-04-26T08:50:15.193Z</time></trkpt><trkpt lat="45.9406931" lon="11.6105297"><ele>1314.0</ele><time>2026-04-26T08:50:16.193Z</time></trkpt><trkpt lat="45.9407828" lon="11.6104231"><ele>1314.0</ele><time>2026-04-26T08:50:17.194Z</time></trkpt><trkpt lat="45.9408565" lon="11.6103338"><ele>1314.0</ele><time>2026-04-26T08:50:18.194Z</time></trkpt><trkpt lat="45.9409169" lon="11.6102536"><ele>1314.0</ele><time>2026-04-26T08:50:19.193Z</time></trkpt><trkpt lat="45.9409736" lon="11.6101785"><ele>1314.0</ele><time>2026-04-26T08:50:20.194Z</time></trkpt><trkpt lat="45.9411276" lon="11.6100067"><ele>1314.5</ele><time>2026-04-26T08:50:23.195Z</time></trkpt><trkpt lat="45.9411925" lon="11.609977"><ele>1315.0</ele><time>2026-04-26T08:50:24.194Z</time></trkpt><trkpt lat="45.9412572" lon="11.6099845"><ele>1315.5</ele><time>2026-04-26T08:50:25.192Z</time></trkpt><trkpt lat="45.9413224" lon="11.6100252"><ele>1316.0</ele><time>2026-04-26T08:50:26.192Z</time></trkpt><trkpt lat="45.9413835" lon="11.6101044"><ele>1316.5</ele><time>2026-04-26T08:50:27.193Z</time></trkpt><trkpt lat="45.9414458" lon="11.6102137"><ele>1317.0</ele><time>2026-04-26T08:50:28.191Z</time></trkpt><trkpt lat="45.9415065" lon="11.6103264"><ele>1317.0</ele><time>2026-04-26T08:50:29.193Z</time></trkpt><trkpt lat="45.9415627" lon="11.6104218"><ele>1317.0</ele><time>2026-04-26T08:50:30.194Z</time></trkpt><trkpt lat="45.9416086" lon="11.6105038"><ele>1317.0</ele><time>2026-04-26T08:50:31.193Z</time></trkpt><trkpt lat="45.9416543" lon="11.6105721"><ele>1317.0</ele><time>2026-04-26T08:50:32.194Z</time></trkpt><trkpt lat="45.9417153" lon="11.6106198"><ele>1317.0</ele><time>2026-04-26T08:50:33.19Z</time></trkpt><trkpt lat="45.9417917" lon="11.6106544"><ele>1317.0</ele><time>2026-04-26T08:50:34.191Z</time></trkpt><trkpt lat="45.9418637" lon="11.6106954"><ele>1316.6666666666667</ele><time>2026-04-26T08:50:35.19Z</time></trkpt><trkpt lat="45.9419331" lon="11.6107621"><ele>1316.3333333333333</ele><time>2026-04-26T08:50:36.192Z</time></trkpt><trkpt lat="45.941986" lon="11.6108637"><ele>1316.0</ele><time>2026-04-26T08:50:37.191Z</time></trkpt><trkpt lat="45.9420209" lon="11.6109781"><ele>1315.6666666666665</ele><time>2026-04-26T08:50:38.194Z</time></trkpt><trkpt lat="45.9420519" lon="11.611081"><ele>1315.3333333333333</ele><time>2026-04-26T08:50:39.191Z</time></trkpt><trkpt lat="45.9420796" lon="11.6111745"><ele>1315.0</ele><time>2026-04-26T08:50:40.192Z</time></trkpt><trkpt lat="45.9421066" lon="11.6112595"><ele>1315.0</ele><time>2026-04-26T08:50:41.193Z</time></trkpt><trkpt lat="45.9422566" lon="11.6114969"><ele>1315.0</ele><time>2026-04-26T08:50:45.192Z</time></trkpt><trkpt lat="45.9423381" lon="11.6115095"><ele>1315.0</ele><time>2026-04-26T08:50:46.192Z</time></trkpt><trkpt lat="45.9424278" lon="11.6115116"><ele>1315.0</ele><time>2026-04-26T08:50:47.194Z</time></trkpt><trkpt lat="45.9425148" lon="11.6115199"><ele>1316.3333333333333</ele><time>2026-04-26T08:50:48.191Z</time></trkpt><trkpt lat="45.9425955" lon="11.6115516"><ele>1317.6666666666665</ele><time>2026-04-26T08:50:49.192Z</time></trkpt><trkpt lat="45.942672" lon="11.6115984"><ele>1319.0</ele><time>2026-04-26T08:50:50.195Z</time></trkpt><trkpt lat="45.9427442" lon="11.6116571"><ele>1320.3333333333333</ele><time>2026-04-26T08:50:51.193Z</time></trkpt><trkpt lat="45.942814" lon="11.6117304"><ele>1321.6666666666667</ele><time>2026-04-26T08:50:52.193Z</time></trkpt><trkpt lat="45.9428747" lon="11.6118141"><ele>1323.0</ele><time>2026-04-26T08:50:53.194Z</time></trkpt><trkpt lat="45.9429231" lon="11.6119025"><ele>1321.6000000000001</ele><time>2026-04-26T08:50:54.195Z</time></trkpt><trkpt lat="45.942956" lon="11.6119931"><ele>1320.2</ele><time>2026-04-26T08:50:55.193Z</time></trkpt><trkpt lat="45.9429759" lon="11.612083"><ele>1318.8</ele><time>2026-04-26T08:50:56.192Z</time></trkpt><trkpt lat="45.943002" lon="11.6122583"><ele>1317.4</ele><time>2026-04-26T08:50:58.19Z</time></trkpt><trkpt lat="45.9430217" lon="11.6124167"><ele>1316.0</ele><time>2026-04-26T08:51:00.19Z</time></trkpt><trkpt lat="45.9430697" lon="11.6125324"><ele>1316.0</ele><time>2026-04-26T08:51:02.192Z</time></trkpt><trkpt lat="45.9432399" lon="11.6126058"><ele>1316.0</ele><time>2026-04-26T08:51:05.196Z</time></trkpt><trkpt lat="45.9433153" lon="11.6125994"><ele>1316.0</ele><time>2026-04-26T08:51:06.195Z</time></trkpt><trkpt lat="45.9433854" lon="11.6125955"><ele>1316.0</ele><time>2026-04-26T08:51:07.194Z</time></trkpt><trkpt lat="45.9434542" lon="11.6126013"><ele>1316.0</ele><time>2026-04-26T08:51:08.193Z</time></trkpt><trkpt lat="45.9435306" lon="11.612622"><ele>1316.2857142857142</ele><time>2026-04-26T08:51:09.193Z</time></trkpt><trkpt lat="45.9436131" lon="11.6126483"><ele>1316.5714285714284</ele><time>2026-04-26T08:51:10.192Z</time></trkpt><trkpt lat="45.9436874" lon="11.6126622"><ele>1316.857142857143</ele><time>2026-04-26T08:51:11.194Z</time></trkpt><trkpt lat="45.943756" lon="11.6126636"><ele>1317.142857142857</ele><time>2026-04-26T08:51:12.194Z</time></trkpt><trkpt lat="45.9438199" lon="11.6126495"><ele>1317.4285714285713</ele><time>2026-04-26T08:51:13.196Z</time></trkpt><trkpt lat="45.9438819" lon="11.6126196"><ele>1317.7142857142858</ele><time>2026-04-26T08:51:14.194Z</time></trkpt><trkpt lat="45.9439409" lon="11.6125718"><ele>1318.0</ele><time>2026-04-26T08:51:15.194Z</time></trkpt><trkpt lat="45.9439963" lon="11.6124962"><ele>1318.0</ele><time>2026-04-26T08:51:16.194Z</time></trkpt><trkpt lat="45.9440457" lon="11.6123933"><ele>1318.0</ele><time>2026-04-26T08:51:17.195Z</time></trkpt><trkpt lat="45.9440854" lon="11.6122914"><ele>1318.0</ele><time>2026-04-26T08:51:18.194Z</time></trkpt><trkpt lat="45.9441183" lon="11.612197"><ele>1318.0</ele><time>2026-04-26T08:51:19.193Z</time></trkpt><trkpt lat="45.9441576" lon="11.6120983"><ele>1318.0</ele><time>2026-04-26T08:51:20.193Z</time></trkpt><trkpt lat="45.9442106" lon="11.611996"><ele>1318.0</ele><time>2026-04-26T08:51:21.192Z</time></trkpt><trkpt lat="45.9442829" lon="11.6118975"><ele>1318.0</ele><time>2026-04-26T08:51:22.192Z</time></trkpt><trkpt lat="45.9443588" lon="11.6118227"><ele>1318.0</ele><time>2026-04-26T08:51:23.192Z</time></trkpt><trkpt lat="45.9444852" lon="11.6116677"><ele>1318.0</ele><time>2026-04-26T08:51:25.19Z</time></trkpt><trkpt lat="45.944536" lon="11.6115804"><ele>1318.0</ele><time>2026-04-26T08:51:26.193Z</time></trkpt><trkpt lat="45.9445805" lon="11.6114917"><ele>1318.0</ele><time>2026-04-26T08:51:27.193Z</time></trkpt><trkpt lat="45.9446234" lon="11.6113988"><ele>1318.0</ele><time>2026-04-26T08:51:28.191Z</time></trkpt><trkpt lat="45.9446642" lon="11.61131"><ele>1318.0</ele><time>2026-04-26T08:51:29.193Z</time></trkpt><trkpt lat="45.9447192" lon="11.6111873"><ele>1318.0</ele><time>2026-04-26T08:51:31.191Z</time></trkpt><trkpt lat="45.944789" lon="11.6110592"><ele>1318.0</ele><time>2026-04-26T08:51:33.192Z</time></trkpt><trkpt lat="45.9448407" lon="11.6109692"><ele>1318.0</ele><time>2026-04-26T08:51:34.193Z</time></trkpt><trkpt lat="45.9449003" lon="11.6108576"><ele>1318.0</ele><time>2026-04-26T08:51:35.193Z</time></trkpt><trkpt lat="45.9449696" lon="11.6107277"><ele>1318.0</ele><time>2026-04-26T08:51:36.192Z</time></trkpt><trkpt lat="45.9450439" lon="11.6105917"><ele>1318.0</ele><time>2026-04-26T08:51:37.192Z</time></trkpt><trkpt lat="45.9451204" lon="11.6104713"><ele>1318.0</ele><time>2026-04-26T08:51:38.191Z</time></trkpt><trkpt lat="45.9451909" lon="11.6103685"><ele>1318.0</ele><time>2026-04-26T08:51:39.19Z</time></trkpt><trkpt lat="45.9452502" lon="11.610275"><ele>1318.0</ele><time>2026-04-26T08:51:40.191Z</time></trkpt><trkpt lat="45.9453051" lon="11.6101853"><ele>1318.0</ele><time>2026-04-26T08:51:41.194Z</time></trkpt><trkpt lat="45.9453637" lon="11.6100906"><ele>1318.0</ele><time>2026-04-26T08:51:42.191Z</time></trkpt><trkpt lat="45.9454284" lon="11.609981"><ele>1318.0</ele><time>2026-04-26T08:51:43.191Z</time></trkpt><trkpt lat="45.9454935" lon="11.6098545"><ele>1318.0</ele><time>2026-04-26T08:51:44.192Z</time></trkpt><trkpt lat="45.9456107" lon="11.609583"><ele>1318.8000000000002</ele><time>2026-04-26T08:51:46.191Z</time></trkpt><trkpt lat="45.9456632" lon="11.6094519"><ele>1319.6</ele><time>2026-04-26T08:51:47.191Z</time></trkpt><trkpt lat="45.9457141" lon="11.6093305"><ele>1320.4</ele><time>2026-04-26T08:51:48.189Z</time></trkpt><trkpt lat="45.945767" lon="11.6092171"><ele>1321.1999999999998</ele><time>2026-04-26T08:51:49.188Z</time></trkpt><trkpt lat="45.9458254" lon="11.6091127"><ele>1322.0</ele><time>2026-04-26T08:51:50.191Z</time></trkpt><trkpt lat="45.9458974" lon="11.6090147"><ele>1321.0</ele><time>2026-04-26T08:51:51.192Z</time></trkpt><trkpt lat="45.945987" lon="11.608926"><ele>1320.0</ele><time>2026-04-26T08:51:52.19Z</time></trkpt><trkpt lat="45.9460747" lon="11.6088398"><ele>1319.0</ele><time>2026-04-26T08:51:53.191Z</time></trkpt><trkpt lat="45.9461568" lon="11.6087514"><ele>1318.0</ele><time>2026-04-26T08:51:54.193Z</time></trkpt><trkpt lat="45.9462361" lon="11.6086746"><ele>1317.0</ele><time>2026-04-26T08:51:55.195Z</time></trkpt><trkpt lat="45.9463139" lon="11.6086095"><ele>1317.0</ele><time>2026-04-26T08:51:56.193Z</time></trkpt><trkpt lat="45.9463936" lon="11.6085576"><ele>1317.0</ele><time>2026-04-26T08:51:57.192Z</time></trkpt><trkpt lat="45.9464769" lon="11.6085208"><ele>1317.0</ele><time>2026-04-26T08:51:58.195Z</time></trkpt><trkpt lat="45.9465707" lon="11.6085011"><ele>1317.0</ele><time>2026-04-26T08:51:59.191Z</time></trkpt><trkpt lat="45.9466709" lon="11.6085112"><ele>1317.0</ele><time>2026-04-26T08:52:00.193Z</time></trkpt><trkpt lat="45.9467619" lon="11.6085515"><ele>1317.0</ele><time>2026-04-26T08:52:01.192Z</time></trkpt><trkpt lat="45.9468449" lon="11.6086086"><ele>1317.0</ele><time>2026-04-26T08:52:02.191Z</time></trkpt><trkpt lat="45.9469232" lon="11.6086777"><ele>1317.0</ele><time>2026-04-26T08:52:03.193Z</time></trkpt><trkpt lat="45.9470023" lon="11.6087621"><ele>1317.0</ele><time>2026-04-26T08:52:04.195Z</time></trkpt><trkpt lat="45.9470893" lon="11.6088618"><ele>1317.0</ele><time>2026-04-26T08:52:05.194Z</time></trkpt><trkpt lat="45.9472898" lon="11.6090872"><ele>1317.25</ele><time>2026-04-26T08:52:07.191Z</time></trkpt><trkpt lat="45.9473916" lon="11.6091888"><ele>1317.5</ele><time>2026-04-26T08:52:08.193Z</time></trkpt><trkpt lat="45.9474881" lon="11.6092892"><ele>1317.75</ele><time>2026-04-26T08:52:09.191Z</time></trkpt><trkpt lat="45.9475707" lon="11.6094122"><ele>1318.0</ele><time>2026-04-26T08:52:10.191Z</time></trkpt><trkpt lat="45.9476297" lon="11.6095769"><ele>1317.3333333333333</ele><time>2026-04-26T08:52:11.189Z</time></trkpt><trkpt lat="45.9476691" lon="11.6097831"><ele>1316.6666666666667</ele><time>2026-04-26T08:52:12.191Z</time></trkpt><trkpt lat="45.9477181" lon="11.6100121"><ele>1316.0</ele><time>2026-04-26T08:52:13.19Z</time></trkpt><trkpt lat="45.9477878" lon="11.6102327"><ele>1315.3333333333335</ele><time>2026-04-26T08:52:14.191Z</time></trkpt><trkpt lat="45.9478486" lon="11.610448"><ele>1314.6666666666667</ele><time>2026-04-26T08:52:15.191Z</time></trkpt><trkpt lat="45.9478838" lon="11.6106766"><ele>1314.0</ele><time>2026-04-26T08:52:16.192Z</time></trkpt><trkpt lat="45.9478913" lon="11.6109145"><ele>1314.0</ele><time>2026-04-26T08:52:17.191Z</time></trkpt><trkpt lat="45.9478865" lon="11.6111426"><ele>1314.0</ele><time>2026-04-26T08:52:18.192Z</time></trkpt><trkpt lat="45.9478898" lon="11.6113605"><ele>1314.0</ele><time>2026-04-26T08:52:19.192Z</time></trkpt><trkpt lat="45.947904" lon="11.6115616"><ele>1313.0</ele><time>2026-04-26T08:52:20.193Z</time></trkpt><trkpt lat="45.9479354" lon="11.6117415"><ele>1312.0</ele><time>2026-04-26T08:52:21.192Z</time></trkpt><trkpt lat="45.9479828" lon="11.6118988"><ele>1311.0</ele><time>2026-04-26T08:52:22.193Z</time></trkpt><trkpt lat="45.9480536" lon="11.6120271"><ele>1310.0</ele><time>2026-04-26T08:52:23.191Z</time></trkpt><trkpt lat="45.948154" lon="11.6121305"><ele>1309.0</ele><time>2026-04-26T08:52:24.192Z</time></trkpt><trkpt lat="45.9482829" lon="11.6122273"><ele>1308.0</ele><time>2026-04-26T08:52:25.192Z</time></trkpt><trkpt lat="45.9484236" lon="11.6123343"><ele>1307.0</ele><time>2026-04-26T08:52:26.195Z</time></trkpt><trkpt lat="45.9486677" lon="11.6125509"><ele>1307.0</ele><time>2026-04-26T08:52:28.192Z</time></trkpt><trkpt lat="45.9487654" lon="11.6126436"><ele>1307.0</ele><time>2026-04-26T08:52:29.193Z</time></trkpt><trkpt lat="45.9488543" lon="11.612725"><ele>1307.0</ele><time>2026-04-26T08:52:30.19Z</time></trkpt><trkpt lat="45.9489358" lon="11.612803"><ele>1307.0</ele><time>2026-04-26T08:52:31.193Z</time></trkpt><trkpt lat="45.9490035" lon="11.6128933"><ele>1307.0</ele><time>2026-04-26T08:52:32.193Z</time></trkpt><trkpt lat="45.9490429" lon="11.613003"><ele>1307.0</ele><time>2026-04-26T08:52:33.193Z</time></trkpt><trkpt lat="45.9490442" lon="11.6131169"><ele>1307.0</ele><time>2026-04-26T08:52:34.191Z</time></trkpt><trkpt lat="45.9490099" lon="11.6132158"><ele>1307.0</ele><time>2026-04-26T08:52:35.191Z</time></trkpt><trkpt lat="45.948944" lon="11.613288"><ele>1307.0</ele><time>2026-04-26T08:52:36.188Z</time></trkpt><trkpt lat="45.9488472" lon="11.6133381"><ele>1307.0</ele><time>2026-04-26T08:52:37.189Z</time></trkpt><trkpt lat="45.9487243" lon="11.6133896"><ele>1307.0</ele><time>2026-04-26T08:52:38.19Z</time></trkpt><trkpt lat="45.9485818" lon="11.6134654"><ele>1307.0</ele><time>2026-04-26T08:52:39.191Z</time></trkpt><trkpt lat="45.9484251" lon="11.6135641"><ele>1307.0</ele><time>2026-04-26T08:52:40.192Z</time></trkpt><trkpt lat="45.9482731" lon="11.6136761"><ele>1306.6666666666667</ele><time>2026-04-26T08:52:41.193Z</time></trkpt><trkpt lat="45.9481379" lon="11.6138009"><ele>1306.3333333333333</ele><time>2026-04-26T08:52:42.192Z</time></trkpt><trkpt lat="45.9480064" lon="11.6139429"><ele>1306.0</ele><time>2026-04-26T08:52:43.192Z</time></trkpt><trkpt lat="45.947879" lon="11.6140926"><ele>1306.0</ele><time>2026-04-26T08:52:44.191Z</time></trkpt><trkpt lat="45.9477617" lon="11.614243"><ele>1306.0</ele><time>2026-04-26T08:52:45.192Z</time></trkpt><trkpt lat="45.9476547" lon="11.6143903"><ele>1306.0</ele><time>2026-04-26T08:52:46.193Z</time></trkpt><trkpt lat="45.9475581" lon="11.6145269"><ele>1306.0</ele><time>2026-04-26T08:52:47.192Z</time></trkpt><trkpt lat="45.9473932" lon="11.6147707"><ele>1306.0</ele><time>2026-04-26T08:52:49.191Z</time></trkpt><trkpt lat="45.9473271" lon="11.6149039"><ele>1306.0</ele><time>2026-04-26T08:52:50.19Z</time></trkpt><trkpt lat="45.9472781" lon="11.6150609"><ele>1306.0</ele><time>2026-04-26T08:52:51.19Z</time></trkpt><trkpt lat="45.9472474" lon="11.6152361"><ele>1306.0</ele><time>2026-04-26T08:52:52.192Z</time></trkpt><trkpt lat="45.9472269" lon="11.6154095"><ele>1306.0</ele><time>2026-04-26T08:52:53.192Z</time></trkpt><trkpt lat="45.9472142" lon="11.6155654"><ele>1306.0</ele><time>2026-04-26T08:52:54.192Z</time></trkpt><trkpt lat="45.9472021" lon="11.6157057"><ele>1306.0</ele><time>2026-04-26T08:52:55.192Z</time></trkpt><trkpt lat="45.9471875" lon="11.6158376"><ele>1306.0</ele><time>2026-04-26T08:52:56.192Z</time></trkpt><trkpt lat="45.947172" lon="11.6159662"><ele>1306.0</ele><time>2026-04-26T08:52:57.191Z</time></trkpt><trkpt lat="45.9471576" lon="11.6161044"><ele>1305.6666666666665</ele><time>2026-04-26T08:52:58.192Z</time></trkpt><trkpt lat="45.9471477" lon="11.6162464"><ele>1305.3333333333333</ele><time>2026-04-26T08:52:59.191Z</time></trkpt><trkpt lat="45.947149" lon="11.6163742"><ele>1305.0</ele><time>2026-04-26T08:53:00.189Z</time></trkpt><trkpt lat="45.947165" lon="11.6164817"><ele>1304.6666666666667</ele><time>2026-04-26T08:53:01.189Z</time></trkpt><trkpt lat="45.9471945" lon="11.6165758"><ele>1304.3333333333335</ele><time>2026-04-26T08:53:02.191Z</time></trkpt><trkpt lat="45.9472479" lon="11.6166508"><ele>1304.0</ele><time>2026-04-26T08:53:03.189Z</time></trkpt><trkpt lat="45.9473231" lon="11.61671"><ele>1304.0</ele><time>2026-04-26T08:53:04.191Z</time></trkpt><trkpt lat="45.9474069" lon="11.6167564"><ele>1304.0</ele><time>2026-04-26T08:53:05.193Z</time></trkpt><trkpt lat="45.9474948" lon="11.6168008"><ele>1304.0</ele><time>2026-04-26T08:53:06.193Z</time></trkpt><trkpt lat="45.947593" lon="11.6168326"><ele>1304.0</ele><time>2026-04-26T08:53:07.191Z</time></trkpt><trkpt lat="45.9477169" lon="11.6168293"><ele>1304.0</ele><time>2026-04-26T08:53:08.192Z</time></trkpt><trkpt lat="45.9480056" lon="11.6167517"><ele>1303.5</ele><time>2026-04-26T08:53:10.193Z</time></trkpt><trkpt lat="45.9481408" lon="11.6167066"><ele>1303.0</ele><time>2026-04-26T08:53:11.192Z</time></trkpt><trkpt lat="45.9482669" lon="11.6166801"><ele>1302.5</ele><time>2026-04-26T08:53:12.193Z</time></trkpt><trkpt lat="45.9483795" lon="11.6166918"><ele>1302.0</ele><time>2026-04-26T08:53:13.193Z</time></trkpt><trkpt lat="45.9484736" lon="11.6167431"><ele>1302.0</ele><time>2026-04-26T08:53:14.192Z</time></trkpt><trkpt lat="45.9485428" lon="11.6168322"><ele>1302.0</ele><time>2026-04-26T08:53:15.193Z</time></trkpt><trkpt lat="45.9485857" lon="11.6169478"><ele>1302.0</ele><time>2026-04-26T08:53:16.191Z</time></trkpt><trkpt lat="45.9485962" lon="11.617075"><ele>1302.0</ele><time>2026-04-26T08:53:17.192Z</time></trkpt><trkpt lat="45.9485711" lon="11.6172002"><ele>1302.0</ele><time>2026-04-26T08:53:18.192Z</time></trkpt><trkpt lat="45.9485084" lon="11.617307"><ele>1302.1999999999998</ele><time>2026-04-26T08:53:19.192Z</time></trkpt><trkpt lat="45.9484146" lon="11.6174115"><ele>1302.4</ele><time>2026-04-26T08:53:20.194Z</time></trkpt><trkpt lat="45.9483248" lon="11.6175228"><ele>1302.6</ele><time>2026-04-26T08:53:21.193Z</time></trkpt><trkpt lat="45.9482656" lon="11.6176384"><ele>1302.8000000000002</ele><time>2026-04-26T08:53:22.193Z</time></trkpt><trkpt lat="45.9482429" lon="11.6177683"><ele>1303.0</ele><time>2026-04-26T08:53:23.192Z</time></trkpt><trkpt lat="45.9482568" lon="11.6179163"><ele>1303.75</ele><time>2026-04-26T08:53:24.192Z</time></trkpt><trkpt lat="45.9482918" lon="11.6180579"><ele>1304.5</ele><time>2026-04-26T08:53:25.191Z</time></trkpt><trkpt lat="45.9483075" lon="11.6181931"><ele>1305.25</ele><time>2026-04-26T08:53:26.194Z</time></trkpt><trkpt lat="45.9482842" lon="11.6183147"><ele>1306.0</ele><time>2026-04-26T08:53:27.19Z</time></trkpt><trkpt lat="45.9481356" lon="11.6184577"><ele>1306.0</ele><time>2026-04-26T08:53:29.191Z</time></trkpt><trkpt lat="45.9478766" lon="11.6184587"><ele>1306.0</ele><time>2026-04-26T08:53:31.192Z</time></trkpt><trkpt lat="45.9477112" lon="11.6184582"><ele>1306.0</ele><time>2026-04-26T08:53:32.194Z</time></trkpt><trkpt lat="45.9475397" lon="11.6184626"><ele>1305.5</ele><time>2026-04-26T08:53:33.194Z</time></trkpt><trkpt lat="45.9473843" lon="11.6184662"><ele>1305.0</ele><time>2026-04-26T08:53:34.192Z</time></trkpt><trkpt lat="45.9472427" lon="11.6184708"><ele>1304.5</ele><time>2026-04-26T08:53:35.194Z</time></trkpt><trkpt lat="45.9471107" lon="11.6184815"><ele>1304.0</ele><time>2026-04-26T08:53:36.196Z</time></trkpt><trkpt lat="45.9469875" lon="11.6185111"><ele>1304.0</ele><time>2026-04-26T08:53:37.193Z</time></trkpt><trkpt lat="45.9468726" lon="11.6185819"><ele>1304.0</ele><time>2026-04-26T08:53:38.195Z</time></trkpt><trkpt lat="45.9467795" lon="11.6186893"><ele>1304.0</ele><time>2026-04-26T08:53:39.194Z</time></trkpt><trkpt lat="45.946725" lon="11.6188202"><ele>1304.0</ele><time>2026-04-26T08:53:40.194Z</time></trkpt><trkpt lat="45.946715" lon="11.6189713"><ele>1305.5</ele><time>2026-04-26T08:53:41.193Z</time></trkpt><trkpt lat="45.9467282" lon="11.6191533"><ele>1307.0</ele><time>2026-04-26T08:53:42.192Z</time></trkpt><trkpt lat="45.9467226" lon="11.6193318"><ele>1308.5</ele><time>2026-04-26T08:53:43.192Z</time></trkpt><trkpt lat="45.9467228" lon="11.6194937"><ele>1310.0</ele><time>2026-04-26T08:53:44.194Z</time></trkpt><trkpt lat="45.9467544" lon="11.6196359"><ele>1310.6</ele><time>2026-04-26T08:53:45.193Z</time></trkpt><trkpt lat="45.9468214" lon="11.6197645"><ele>1311.2</ele><time>2026-04-26T08:53:46.193Z</time></trkpt><trkpt lat="45.9468971" lon="11.6198714"><ele>1311.8000000000002</ele><time>2026-04-26T08:53:47.192Z</time></trkpt><trkpt lat="45.9469418" lon="11.6199821"><ele>1312.4</ele><time>2026-04-26T08:53:48.194Z</time></trkpt><trkpt lat="45.9469418" lon="11.6200917"><ele>1313.0</ele><time>2026-04-26T08:53:49.191Z</time></trkpt><trkpt lat="45.9469014" lon="11.6201793"><ele>1313.0</ele><time>2026-04-26T08:53:50.192Z</time></trkpt><trkpt lat="45.9467417" lon="11.6202059"><ele>1313.0</ele><time>2026-04-26T08:53:52.19Z</time></trkpt><trkpt lat="45.9466394" lon="11.620148"><ele>1313.0</ele><time>2026-04-26T08:53:53.193Z</time></trkpt><trkpt lat="45.9465248" lon="11.620093"><ele>1313.0</ele><time>2026-04-26T08:53:54.192Z</time></trkpt><trkpt lat="45.9464069" lon="11.6200793"><ele>1313.0</ele><time>2026-04-26T08:53:55.193Z</time></trkpt><trkpt lat="45.9462841" lon="11.6201051"><ele>1313.0</ele><time>2026-04-26T08:53:56.194Z</time></trkpt><trkpt lat="45.9461528" lon="11.6201718"><ele>1313.0</ele><time>2026-04-26T08:53:57.192Z</time></trkpt><trkpt lat="45.9460179" lon="11.6202603"><ele>1313.0</ele><time>2026-04-26T08:53:58.193Z</time></trkpt><trkpt lat="45.9458968" lon="11.6203397"><ele>1317.0</ele><time>2026-04-26T08:53:59.193Z</time></trkpt><trkpt lat="45.945795" lon="11.6204271"><ele>1321.0</ele><time>2026-04-26T08:54:00.192Z</time></trkpt><trkpt lat="45.9457137" lon="11.620555"><ele>1325.0</ele><time>2026-04-26T08:54:01.191Z</time></trkpt><trkpt lat="45.9456399" lon="11.620722"><ele>1329.0</ele><time>2026-04-26T08:54:02.193Z</time></trkpt><trkpt lat="45.9455574" lon="11.6208721"><ele>1329.0</ele><time>2026-04-26T08:54:03.191Z</time></trkpt><trkpt lat="45.9454457" lon="11.6209846"><ele>1329.0</ele><time>2026-04-26T08:54:04.19Z</time></trkpt><trkpt lat="45.94531" lon="11.6210864"><ele>1329.0</ele><time>2026-04-26T08:54:05.192Z</time></trkpt><trkpt lat="45.9451628" lon="11.6212148"><ele>1331.0</ele><time>2026-04-26T08:54:06.192Z</time></trkpt><trkpt lat="45.9450091" lon="11.6213594"><ele>1333.0</ele><time>2026-04-26T08:54:07.192Z</time></trkpt><trkpt lat="45.9448609" lon="11.6214745"><ele>1335.0</ele><time>2026-04-26T08:54:08.194Z</time></trkpt><trkpt lat="45.9447254" lon="11.6215494"><ele>1335.0</ele><time>2026-04-26T08:54:09.191Z</time></trkpt><trkpt lat="45.9446095" lon="11.6216126"><ele>1335.0</ele><time>2026-04-26T08:54:10.19Z</time></trkpt><trkpt lat="45.9445068" lon="11.6217133"><ele>1335.0</ele><time>2026-04-26T08:54:11.192Z</time></trkpt><trkpt lat="45.9442777" lon="11.6220187"><ele>1335.6666666666667</ele><time>2026-04-26T08:54:13.191Z</time></trkpt><trkpt lat="45.9441572" lon="11.6221871"><ele>1336.3333333333335</ele><time>2026-04-26T08:54:14.192Z</time></trkpt><trkpt lat="45.9440526" lon="11.6223562"><ele>1337.0</ele><time>2026-04-26T08:54:15.19Z</time></trkpt><trkpt lat="45.9439658" lon="11.6225269"><ele>1337.0</ele><time>2026-04-26T08:54:16.191Z</time></trkpt><trkpt lat="45.9438905" lon="11.6227193"><ele>1337.0</ele><time>2026-04-26T08:54:17.194Z</time></trkpt><trkpt lat="45.9438064" lon="11.6229305"><ele>1337.0</ele><time>2026-04-26T08:54:18.194Z</time></trkpt><trkpt lat="45.9437084" lon="11.6231261"><ele>1342.6666666666667</ele><time>2026-04-26T08:54:19.193Z</time></trkpt><trkpt lat="45.9436202" lon="11.6233088"><ele>1348.3333333333333</ele><time>2026-04-26T08:54:20.193Z</time></trkpt><trkpt lat="45.9435442" lon="11.6235141"><ele>1354.0</ele><time>2026-04-26T08:54:21.193Z</time></trkpt><trkpt lat="45.94349" lon="11.6237203"><ele>1356.0</ele><time>2026-04-26T08:54:22.192Z</time></trkpt><trkpt lat="45.9434545" lon="11.6239025"><ele>1358.0</ele><time>2026-04-26T08:54:23.195Z</time></trkpt><trkpt lat="45.9434262" lon="11.6240557"><ele>1360.0</ele><time>2026-04-26T08:54:24.192Z</time></trkpt><trkpt lat="45.9433986" lon="11.6241957"><ele>1362.0</ele><time>2026-04-26T08:54:25.192Z</time></trkpt><trkpt lat="45.9433596" lon="11.624322"><ele>1364.0</ele><time>2026-04-26T08:54:26.193Z</time></trkpt><trkpt lat="45.9432947" lon="11.6244253"><ele>1361.8000000000002</ele><time>2026-04-26T08:54:27.192Z</time></trkpt><trkpt lat="45.9432165" lon="11.6245047"><ele>1359.6000000000001</ele><time>2026-04-26T08:54:28.194Z</time></trkpt><trkpt lat="45.9431345" lon="11.6245644"><ele>1357.4</ele><time>2026-04-26T08:54:29.194Z</time></trkpt><trkpt lat="45.9430322" lon="11.624612"><ele>1355.2</ele><time>2026-04-26T08:54:30.192Z</time></trkpt><trkpt lat="45.9429191" lon="11.6246485"><ele>1353.0</ele><time>2026-04-26T08:54:31.193Z</time></trkpt><trkpt lat="45.942807" lon="11.6246929"><ele>1353.0</ele><time>2026-04-26T08:54:32.192Z</time></trkpt><trkpt lat="45.9425873" lon="11.6248872"><ele>1353.0</ele><time>2026-04-26T08:54:34.192Z</time></trkpt><trkpt lat="45.9424829" lon="11.6250326"><ele>1353.0</ele><time>2026-04-26T08:54:35.193Z</time></trkpt><trkpt lat="45.942375" lon="11.6251959"><ele>1353.5</ele><time>2026-04-26T08:54:36.193Z</time></trkpt><trkpt lat="45.9422696" lon="11.6253435"><ele>1354.0</ele><time>2026-04-26T08:54:37.19Z</time></trkpt><trkpt lat="45.9421693" lon="11.6254702"><ele>1354.5</ele><time>2026-04-26T08:54:38.191Z</time></trkpt><trkpt lat="45.9420746" lon="11.625583"><ele>1355.0</ele><time>2026-04-26T08:54:39.189Z</time></trkpt><trkpt lat="45.9420011" lon="11.6256633"><ele>1355.0</ele><time>2026-04-26T08:54:39.997Z</time></trkpt><trkpt lat="45.9418967" lon="11.6257843"><ele>1355.0</ele><time>2026-04-26T08:54:41.19Z</time></trkpt><trkpt lat="45.9418205" lon="11.6259094"><ele>1355.0</ele><time>2026-04-26T08:54:42.192Z</time></trkpt><trkpt lat="45.9417639" lon="11.6260558"><ele>1355.0</ele><time>2026-04-26T08:54:43.192Z</time></trkpt><trkpt lat="45.941723" lon="11.6262174"><ele>1353.4</ele><time>2026-04-26T08:54:44.194Z</time></trkpt><trkpt lat="45.9416845" lon="11.6263688"><ele>1351.8</ele><time>2026-04-26T08:54:45.192Z</time></trkpt><trkpt lat="45.9416264" lon="11.6265063"><ele>1350.1999999999998</ele><time>2026-04-26T08:54:46.193Z</time></trkpt><trkpt lat="45.9415484" lon="11.6266274"><ele>1348.6</ele><time>2026-04-26T08:54:47.191Z</time></trkpt><trkpt lat="45.9414736" lon="11.6267375"><ele>1347.0</ele><time>2026-04-26T08:54:48.191Z</time></trkpt><trkpt lat="45.9414079" lon="11.6268653"><ele>1349.8</ele><time>2026-04-26T08:54:49.192Z</time></trkpt><trkpt lat="45.9413451" lon="11.6270142"><ele>1352.6</ele><time>2026-04-26T08:54:50.194Z</time></trkpt><trkpt lat="45.9412839" lon="11.6271493"><ele>1355.3999999999999</ele><time>2026-04-26T08:54:51.194Z</time></trkpt><trkpt lat="45.9412241" lon="11.6272709"><ele>1358.1999999999998</ele><time>2026-04-26T08:54:52.193Z</time></trkpt><trkpt lat="45.9411811" lon="11.6274049"><ele>1361.0</ele><time>2026-04-26T08:54:53.192Z</time></trkpt><trkpt lat="45.9411263" lon="11.6277021"><ele>1361.6</ele><time>2026-04-26T08:54:55.191Z</time></trkpt><trkpt lat="45.9411194" lon="11.6278539"><ele>1362.1999999999998</ele><time>2026-04-26T08:54:56.191Z</time></trkpt><trkpt lat="45.9411242" lon="11.6279999"><ele>1362.8000000000002</ele><time>2026-04-26T08:54:57.191Z</time></trkpt><trkpt lat="45.9411451" lon="11.6281464"><ele>1363.4</ele><time>2026-04-26T08:54:58.191Z</time></trkpt><trkpt lat="45.941183" lon="11.6282935"><ele>1364.0</ele><time>2026-04-26T08:54:59.191Z</time></trkpt><trkpt lat="45.9412358" lon="11.6284335"><ele>1364.0</ele><time>2026-04-26T08:55:00.192Z</time></trkpt><trkpt lat="45.941293" lon="11.6285526"><ele>1364.0</ele><time>2026-04-26T08:55:01.191Z</time></trkpt><trkpt lat="45.9413347" lon="11.628668"><ele>1364.0</ele><time>2026-04-26T08:55:02.188Z</time></trkpt><trkpt lat="45.9413567" lon="11.6287941"><ele>1364.0</ele><time>2026-04-26T08:55:03.189Z</time></trkpt><trkpt lat="45.9413608" lon="11.62894"><ele>1364.0</ele><time>2026-04-26T08:55:04.188Z</time></trkpt><trkpt lat="45.9413466" lon="11.6290953"><ele>1366.25</ele><time>2026-04-26T08:55:05.19Z</time></trkpt><trkpt lat="45.9413161" lon="11.6292538"><ele>1368.5</ele><time>2026-04-26T08:55:06.19Z</time></trkpt><trkpt lat="45.941274" lon="11.6294185"><ele>1370.75</ele><time>2026-04-26T08:55:07.19Z</time></trkpt><trkpt lat="45.9412248" lon="11.6295917"><ele>1373.0</ele><time>2026-04-26T08:55:08.192Z</time></trkpt><trkpt lat="45.9411789" lon="11.6297662"><ele>1375.75</ele><time>2026-04-26T08:55:09.189Z</time></trkpt><trkpt lat="45.9411478" lon="11.6299371"><ele>1378.5</ele><time>2026-04-26T08:55:10.192Z</time></trkpt><trkpt lat="45.9411295" lon="11.6301117"><ele>1381.25</ele><time>2026-04-26T08:55:11.193Z</time></trkpt><trkpt lat="45.9411153" lon="11.6302725"><ele>1384.0</ele><time>2026-04-26T08:55:12.191Z</time></trkpt><trkpt lat="45.9410952" lon="11.6304208"><ele>1386.25</ele><time>2026-04-26T08:55:13.192Z</time></trkpt><trkpt lat="45.9410686" lon="11.6305598"><ele>1388.5</ele><time>2026-04-26T08:55:14.19Z</time></trkpt><trkpt lat="45.9409743" lon="11.6308327"><ele>1390.75</ele><time>2026-04-26T08:55:16.19Z</time></trkpt><trkpt lat="45.9409045" lon="11.630962"><ele>1393.0</ele><time>2026-04-26T08:55:17.19Z</time></trkpt><trkpt lat="45.9408234" lon="11.6310803"><ele>1386.25</ele><time>2026-04-26T08:55:18.19Z</time></trkpt><trkpt lat="45.9407486" lon="11.6311896"><ele>1379.5</ele><time>2026-04-26T08:55:19.193Z</time></trkpt><trkpt lat="45.9406769" lon="11.6313092"><ele>1372.75</ele><time>2026-04-26T08:55:20.191Z</time></trkpt><trkpt lat="45.9406035" lon="11.6314471"><ele>1366.0</ele><time>2026-04-26T08:55:21.191Z</time></trkpt><trkpt lat="45.9405298" lon="11.6315875"><ele>1366.0</ele><time>2026-04-26T08:55:22.191Z</time></trkpt><trkpt lat="45.940454" lon="11.6317053"><ele>1366.0</ele><time>2026-04-26T08:55:23.192Z</time></trkpt><trkpt lat="45.9403738" lon="11.6318165"><ele>1366.0</ele><time>2026-04-26T08:55:24.192Z</time></trkpt><trkpt lat="45.9402927" lon="11.6319392"><ele>1366.0</ele><time>2026-04-26T08:55:25.192Z</time></trkpt><trkpt lat="45.9402148" lon="11.6320758"><ele>1368.4</ele><time>2026-04-26T08:55:26.193Z</time></trkpt><trkpt lat="45.9401377" lon="11.6322258"><ele>1370.8</ele><time>2026-04-26T08:55:27.189Z</time></trkpt><trkpt lat="45.9400717" lon="11.6323666"><ele>1373.2</ele><time>2026-04-26T08:55:28.189Z</time></trkpt><trkpt lat="45.9400093" lon="11.6324847"><ele>1375.6000000000001</ele><time>2026-04-26T08:55:29.191Z</time></trkpt><trkpt lat="45.9399458" lon="11.632572"><ele>1378.0</ele><time>2026-04-26T08:55:30.19Z</time></trkpt><trkpt lat="45.9398734" lon="11.6326426"><ele>1372.4</ele><time>2026-04-26T08:55:31.19Z</time></trkpt><trkpt lat="45.9398081" lon="11.6326887"><ele>1366.8000000000002</ele><time>2026-04-26T08:55:31.995Z</time></trkpt><trkpt lat="45.9397193" lon="11.6327488"><ele>1361.2</ele><time>2026-04-26T08:55:33.192Z</time></trkpt><trkpt lat="45.9396625" lon="11.6328207"><ele>1355.6</ele><time>2026-04-26T08:55:34.193Z</time></trkpt><trkpt lat="45.9396198" lon="11.6329095"><ele>1350.0</ele><time>2026-04-26T08:55:35.192Z</time></trkpt><trkpt lat="45.9395903" lon="11.6330955"><ele>1350.0</ele><time>2026-04-26T08:55:37.193Z</time></trkpt><trkpt lat="45.9396078" lon="11.6331848"><ele>1350.0</ele><time>2026-04-26T08:55:38.194Z</time></trkpt><trkpt lat="45.9396407" lon="11.6332762"><ele>1350.0</ele><time>2026-04-26T08:55:39.193Z</time></trkpt><trkpt lat="45.9396871" lon="11.633362"><ele>1350.0</ele><time>2026-04-26T08:55:40.193Z</time></trkpt><trkpt lat="45.9397423" lon="11.6334292"><ele>1350.0</ele><time>2026-04-26T08:55:41.195Z</time></trkpt><trkpt lat="45.9398008" lon="11.6334785"><ele>1350.0</ele><time>2026-04-26T08:55:42.194Z</time></trkpt><trkpt lat="45.9398578" lon="11.6335232"><ele>1350.0</ele><time>2026-04-26T08:55:43.195Z</time></trkpt><trkpt lat="45.9399229" lon="11.6335524"><ele>1350.0</ele><time>2026-04-26T08:55:44.196Z</time></trkpt><trkpt lat="45.9400059" lon="11.6335695"><ele>1350.0</ele><time>2026-04-26T08:55:45.196Z</time></trkpt><trkpt lat="45.940101" lon="11.6335864"><ele>1350.0</ele><time>2026-04-26T08:55:46.196Z</time></trkpt><trkpt lat="45.940185" lon="11.6336227"><ele>1350.0</ele><time>2026-04-26T08:55:47.197Z</time></trkpt><trkpt lat="45.940254" lon="11.6336824"><ele>1350.0</ele><time>2026-04-26T08:55:48.194Z</time></trkpt><trkpt lat="45.9403267" lon="11.6337565"><ele>1350.0</ele><time>2026-04-26T08:55:49.192Z</time></trkpt><trkpt lat="45.9404171" lon="11.6338356"><ele>1351.0</ele><time>2026-04-26T08:55:50.194Z</time></trkpt><trkpt lat="45.9405115" lon="11.6339295"><ele>1352.0</ele><time>2026-04-26T08:55:51.193Z</time></trkpt><trkpt lat="45.9405917" lon="11.6340389"><ele>1353.0</ele><time>2026-04-26T08:55:52.192Z</time></trkpt><trkpt lat="45.9406774" lon="11.6341679"><ele>1354.0</ele><time>2026-04-26T08:55:53.192Z</time></trkpt><trkpt lat="45.9407674" lon="11.6342981"><ele>1354.0</ele><time>2026-04-26T08:55:54.194Z</time></trkpt><trkpt lat="45.9408419" lon="11.6344297"><ele>1354.0</ele><time>2026-04-26T08:55:55.193Z</time></trkpt><trkpt lat="45.9408943" lon="11.6345678"><ele>1354.0</ele><time>2026-04-26T08:55:56.195Z</time></trkpt><trkpt lat="45.9409658" lon="11.6348656"><ele>1354.0</ele><time>2026-04-26T08:55:58.194Z</time></trkpt><trkpt lat="45.9409959" lon="11.6350289"><ele>1354.8333333333333</ele><time>2026-04-26T08:55:59.195Z</time></trkpt><trkpt lat="45.9410128" lon="11.6351852"><ele>1355.6666666666665</ele><time>2026-04-26T08:56:00.196Z</time></trkpt><trkpt lat="45.9410244" lon="11.6353243"><ele>1356.5</ele><time>2026-04-26T08:56:01.194Z</time></trkpt><trkpt lat="45.9410319" lon="11.6354389"><ele>1357.3333333333333</ele><time>2026-04-26T08:56:02.192Z</time></trkpt><trkpt lat="45.9410506" lon="11.6355388"><ele>1358.1666666666667</ele><time>2026-04-26T08:56:03.193Z</time></trkpt><trkpt lat="45.9410866" lon="11.635634"><ele>1359.0</ele><time>2026-04-26T08:56:04.192Z</time></trkpt><trkpt lat="45.9411374" lon="11.6357172"><ele>1356.1666666666667</ele><time>2026-04-26T08:56:05.193Z</time></trkpt><trkpt lat="45.9411993" lon="11.6357821"><ele>1353.3333333333333</ele><time>2026-04-26T08:56:06.194Z</time></trkpt><trkpt lat="45.941272" lon="11.6358211"><ele>1350.5</ele><time>2026-04-26T08:56:07.193Z</time></trkpt><trkpt lat="45.9413588" lon="11.6358351"><ele>1347.6666666666665</ele><time>2026-04-26T08:56:08.195Z</time></trkpt><trkpt lat="45.9414607" lon="11.6358482"><ele>1344.8333333333333</ele><time>2026-04-26T08:56:09.194Z</time></trkpt><trkpt lat="45.9415585" lon="11.6358655"><ele>1342.0</ele><time>2026-04-26T08:56:10.196Z</time></trkpt><trkpt lat="45.9416464" lon="11.6358773"><ele>1340.8</ele><time>2026-04-26T08:56:11.194Z</time></trkpt><trkpt lat="45.9417241" lon="11.6358892"><ele>1339.6</ele><time>2026-04-26T08:56:12.193Z</time></trkpt><trkpt lat="45.9418058" lon="11.6359042"><ele>1338.3999999999999</ele><time>2026-04-26T08:56:13.195Z</time></trkpt><trkpt lat="45.9418982" lon="11.6359162"><ele>1337.1999999999998</ele><time>2026-04-26T08:56:14.193Z</time></trkpt><trkpt lat="45.9419998" lon="11.6359153"><ele>1336.0</ele><time>2026-04-26T08:56:15.194Z</time></trkpt><trkpt lat="45.9421136" lon="11.6358828"><ele>1336.0</ele><time>2026-04-26T08:56:16.196Z</time></trkpt><trkpt lat="45.9422424" lon="11.6358211"><ele>1336.0</ele><time>2026-04-26T08:56:17.194Z</time></trkpt><trkpt lat="45.9425535" lon="11.6356984"><ele>1336.3333333333333</ele><time>2026-04-26T08:56:19.19Z</time></trkpt><trkpt lat="45.9427127" lon="11.6356885"><ele>1336.6666666666667</ele><time>2026-04-26T08:56:20.192Z</time></trkpt><trkpt lat="45.9428645" lon="11.635714"><ele>1337.0</ele><time>2026-04-26T08:56:21.194Z</time></trkpt><trkpt lat="45.9430134" lon="11.6357601"><ele>1337.0</ele><time>2026-04-26T08:56:22.193Z</time></trkpt><trkpt lat="45.9431495" lon="11.6358024"><ele>1337.0</ele><time>2026-04-26T08:56:23.196Z</time></trkpt><trkpt lat="45.9432896" lon="11.6358128"><ele>1337.0</ele><time>2026-04-26T08:56:24.194Z</time></trkpt><trkpt lat="45.9434486" lon="11.6358005"><ele>1337.0</ele><time>2026-04-26T08:56:25.195Z</time></trkpt><trkpt lat="45.9436252" lon="11.6357715"><ele>1336.6666666666667</ele><time>2026-04-26T08:56:26.195Z</time></trkpt><trkpt lat="45.9438174" lon="11.6357239"><ele>1336.3333333333333</ele><time>2026-04-26T08:56:27.194Z</time></trkpt><trkpt lat="45.9440116" lon="11.635665"><ele>1336.0</ele><time>2026-04-26T08:56:28.192Z</time></trkpt><trkpt lat="45.9441945" lon="11.6356065"><ele>1337.0</ele><time>2026-04-26T08:56:29.196Z</time></trkpt><trkpt lat="45.944367" lon="11.6355567"><ele>1338.0</ele><time>2026-04-26T08:56:30.194Z</time></trkpt><trkpt lat="45.9445345" lon="11.6355323"><ele>1339.0</ele><time>2026-04-26T08:56:31.191Z</time></trkpt><trkpt lat="45.944707" lon="11.6355479"><ele>1339.0</ele><time>2026-04-26T08:56:32.192Z</time></trkpt><trkpt lat="45.9448883" lon="11.6355979"><ele>1339.0</ele><time>2026-04-26T08:56:33.195Z</time></trkpt><trkpt lat="45.9450773" lon="11.6356726"><ele>1339.0</ele><time>2026-04-26T08:56:34.195Z</time></trkpt><trkpt lat="45.9452612" lon="11.6357762"><ele>1336.6666666666665</ele><time>2026-04-26T08:56:35.195Z</time></trkpt><trkpt lat="45.9454315" lon="11.6358976"><ele>1334.3333333333333</ele><time>2026-04-26T08:56:36.194Z</time></trkpt><trkpt lat="45.9455899" lon="11.6360262"><ele>1332.0</ele><time>2026-04-26T08:56:37.194Z</time></trkpt><trkpt lat="45.945746" lon="11.6361663"><ele>1338.0</ele><time>2026-04-26T08:56:38.195Z</time></trkpt><trkpt lat="45.9460721" lon="11.6364464"><ele>1344.0</ele><time>2026-04-26T08:56:40.193Z</time></trkpt><trkpt lat="45.9462276" lon="11.6365738"><ele>1344.0</ele><time>2026-04-26T08:56:41.192Z</time></trkpt><trkpt lat="45.9463762" lon="11.6366939"><ele>1344.0</ele><time>2026-04-26T08:56:42.19Z</time></trkpt><trkpt lat="45.9465177" lon="11.636808"><ele>1344.0</ele><time>2026-04-26T08:56:43.191Z</time></trkpt><trkpt lat="45.946653" lon="11.6369084"><ele>1341.0</ele><time>2026-04-26T08:56:44.193Z</time></trkpt><trkpt lat="45.9467841" lon="11.6369774"><ele>1338.0</ele><time>2026-04-26T08:56:45.193Z</time></trkpt><trkpt lat="45.9469124" lon="11.6370241"><ele>1335.0</ele><time>2026-04-26T08:56:46.194Z</time></trkpt><trkpt lat="45.9470346" lon="11.6370636"><ele>1332.0</ele><time>2026-04-26T08:56:47.195Z</time></trkpt><trkpt lat="45.9471566" lon="11.6370921"><ele>1332.0</ele><time>2026-04-26T08:56:48.195Z</time></trkpt><trkpt lat="45.9472946" lon="11.637097"><ele>1332.0</ele><time>2026-04-26T08:56:49.195Z</time></trkpt><trkpt lat="45.9474526" lon="11.637071"><ele>1332.0</ele><time>2026-04-26T08:56:50.195Z</time></trkpt><trkpt lat="45.9476288" lon="11.637026"><ele>1331.6666666666667</ele><time>2026-04-26T08:56:51.191Z</time></trkpt><trkpt lat="45.9478141" lon="11.636974"><ele>1331.3333333333335</ele><time>2026-04-26T08:56:52.192Z</time></trkpt><trkpt lat="45.9479873" lon="11.6369139"><ele>1331.0</ele><time>2026-04-26T08:56:53.194Z</time></trkpt><trkpt lat="45.9481551" lon="11.6368417"><ele>1334.3333333333335</ele><time>2026-04-26T08:56:54.196Z</time></trkpt><trkpt lat="45.9483191" lon="11.636782"><ele>1337.6666666666667</ele><time>2026-04-26T08:56:55.195Z</time></trkpt><trkpt lat="45.9484884" lon="11.6367519"><ele>1341.0</ele><time>2026-04-26T08:56:56.195Z</time></trkpt><trkpt lat="45.9486687" lon="11.636757"><ele>1341.0</ele><time>2026-04-26T08:56:57.194Z</time></trkpt><trkpt lat="45.9488651" lon="11.6367769"><ele>1341.0</ele><time>2026-04-26T08:56:58.196Z</time></trkpt><trkpt lat="45.9490695" lon="11.636798"><ele>1341.0</ele><time>2026-04-26T08:56:59.195Z</time></trkpt><trkpt lat="45.9494638" lon="11.6368393"><ele>1341.6666666666667</ele><time>2026-04-26T08:57:01.194Z</time></trkpt><trkpt lat="45.9496677" lon="11.6368465"><ele>1342.3333333333335</ele><time>2026-04-26T08:57:02.194Z</time></trkpt><trkpt lat="45.9498731" lon="11.6368427"><ele>1343.0</ele><time>2026-04-26T08:57:03.193Z</time></trkpt><trkpt lat="45.9500644" lon="11.636835"><ele>1343.0</ele><time>2026-04-26T08:57:04.193Z</time></trkpt><trkpt lat="45.95024" lon="11.6368237"><ele>1343.0</ele><time>2026-04-26T08:57:05.194Z</time></trkpt><trkpt lat="45.9504027" lon="11.6368217"><ele>1343.0</ele><time>2026-04-26T08:57:06.191Z</time></trkpt><trkpt lat="45.9505582" lon="11.6368499"><ele>1343.0</ele><time>2026-04-26T08:57:07.192Z</time></trkpt><trkpt lat="45.9507144" lon="11.6369143"><ele>1343.0</ele><time>2026-04-26T08:57:08.194Z</time></trkpt><trkpt lat="45.9508676" lon="11.637016"><ele>1343.0</ele><time>2026-04-26T08:57:09.194Z</time></trkpt><trkpt lat="45.9509999" lon="11.6371431"><ele>1342.6666666666667</ele><time>2026-04-26T08:57:10.195Z</time></trkpt><trkpt lat="45.9511261" lon="11.6372801"><ele>1342.3333333333333</ele><time>2026-04-26T08:57:11.195Z</time></trkpt><trkpt lat="45.951258" lon="11.6374175"><ele>1342.0</ele><time>2026-04-26T08:57:12.193Z</time></trkpt><trkpt lat="45.9513892" lon="11.6375493"><ele>1342.0</ele><time>2026-04-26T08:57:13.193Z</time></trkpt><trkpt lat="45.9515216" lon="11.6376652"><ele>1342.0</ele><time>2026-04-26T08:57:14.195Z</time></trkpt><trkpt lat="45.9516721" lon="11.6377596"><ele>1342.0</ele><time>2026-04-26T08:57:15.194Z</time></trkpt><trkpt lat="45.9518392" lon="11.6378326"><ele>1340.6666666666665</ele><time>2026-04-26T08:57:16.195Z</time></trkpt><trkpt lat="45.9520081" lon="11.6378852"><ele>1339.3333333333333</ele><time>2026-04-26T08:57:17.195Z</time></trkpt><trkpt lat="45.9521725" lon="11.6379155"><ele>1338.0</ele><time>2026-04-26T08:57:18.194Z</time></trkpt><trkpt lat="45.9523377" lon="11.6379268"><ele>1338.0</ele><time>2026-04-26T08:57:19.194Z</time></trkpt><trkpt lat="45.9525044" lon="11.6379236"><ele>1338.0</ele><time>2026-04-26T08:57:20.195Z</time></trkpt><trkpt lat="45.9528141" lon="11.6378928"><ele>1338.3333333333333</ele><time>2026-04-26T08:57:22.195Z</time></trkpt><trkpt lat="45.9529698" lon="11.6378667"><ele>1338.6666666666665</ele><time>2026-04-26T08:57:23.196Z</time></trkpt><trkpt lat="45.9531204" lon="11.6378452"><ele>1339.0</ele><time>2026-04-26T08:57:24.194Z</time></trkpt><trkpt lat="45.9532643" lon="11.6378303"><ele>1340.0</ele><time>2026-04-26T08:57:25.193Z</time></trkpt><trkpt lat="45.9534011" lon="11.6378277"><ele>1341.0</ele><time>2026-04-26T08:57:26.193Z</time></trkpt><trkpt lat="45.9535346" lon="11.6378492"><ele>1342.0</ele><time>2026-04-26T08:57:27.194Z</time></trkpt><trkpt lat="45.9536659" lon="11.6379058"><ele>1343.0</ele><time>2026-04-26T08:57:28.195Z</time></trkpt><trkpt lat="45.9537924" lon="11.638002"><ele>1343.0</ele><time>2026-04-26T08:57:29.195Z</time></trkpt><trkpt lat="45.9539102" lon="11.6381301"><ele>1343.0</ele><time>2026-04-26T08:57:30.192Z</time></trkpt><trkpt lat="45.954022" lon="11.6382665"><ele>1343.0</ele><time>2026-04-26T08:57:31.191Z</time></trkpt><trkpt lat="45.9541288" lon="11.6383936"><ele>1343.0</ele><time>2026-04-26T08:57:32.192Z</time></trkpt><trkpt lat="45.9542217" lon="11.6385151"><ele>1343.0</ele><time>2026-04-26T08:57:33.191Z</time></trkpt><trkpt lat="45.9542957" lon="11.6386396"><ele>1343.0</ele><time>2026-04-26T08:57:34.194Z</time></trkpt><trkpt lat="45.9543547" lon="11.6387774"><ele>1343.0</ele><time>2026-04-26T08:57:35.193Z</time></trkpt><trkpt lat="45.954399" lon="11.6389382"><ele>1343.0</ele><time>2026-04-26T08:57:36.194Z</time></trkpt><trkpt lat="45.9544242" lon="11.6391115"><ele>1343.0</ele><time>2026-04-26T08:57:37.191Z</time></trkpt><trkpt lat="45.9544239" lon="11.6392744"><ele>1343.0</ele><time>2026-04-26T08:57:38.192Z</time></trkpt><trkpt lat="45.9543993" lon="11.6394161"><ele>1343.0</ele><time>2026-04-26T08:57:39.194Z</time></trkpt><trkpt lat="45.95435" lon="11.6395284"><ele>1343.0</ele><time>2026-04-26T08:57:40.193Z</time></trkpt><trkpt lat="45.9542733" lon="11.6396179"><ele>1343.0</ele><time>2026-04-26T08:57:41.194Z</time></trkpt><trkpt lat="45.9540364" lon="11.6397463"><ele>1343.6666666666667</ele><time>2026-04-26T08:57:43.192Z</time></trkpt><trkpt lat="45.9538846" lon="11.6398134"><ele>1344.3333333333333</ele><time>2026-04-26T08:57:44.193Z</time></trkpt><trkpt lat="45.9537135" lon="11.6398826"><ele>1345.0</ele><time>2026-04-26T08:57:45.192Z</time></trkpt><trkpt lat="45.9535386" lon="11.6399246"><ele>1345.0</ele><time>2026-04-26T08:57:46.192Z</time></trkpt><trkpt lat="45.9533752" lon="11.639941"><ele>1345.0</ele><time>2026-04-26T08:57:47.193Z</time></trkpt><trkpt lat="45.9532087" lon="11.6399619"><ele>1345.0</ele><time>2026-04-26T08:57:48.193Z</time></trkpt><trkpt lat="45.953042" lon="11.6399963"><ele>1345.25</ele><time>2026-04-26T08:57:49.193Z</time></trkpt><trkpt lat="45.9528935" lon="11.6400366"><ele>1345.5</ele><time>2026-04-26T08:57:50.195Z</time></trkpt><trkpt lat="45.9527675" lon="11.6400782"><ele>1345.75</ele><time>2026-04-26T08:57:51.194Z</time></trkpt><trkpt lat="45.9526693" lon="11.6401356"><ele>1346.0</ele><time>2026-04-26T08:57:52.194Z</time></trkpt><trkpt lat="45.9525953" lon="11.6402184"><ele>1346.4</ele><time>2026-04-26T08:57:53.192Z</time></trkpt><trkpt lat="45.9525452" lon="11.6403302"><ele>1346.8</ele><time>2026-04-26T08:57:54.191Z</time></trkpt><trkpt lat="45.9525258" lon="11.6404662"><ele>1347.2</ele><time>2026-04-26T08:57:55.191Z</time></trkpt><trkpt lat="45.9525311" lon="11.640625"><ele>1347.6000000000001</ele><time>2026-04-26T08:57:56.191Z</time></trkpt><trkpt lat="45.9525506" lon="11.6408133"><ele>1348.0</ele><time>2026-04-26T08:57:57.192Z</time></trkpt><trkpt lat="45.9525702" lon="11.641035"><ele>1348.6666666666665</ele><time>2026-04-26T08:57:58.193Z</time></trkpt><trkpt lat="45.9525738" lon="11.6412782"><ele>1349.3333333333333</ele><time>2026-04-26T08:57:59.192Z</time></trkpt><trkpt lat="45.9525634" lon="11.6414813"><ele>1350.0</ele><time>2026-04-26T08:57:59.995Z</time></trkpt><trkpt lat="45.9525243" lon="11.6417589"><ele>1352.5</ele><time>2026-04-26T08:58:01.192Z</time></trkpt><trkpt lat="45.9524938" lon="11.6419918"><ele>1355.0</ele><time>2026-04-26T08:58:02.193Z</time></trkpt><trkpt lat="45.9525031" lon="11.64252"><ele>1355.0</ele><time>2026-04-26T08:58:04.192Z</time></trkpt><trkpt lat="45.9525225" lon="11.6428061"><ele>1355.0</ele><time>2026-04-26T08:58:05.192Z</time></trkpt><trkpt lat="45.9525311" lon="11.6430745"><ele>1355.0</ele><time>2026-04-26T08:58:06.191Z</time></trkpt><trkpt lat="45.9525347" lon="11.6433252"><ele>1355.0</ele><time>2026-04-26T08:58:07.195Z</time></trkpt><trkpt lat="45.9525392" lon="11.6435743"><ele>1355.0</ele><time>2026-04-26T08:58:08.194Z</time></trkpt><trkpt lat="45.9525494" lon="11.643828"><ele>1355.0</ele><time>2026-04-26T08:58:09.194Z</time></trkpt><trkpt lat="45.9525741" lon="11.644091"><ele>1367.3333333333335</ele><time>2026-04-26T08:58:10.194Z</time></trkpt><trkpt lat="45.9526135" lon="11.6443694"><ele>1379.6666666666667</ele><time>2026-04-26T08:58:11.193Z</time></trkpt><trkpt lat="45.952658" lon="11.6446489"><ele>1392.0</ele><time>2026-04-26T08:58:12.193Z</time></trkpt><trkpt lat="45.9526969" lon="11.6449119"><ele>1392.3333333333333</ele><time>2026-04-26T08:58:13.193Z</time></trkpt><trkpt lat="45.952724" lon="11.6451683"><ele>1392.6666666666665</ele><time>2026-04-26T08:58:14.194Z</time></trkpt><trkpt lat="45.9527337" lon="11.645424"><ele>1393.0</ele><time>2026-04-26T08:58:15.193Z</time></trkpt><trkpt lat="45.9527313" lon="11.6456812"><ele>1393.0</ele><time>2026-04-26T08:58:16.194Z</time></trkpt><trkpt lat="45.9527275" lon="11.6459337"><ele>1393.0</ele><time>2026-04-26T08:58:17.193Z</time></trkpt><trkpt lat="45.9527253" lon="11.6461711"><ele>1393.0</ele><time>2026-04-26T08:58:18.192Z</time></trkpt><trkpt lat="45.9527226" lon="11.6463547"><ele>1394.0</ele><time>2026-04-26T08:58:18.995Z</time></trkpt><trkpt lat="45.9527107" lon="11.6466311"><ele>1395.0</ele><time>2026-04-26T08:58:20.192Z</time></trkpt><trkpt lat="45.9526883" lon="11.6468614"><ele>1396.0</ele><time>2026-04-26T08:58:21.192Z</time></trkpt><trkpt lat="45.9526599" lon="11.6470838"><ele>1396.0</ele><time>2026-04-26T08:58:22.193Z</time></trkpt><trkpt lat="45.9526315" lon="11.6472946"><ele>1396.0</ele><time>2026-04-26T08:58:23.194Z</time></trkpt><trkpt lat="45.9526107" lon="11.6477152"><ele>1396.0</ele><time>2026-04-26T08:58:25.194Z</time></trkpt><trkpt lat="45.9526474" lon="11.6479312"><ele>1393.6666666666665</ele><time>2026-04-26T08:58:26.193Z</time></trkpt><trkpt lat="45.9527163" lon="11.6481486"><ele>1391.3333333333333</ele><time>2026-04-26T08:58:27.192Z</time></trkpt><trkpt lat="45.9527941" lon="11.6483536"><ele>1389.0</ele><time>2026-04-26T08:58:28.193Z</time></trkpt><trkpt lat="45.9528567" lon="11.6485337"><ele>1388.5</ele><time>2026-04-26T08:58:29.193Z</time></trkpt><trkpt lat="45.9528921" lon="11.6486969"><ele>1388.0</ele><time>2026-04-26T08:58:30.194Z</time></trkpt><trkpt lat="45.9528958" lon="11.6488545"><ele>1387.5</ele><time>2026-04-26T08:58:31.193Z</time></trkpt><trkpt lat="45.95287" lon="11.649016"><ele>1387.0</ele><time>2026-04-26T08:58:32.194Z</time></trkpt><trkpt lat="45.9528247" lon="11.6491929"><ele>1387.0</ele><time>2026-04-26T08:58:33.193Z</time></trkpt><trkpt lat="45.9527667" lon="11.6493701"><ele>1387.0</ele><time>2026-04-26T08:58:34.193Z</time></trkpt><trkpt lat="45.9526982" lon="11.6495605"><ele>1387.0</ele><time>2026-04-26T08:58:35.193Z</time></trkpt><trkpt lat="45.9526281" lon="11.6497417"><ele>1387.0</ele><time>2026-04-26T08:58:36.194Z</time></trkpt><trkpt lat="45.9525621" lon="11.6498995"><ele>1386.3333333333333</ele><time>2026-04-26T08:58:37.192Z</time></trkpt><trkpt lat="45.9525041" lon="11.6500297"><ele>1385.6666666666665</ele><time>2026-04-26T08:58:38.192Z</time></trkpt><trkpt lat="45.9524504" lon="11.6501352"><ele>1385.0</ele><time>2026-04-26T08:58:39.192Z</time></trkpt><trkpt lat="45.9524024" lon="11.6502285"><ele>1384.3333333333333</ele><time>2026-04-26T08:58:40.192Z</time></trkpt><trkpt lat="45.9523572" lon="11.6503156"><ele>1383.6666666666667</ele><time>2026-04-26T08:58:41.193Z</time></trkpt><trkpt lat="45.9523239" lon="11.650428"><ele>1383.0</ele><time>2026-04-26T08:58:42.192Z</time></trkpt><trkpt lat="45.9523094" lon="11.6505803"><ele>1383.0</ele><time>2026-04-26T08:58:43.191Z</time></trkpt><trkpt lat="45.952306" lon="11.650765"><ele>1383.0</ele><time>2026-04-26T08:58:44.192Z</time></trkpt><trkpt lat="45.9523419" lon="11.6511092"><ele>1383.0</ele><time>2026-04-26T08:58:46.189Z</time></trkpt><trkpt lat="45.9524093" lon="11.6512761"><ele>1384.3333333333333</ele><time>2026-04-26T08:58:47.194Z</time></trkpt><trkpt lat="45.9525009" lon="11.6514599"><ele>1385.6666666666665</ele><time>2026-04-26T08:58:48.193Z</time></trkpt><trkpt lat="45.952602" lon="11.6516671"><ele>1387.0</ele><time>2026-04-26T08:58:49.193Z</time></trkpt><trkpt lat="45.9526985" lon="11.6518877"><ele>1388.6666666666665</ele><time>2026-04-26T08:58:50.193Z</time></trkpt><trkpt lat="45.9527916" lon="11.652119"><ele>1390.3333333333333</ele><time>2026-04-26T08:58:51.194Z</time></trkpt><trkpt lat="45.9528729" lon="11.6523289"><ele>1392.0</ele><time>2026-04-26T08:58:52.194Z</time></trkpt><trkpt lat="45.9529399" lon="11.6524952"><ele>1392.0</ele><time>2026-04-26T08:58:53.195Z</time></trkpt><trkpt lat="45.9529936" lon="11.6526245"><ele>1392.0</ele><time>2026-04-26T08:58:54.193Z</time></trkpt><trkpt lat="45.9530412" lon="11.65273"><ele>1392.0</ele><time>2026-04-26T08:58:55.193Z</time></trkpt><trkpt lat="45.9530887" lon="11.6528315"><ele>1392.0</ele><time>2026-04-26T08:58:56.194Z</time></trkpt><trkpt lat="45.9531383" lon="11.6529464"><ele>1392.0</ele><time>2026-04-26T08:58:57.195Z</time></trkpt><trkpt lat="45.9531832" lon="11.653084"><ele>1390.25</ele><time>2026-04-26T08:58:58.191Z</time></trkpt><trkpt lat="45.9532079" lon="11.6532446"><ele>1388.5</ele><time>2026-04-26T08:58:59.194Z</time></trkpt><trkpt lat="45.9532116" lon="11.6534078"><ele>1386.75</ele><time>2026-04-26T08:59:00.191Z</time></trkpt><trkpt lat="45.9532081" lon="11.6535753"><ele>1385.0</ele><time>2026-04-26T08:59:01.194Z</time></trkpt><trkpt lat="45.9532155" lon="11.6537667"><ele>1384.3333333333335</ele><time>2026-04-26T08:59:02.196Z</time></trkpt><trkpt lat="45.9532394" lon="11.6539895"><ele>1383.6666666666667</ele><time>2026-04-26T08:59:03.194Z</time></trkpt><trkpt lat="45.9532672" lon="11.6542348"><ele>1383.0</ele><time>2026-04-26T08:59:04.193Z</time></trkpt><trkpt lat="45.9532935" lon="11.6544759"><ele>1387.0</ele><time>2026-04-26T08:59:05.192Z</time></trkpt><trkpt lat="45.9533514" lon="11.654923"><ele>1391.0</ele><time>2026-04-26T08:59:07.19Z</time></trkpt><trkpt lat="45.9533841" lon="11.6551201"><ele>1380.25</ele><time>2026-04-26T08:59:08.192Z</time></trkpt><trkpt lat="45.9534138" lon="11.6552988"><ele>1369.5</ele><time>2026-04-26T08:59:09.19Z</time></trkpt><trkpt lat="45.9534384" lon="11.6554613"><ele>1358.75</ele><time>2026-04-26T08:59:10.192Z</time></trkpt><trkpt lat="45.9534527" lon="11.6556196"><ele>1348.0</ele><time>2026-04-26T08:59:11.192Z</time></trkpt><trkpt lat="45.9534511" lon="11.6557874"><ele>1348.0</ele><time>2026-04-26T08:59:12.193Z</time></trkpt><trkpt lat="45.9534299" lon="11.6559717"><ele>1348.0</ele><time>2026-04-26T08:59:13.191Z</time></trkpt><trkpt lat="45.953399" lon="11.6561699"><ele>1348.0</ele><time>2026-04-26T08:59:14.191Z</time></trkpt><trkpt lat="45.9533716" lon="11.6563607"><ele>1348.0</ele><time>2026-04-26T08:59:15.19Z</time></trkpt><trkpt lat="45.9533479" lon="11.6565371"><ele>1349.8000000000002</ele><time>2026-04-26T08:59:16.193Z</time></trkpt><trkpt lat="45.953323" lon="11.6566977"><ele>1351.6</ele><time>2026-04-26T08:59:17.194Z</time></trkpt><trkpt lat="45.953294" lon="11.6568434"><ele>1353.4</ele><time>2026-04-26T08:59:18.192Z</time></trkpt><trkpt lat="45.953255" lon="11.6569734"><ele>1355.1999999999998</ele><time>2026-04-26T08:59:19.192Z</time></trkpt><trkpt lat="45.9531973" lon="11.6570762"><ele>1357.0</ele><time>2026-04-26T08:59:20.192Z</time></trkpt><trkpt lat="45.9531223" lon="11.6571447"><ele>1357.0</ele><time>2026-04-26T08:59:21.191Z</time></trkpt><trkpt lat="45.9530273" lon="11.6571679"><ele>1357.0</ele><time>2026-04-26T08:59:22.191Z</time></trkpt><trkpt lat="45.9529094" lon="11.6571878"><ele>1357.0</ele><time>2026-04-26T08:59:23.19Z</time></trkpt><trkpt lat="45.9527686" lon="11.6572178"><ele>1357.0</ele><time>2026-04-26T08:59:24.192Z</time></trkpt><trkpt lat="45.9526233" lon="11.6572552"><ele>1360.5</ele><time>2026-04-26T08:59:25.191Z</time></trkpt><trkpt lat="45.952479" lon="11.657291"><ele>1364.0</ele><time>2026-04-26T08:59:26.19Z</time></trkpt><trkpt lat="45.9521736" lon="11.6573606"><ele>1364.0</ele><time>2026-04-26T08:59:28.191Z</time></trkpt><trkpt lat="45.9520332" lon="11.6574006"><ele>1364.0</ele><time>2026-04-26T08:59:29.191Z</time></trkpt><trkpt lat="45.9519097" lon="11.6574622"><ele>1364.0</ele><time>2026-04-26T08:59:30.191Z</time></trkpt><trkpt lat="45.9518103" lon="11.6575574"><ele>1364.0</ele><time>2026-04-26T08:59:31.191Z</time></trkpt><trkpt lat="45.9517271" lon="11.6576597"><ele>1363.8000000000002</ele><time>2026-04-26T08:59:32.189Z</time></trkpt><trkpt lat="45.9516582" lon="11.6577649"><ele>1363.6000000000001</ele><time>2026-04-26T08:59:33.192Z</time></trkpt><trkpt lat="45.951607" lon="11.6578846"><ele>1363.4</ele><time>2026-04-26T08:59:34.188Z</time></trkpt><trkpt lat="45.9515809" lon="11.6580232"><ele>1363.2</ele><time>2026-04-26T08:59:35.189Z</time></trkpt><trkpt lat="45.9515861" lon="11.6581632"><ele>1363.0</ele><time>2026-04-26T08:59:36.189Z</time></trkpt><trkpt lat="45.9516067" lon="11.6582967"><ele>1363.0</ele><time>2026-04-26T08:59:37.19Z</time></trkpt><trkpt lat="45.9516317" lon="11.658426"><ele>1363.0</ele><time>2026-04-26T08:59:38.191Z</time></trkpt><trkpt lat="45.9516619" lon="11.6585564"><ele>1363.0</ele><time>2026-04-26T08:59:39.19Z</time></trkpt><trkpt lat="45.9516885" lon="11.658688"><ele>1363.0</ele><time>2026-04-26T08:59:40.192Z</time></trkpt><trkpt lat="45.9516974" lon="11.6588207"><ele>1363.0</ele><time>2026-04-26T08:59:41.191Z</time></trkpt><trkpt lat="45.9516826" lon="11.6589602"><ele>1362.75</ele><time>2026-04-26T08:59:42.19Z</time></trkpt><trkpt lat="45.9516411" lon="11.6591059"><ele>1362.5</ele><time>2026-04-26T08:59:43.193Z</time></trkpt><trkpt lat="45.9515744" lon="11.6592467"><ele>1362.25</ele><time>2026-04-26T08:59:44.191Z</time></trkpt><trkpt lat="45.9514927" lon="11.6593834"><ele>1362.0</ele><time>2026-04-26T08:59:45.191Z</time></trkpt><trkpt lat="45.9514072" lon="11.6595047"><ele>1358.5</ele><time>2026-04-26T08:59:46.188Z</time></trkpt><trkpt lat="45.9513239" lon="11.6596169"><ele>1355.0</ele><time>2026-04-26T08:59:47.191Z</time></trkpt><trkpt lat="45.9511915" lon="11.6598321"><ele>1351.5</ele><time>2026-04-26T08:59:49.19Z</time></trkpt><trkpt lat="45.951153" lon="11.6599374"><ele>1348.0</ele><time>2026-04-26T08:59:50.19Z</time></trkpt><trkpt lat="45.9511343" lon="11.6600465"><ele>1348.0</ele><time>2026-04-26T08:59:51.189Z</time></trkpt><trkpt lat="45.9511501" lon="11.6601547"><ele>1348.0</ele><time>2026-04-26T08:59:52.19Z</time></trkpt><trkpt lat="45.9511923" lon="11.6602513"><ele>1348.0</ele><time>2026-04-26T08:59:53.189Z</time></trkpt><trkpt lat="45.9512449" lon="11.6603414"><ele>1348.0</ele><time>2026-04-26T08:59:54.188Z</time></trkpt><trkpt lat="45.9513257" lon="11.6604242"><ele>1348.0</ele><time>2026-04-26T08:59:55.191Z</time></trkpt><trkpt lat="45.9514212" lon="11.6605288"><ele>1349.5</ele><time>2026-04-26T08:59:56.191Z</time></trkpt><trkpt lat="45.9515189" lon="11.6606673"><ele>1351.0</ele><time>2026-04-26T08:59:57.188Z</time></trkpt><trkpt lat="45.9516102" lon="11.6608272"><ele>1352.5</ele><time>2026-04-26T08:59:58.189Z</time></trkpt><trkpt lat="45.9516899" lon="11.6609882"><ele>1354.0</ele><time>2026-04-26T08:59:59.19Z</time></trkpt><trkpt lat="45.9517574" lon="11.6611494"><ele>1347.4</ele><time>2026-04-26T09:00:00.19Z</time></trkpt><trkpt lat="45.9518124" lon="11.6613055"><ele>1340.8000000000002</ele><time>2026-04-26T09:00:01.191Z</time></trkpt><trkpt lat="45.9518541" lon="11.6614478"><ele>1334.1999999999998</ele><time>2026-04-26T09:00:02.192Z</time></trkpt><trkpt lat="45.9518786" lon="11.6615834"><ele>1327.6</ele><time>2026-04-26T09:00:03.193Z</time></trkpt><trkpt lat="45.9518756" lon="11.6617196"><ele>1321.0</ele><time>2026-04-26T09:00:04.192Z</time></trkpt><trkpt lat="45.9518526" lon="11.6618421"><ele>1323.25</ele><time>2026-04-26T09:00:05.191Z</time></trkpt><trkpt lat="45.9518301" lon="11.6619536"><ele>1325.5</ele><time>2026-04-26T09:00:06.191Z</time></trkpt><trkpt lat="45.9518278" lon="11.6620657"><ele>1327.75</ele><time>2026-04-26T09:00:07.192Z</time></trkpt><trkpt lat="45.9518969" lon="11.6622344"><ele>1330.0</ele><time>2026-04-26T09:00:09.191Z</time></trkpt><trkpt lat="45.9520914" lon="11.662479"><ele>1330.0</ele><time>2026-04-26T09:00:11.192Z</time></trkpt><trkpt lat="45.9521958" lon="11.6626147"><ele>1330.0</ele><time>2026-04-26T09:00:12.192Z</time></trkpt><trkpt lat="45.9522807" lon="11.6627294"><ele>1330.0</ele><time>2026-04-26T09:00:13.193Z</time></trkpt><trkpt lat="45.9523495" lon="11.6628324"><ele>1330.0</ele><time>2026-04-26T09:00:14.193Z</time></trkpt><trkpt lat="45.9523995" lon="11.6629509"><ele>1332.5</ele><time>2026-04-26T09:00:15.191Z</time></trkpt><trkpt lat="45.9524264" lon="11.6630984"><ele>1335.0</ele><time>2026-04-26T09:00:16.19Z</time></trkpt><trkpt lat="45.9524261" lon="11.6632795"><ele>1337.5</ele><time>2026-04-26T09:00:17.192Z</time></trkpt><trkpt lat="45.9524326" lon="11.6634729"><ele>1340.0</ele><time>2026-04-26T09:00:18.192Z</time></trkpt><trkpt lat="45.9524529" lon="11.6636518"><ele>1340.0</ele><time>2026-04-26T09:00:19.194Z</time></trkpt><trkpt lat="45.952459" lon="11.6638248"><ele>1340.0</ele><time>2026-04-26T09:00:20.192Z</time></trkpt><trkpt lat="45.9524469" lon="11.6640108"><ele>1340.0</ele><time>2026-04-26T09:00:21.19Z</time></trkpt><trkpt lat="45.9524243" lon="11.6642078"><ele>1340.0</ele><time>2026-04-26T09:00:22.189Z</time></trkpt><trkpt lat="45.9523879" lon="11.664399"><ele>1337.25</ele><time>2026-04-26T09:00:23.191Z</time></trkpt><trkpt lat="45.9523508" lon="11.6645835"><ele>1334.5</ele><time>2026-04-26T09:00:24.191Z</time></trkpt><trkpt lat="45.9523107" lon="11.6647586"><ele>1331.75</ele><time>2026-04-26T09:00:25.19Z</time></trkpt><trkpt lat="45.9522654" lon="11.6649209"><ele>1329.0</ele><time>2026-04-26T09:00:26.191Z</time></trkpt><trkpt lat="45.9522365" lon="11.6650831"><ele>1329.0</ele><time>2026-04-26T09:00:27.192Z</time></trkpt><trkpt lat="45.9522377" lon="11.6652652"><ele>1329.0</ele><time>2026-04-26T09:00:28.189Z</time></trkpt><trkpt lat="45.9522509" lon="11.6654764"><ele>1329.0</ele><time>2026-04-26T09:00:29.192Z</time></trkpt><trkpt lat="45.952272" lon="11.6656941"><ele>1329.0</ele><time>2026-04-26T09:00:30.191Z</time></trkpt><trkpt lat="45.9523291" lon="11.6660856"><ele>1333.25</ele><time>2026-04-26T09:00:32.192Z</time></trkpt><trkpt lat="45.9523614" lon="11.666264"><ele>1337.5</ele><time>2026-04-26T09:00:33.19Z</time></trkpt><trkpt lat="45.9523962" lon="11.6664335"><ele>1341.75</ele><time>2026-04-26T09:00:34.189Z</time></trkpt><trkpt lat="45.9524413" lon="11.6665902"><ele>1346.0</ele><time>2026-04-26T09:00:35.19Z</time></trkpt><trkpt lat="45.9525" lon="11.6667286"><ele>1337.5</ele><time>2026-04-26T09:00:36.189Z</time></trkpt><trkpt lat="45.9525649" lon="11.6668563"><ele>1329.0</ele><time>2026-04-26T09:00:37.189Z</time></trkpt><trkpt lat="45.9526173" lon="11.6669941"><ele>1320.5</ele><time>2026-04-26T09:00:38.19Z</time></trkpt><trkpt lat="45.9526584" lon="11.6671578"><ele>1312.0</ele><time>2026-04-26T09:00:39.191Z</time></trkpt><trkpt lat="45.9526968" lon="11.66734"><ele>1312.0</ele><time>2026-04-26T09:00:40.189Z</time></trkpt><trkpt lat="45.9527341" lon="11.667517"><ele>1312.0</ele><time>2026-04-26T09:00:41.19Z</time></trkpt><trkpt lat="45.9527783" lon="11.6676729"><ele>1312.0</ele><time>2026-04-26T09:00:42.19Z</time></trkpt><trkpt lat="45.9528178" lon="11.6678007"><ele>1312.0</ele><time>2026-04-26T09:00:43.189Z</time></trkpt><trkpt lat="45.9528417" lon="11.6679085"><ele>1312.0</ele><time>2026-04-26T09:00:44.19Z</time></trkpt><trkpt lat="45.9528288" lon="11.6680192"><ele>1309.5</ele><time>2026-04-26T09:00:45.188Z</time></trkpt><trkpt lat="45.9527776" lon="11.6681268"><ele>1307.0</ele><time>2026-04-26T09:00:46.187Z</time></trkpt><trkpt lat="45.9526992" lon="11.6682402"><ele>1304.5</ele><time>2026-04-26T09:00:47.19Z</time></trkpt><trkpt lat="45.9525863" lon="11.6683623"><ele>1302.0</ele><time>2026-04-26T09:00:48.187Z</time></trkpt><trkpt lat="45.9524703" lon="11.6685034"><ele>1307.0</ele><time>2026-04-26T09:00:49.189Z</time></trkpt><trkpt lat="45.9523628" lon="11.668691"><ele>1312.0</ele><time>2026-04-26T09:00:50.19Z</time></trkpt><trkpt lat="45.952248" lon="11.6688971"><ele>1317.0</ele><time>2026-04-26T09:00:51.189Z</time></trkpt><trkpt lat="45.9520002" lon="11.6692271"><ele>1317.0</ele><time>2026-04-26T09:00:53.19Z</time></trkpt><trkpt lat="45.9518878" lon="11.6694076"><ele>1317.0</ele><time>2026-04-26T09:00:54.188Z</time></trkpt><trkpt lat="45.9517829" lon="11.6696295"><ele>1317.0</ele><time>2026-04-26T09:00:55.19Z</time></trkpt><trkpt lat="45.9516752" lon="11.6698659"><ele>1314.6666666666667</ele><time>2026-04-26T09:00:56.188Z</time></trkpt><trkpt lat="45.9515742" lon="11.6700852"><ele>1312.3333333333335</ele><time>2026-04-26T09:00:57.189Z</time></trkpt><trkpt lat="45.951482" lon="11.670288"><ele>1310.0</ele><time>2026-04-26T09:00:58.189Z</time></trkpt><trkpt lat="45.9513846" lon="11.670484"><ele>1310.0</ele><time>2026-04-26T09:00:59.188Z</time></trkpt><trkpt lat="45.9512758" lon="11.6706885"><ele>1310.0</ele><time>2026-04-26T09:01:00.188Z</time></trkpt><trkpt lat="45.9511506" lon="11.6708887"><ele>1310.0</ele><time>2026-04-26T09:01:01.186Z</time></trkpt><trkpt lat="45.9510174" lon="11.6710798"><ele>1311.3333333333335</ele><time>2026-04-26T09:01:02.189Z</time></trkpt><trkpt lat="45.9508811" lon="11.6712618"><ele>1312.6666666666667</ele><time>2026-04-26T09:01:03.189Z</time></trkpt><trkpt lat="45.9507544" lon="11.6714408"><ele>1314.0</ele><time>2026-04-26T09:01:04.19Z</time></trkpt><trkpt lat="45.9506368" lon="11.6716031"><ele>1314.0</ele><time>2026-04-26T09:01:05.188Z</time></trkpt><trkpt lat="45.9505345" lon="11.6717528"><ele>1314.0</ele><time>2026-04-26T09:01:06.188Z</time></trkpt><trkpt lat="45.9504466" lon="11.6718767"><ele>1314.0</ele><time>2026-04-26T09:01:07.187Z</time></trkpt><trkpt lat="45.9503892" lon="11.6719909"><ele>1314.0</ele><time>2026-04-26T09:01:08.189Z</time></trkpt><trkpt lat="45.9503563" lon="11.6721046"><ele>1309.5</ele><time>2026-04-26T09:01:09.189Z</time></trkpt><trkpt lat="45.9503403" lon="11.6722214"><ele>1305.0</ele><time>2026-04-26T09:01:10.187Z</time></trkpt><trkpt lat="45.9503499" lon="11.6723673"><ele>1300.5</ele><time>2026-04-26T09:01:11.188Z</time></trkpt><trkpt lat="45.9503832" lon="11.6725482"><ele>1296.0</ele><time>2026-04-26T09:01:12.187Z</time></trkpt><trkpt lat="45.9504433" lon="11.6729388"><ele>1294.0</ele><time>2026-04-26T09:01:14.189Z</time></trkpt><trkpt lat="45.9504634" lon="11.6731431"><ele>1292.0</ele><time>2026-04-26T09:01:15.188Z</time></trkpt><trkpt lat="45.9504788" lon="11.6733607"><ele>1290.0</ele><time>2026-04-26T09:01:16.188Z</time></trkpt><trkpt lat="45.9504856" lon="11.6735848"><ele>1289.6666666666667</ele><time>2026-04-26T09:01:17.19Z</time></trkpt><trkpt lat="45.9504849" lon="11.67383"><ele>1289.3333333333335</ele><time>2026-04-26T09:01:18.188Z</time></trkpt><trkpt lat="45.9504797" lon="11.6740866"><ele>1289.0</ele><time>2026-04-26T09:01:19.189Z</time></trkpt><trkpt lat="45.9504681" lon="11.6743328"><ele>1287.6666666666667</ele><time>2026-04-26T09:01:20.19Z</time></trkpt><trkpt lat="45.950451" lon="11.6745674"><ele>1286.3333333333333</ele><time>2026-04-26T09:01:21.19Z</time></trkpt><trkpt lat="45.9504364" lon="11.6747892"><ele>1285.0</ele><time>2026-04-26T09:01:22.189Z</time></trkpt><trkpt lat="45.9504255" lon="11.6749918"><ele>1285.0</ele><time>2026-04-26T09:01:23.191Z</time></trkpt><trkpt lat="45.9504103" lon="11.6751796"><ele>1285.0</ele><time>2026-04-26T09:01:24.188Z</time></trkpt><trkpt lat="45.9503941" lon="11.6753584"><ele>1285.0</ele><time>2026-04-26T09:01:25.189Z</time></trkpt><trkpt lat="45.9503709" lon="11.6755282"><ele>1285.0</ele><time>2026-04-26T09:01:26.191Z</time></trkpt><trkpt lat="45.9503351" lon="11.675695"><ele>1283.4</ele><time>2026-04-26T09:01:27.19Z</time></trkpt><trkpt lat="45.9502771" lon="11.6758416"><ele>1281.8</ele><time>2026-04-26T09:01:28.189Z</time></trkpt><trkpt lat="45.950202" lon="11.6759605"><ele>1280.2</ele><time>2026-04-26T09:01:29.192Z</time></trkpt><trkpt lat="45.9501154" lon="11.6760387"><ele>1278.6</ele><time>2026-04-26T09:01:30.189Z</time></trkpt><trkpt lat="45.9500159" lon="11.6760659"><ele>1277.0</ele><time>2026-04-26T09:01:31.189Z</time></trkpt><trkpt lat="45.9498988" lon="11.6760524"><ele>1284.0</ele><time>2026-04-26T09:01:32.19Z</time></trkpt><trkpt lat="45.9497726" lon="11.6760194"><ele>1291.0</ele><time>2026-04-26T09:01:33.188Z</time></trkpt><trkpt lat="45.9495468" lon="11.6759373"><ele>1298.0</ele><time>2026-04-26T09:01:35.187Z</time></trkpt><trkpt lat="45.9494549" lon="11.6758829"><ele>1298.0</ele><time>2026-04-26T09:01:36.186Z</time></trkpt><trkpt lat="45.949373" lon="11.6758482"><ele>1298.0</ele><time>2026-04-26T09:01:37.186Z</time></trkpt><trkpt lat="45.9492994" lon="11.6758495"><ele>1298.0</ele><time>2026-04-26T09:01:38.187Z</time></trkpt><trkpt lat="45.949213" lon="11.6759739"><ele>1298.0</ele><time>2026-04-26T09:01:40.188Z</time></trkpt><trkpt lat="45.9492116" lon="11.67607"><ele>1298.0</ele><time>2026-04-26T09:01:41.188Z</time></trkpt><trkpt lat="45.9492198" lon="11.6761947"><ele>1298.0</ele><time>2026-04-26T09:01:42.189Z</time></trkpt><trkpt lat="45.9492357" lon="11.6763519"><ele>1294.25</ele><time>2026-04-26T09:01:43.187Z</time></trkpt><trkpt lat="45.9492459" lon="11.6765279"><ele>1290.5</ele><time>2026-04-26T09:01:44.19Z</time></trkpt><trkpt lat="45.9492511" lon="11.6766957"><ele>1286.75</ele><time>2026-04-26T09:01:45.189Z</time></trkpt><trkpt lat="45.9492488" lon="11.6768671"><ele>1283.0</ele><time>2026-04-26T09:01:46.188Z</time></trkpt><trkpt lat="45.9492369" lon="11.6770297"><ele>1284.5</ele><time>2026-04-26T09:01:47.19Z</time></trkpt><trkpt lat="45.9492073" lon="11.6771789"><ele>1286.0</ele><time>2026-04-26T09:01:48.19Z</time></trkpt><trkpt lat="45.949154" lon="11.6773104"><ele>1287.5</ele><time>2026-04-26T09:01:49.189Z</time></trkpt><trkpt lat="45.9490799" lon="11.6774288"><ele>1289.0</ele><time>2026-04-26T09:01:50.19Z</time></trkpt><trkpt lat="45.9489777" lon="11.6775371"><ele>1289.0</ele><time>2026-04-26T09:01:51.19Z</time></trkpt><trkpt lat="45.9488472" lon="11.6776349"><ele>1289.0</ele><time>2026-04-26T09:01:52.191Z</time></trkpt><trkpt lat="45.9487184" lon="11.6777192"><ele>1289.0</ele><time>2026-04-26T09:01:53.189Z</time></trkpt><trkpt lat="45.9485915" lon="11.6777969"><ele>1289.0</ele><time>2026-04-26T09:01:54.19Z</time></trkpt><trkpt lat="45.9483042" lon="11.6779352"><ele>1287.6</ele><time>2026-04-26T09:01:56.189Z</time></trkpt><trkpt lat="45.9481678" lon="11.6779867"><ele>1286.2</ele><time>2026-04-26T09:01:57.189Z</time></trkpt><trkpt lat="45.9480551" lon="11.6780379"><ele>1284.8</ele><time>2026-04-26T09:01:58.189Z</time></trkpt><trkpt lat="45.9479669" lon="11.6780995"><ele>1283.3999999999999</ele><time>2026-04-26T09:01:59.189Z</time></trkpt><trkpt lat="45.9479005" lon="11.6781847"><ele>1282.0</ele><time>2026-04-26T09:02:00.189Z</time></trkpt><trkpt lat="45.9478687" lon="11.6782952"><ele>1282.0</ele><time>2026-04-26T09:02:01.189Z</time></trkpt><trkpt lat="45.9478784" lon="11.6784157"><ele>1282.0</ele><time>2026-04-26T09:02:02.189Z</time></trkpt><trkpt lat="45.947923" lon="11.6785481"><ele>1282.0</ele><time>2026-04-26T09:02:03.192Z</time></trkpt><trkpt lat="45.9479865" lon="11.6786855"><ele>1282.0</ele><time>2026-04-26T09:02:04.191Z</time></trkpt><trkpt lat="45.9480378" lon="11.6788295"><ele>1282.0</ele><time>2026-04-26T09:02:05.192Z</time></trkpt><trkpt lat="45.9480662" lon="11.6789797"><ele>1281.25</ele><time>2026-04-26T09:02:06.193Z</time></trkpt><trkpt lat="45.9480714" lon="11.6791406"><ele>1280.5</ele><time>2026-04-26T09:02:07.19Z</time></trkpt><trkpt lat="45.9480572" lon="11.6793172"><ele>1279.75</ele><time>2026-04-26T09:02:08.191Z</time></trkpt><trkpt lat="45.9480231" lon="11.679499"><ele>1279.0</ele><time>2026-04-26T09:02:09.19Z</time></trkpt><trkpt lat="45.9479696" lon="11.6796704"><ele>1277.4</ele><time>2026-04-26T09:02:10.191Z</time></trkpt><trkpt lat="45.9479052" lon="11.6798241"><ele>1275.8000000000002</ele><time>2026-04-26T09:02:11.192Z</time></trkpt><trkpt lat="45.9478437" lon="11.6799538"><ele>1274.1999999999998</ele><time>2026-04-26T09:02:12.191Z</time></trkpt><trkpt lat="45.9477869" lon="11.6800592"><ele>1272.6</ele><time>2026-04-26T09:02:13.193Z</time></trkpt><trkpt lat="45.9477283" lon="11.6801458"><ele>1271.0</ele><time>2026-04-26T09:02:14.192Z</time></trkpt><trkpt lat="45.9476567" lon="11.6802202"><ele>1269.5</ele><time>2026-04-26T09:02:15.192Z</time></trkpt><trkpt lat="45.9474853" lon="11.6803381"><ele>1268.0</ele><time>2026-04-26T09:02:17.191Z</time></trkpt><trkpt lat="45.947397" lon="11.6803781"><ele>1266.5</ele><time>2026-04-26T09:02:18.191Z</time></trkpt><trkpt lat="45.9473094" lon="11.6803993"><ele>1265.0</ele><time>2026-04-26T09:02:19.192Z</time></trkpt><trkpt lat="45.9472249" lon="11.6804083"><ele>1265.0</ele><time>2026-04-26T09:02:20.193Z</time></trkpt><trkpt lat="45.9471435" lon="11.6804203"><ele>1265.0</ele><time>2026-04-26T09:02:21.192Z</time></trkpt><trkpt lat="45.9470587" lon="11.680451"><ele>1265.0</ele><time>2026-04-26T09:02:22.19Z</time></trkpt><trkpt lat="45.9469739" lon="11.6805064"><ele>1265.0</ele><time>2026-04-26T09:02:23.193Z</time></trkpt><trkpt lat="45.9469049" lon="11.6805737"><ele>1265.0</ele><time>2026-04-26T09:02:24.189Z</time></trkpt><trkpt lat="45.9468502" lon="11.6806402"><ele>1265.0</ele><time>2026-04-26T09:02:25.189Z</time></trkpt><trkpt lat="45.9468023" lon="11.680704"><ele>1265.0</ele><time>2026-04-26T09:02:26.188Z</time></trkpt><trkpt lat="45.9467519" lon="11.6807641"><ele>1265.0</ele><time>2026-04-26T09:02:27.192Z</time></trkpt><trkpt lat="45.9466934" lon="11.6808252"><ele>1265.0</ele><time>2026-04-26T09:02:28.191Z</time></trkpt><trkpt lat="45.9466249" lon="11.680886"><ele>1265.0</ele><time>2026-04-26T09:02:29.192Z</time></trkpt><trkpt lat="45.9465518" lon="11.6809473"><ele>1265.0</ele><time>2026-04-26T09:02:30.191Z</time></trkpt><trkpt lat="45.9464817" lon="11.6809992"><ele>1265.0</ele><time>2026-04-26T09:02:31.191Z</time></trkpt><trkpt lat="45.946415" lon="11.6810401"><ele>1265.75</ele><time>2026-04-26T09:02:32.192Z</time></trkpt><trkpt lat="45.9463039" lon="11.6810807"><ele>1266.5</ele><time>2026-04-26T09:02:34.192Z</time></trkpt><trkpt lat="45.9462251" lon="11.6810898"><ele>1267.25</ele><time>2026-04-26T09:02:36.192Z</time></trkpt><trkpt lat="45.9461" lon="11.6809377"><ele>1268.0</ele><time>2026-04-26T09:03:57.193Z</time></trkpt><trkpt lat="45.9459627" lon="11.6806651"><ele>1268.0</ele><time>2026-04-26T09:04:00.193Z</time></trkpt><trkpt lat="45.9459378" lon="11.6805154"><ele>1268.0</ele><time>2026-04-26T09:04:01.191Z</time></trkpt><trkpt lat="45.9459222" lon="11.6803855"><ele>1268.0</ele><time>2026-04-26T09:04:02.193Z</time></trkpt><trkpt lat="45.9459041" lon="11.6802762"><ele>1268.0</ele><time>2026-04-26T09:04:03.191Z</time></trkpt><trkpt lat="45.9458721" lon="11.6801931"><ele>1268.0</ele><time>2026-04-26T09:04:04.193Z</time></trkpt><trkpt lat="45.9458213" lon="11.6801378"><ele>1268.0</ele><time>2026-04-26T09:04:05.191Z</time></trkpt><trkpt lat="45.9457538" lon="11.680122"><ele>1270.1666666666667</ele><time>2026-04-26T09:04:06.193Z</time></trkpt><trkpt lat="45.9456685" lon="11.6801458"><ele>1272.3333333333335</ele><time>2026-04-26T09:04:07.195Z</time></trkpt><trkpt lat="45.9455687" lon="11.6801903"><ele>1274.5</ele><time>2026-04-26T09:04:08.196Z</time></trkpt><trkpt lat="45.9454732" lon="11.6802259"><ele>1276.6666666666667</ele><time>2026-04-26T09:04:09.194Z</time></trkpt><trkpt lat="45.9453892" lon="11.6802457"><ele>1278.8333333333333</ele><time>2026-04-26T09:04:10.193Z</time></trkpt><trkpt lat="45.9453169" lon="11.6802519"><ele>1281.0</ele><time>2026-04-26T09:04:11.193Z</time></trkpt><trkpt lat="45.9452497" lon="11.6802437"><ele>1281.0</ele><time>2026-04-26T09:04:12.192Z</time></trkpt><trkpt lat="45.9451808" lon="11.6802163"><ele>1281.0</ele><time>2026-04-26T09:04:13.193Z</time></trkpt><trkpt lat="45.9451163" lon="11.6801737"><ele>1281.0</ele><time>2026-04-26T09:04:14.194Z</time></trkpt><trkpt lat="45.9450613" lon="11.6801156"><ele>1281.0</ele><time>2026-04-26T09:04:15.194Z</time></trkpt><trkpt lat="45.9449959" lon="11.6799772"><ele>1281.0</ele><time>2026-04-26T09:04:17.193Z</time></trkpt><trkpt lat="45.9449765" lon="11.6798822"><ele>1281.0</ele><time>2026-04-26T09:04:18.194Z</time></trkpt><trkpt lat="45.9449653" lon="11.6796443"><ele>1281.4</ele><time>2026-04-26T09:04:20.195Z</time></trkpt><trkpt lat="45.9449746" lon="11.6795138"><ele>1281.8</ele><time>2026-04-26T09:04:21.193Z</time></trkpt><trkpt lat="45.9449934" lon="11.6793896"><ele>1282.2</ele><time>2026-04-26T09:04:22.193Z</time></trkpt><trkpt lat="45.9450168" lon="11.6792579"><ele>1282.6000000000001</ele><time>2026-04-26T09:04:23.192Z</time></trkpt><trkpt lat="45.9450412" lon="11.6791108"><ele>1283.0</ele><time>2026-04-26T09:04:24.195Z</time></trkpt><trkpt lat="45.9450643" lon="11.6789566"><ele>1285.5</ele><time>2026-04-26T09:04:25.192Z</time></trkpt><trkpt lat="45.9450871" lon="11.6788171"><ele>1288.0</ele><time>2026-04-26T09:04:26.191Z</time></trkpt><trkpt lat="45.9451188" lon="11.6786906"><ele>1290.5</ele><time>2026-04-26T09:04:27.191Z</time></trkpt><trkpt lat="45.9451576" lon="11.678574"><ele>1293.0</ele><time>2026-04-26T09:04:28.191Z</time></trkpt><trkpt lat="45.9451988" lon="11.6784757"><ele>1295.5</ele><time>2026-04-26T09:04:29.193Z</time></trkpt><trkpt lat="45.9452357" lon="11.6783677"><ele>1298.0</ele><time>2026-04-26T09:04:30.192Z</time></trkpt><trkpt lat="45.9452496" lon="11.6782483"><ele>1299.1666666666667</ele><time>2026-04-26T09:04:31.192Z</time></trkpt><trkpt lat="45.94524" lon="11.6781388"><ele>1300.3333333333335</ele><time>2026-04-26T09:04:32.194Z</time></trkpt><trkpt lat="45.9452153" lon="11.67803"><ele>1301.5</ele><time>2026-04-26T09:04:33.191Z</time></trkpt><trkpt lat="45.9451908" lon="11.6779124"><ele>1302.6666666666667</ele><time>2026-04-26T09:04:34.192Z</time></trkpt><trkpt lat="45.945178" lon="11.6777919"><ele>1303.8333333333333</ele><time>2026-04-26T09:04:35.193Z</time></trkpt><trkpt lat="45.9451729" lon="11.6776622"><ele>1305.0</ele><time>2026-04-26T09:04:36.193Z</time></trkpt><trkpt lat="45.9451699" lon="11.6775376"><ele>1303.75</ele><time>2026-04-26T09:04:37.193Z</time></trkpt><trkpt lat="45.9451723" lon="11.6774379"><ele>1302.5</ele><time>2026-04-26T09:04:38.192Z</time></trkpt><trkpt lat="45.9451311" lon="11.6773063"><ele>1301.25</ele><time>2026-04-26T09:04:40.19Z</time></trkpt><trkpt lat="45.9449074" lon="11.6772805"><ele>1300.0</ele><time>2026-04-26T09:04:44.192Z</time></trkpt><trkpt lat="45.9448328" lon="11.6772998"><ele>1300.0</ele><time>2026-04-26T09:04:45.19Z</time></trkpt><trkpt lat="45.9447464" lon="11.677296"><ele>1300.0</ele><time>2026-04-26T09:04:46.193Z</time></trkpt><trkpt lat="45.9446481" lon="11.6772601"><ele>1300.0</ele><time>2026-04-26T09:04:47.192Z</time></trkpt><trkpt lat="45.9445582" lon="11.6772041"><ele>1300.0</ele><time>2026-04-26T09:04:48.192Z</time></trkpt><trkpt lat="45.9444851" lon="11.6771305"><ele>1300.0</ele><time>2026-04-26T09:04:49.192Z</time></trkpt><trkpt lat="45.9444171" lon="11.6770388"><ele>1300.0</ele><time>2026-04-26T09:04:50.19Z</time></trkpt><trkpt lat="45.9443639" lon="11.676938"><ele>1300.0</ele><time>2026-04-26T09:04:51.189Z</time></trkpt><trkpt lat="45.9443275" lon="11.6768217"><ele>1300.0</ele><time>2026-04-26T09:04:52.191Z</time></trkpt><trkpt lat="45.9443052" lon="11.6766825"><ele>1300.0</ele><time>2026-04-26T09:04:53.191Z</time></trkpt><trkpt lat="45.9442863" lon="11.6765188"><ele>1300.0</ele><time>2026-04-26T09:04:54.19Z</time></trkpt><trkpt lat="45.9442758" lon="11.6763648"><ele>1303.6</ele><time>2026-04-26T09:04:55.192Z</time></trkpt><trkpt lat="45.9442655" lon="11.6762192"><ele>1307.2</ele><time>2026-04-26T09:04:56.193Z</time></trkpt><trkpt lat="45.9442521" lon="11.676064"><ele>1310.8000000000002</ele><time>2026-04-26T09:04:57.191Z</time></trkpt><trkpt lat="45.9442436" lon="11.675909"><ele>1314.4</ele><time>2026-04-26T09:04:58.192Z</time></trkpt><trkpt lat="45.944244" lon="11.6757566"><ele>1318.0</ele><time>2026-04-26T09:04:59.191Z</time></trkpt><trkpt lat="45.9442425" lon="11.675593"><ele>1321.25</ele><time>2026-04-26T09:05:00.191Z</time></trkpt><trkpt lat="45.9442482" lon="11.6754274"><ele>1324.5</ele><time>2026-04-26T09:05:01.192Z</time></trkpt><trkpt lat="45.9442653" lon="11.6751299"><ele>1327.75</ele><time>2026-04-26T09:05:03.19Z</time></trkpt><trkpt lat="45.944274" lon="11.6749816"><ele>1331.0</ele><time>2026-04-26T09:05:04.19Z</time></trkpt><trkpt lat="45.9442828" lon="11.6748344"><ele>1331.5</ele><time>2026-04-26T09:05:05.189Z</time></trkpt><trkpt lat="45.9442845" lon="11.6746918"><ele>1332.0</ele><time>2026-04-26T09:05:06.191Z</time></trkpt><trkpt lat="45.944278" lon="11.6745649"><ele>1332.5</ele><time>2026-04-26T09:05:07.19Z</time></trkpt><trkpt lat="45.9442598" lon="11.6744474"><ele>1333.0</ele><time>2026-04-26T09:05:08.191Z</time></trkpt><trkpt lat="45.944229" lon="11.6743368"><ele>1333.5</ele><time>2026-04-26T09:05:09.189Z</time></trkpt><trkpt lat="45.9441901" lon="11.6742349"><ele>1334.0</ele><time>2026-04-26T09:05:10.189Z</time></trkpt><trkpt lat="45.9441473" lon="11.674141"><ele>1334.0000000000002</ele><time>2026-04-26T09:05:11.191Z</time></trkpt><trkpt lat="45.9441006" lon="11.674054"><ele>1334.0</ele><time>2026-04-26T09:05:12.19Z</time></trkpt><trkpt lat="45.9440507" lon="11.6739768"><ele>1334.0</ele><time>2026-04-26T09:05:13.191Z</time></trkpt><trkpt lat="45.944002" lon="11.6739103"><ele>1334.0</ele><time>2026-04-26T09:05:14.19Z</time></trkpt><trkpt lat="45.9439478" lon="11.6738563"><ele>1334.0</ele><time>2026-04-26T09:05:15.188Z</time></trkpt><trkpt lat="45.9438893" lon="11.6738167"><ele>1334.0000000000002</ele><time>2026-04-26T09:05:16.188Z</time></trkpt><trkpt lat="45.9438256" lon="11.673788"><ele>1334.0</ele><time>2026-04-26T09:05:17.188Z</time></trkpt><trkpt lat="45.9437105" lon="11.6737376"><ele>1334.0</ele><time>2026-04-26T09:05:19.191Z</time></trkpt><trkpt lat="45.9436028" lon="11.6736952"><ele>1334.0</ele><time>2026-04-26T09:05:21.192Z</time></trkpt><trkpt lat="45.9435022" lon="11.673619"><ele>1334.0</ele><time>2026-04-26T09:05:23.192Z</time></trkpt><trkpt lat="45.9433804" lon="11.6733972"><ele>1334.0</ele><time>2026-04-26T09:05:27.19Z</time></trkpt><trkpt lat="45.9433257" lon="11.6733193"><ele>1335.0</ele><time>2026-04-26T09:05:28.799Z</time></trkpt><trkpt lat="45.943236" lon="11.6732885"><ele>1336.0</ele><time>2026-04-26T09:05:30.189Z</time></trkpt><trkpt lat="45.9431391" lon="11.6732962"><ele>1337.0</ele><time>2026-04-26T09:05:31.19Z</time></trkpt><trkpt lat="45.9430268" lon="11.6733157"><ele>1338.0</ele><time>2026-04-26T09:05:32.19Z</time></trkpt><trkpt lat="45.9429071" lon="11.6733244"><ele>1339.0</ele><time>2026-04-26T09:05:33.189Z</time></trkpt><trkpt lat="45.942771" lon="11.673299"><ele>1339.0</ele><time>2026-04-26T09:05:34.19Z</time></trkpt><trkpt lat="45.9426365" lon="11.6732668"><ele>1339.0</ele><time>2026-04-26T09:05:35.191Z</time></trkpt><trkpt lat="45.9425229" lon="11.6732482"><ele>1339.0</ele><time>2026-04-26T09:05:36.191Z</time></trkpt><trkpt lat="45.9424217" lon="11.6732301"><ele>1339.0</ele><time>2026-04-26T09:05:37.188Z</time></trkpt><trkpt lat="45.9423358" lon="11.6732026"><ele>1339.0</ele><time>2026-04-26T09:05:38.189Z</time></trkpt><trkpt lat="45.942245" lon="11.67316"><ele>1339.3333333333333</ele><time>2026-04-26T09:05:39.189Z</time></trkpt><trkpt lat="45.9421593" lon="11.6731094"><ele>1339.6666666666665</ele><time>2026-04-26T09:05:40.187Z</time></trkpt><trkpt lat="45.9420839" lon="11.673047"><ele>1340.0</ele><time>2026-04-26T09:05:41.189Z</time></trkpt><trkpt lat="45.9420165" lon="11.6729646"><ele>1340.3333333333333</ele><time>2026-04-26T09:05:42.188Z</time></trkpt><trkpt lat="45.9419665" lon="11.6728669"><ele>1340.6666666666667</ele><time>2026-04-26T09:05:43.189Z</time></trkpt><trkpt lat="45.9419292" lon="11.6727526"><ele>1341.0</ele><time>2026-04-26T09:05:44.189Z</time></trkpt><trkpt lat="45.9419073" lon="11.6724972"><ele>1343.0</ele><time>2026-04-26T09:05:46.19Z</time></trkpt><trkpt lat="45.9419047" lon="11.6723958"><ele>1345.0</ele><time>2026-04-26T09:05:47.19Z</time></trkpt><trkpt lat="45.9418651" lon="11.6722639"><ele>1347.0</ele><time>2026-04-26T09:05:49.189Z</time></trkpt><trkpt lat="45.9417685" lon="11.6722433"><ele>1349.0</ele><time>2026-04-26T09:05:51.192Z</time></trkpt><trkpt lat="45.9416921" lon="11.6722714"><ele>1351.0</ele><time>2026-04-26T09:05:52.19Z</time></trkpt><trkpt lat="45.9416083" lon="11.6723302"><ele>1353.0</ele><time>2026-04-26T09:05:53.188Z</time></trkpt><trkpt lat="45.9415188" lon="11.6723991"><ele>1353.0</ele><time>2026-04-26T09:05:54.188Z</time></trkpt><trkpt lat="45.9414376" lon="11.6724497"><ele>1353.0</ele><time>2026-04-26T09:05:55.19Z</time></trkpt><trkpt lat="45.9413669" lon="11.6724832"><ele>1353.0</ele><time>2026-04-26T09:05:56.19Z</time></trkpt><trkpt lat="45.9412481" lon="11.6724812"><ele>1353.0</ele><time>2026-04-26T09:05:58.19Z</time></trkpt><trkpt lat="45.9411847" lon="11.6724492"><ele>1353.0</ele><time>2026-04-26T09:05:59.189Z</time></trkpt><trkpt lat="45.9411257" lon="11.6723789"><ele>1353.0</ele><time>2026-04-26T09:06:00.189Z</time></trkpt><trkpt lat="45.9410768" lon="11.6722852"><ele>1353.0</ele><time>2026-04-26T09:06:01.188Z</time></trkpt><trkpt lat="45.9410263" lon="11.6721888"><ele>1353.0</ele><time>2026-04-26T09:06:02.19Z</time></trkpt><trkpt lat="45.94098" lon="11.6720771"><ele>1353.0</ele><time>2026-04-26T09:06:03.189Z</time></trkpt><trkpt lat="45.9409305" lon="11.6719718"><ele>1353.0</ele><time>2026-04-26T09:06:04.185Z</time></trkpt><trkpt lat="45.9408824" lon="11.6718535"><ele>1353.0</ele><time>2026-04-26T09:06:05.187Z</time></trkpt><trkpt lat="45.9408156" lon="11.6716345"><ele>1356.6000000000001</ele><time>2026-04-26T09:06:07.188Z</time></trkpt><trkpt lat="45.940772" lon="11.6714791"><ele>1360.2</ele><time>2026-04-26T09:06:09.188Z</time></trkpt><trkpt lat="45.9407095" lon="11.6713989"><ele>1363.8</ele><time>2026-04-26T09:06:11.189Z</time></trkpt><trkpt lat="45.9405859" lon="11.6714322"><ele>1367.4</ele><time>2026-04-26T09:06:13.188Z</time></trkpt><trkpt lat="45.9405074" lon="11.6714728"><ele>1371.0</ele><time>2026-04-26T09:06:14.189Z</time></trkpt><trkpt lat="45.940426" lon="11.6715079"><ele>1371.0</ele><time>2026-04-26T09:06:15.188Z</time></trkpt><trkpt lat="45.9403378" lon="11.6715328"><ele>1371.0</ele><time>2026-04-26T09:06:16.187Z</time></trkpt><trkpt lat="45.9402562" lon="11.6715994"><ele>1371.0</ele><time>2026-04-26T09:06:17.189Z</time></trkpt><trkpt lat="45.9401919" lon="11.6716895"><ele>1371.0</ele><time>2026-04-26T09:06:18.188Z</time></trkpt><trkpt lat="45.9401376" lon="11.6717595"><ele>1371.0</ele><time>2026-04-26T09:06:18.99Z</time></trkpt><trkpt lat="45.9400517" lon="11.671855"><ele>1371.6666666666667</ele><time>2026-04-26T09:06:20.189Z</time></trkpt><trkpt lat="45.9399743" lon="11.671918"><ele>1372.3333333333333</ele><time>2026-04-26T09:06:21.188Z</time></trkpt><trkpt lat="45.9398947" lon="11.6719641"><ele>1373.0</ele><time>2026-04-26T09:06:22.189Z</time></trkpt><trkpt lat="45.9398115" lon="11.6719784"><ele>1373.6666666666665</ele><time>2026-04-26T09:06:23.191Z</time></trkpt><trkpt lat="45.939725" lon="11.6719559"><ele>1374.3333333333333</ele><time>2026-04-26T09:06:24.189Z</time></trkpt><trkpt lat="45.9396553" lon="11.6718984"><ele>1375.0</ele><time>2026-04-26T09:06:25.189Z</time></trkpt><trkpt lat="45.9395914" lon="11.671832"><ele>1375.0</ele><time>2026-04-26T09:06:26.19Z</time></trkpt><trkpt lat="45.9394622" lon="11.6716228"><ele>1375.0</ele><time>2026-04-26T09:06:28.188Z</time></trkpt><trkpt lat="45.9393986" lon="11.6715049"><ele>1375.0</ele><time>2026-04-26T09:06:29.187Z</time></trkpt><trkpt lat="45.9393507" lon="11.6714068"><ele>1375.0</ele><time>2026-04-26T09:06:30.187Z</time></trkpt><trkpt lat="45.9392873" lon="11.6712998"><ele>1375.4</ele><time>2026-04-26T09:06:32.189Z</time></trkpt><trkpt lat="45.9391923" lon="11.6712935"><ele>1375.8</ele><time>2026-04-26T09:06:34.19Z</time></trkpt><trkpt lat="45.939102" lon="11.6713789"><ele>1376.1999999999998</ele><time>2026-04-26T09:06:36.188Z</time></trkpt><trkpt lat="45.9390024" lon="11.6714734"><ele>1376.6</ele><time>2026-04-26T09:06:38.188Z</time></trkpt><trkpt lat="45.9388901" lon="11.6715494"><ele>1377.0</ele><time>2026-04-26T09:06:40.188Z</time></trkpt><trkpt lat="45.9387706" lon="11.6715923"><ele>1377.0</ele><time>2026-04-26T09:06:42.187Z</time></trkpt><trkpt lat="45.9386949" lon="11.6715686"><ele>1377.0</ele><time>2026-04-26T09:06:43.188Z</time></trkpt><trkpt lat="45.9386172" lon="11.6715267"><ele>1377.0</ele><time>2026-04-26T09:06:44.189Z</time></trkpt><trkpt lat="45.9385356" lon="11.6714639"><ele>1377.0</ele><time>2026-04-26T09:06:45.186Z</time></trkpt><trkpt lat="45.9384631" lon="11.6713884"><ele>1377.0</ele><time>2026-04-26T09:06:46.187Z</time></trkpt><trkpt lat="45.9383813" lon="11.6713267"><ele>1377.0</ele><time>2026-04-26T09:06:47.188Z</time></trkpt><trkpt lat="45.9382122" lon="11.6711793"><ele>1379.1666666666667</ele><time>2026-04-26T09:06:49.187Z</time></trkpt><trkpt lat="45.9381621" lon="11.6710975"><ele>1381.3333333333333</ele><time>2026-04-26T09:06:50.198Z</time></trkpt><trkpt lat="45.9381248" lon="11.6710113"><ele>1383.5</ele><time>2026-04-26T09:06:51.189Z</time></trkpt><trkpt lat="45.9380747" lon="11.6709279"><ele>1385.6666666666665</ele><time>2026-04-26T09:06:52.188Z</time></trkpt><trkpt lat="45.9380208" lon="11.6708735"><ele>1387.8333333333333</ele><time>2026-04-26T09:06:53.187Z</time></trkpt><trkpt lat="45.937888" lon="11.6708579"><ele>1390.0</ele><time>2026-04-26T09:06:55.187Z</time></trkpt><trkpt lat="45.9378019" lon="11.6709138"><ele>1390.0</ele><time>2026-04-26T09:06:56.187Z</time></trkpt><trkpt lat="45.9377349" lon="11.671006"><ele>1390.0</ele><time>2026-04-26T09:06:57.187Z</time></trkpt><trkpt lat="45.9376672" lon="11.6711166"><ele>1390.0</ele><time>2026-04-26T09:06:58.186Z</time></trkpt><trkpt lat="45.9375944" lon="11.671203"><ele>1390.0</ele><time>2026-04-26T09:06:59.187Z</time></trkpt><trkpt lat="45.9375128" lon="11.6712836"><ele>1390.0</ele><time>2026-04-26T09:07:00.189Z</time></trkpt><trkpt lat="45.9374283" lon="11.6713399"><ele>1386.0</ele><time>2026-04-26T09:07:01.188Z</time></trkpt><trkpt lat="45.9373446" lon="11.6713843"><ele>1382.0</ele><time>2026-04-26T09:07:02.187Z</time></trkpt><trkpt lat="45.9372682" lon="11.6714314"><ele>1378.0</ele><time>2026-04-26T09:07:03.186Z</time></trkpt><trkpt lat="45.9371474" lon="11.6714882"><ele>1374.0</ele><time>2026-04-26T09:07:05.189Z</time></trkpt><trkpt lat="45.9370026" lon="11.6714872"><ele>1370.0</ele><time>2026-04-26T09:07:07.187Z</time></trkpt><trkpt lat="45.9369053" lon="11.6714453"><ele>1374.3333333333335</ele><time>2026-04-26T09:07:08.188Z</time></trkpt><trkpt lat="45.9367168" lon="11.6712887"><ele>1378.6666666666667</ele><time>2026-04-26T09:07:10.185Z</time></trkpt><trkpt lat="45.9366206" lon="11.6711815"><ele>1383.0</ele><time>2026-04-26T09:07:11.19Z</time></trkpt><trkpt lat="45.936529" lon="11.6710817"><ele>1386.4</ele><time>2026-04-26T09:07:12.189Z</time></trkpt><trkpt lat="45.9364275" lon="11.6710054"><ele>1389.8000000000002</ele><time>2026-04-26T09:07:13.188Z</time></trkpt><trkpt lat="45.9363368" lon="11.6709215"><ele>1393.2</ele><time>2026-04-26T09:07:14.188Z</time></trkpt><trkpt lat="45.9362477" lon="11.6708535"><ele>1396.6</ele><time>2026-04-26T09:07:15.189Z</time></trkpt><trkpt lat="45.9361601" lon="11.6708078"><ele>1400.0</ele><time>2026-04-26T09:07:16.187Z</time></trkpt><trkpt lat="45.9360756" lon="11.6707704"><ele>1400.0</ele><time>2026-04-26T09:07:17.188Z</time></trkpt><trkpt lat="45.9360102" lon="11.6707338"><ele>1400.0</ele><time>2026-04-26T09:07:18.187Z</time></trkpt><trkpt lat="45.93594" lon="11.6707082"><ele>1400.0</ele><time>2026-04-26T09:07:19.189Z</time></trkpt><trkpt lat="45.9358737" lon="11.6706905"><ele>1400.0</ele><time>2026-04-26T09:07:20.188Z</time></trkpt><trkpt lat="45.9357506" lon="11.6706871"><ele>1400.0</ele><time>2026-04-26T09:07:22.19Z</time></trkpt><trkpt lat="45.9356482" lon="11.6707456"><ele>1400.0</ele><time>2026-04-26T09:07:24.189Z</time></trkpt><trkpt lat="45.9355678" lon="11.6708351"><ele>1399.75</ele><time>2026-04-26T09:07:26.189Z</time></trkpt><trkpt lat="45.9354811" lon="11.670923"><ele>1399.5</ele><time>2026-04-26T09:07:28.191Z</time></trkpt><trkpt lat="45.9354072" lon="11.6710215"><ele>1399.25</ele><time>2026-04-26T09:07:30.191Z</time></trkpt><trkpt lat="45.9352425" lon="11.6711869"><ele>1399.0</ele><time>2026-04-26T09:07:34.193Z</time></trkpt><trkpt lat="45.9351864" lon="11.6712422"><ele>1397.8000000000002</ele><time>2026-04-26T09:07:35.193Z</time></trkpt><trkpt lat="45.9351151" lon="11.6713082"><ele>1396.6000000000001</ele><time>2026-04-26T09:07:36.193Z</time></trkpt><trkpt lat="45.9350324" lon="11.6713759"><ele>1395.4</ele><time>2026-04-26T09:07:37.192Z</time></trkpt><trkpt lat="45.9349491" lon="11.6714371"><ele>1394.2</ele><time>2026-04-26T09:07:38.192Z</time></trkpt><trkpt lat="45.9348659" lon="11.6714809"><ele>1393.0</ele><time>2026-04-26T09:07:39.192Z</time></trkpt><trkpt lat="45.9347775" lon="11.6715115"><ele>1393.0</ele><time>2026-04-26T09:07:40.195Z</time></trkpt><trkpt lat="45.934687" lon="11.6715249"><ele>1393.0</ele><time>2026-04-26T09:07:41.192Z</time></trkpt><trkpt lat="45.9345972" lon="11.6715179"><ele>1393.0</ele><time>2026-04-26T09:07:42.191Z</time></trkpt><trkpt lat="45.9345053" lon="11.6714795"><ele>1393.0</ele><time>2026-04-26T09:07:43.192Z</time></trkpt><trkpt lat="45.9344079" lon="11.671403"><ele>1393.0</ele><time>2026-04-26T09:07:44.194Z</time></trkpt><trkpt lat="45.9343077" lon="11.6712911"><ele>1393.4</ele><time>2026-04-26T09:07:45.19Z</time></trkpt><trkpt lat="45.9342106" lon="11.6711715"><ele>1393.8000000000002</ele><time>2026-04-26T09:07:46.194Z</time></trkpt><trkpt lat="45.9341224" lon="11.671069"><ele>1394.2</ele><time>2026-04-26T09:07:47.194Z</time></trkpt><trkpt lat="45.9340447" lon="11.6709803"><ele>1394.6</ele><time>2026-04-26T09:07:48.191Z</time></trkpt><trkpt lat="45.9339727" lon="11.670907"><ele>1395.0</ele><time>2026-04-26T09:07:49.194Z</time></trkpt><trkpt lat="45.9339025" lon="11.6708387"><ele>1399.0</ele><time>2026-04-26T09:07:50.194Z</time></trkpt><trkpt lat="45.9338409" lon="11.6707653"><ele>1403.0</ele><time>2026-04-26T09:07:51.191Z</time></trkpt><trkpt lat="45.9337393" lon="11.6706059"><ele>1407.0</ele><time>2026-04-26T09:07:53.192Z</time></trkpt><trkpt lat="45.9336963" lon="11.6705079"><ele>1411.0</ele><time>2026-04-26T09:07:54.197Z</time></trkpt><trkpt lat="45.9336529" lon="11.6703894"><ele>1415.0</ele><time>2026-04-26T09:07:55.192Z</time></trkpt><trkpt lat="45.9336125" lon="11.6702473"><ele>1418.4</ele><time>2026-04-26T09:07:56.194Z</time></trkpt><trkpt lat="45.9335778" lon="11.6700938"><ele>1421.8</ele><time>2026-04-26T09:07:57.193Z</time></trkpt><trkpt lat="45.9335491" lon="11.6699365"><ele>1425.1999999999998</ele><time>2026-04-26T09:07:58.193Z</time></trkpt><trkpt lat="45.9335269" lon="11.6697939"><ele>1428.6</ele><time>2026-04-26T09:07:59.192Z</time></trkpt><trkpt lat="45.9335062" lon="11.6696583"><ele>1432.0</ele><time>2026-04-26T09:08:00.194Z</time></trkpt><trkpt lat="45.9334805" lon="11.6695209"><ele>1434.8333333333333</ele><time>2026-04-26T09:08:01.193Z</time></trkpt><trkpt lat="45.9334472" lon="11.6693861"><ele>1437.6666666666665</ele><time>2026-04-26T09:08:02.193Z</time></trkpt><trkpt lat="45.9334111" lon="11.6692718"><ele>1440.5</ele><time>2026-04-26T09:08:03.195Z</time></trkpt><trkpt lat="45.9333808" lon="11.6691721"><ele>1443.3333333333333</ele><time>2026-04-26T09:08:04.194Z</time></trkpt><trkpt lat="45.9333585" lon="11.6690862"><ele>1446.1666666666667</ele><time>2026-04-26T09:08:05.192Z</time></trkpt><trkpt lat="45.9333276" lon="11.6689314"><ele>1449.0</ele><time>2026-04-26T09:08:07.192Z</time></trkpt><trkpt lat="45.9333014" lon="11.668765"><ele>1443.5</ele><time>2026-04-26T09:08:09.19Z</time></trkpt><trkpt lat="45.9332831" lon="11.668657"><ele>1438.0</ele><time>2026-04-26T09:08:10.191Z</time></trkpt><trkpt lat="45.9332614" lon="11.6685169"><ele>1432.5</ele><time>2026-04-26T09:08:11.195Z</time></trkpt><trkpt lat="45.9332339" lon="11.6683478"><ele>1427.0</ele><time>2026-04-26T09:08:12.192Z</time></trkpt><trkpt lat="45.933183" lon="11.6680371"><ele>1427.0</ele><time>2026-04-26T09:08:14.199Z</time></trkpt><trkpt lat="45.9331655" lon="11.6679054"><ele>1427.0</ele><time>2026-04-26T09:08:15.192Z</time></trkpt><trkpt lat="45.9331529" lon="11.6677937"><ele>1427.0</ele><time>2026-04-26T09:08:16.192Z</time></trkpt><trkpt lat="45.9331321" lon="11.6676399"><ele>1427.0</ele><time>2026-04-26T09:08:18.191Z</time></trkpt><trkpt lat="45.9330984" lon="11.6675313"><ele>1427.0</ele><time>2026-04-26T09:08:38.193Z</time></trkpt><trkpt lat="45.9330551" lon="11.667286"><ele>1427.1666666666667</ele><time>2026-04-26T09:08:42.192Z</time></trkpt><trkpt lat="45.9330302" lon="11.6671951"><ele>1427.3333333333335</ele><time>2026-04-26T09:08:44.193Z</time></trkpt><trkpt lat="45.9330163" lon="11.6670137"><ele>1427.5</ele><time>2026-04-26T09:08:46.192Z</time></trkpt><trkpt lat="45.9330144" lon="11.6669185"><ele>1427.6666666666667</ele><time>2026-04-26T09:08:47.192Z</time></trkpt><trkpt lat="45.9330153" lon="11.6668201"><ele>1427.8333333333333</ele><time>2026-04-26T09:08:48.192Z</time></trkpt><trkpt lat="45.9330107" lon="11.6667161"><ele>1428.0</ele><time>2026-04-26T09:08:49.193Z</time></trkpt><trkpt lat="45.9330083" lon="11.6666188"><ele>1428.0</ele><time>2026-04-26T09:08:50.191Z</time></trkpt><trkpt lat="45.9330437" lon="11.6664431"><ele>1428.0</ele><time>2026-04-26T09:08:52.192Z</time></trkpt><trkpt lat="45.9330669" lon="11.6663489"><ele>1428.0</ele><time>2026-04-26T09:08:53.195Z</time></trkpt><trkpt lat="45.933074" lon="11.6662558"><ele>1428.0</ele><time>2026-04-26T09:08:54.192Z</time></trkpt><trkpt lat="45.9330837" lon="11.6661272"><ele>1428.0</ele><time>2026-04-26T09:08:56.189Z</time></trkpt><trkpt lat="45.9331068" lon="11.6660314"><ele>1428.0</ele><time>2026-04-26T09:09:21.19Z</time></trkpt><trkpt lat="45.9330879" lon="11.6657837"><ele>1427.1666666666667</ele><time>2026-04-26T09:09:24.19Z</time></trkpt><trkpt lat="45.9330666" lon="11.6656543"><ele>1426.3333333333333</ele><time>2026-04-26T09:09:25.194Z</time></trkpt><trkpt lat="45.9330433" lon="11.6655408"><ele>1425.5</ele><time>2026-04-26T09:09:26.191Z</time></trkpt><trkpt lat="45.9330093" lon="11.6654472"><ele>1424.6666666666665</ele><time>2026-04-26T09:09:27.19Z</time></trkpt><trkpt lat="45.9329625" lon="11.6653585"><ele>1423.8333333333333</ele><time>2026-04-26T09:09:28.19Z</time></trkpt><trkpt lat="45.9329032" lon="11.6652731"><ele>1423.0</ele><time>2026-04-26T09:09:29.192Z</time></trkpt><trkpt lat="45.9328364" lon="11.6651879"><ele>1422.6666666666665</ele><time>2026-04-26T09:09:30.193Z</time></trkpt><trkpt lat="45.9327677" lon="11.6651069"><ele>1422.3333333333333</ele><time>2026-04-26T09:09:31.19Z</time></trkpt><trkpt lat="45.9327021" lon="11.6650323"><ele>1422.0</ele><time>2026-04-26T09:09:32.193Z</time></trkpt><trkpt lat="45.9326369" lon="11.6649532"><ele>1421.6666666666667</ele><time>2026-04-26T09:09:33.192Z</time></trkpt><trkpt lat="45.932573" lon="11.6648724"><ele>1421.3333333333335</ele><time>2026-04-26T09:09:34.189Z</time></trkpt><trkpt lat="45.9325073" lon="11.6647896"><ele>1421.0</ele><time>2026-04-26T09:09:35.193Z</time></trkpt><trkpt lat="45.9324407" lon="11.6647021"><ele>1421.0</ele><time>2026-04-26T09:09:36.191Z</time></trkpt><trkpt lat="45.9323745" lon="11.664604"><ele>1421.0</ele><time>2026-04-26T09:09:37.191Z</time></trkpt><trkpt lat="45.9323098" lon="11.6644998"><ele>1421.0</ele><time>2026-04-26T09:09:38.192Z</time></trkpt><trkpt lat="45.9322463" lon="11.6644021"><ele>1421.0</ele><time>2026-04-26T09:09:39.192Z</time></trkpt><trkpt lat="45.9321891" lon="11.6643152"><ele>1421.0</ele><time>2026-04-26T09:09:40.191Z</time></trkpt><trkpt lat="45.9321339" lon="11.6642257"><ele>1422.1999999999998</ele><time>2026-04-26T09:09:41.192Z</time></trkpt><trkpt lat="45.9320819" lon="11.6641268"><ele>1423.3999999999999</ele><time>2026-04-26T09:09:42.193Z</time></trkpt><trkpt lat="45.9319849" lon="11.663913"><ele>1424.6</ele><time>2026-04-26T09:09:44.19Z</time></trkpt><trkpt lat="45.9319435" lon="11.6638166"><ele>1425.8</ele><time>2026-04-26T09:09:45.192Z</time></trkpt><trkpt lat="45.93191" lon="11.6637203"><ele>1427.0</ele><time>2026-04-26T09:09:46.189Z</time></trkpt><trkpt lat="45.9318843" lon="11.6636311"><ele>1427.1666666666667</ele><time>2026-04-26T09:09:47.189Z</time></trkpt><trkpt lat="45.9318577" lon="11.6635483"><ele>1427.3333333333335</ele><time>2026-04-26T09:09:48.188Z</time></trkpt><trkpt lat="45.931817" lon="11.6634619"><ele>1427.5</ele><time>2026-04-26T09:09:49.191Z</time></trkpt><trkpt lat="45.9317682" lon="11.6633868"><ele>1427.6666666666667</ele><time>2026-04-26T09:09:50.192Z</time></trkpt><trkpt lat="45.9317188" lon="11.663322"><ele>1427.8333333333333</ele><time>2026-04-26T09:09:51.191Z</time></trkpt><trkpt lat="45.9316376" lon="11.6632129"><ele>1428.0</ele><time>2026-04-26T09:09:53.192Z</time></trkpt><trkpt lat="45.9316016" lon="11.6631132"><ele>1428.0</ele><time>2026-04-26T09:09:55.192Z</time></trkpt><trkpt lat="45.9315401" lon="11.6630675"><ele>1428.0</ele><time>2026-04-26T09:09:59.193Z</time></trkpt><trkpt lat="45.9315812" lon="11.6631911"><ele>1428.0</ele><time>2026-04-26T09:10:06.192Z</time></trkpt><trkpt lat="45.9317086" lon="11.663336"><ele>1428.0</ele><time>2026-04-26T09:10:08.192Z</time></trkpt><trkpt lat="45.9317751" lon="11.6634334"><ele>1428.0</ele><time>2026-04-26T09:10:09.189Z</time></trkpt><trkpt lat="45.9318253" lon="11.6635307"><ele>1427.8333333333333</ele><time>2026-04-26T09:10:10.19Z</time></trkpt><trkpt lat="45.9318676" lon="11.6636362"><ele>1427.6666666666667</ele><time>2026-04-26T09:10:11.19Z</time></trkpt><trkpt lat="45.9318971" lon="11.6637378"><ele>1427.5</ele><time>2026-04-26T09:10:12.19Z</time></trkpt><trkpt lat="45.9319283" lon="11.663839"><ele>1427.3333333333335</ele><time>2026-04-26T09:10:13.192Z</time></trkpt><trkpt lat="45.9319726" lon="11.663944"><ele>1427.1666666666667</ele><time>2026-04-26T09:10:14.192Z</time></trkpt><trkpt lat="45.9320195" lon="11.6640462"><ele>1427.0</ele><time>2026-04-26T09:10:15.192Z</time></trkpt><trkpt lat="45.9320651" lon="11.6641426"><ele>1427.0</ele><time>2026-04-26T09:10:16.191Z</time></trkpt><trkpt lat="45.9321156" lon="11.6642392"><ele>1427.0</ele><time>2026-04-26T09:10:17.192Z</time></trkpt><trkpt lat="45.9321687" lon="11.6643265"><ele>1427.0</ele><time>2026-04-26T09:10:18.191Z</time></trkpt><trkpt lat="45.9322256" lon="11.6644129"><ele>1427.0</ele><time>2026-04-26T09:10:19.191Z</time></trkpt><trkpt lat="45.9322881" lon="11.664509"><ele>1427.0</ele><time>2026-04-26T09:10:20.192Z</time></trkpt><trkpt lat="45.932354" lon="11.6646141"><ele>1427.0</ele><time>2026-04-26T09:10:21.192Z</time></trkpt><trkpt lat="45.9324177" lon="11.6647113"><ele>1426.0</ele><time>2026-04-26T09:10:22.192Z</time></trkpt><trkpt lat="45.9324805" lon="11.6647975"><ele>1425.0</ele><time>2026-04-26T09:10:23.194Z</time></trkpt><trkpt lat="45.9325421" lon="11.6648744"><ele>1424.0</ele><time>2026-04-26T09:10:24.191Z</time></trkpt><trkpt lat="45.9326025" lon="11.6649497"><ele>1423.0</ele><time>2026-04-26T09:10:25.193Z</time></trkpt><trkpt lat="45.9326687" lon="11.6650327"><ele>1422.0</ele><time>2026-04-26T09:10:26.192Z</time></trkpt><trkpt lat="45.9327327" lon="11.6651095"><ele>1421.0</ele><time>2026-04-26T09:10:27.191Z</time></trkpt><trkpt lat="45.9328514" lon="11.6652391"><ele>1421.3333333333335</ele><time>2026-04-26T09:10:29.193Z</time></trkpt><trkpt lat="45.932904" lon="11.6653014"><ele>1421.6666666666667</ele><time>2026-04-26T09:10:30.19Z</time></trkpt><trkpt lat="45.9329508" lon="11.6653631"><ele>1422.0</ele><time>2026-04-26T09:10:31.191Z</time></trkpt><trkpt lat="45.9330232" lon="11.6655153"><ele>1422.3333333333333</ele><time>2026-04-26T09:10:33.193Z</time></trkpt><trkpt lat="45.9330477" lon="11.6656058"><ele>1422.6666666666665</ele><time>2026-04-26T09:10:34.191Z</time></trkpt><trkpt lat="45.9330622" lon="11.6657"><ele>1423.0</ele><time>2026-04-26T09:10:35.192Z</time></trkpt><trkpt lat="45.9330828" lon="11.6658565"><ele>1423.0</ele><time>2026-04-26T09:10:37.19Z</time></trkpt><trkpt lat="45.9330979" lon="11.6659557"><ele>1423.0</ele><time>2026-04-26T09:10:39.19Z</time></trkpt><trkpt lat="45.9331716" lon="11.6659693"><ele>1423.0</ele><time>2026-04-26T09:10:42.192Z</time></trkpt><trkpt lat="45.9332066" lon="11.6658789"><ele>1423.0</ele><time>2026-04-26T09:10:44.193Z</time></trkpt><trkpt lat="45.9332362" lon="11.6657573"><ele>1423.0</ele><time>2026-04-26T09:10:46.194Z</time></trkpt><trkpt lat="45.9332558" lon="11.6656703"><ele>1423.0</ele><time>2026-04-26T09:10:48.192Z</time></trkpt><trkpt lat="45.933306" lon="11.6654552"><ele>1423.0</ele><time>2026-04-26T09:10:52.192Z</time></trkpt><trkpt lat="45.9333446" lon="11.665325"><ele>1423.0</ele><time>2026-04-26T09:10:54.189Z</time></trkpt><trkpt lat="45.9333875" lon="11.6651847"><ele>1423.0</ele><time>2026-04-26T09:10:56.191Z</time></trkpt><trkpt lat="45.9334519" lon="11.6650342"><ele>1423.0</ele><time>2026-04-26T09:10:58.19Z</time></trkpt><trkpt lat="45.9334827" lon="11.6649519"><ele>1423.0</ele><time>2026-04-26T09:10:59.189Z</time></trkpt><trkpt lat="45.9335128" lon="11.6648721"><ele>1421.6666666666665</ele><time>2026-04-26T09:11:00.186Z</time></trkpt><trkpt lat="45.9335462" lon="11.6647865"><ele>1420.3333333333333</ele><time>2026-04-26T09:11:01.187Z</time></trkpt><trkpt lat="45.9335816" lon="11.6646811"><ele>1419.0</ele><time>2026-04-26T09:11:02.192Z</time></trkpt><trkpt lat="45.9336156" lon="11.664573"><ele>1417.6666666666667</ele><time>2026-04-26T09:11:03.189Z</time></trkpt><trkpt lat="45.9336498" lon="11.6644688"><ele>1416.3333333333335</ele><time>2026-04-26T09:11:04.19Z</time></trkpt><trkpt lat="45.9336794" lon="11.6643656"><ele>1415.0</ele><time>2026-04-26T09:11:05.19Z</time></trkpt><trkpt lat="45.9337029" lon="11.6642631"><ele>1412.5</ele><time>2026-04-26T09:11:06.189Z</time></trkpt><trkpt lat="45.9337275" lon="11.664174"><ele>1410.0</ele><time>2026-04-26T09:11:07.189Z</time></trkpt><trkpt lat="45.933749" lon="11.6640874"><ele>1407.5</ele><time>2026-04-26T09:11:08.188Z</time></trkpt><trkpt lat="45.9337758" lon="11.6639761"><ele>1405.0</ele><time>2026-04-26T09:11:09.189Z</time></trkpt><trkpt lat="45.9338158" lon="11.6637691"><ele>1402.5</ele><time>2026-04-26T09:11:11.188Z</time></trkpt><trkpt lat="45.9338212" lon="11.6636652"><ele>1400.0</ele><time>2026-04-26T09:11:12.189Z</time></trkpt><trkpt lat="45.9338292" lon="11.6635651"><ele>1398.6666666666667</ele><time>2026-04-26T09:11:13.187Z</time></trkpt><trkpt lat="45.933837" lon="11.6634721"><ele>1397.3333333333335</ele><time>2026-04-26T09:11:14.187Z</time></trkpt><trkpt lat="45.9338383" lon="11.66337"><ele>1396.0</ele><time>2026-04-26T09:11:15.188Z</time></trkpt><trkpt lat="45.933834" lon="11.6632604"><ele>1394.6666666666667</ele><time>2026-04-26T09:11:16.188Z</time></trkpt><trkpt lat="45.9338293" lon="11.6631398"><ele>1393.3333333333333</ele><time>2026-04-26T09:11:17.188Z</time></trkpt><trkpt lat="45.9338154" lon="11.6630219"><ele>1392.0</ele><time>2026-04-26T09:11:18.189Z</time></trkpt><trkpt lat="45.9338036" lon="11.662915"><ele>1392.0</ele><time>2026-04-26T09:11:19.187Z</time></trkpt><trkpt lat="45.9337893" lon="11.6628122"><ele>1392.0</ele><time>2026-04-26T09:11:20.226Z</time></trkpt><trkpt lat="45.9337765" lon="11.6627194"><ele>1392.0</ele><time>2026-04-26T09:11:21.188Z</time></trkpt><trkpt lat="45.9337416" lon="11.6625794"><ele>1392.0</ele><time>2026-04-26T09:11:23.187Z</time></trkpt><trkpt lat="45.9336854" lon="11.6624521"><ele>1392.0</ele><time>2026-04-26T09:11:25.188Z</time></trkpt><trkpt lat="45.933581" lon="11.6623717"><ele>1390.3999999999999</ele><time>2026-04-26T09:11:27.19Z</time></trkpt><trkpt lat="45.9334869" lon="11.6623356"><ele>1388.8</ele><time>2026-04-26T09:11:29.189Z</time></trkpt><trkpt lat="45.9334179" lon="11.6622918"><ele>1387.2</ele><time>2026-04-26T09:11:31.19Z</time></trkpt><trkpt lat="45.9334461" lon="11.6620934"><ele>1385.6</ele><time>2026-04-26T09:11:35.189Z</time></trkpt><trkpt lat="45.9335632" lon="11.6620984"><ele>1384.0</ele><time>2026-04-26T09:11:37.19Z</time></trkpt><trkpt lat="45.9336435" lon="11.6621317"><ele>1384.0</ele><time>2026-04-26T09:11:38.191Z</time></trkpt><trkpt lat="45.9337173" lon="11.6621569"><ele>1384.0</ele><time>2026-04-26T09:11:39.189Z</time></trkpt><trkpt lat="45.9337803" lon="11.6621865"><ele>1384.0</ele><time>2026-04-26T09:11:40.189Z</time></trkpt><trkpt lat="45.9338657" lon="11.6623039"><ele>1384.0</ele><time>2026-04-26T09:11:42.19Z</time></trkpt><trkpt lat="45.9338918" lon="11.6623881"><ele>1384.0</ele><time>2026-04-26T09:11:43.189Z</time></trkpt><trkpt lat="45.933916" lon="11.6624862"><ele>1384.0</ele><time>2026-04-26T09:11:44.191Z</time></trkpt><trkpt lat="45.9339722" lon="11.6626285"><ele>1384.0</ele><time>2026-04-26T09:11:46.188Z</time></trkpt><trkpt lat="45.9340546" lon="11.6627062"><ele>1384.0</ele><time>2026-04-26T09:11:48.187Z</time></trkpt><trkpt lat="45.9341614" lon="11.6626857"><ele>1384.0</ele><time>2026-04-26T09:11:50.19Z</time></trkpt><trkpt lat="45.9342401" lon="11.6625923"><ele>1384.0</ele><time>2026-04-26T09:11:52.188Z</time></trkpt><trkpt lat="45.9342751" lon="11.6623033"><ele>1386.1666666666665</ele><time>2026-04-26T09:11:55.19Z</time></trkpt><trkpt lat="45.9342654" lon="11.6621692"><ele>1388.3333333333333</ele><time>2026-04-26T09:11:56.191Z</time></trkpt><trkpt lat="45.9342616" lon="11.662037"><ele>1390.5</ele><time>2026-04-26T09:11:57.191Z</time></trkpt><trkpt lat="45.9342661" lon="11.6619053"><ele>1392.6666666666667</ele><time>2026-04-26T09:11:58.191Z</time></trkpt><trkpt lat="45.9342659" lon="11.6617799"><ele>1394.8333333333335</ele><time>2026-04-26T09:11:59.19Z</time></trkpt><trkpt lat="45.9342636" lon="11.6616621"><ele>1397.0</ele><time>2026-04-26T09:12:00.19Z</time></trkpt><trkpt lat="45.934261" lon="11.6615567"><ele>1397.0</ele><time>2026-04-26T09:12:01.192Z</time></trkpt><trkpt lat="45.9342565" lon="11.6614607"><ele>1397.0</ele><time>2026-04-26T09:12:02.191Z</time></trkpt><trkpt lat="45.9342549" lon="11.6613665"><ele>1397.0</ele><time>2026-04-26T09:12:03.189Z</time></trkpt><trkpt lat="45.9342488" lon="11.6611999"><ele>1397.0</ele><time>2026-04-26T09:12:05.19Z</time></trkpt><trkpt lat="45.934239" lon="11.6610499"><ele>1397.0</ele><time>2026-04-26T09:12:07.19Z</time></trkpt><trkpt lat="45.9342347" lon="11.6609277"><ele>1397.0</ele><time>2026-04-26T09:12:09.19Z</time></trkpt><trkpt lat="45.9342243" lon="11.6607992"><ele>1396.6</ele><time>2026-04-26T09:12:11.188Z</time></trkpt><trkpt lat="45.9342165" lon="11.660661"><ele>1396.1999999999998</ele><time>2026-04-26T09:12:13.188Z</time></trkpt><trkpt lat="45.9342438" lon="11.6604161"><ele>1395.8</ele><time>2026-04-26T09:12:16.19Z</time></trkpt><trkpt lat="45.9342608" lon="11.6603238"><ele>1395.4</ele><time>2026-04-26T09:12:17.189Z</time></trkpt><trkpt lat="45.9342742" lon="11.6602322"><ele>1395.0</ele><time>2026-04-26T09:12:18.191Z</time></trkpt><trkpt lat="45.934302" lon="11.6600609"><ele>1394.8</ele><time>2026-04-26T09:12:20.191Z</time></trkpt><trkpt lat="45.9343157" lon="11.659903"><ele>1394.6</ele><time>2026-04-26T09:12:22.19Z</time></trkpt><trkpt lat="45.9343557" lon="11.6597334"><ele>1394.4</ele><time>2026-04-26T09:12:24.188Z</time></trkpt><trkpt lat="45.9343687" lon="11.6595459"><ele>1394.2</ele><time>2026-04-26T09:12:26.188Z</time></trkpt><trkpt lat="45.9343641" lon="11.6594518"><ele>1394.0</ele><time>2026-04-26T09:12:27.188Z</time></trkpt><trkpt lat="45.9343503" lon="11.6593475"><ele>1393.8000000000002</ele><time>2026-04-26T09:12:28.186Z</time></trkpt><trkpt lat="45.9343329" lon="11.6592284"><ele>1393.6000000000001</ele><time>2026-04-26T09:12:29.187Z</time></trkpt><trkpt lat="45.9343072" lon="11.6591031"><ele>1393.4</ele><time>2026-04-26T09:12:30.188Z</time></trkpt><trkpt lat="45.9342848" lon="11.658967"><ele>1393.2</ele><time>2026-04-26T09:12:31.188Z</time></trkpt><trkpt lat="45.9342809" lon="11.6588358"><ele>1393.0</ele><time>2026-04-26T09:12:32.188Z</time></trkpt><trkpt lat="45.9342749" lon="11.6587092"><ele>1392.0</ele><time>2026-04-26T09:12:33.187Z</time></trkpt><trkpt lat="45.9342551" lon="11.6585788"><ele>1391.0</ele><time>2026-04-26T09:12:34.187Z</time></trkpt><trkpt lat="45.9341979" lon="11.6583061"><ele>1390.0</ele><time>2026-04-26T09:12:36.186Z</time></trkpt><trkpt lat="45.9341588" lon="11.6581807"><ele>1389.0</ele><time>2026-04-26T09:12:37.185Z</time></trkpt><trkpt lat="45.9341221" lon="11.6580621"><ele>1386.0</ele><time>2026-04-26T09:12:38.186Z</time></trkpt><trkpt lat="45.934091" lon="11.657945"><ele>1383.0</ele><time>2026-04-26T09:12:39.184Z</time></trkpt><trkpt lat="45.9340549" lon="11.6578356"><ele>1380.0</ele><time>2026-04-26T09:12:40.189Z</time></trkpt><trkpt lat="45.9340077" lon="11.6577216"><ele>1377.0</ele><time>2026-04-26T09:12:41.188Z</time></trkpt><trkpt lat="45.9339585" lon="11.6576101"><ele>1374.0</ele><time>2026-04-26T09:12:42.187Z</time></trkpt><trkpt lat="45.9339149" lon="11.6574992"><ele>1371.0</ele><time>2026-04-26T09:12:43.188Z</time></trkpt><trkpt lat="45.9338778" lon="11.6573803"><ele>1369.8</ele><time>2026-04-26T09:12:44.189Z</time></trkpt><trkpt lat="45.933849" lon="11.6572457"><ele>1368.6</ele><time>2026-04-26T09:12:45.188Z</time></trkpt><trkpt lat="45.9338231" lon="11.6571075"><ele>1367.4</ele><time>2026-04-26T09:12:46.186Z</time></trkpt><trkpt lat="45.9337989" lon="11.6569748"><ele>1366.2</ele><time>2026-04-26T09:12:47.187Z</time></trkpt><trkpt lat="45.9337774" lon="11.6568445"><ele>1365.0</ele><time>2026-04-26T09:12:48.188Z</time></trkpt><trkpt lat="45.9337609" lon="11.6567228"><ele>1364.8333333333333</ele><time>2026-04-26T09:12:49.188Z</time></trkpt><trkpt lat="45.9337389" lon="11.6566036"><ele>1364.6666666666667</ele><time>2026-04-26T09:12:50.189Z</time></trkpt><trkpt lat="45.9337122" lon="11.6564905"><ele>1364.5</ele><time>2026-04-26T09:12:51.188Z</time></trkpt><trkpt lat="45.9336831" lon="11.6563895"><ele>1364.3333333333335</ele><time>2026-04-26T09:12:52.187Z</time></trkpt><trkpt lat="45.9336518" lon="11.6562967"><ele>1364.1666666666667</ele><time>2026-04-26T09:12:53.189Z</time></trkpt><trkpt lat="45.933618" lon="11.6562147"><ele>1364.0</ele><time>2026-04-26T09:12:54.188Z</time></trkpt><trkpt lat="45.9335731" lon="11.6561121"><ele>1364.6</ele><time>2026-04-26T09:12:56.188Z</time></trkpt><trkpt lat="45.9335327" lon="11.6558667"><ele>1365.2</ele><time>2026-04-26T09:13:00.187Z</time></trkpt><trkpt lat="45.9335098" lon="11.6557671"><ele>1365.8</ele><time>2026-04-26T09:13:01.188Z</time></trkpt><trkpt lat="45.9334819" lon="11.6556692"><ele>1366.3999999999999</ele><time>2026-04-26T09:13:02.189Z</time></trkpt><trkpt lat="45.9334517" lon="11.6555869"><ele>1367.0</ele><time>2026-04-26T09:13:03.185Z</time></trkpt><trkpt lat="45.9333996" lon="11.6554332"><ele>1365.5</ele><time>2026-04-26T09:13:05.187Z</time></trkpt><trkpt lat="45.9333733" lon="11.6553331"><ele>1364.0</ele><time>2026-04-26T09:13:06.187Z</time></trkpt><trkpt lat="45.9333542" lon="11.655226"><ele>1362.5</ele><time>2026-04-26T09:13:07.186Z</time></trkpt><trkpt lat="45.9333483" lon="11.6551218"><ele>1361.0</ele><time>2026-04-26T09:13:08.187Z</time></trkpt><trkpt lat="45.9333457" lon="11.655002"><ele>1359.5</ele><time>2026-04-26T09:13:09.188Z</time></trkpt><trkpt lat="45.9333308" lon="11.6548837"><ele>1358.0</ele><time>2026-04-26T09:13:10.187Z</time></trkpt><trkpt lat="45.9333111" lon="11.6547601"><ele>1357.5</ele><time>2026-04-26T09:13:11.187Z</time></trkpt><trkpt lat="45.9332956" lon="11.654628"><ele>1357.0</ele><time>2026-04-26T09:13:12.187Z</time></trkpt><trkpt lat="45.9332828" lon="11.6545034"><ele>1356.5</ele><time>2026-04-26T09:13:13.187Z</time></trkpt><trkpt lat="45.9332697" lon="11.6543846"><ele>1356.0</ele><time>2026-04-26T09:13:14.186Z</time></trkpt><trkpt lat="45.9332553" lon="11.6542744"><ele>1355.5</ele><time>2026-04-26T09:13:15.187Z</time></trkpt><trkpt lat="45.9332405" lon="11.6541691"><ele>1355.0</ele><time>2026-04-26T09:13:16.187Z</time></trkpt><trkpt lat="45.9332348" lon="11.6540647"><ele>1353.8</ele><time>2026-04-26T09:13:17.186Z</time></trkpt><trkpt lat="45.9332462" lon="11.6538481"><ele>1352.6</ele><time>2026-04-26T09:13:19.186Z</time></trkpt><trkpt lat="45.9332525" lon="11.6537364"><ele>1351.4</ele><time>2026-04-26T09:13:20.185Z</time></trkpt><trkpt lat="45.9332596" lon="11.6536182"><ele>1350.2</ele><time>2026-04-26T09:13:21.187Z</time></trkpt><trkpt lat="45.933274" lon="11.653497"><ele>1349.0</ele><time>2026-04-26T09:13:22.187Z</time></trkpt><trkpt lat="45.9332971" lon="11.6533776"><ele>1347.8333333333335</ele><time>2026-04-26T09:13:23.187Z</time></trkpt><trkpt lat="45.9333248" lon="11.6531983"><ele>1346.6666666666667</ele><time>2026-04-26T09:13:25.184Z</time></trkpt><trkpt lat="45.9333599" lon="11.6530983"><ele>1345.5</ele><time>2026-04-26T09:13:26.184Z</time></trkpt><trkpt lat="45.9334039" lon="11.6530134"><ele>1344.3333333333333</ele><time>2026-04-26T09:13:27.184Z</time></trkpt><trkpt lat="45.9334476" lon="11.6529395"><ele>1343.1666666666665</ele><time>2026-04-26T09:13:28.184Z</time></trkpt><trkpt lat="45.9335053" lon="11.6528722"><ele>1342.0</ele><time>2026-04-26T09:13:29.187Z</time></trkpt><trkpt lat="45.9335691" lon="11.6528003"><ele>1343.5</ele><time>2026-04-26T09:13:30.185Z</time></trkpt><trkpt lat="45.9336394" lon="11.6527283"><ele>1345.0</ele><time>2026-04-26T09:13:31.189Z</time></trkpt><trkpt lat="45.9337146" lon="11.6526612"><ele>1346.5</ele><time>2026-04-26T09:13:32.186Z</time></trkpt><trkpt lat="45.9337956" lon="11.6526078"><ele>1348.0</ele><time>2026-04-26T09:13:33.187Z</time></trkpt><trkpt lat="45.9338711" lon="11.6525682"><ele>1349.5</ele><time>2026-04-26T09:13:34.186Z</time></trkpt><trkpt lat="45.9339422" lon="11.6525318"><ele>1351.0</ele><time>2026-04-26T09:13:35.186Z</time></trkpt><trkpt lat="45.9340182" lon="11.6525024"><ele>1351.0</ele><time>2026-04-26T09:13:36.185Z</time></trkpt><trkpt lat="45.9341098" lon="11.6524884"><ele>1351.0</ele><time>2026-04-26T09:13:37.185Z</time></trkpt><trkpt lat="45.9341895" lon="11.6524872"><ele>1351.0</ele><time>2026-04-26T09:13:38.184Z</time></trkpt><trkpt lat="45.9343647" lon="11.6525242"><ele>1351.0</ele><time>2026-04-26T09:13:41.183Z</time></trkpt><trkpt lat="45.9344267" lon="11.6525029"><ele>1351.0</ele><time>2026-04-26T09:13:43.184Z</time></trkpt><trkpt lat="45.9344755" lon="11.6523828"><ele>1352.5</ele><time>2026-04-26T09:13:46.183Z</time></trkpt><trkpt lat="45.9344949" lon="11.6522896"><ele>1354.0</ele><time>2026-04-26T09:13:48.185Z</time></trkpt><trkpt lat="45.9344701" lon="11.6521514"><ele>1355.5</ele><time>2026-04-26T09:13:50.183Z</time></trkpt><trkpt lat="45.9344132" lon="11.6519907"><ele>1357.0</ele><time>2026-04-26T09:13:52.184Z</time></trkpt><trkpt lat="45.9343728" lon="11.6519082"><ele>1358.5</ele><time>2026-04-26T09:13:53.185Z</time></trkpt><trkpt lat="45.934337" lon="11.6518307"><ele>1360.0</ele><time>2026-04-26T09:13:54.183Z</time></trkpt><trkpt lat="45.9342568" lon="11.6516603"><ele>1361.0</ele><time>2026-04-26T09:13:56.186Z</time></trkpt><trkpt lat="45.9342085" lon="11.6515459"><ele>1362.0</ele><time>2026-04-26T09:13:57.185Z</time></trkpt><trkpt lat="45.9341615" lon="11.6514486"><ele>1363.0</ele><time>2026-04-26T09:13:57.986Z</time></trkpt><trkpt lat="45.9340886" lon="11.6513076"><ele>1364.0</ele><time>2026-04-26T09:13:59.185Z</time></trkpt><trkpt lat="45.9339588" lon="11.6511"><ele>1364.0</ele><time>2026-04-26T09:14:01.185Z</time></trkpt><trkpt lat="45.9339038" lon="11.6509994"><ele>1364.0</ele><time>2026-04-26T09:14:02.187Z</time></trkpt><trkpt lat="45.9338503" lon="11.6509019"><ele>1364.0</ele><time>2026-04-26T09:14:03.187Z</time></trkpt><trkpt lat="45.933794" lon="11.6508165"><ele>1364.0</ele><time>2026-04-26T09:14:04.185Z</time></trkpt><trkpt lat="45.933731" lon="11.6507325"><ele>1364.0</ele><time>2026-04-26T09:14:05.187Z</time></trkpt><trkpt lat="45.9336651" lon="11.6506358"><ele>1364.0</ele><time>2026-04-26T09:14:06.185Z</time></trkpt><trkpt lat="45.9335971" lon="11.6505334"><ele>1364.0</ele><time>2026-04-26T09:14:07.186Z</time></trkpt><trkpt lat="45.9335351" lon="11.6504179"><ele>1364.0</ele><time>2026-04-26T09:14:08.184Z</time></trkpt><trkpt lat="45.9334781" lon="11.6503131"><ele>1364.0</ele><time>2026-04-26T09:14:09.187Z</time></trkpt><trkpt lat="45.9334316" lon="11.6502292"><ele>1364.0</ele><time>2026-04-26T09:14:10.185Z</time></trkpt><trkpt lat="45.9334034" lon="11.650134"><ele>1364.0</ele><time>2026-04-26T09:14:11.186Z</time></trkpt><trkpt lat="45.9333723" lon="11.6500305"><ele>1364.0</ele><time>2026-04-26T09:14:12.185Z</time></trkpt><trkpt lat="45.9333379" lon="11.6499304"><ele>1363.8000000000002</ele><time>2026-04-26T09:14:13.187Z</time></trkpt><trkpt lat="45.9333084" lon="11.6498271"><ele>1363.6000000000001</ele><time>2026-04-26T09:14:14.185Z</time></trkpt><trkpt lat="45.9332872" lon="11.6497237"><ele>1363.4</ele><time>2026-04-26T09:14:15.183Z</time></trkpt><trkpt lat="45.9332759" lon="11.6496277"><ele>1363.2</ele><time>2026-04-26T09:14:16.183Z</time></trkpt><trkpt lat="45.9332765" lon="11.6494605"><ele>1363.0</ele><time>2026-04-26T09:14:18.186Z</time></trkpt><trkpt lat="45.9333255" lon="11.6493023"><ele>1373.25</ele><time>2026-04-26T09:14:20.187Z</time></trkpt><trkpt lat="45.9334189" lon="11.6490918"><ele>1383.5</ele><time>2026-04-26T09:14:22.187Z</time></trkpt><trkpt lat="45.9334599" lon="11.6489802"><ele>1393.75</ele><time>2026-04-26T09:14:23.187Z</time></trkpt><trkpt lat="45.9335034" lon="11.6488581"><ele>1404.0</ele><time>2026-04-26T09:14:24.185Z</time></trkpt><trkpt lat="45.9335443" lon="11.6487331"><ele>1401.4</ele><time>2026-04-26T09:14:25.186Z</time></trkpt><trkpt lat="45.9336151" lon="11.6484983"><ele>1398.8000000000002</ele><time>2026-04-26T09:14:27.185Z</time></trkpt><trkpt lat="45.9336505" lon="11.6483863"><ele>1396.1999999999998</ele><time>2026-04-26T09:14:28.184Z</time></trkpt><trkpt lat="45.9336768" lon="11.648265"><ele>1393.6</ele><time>2026-04-26T09:14:29.186Z</time></trkpt><trkpt lat="45.9337053" lon="11.6481312"><ele>1391.0</ele><time>2026-04-26T09:14:30.185Z</time></trkpt><trkpt lat="45.9337504" lon="11.6479988"><ele>1391.0</ele><time>2026-04-26T09:14:31.184Z</time></trkpt><trkpt lat="45.9338008" lon="11.6478643"><ele>1391.0</ele><time>2026-04-26T09:14:32.185Z</time></trkpt><trkpt lat="45.9338548" lon="11.6477389"><ele>1391.0</ele><time>2026-04-26T09:14:33.186Z</time></trkpt><trkpt lat="45.9339085" lon="11.6476342"><ele>1391.0</ele><time>2026-04-26T09:14:34.185Z</time></trkpt><trkpt lat="45.9339646" lon="11.6475691"><ele>1391.0</ele><time>2026-04-26T09:14:35.185Z</time></trkpt><trkpt lat="45.9340321" lon="11.6474202"><ele>1391.4</ele><time>2026-04-26T09:14:37.185Z</time></trkpt><trkpt lat="45.9340708" lon="11.6473152"><ele>1391.8</ele><time>2026-04-26T09:14:38.183Z</time></trkpt><trkpt lat="45.9341267" lon="11.647194"><ele>1392.2</ele><time>2026-04-26T09:14:39.182Z</time></trkpt><trkpt lat="45.934176" lon="11.647062"><ele>1392.6000000000001</ele><time>2026-04-26T09:14:40.182Z</time></trkpt><trkpt lat="45.9342168" lon="11.6469355"><ele>1393.0</ele><time>2026-04-26T09:14:41.182Z</time></trkpt><trkpt lat="45.9343153" lon="11.6467006"><ele>1393.0</ele><time>2026-04-26T09:14:43.187Z</time></trkpt><trkpt lat="45.9343691" lon="11.6465739"><ele>1393.0</ele><time>2026-04-26T09:14:44.188Z</time></trkpt><trkpt lat="45.9344204" lon="11.6464445"><ele>1393.0</ele><time>2026-04-26T09:14:45.184Z</time></trkpt><trkpt lat="45.934473" lon="11.6463206"><ele>1393.0</ele><time>2026-04-26T09:14:46.185Z</time></trkpt><trkpt lat="45.9345309" lon="11.6461926"><ele>1393.0</ele><time>2026-04-26T09:14:47.185Z</time></trkpt><trkpt lat="45.9346262" lon="11.645965"><ele>1390.6666666666665</ele><time>2026-04-26T09:14:49.186Z</time></trkpt><trkpt lat="45.9346534" lon="11.6458561"><ele>1388.3333333333333</ele><time>2026-04-26T09:14:50.186Z</time></trkpt><trkpt lat="45.9346793" lon="11.6457462"><ele>1386.0</ele><time>2026-04-26T09:14:51.186Z</time></trkpt><trkpt lat="45.9347061" lon="11.6456288"><ele>1383.6666666666667</ele><time>2026-04-26T09:14:52.185Z</time></trkpt><trkpt lat="45.9347249" lon="11.6455176"><ele>1381.3333333333335</ele><time>2026-04-26T09:14:53.186Z</time></trkpt><trkpt lat="45.9347337" lon="11.645406"><ele>1379.0</ele><time>2026-04-26T09:14:54.185Z</time></trkpt><trkpt lat="45.934745" lon="11.6452953"><ele>1378.5</ele><time>2026-04-26T09:14:55.186Z</time></trkpt><trkpt lat="45.9347663" lon="11.6451926"><ele>1378.0</ele><time>2026-04-26T09:14:56.185Z</time></trkpt><trkpt lat="45.9348017" lon="11.6450891"><ele>1377.5</ele><time>2026-04-26T09:14:57.185Z</time></trkpt><trkpt lat="45.9348464" lon="11.6449763"><ele>1377.0</ele><time>2026-04-26T09:14:58.185Z</time></trkpt><trkpt lat="45.9349018" lon="11.6448656"><ele>1376.5</ele><time>2026-04-26T09:14:59.187Z</time></trkpt><trkpt lat="45.9349609" lon="11.6447571"><ele>1376.0</ele><time>2026-04-26T09:15:00.187Z</time></trkpt><trkpt lat="45.935023" lon="11.6446418"><ele>1380.5</ele><time>2026-04-26T09:15:01.187Z</time></trkpt><trkpt lat="45.9350867" lon="11.6445326"><ele>1385.0</ele><time>2026-04-26T09:15:02.186Z</time></trkpt><trkpt lat="45.9352072" lon="11.6443142"><ele>1389.5</ele><time>2026-04-26T09:15:04.183Z</time></trkpt><trkpt lat="45.9352593" lon="11.6442098"><ele>1394.0</ele><time>2026-04-26T09:15:05.186Z</time></trkpt><trkpt lat="45.9353053" lon="11.6441128"><ele>1394.0</ele><time>2026-04-26T09:15:06.185Z</time></trkpt><trkpt lat="45.9353398" lon="11.6440031"><ele>1394.0</ele><time>2026-04-26T09:15:07.187Z</time></trkpt><trkpt lat="45.9353614" lon="11.6438807"><ele>1394.0</ele><time>2026-04-26T09:15:08.186Z</time></trkpt><trkpt lat="45.9353608" lon="11.6437581"><ele>1394.0</ele><time>2026-04-26T09:15:09.186Z</time></trkpt><trkpt lat="45.9353417" lon="11.6436102"><ele>1394.0</ele><time>2026-04-26T09:15:10.183Z</time></trkpt><trkpt lat="45.9353083" lon="11.6434501"><ele>1394.0</ele><time>2026-04-26T09:15:11.186Z</time></trkpt><trkpt lat="45.9352749" lon="11.643304"><ele>1394.0</ele><time>2026-04-26T09:15:12.186Z</time></trkpt><trkpt lat="45.935245" lon="11.6431649"><ele>1394.0</ele><time>2026-04-26T09:15:13.188Z</time></trkpt><trkpt lat="45.9352121" lon="11.6430402"><ele>1394.0</ele><time>2026-04-26T09:15:14.187Z</time></trkpt><trkpt lat="45.9351882" lon="11.6429213"><ele>1394.0</ele><time>2026-04-26T09:15:15.186Z</time></trkpt><trkpt lat="45.935173" lon="11.6428014"><ele>1394.0</ele><time>2026-04-26T09:15:16.186Z</time></trkpt><trkpt lat="45.9351624" lon="11.6426661"><ele>1394.0</ele><time>2026-04-26T09:15:17.187Z</time></trkpt><trkpt lat="45.9351586" lon="11.6425045"><ele>1394.0</ele><time>2026-04-26T09:15:18.185Z</time></trkpt><trkpt lat="45.9351591" lon="11.6423232"><ele>1394.0</ele><time>2026-04-26T09:15:19.186Z</time></trkpt><trkpt lat="45.9351557" lon="11.6421124"><ele>1393.6666666666667</ele><time>2026-04-26T09:15:20.187Z</time></trkpt><trkpt lat="45.9351569" lon="11.6418841"><ele>1393.3333333333333</ele><time>2026-04-26T09:15:21.185Z</time></trkpt><trkpt lat="45.9351726" lon="11.6416346"><ele>1393.0</ele><time>2026-04-26T09:15:22.187Z</time></trkpt><trkpt lat="45.9351823" lon="11.6413916"><ele>1391.3333333333333</ele><time>2026-04-26T09:15:23.183Z</time></trkpt><trkpt lat="45.9351945" lon="11.640969"><ele>1389.6666666666667</ele><time>2026-04-26T09:15:25.186Z</time></trkpt><trkpt lat="45.9352212" lon="11.6407995"><ele>1388.0</ele><time>2026-04-26T09:15:26.183Z</time></trkpt><trkpt lat="45.9352533" lon="11.6406543"><ele>1388.0</ele><time>2026-04-26T09:15:27.186Z</time></trkpt><trkpt lat="45.9352864" lon="11.6405273"><ele>1388.0</ele><time>2026-04-26T09:15:28.183Z</time></trkpt><trkpt lat="45.9353167" lon="11.6404243"><ele>1388.0</ele><time>2026-04-26T09:15:29.183Z</time></trkpt><trkpt lat="45.9353759" lon="11.640283"><ele>1388.0</ele><time>2026-04-26T09:15:31.184Z</time></trkpt><trkpt lat="45.9354281" lon="11.6401365"><ele>1388.0</ele><time>2026-04-26T09:15:33.185Z</time></trkpt><trkpt lat="45.9354966" lon="11.6399874"><ele>1386.142857142857</ele><time>2026-04-26T09:15:35.185Z</time></trkpt><trkpt lat="45.9355354" lon="11.6399152"><ele>1384.2857142857142</ele><time>2026-04-26T09:15:36.186Z</time></trkpt><trkpt lat="45.9355786" lon="11.6398461"><ele>1382.4285714285713</ele><time>2026-04-26T09:15:37.186Z</time></trkpt><trkpt lat="45.9356272" lon="11.6397819"><ele>1380.5714285714284</ele><time>2026-04-26T09:15:38.187Z</time></trkpt><trkpt lat="45.9356751" lon="11.6397144"><ele>1378.7142857142858</ele><time>2026-04-26T09:15:39.186Z</time></trkpt><trkpt lat="45.935738" lon="11.639646"><ele>1376.8571428571427</ele><time>2026-04-26T09:15:40.186Z</time></trkpt><trkpt lat="45.935807" lon="11.6395514"><ele>1375.0</ele><time>2026-04-26T09:15:41.187Z</time></trkpt><trkpt lat="45.9358842" lon="11.6394412"><ele>1380.75</ele><time>2026-04-26T09:15:42.187Z</time></trkpt><trkpt lat="45.9359638" lon="11.6393401"><ele>1386.5</ele><time>2026-04-26T09:15:43.186Z</time></trkpt><trkpt lat="45.9360363" lon="11.6392402"><ele>1392.25</ele><time>2026-04-26T09:15:44.185Z</time></trkpt><trkpt lat="45.936142" lon="11.6390463"><ele>1398.0</ele><time>2026-04-26T09:15:46.187Z</time></trkpt><trkpt lat="45.9361747" lon="11.6389439"><ele>1398.0</ele><time>2026-04-26T09:15:47.188Z</time></trkpt><trkpt lat="45.9361915" lon="11.6388535"><ele>1398.0</ele><time>2026-04-26T09:15:48.187Z</time></trkpt><trkpt lat="45.9361596" lon="11.6387032"><ele>1398.0</ele><time>2026-04-26T09:15:50.188Z</time></trkpt><trkpt lat="45.9360646" lon="11.638598"><ele>1398.0</ele><time>2026-04-26T09:15:52.186Z</time></trkpt><trkpt lat="45.9359939" lon="11.6385471"><ele>1398.0</ele><time>2026-04-26T09:15:53.184Z</time></trkpt><trkpt lat="45.9359094" lon="11.6384964"><ele>1393.6666666666667</ele><time>2026-04-26T09:15:54.185Z</time></trkpt><trkpt lat="45.9358342" lon="11.6384543"><ele>1389.3333333333333</ele><time>2026-04-26T09:15:55.185Z</time></trkpt><trkpt lat="45.9357749" lon="11.6384234"><ele>1385.0</ele><time>2026-04-26T09:15:56.189Z</time></trkpt><trkpt lat="45.9356991" lon="11.6383523"><ele>1380.6666666666665</ele><time>2026-04-26T09:15:58.188Z</time></trkpt><trkpt lat="45.9356605" lon="11.6382529"><ele>1376.3333333333333</ele><time>2026-04-26T09:16:00.188Z</time></trkpt><trkpt lat="45.9356448" lon="11.6380972"><ele>1372.0</ele><time>2026-04-26T09:16:02.189Z</time></trkpt><trkpt lat="45.9356478" lon="11.6379857"><ele>1372.0</ele><time>2026-04-26T09:16:03.187Z</time></trkpt><trkpt lat="45.9356621" lon="11.6378546"><ele>1372.0</ele><time>2026-04-26T09:16:04.187Z</time></trkpt><trkpt lat="45.935685" lon="11.6377044"><ele>1372.0</ele><time>2026-04-26T09:16:05.189Z</time></trkpt><trkpt lat="45.9358216" lon="11.6373609"><ele>1373.6</ele><time>2026-04-26T09:16:08.187Z</time></trkpt><trkpt lat="45.9358884" lon="11.6372802"><ele>1375.1999999999998</ele><time>2026-04-26T09:16:09.189Z</time></trkpt><trkpt lat="45.9359599" lon="11.6372279"><ele>1376.8</ele><time>2026-04-26T09:16:10.189Z</time></trkpt><trkpt lat="45.9360393" lon="11.6372011"><ele>1378.4</ele><time>2026-04-26T09:16:11.188Z</time></trkpt><trkpt lat="45.9361325" lon="11.637197"><ele>1380.0</ele><time>2026-04-26T09:16:12.185Z</time></trkpt><trkpt lat="45.9362586" lon="11.6372116"><ele>1380.0</ele><time>2026-04-26T09:16:13.186Z</time></trkpt><trkpt lat="45.9363973" lon="11.6372402"><ele>1380.0</ele><time>2026-04-26T09:16:14.188Z</time></trkpt><trkpt lat="45.9365281" lon="11.6372547"><ele>1380.0</ele><time>2026-04-26T09:16:15.187Z</time></trkpt><trkpt lat="45.9366449" lon="11.6372552"><ele>1380.0</ele><time>2026-04-26T09:16:16.186Z</time></trkpt><trkpt lat="45.9367572" lon="11.6372409"><ele>1378.0</ele><time>2026-04-26T09:16:17.185Z</time></trkpt><trkpt lat="45.9368623" lon="11.6372257"><ele>1376.0</ele><time>2026-04-26T09:16:18.186Z</time></trkpt><trkpt lat="45.9369598" lon="11.6372255"><ele>1374.0</ele><time>2026-04-26T09:16:19.186Z</time></trkpt><trkpt lat="45.9370521" lon="11.6372515"><ele>1372.0</ele><time>2026-04-26T09:16:20.186Z</time></trkpt><trkpt lat="45.9371435" lon="11.637296"><ele>1370.0</ele><time>2026-04-26T09:16:21.188Z</time></trkpt><trkpt lat="45.9372344" lon="11.6373392"><ele>1370.0</ele><time>2026-04-26T09:16:22.185Z</time></trkpt><trkpt lat="45.9373271" lon="11.637389"><ele>1370.0</ele><time>2026-04-26T09:16:23.188Z</time></trkpt><trkpt lat="45.9374252" lon="11.6374472"><ele>1370.0</ele><time>2026-04-26T09:16:24.188Z</time></trkpt><trkpt lat="45.9375266" lon="11.6375143"><ele>1370.0</ele><time>2026-04-26T09:16:25.189Z</time></trkpt><trkpt lat="45.9376289" lon="11.6375938"><ele>1370.0</ele><time>2026-04-26T09:16:26.189Z</time></trkpt><trkpt lat="45.9378364" lon="11.6377885"><ele>1367.6</ele><time>2026-04-26T09:16:28.188Z</time></trkpt><trkpt lat="45.9379196" lon="11.6378678"><ele>1365.2</ele><time>2026-04-26T09:16:29.188Z</time></trkpt><trkpt lat="45.9379932" lon="11.637943"><ele>1362.8000000000002</ele><time>2026-04-26T09:16:30.188Z</time></trkpt><trkpt lat="45.9380719" lon="11.6380282"><ele>1360.4</ele><time>2026-04-26T09:16:31.187Z</time></trkpt><trkpt lat="45.9381466" lon="11.6381162"><ele>1358.0</ele><time>2026-04-26T09:16:32.188Z</time></trkpt><trkpt lat="45.9382165" lon="11.6382167"><ele>1358.0</ele><time>2026-04-26T09:16:33.189Z</time></trkpt><trkpt lat="45.9382934" lon="11.6383152"><ele>1358.0</ele><time>2026-04-26T09:16:34.185Z</time></trkpt><trkpt lat="45.9383697" lon="11.6383993"><ele>1358.0</ele><time>2026-04-26T09:16:35.185Z</time></trkpt><trkpt lat="45.9384391" lon="11.6384665"><ele>1358.0</ele><time>2026-04-26T09:16:36.185Z</time></trkpt><trkpt lat="45.9384923" lon="11.6385202"><ele>1358.0</ele><time>2026-04-26T09:16:37.187Z</time></trkpt><trkpt lat="45.9385926" lon="11.6385768"><ele>1357.5</ele><time>2026-04-26T09:16:39.186Z</time></trkpt><trkpt lat="45.9386572" lon="11.6385605"><ele>1357.0</ele><time>2026-04-26T09:16:40.186Z</time></trkpt><trkpt lat="45.9387391" lon="11.6385091"><ele>1356.5</ele><time>2026-04-26T09:16:41.182Z</time></trkpt><trkpt lat="45.9388141" lon="11.6384334"><ele>1356.0</ele><time>2026-04-26T09:16:42.183Z</time></trkpt><trkpt lat="45.9388874" lon="11.6383546"><ele>1355.5</ele><time>2026-04-26T09:16:43.183Z</time></trkpt><trkpt lat="45.9389615" lon="11.6382866"><ele>1355.0</ele><time>2026-04-26T09:16:44.183Z</time></trkpt><trkpt lat="45.9390397" lon="11.6382236"><ele>1355.0</ele><time>2026-04-26T09:16:45.184Z</time></trkpt><trkpt lat="45.939119" lon="11.6381709"><ele>1355.0</ele><time>2026-04-26T09:16:46.184Z</time></trkpt><trkpt lat="45.9391977" lon="11.6381288"><ele>1355.0</ele><time>2026-04-26T09:16:47.185Z</time></trkpt><trkpt lat="45.939358" lon="11.6380582"><ele>1355.0</ele><time>2026-04-26T09:16:49.185Z</time></trkpt><trkpt lat="45.9394609" lon="11.6380423"><ele>1355.0</ele><time>2026-04-26T09:16:50.184Z</time></trkpt><trkpt lat="45.9395903" lon="11.6380312"><ele>1355.3333333333335</ele><time>2026-04-26T09:16:51.186Z</time></trkpt><trkpt lat="45.9397361" lon="11.6380188"><ele>1355.6666666666667</ele><time>2026-04-26T09:16:52.186Z</time></trkpt><trkpt lat="45.939892" lon="11.6380027"><ele>1356.0</ele><time>2026-04-26T09:16:53.187Z</time></trkpt><trkpt lat="45.9400615" lon="11.6379836"><ele>1354.0</ele><time>2026-04-26T09:16:54.185Z</time></trkpt><trkpt lat="45.9402277" lon="11.6379702"><ele>1352.0</ele><time>2026-04-26T09:16:55.185Z</time></trkpt><trkpt lat="45.9404037" lon="11.6379565"><ele>1350.0</ele><time>2026-04-26T09:16:56.187Z</time></trkpt><trkpt lat="45.9405811" lon="11.6379393"><ele>1350.0</ele><time>2026-04-26T09:16:57.186Z</time></trkpt><trkpt lat="45.9407652" lon="11.6379293"><ele>1350.0</ele><time>2026-04-26T09:16:58.184Z</time></trkpt><trkpt lat="45.9409424" lon="11.6379151"><ele>1350.0</ele><time>2026-04-26T09:16:59.187Z</time></trkpt><trkpt lat="45.9411223" lon="11.6378983"><ele>1346.6666666666667</ele><time>2026-04-26T09:17:00.187Z</time></trkpt><trkpt lat="45.9413058" lon="11.6378807"><ele>1343.3333333333335</ele><time>2026-04-26T09:17:01.187Z</time></trkpt><trkpt lat="45.9414918" lon="11.6378654"><ele>1340.0</ele><time>2026-04-26T09:17:02.19Z</time></trkpt><trkpt lat="45.9416623" lon="11.6378493"><ele>1339.5</ele><time>2026-04-26T09:17:03.187Z</time></trkpt><trkpt lat="45.9418213" lon="11.637839"><ele>1339.0</ele><time>2026-04-26T09:17:04.187Z</time></trkpt><trkpt lat="45.9419687" lon="11.6378293"><ele>1338.5</ele><time>2026-04-26T09:17:05.186Z</time></trkpt><trkpt lat="45.9421103" lon="11.6378164"><ele>1338.0</ele><time>2026-04-26T09:17:06.186Z</time></trkpt><trkpt lat="45.9422397" lon="11.6378048"><ele>1338.75</ele><time>2026-04-26T09:17:07.186Z</time></trkpt><trkpt lat="45.9423517" lon="11.6377888"><ele>1339.5</ele><time>2026-04-26T09:17:08.187Z</time></trkpt><trkpt lat="45.9425637" lon="11.6377909"><ele>1340.25</ele><time>2026-04-26T09:17:10.188Z</time></trkpt><trkpt lat="45.9426642" lon="11.6378199"><ele>1341.0</ele><time>2026-04-26T09:17:11.187Z</time></trkpt><trkpt lat="45.9427585" lon="11.6378536"><ele>1341.0</ele><time>2026-04-26T09:17:12.187Z</time></trkpt><trkpt lat="45.9428496" lon="11.6378636"><ele>1341.0</ele><time>2026-04-26T09:17:13.188Z</time></trkpt><trkpt lat="45.9429522" lon="11.6378341"><ele>1341.0</ele><time>2026-04-26T09:17:14.188Z</time></trkpt><trkpt lat="45.9430727" lon="11.6377838"><ele>1341.0</ele><time>2026-04-26T09:17:15.188Z</time></trkpt><trkpt lat="45.9431977" lon="11.6377364"><ele>1337.0</ele><time>2026-04-26T09:17:16.188Z</time></trkpt><trkpt lat="45.9433216" lon="11.6376956"><ele>1333.0</ele><time>2026-04-26T09:17:17.19Z</time></trkpt><trkpt lat="45.94345" lon="11.6376687"><ele>1329.0</ele><time>2026-04-26T09:17:18.187Z</time></trkpt><trkpt lat="45.94359" lon="11.6376603"><ele>1325.0</ele><time>2026-04-26T09:17:19.187Z</time></trkpt><trkpt lat="45.9437221" lon="11.6376539"><ele>1324.4</ele><time>2026-04-26T09:17:20.189Z</time></trkpt><trkpt lat="45.9438182" lon="11.6376416"><ele>1323.8</ele><time>2026-04-26T09:17:20.989Z</time></trkpt><trkpt lat="45.9439459" lon="11.637631"><ele>1323.1999999999998</ele><time>2026-04-26T09:17:22.187Z</time></trkpt><trkpt lat="45.9440354" lon="11.6376272"><ele>1322.6</ele><time>2026-04-26T09:17:23.188Z</time></trkpt><trkpt lat="45.9441067" lon="11.6376315"><ele>1322.0</ele><time>2026-04-26T09:17:24.187Z</time></trkpt><trkpt lat="45.9441718" lon="11.6376328"><ele>1322.0</ele><time>2026-04-26T09:17:25.189Z</time></trkpt><trkpt lat="45.944235" lon="11.6376193"><ele>1322.0</ele><time>2026-04-26T09:17:26.187Z</time></trkpt><trkpt lat="45.9442916" lon="11.6375787"><ele>1322.0</ele><time>2026-04-26T09:17:27.189Z</time></trkpt><trkpt lat="45.9443444" lon="11.6375041"><ele>1322.0</ele><time>2026-04-26T09:17:28.189Z</time></trkpt><trkpt lat="45.9443917" lon="11.6374138"><ele>1322.0</ele><time>2026-04-26T09:17:29.187Z</time></trkpt><trkpt lat="45.9444387" lon="11.6372273"><ele>1322.0</ele><time>2026-04-26T09:17:31.184Z</time></trkpt><trkpt lat="45.9444431" lon="11.6371166"><ele>1322.0</ele><time>2026-04-26T09:17:32.187Z</time></trkpt><trkpt lat="45.9444276" lon="11.6369977"><ele>1322.0</ele><time>2026-04-26T09:17:33.184Z</time></trkpt><trkpt lat="45.9443913" lon="11.6368842"><ele>1322.0</ele><time>2026-04-26T09:17:34.187Z</time></trkpt><trkpt lat="45.9443326" lon="11.6367918"><ele>1322.0</ele><time>2026-04-26T09:17:35.189Z</time></trkpt><trkpt lat="45.9442501" lon="11.6367241"><ele>1322.0</ele><time>2026-04-26T09:17:36.188Z</time></trkpt><trkpt lat="45.9441331" lon="11.6366678"><ele>1321.6666666666667</ele><time>2026-04-26T09:17:37.189Z</time></trkpt><trkpt lat="45.9439833" lon="11.6366099"><ele>1321.3333333333333</ele><time>2026-04-26T09:17:38.188Z</time></trkpt><trkpt lat="45.9438251" lon="11.6365518"><ele>1321.0</ele><time>2026-04-26T09:17:39.188Z</time></trkpt><trkpt lat="45.9436569" lon="11.6364928"><ele>1321.0</ele><time>2026-04-26T09:17:40.187Z</time></trkpt><trkpt lat="45.9434812" lon="11.6364245"><ele>1321.0</ele><time>2026-04-26T09:17:41.188Z</time></trkpt><trkpt lat="45.9433147" lon="11.6363607"><ele>1321.0</ele><time>2026-04-26T09:17:42.188Z</time></trkpt><trkpt lat="45.9431624" lon="11.6363081"><ele>1321.0</ele><time>2026-04-26T09:17:43.186Z</time></trkpt><trkpt lat="45.9430212" lon="11.6362543"><ele>1321.0</ele><time>2026-04-26T09:17:44.189Z</time></trkpt><trkpt lat="45.9428845" lon="11.6361733"><ele>1321.0</ele><time>2026-04-26T09:17:45.187Z</time></trkpt><trkpt lat="45.9427545" lon="11.636088"><ele>1321.0</ele><time>2026-04-26T09:17:46.185Z</time></trkpt><trkpt lat="45.9426325" lon="11.6360333"><ele>1324.75</ele><time>2026-04-26T09:17:47.187Z</time></trkpt><trkpt lat="45.9425105" lon="11.6360008"><ele>1328.5</ele><time>2026-04-26T09:17:48.187Z</time></trkpt><trkpt lat="45.9424003" lon="11.6359872"><ele>1332.25</ele><time>2026-04-26T09:17:49.188Z</time></trkpt><trkpt lat="45.9422933" lon="11.6360044"><ele>1336.0</ele><time>2026-04-26T09:17:50.188Z</time></trkpt><trkpt lat="45.9420857" lon="11.6360546"><ele>1336.0</ele><time>2026-04-26T09:17:52.187Z</time></trkpt><trkpt lat="45.9420084" lon="11.6360691"><ele>1336.0</ele><time>2026-04-26T09:17:53.189Z</time></trkpt><trkpt lat="45.9419068" lon="11.6360293"><ele>1336.0</ele><time>2026-04-26T09:17:55.185Z</time></trkpt><trkpt lat="45.941832" lon="11.6359606"><ele>1336.0</ele><time>2026-04-26T09:17:57.185Z</time></trkpt><trkpt lat="45.9417838" lon="11.6358848"><ele>1336.0</ele><time>2026-04-26T09:18:25.189Z</time></trkpt><trkpt lat="45.9419614" lon="11.6359064"><ele>1336.0</ele><time>2026-04-26T09:18:30.187Z</time></trkpt><trkpt lat="45.9420379" lon="11.6359064"><ele>1336.0</ele><time>2026-04-26T09:18:32.189Z</time></trkpt><trkpt lat="45.9421003" lon="11.6359229"><ele>1336.0</ele><time>2026-04-26T09:19:12.187Z</time></trkpt><trkpt lat="45.9423671" lon="11.6357802"><ele>1336.0</ele><time>2026-04-26T09:24:33.189Z</time></trkpt><trkpt lat="45.9424955" lon="11.6357216"><ele>1336.25</ele><time>2026-04-26T09:24:34.188Z</time></trkpt><trkpt lat="45.9426134" lon="11.6356932"><ele>1336.5</ele><time>2026-04-26T09:24:35.19Z</time></trkpt><trkpt lat="45.9427427" lon="11.6356913"><ele>1336.75</ele><time>2026-04-26T09:24:36.188Z</time></trkpt><trkpt lat="45.9428851" lon="11.6357192"><ele>1337.0</ele><time>2026-04-26T09:24:37.188Z</time></trkpt><trkpt lat="45.9430172" lon="11.6357671"><ele>1337.0</ele><time>2026-04-26T09:24:38.19Z</time></trkpt><trkpt lat="45.9431482" lon="11.6358065"><ele>1337.0</ele><time>2026-04-26T09:24:39.189Z</time></trkpt><trkpt lat="45.9432929" lon="11.6358218"><ele>1337.0</ele><time>2026-04-26T09:24:40.189Z</time></trkpt><trkpt lat="45.943454" lon="11.6358124"><ele>1337.0</ele><time>2026-04-26T09:24:41.191Z</time></trkpt><trkpt lat="45.9436326" lon="11.6357801"><ele>1336.6666666666667</ele><time>2026-04-26T09:24:42.19Z</time></trkpt><trkpt lat="45.9438203" lon="11.6357281"><ele>1336.3333333333333</ele><time>2026-04-26T09:24:43.188Z</time></trkpt><trkpt lat="45.9439954" lon="11.6356708"><ele>1336.0</ele><time>2026-04-26T09:24:44.189Z</time></trkpt><trkpt lat="45.9441526" lon="11.6356207"><ele>1336.75</ele><time>2026-04-26T09:24:45.189Z</time></trkpt><trkpt lat="45.9442991" lon="11.6355788"><ele>1337.5</ele><time>2026-04-26T09:24:46.188Z</time></trkpt><trkpt lat="45.9444402" lon="11.6355447"><ele>1338.25</ele><time>2026-04-26T09:24:47.189Z</time></trkpt><trkpt lat="45.9445875" lon="11.6355337"><ele>1339.0</ele><time>2026-04-26T09:24:48.186Z</time></trkpt><trkpt lat="45.9447471" lon="11.6355576"><ele>1339.0</ele><time>2026-04-26T09:24:49.187Z</time></trkpt><trkpt lat="45.9449182" lon="11.6356076"><ele>1339.0</ele><time>2026-04-26T09:24:50.187Z</time></trkpt><trkpt lat="45.9450783" lon="11.6356771"><ele>1339.0</ele><time>2026-04-26T09:24:51.184Z</time></trkpt><trkpt lat="45.945226" lon="11.6357635"><ele>1344.0</ele><time>2026-04-26T09:24:52.186Z</time></trkpt><trkpt lat="45.9455153" lon="11.6359717"><ele>1349.0</ele><time>2026-04-26T09:24:54.185Z</time></trkpt><trkpt lat="45.945655" lon="11.6360943"><ele>1347.3333333333335</ele><time>2026-04-26T09:24:55.188Z</time></trkpt><trkpt lat="45.9457883" lon="11.6362133"><ele>1345.6666666666667</ele><time>2026-04-26T09:24:56.188Z</time></trkpt><trkpt lat="45.9459255" lon="11.636327"><ele>1344.0</ele><time>2026-04-26T09:24:57.189Z</time></trkpt><trkpt lat="45.946069" lon="11.6364449"><ele>1344.0</ele><time>2026-04-26T09:24:58.189Z</time></trkpt><trkpt lat="45.9462183" lon="11.6365663"><ele>1344.0</ele><time>2026-04-26T09:24:59.188Z</time></trkpt><trkpt lat="45.9463667" lon="11.636687"><ele>1344.0</ele><time>2026-04-26T09:25:00.189Z</time></trkpt><trkpt lat="45.9464521" lon="11.6367564"><ele>1344.0</ele><time>2026-04-26T09:25:00.798Z</time></trkpt><trkpt lat="45.9466428" lon="11.636897"><ele>1341.0</ele><time>2026-04-26T09:25:02.19Z</time></trkpt><trkpt lat="45.9467755" lon="11.6369719"><ele>1338.0</ele><time>2026-04-26T09:25:03.188Z</time></trkpt><trkpt lat="45.9469061" lon="11.6370252"><ele>1335.0</ele><time>2026-04-26T09:25:04.188Z</time></trkpt><trkpt lat="45.9470299" lon="11.6370658"><ele>1332.0</ele><time>2026-04-26T09:25:05.188Z</time></trkpt><trkpt lat="45.9471501" lon="11.6370922"><ele>1332.0</ele><time>2026-04-26T09:25:06.188Z</time></trkpt><trkpt lat="45.9472772" lon="11.6370957"><ele>1332.0</ele><time>2026-04-26T09:25:07.189Z</time></trkpt><trkpt lat="45.947415" lon="11.6370755"><ele>1332.0</ele><time>2026-04-26T09:25:08.189Z</time></trkpt><trkpt lat="45.9475623" lon="11.6370425"><ele>1332.0</ele><time>2026-04-26T09:25:09.189Z</time></trkpt><trkpt lat="45.9477114" lon="11.6370056"><ele>1334.25</ele><time>2026-04-26T09:25:10.189Z</time></trkpt><trkpt lat="45.947851" lon="11.6369663"><ele>1336.5</ele><time>2026-04-26T09:25:11.188Z</time></trkpt><trkpt lat="45.947978" lon="11.636926"><ele>1338.75</ele><time>2026-04-26T09:25:12.187Z</time></trkpt><trkpt lat="45.9480913" lon="11.6368757"><ele>1341.0</ele><time>2026-04-26T09:25:13.188Z</time></trkpt><trkpt lat="45.9482931" lon="11.6367837"><ele>1341.0</ele><time>2026-04-26T09:25:15.187Z</time></trkpt><trkpt lat="45.9483843" lon="11.6367569"><ele>1341.0</ele><time>2026-04-26T09:25:16.186Z</time></trkpt><trkpt lat="45.9484787" lon="11.6367507"><ele>1341.0</ele><time>2026-04-26T09:25:17.186Z</time></trkpt><trkpt lat="45.9485859" lon="11.6367575"><ele>1341.0</ele><time>2026-04-26T09:25:18.186Z</time></trkpt><trkpt lat="45.9487098" lon="11.636766"><ele>1341.0</ele><time>2026-04-26T09:25:19.188Z</time></trkpt><trkpt lat="45.9488308" lon="11.6367707"><ele>1341.0</ele><time>2026-04-26T09:25:20.19Z</time></trkpt><trkpt lat="45.9489436" lon="11.6367826"><ele>1341.0</ele><time>2026-04-26T09:25:21.188Z</time></trkpt><trkpt lat="45.9490605" lon="11.6368012"><ele>1341.0</ele><time>2026-04-26T09:25:22.187Z</time></trkpt><trkpt lat="45.9491855" lon="11.6368173"><ele>1341.0</ele><time>2026-04-26T09:25:23.189Z</time></trkpt><trkpt lat="45.9493241" lon="11.6368353"><ele>1341.6666666666667</ele><time>2026-04-26T09:25:24.187Z</time></trkpt><trkpt lat="45.9494822" lon="11.6368502"><ele>1342.3333333333335</ele><time>2026-04-26T09:25:25.187Z</time></trkpt><trkpt lat="45.9496476" lon="11.6368538"><ele>1343.0</ele><time>2026-04-26T09:25:26.188Z</time></trkpt><trkpt lat="45.9498038" lon="11.6368507"><ele>1343.0</ele><time>2026-04-26T09:25:27.185Z</time></trkpt><trkpt lat="45.9499507" lon="11.6368488"><ele>1343.0</ele><time>2026-04-26T09:25:28.186Z</time></trkpt><trkpt lat="45.950089" lon="11.6368462"><ele>1343.0</ele><time>2026-04-26T09:25:29.187Z</time></trkpt><trkpt lat="45.9502174" lon="11.6368407"><ele>1343.0</ele><time>2026-04-26T09:25:30.186Z</time></trkpt><trkpt lat="45.950339" lon="11.6368351"><ele>1343.0</ele><time>2026-04-26T09:25:31.186Z</time></trkpt><trkpt lat="45.9504627" lon="11.6368396"><ele>1343.0</ele><time>2026-04-26T09:25:32.187Z</time></trkpt><trkpt lat="45.9505907" lon="11.6368644"><ele>1343.0</ele><time>2026-04-26T09:25:33.187Z</time></trkpt><trkpt lat="45.9507129" lon="11.6369147"><ele>1343.0</ele><time>2026-04-26T09:25:34.187Z</time></trkpt><trkpt lat="45.9509583" lon="11.6371054"><ele>1342.75</ele><time>2026-04-26T09:25:36.186Z</time></trkpt><trkpt lat="45.9510832" lon="11.6372386"><ele>1342.5</ele><time>2026-04-26T09:25:37.186Z</time></trkpt><trkpt lat="45.9512026" lon="11.637365"><ele>1342.25</ele><time>2026-04-26T09:25:38.189Z</time></trkpt><trkpt lat="45.9513189" lon="11.6374816"><ele>1342.0</ele><time>2026-04-26T09:25:39.186Z</time></trkpt><trkpt lat="45.9514385" lon="11.6375944"><ele>1342.0</ele><time>2026-04-26T09:25:40.186Z</time></trkpt><trkpt lat="45.9515611" lon="11.6376916"><ele>1342.0</ele><time>2026-04-26T09:25:41.185Z</time></trkpt><trkpt lat="45.9516885" lon="11.6377653"><ele>1342.0</ele><time>2026-04-26T09:25:42.184Z</time></trkpt><trkpt lat="45.9518284" lon="11.6378253"><ele>1342.0</ele><time>2026-04-26T09:25:43.186Z</time></trkpt><trkpt lat="45.9519781" lon="11.6378763"><ele>1341.0</ele><time>2026-04-26T09:25:44.187Z</time></trkpt><trkpt lat="45.9521296" lon="11.6379125"><ele>1340.0</ele><time>2026-04-26T09:25:45.186Z</time></trkpt><trkpt lat="45.9522737" lon="11.6379312"><ele>1339.0</ele><time>2026-04-26T09:25:46.186Z</time></trkpt><trkpt lat="45.9524079" lon="11.6379353"><ele>1338.0</ele><time>2026-04-26T09:25:47.187Z</time></trkpt><trkpt lat="45.9525345" lon="11.6379302"><ele>1338.25</ele><time>2026-04-26T09:25:48.187Z</time></trkpt><trkpt lat="45.9526531" lon="11.6379212"><ele>1338.5</ele><time>2026-04-26T09:25:49.187Z</time></trkpt><trkpt lat="45.9527755" lon="11.637911"><ele>1338.75</ele><time>2026-04-26T09:25:50.189Z</time></trkpt><trkpt lat="45.9529113" lon="11.637897"><ele>1339.0</ele><time>2026-04-26T09:25:51.185Z</time></trkpt><trkpt lat="45.9530524" lon="11.6378714"><ele>1339.0</ele><time>2026-04-26T09:25:52.186Z</time></trkpt><trkpt lat="45.9531833" lon="11.6378448"><ele>1339.0</ele><time>2026-04-26T09:25:53.186Z</time></trkpt><trkpt lat="45.9533027" lon="11.6378267"><ele>1339.0</ele><time>2026-04-26T09:25:54.188Z</time></trkpt><trkpt lat="45.9534103" lon="11.6378206"><ele>1339.0</ele><time>2026-04-26T09:25:55.19Z</time></trkpt><trkpt lat="45.9536076" lon="11.6378699"><ele>1340.0</ele><time>2026-04-26T09:25:57.187Z</time></trkpt><trkpt lat="45.9537122" lon="11.6379298"><ele>1341.0</ele><time>2026-04-26T09:25:58.188Z</time></trkpt><trkpt lat="45.9538181" lon="11.6380228"><ele>1342.0</ele><time>2026-04-26T09:25:59.189Z</time></trkpt><trkpt lat="45.9539092" lon="11.6381304"><ele>1343.0</ele><time>2026-04-26T09:26:00.189Z</time></trkpt><trkpt lat="45.9539868" lon="11.6382343"><ele>1343.0</ele><time>2026-04-26T09:26:01.19Z</time></trkpt><trkpt lat="45.9540642" lon="11.6383306"><ele>1343.0</ele><time>2026-04-26T09:26:02.192Z</time></trkpt><trkpt lat="45.9541397" lon="11.6384229"><ele>1343.0</ele><time>2026-04-26T09:26:03.187Z</time></trkpt><trkpt lat="45.9541998" lon="11.6385028"><ele>1343.0</ele><time>2026-04-26T09:26:04.186Z</time></trkpt><trkpt lat="45.9542494" lon="11.6385675"><ele>1343.0</ele><time>2026-04-26T09:26:05.187Z</time></trkpt><trkpt lat="45.9543497" lon="11.6386424"><ele>1343.0</ele><time>2026-04-26T09:26:07.186Z</time></trkpt><trkpt lat="45.9544643" lon="11.6386499"><ele>1343.0</ele><time>2026-04-26T09:26:09.187Z</time></trkpt><trkpt lat="45.9545345" lon="11.6386414"><ele>1343.0</ele><time>2026-04-26T09:26:10.189Z</time></trkpt><trkpt lat="45.9546175" lon="11.6386266"><ele>1343.0</ele><time>2026-04-26T09:26:11.186Z</time></trkpt><trkpt lat="45.9547116" lon="11.6386102"><ele>1343.0</ele><time>2026-04-26T09:26:12.189Z</time></trkpt><trkpt lat="45.9548102" lon="11.6385867"><ele>1343.2</ele><time>2026-04-26T09:26:13.187Z</time></trkpt><trkpt lat="45.9548996" lon="11.6385575"><ele>1343.4</ele><time>2026-04-26T09:26:14.189Z</time></trkpt><trkpt lat="45.9549777" lon="11.6385233"><ele>1343.6000000000001</ele><time>2026-04-26T09:26:15.186Z</time></trkpt><trkpt lat="45.9550419" lon="11.638484"><ele>1343.8000000000002</ele><time>2026-04-26T09:26:16.187Z</time></trkpt><trkpt lat="45.9551809" lon="11.6383045"><ele>1344.0</ele><time>2026-04-26T09:26:19.189Z</time></trkpt><trkpt lat="45.9552133" lon="11.6382031"><ele>1344.0</ele><time>2026-04-26T09:26:20.19Z</time></trkpt><trkpt lat="45.9552401" lon="11.6380783"><ele>1344.0</ele><time>2026-04-26T09:26:21.187Z</time></trkpt><trkpt lat="45.9552656" lon="11.6379318"><ele>1344.0</ele><time>2026-04-26T09:26:22.186Z</time></trkpt><trkpt lat="45.9552911" lon="11.6377749"><ele>1344.0</ele><time>2026-04-26T09:26:23.188Z</time></trkpt><trkpt lat="45.9553207" lon="11.6376115"><ele>1344.0</ele><time>2026-04-26T09:26:24.187Z</time></trkpt><trkpt lat="45.9553511" lon="11.6374484"><ele>1345.0</ele><time>2026-04-26T09:26:25.187Z</time></trkpt><trkpt lat="45.9553856" lon="11.6372879"><ele>1346.0</ele><time>2026-04-26T09:26:26.188Z</time></trkpt><trkpt lat="45.9554241" lon="11.6371292"><ele>1347.0</ele><time>2026-04-26T09:26:27.187Z</time></trkpt><trkpt lat="45.9554694" lon="11.6369733"><ele>1348.0</ele><time>2026-04-26T09:26:28.185Z</time></trkpt><trkpt lat="45.9555191" lon="11.636813"><ele>1349.2</ele><time>2026-04-26T09:26:29.184Z</time></trkpt><trkpt lat="45.9555735" lon="11.6366535"><ele>1350.4</ele><time>2026-04-26T09:26:30.185Z</time></trkpt><trkpt lat="45.9556236" lon="11.6365094"><ele>1351.6000000000001</ele><time>2026-04-26T09:26:31.187Z</time></trkpt><trkpt lat="45.9556648" lon="11.6363838"><ele>1352.8000000000002</ele><time>2026-04-26T09:26:32.185Z</time></trkpt><trkpt lat="45.9556981" lon="11.6362715"><ele>1354.0</ele><time>2026-04-26T09:26:33.188Z</time></trkpt><trkpt lat="45.9557279" lon="11.6361641"><ele>1354.6</ele><time>2026-04-26T09:26:34.186Z</time></trkpt><trkpt lat="45.955754" lon="11.636057"><ele>1355.2</ele><time>2026-04-26T09:26:35.188Z</time></trkpt><trkpt lat="45.9557778" lon="11.6359474"><ele>1355.8</ele><time>2026-04-26T09:26:36.187Z</time></trkpt><trkpt lat="45.9558047" lon="11.6358556"><ele>1356.3999999999999</ele><time>2026-04-26T09:26:37.189Z</time></trkpt><trkpt lat="45.9558656" lon="11.6356775"><ele>1357.0</ele><time>2026-04-26T09:26:39.188Z</time></trkpt><trkpt lat="45.955931" lon="11.6355379"><ele>1358.8</ele><time>2026-04-26T09:26:41.191Z</time></trkpt><trkpt lat="45.9560047" lon="11.6354538"><ele>1360.6</ele><time>2026-04-26T09:26:43.187Z</time></trkpt><trkpt lat="45.9561124" lon="11.6354183"><ele>1362.3999999999999</ele><time>2026-04-26T09:26:45.187Z</time></trkpt><trkpt lat="45.9562" lon="11.6355011"><ele>1364.1999999999998</ele><time>2026-04-26T09:26:47.189Z</time></trkpt><trkpt lat="45.9562221" lon="11.635594"><ele>1366.0</ele><time>2026-04-26T09:26:48.187Z</time></trkpt><trkpt lat="45.9562269" lon="11.6357233"><ele>1366.0</ele><time>2026-04-26T09:26:49.188Z</time></trkpt><trkpt lat="45.9562248" lon="11.6358688"><ele>1366.0</ele><time>2026-04-26T09:26:50.188Z</time></trkpt><trkpt lat="45.9562243" lon="11.6360254"><ele>1366.0</ele><time>2026-04-26T09:26:51.188Z</time></trkpt><trkpt lat="45.9562225" lon="11.6361716"><ele>1366.0</ele><time>2026-04-26T09:26:52.189Z</time></trkpt><trkpt lat="45.9562165" lon="11.6362955"><ele>1366.0</ele><time>2026-04-26T09:26:53.187Z</time></trkpt><trkpt lat="45.9562094" lon="11.6363967"><ele>1365.0</ele><time>2026-04-26T09:26:54.185Z</time></trkpt><trkpt lat="45.9562102" lon="11.6365589"><ele>1364.0</ele><time>2026-04-26T09:26:56.187Z</time></trkpt><trkpt lat="45.9562682" lon="11.6366695"><ele>1363.0</ele><time>2026-04-26T09:26:58.187Z</time></trkpt><trkpt lat="45.9564389" lon="11.6366146"><ele>1362.0</ele><time>2026-04-26T09:27:02.189Z</time></trkpt><trkpt lat="45.9564893" lon="11.6365207"><ele>1362.0</ele><time>2026-04-26T09:27:04.188Z</time></trkpt><trkpt lat="45.9565676" lon="11.6363684"><ele>1362.0</ele><time>2026-04-26T09:27:06.189Z</time></trkpt><trkpt lat="45.9566204" lon="11.6362659"><ele>1362.0</ele><time>2026-04-26T09:27:07.187Z</time></trkpt><trkpt lat="45.956668" lon="11.6361753"><ele>1362.0</ele><time>2026-04-26T09:27:08.188Z</time></trkpt><trkpt lat="45.9567146" lon="11.6360873"><ele>1362.0</ele><time>2026-04-26T09:27:09.188Z</time></trkpt><trkpt lat="45.9567624" lon="11.6359995"><ele>1362.1666666666667</ele><time>2026-04-26T09:27:10.189Z</time></trkpt><trkpt lat="45.9568066" lon="11.6359183"><ele>1362.3333333333333</ele><time>2026-04-26T09:27:11.188Z</time></trkpt><trkpt lat="45.95685" lon="11.6358427"><ele>1362.5</ele><time>2026-04-26T09:27:12.188Z</time></trkpt><trkpt lat="45.9568935" lon="11.6357699"><ele>1362.6666666666665</ele><time>2026-04-26T09:27:13.189Z</time></trkpt><trkpt lat="45.9569356" lon="11.6356896"><ele>1362.8333333333333</ele><time>2026-04-26T09:27:14.189Z</time></trkpt><trkpt lat="45.9569731" lon="11.6356072"><ele>1363.0</ele><time>2026-04-26T09:27:15.188Z</time></trkpt><trkpt lat="45.9570433" lon="11.6354705"><ele>1363.0</ele><time>2026-04-26T09:27:17.188Z</time></trkpt><trkpt lat="45.9571154" lon="11.6353374"><ele>1363.0</ele><time>2026-04-26T09:27:19.185Z</time></trkpt><trkpt lat="45.9572673" lon="11.6350603"><ele>1363.0</ele><time>2026-04-26T09:27:23.19Z</time></trkpt><trkpt lat="45.9573178" lon="11.6349659"><ele>1363.0</ele><time>2026-04-26T09:27:24.187Z</time></trkpt><trkpt lat="45.9573798" lon="11.6348539"><ele>1364.75</ele><time>2026-04-26T09:27:25.189Z</time></trkpt><trkpt lat="45.9574517" lon="11.6347253"><ele>1366.5</ele><time>2026-04-26T09:27:26.187Z</time></trkpt><trkpt lat="45.9575337" lon="11.6345778"><ele>1368.25</ele><time>2026-04-26T09:27:27.189Z</time></trkpt><trkpt lat="45.9576234" lon="11.6344179"><ele>1370.0</ele><time>2026-04-26T09:27:28.188Z</time></trkpt><trkpt lat="45.9577094" lon="11.6342689"><ele>1370.5</ele><time>2026-04-26T09:27:29.188Z</time></trkpt><trkpt lat="45.9577885" lon="11.6341334"><ele>1371.0</ele><time>2026-04-26T09:27:30.189Z</time></trkpt><trkpt lat="45.9578702" lon="11.6340018"><ele>1371.5</ele><time>2026-04-26T09:27:31.188Z</time></trkpt><trkpt lat="45.9579541" lon="11.6338608"><ele>1372.0</ele><time>2026-04-26T09:27:32.189Z</time></trkpt><trkpt lat="45.9580375" lon="11.6337085"><ele>1374.0</ele><time>2026-04-26T09:27:33.192Z</time></trkpt><trkpt lat="45.9581102" lon="11.6335653"><ele>1376.0</ele><time>2026-04-26T09:27:34.188Z</time></trkpt><trkpt lat="45.9581705" lon="11.6334279"><ele>1378.0</ele><time>2026-04-26T09:27:35.187Z</time></trkpt><trkpt lat="45.9582107" lon="11.6333172"><ele>1380.0</ele><time>2026-04-26T09:27:36.186Z</time></trkpt><trkpt lat="45.9582395" lon="11.6332225"><ele>1382.0</ele><time>2026-04-26T09:27:37.187Z</time></trkpt><trkpt lat="45.9582679" lon="11.6331379"><ele>1382.0</ele><time>2026-04-26T09:27:38.187Z</time></trkpt><trkpt lat="45.9583577" lon="11.6330071"><ele>1382.0</ele><time>2026-04-26T09:27:40.188Z</time></trkpt><trkpt lat="45.958496" lon="11.6329735"><ele>1382.0</ele><time>2026-04-26T09:27:42.186Z</time></trkpt><trkpt lat="45.9585751" lon="11.6329901"><ele>1382.0</ele><time>2026-04-26T09:27:43.185Z</time></trkpt><trkpt lat="45.9586652" lon="11.6330064"><ele>1382.0</ele><time>2026-04-26T09:27:44.185Z</time></trkpt><trkpt lat="45.9587597" lon="11.6330261"><ele>1381.8333333333335</ele><time>2026-04-26T09:27:45.187Z</time></trkpt><trkpt lat="45.9588416" lon="11.6330504"><ele>1381.6666666666667</ele><time>2026-04-26T09:27:46.188Z</time></trkpt><trkpt lat="45.9589158" lon="11.6330805"><ele>1381.5</ele><time>2026-04-26T09:27:47.189Z</time></trkpt><trkpt lat="45.9589792" lon="11.6331147"><ele>1381.3333333333333</ele><time>2026-04-26T09:27:48.189Z</time></trkpt><trkpt lat="45.9590673" lon="11.6331965"><ele>1381.1666666666665</ele><time>2026-04-26T09:27:50.189Z</time></trkpt><trkpt lat="45.9591411" lon="11.6332872"><ele>1381.0</ele><time>2026-04-26T09:27:52.186Z</time></trkpt><trkpt lat="45.9592323" lon="11.6333482"><ele>1381.0</ele><time>2026-04-26T09:27:54.19Z</time></trkpt><trkpt lat="45.9593341" lon="11.6333666"><ele>1381.0</ele><time>2026-04-26T09:27:56.189Z</time></trkpt><trkpt lat="45.9594478" lon="11.6333278"><ele>1381.0</ele><time>2026-04-26T09:27:58.187Z</time></trkpt><trkpt lat="45.9595461" lon="11.6332654"><ele>1381.0</ele><time>2026-04-26T09:28:00.186Z</time></trkpt><trkpt lat="45.9596534" lon="11.633164"><ele>1381.0</ele><time>2026-04-26T09:28:02.185Z</time></trkpt><trkpt lat="45.9597802" lon="11.6330231"><ele>1381.0</ele><time>2026-04-26T09:28:04.185Z</time></trkpt><trkpt lat="45.9598452" lon="11.632946"><ele>1381.0</ele><time>2026-04-26T09:28:05.185Z</time></trkpt><trkpt lat="45.959906" lon="11.6328614"><ele>1381.0</ele><time>2026-04-26T09:28:06.186Z</time></trkpt><trkpt lat="45.9599719" lon="11.6327699"><ele>1381.0</ele><time>2026-04-26T09:28:07.185Z</time></trkpt><trkpt lat="45.9600378" lon="11.6326872"><ele>1382.5</ele><time>2026-04-26T09:28:08.182Z</time></trkpt><trkpt lat="45.9601029" lon="11.6326099"><ele>1384.0</ele><time>2026-04-26T09:28:09.182Z</time></trkpt><trkpt lat="45.9601667" lon="11.6325341"><ele>1385.5</ele><time>2026-04-26T09:28:10.183Z</time></trkpt><trkpt lat="45.9602283" lon="11.6324573"><ele>1387.0</ele><time>2026-04-26T09:28:11.186Z</time></trkpt><trkpt lat="45.9602898" lon="11.6323876"><ele>1388.5</ele><time>2026-04-26T09:28:12.186Z</time></trkpt><trkpt lat="45.9603489" lon="11.6323255"><ele>1390.0</ele><time>2026-04-26T09:28:13.185Z</time></trkpt><trkpt lat="45.9604136" lon="11.6322718"><ele>1390.0</ele><time>2026-04-26T09:28:14.187Z</time></trkpt><trkpt lat="45.9604827" lon="11.6322384"><ele>1390.0</ele><time>2026-04-26T09:28:15.186Z</time></trkpt><trkpt lat="45.9605529" lon="11.6322334"><ele>1390.0</ele><time>2026-04-26T09:28:16.184Z</time></trkpt><trkpt lat="45.9606226" lon="11.6322608"><ele>1390.0</ele><time>2026-04-26T09:28:17.184Z</time></trkpt><trkpt lat="45.9606971" lon="11.632322"><ele>1390.0</ele><time>2026-04-26T09:28:18.187Z</time></trkpt><trkpt lat="45.9607725" lon="11.6324155"><ele>1390.0</ele><time>2026-04-26T09:28:19.185Z</time></trkpt><trkpt lat="45.9608549" lon="11.6325401"><ele>1390.5</ele><time>2026-04-26T09:28:20.187Z</time></trkpt><trkpt lat="45.9609328" lon="11.6326596"><ele>1391.0</ele><time>2026-04-26T09:28:21.188Z</time></trkpt><trkpt lat="45.9610025" lon="11.6327684"><ele>1391.5</ele><time>2026-04-26T09:28:22.187Z</time></trkpt><trkpt lat="45.9610666" lon="11.6328698"><ele>1392.0</ele><time>2026-04-26T09:28:23.187Z</time></trkpt><trkpt lat="45.9611883" lon="11.6330536"><ele>1392.0</ele><time>2026-04-26T09:28:25.188Z</time></trkpt><trkpt lat="45.9612353" lon="11.6331337"><ele>1392.0</ele><time>2026-04-26T09:28:26.188Z</time></trkpt><trkpt lat="45.9612732" lon="11.6332095"><ele>1392.0</ele><time>2026-04-26T09:28:27.187Z</time></trkpt><trkpt lat="45.9613588" lon="11.6333569"><ele>1392.0</ele><time>2026-04-26T09:28:29.188Z</time></trkpt><trkpt lat="45.9614138" lon="11.6334249"><ele>1392.0</ele><time>2026-04-26T09:28:30.185Z</time></trkpt><trkpt lat="45.9614769" lon="11.6334795"><ele>1392.0</ele><time>2026-04-26T09:28:31.185Z</time></trkpt><trkpt lat="45.9615471" lon="11.6335369"><ele>1392.0</ele><time>2026-04-26T09:28:32.185Z</time></trkpt><trkpt lat="45.961609" lon="11.6336077"><ele>1392.0</ele><time>2026-04-26T09:28:33.186Z</time></trkpt><trkpt lat="45.9616558" lon="11.6336868"><ele>1392.0</ele><time>2026-04-26T09:28:34.183Z</time></trkpt><trkpt lat="45.961701" lon="11.6337767"><ele>1392.0</ele><time>2026-04-26T09:28:35.187Z</time></trkpt><trkpt lat="45.9617398" lon="11.6338711"><ele>1392.0</ele><time>2026-04-26T09:28:36.189Z</time></trkpt><trkpt lat="45.9617765" lon="11.6339556"><ele>1392.0</ele><time>2026-04-26T09:28:37.188Z</time></trkpt><trkpt lat="45.9618255" lon="11.6340258"><ele>1392.0</ele><time>2026-04-26T09:28:38.189Z</time></trkpt><trkpt lat="45.9618892" lon="11.6340801"><ele>1391.6</ele><time>2026-04-26T09:28:39.188Z</time></trkpt><trkpt lat="45.9619631" lon="11.6341121"><ele>1391.1999999999998</ele><time>2026-04-26T09:28:40.188Z</time></trkpt><trkpt lat="45.9620502" lon="11.6341197"><ele>1390.8</ele><time>2026-04-26T09:28:41.188Z</time></trkpt><trkpt lat="45.9621465" lon="11.6341111"><ele>1390.4</ele><time>2026-04-26T09:28:42.191Z</time></trkpt><trkpt lat="45.9622425" lon="11.6341106"><ele>1390.0</ele><time>2026-04-26T09:28:43.189Z</time></trkpt><trkpt lat="45.9623376" lon="11.6341237"><ele>1390.0</ele><time>2026-04-26T09:28:44.192Z</time></trkpt><trkpt lat="45.9625267" lon="11.6341689"><ele>1390.0</ele><time>2026-04-26T09:28:46.189Z</time></trkpt><trkpt lat="45.9626153" lon="11.6341984"><ele>1390.0</ele><time>2026-04-26T09:28:47.191Z</time></trkpt><trkpt lat="45.9626968" lon="11.6342418"><ele>1390.0</ele><time>2026-04-26T09:28:48.19Z</time></trkpt><trkpt lat="45.9627809" lon="11.634286"><ele>1390.5</ele><time>2026-04-26T09:28:49.188Z</time></trkpt><trkpt lat="45.9628656" lon="11.6343119"><ele>1391.0</ele><time>2026-04-26T09:28:50.189Z</time></trkpt><trkpt lat="45.9629613" lon="11.6343203"><ele>1391.5</ele><time>2026-04-26T09:28:51.188Z</time></trkpt><trkpt lat="45.9630514" lon="11.6343136"><ele>1392.0</ele><time>2026-04-26T09:28:52.19Z</time></trkpt><trkpt lat="45.9631298" lon="11.634307"><ele>1392.5</ele><time>2026-04-26T09:28:53.189Z</time></trkpt><trkpt lat="45.9631963" lon="11.6343235"><ele>1393.0</ele><time>2026-04-26T09:28:54.188Z</time></trkpt><trkpt lat="45.9632565" lon="11.6343699"><ele>1393.0</ele><time>2026-04-26T09:28:55.188Z</time></trkpt><trkpt lat="45.9633146" lon="11.6344445"><ele>1393.0</ele><time>2026-04-26T09:28:56.185Z</time></trkpt><trkpt lat="45.9633673" lon="11.6345259"><ele>1393.0</ele><time>2026-04-26T09:28:57.186Z</time></trkpt><trkpt lat="45.9634205" lon="11.6345835"><ele>1393.0</ele><time>2026-04-26T09:28:58.189Z</time></trkpt><trkpt lat="45.9634794" lon="11.6346168"><ele>1393.0</ele><time>2026-04-26T09:28:59.188Z</time></trkpt><trkpt lat="45.9635496" lon="11.6346402"><ele>1393.0</ele><time>2026-04-26T09:29:00.187Z</time></trkpt><trkpt lat="45.9636234" lon="11.6346549"><ele>1393.0</ele><time>2026-04-26T09:29:01.188Z</time></trkpt><trkpt lat="45.9636952" lon="11.6346549"><ele>1394.5</ele><time>2026-04-26T09:29:02.188Z</time></trkpt><trkpt lat="45.9637641" lon="11.6346378"><ele>1396.0</ele><time>2026-04-26T09:29:03.188Z</time></trkpt><trkpt lat="45.9638375" lon="11.6346049"><ele>1397.5</ele><time>2026-04-26T09:29:04.188Z</time></trkpt><trkpt lat="45.9639823" lon="11.6345241"><ele>1399.0</ele><time>2026-04-26T09:29:06.188Z</time></trkpt><trkpt lat="45.9641559" lon="11.6343933"><ele>1404.0</ele><time>2026-04-26T09:29:10.186Z</time></trkpt><trkpt lat="45.9642311" lon="11.6342872"><ele>1409.0</ele><time>2026-04-26T09:29:12.187Z</time></trkpt><trkpt lat="45.9642935" lon="11.6341983"><ele>1414.0</ele><time>2026-04-26T09:29:14.187Z</time></trkpt><trkpt lat="45.9643678" lon="11.6341602"><ele>1419.0</ele><time>2026-04-26T09:29:16.188Z</time></trkpt><trkpt lat="45.9644822" lon="11.634209"><ele>1424.0</ele><time>2026-04-26T09:29:18.188Z</time></trkpt><trkpt lat="45.9645578" lon="11.6342789"><ele>1424.0</ele><time>2026-04-26T09:29:19.188Z</time></trkpt><trkpt lat="45.9646371" lon="11.6343694"><ele>1424.0</ele><time>2026-04-26T09:29:20.187Z</time></trkpt><trkpt lat="45.9647071" lon="11.6344821"><ele>1424.0</ele><time>2026-04-26T09:29:21.184Z</time></trkpt><trkpt lat="45.9647706" lon="11.6346142"><ele>1424.0</ele><time>2026-04-26T09:29:22.186Z</time></trkpt><trkpt lat="45.9648275" lon="11.6347529"><ele>1424.0</ele><time>2026-04-26T09:29:23.187Z</time></trkpt><trkpt lat="45.9648877" lon="11.634881"><ele>1422.25</ele><time>2026-04-26T09:29:24.186Z</time></trkpt><trkpt lat="45.9649555" lon="11.6350164"><ele>1420.5</ele><time>2026-04-26T09:29:25.187Z</time></trkpt><trkpt lat="45.9650166" lon="11.6351642"><ele>1418.75</ele><time>2026-04-26T09:29:26.188Z</time></trkpt><trkpt lat="45.9650678" lon="11.6353118"><ele>1417.0</ele><time>2026-04-26T09:29:27.187Z</time></trkpt><trkpt lat="45.9651506" lon="11.635532"><ele>1419.6666666666665</ele><time>2026-04-26T09:29:29.186Z</time></trkpt><trkpt lat="45.9652316" lon="11.6356673"><ele>1422.3333333333333</ele><time>2026-04-26T09:29:31.186Z</time></trkpt><trkpt lat="45.9652895" lon="11.6357341"><ele>1425.0</ele><time>2026-04-26T09:29:32.187Z</time></trkpt><trkpt lat="45.9653526" lon="11.6358035"><ele>1427.6666666666667</ele><time>2026-04-26T09:29:33.188Z</time></trkpt><trkpt lat="45.9654225" lon="11.6358628"><ele>1430.3333333333335</ele><time>2026-04-26T09:29:34.186Z</time></trkpt><trkpt lat="45.9654901" lon="11.6359123"><ele>1433.0</ele><time>2026-04-26T09:29:35.187Z</time></trkpt><trkpt lat="45.9655999" lon="11.6359681"><ele>1433.0</ele><time>2026-04-26T09:29:37.186Z</time></trkpt><trkpt lat="45.9656994" lon="11.6359727"><ele>1433.0</ele><time>2026-04-26T09:29:39.187Z</time></trkpt><trkpt lat="45.9657874" lon="11.6359041"><ele>1433.0</ele><time>2026-04-26T09:29:41.189Z</time></trkpt><trkpt lat="45.9659123" lon="11.6358242"><ele>1433.0</ele><time>2026-04-26T09:29:43.187Z</time></trkpt><trkpt lat="45.965983" lon="11.6358177"><ele>1433.0</ele><time>2026-04-26T09:29:44.186Z</time></trkpt><trkpt lat="45.9660566" lon="11.6358404"><ele>1435.6000000000001</ele><time>2026-04-26T09:29:45.186Z</time></trkpt><trkpt lat="45.9661361" lon="11.6358902"><ele>1438.2</ele><time>2026-04-26T09:29:46.184Z</time></trkpt><trkpt lat="45.96621" lon="11.6359459"><ele>1440.8</ele><time>2026-04-26T09:29:47.184Z</time></trkpt><trkpt lat="45.9662863" lon="11.6360052"><ele>1443.4</ele><time>2026-04-26T09:29:48.183Z</time></trkpt><trkpt lat="45.9664475" lon="11.6360664"><ele>1446.0</ele><time>2026-04-26T09:29:50.188Z</time></trkpt><trkpt lat="45.9665469" lon="11.6360811"><ele>1446.0</ele><time>2026-04-26T09:29:51.186Z</time></trkpt><trkpt lat="45.9666479" lon="11.6360773"><ele>1446.0</ele><time>2026-04-26T09:29:52.187Z</time></trkpt><trkpt lat="45.9667549" lon="11.6360525"><ele>1446.0</ele><time>2026-04-26T09:29:53.188Z</time></trkpt><trkpt lat="45.9668609" lon="11.6360188"><ele>1446.0</ele><time>2026-04-26T09:29:54.187Z</time></trkpt><trkpt lat="45.9669607" lon="11.6359844"><ele>1446.0</ele><time>2026-04-26T09:29:55.188Z</time></trkpt><trkpt lat="45.9670224" lon="11.6359607"><ele>1445.75</ele><time>2026-04-26T09:29:55.798Z</time></trkpt><trkpt lat="45.9671683" lon="11.6359082"><ele>1445.5</ele><time>2026-04-26T09:29:57.189Z</time></trkpt><trkpt lat="45.9672794" lon="11.6358703"><ele>1445.25</ele><time>2026-04-26T09:29:58.188Z</time></trkpt><trkpt lat="45.967395" lon="11.6358265"><ele>1445.0</ele><time>2026-04-26T09:29:59.188Z</time></trkpt><trkpt lat="45.9675018" lon="11.6357826"><ele>1445.1666666666667</ele><time>2026-04-26T09:30:00.187Z</time></trkpt><trkpt lat="45.9675944" lon="11.6357467"><ele>1445.3333333333335</ele><time>2026-04-26T09:30:01.188Z</time></trkpt><trkpt lat="45.9676762" lon="11.6357183"><ele>1445.5</ele><time>2026-04-26T09:30:02.188Z</time></trkpt><trkpt lat="45.9677529" lon="11.6356898"><ele>1445.6666666666667</ele><time>2026-04-26T09:30:03.19Z</time></trkpt><trkpt lat="45.9678294" lon="11.6356604"><ele>1445.8333333333333</ele><time>2026-04-26T09:30:04.19Z</time></trkpt><trkpt lat="45.9679035" lon="11.6356324"><ele>1446.0</ele><time>2026-04-26T09:30:05.19Z</time></trkpt><trkpt lat="45.9679738" lon="11.6356069"><ele>1446.0</ele><time>2026-04-26T09:30:06.191Z</time></trkpt><trkpt lat="45.9680435" lon="11.6355842"><ele>1446.0</ele><time>2026-04-26T09:30:07.189Z</time></trkpt><trkpt lat="45.9681096" lon="11.6355584"><ele>1446.0</ele><time>2026-04-26T09:30:08.189Z</time></trkpt><trkpt lat="45.968174" lon="11.6355313"><ele>1446.0</ele><time>2026-04-26T09:30:09.187Z</time></trkpt><trkpt lat="45.968352" lon="11.6354496"><ele>1446.0</ele><time>2026-04-26T09:30:12.189Z</time></trkpt><trkpt lat="45.9684126" lon="11.6354245"><ele>1445.6</ele><time>2026-04-26T09:30:13.19Z</time></trkpt><trkpt lat="45.9685375" lon="11.6353638"><ele>1445.1999999999998</ele><time>2026-04-26T09:30:15.189Z</time></trkpt><trkpt lat="45.9686076" lon="11.6353317"><ele>1444.8000000000002</ele><time>2026-04-26T09:30:16.19Z</time></trkpt><trkpt lat="45.9686796" lon="11.6353028"><ele>1444.4</ele><time>2026-04-26T09:30:17.189Z</time></trkpt><trkpt lat="45.9687585" lon="11.6352697"><ele>1444.0</ele><time>2026-04-26T09:30:18.19Z</time></trkpt><trkpt lat="45.9688451" lon="11.6352304"><ele>1444.0</ele><time>2026-04-26T09:30:19.191Z</time></trkpt><trkpt lat="45.9689412" lon="11.6351891"><ele>1444.0</ele><time>2026-04-26T09:30:20.189Z</time></trkpt><trkpt lat="45.969044" lon="11.6351469"><ele>1444.0</ele><time>2026-04-26T09:30:21.189Z</time></trkpt><trkpt lat="45.9691408" lon="11.6351047"><ele>1444.0</ele><time>2026-04-26T09:30:22.19Z</time></trkpt><trkpt lat="45.969236" lon="11.6350638"><ele>1444.0</ele><time>2026-04-26T09:30:23.19Z</time></trkpt><trkpt lat="45.9693353" lon="11.6350215"><ele>1444.2</ele><time>2026-04-26T09:30:24.189Z</time></trkpt><trkpt lat="45.9694297" lon="11.6349806"><ele>1444.4</ele><time>2026-04-26T09:30:25.19Z</time></trkpt><trkpt lat="45.969517" lon="11.6349383"><ele>1444.6</ele><time>2026-04-26T09:30:26.191Z</time></trkpt><trkpt lat="45.9696068" lon="11.6348957"><ele>1444.8</ele><time>2026-04-26T09:30:27.19Z</time></trkpt><trkpt lat="45.9696998" lon="11.6348493"><ele>1445.0</ele><time>2026-04-26T09:30:28.189Z</time></trkpt><trkpt lat="45.9697966" lon="11.6347898"><ele>1445.0</ele><time>2026-04-26T09:30:29.189Z</time></trkpt><trkpt lat="45.9698992" lon="11.6347128"><ele>1445.0</ele><time>2026-04-26T09:30:30.19Z</time></trkpt><trkpt lat="45.9701177" lon="11.6345301"><ele>1445.0</ele><time>2026-04-26T09:30:32.191Z</time></trkpt><trkpt lat="45.9702284" lon="11.6344351"><ele>1444.25</ele><time>2026-04-26T09:30:33.189Z</time></trkpt><trkpt lat="45.970334" lon="11.6343454"><ele>1443.5</ele><time>2026-04-26T09:30:34.187Z</time></trkpt><trkpt lat="45.9704414" lon="11.6342595"><ele>1442.75</ele><time>2026-04-26T09:30:35.188Z</time></trkpt><trkpt lat="45.9705509" lon="11.6341738"><ele>1442.0</ele><time>2026-04-26T09:30:36.188Z</time></trkpt><trkpt lat="45.9706541" lon="11.6340862"><ele>1442.0</ele><time>2026-04-26T09:30:37.187Z</time></trkpt><trkpt lat="45.9707545" lon="11.6340042"><ele>1442.0</ele><time>2026-04-26T09:30:38.19Z</time></trkpt><trkpt lat="45.9708354" lon="11.6339418"><ele>1442.0</ele><time>2026-04-26T09:30:38.991Z</time></trkpt><trkpt lat="45.9709536" lon="11.6338466"><ele>1442.0</ele><time>2026-04-26T09:30:40.19Z</time></trkpt><trkpt lat="45.971053" lon="11.6337674"><ele>1442.1999999999998</ele><time>2026-04-26T09:30:41.191Z</time></trkpt><trkpt lat="45.9711501" lon="11.6336865"><ele>1442.4</ele><time>2026-04-26T09:30:42.191Z</time></trkpt><trkpt lat="45.9712428" lon="11.6336051"><ele>1442.6</ele><time>2026-04-26T09:30:43.19Z</time></trkpt><trkpt lat="45.9713292" lon="11.6335295"><ele>1442.8000000000002</ele><time>2026-04-26T09:30:44.189Z</time></trkpt><trkpt lat="45.9714078" lon="11.6334639"><ele>1443.0</ele><time>2026-04-26T09:30:45.189Z</time></trkpt><trkpt lat="45.9714889" lon="11.6334078"><ele>1443.2</ele><time>2026-04-26T09:30:46.194Z</time></trkpt><trkpt lat="45.9715804" lon="11.6333596"><ele>1443.4</ele><time>2026-04-26T09:30:47.191Z</time></trkpt><trkpt lat="45.9716845" lon="11.6333258"><ele>1443.6000000000001</ele><time>2026-04-26T09:30:48.19Z</time></trkpt><trkpt lat="45.9717964" lon="11.6333025"><ele>1443.8000000000002</ele><time>2026-04-26T09:30:49.189Z</time></trkpt><trkpt lat="45.9719106" lon="11.6332871"><ele>1444.0</ele><time>2026-04-26T09:30:50.192Z</time></trkpt><trkpt lat="45.9720072" lon="11.6332716"><ele>1444.0</ele><time>2026-04-26T09:30:51.19Z</time></trkpt><trkpt lat="45.9721713" lon="11.6332144"><ele>1444.0</ele><time>2026-04-26T09:30:53.189Z</time></trkpt><trkpt lat="45.9722508" lon="11.6331676"><ele>1444.0</ele><time>2026-04-26T09:30:54.19Z</time></trkpt><trkpt lat="45.9723266" lon="11.6330994"><ele>1444.0</ele><time>2026-04-26T09:30:55.19Z</time></trkpt><trkpt lat="45.9723929" lon="11.6330306"><ele>1444.0</ele><time>2026-04-26T09:30:56.189Z</time></trkpt><trkpt lat="45.9724573" lon="11.6329697"><ele>1443.8000000000002</ele><time>2026-04-26T09:30:57.191Z</time></trkpt><trkpt lat="45.9725297" lon="11.6329254"><ele>1443.6000000000001</ele><time>2026-04-26T09:30:58.188Z</time></trkpt><trkpt lat="45.9726118" lon="11.6329079"><ele>1443.4</ele><time>2026-04-26T09:30:59.188Z</time></trkpt><trkpt lat="45.9727131" lon="11.6329152"><ele>1443.2</ele><time>2026-04-26T09:31:00.186Z</time></trkpt><trkpt lat="45.9728233" lon="11.6329396"><ele>1443.0</ele><time>2026-04-26T09:31:01.188Z</time></trkpt><trkpt lat="45.9729212" lon="11.6329698"><ele>1443.0</ele><time>2026-04-26T09:31:02.189Z</time></trkpt><trkpt lat="45.9730164" lon="11.6329985"><ele>1443.0</ele><time>2026-04-26T09:31:03.19Z</time></trkpt><trkpt lat="45.9731099" lon="11.6330258"><ele>1443.0</ele><time>2026-04-26T09:31:04.189Z</time></trkpt><trkpt lat="45.9731971" lon="11.6330531"><ele>1443.0</ele><time>2026-04-26T09:31:05.191Z</time></trkpt><trkpt lat="45.9732902" lon="11.6330804"><ele>1443.0</ele><time>2026-04-26T09:31:06.19Z</time></trkpt><trkpt lat="45.9733843" lon="11.6331079"><ele>1443.1666666666667</ele><time>2026-04-26T09:31:07.19Z</time></trkpt><trkpt lat="45.9734679" lon="11.6331341"><ele>1443.3333333333333</ele><time>2026-04-26T09:31:08.191Z</time></trkpt><trkpt lat="45.9735447" lon="11.633153"><ele>1443.5</ele><time>2026-04-26T09:31:09.19Z</time></trkpt><trkpt lat="45.9736186" lon="11.6331575"><ele>1443.6666666666665</ele><time>2026-04-26T09:31:10.189Z</time></trkpt><trkpt lat="45.9736933" lon="11.6331406"><ele>1443.8333333333333</ele><time>2026-04-26T09:31:11.192Z</time></trkpt><trkpt lat="45.9737739" lon="11.6331012"><ele>1444.0</ele><time>2026-04-26T09:31:12.191Z</time></trkpt><trkpt lat="45.9739624" lon="11.6329897"><ele>1444.0</ele><time>2026-04-26T09:31:14.191Z</time></trkpt><trkpt lat="45.9740589" lon="11.6329398"><ele>1444.0</ele><time>2026-04-26T09:31:15.191Z</time></trkpt><trkpt lat="45.9741623" lon="11.6329019"><ele>1444.0</ele><time>2026-04-26T09:31:16.191Z</time></trkpt><trkpt lat="45.9742655" lon="11.6328723"><ele>1444.0</ele><time>2026-04-26T09:31:17.189Z</time></trkpt><trkpt lat="45.9743473" lon="11.6328481"><ele>1444.0</ele><time>2026-04-26T09:31:18.192Z</time></trkpt><trkpt lat="45.9744478" lon="11.6328272"><ele>1445.0</ele><time>2026-04-26T09:31:20.192Z</time></trkpt><trkpt lat="45.9745187" lon="11.6328014"><ele>1446.0</ele><time>2026-04-26T09:31:57.19Z</time></trkpt><trkpt lat="45.9747193" lon="11.6327041"><ele>1447.0</ele><time>2026-04-26T09:32:00.189Z</time></trkpt><trkpt lat="45.9748294" lon="11.632639"><ele>1448.0</ele><time>2026-04-26T09:32:01.19Z</time></trkpt><trkpt lat="45.9749427" lon="11.6325769"><ele>1444.5</ele><time>2026-04-26T09:32:02.189Z</time></trkpt><trkpt lat="45.9750481" lon="11.6325251"><ele>1441.0</ele><time>2026-04-26T09:32:03.188Z</time></trkpt><trkpt lat="45.9751558" lon="11.6324796"><ele>1437.5</ele><time>2026-04-26T09:32:04.19Z</time></trkpt><trkpt lat="45.9752737" lon="11.6324381"><ele>1434.0</ele><time>2026-04-26T09:32:05.189Z</time></trkpt><trkpt lat="45.9753865" lon="11.6324075"><ele>1434.0</ele><time>2026-04-26T09:32:06.189Z</time></trkpt><trkpt lat="45.9754506" lon="11.6323919"><ele>1434.0</ele><time>2026-04-26T09:32:06.796Z</time></trkpt><trkpt lat="45.9755937" lon="11.6323451"><ele>1434.0</ele><time>2026-04-26T09:32:08.19Z</time></trkpt><trkpt lat="45.9756974" lon="11.6322974"><ele>1434.0</ele><time>2026-04-26T09:32:09.19Z</time></trkpt><trkpt lat="45.9757957" lon="11.6322555"><ele>1434.0</ele><time>2026-04-26T09:32:10.187Z</time></trkpt><trkpt lat="45.9758959" lon="11.6322242"><ele>1433.2</ele><time>2026-04-26T09:32:11.189Z</time></trkpt><trkpt lat="45.9759994" lon="11.6322016"><ele>1432.4</ele><time>2026-04-26T09:32:12.186Z</time></trkpt><trkpt lat="45.9760961" lon="11.6321869"><ele>1431.6</ele><time>2026-04-26T09:32:13.187Z</time></trkpt><trkpt lat="45.9761921" lon="11.6321812"><ele>1430.8</ele><time>2026-04-26T09:32:14.187Z</time></trkpt><trkpt lat="45.9762961" lon="11.6321809"><ele>1430.0</ele><time>2026-04-26T09:32:15.185Z</time></trkpt><trkpt lat="45.9764078" lon="11.6321753"><ele>1430.0</ele><time>2026-04-26T09:32:16.19Z</time></trkpt><trkpt lat="45.9765211" lon="11.6321549"><ele>1430.0</ele><time>2026-04-26T09:32:17.189Z</time></trkpt><trkpt lat="45.9766252" lon="11.6321263"><ele>1430.0</ele><time>2026-04-26T09:32:18.189Z</time></trkpt><trkpt lat="45.9768285" lon="11.632076"><ele>1430.0</ele><time>2026-04-26T09:32:20.188Z</time></trkpt><trkpt lat="45.9769345" lon="11.632039"><ele>1430.0</ele><time>2026-04-26T09:32:21.188Z</time></trkpt><trkpt lat="45.9770478" lon="11.6320001"><ele>1430.0</ele><time>2026-04-26T09:32:22.186Z</time></trkpt><trkpt lat="45.9771639" lon="11.6319614"><ele>1430.0</ele><time>2026-04-26T09:32:23.188Z</time></trkpt><trkpt lat="45.9772834" lon="11.6319185"><ele>1430.0</ele><time>2026-04-26T09:32:24.188Z</time></trkpt><trkpt lat="45.9773963" lon="11.631884"><ele>1429.75</ele><time>2026-04-26T09:32:25.19Z</time></trkpt><trkpt lat="45.9774654" lon="11.6318657"><ele>1429.5</ele><time>2026-04-26T09:32:25.797Z</time></trkpt><trkpt lat="45.9776251" lon="11.6318299"><ele>1429.25</ele><time>2026-04-26T09:32:27.187Z</time></trkpt><trkpt lat="45.9777324" lon="11.6318099"><ele>1429.0</ele><time>2026-04-26T09:32:28.189Z</time></trkpt><trkpt lat="45.9778425" lon="11.6317913"><ele>1426.25</ele><time>2026-04-26T09:32:29.189Z</time></trkpt><trkpt lat="45.977962" lon="11.6317725"><ele>1423.5</ele><time>2026-04-26T09:32:30.188Z</time></trkpt><trkpt lat="45.9780808" lon="11.6317591"><ele>1420.75</ele><time>2026-04-26T09:32:31.187Z</time></trkpt><trkpt lat="45.9781944" lon="11.6317571"><ele>1418.0</ele><time>2026-04-26T09:32:32.189Z</time></trkpt><trkpt lat="45.9783139" lon="11.6317618"><ele>1415.5</ele><time>2026-04-26T09:32:33.188Z</time></trkpt><trkpt lat="45.9784459" lon="11.6317679"><ele>1413.0</ele><time>2026-04-26T09:32:34.189Z</time></trkpt><trkpt lat="45.9785742" lon="11.6317674"><ele>1410.5</ele><time>2026-04-26T09:32:35.191Z</time></trkpt><trkpt lat="45.9786981" lon="11.6317633"><ele>1408.0</ele><time>2026-04-26T09:32:36.187Z</time></trkpt><trkpt lat="45.9788324" lon="11.6317573"><ele>1408.0</ele><time>2026-04-26T09:32:37.187Z</time></trkpt><trkpt lat="45.9789652" lon="11.6317526"><ele>1408.0</ele><time>2026-04-26T09:32:38.188Z</time></trkpt><trkpt lat="45.9790958" lon="11.6317484"><ele>1408.0</ele><time>2026-04-26T09:32:39.186Z</time></trkpt><trkpt lat="45.979356" lon="11.6317325"><ele>1407.8000000000002</ele><time>2026-04-26T09:32:41.188Z</time></trkpt><trkpt lat="45.9794744" lon="11.631728"><ele>1407.6</ele><time>2026-04-26T09:32:42.189Z</time></trkpt><trkpt lat="45.9795838" lon="11.6317255"><ele>1407.4</ele><time>2026-04-26T09:32:43.188Z</time></trkpt><trkpt lat="45.9796826" lon="11.631721"><ele>1407.1999999999998</ele><time>2026-04-26T09:32:44.189Z</time></trkpt><trkpt lat="45.9797751" lon="11.6317095"><ele>1407.0</ele><time>2026-04-26T09:32:45.19Z</time></trkpt><trkpt lat="45.9798621" lon="11.631701"><ele>1407.0</ele><time>2026-04-26T09:32:46.188Z</time></trkpt><trkpt lat="45.9799457" lon="11.631703"><ele>1407.0</ele><time>2026-04-26T09:32:47.188Z</time></trkpt><trkpt lat="45.9800267" lon="11.6317263"><ele>1407.0</ele><time>2026-04-26T09:32:48.188Z</time></trkpt><trkpt lat="45.9800991" lon="11.6317592"><ele>1407.0</ele><time>2026-04-26T09:32:49.187Z</time></trkpt><trkpt lat="45.980166" lon="11.6317932"><ele>1407.0</ele><time>2026-04-26T09:32:50.187Z</time></trkpt><trkpt lat="45.9802407" lon="11.6318322"><ele>1407.0</ele><time>2026-04-26T09:32:51.188Z</time></trkpt><trkpt lat="45.9803221" lon="11.6318659"><ele>1407.3333333333333</ele><time>2026-04-26T09:32:52.186Z</time></trkpt><trkpt lat="45.9804027" lon="11.6318945"><ele>1407.6666666666667</ele><time>2026-04-26T09:32:53.188Z</time></trkpt><trkpt lat="45.9804797" lon="11.6319206"><ele>1408.0</ele><time>2026-04-26T09:32:54.187Z</time></trkpt><trkpt lat="45.9805614" lon="11.6319366"><ele>1408.3333333333335</ele><time>2026-04-26T09:32:55.188Z</time></trkpt><trkpt lat="45.9806507" lon="11.6319432"><ele>1408.6666666666667</ele><time>2026-04-26T09:32:56.188Z</time></trkpt><trkpt lat="45.9807444" lon="11.6319408"><ele>1409.0</ele><time>2026-04-26T09:32:57.188Z</time></trkpt><trkpt lat="45.9808353" lon="11.6319316"><ele>1409.2</ele><time>2026-04-26T09:32:58.188Z</time></trkpt><trkpt lat="45.9809229" lon="11.6319179"><ele>1409.4</ele><time>2026-04-26T09:32:59.187Z</time></trkpt><trkpt lat="45.9810094" lon="11.6319017"><ele>1409.6</ele><time>2026-04-26T09:33:00.188Z</time></trkpt><trkpt lat="45.9811755" lon="11.6318719"><ele>1409.8</ele><time>2026-04-26T09:33:02.184Z</time></trkpt><trkpt lat="45.9812583" lon="11.6318715"><ele>1410.0</ele><time>2026-04-26T09:33:03.183Z</time></trkpt><trkpt lat="45.9813454" lon="11.6318801"><ele>1410.0</ele><time>2026-04-26T09:33:04.184Z</time></trkpt><trkpt lat="45.9814328" lon="11.6318827"><ele>1410.0</ele><time>2026-04-26T09:33:05.186Z</time></trkpt><trkpt lat="45.9815277" lon="11.6318731"><ele>1410.0</ele><time>2026-04-26T09:33:06.186Z</time></trkpt><trkpt lat="45.981629" lon="11.6318559"><ele>1410.0</ele><time>2026-04-26T09:33:07.186Z</time></trkpt><trkpt lat="45.9817276" lon="11.6318394"><ele>1410.0</ele><time>2026-04-26T09:33:08.186Z</time></trkpt><trkpt lat="45.9818277" lon="11.6318117"><ele>1409.1666666666667</ele><time>2026-04-26T09:33:09.186Z</time></trkpt><trkpt lat="45.9819233" lon="11.6317907"><ele>1408.3333333333333</ele><time>2026-04-26T09:33:10.186Z</time></trkpt><trkpt lat="45.9819989" lon="11.6317706"><ele>1407.5</ele><time>2026-04-26T09:33:11.188Z</time></trkpt><trkpt lat="45.9820658" lon="11.6317358"><ele>1406.6666666666665</ele><time>2026-04-26T09:33:12.187Z</time></trkpt><trkpt lat="45.9821318" lon="11.6316914"><ele>1405.8333333333333</ele><time>2026-04-26T09:33:13.188Z</time></trkpt><trkpt lat="45.9821904" lon="11.6316475"><ele>1405.0</ele><time>2026-04-26T09:33:13.985Z</time></trkpt><trkpt lat="45.9822863" lon="11.6315694"><ele>1405.0</ele><time>2026-04-26T09:33:15.186Z</time></trkpt><trkpt lat="45.9823626" lon="11.6315031"><ele>1405.0</ele><time>2026-04-26T09:33:16.184Z</time></trkpt><trkpt lat="45.9824394" lon="11.6314488"><ele>1405.0</ele><time>2026-04-26T09:33:17.185Z</time></trkpt><trkpt lat="45.9824965" lon="11.6313991"><ele>1405.0</ele><time>2026-04-26T09:33:18.186Z</time></trkpt><trkpt lat="45.9825949" lon="11.6313061"><ele>1405.0</ele><time>2026-04-26T09:33:20.186Z</time></trkpt><trkpt lat="45.9826704" lon="11.6311717"><ele>1404.1666666666665</ele><time>2026-04-26T09:33:22.185Z</time></trkpt><trkpt lat="45.9827418" lon="11.6310051"><ele>1403.3333333333333</ele><time>2026-04-26T09:33:24.182Z</time></trkpt><trkpt lat="45.9827706" lon="11.6309197"><ele>1402.5</ele><time>2026-04-26T09:33:25.185Z</time></trkpt><trkpt lat="45.9827932" lon="11.6308302"><ele>1401.6666666666667</ele><time>2026-04-26T09:33:26.184Z</time></trkpt><trkpt lat="45.9828075" lon="11.6307264"><ele>1400.8333333333335</ele><time>2026-04-26T09:33:27.182Z</time></trkpt><trkpt lat="45.9828143" lon="11.630627"><ele>1400.0</ele><time>2026-04-26T09:33:28.183Z</time></trkpt><trkpt lat="45.9828214" lon="11.6304561"><ele>1395.6666666666667</ele><time>2026-04-26T09:33:30.184Z</time></trkpt><trkpt lat="45.9828008" lon="11.6302776"><ele>1391.3333333333335</ele><time>2026-04-26T09:33:32.185Z</time></trkpt><trkpt lat="45.9827818" lon="11.6301783"><ele>1387.0</ele><time>2026-04-26T09:33:33.184Z</time></trkpt><trkpt lat="45.9827611" lon="11.6300724"><ele>1382.6666666666667</ele><time>2026-04-26T09:33:34.184Z</time></trkpt><trkpt lat="45.9827346" lon="11.6299722"><ele>1378.3333333333333</ele><time>2026-04-26T09:33:35.183Z</time></trkpt><trkpt lat="45.9827055" lon="11.6298785"><ele>1374.0</ele><time>2026-04-26T09:33:36.185Z</time></trkpt><trkpt lat="45.9826784" lon="11.6297925"><ele>1374.0</ele><time>2026-04-26T09:33:37.185Z</time></trkpt><trkpt lat="45.9826093" lon="11.6296652"><ele>1374.0</ele><time>2026-04-26T09:33:39.185Z</time></trkpt><trkpt lat="45.982554" lon="11.6295786"><ele>1374.0</ele><time>2026-04-26T09:33:41.184Z</time></trkpt><trkpt lat="45.9825841" lon="11.6294678"><ele>1374.0</ele><time>2026-04-26T09:33:44.185Z</time></trkpt><trkpt lat="45.9826823" lon="11.6296178"><ele>1374.0</ele><time>2026-04-26T09:33:47.183Z</time></trkpt><trkpt lat="45.9827249" lon="11.629733"><ele>1374.0</ele><time>2026-04-26T09:33:48.184Z</time></trkpt><trkpt lat="45.9827717" lon="11.6298513"><ele>1374.0</ele><time>2026-04-26T09:33:49.186Z</time></trkpt><trkpt lat="45.982814" lon="11.6299608"><ele>1374.0</ele><time>2026-04-26T09:33:50.182Z</time></trkpt><trkpt lat="45.9828395" lon="11.630045"><ele>1374.0</ele><time>2026-04-26T09:33:51.182Z</time></trkpt><trkpt lat="45.982874" lon="11.6301396"><ele>1374.0</ele><time>2026-04-26T09:33:53.182Z</time></trkpt><trkpt lat="45.9829479" lon="11.6300879"><ele>1374.0</ele><time>2026-04-26T09:33:56.184Z</time></trkpt><trkpt lat="45.9829389" lon="11.6299171"><ele>1374.0</ele><time>2026-04-26T09:33:58.185Z</time></trkpt><trkpt lat="45.9829188" lon="11.6298065"><ele>1374.0</ele><time>2026-04-26T09:33:59.184Z</time></trkpt><trkpt lat="45.9828843" lon="11.6296997"><ele>1374.0</ele><time>2026-04-26T09:34:00.182Z</time></trkpt><trkpt lat="45.9828466" lon="11.629597"><ele>1374.0</ele><time>2026-04-26T09:34:01.183Z</time></trkpt><trkpt lat="45.9827984" lon="11.6294816"><ele>1374.0</ele><time>2026-04-26T09:34:02.184Z</time></trkpt><trkpt lat="45.9827412" lon="11.6293733"><ele>1374.0</ele><time>2026-04-26T09:34:03.185Z</time></trkpt><trkpt lat="45.9826986" lon="11.6292739"><ele>1375.1666666666667</ele><time>2026-04-26T09:34:04.182Z</time></trkpt><trkpt lat="45.9826491" lon="11.6291821"><ele>1376.3333333333333</ele><time>2026-04-26T09:34:05.184Z</time></trkpt><trkpt lat="45.9825516" lon="11.6290181"><ele>1377.5</ele><time>2026-04-26T09:34:07.184Z</time></trkpt><trkpt lat="45.9825146" lon="11.6289361"><ele>1378.6666666666665</ele><time>2026-04-26T09:34:08.185Z</time></trkpt><trkpt lat="45.9824661" lon="11.6288521"><ele>1379.8333333333333</ele><time>2026-04-26T09:34:09.182Z</time></trkpt><trkpt lat="45.9824188" lon="11.6287741"><ele>1381.0</ele><time>2026-04-26T09:34:10.183Z</time></trkpt><trkpt lat="45.9823554" lon="11.6286863"><ele>1376.0</ele><time>2026-04-26T09:34:11.186Z</time></trkpt><trkpt lat="45.9822816" lon="11.6285901"><ele>1371.0</ele><time>2026-04-26T09:34:12.181Z</time></trkpt><trkpt lat="45.982218" lon="11.6284946"><ele>1366.0</ele><time>2026-04-26T09:34:13.183Z</time></trkpt><trkpt lat="45.9821584" lon="11.6284137"><ele>1361.0</ele><time>2026-04-26T09:34:14.182Z</time></trkpt><trkpt lat="45.9820963" lon="11.6283596"><ele>1356.0</ele><time>2026-04-26T09:34:15.181Z</time></trkpt><trkpt lat="45.9820203" lon="11.6282837"><ele>1351.0</ele><time>2026-04-26T09:34:16.181Z</time></trkpt><trkpt lat="45.9819371" lon="11.6282"><ele>1351.0</ele><time>2026-04-26T09:34:17.18Z</time></trkpt><trkpt lat="45.9818588" lon="11.6281208"><ele>1351.0</ele><time>2026-04-26T09:34:18.18Z</time></trkpt><trkpt lat="45.9817812" lon="11.6280462"><ele>1351.0</ele><time>2026-04-26T09:34:19.183Z</time></trkpt><trkpt lat="45.9817125" lon="11.6279724"><ele>1351.0</ele><time>2026-04-26T09:34:20.183Z</time></trkpt><trkpt lat="45.9816495" lon="11.6278937"><ele>1351.0</ele><time>2026-04-26T09:34:21.183Z</time></trkpt><trkpt lat="45.9815895" lon="11.6277968"><ele>1351.0</ele><time>2026-04-26T09:34:22.183Z</time></trkpt><trkpt lat="45.9815329" lon="11.6276766"><ele>1352.5</ele><time>2026-04-26T09:34:23.184Z</time></trkpt><trkpt lat="45.9814769" lon="11.6275397"><ele>1354.0</ele><time>2026-04-26T09:34:24.184Z</time></trkpt><trkpt lat="45.9814333" lon="11.6273986"><ele>1355.5</ele><time>2026-04-26T09:34:25.182Z</time></trkpt><trkpt lat="45.9813967" lon="11.6272625"><ele>1357.0</ele><time>2026-04-26T09:34:26.186Z</time></trkpt><trkpt lat="45.9813548" lon="11.6270001"><ele>1352.8333333333333</ele><time>2026-04-26T09:34:28.183Z</time></trkpt><trkpt lat="45.9813396" lon="11.6268854"><ele>1348.6666666666665</ele><time>2026-04-26T09:34:29.184Z</time></trkpt><trkpt lat="45.9813127" lon="11.6267853"><ele>1344.5</ele><time>2026-04-26T09:34:30.182Z</time></trkpt><trkpt lat="45.9812662" lon="11.6266984"><ele>1340.3333333333333</ele><time>2026-04-26T09:34:31.182Z</time></trkpt><trkpt lat="45.9811991" lon="11.6266163"><ele>1336.1666666666667</ele><time>2026-04-26T09:34:32.185Z</time></trkpt><trkpt lat="45.9811095" lon="11.626531"><ele>1332.0</ele><time>2026-04-26T09:34:33.182Z</time></trkpt><trkpt lat="45.9810135" lon="11.6264528"><ele>1332.0</ele><time>2026-04-26T09:34:34.182Z</time></trkpt><trkpt lat="45.9809253" lon="11.6263897"><ele>1332.0</ele><time>2026-04-26T09:34:35.183Z</time></trkpt><trkpt lat="45.9808316" lon="11.6263406"><ele>1332.0</ele><time>2026-04-26T09:34:36.182Z</time></trkpt><trkpt lat="45.9807233" lon="11.6262859"><ele>1332.0</ele><time>2026-04-26T09:34:37.182Z</time></trkpt><trkpt lat="45.9806236" lon="11.62625"><ele>1332.0</ele><time>2026-04-26T09:34:38.181Z</time></trkpt><trkpt lat="45.9805326" lon="11.6262166"><ele>1330.8</ele><time>2026-04-26T09:34:39.182Z</time></trkpt><trkpt lat="45.9804334" lon="11.6261889"><ele>1329.6</ele><time>2026-04-26T09:34:40.181Z</time></trkpt><trkpt lat="45.9803252" lon="11.6261606"><ele>1328.3999999999999</ele><time>2026-04-26T09:34:41.182Z</time></trkpt><trkpt lat="45.9802235" lon="11.6261298"><ele>1327.1999999999998</ele><time>2026-04-26T09:34:42.181Z</time></trkpt><trkpt lat="45.9801288" lon="11.6261046"><ele>1326.0</ele><time>2026-04-26T09:34:43.184Z</time></trkpt><trkpt lat="45.9800371" lon="11.626091"><ele>1325.8</ele><time>2026-04-26T09:34:44.183Z</time></trkpt><trkpt lat="45.9799488" lon="11.6260735"><ele>1325.6</ele><time>2026-04-26T09:34:45.183Z</time></trkpt><trkpt lat="45.979864" lon="11.626065"><ele>1325.4</ele><time>2026-04-26T09:34:46.183Z</time></trkpt><trkpt lat="45.9797773" lon="11.6260663"><ele>1325.2</ele><time>2026-04-26T09:34:47.186Z</time></trkpt><trkpt lat="45.9795998" lon="11.6261521"><ele>1325.0</ele><time>2026-04-26T09:34:49.183Z</time></trkpt><trkpt lat="45.9795093" lon="11.6261872"><ele>1330.0</ele><time>2026-04-26T09:34:50.183Z</time></trkpt><trkpt lat="45.979425" lon="11.626199"><ele>1335.0</ele><time>2026-04-26T09:34:51.182Z</time></trkpt><trkpt lat="45.9793525" lon="11.6262012"><ele>1340.0</ele><time>2026-04-26T09:34:52.18Z</time></trkpt><trkpt lat="45.9792847" lon="11.6262151"><ele>1345.0</ele><time>2026-04-26T09:34:53.182Z</time></trkpt><trkpt lat="45.9792037" lon="11.6262584"><ele>1350.0</ele><time>2026-04-26T09:34:54.181Z</time></trkpt><trkpt lat="45.979101" lon="11.6263213"><ele>1355.0</ele><time>2026-04-26T09:34:55.181Z</time></trkpt><trkpt lat="45.9790007" lon="11.6263732"><ele>1355.0</ele><time>2026-04-26T09:34:56.182Z</time></trkpt><trkpt lat="45.9789035" lon="11.626428"><ele>1355.0</ele><time>2026-04-26T09:34:57.185Z</time></trkpt><trkpt lat="45.9788009" lon="11.6264747"><ele>1355.0</ele><time>2026-04-26T09:34:58.184Z</time></trkpt><trkpt lat="45.9787027" lon="11.6265051"><ele>1355.0</ele><time>2026-04-26T09:34:59.184Z</time></trkpt><trkpt lat="45.9785969" lon="11.6265155"><ele>1355.0</ele><time>2026-04-26T09:35:00.18Z</time></trkpt><trkpt lat="45.9784929" lon="11.6265092"><ele>1355.0</ele><time>2026-04-26T09:35:01.181Z</time></trkpt><trkpt lat="45.9783921" lon="11.6264908"><ele>1355.0</ele><time>2026-04-26T09:35:02.183Z</time></trkpt><trkpt lat="45.9782969" lon="11.6264637"><ele>1355.0</ele><time>2026-04-26T09:35:03.181Z</time></trkpt><trkpt lat="45.9781903" lon="11.6264287"><ele>1355.0</ele><time>2026-04-26T09:35:04.179Z</time></trkpt><trkpt lat="45.9780753" lon="11.6263887"><ele>1355.0</ele><time>2026-04-26T09:35:05.179Z</time></trkpt><trkpt lat="45.9779495" lon="11.6263359"><ele>1354.6666666666667</ele><time>2026-04-26T09:35:06.181Z</time></trkpt><trkpt lat="45.977827" lon="11.6262917"><ele>1354.3333333333333</ele><time>2026-04-26T09:35:07.18Z</time></trkpt><trkpt lat="45.9777156" lon="11.6262562"><ele>1354.0</ele><time>2026-04-26T09:35:08.181Z</time></trkpt><trkpt lat="45.9774623" lon="11.6261869"><ele>1346.8000000000002</ele><time>2026-04-26T09:35:10.181Z</time></trkpt><trkpt lat="45.977323" lon="11.6261226"><ele>1339.6000000000001</ele><time>2026-04-26T09:35:11.182Z</time></trkpt><trkpt lat="45.9772174" lon="11.6260503"><ele>1332.4</ele><time>2026-04-26T09:35:12.183Z</time></trkpt><trkpt lat="45.977139" lon="11.62597"><ele>1325.2</ele><time>2026-04-26T09:35:13.182Z</time></trkpt><trkpt lat="45.9770805" lon="11.6258877"><ele>1318.0</ele><time>2026-04-26T09:35:14.183Z</time></trkpt><trkpt lat="45.9770368" lon="11.6258066"><ele>1318.0</ele><time>2026-04-26T09:35:15.182Z</time></trkpt><trkpt lat="45.9769828" lon="11.6257045"><ele>1318.0</ele><time>2026-04-26T09:35:16.182Z</time></trkpt><trkpt lat="45.9769068" lon="11.6255815"><ele>1318.0</ele><time>2026-04-26T09:35:17.182Z</time></trkpt><trkpt lat="45.9768158" lon="11.6254339"><ele>1318.0</ele><time>2026-04-26T09:35:18.186Z</time></trkpt><trkpt lat="45.9767315" lon="11.6252827"><ele>1319.6000000000001</ele><time>2026-04-26T09:35:19.183Z</time></trkpt><trkpt lat="45.9766544" lon="11.6251532"><ele>1321.2</ele><time>2026-04-26T09:35:20.184Z</time></trkpt><trkpt lat="45.9765858" lon="11.6250318"><ele>1322.8</ele><time>2026-04-26T09:35:21.186Z</time></trkpt><trkpt lat="45.9765289" lon="11.6249097"><ele>1324.4</ele><time>2026-04-26T09:35:22.187Z</time></trkpt><trkpt lat="45.9764607" lon="11.624785"><ele>1326.0</ele><time>2026-04-26T09:35:23.187Z</time></trkpt><trkpt lat="45.9763822" lon="11.6246648"><ele>1326.0</ele><time>2026-04-26T09:35:24.186Z</time></trkpt><trkpt lat="45.9763105" lon="11.6245595"><ele>1326.0</ele><time>2026-04-26T09:35:25.183Z</time></trkpt><trkpt lat="45.9762482" lon="11.6244617"><ele>1326.0</ele><time>2026-04-26T09:35:26.184Z</time></trkpt><trkpt lat="45.9761874" lon="11.624367"><ele>1326.0</ele><time>2026-04-26T09:35:27.184Z</time></trkpt><trkpt lat="45.9761214" lon="11.6242677"><ele>1326.0</ele><time>2026-04-26T09:35:28.182Z</time></trkpt><trkpt lat="45.9760735" lon="11.6241543"><ele>1326.1999999999998</ele><time>2026-04-26T09:35:29.185Z</time></trkpt><trkpt lat="45.9760058" lon="11.6239388"><ele>1326.3999999999999</ele><time>2026-04-26T09:35:31.184Z</time></trkpt><trkpt lat="45.9759796" lon="11.6238498"><ele>1326.6</ele><time>2026-04-26T09:35:32.187Z</time></trkpt><trkpt lat="45.9759491" lon="11.6237311"><ele>1326.8</ele><time>2026-04-26T09:35:34.187Z</time></trkpt><trkpt lat="45.9759603" lon="11.6236219"><ele>1327.0</ele><time>2026-04-26T09:36:08.187Z</time></trkpt><trkpt lat="45.9761257" lon="11.6236488"><ele>1327.0</ele><time>2026-04-26T09:36:12.187Z</time></trkpt><trkpt lat="45.9761923" lon="11.6237213"><ele>1327.0</ele><time>2026-04-26T09:36:13.186Z</time></trkpt><trkpt lat="45.9762518" lon="11.6238097"><ele>1327.0</ele><time>2026-04-26T09:36:14.187Z</time></trkpt><trkpt lat="45.9762976" lon="11.6239"><ele>1327.0</ele><time>2026-04-26T09:36:15.186Z</time></trkpt><trkpt lat="45.9763509" lon="11.6240205"><ele>1327.0</ele><time>2026-04-26T09:36:17.185Z</time></trkpt><trkpt lat="45.976321" lon="11.6239125"><ele>1327.0</ele><time>2026-04-26T09:36:34.187Z</time></trkpt><trkpt lat="45.9762101" lon="11.6237254"><ele>1327.0</ele><time>2026-04-26T09:36:36.187Z</time></trkpt><trkpt lat="45.9761394" lon="11.6236562"><ele>1327.0</ele><time>2026-04-26T09:36:37.188Z</time></trkpt><trkpt lat="45.9760708" lon="11.6236157"><ele>1327.0</ele><time>2026-04-26T09:36:38.189Z</time></trkpt><trkpt lat="45.9759745" lon="11.6235887"><ele>1327.0</ele><time>2026-04-26T09:36:40.187Z</time></trkpt><trkpt lat="45.9758905" lon="11.6235445"><ele>1327.0</ele><time>2026-04-26T09:37:07.184Z</time></trkpt><trkpt lat="45.9756372" lon="11.6233649"><ele>1326.5</ele><time>2026-04-26T09:37:10.189Z</time></trkpt><trkpt lat="45.975566" lon="11.6233032"><ele>1326.0</ele><time>2026-04-26T09:37:11.188Z</time></trkpt><trkpt lat="45.9755044" lon="11.6232536"><ele>1325.5</ele><time>2026-04-26T09:37:12.188Z</time></trkpt><trkpt lat="45.9754412" lon="11.6232247"><ele>1325.0</ele><time>2026-04-26T09:37:13.188Z</time></trkpt><trkpt lat="45.9753654" lon="11.6232059"><ele>1324.5</ele><time>2026-04-26T09:37:14.192Z</time></trkpt><trkpt lat="45.9752797" lon="11.6231833"><ele>1324.0</ele><time>2026-04-26T09:37:15.189Z</time></trkpt><trkpt lat="45.9751978" lon="11.6231695"><ele>1324.0</ele><time>2026-04-26T09:37:16.188Z</time></trkpt><trkpt lat="45.9751082" lon="11.6231701"><ele>1324.0</ele><time>2026-04-26T09:37:17.191Z</time></trkpt><trkpt lat="45.9750084" lon="11.6231706"><ele>1324.0</ele><time>2026-04-26T09:37:18.189Z</time></trkpt><trkpt lat="45.9749008" lon="11.6231569"><ele>1324.0</ele><time>2026-04-26T09:37:19.189Z</time></trkpt><trkpt lat="45.9747947" lon="11.6231427"><ele>1324.0</ele><time>2026-04-26T09:37:20.191Z</time></trkpt><trkpt lat="45.9746965" lon="11.6231315"><ele>1322.0</ele><time>2026-04-26T09:37:21.188Z</time></trkpt><trkpt lat="45.9746015" lon="11.6231205"><ele>1320.0</ele><time>2026-04-26T09:37:22.188Z</time></trkpt><trkpt lat="45.9745017" lon="11.6231138"><ele>1318.0</ele><time>2026-04-26T09:37:23.188Z</time></trkpt><trkpt lat="45.9743986" lon="11.6231106"><ele>1316.0</ele><time>2026-04-26T09:37:24.189Z</time></trkpt><trkpt lat="45.9742921" lon="11.6231064"><ele>1314.0</ele><time>2026-04-26T09:37:25.192Z</time></trkpt><trkpt lat="45.9741753" lon="11.6230931"><ele>1313.3333333333333</ele><time>2026-04-26T09:37:26.189Z</time></trkpt><trkpt lat="45.974045" lon="11.6230707"><ele>1312.6666666666665</ele><time>2026-04-26T09:37:27.19Z</time></trkpt><trkpt lat="45.9739198" lon="11.6230514"><ele>1312.0</ele><time>2026-04-26T09:37:28.189Z</time></trkpt><trkpt lat="45.9736914" lon="11.6230453"><ele>1312.0</ele><time>2026-04-26T09:37:30.188Z</time></trkpt><trkpt lat="45.9735677" lon="11.6230551"><ele>1312.0</ele><time>2026-04-26T09:37:31.187Z</time></trkpt><trkpt lat="45.973441" lon="11.6230562"><ele>1312.0</ele><time>2026-04-26T09:37:32.186Z</time></trkpt><trkpt lat="45.9733299" lon="11.6230443"><ele>1312.0</ele><time>2026-04-26T09:37:33.186Z</time></trkpt><trkpt lat="45.9732344" lon="11.6230229"><ele>1312.6666666666665</ele><time>2026-04-26T09:37:34.187Z</time></trkpt><trkpt lat="45.973153" lon="11.6230004"><ele>1313.3333333333333</ele><time>2026-04-26T09:37:35.189Z</time></trkpt><trkpt lat="45.9730863" lon="11.6229746"><ele>1314.0</ele><time>2026-04-26T09:37:36.19Z</time></trkpt><trkpt lat="45.9730295" lon="11.6229333"><ele>1314.6666666666667</ele><time>2026-04-26T09:37:37.189Z</time></trkpt><trkpt lat="45.9729715" lon="11.6228674"><ele>1315.3333333333335</ele><time>2026-04-26T09:37:38.189Z</time></trkpt><trkpt lat="45.9729041" lon="11.622778"><ele>1316.0</ele><time>2026-04-26T09:37:39.188Z</time></trkpt><trkpt lat="45.9728278" lon="11.6226692"><ele>1319.0</ele><time>2026-04-26T09:37:40.19Z</time></trkpt><trkpt lat="45.972744" lon="11.6225456"><ele>1322.0</ele><time>2026-04-26T09:37:41.189Z</time></trkpt><trkpt lat="45.9726607" lon="11.6224344"><ele>1325.0</ele><time>2026-04-26T09:37:42.189Z</time></trkpt><trkpt lat="45.9725708" lon="11.6223259"><ele>1328.0</ele><time>2026-04-26T09:37:43.189Z</time></trkpt><trkpt lat="45.9724861" lon="11.622219"><ele>1329.8333333333335</ele><time>2026-04-26T09:37:44.191Z</time></trkpt><trkpt lat="45.9724002" lon="11.6221161"><ele>1331.6666666666667</ele><time>2026-04-26T09:37:45.192Z</time></trkpt><trkpt lat="45.972314" lon="11.6220274"><ele>1333.5</ele><time>2026-04-26T09:37:46.19Z</time></trkpt><trkpt lat="45.9722408" lon="11.6219564"><ele>1335.3333333333333</ele><time>2026-04-26T09:37:47.19Z</time></trkpt><trkpt lat="45.9721811" lon="11.621898"><ele>1337.1666666666665</ele><time>2026-04-26T09:37:48.192Z</time></trkpt><trkpt lat="45.9721306" lon="11.6218339"><ele>1339.0</ele><time>2026-04-26T09:37:49.19Z</time></trkpt><trkpt lat="45.9720457" lon="11.6216576"><ele>1339.8333333333333</ele><time>2026-04-26T09:37:51.189Z</time></trkpt><trkpt lat="45.9720099" lon="11.6215409"><ele>1340.6666666666665</ele><time>2026-04-26T09:37:52.189Z</time></trkpt><trkpt lat="45.9719777" lon="11.6214281"><ele>1341.5</ele><time>2026-04-26T09:37:53.189Z</time></trkpt><trkpt lat="45.9719461" lon="11.6213261"><ele>1342.3333333333333</ele><time>2026-04-26T09:37:54.19Z</time></trkpt><trkpt lat="45.9719097" lon="11.621223"><ele>1343.1666666666667</ele><time>2026-04-26T09:37:55.186Z</time></trkpt><trkpt lat="45.9718718" lon="11.6211174"><ele>1344.0</ele><time>2026-04-26T09:37:56.188Z</time></trkpt><trkpt lat="45.9718409" lon="11.6210214"><ele>1344.0</ele><time>2026-04-26T09:37:57.187Z</time></trkpt><trkpt lat="45.9718013" lon="11.6208759"><ele>1344.0</ele><time>2026-04-26T09:37:59.189Z</time></trkpt><trkpt lat="45.9717548" lon="11.6207566"><ele>1344.0</ele><time>2026-04-26T09:38:42.191Z</time></trkpt><trkpt lat="45.9716664" lon="11.6203962"><ele>1343.0</ele><time>2026-04-26T09:38:45.188Z</time></trkpt><trkpt lat="45.9716387" lon="11.6202644"><ele>1342.0</ele><time>2026-04-26T09:38:46.188Z</time></trkpt><trkpt lat="45.9716129" lon="11.6201565"><ele>1341.0</ele><time>2026-04-26T09:38:47.188Z</time></trkpt><trkpt lat="45.9715931" lon="11.6200542"><ele>1340.0</ele><time>2026-04-26T09:38:48.19Z</time></trkpt><trkpt lat="45.9715756" lon="11.6199386"><ele>1339.0</ele><time>2026-04-26T09:38:49.189Z</time></trkpt><trkpt lat="45.9715624" lon="11.6198112"><ele>1338.0</ele><time>2026-04-26T09:38:50.192Z</time></trkpt><trkpt lat="45.9715608" lon="11.6196922"><ele>1338.0</ele><time>2026-04-26T09:38:51.192Z</time></trkpt><trkpt lat="45.9715737" lon="11.6195844"><ele>1338.0</ele><time>2026-04-26T09:38:52.189Z</time></trkpt><trkpt lat="45.9715915" lon="11.6194594"><ele>1338.0</ele><time>2026-04-26T09:38:53.191Z</time></trkpt><trkpt lat="45.9716129" lon="11.6193246"><ele>1338.0</ele><time>2026-04-26T09:38:54.19Z</time></trkpt><trkpt lat="45.9716328" lon="11.6191984"><ele>1338.0</ele><time>2026-04-26T09:38:55.191Z</time></trkpt><trkpt lat="45.9716483" lon="11.6190777"><ele>1338.0</ele><time>2026-04-26T09:38:56.193Z</time></trkpt><trkpt lat="45.9716666" lon="11.6189459"><ele>1338.0</ele><time>2026-04-26T09:38:57.192Z</time></trkpt><trkpt lat="45.9716874" lon="11.6188033"><ele>1338.0</ele><time>2026-04-26T09:38:58.19Z</time></trkpt><trkpt lat="45.9717072" lon="11.6186726"><ele>1338.0</ele><time>2026-04-26T09:38:59.192Z</time></trkpt><trkpt lat="45.971727" lon="11.6185494"><ele>1338.0</ele><time>2026-04-26T09:39:00.191Z</time></trkpt><trkpt lat="45.9717479" lon="11.6184147"><ele>1338.0</ele><time>2026-04-26T09:39:01.19Z</time></trkpt><trkpt lat="45.9717703" lon="11.6182779"><ele>1338.5</ele><time>2026-04-26T09:39:02.191Z</time></trkpt><trkpt lat="45.9717901" lon="11.6181534"><ele>1339.0</ele><time>2026-04-26T09:39:03.19Z</time></trkpt><trkpt lat="45.9718258" lon="11.6179029"><ele>1339.5</ele><time>2026-04-26T09:39:05.19Z</time></trkpt><trkpt lat="45.9718512" lon="11.6177651"><ele>1340.0</ele><time>2026-04-26T09:39:06.192Z</time></trkpt><trkpt lat="45.9718801" lon="11.617624"><ele>1340.4</ele><time>2026-04-26T09:39:07.192Z</time></trkpt><trkpt lat="45.9719036" lon="11.6174886"><ele>1340.8</ele><time>2026-04-26T09:39:08.191Z</time></trkpt><trkpt lat="45.9719194" lon="11.6173593"><ele>1341.1999999999998</ele><time>2026-04-26T09:39:09.189Z</time></trkpt><trkpt lat="45.9719323" lon="11.6172268"><ele>1341.6</ele><time>2026-04-26T09:39:10.189Z</time></trkpt><trkpt lat="45.9719497" lon="11.6170906"><ele>1342.0</ele><time>2026-04-26T09:39:11.19Z</time></trkpt><trkpt lat="45.9719732" lon="11.616957"><ele>1342.3333333333333</ele><time>2026-04-26T09:39:12.189Z</time></trkpt><trkpt lat="45.9719979" lon="11.6168217"><ele>1342.6666666666665</ele><time>2026-04-26T09:39:13.19Z</time></trkpt><trkpt lat="45.9720222" lon="11.6166875"><ele>1343.0</ele><time>2026-04-26T09:39:14.191Z</time></trkpt><trkpt lat="45.9720444" lon="11.6165654"><ele>1343.3333333333333</ele><time>2026-04-26T09:39:15.19Z</time></trkpt><trkpt lat="45.9720616" lon="11.6164541"><ele>1343.6666666666667</ele><time>2026-04-26T09:39:16.191Z</time></trkpt><trkpt lat="45.9720768" lon="11.6163447"><ele>1344.0</ele><time>2026-04-26T09:39:17.191Z</time></trkpt><trkpt lat="45.9720963" lon="11.6162336"><ele>1344.142857142857</ele><time>2026-04-26T09:39:18.191Z</time></trkpt><trkpt lat="45.9721228" lon="11.6161325"><ele>1344.2857142857142</ele><time>2026-04-26T09:39:19.191Z</time></trkpt><trkpt lat="45.9721501" lon="11.6160392"><ele>1344.4285714285716</ele><time>2026-04-26T09:39:20.193Z</time></trkpt><trkpt lat="45.9721738" lon="11.6159478"><ele>1344.5714285714284</ele><time>2026-04-26T09:39:21.193Z</time></trkpt><trkpt lat="45.972187" lon="11.6158536"><ele>1344.7142857142858</ele><time>2026-04-26T09:39:22.191Z</time></trkpt><trkpt lat="45.972176" lon="11.61576"><ele>1344.857142857143</ele><time>2026-04-26T09:39:23.193Z</time></trkpt><trkpt lat="45.9721391" lon="11.6156629"><ele>1345.0</ele><time>2026-04-26T09:39:24.191Z</time></trkpt><trkpt lat="45.971999" lon="11.6154925"><ele>1345.0</ele><time>2026-04-26T09:39:26.192Z</time></trkpt><trkpt lat="45.971903" lon="11.6154371"><ele>1345.0</ele><time>2026-04-26T09:39:27.19Z</time></trkpt><trkpt lat="45.9718026" lon="11.6153922"><ele>1345.0</ele><time>2026-04-26T09:39:28.191Z</time></trkpt><trkpt lat="45.9717093" lon="11.615348"><ele>1345.0</ele><time>2026-04-26T09:39:29.191Z</time></trkpt><trkpt lat="45.971626" lon="11.6152932"><ele>1345.0</ele><time>2026-04-26T09:39:30.19Z</time></trkpt><trkpt lat="45.9715614" lon="11.6152131"><ele>1345.0</ele><time>2026-04-26T09:39:31.19Z</time></trkpt><trkpt lat="45.9715087" lon="11.6151017"><ele>1345.0</ele><time>2026-04-26T09:39:32.191Z</time></trkpt><trkpt lat="45.9714548" lon="11.6149726"><ele>1345.0</ele><time>2026-04-26T09:39:33.188Z</time></trkpt><trkpt lat="45.9714014" lon="11.6148879"><ele>1345.0</ele><time>2026-04-26T09:39:33.993Z</time></trkpt><trkpt lat="45.9712953" lon="11.6147956"><ele>1345.0</ele><time>2026-04-26T09:39:35.188Z</time></trkpt><trkpt lat="45.9711844" lon="11.6147364"><ele>1345.0</ele><time>2026-04-26T09:39:36.188Z</time></trkpt><trkpt lat="45.9710774" lon="11.6146815"><ele>1345.0</ele><time>2026-04-26T09:39:37.193Z</time></trkpt><trkpt lat="45.970987" lon="11.6146032"><ele>1345.0</ele><time>2026-04-26T09:39:38.19Z</time></trkpt><trkpt lat="45.9709107" lon="11.6144942"><ele>1345.0</ele><time>2026-04-26T09:39:39.191Z</time></trkpt><trkpt lat="45.970843" lon="11.6143649"><ele>1345.0</ele><time>2026-04-26T09:39:40.191Z</time></trkpt><trkpt lat="45.9708015" lon="11.614224"><ele>1344.8</ele><time>2026-04-26T09:39:41.192Z</time></trkpt><trkpt lat="45.9707863" lon="11.6140723"><ele>1344.6</ele><time>2026-04-26T09:39:42.19Z</time></trkpt><trkpt lat="45.9707826" lon="11.6139042"><ele>1344.4</ele><time>2026-04-26T09:39:43.19Z</time></trkpt><trkpt lat="45.9707621" lon="11.6137426"><ele>1344.2</ele><time>2026-04-26T09:39:44.192Z</time></trkpt><trkpt lat="45.9707343" lon="11.6135981"><ele>1344.0</ele><time>2026-04-26T09:39:45.188Z</time></trkpt><trkpt lat="45.9706586" lon="11.6132947"><ele>1345.0</ele><time>2026-04-26T09:39:47.191Z</time></trkpt><trkpt lat="45.9706125" lon="11.6131254"><ele>1346.0</ele><time>2026-04-26T09:39:48.19Z</time></trkpt><trkpt lat="45.970574" lon="11.6129379"><ele>1347.0</ele><time>2026-04-26T09:39:49.191Z</time></trkpt><trkpt lat="45.9705445" lon="11.6127586"><ele>1348.0</ele><time>2026-04-26T09:39:50.192Z</time></trkpt><trkpt lat="45.9705095" lon="11.6125987"><ele>1349.0</ele><time>2026-04-26T09:39:51.193Z</time></trkpt><trkpt lat="45.9704682" lon="11.6124545"><ele>1350.0</ele><time>2026-04-26T09:39:52.19Z</time></trkpt><trkpt lat="45.9704329" lon="11.6123379"><ele>1351.0</ele><time>2026-04-26T09:39:52.991Z</time></trkpt><trkpt lat="45.9703736" lon="11.6121491"><ele>1352.0</ele><time>2026-04-26T09:39:54.192Z</time></trkpt><trkpt lat="45.9703161" lon="11.6119932"><ele>1352.3999999999999</ele><time>2026-04-26T09:39:55.191Z</time></trkpt><trkpt lat="45.9702604" lon="11.6118505"><ele>1352.8</ele><time>2026-04-26T09:39:56.192Z</time></trkpt><trkpt lat="45.9702105" lon="11.6117153"><ele>1353.2</ele><time>2026-04-26T09:39:57.19Z</time></trkpt><trkpt lat="45.9701702" lon="11.6115843"><ele>1353.6</ele><time>2026-04-26T09:39:58.189Z</time></trkpt><trkpt lat="45.9701505" lon="11.6114417"><ele>1354.0</ele><time>2026-04-26T09:39:59.189Z</time></trkpt><trkpt lat="45.9701483" lon="11.6112727"><ele>1354.0</ele><time>2026-04-26T09:40:00.19Z</time></trkpt><trkpt lat="45.9701624" lon="11.6110733"><ele>1354.0</ele><time>2026-04-26T09:40:01.189Z</time></trkpt><trkpt lat="45.9701821" lon="11.6108616"><ele>1354.0</ele><time>2026-04-26T09:40:02.19Z</time></trkpt><trkpt lat="45.970198" lon="11.6106782"><ele>1354.0</ele><time>2026-04-26T09:40:03.19Z</time></trkpt><trkpt lat="45.9702274" lon="11.6105262"><ele>1354.0</ele><time>2026-04-26T09:40:04.191Z</time></trkpt><trkpt lat="45.970273" lon="11.6103893"><ele>1354.0</ele><time>2026-04-26T09:40:05.192Z</time></trkpt><trkpt lat="45.9703203" lon="11.6102628"><ele>1354.0</ele><time>2026-04-26T09:40:06.192Z</time></trkpt><trkpt lat="45.9704054" lon="11.6100485"><ele>1354.0</ele><time>2026-04-26T09:40:08.192Z</time></trkpt><trkpt lat="45.9704373" lon="11.6099422"><ele>1354.5</ele><time>2026-04-26T09:40:09.191Z</time></trkpt><trkpt lat="45.9704586" lon="11.6098332"><ele>1355.0</ele><time>2026-04-26T09:40:10.191Z</time></trkpt><trkpt lat="45.9704702" lon="11.6097137"><ele>1355.5</ele><time>2026-04-26T09:40:11.191Z</time></trkpt><trkpt lat="45.9704702" lon="11.6095773"><ele>1356.0</ele><time>2026-04-26T09:40:12.19Z</time></trkpt><trkpt lat="45.9704691" lon="11.6094378"><ele>1356.5</ele><time>2026-04-26T09:40:13.19Z</time></trkpt><trkpt lat="45.9704689" lon="11.6093112"><ele>1357.0</ele><time>2026-04-26T09:40:14.192Z</time></trkpt><trkpt lat="45.9704713" lon="11.6091884"><ele>1358.0</ele><time>2026-04-26T09:40:15.191Z</time></trkpt><trkpt lat="45.9704591" lon="11.6090548"><ele>1359.0</ele><time>2026-04-26T09:40:16.189Z</time></trkpt><trkpt lat="45.9704187" lon="11.6089077"><ele>1360.0</ele><time>2026-04-26T09:40:17.189Z</time></trkpt><trkpt lat="45.9703694" lon="11.6087678"><ele>1361.0</ele><time>2026-04-26T09:40:18.189Z</time></trkpt><trkpt lat="45.9703244" lon="11.6086349"><ele>1362.0</ele><time>2026-04-26T09:40:19.191Z</time></trkpt><trkpt lat="45.970274" lon="11.6085117"><ele>1361.6</ele><time>2026-04-26T09:40:20.19Z</time></trkpt><trkpt lat="45.9702064" lon="11.6084097"><ele>1361.1999999999998</ele><time>2026-04-26T09:40:21.191Z</time></trkpt><trkpt lat="45.9701233" lon="11.6083191"><ele>1360.8</ele><time>2026-04-26T09:40:22.186Z</time></trkpt><trkpt lat="45.9700386" lon="11.6082454"><ele>1360.4</ele><time>2026-04-26T09:40:23.188Z</time></trkpt><trkpt lat="45.9699627" lon="11.6081821"><ele>1360.0</ele><time>2026-04-26T09:40:24.186Z</time></trkpt><trkpt lat="45.9699003" lon="11.6081127"><ele>1360.0</ele><time>2026-04-26T09:40:25.187Z</time></trkpt><trkpt lat="45.9698472" lon="11.6080437"><ele>1360.0</ele><time>2026-04-26T09:40:26.189Z</time></trkpt><trkpt lat="45.9698009" lon="11.607975"><ele>1360.0</ele><time>2026-04-26T09:40:27.188Z</time></trkpt><trkpt lat="45.9696796" lon="11.6077666"><ele>1360.0</ele><time>2026-04-26T09:40:31.187Z</time></trkpt><trkpt lat="45.9696121" lon="11.6076936"><ele>1360.0</ele><time>2026-04-26T09:40:33.188Z</time></trkpt><trkpt lat="45.9695387" lon="11.6076349"><ele>1360.1666666666665</ele><time>2026-04-26T09:40:35.189Z</time></trkpt><trkpt lat="45.9694454" lon="11.6075476"><ele>1360.3333333333333</ele><time>2026-04-26T09:40:37.189Z</time></trkpt><trkpt lat="45.9693997" lon="11.607484"><ele>1360.5</ele><time>2026-04-26T09:40:38.189Z</time></trkpt><trkpt lat="45.9693667" lon="11.6073954"><ele>1360.6666666666667</ele><time>2026-04-26T09:40:39.189Z</time></trkpt><trkpt lat="45.9693424" lon="11.6072789"><ele>1360.8333333333335</ele><time>2026-04-26T09:40:40.19Z</time></trkpt><trkpt lat="45.9693226" lon="11.6071276"><ele>1361.0</ele><time>2026-04-26T09:40:41.188Z</time></trkpt><trkpt lat="45.9693115" lon="11.6070016"><ele>1360.8</ele><time>2026-04-26T09:40:41.99Z</time></trkpt><trkpt lat="45.96931" lon="11.6068263"><ele>1360.6</ele><time>2026-04-26T09:40:43.189Z</time></trkpt><trkpt lat="45.9693221" lon="11.6066721"><ele>1360.4</ele><time>2026-04-26T09:40:44.19Z</time></trkpt><trkpt lat="45.9693526" lon="11.606527"><ele>1360.2</ele><time>2026-04-26T09:40:45.191Z</time></trkpt><trkpt lat="45.9693951" lon="11.6063943"><ele>1360.0</ele><time>2026-04-26T09:40:46.191Z</time></trkpt><trkpt lat="45.9694291" lon="11.6062707"><ele>1360.25</ele><time>2026-04-26T09:40:47.19Z</time></trkpt><trkpt lat="45.9694485" lon="11.606147"><ele>1360.5</ele><time>2026-04-26T09:40:48.187Z</time></trkpt><trkpt lat="45.9694535" lon="11.6058649"><ele>1360.75</ele><time>2026-04-26T09:40:50.19Z</time></trkpt><trkpt lat="45.9694263" lon="11.6057013"><ele>1361.0</ele><time>2026-04-26T09:40:51.19Z</time></trkpt><trkpt lat="45.9693746" lon="11.6055063"><ele>1360.6666666666667</ele><time>2026-04-26T09:40:52.189Z</time></trkpt><trkpt lat="45.9693107" lon="11.6053153"><ele>1360.3333333333333</ele><time>2026-04-26T09:40:53.189Z</time></trkpt><trkpt lat="45.9692441" lon="11.6051204"><ele>1360.0</ele><time>2026-04-26T09:40:54.188Z</time></trkpt><trkpt lat="45.969186" lon="11.6049168"><ele>1360.0</ele><time>2026-04-26T09:40:55.189Z</time></trkpt><trkpt lat="45.9691353" lon="11.60473"><ele>1360.0</ele><time>2026-04-26T09:40:56.192Z</time></trkpt><trkpt lat="45.9690905" lon="11.6045357"><ele>1360.0</ele><time>2026-04-26T09:40:57.19Z</time></trkpt><trkpt lat="45.9690658" lon="11.6043464"><ele>1360.0</ele><time>2026-04-26T09:40:58.188Z</time></trkpt><trkpt lat="45.9690403" lon="11.6041678"><ele>1360.0</ele><time>2026-04-26T09:40:59.189Z</time></trkpt><trkpt lat="45.9690052" lon="11.6039825"><ele>1360.0</ele><time>2026-04-26T09:41:00.191Z</time></trkpt><trkpt lat="45.9689678" lon="11.6037868"><ele>1360.0</ele><time>2026-04-26T09:41:01.188Z</time></trkpt><trkpt lat="45.9689339" lon="11.6036032"><ele>1360.0</ele><time>2026-04-26T09:41:02.19Z</time></trkpt><trkpt lat="45.9689041" lon="11.60343"><ele>1360.0</ele><time>2026-04-26T09:41:03.187Z</time></trkpt><trkpt lat="45.9688873" lon="11.6032651"><ele>1360.0</ele><time>2026-04-26T09:41:04.189Z</time></trkpt><trkpt lat="45.9688803" lon="11.6031168"><ele>1360.0</ele><time>2026-04-26T09:41:05.19Z</time></trkpt><trkpt lat="45.9688784" lon="11.6029852"><ele>1360.0</ele><time>2026-04-26T09:41:06.191Z</time></trkpt><trkpt lat="45.9688771" lon="11.6028726"><ele>1360.0</ele><time>2026-04-26T09:41:07.189Z</time></trkpt><trkpt lat="45.9688671" lon="11.6027216"><ele>1360.0</ele><time>2026-04-26T09:41:09.187Z</time></trkpt><trkpt lat="45.9688689" lon="11.602511"><ele>1360.0</ele><time>2026-04-26T09:42:28.189Z</time></trkpt><trkpt lat="45.9686288" lon="11.602627"><ele>1360.0</ele><time>2026-04-26T09:42:32.192Z</time></trkpt><trkpt lat="45.9684967" lon="11.6027227"><ele>1360.6666666666665</ele><time>2026-04-26T09:42:33.193Z</time></trkpt><trkpt lat="45.9683401" lon="11.6028339"><ele>1361.3333333333333</ele><time>2026-04-26T09:42:34.194Z</time></trkpt><trkpt lat="45.9681658" lon="11.602955"><ele>1362.0</ele><time>2026-04-26T09:42:35.192Z</time></trkpt><trkpt lat="45.9679745" lon="11.6030731"><ele>1362.0</ele><time>2026-04-26T09:42:36.192Z</time></trkpt><trkpt lat="45.9677732" lon="11.6031825"><ele>1362.0</ele><time>2026-04-26T09:42:37.192Z</time></trkpt><trkpt lat="45.9675822" lon="11.6032778"><ele>1362.0</ele><time>2026-04-26T09:42:38.192Z</time></trkpt><trkpt lat="45.9674033" lon="11.6033632"><ele>1361.6666666666667</ele><time>2026-04-26T09:42:39.192Z</time></trkpt><trkpt lat="45.9672311" lon="11.603445"><ele>1361.3333333333335</ele><time>2026-04-26T09:42:40.192Z</time></trkpt><trkpt lat="45.9670599" lon="11.6035289"><ele>1361.0</ele><time>2026-04-26T09:42:41.191Z</time></trkpt><trkpt lat="45.9668878" lon="11.6036146"><ele>1361.0</ele><time>2026-04-26T09:42:42.19Z</time></trkpt><trkpt lat="45.9667123" lon="11.6036982"><ele>1361.0</ele><time>2026-04-26T09:42:43.19Z</time></trkpt><trkpt lat="45.9665322" lon="11.6037678"><ele>1361.0</ele><time>2026-04-26T09:42:44.191Z</time></trkpt><trkpt lat="45.9663495" lon="11.6038191"><ele>1360.6666666666667</ele><time>2026-04-26T09:42:45.191Z</time></trkpt><trkpt lat="45.9661667" lon="11.6038665"><ele>1360.3333333333333</ele><time>2026-04-26T09:42:46.192Z</time></trkpt><trkpt lat="45.9659832" lon="11.6039205"><ele>1360.0</ele><time>2026-04-26T09:42:47.192Z</time></trkpt><trkpt lat="45.9657944" lon="11.6039922"><ele>1360.0</ele><time>2026-04-26T09:42:48.189Z</time></trkpt><trkpt lat="45.9656099" lon="11.6040674"><ele>1360.0</ele><time>2026-04-26T09:42:49.189Z</time></trkpt><trkpt lat="45.9652749" lon="11.6041917"><ele>1360.0</ele><time>2026-04-26T09:42:51.19Z</time></trkpt><trkpt lat="45.9651085" lon="11.6042491"><ele>1360.0</ele><time>2026-04-26T09:42:52.188Z</time></trkpt><trkpt lat="45.9649358" lon="11.6043138"><ele>1360.0</ele><time>2026-04-26T09:42:53.191Z</time></trkpt><trkpt lat="45.964765" lon="11.6043788"><ele>1360.5</ele><time>2026-04-26T09:42:54.192Z</time></trkpt><trkpt lat="45.9646119" lon="11.6044367"><ele>1361.0</ele><time>2026-04-26T09:42:55.192Z</time></trkpt><trkpt lat="45.9644876" lon="11.6044863"><ele>1361.5</ele><time>2026-04-26T09:42:56.192Z</time></trkpt><trkpt lat="45.9643859" lon="11.6045218"><ele>1362.0</ele><time>2026-04-26T09:42:57.191Z</time></trkpt><trkpt lat="45.9642922" lon="11.6045265"><ele>1362.1999999999998</ele><time>2026-04-26T09:42:58.191Z</time></trkpt><trkpt lat="45.9641951" lon="11.6044936"><ele>1362.4</ele><time>2026-04-26T09:42:59.191Z</time></trkpt><trkpt lat="45.9640988" lon="11.604423"><ele>1362.6</ele><time>2026-04-26T09:43:00.191Z</time></trkpt><trkpt lat="45.9640199" lon="11.6043215"><ele>1362.8000000000002</ele><time>2026-04-26T09:43:01.192Z</time></trkpt><trkpt lat="45.9639552" lon="11.6041827"><ele>1363.0</ele><time>2026-04-26T09:43:02.191Z</time></trkpt><trkpt lat="45.9638965" lon="11.6040059"><ele>1363.0</ele><time>2026-04-26T09:43:03.189Z</time></trkpt><trkpt lat="45.9638318" lon="11.6037954"><ele>1363.0</ele><time>2026-04-26T09:43:04.19Z</time></trkpt><trkpt lat="45.96376" lon="11.603563"><ele>1363.0</ele><time>2026-04-26T09:43:05.191Z</time></trkpt><trkpt lat="45.9636929" lon="11.6033458"><ele>1362.75</ele><time>2026-04-26T09:43:06.191Z</time></trkpt><trkpt lat="45.9636351" lon="11.6031462"><ele>1362.5</ele><time>2026-04-26T09:43:07.189Z</time></trkpt><trkpt lat="45.9635899" lon="11.602968"><ele>1362.25</ele><time>2026-04-26T09:43:08.191Z</time></trkpt><trkpt lat="45.9635624" lon="11.6027995"><ele>1362.0</ele><time>2026-04-26T09:43:09.193Z</time></trkpt><trkpt lat="45.9635682" lon="11.6026327"><ele>1362.3333333333333</ele><time>2026-04-26T09:43:10.19Z</time></trkpt><trkpt lat="45.9636946" lon="11.6022854"><ele>1362.6666666666665</ele><time>2026-04-26T09:43:12.191Z</time></trkpt><trkpt lat="45.963802" lon="11.6021172"><ele>1363.0</ele><time>2026-04-26T09:43:13.19Z</time></trkpt><trkpt lat="45.9639072" lon="11.6019822"><ele>1363.0</ele><time>2026-04-26T09:43:14.188Z</time></trkpt><trkpt lat="45.9639946" lon="11.6018529"><ele>1363.0</ele><time>2026-04-26T09:43:15.189Z</time></trkpt><trkpt lat="45.9640601" lon="11.6017037"><ele>1363.0</ele><time>2026-04-26T09:43:16.188Z</time></trkpt><trkpt lat="45.9640914" lon="11.6015332"><ele>1363.0</ele><time>2026-04-26T09:43:17.19Z</time></trkpt><trkpt lat="45.9640835" lon="11.6013337"><ele>1364.0</ele><time>2026-04-26T09:43:18.19Z</time></trkpt><trkpt lat="45.9640448" lon="11.6011022"><ele>1365.0</ele><time>2026-04-26T09:43:19.19Z</time></trkpt><trkpt lat="45.9639942" lon="11.6008386"><ele>1366.0</ele><time>2026-04-26T09:43:20.19Z</time></trkpt><trkpt lat="45.9639443" lon="11.6005596"><ele>1366.0</ele><time>2026-04-26T09:43:21.193Z</time></trkpt><trkpt lat="45.9639135" lon="11.6003889"><ele>1366.0</ele><time>2026-04-26T09:43:21.8Z</time></trkpt><trkpt lat="45.9638382" lon="11.6000174"><ele>1366.0</ele><time>2026-04-26T09:43:23.191Z</time></trkpt><trkpt lat="45.9637853" lon="11.599772"><ele>1367.3333333333333</ele><time>2026-04-26T09:43:24.192Z</time></trkpt><trkpt lat="45.9637357" lon="11.5995489"><ele>1368.6666666666667</ele><time>2026-04-26T09:43:25.19Z</time></trkpt><trkpt lat="45.9636835" lon="11.5993512"><ele>1370.0</ele><time>2026-04-26T09:43:26.191Z</time></trkpt><trkpt lat="45.9636056" lon="11.5991719"><ele>1370.0</ele><time>2026-04-26T09:43:27.19Z</time></trkpt><trkpt lat="45.9634909" lon="11.5990095"><ele>1370.0</ele><time>2026-04-26T09:43:28.192Z</time></trkpt><trkpt lat="45.9633463" lon="11.5988493"><ele>1370.0</ele><time>2026-04-26T09:43:29.193Z</time></trkpt><trkpt lat="45.9632034" lon="11.5986726"><ele>1367.5</ele><time>2026-04-26T09:43:30.19Z</time></trkpt><trkpt lat="45.9630819" lon="11.5984911"><ele>1365.0</ele><time>2026-04-26T09:43:31.192Z</time></trkpt><trkpt lat="45.9628692" lon="11.5981589"><ele>1365.0</ele><time>2026-04-26T09:43:33.193Z</time></trkpt><trkpt lat="45.9627751" lon="11.5980116"><ele>1365.0</ele><time>2026-04-26T09:43:34.191Z</time></trkpt><trkpt lat="45.9626849" lon="11.597872"><ele>1365.0</ele><time>2026-04-26T09:43:35.191Z</time></trkpt><trkpt lat="45.9625925" lon="11.597736"><ele>1365.0</ele><time>2026-04-26T09:43:36.19Z</time></trkpt><trkpt lat="45.9624935" lon="11.5976064"><ele>1365.0</ele><time>2026-04-26T09:43:37.188Z</time></trkpt><trkpt lat="45.9623833" lon="11.5974886"><ele>1365.0</ele><time>2026-04-26T09:43:38.188Z</time></trkpt><trkpt lat="45.9622718" lon="11.5973865"><ele>1365.0</ele><time>2026-04-26T09:43:39.188Z</time></trkpt><trkpt lat="45.9621667" lon="11.5973"><ele>1365.0</ele><time>2026-04-26T09:43:40.188Z</time></trkpt><trkpt lat="45.962076" lon="11.5972209"><ele>1365.0</ele><time>2026-04-26T09:43:41.189Z</time></trkpt><trkpt lat="45.9620038" lon="11.597142"><ele>1365.0</ele><time>2026-04-26T09:43:42.19Z</time></trkpt><trkpt lat="45.9619506" lon="11.59706"><ele>1365.0</ele><time>2026-04-26T09:43:43.19Z</time></trkpt><trkpt lat="45.9619094" lon="11.5969749"><ele>1365.0</ele><time>2026-04-26T09:43:44.191Z</time></trkpt><trkpt lat="45.9618775" lon="11.5968842"><ele>1365.0</ele><time>2026-04-26T09:43:45.189Z</time></trkpt><trkpt lat="45.9618454" lon="11.5967874"><ele>1365.0</ele><time>2026-04-26T09:43:46.19Z</time></trkpt><trkpt lat="45.9618153" lon="11.5967025"><ele>1366.25</ele><time>2026-04-26T09:43:47.191Z</time></trkpt><trkpt lat="45.9617707" lon="11.5965801"><ele>1367.5</ele><time>2026-04-26T09:43:49.191Z</time></trkpt><trkpt lat="45.9617751" lon="11.5964881"><ele>1368.75</ele><time>2026-04-26T09:43:51.19Z</time></trkpt><trkpt lat="45.9618476" lon="11.5964236"><ele>1370.0</ele><time>2026-04-26T09:43:54.191Z</time></trkpt><trkpt lat="45.9620723" lon="11.5964194"><ele>1370.0</ele><time>2026-04-26T09:43:57.192Z</time></trkpt><trkpt lat="45.9621605" lon="11.5963936"><ele>1370.0</ele><time>2026-04-26T09:43:58.189Z</time></trkpt><trkpt lat="45.9622417" lon="11.5963452"><ele>1370.0</ele><time>2026-04-26T09:43:59.19Z</time></trkpt><trkpt lat="45.9623302" lon="11.5962869"><ele>1370.0</ele><time>2026-04-26T09:44:00.191Z</time></trkpt><trkpt lat="45.9624074" lon="11.5962089"><ele>1370.0</ele><time>2026-04-26T09:44:01.19Z</time></trkpt><trkpt lat="45.9624758" lon="11.5960968"><ele>1371.75</ele><time>2026-04-26T09:44:02.189Z</time></trkpt><trkpt lat="45.962525" lon="11.5959549"><ele>1373.5</ele><time>2026-04-26T09:44:03.188Z</time></trkpt><trkpt lat="45.9625626" lon="11.5957776"><ele>1375.25</ele><time>2026-04-26T09:44:04.188Z</time></trkpt><trkpt lat="45.9625897" lon="11.5956146"><ele>1377.0</ele><time>2026-04-26T09:44:05.19Z</time></trkpt><trkpt lat="45.9626076" lon="11.5954473"><ele>1377.5</ele><time>2026-04-26T09:44:06.19Z</time></trkpt><trkpt lat="45.9626103" lon="11.5952616"><ele>1378.0</ele><time>2026-04-26T09:44:07.194Z</time></trkpt><trkpt lat="45.9625901" lon="11.595055"><ele>1378.5</ele><time>2026-04-26T09:44:08.191Z</time></trkpt><trkpt lat="45.9625607" lon="11.5948811"><ele>1379.0</ele><time>2026-04-26T09:44:08.992Z</time></trkpt><trkpt lat="45.9625073" lon="11.5946378"><ele>1378.75</ele><time>2026-04-26T09:44:10.189Z</time></trkpt><trkpt lat="45.962466" lon="11.5944608"><ele>1378.5</ele><time>2026-04-26T09:44:11.19Z</time></trkpt><trkpt lat="45.9624323" lon="11.5942955"><ele>1378.25</ele><time>2026-04-26T09:44:12.19Z</time></trkpt><trkpt lat="45.9624003" lon="11.5941175"><ele>1378.0</ele><time>2026-04-26T09:44:13.191Z</time></trkpt><trkpt lat="45.9623642" lon="11.5939318"><ele>1378.0</ele><time>2026-04-26T09:44:14.19Z</time></trkpt><trkpt lat="45.9623152" lon="11.5937405"><ele>1378.0</ele><time>2026-04-26T09:44:15.191Z</time></trkpt><trkpt lat="45.9621798" lon="11.5933916"><ele>1378.0</ele><time>2026-04-26T09:44:17.192Z</time></trkpt><trkpt lat="45.9620995" lon="11.5932511"><ele>1378.5</ele><time>2026-04-26T09:44:18.188Z</time></trkpt><trkpt lat="45.962013" lon="11.5931143"><ele>1379.0</ele><time>2026-04-26T09:44:19.191Z</time></trkpt><trkpt lat="45.9619306" lon="11.5929672"><ele>1379.5</ele><time>2026-04-26T09:44:20.19Z</time></trkpt><trkpt lat="45.9618567" lon="11.5928068"><ele>1380.0</ele><time>2026-04-26T09:44:21.191Z</time></trkpt><trkpt lat="45.9617918" lon="11.5926327"><ele>1378.75</ele><time>2026-04-26T09:44:22.188Z</time></trkpt><trkpt lat="45.9617405" lon="11.5924509"><ele>1377.5</ele><time>2026-04-26T09:44:23.19Z</time></trkpt><trkpt lat="45.9617143" lon="11.5922687"><ele>1376.25</ele><time>2026-04-26T09:44:24.189Z</time></trkpt><trkpt lat="45.9617091" lon="11.5920769"><ele>1375.0</ele><time>2026-04-26T09:44:25.19Z</time></trkpt><trkpt lat="45.9617152" lon="11.5918776"><ele>1375.0</ele><time>2026-04-26T09:44:26.191Z</time></trkpt><trkpt lat="45.9617342" lon="11.591671"><ele>1375.0</ele><time>2026-04-26T09:44:27.187Z</time></trkpt><trkpt lat="45.9617662" lon="11.5914547"><ele>1375.0</ele><time>2026-04-26T09:44:28.188Z</time></trkpt><trkpt lat="45.9617989" lon="11.591231"><ele>1376.0</ele><time>2026-04-26T09:44:29.188Z</time></trkpt><trkpt lat="45.9618338" lon="11.591021"><ele>1377.0</ele><time>2026-04-26T09:44:30.188Z</time></trkpt><trkpt lat="45.961874" lon="11.5908205"><ele>1378.0</ele><time>2026-04-26T09:44:31.189Z</time></trkpt><trkpt lat="45.9619166" lon="11.5906207"><ele>1379.0</ele><time>2026-04-26T09:44:32.19Z</time></trkpt><trkpt lat="45.961963" lon="11.5904282"><ele>1379.5</ele><time>2026-04-26T09:44:33.189Z</time></trkpt><trkpt lat="45.9620106" lon="11.5902525"><ele>1380.0</ele><time>2026-04-26T09:44:34.189Z</time></trkpt><trkpt lat="45.9620487" lon="11.59008"><ele>1380.5</ele><time>2026-04-26T09:44:35.19Z</time></trkpt><trkpt lat="45.9620796" lon="11.5899078"><ele>1381.0</ele><time>2026-04-26T09:44:36.188Z</time></trkpt><trkpt lat="45.9621161" lon="11.5895667"><ele>1380.75</ele><time>2026-04-26T09:44:38.191Z</time></trkpt><trkpt lat="45.9621417" lon="11.5894137"><ele>1380.5</ele><time>2026-04-26T09:44:39.19Z</time></trkpt><trkpt lat="45.9621788" lon="11.5892681"><ele>1380.25</ele><time>2026-04-26T09:44:40.192Z</time></trkpt><trkpt lat="45.9622276" lon="11.5891184"><ele>1380.0</ele><time>2026-04-26T09:44:41.192Z</time></trkpt><trkpt lat="45.9622799" lon="11.5889651"><ele>1380.0</ele><time>2026-04-26T09:44:42.19Z</time></trkpt><trkpt lat="45.9623373" lon="11.5888095"><ele>1380.0</ele><time>2026-04-26T09:44:43.191Z</time></trkpt><trkpt lat="45.962406" lon="11.5886528"><ele>1380.0</ele><time>2026-04-26T09:44:44.191Z</time></trkpt><trkpt lat="45.9624816" lon="11.5884958"><ele>1380.0</ele><time>2026-04-26T09:44:45.19Z</time></trkpt><trkpt lat="45.96255" lon="11.5883407"><ele>1378.75</ele><time>2026-04-26T09:44:46.19Z</time></trkpt><trkpt lat="45.9626064" lon="11.5881812"><ele>1377.5</ele><time>2026-04-26T09:44:47.192Z</time></trkpt><trkpt lat="45.9626655" lon="11.5880144"><ele>1376.25</ele><time>2026-04-26T09:44:48.192Z</time></trkpt><trkpt lat="45.962729" lon="11.5878598"><ele>1375.0</ele><time>2026-04-26T09:44:49.192Z</time></trkpt><trkpt lat="45.9627955" lon="11.5877045"><ele>1374.25</ele><time>2026-04-26T09:44:50.193Z</time></trkpt><trkpt lat="45.9628566" lon="11.5875544"><ele>1373.5</ele><time>2026-04-26T09:44:51.189Z</time></trkpt><trkpt lat="45.9629189" lon="11.5874112"><ele>1372.75</ele><time>2026-04-26T09:44:52.189Z</time></trkpt><trkpt lat="45.9629892" lon="11.5872753"><ele>1372.0</ele><time>2026-04-26T09:44:53.192Z</time></trkpt><trkpt lat="45.963062" lon="11.5871274"><ele>1372.0</ele><time>2026-04-26T09:44:54.189Z</time></trkpt><trkpt lat="45.963136" lon="11.5869566"><ele>1372.0</ele><time>2026-04-26T09:44:55.191Z</time></trkpt><trkpt lat="45.963205" lon="11.5867911"><ele>1372.0</ele><time>2026-04-26T09:44:56.193Z</time></trkpt><trkpt lat="45.9632675" lon="11.5866394"><ele>1372.0</ele><time>2026-04-26T09:44:57.191Z</time></trkpt><trkpt lat="45.9633908" lon="11.5863181"><ele>1373.0</ele><time>2026-04-26T09:44:59.191Z</time></trkpt><trkpt lat="45.9634496" lon="11.5861426"><ele>1374.0</ele><time>2026-04-26T09:45:00.192Z</time></trkpt><trkpt lat="45.963508" lon="11.585976"><ele>1375.0</ele><time>2026-04-26T09:45:01.19Z</time></trkpt><trkpt lat="45.963567" lon="11.5858105"><ele>1376.0</ele><time>2026-04-26T09:45:02.191Z</time></trkpt><trkpt lat="45.9636248" lon="11.5856449"><ele>1376.0</ele><time>2026-04-26T09:45:03.191Z</time></trkpt><trkpt lat="45.9636805" lon="11.5854861"><ele>1376.0</ele><time>2026-04-26T09:45:04.19Z</time></trkpt><trkpt lat="45.9637294" lon="11.5853386"><ele>1376.0</ele><time>2026-04-26T09:45:05.192Z</time></trkpt><trkpt lat="45.9637766" lon="11.5852084"><ele>1376.0</ele><time>2026-04-26T09:45:06.191Z</time></trkpt><trkpt lat="45.96383" lon="11.5850963"><ele>1376.0</ele><time>2026-04-26T09:45:07.191Z</time></trkpt><trkpt lat="45.9638917" lon="11.5849979"><ele>1376.0</ele><time>2026-04-26T09:45:08.192Z</time></trkpt><trkpt lat="45.9639664" lon="11.5849049"><ele>1376.0</ele><time>2026-04-26T09:45:09.191Z</time></trkpt><trkpt lat="45.9640488" lon="11.5848161"><ele>1376.0</ele><time>2026-04-26T09:45:10.193Z</time></trkpt><trkpt lat="45.9641262" lon="11.5847365"><ele>1376.0</ele><time>2026-04-26T09:45:11.192Z</time></trkpt><trkpt lat="45.9641971" lon="11.5846469"><ele>1376.0</ele><time>2026-04-26T09:45:12.193Z</time></trkpt><trkpt lat="45.9642608" lon="11.5845476"><ele>1377.1999999999998</ele><time>2026-04-26T09:45:13.191Z</time></trkpt><trkpt lat="45.9643323" lon="11.5844507"><ele>1378.3999999999999</ele><time>2026-04-26T09:45:14.193Z</time></trkpt><trkpt lat="45.9643944" lon="11.5843731"><ele>1379.6</ele><time>2026-04-26T09:45:14.994Z</time></trkpt><trkpt lat="45.9644924" lon="11.5842427"><ele>1380.8</ele><time>2026-04-26T09:45:16.19Z</time></trkpt><trkpt lat="45.9645894" lon="11.5841265"><ele>1382.0</ele><time>2026-04-26T09:45:17.19Z</time></trkpt><trkpt lat="45.9646945" lon="11.5839913"><ele>1382.0</ele><time>2026-04-26T09:45:18.19Z</time></trkpt><trkpt lat="45.9648757" lon="11.5836859"><ele>1382.0</ele><time>2026-04-26T09:45:20.192Z</time></trkpt><trkpt lat="45.9649454" lon="11.5835418"><ele>1382.0</ele><time>2026-04-26T09:45:21.192Z</time></trkpt><trkpt lat="45.9650104" lon="11.583412"><ele>1383.8</ele><time>2026-04-26T09:45:22.19Z</time></trkpt><trkpt lat="45.9650724" lon="11.5832974"><ele>1385.6</ele><time>2026-04-26T09:45:23.191Z</time></trkpt><trkpt lat="45.9651311" lon="11.5831906"><ele>1387.3999999999999</ele><time>2026-04-26T09:45:24.19Z</time></trkpt><trkpt lat="45.9652001" lon="11.5830937"><ele>1389.1999999999998</ele><time>2026-04-26T09:45:25.191Z</time></trkpt><trkpt lat="45.9652813" lon="11.5830146"><ele>1391.0</ele><time>2026-04-26T09:45:26.191Z</time></trkpt><trkpt lat="45.9653745" lon="11.5829465"><ele>1391.0</ele><time>2026-04-26T09:45:27.192Z</time></trkpt><trkpt lat="45.9654764" lon="11.5828873"><ele>1391.0</ele><time>2026-04-26T09:45:28.19Z</time></trkpt><trkpt lat="45.9655866" lon="11.5828388"><ele>1391.0</ele><time>2026-04-26T09:45:29.189Z</time></trkpt><trkpt lat="45.965701" lon="11.5827934"><ele>1391.0</ele><time>2026-04-26T09:45:30.189Z</time></trkpt><trkpt lat="45.9658062" lon="11.5827578"><ele>1389.25</ele><time>2026-04-26T09:45:31.189Z</time></trkpt><trkpt lat="45.9659118" lon="11.5827253"><ele>1387.5</ele><time>2026-04-26T09:45:32.189Z</time></trkpt><trkpt lat="45.9660041" lon="11.5826953"><ele>1385.75</ele><time>2026-04-26T09:45:33.189Z</time></trkpt><trkpt lat="45.9661658" lon="11.5826274"><ele>1384.0</ele><time>2026-04-26T09:45:35.19Z</time></trkpt><trkpt lat="45.9662667" lon="11.5826049"><ele>1384.0</ele><time>2026-04-26T09:45:36.191Z</time></trkpt><trkpt lat="45.9663746" lon="11.5825954"><ele>1384.0</ele><time>2026-04-26T09:45:37.191Z</time></trkpt><trkpt lat="45.9664623" lon="11.5825835"><ele>1384.0</ele><time>2026-04-26T09:45:38.192Z</time></trkpt><trkpt lat="45.9665645" lon="11.5825831"><ele>1384.0</ele><time>2026-04-26T09:45:40.19Z</time></trkpt><trkpt lat="45.9667289" lon="11.5825762"><ele>1386.4</ele><time>2026-04-26T09:45:43.189Z</time></trkpt><trkpt lat="45.9668077" lon="11.5825518"><ele>1388.8000000000002</ele><time>2026-04-26T09:45:44.19Z</time></trkpt><trkpt lat="45.9668877" lon="11.5824961"><ele>1391.1999999999998</ele><time>2026-04-26T09:45:45.192Z</time></trkpt><trkpt lat="45.9669622" lon="11.5824089"><ele>1393.6</ele><time>2026-04-26T09:45:46.191Z</time></trkpt><trkpt lat="45.9670343" lon="11.5822973"><ele>1396.0</ele><time>2026-04-26T09:45:47.191Z</time></trkpt><trkpt lat="45.9670973" lon="11.5821841"><ele>1396.0</ele><time>2026-04-26T09:45:48.193Z</time></trkpt><trkpt lat="45.9671529" lon="11.5820761"><ele>1396.0</ele><time>2026-04-26T09:45:49.191Z</time></trkpt><trkpt lat="45.967215" lon="11.5819676"><ele>1396.0</ele><time>2026-04-26T09:45:50.191Z</time></trkpt><trkpt lat="45.9672791" lon="11.5818545"><ele>1396.0</ele><time>2026-04-26T09:45:51.191Z</time></trkpt><trkpt lat="45.9673313" lon="11.5817291"><ele>1396.0</ele><time>2026-04-26T09:45:52.191Z</time></trkpt><trkpt lat="45.9673764" lon="11.5815768"><ele>1395.25</ele><time>2026-04-26T09:45:53.191Z</time></trkpt><trkpt lat="45.9674125" lon="11.5814261"><ele>1394.5</ele><time>2026-04-26T09:45:54.19Z</time></trkpt><trkpt lat="45.9674323" lon="11.5812686"><ele>1393.75</ele><time>2026-04-26T09:45:55.19Z</time></trkpt><trkpt lat="45.9674401" lon="11.5810709"><ele>1393.0</ele><time>2026-04-26T09:45:56.19Z</time></trkpt><trkpt lat="45.9674475" lon="11.5808614"><ele>1392.75</ele><time>2026-04-26T09:45:57.191Z</time></trkpt><trkpt lat="45.9674597" lon="11.5806787"><ele>1392.5</ele><time>2026-04-26T09:45:58.192Z</time></trkpt><trkpt lat="45.9674655" lon="11.5805789"><ele>1392.25</ele><time>2026-04-26T09:45:58.8Z</time></trkpt><trkpt lat="45.9674784" lon="11.5803643"><ele>1392.0</ele><time>2026-04-26T09:46:00.191Z</time></trkpt><trkpt lat="45.9674861" lon="11.580214"><ele>1391.3999999999999</ele><time>2026-04-26T09:46:01.192Z</time></trkpt><trkpt lat="45.9675034" lon="11.5799399"><ele>1390.8</ele><time>2026-04-26T09:46:03.191Z</time></trkpt><trkpt lat="45.9675258" lon="11.579833"><ele>1390.2</ele><time>2026-04-26T09:46:04.19Z</time></trkpt><trkpt lat="45.9675625" lon="11.5797388"><ele>1389.6</ele><time>2026-04-26T09:46:05.189Z</time></trkpt><trkpt lat="45.9676148" lon="11.5796531"><ele>1389.0</ele><time>2026-04-26T09:46:06.189Z</time></trkpt><trkpt lat="45.9676858" lon="11.5795776"><ele>1390.4</ele><time>2026-04-26T09:46:07.19Z</time></trkpt><trkpt lat="45.9677733" lon="11.5795081"><ele>1391.8000000000002</ele><time>2026-04-26T09:46:08.191Z</time></trkpt><trkpt lat="45.9678646" lon="11.5794338"><ele>1393.1999999999998</ele><time>2026-04-26T09:46:09.191Z</time></trkpt><trkpt lat="45.9679546" lon="11.5793661"><ele>1394.6</ele><time>2026-04-26T09:46:10.191Z</time></trkpt><trkpt lat="45.968039" lon="11.5792988"><ele>1396.0</ele><time>2026-04-26T09:46:11.19Z</time></trkpt><trkpt lat="45.9681206" lon="11.5792201"><ele>1396.0</ele><time>2026-04-26T09:46:12.19Z</time></trkpt><trkpt lat="45.9682043" lon="11.5791104"><ele>1396.0</ele><time>2026-04-26T09:46:13.189Z</time></trkpt><trkpt lat="45.9682886" lon="11.5789849"><ele>1396.0</ele><time>2026-04-26T09:46:14.19Z</time></trkpt><trkpt lat="45.968375" lon="11.5788577"><ele>1396.0</ele><time>2026-04-26T09:46:15.189Z</time></trkpt><trkpt lat="45.9684595" lon="11.5787343"><ele>1397.5</ele><time>2026-04-26T09:46:16.191Z</time></trkpt><trkpt lat="45.9685475" lon="11.5786092"><ele>1399.0</ele><time>2026-04-26T09:46:17.191Z</time></trkpt><trkpt lat="45.9686452" lon="11.5784825"><ele>1400.5</ele><time>2026-04-26T09:46:18.192Z</time></trkpt><trkpt lat="45.9687492" lon="11.5783521"><ele>1402.0</ele><time>2026-04-26T09:46:19.192Z</time></trkpt><trkpt lat="45.9688456" lon="11.5782329"><ele>1402.0</ele><time>2026-04-26T09:46:20.195Z</time></trkpt><trkpt lat="45.9689321" lon="11.5781264"><ele>1402.0</ele><time>2026-04-26T09:46:21.193Z</time></trkpt><trkpt lat="45.9690095" lon="11.578025"><ele>1402.0</ele><time>2026-04-26T09:46:22.19Z</time></trkpt><trkpt lat="45.9691477" lon="11.5778312"><ele>1402.0</ele><time>2026-04-26T09:46:24.19Z</time></trkpt><trkpt lat="45.9692052" lon="11.5777476"><ele>1402.1999999999998</ele><time>2026-04-26T09:46:25.192Z</time></trkpt><trkpt lat="45.9692624" lon="11.5776598"><ele>1402.4</ele><time>2026-04-26T09:46:26.192Z</time></trkpt><trkpt lat="45.9693338" lon="11.5775736"><ele>1402.6</ele><time>2026-04-26T09:46:27.192Z</time></trkpt><trkpt lat="45.9694151" lon="11.5774982"><ele>1402.8000000000002</ele><time>2026-04-26T09:46:28.192Z</time></trkpt><trkpt lat="45.9694992" lon="11.5774266"><ele>1403.0</ele><time>2026-04-26T09:46:29.193Z</time></trkpt><trkpt lat="45.9695816" lon="11.5773629"><ele>1403.0</ele><time>2026-04-26T09:46:30.19Z</time></trkpt><trkpt lat="45.9696572" lon="11.5773106"><ele>1403.0</ele><time>2026-04-26T09:46:31.191Z</time></trkpt><trkpt lat="45.9697211" lon="11.5772663"><ele>1403.0</ele><time>2026-04-26T09:46:32.192Z</time></trkpt><trkpt lat="45.9697799" lon="11.5772225"><ele>1403.0</ele><time>2026-04-26T09:46:33.19Z</time></trkpt><trkpt lat="45.9698416" lon="11.5771781"><ele>1403.0</ele><time>2026-04-26T09:46:34.191Z</time></trkpt><trkpt lat="45.9699645" lon="11.5771585"><ele>1403.0</ele><time>2026-04-26T09:46:36.19Z</time></trkpt><trkpt lat="45.9700316" lon="11.5771983"><ele>1405.8000000000002</ele><time>2026-04-26T09:46:37.194Z</time></trkpt><trkpt lat="45.9700998" lon="11.577266"><ele>1408.6</ele><time>2026-04-26T09:46:38.194Z</time></trkpt><trkpt lat="45.9701705" lon="11.5773575"><ele>1411.4</ele><time>2026-04-26T09:46:39.191Z</time></trkpt><trkpt lat="45.9702457" lon="11.5774591"><ele>1414.1999999999998</ele><time>2026-04-26T09:46:40.192Z</time></trkpt><trkpt lat="45.9703384" lon="11.5775744"><ele>1417.0</ele><time>2026-04-26T09:46:41.191Z</time></trkpt><trkpt lat="45.9704477" lon="11.5777032"><ele>1417.0</ele><time>2026-04-26T09:46:42.195Z</time></trkpt><trkpt lat="45.9705577" lon="11.5778386"><ele>1417.0</ele><time>2026-04-26T09:46:43.194Z</time></trkpt><trkpt lat="45.9707539" lon="11.5781091"><ele>1417.0</ele><time>2026-04-26T09:46:45.194Z</time></trkpt><trkpt lat="45.9708429" lon="11.5782441"><ele>1417.75</ele><time>2026-04-26T09:46:46.192Z</time></trkpt><trkpt lat="45.9709409" lon="11.5783826"><ele>1418.5</ele><time>2026-04-26T09:46:47.193Z</time></trkpt><trkpt lat="45.9710508" lon="11.5785107"><ele>1419.25</ele><time>2026-04-26T09:46:48.193Z</time></trkpt><trkpt lat="45.9711598" lon="11.5786206"><ele>1420.0</ele><time>2026-04-26T09:46:49.193Z</time></trkpt><trkpt lat="45.9712656" lon="11.5787262"><ele>1420.0</ele><time>2026-04-26T09:46:50.193Z</time></trkpt><trkpt lat="45.9713693" lon="11.5788333"><ele>1420.0</ele><time>2026-04-26T09:46:51.192Z</time></trkpt><trkpt lat="45.9714603" lon="11.5789282"><ele>1420.0</ele><time>2026-04-26T09:46:52.192Z</time></trkpt><trkpt lat="45.9715393" lon="11.579006"><ele>1420.0</ele><time>2026-04-26T09:46:53.193Z</time></trkpt><trkpt lat="45.9716029" lon="11.57907"><ele>1420.0</ele><time>2026-04-26T09:46:54.192Z</time></trkpt><trkpt lat="45.971674" lon="11.5791959"><ele>1423.4</ele><time>2026-04-26T09:46:56.19Z</time></trkpt><trkpt lat="45.9717044" lon="11.5793232"><ele>1426.8</ele><time>2026-04-26T09:46:58.194Z</time></trkpt><trkpt lat="45.9717463" lon="11.5793929"><ele>1430.1999999999998</ele><time>2026-04-26T09:47:00.193Z</time></trkpt><trkpt lat="45.971825" lon="11.5793448"><ele>1433.6</ele><time>2026-04-26T09:47:03.192Z</time></trkpt><trkpt lat="45.9718016" lon="11.5792179"><ele>1437.0</ele><time>2026-04-26T09:47:05.195Z</time></trkpt><trkpt lat="45.9717198" lon="11.5790278"><ele>1435.6</ele><time>2026-04-26T09:47:07.19Z</time></trkpt><trkpt lat="45.9716889" lon="11.5789057"><ele>1434.1999999999998</ele><time>2026-04-26T09:47:08.191Z</time></trkpt><trkpt lat="45.9716694" lon="11.5787555"><ele>1432.8</ele><time>2026-04-26T09:47:09.19Z</time></trkpt><trkpt lat="45.9716464" lon="11.5786069"><ele>1431.4</ele><time>2026-04-26T09:47:10.191Z</time></trkpt><trkpt lat="45.9716108" lon="11.5784609"><ele>1430.0</ele><time>2026-04-26T09:47:11.191Z</time></trkpt><trkpt lat="45.9715682" lon="11.5783105"><ele>1430.0</ele><time>2026-04-26T09:47:12.191Z</time></trkpt><trkpt lat="45.9715255" lon="11.5781511"><ele>1430.0</ele><time>2026-04-26T09:47:13.192Z</time></trkpt><trkpt lat="45.9714838" lon="11.5779837"><ele>1430.0</ele><time>2026-04-26T09:47:14.192Z</time></trkpt><trkpt lat="45.9714389" lon="11.5778048"><ele>1430.0</ele><time>2026-04-26T09:47:15.19Z</time></trkpt><trkpt lat="45.971391" lon="11.57761"><ele>1432.5</ele><time>2026-04-26T09:47:16.192Z</time></trkpt><trkpt lat="45.9713472" lon="11.5774311"><ele>1435.0</ele><time>2026-04-26T09:47:17.192Z</time></trkpt><trkpt lat="45.9713012" lon="11.5772613"><ele>1437.5</ele><time>2026-04-26T09:47:18.192Z</time></trkpt><trkpt lat="45.9712511" lon="11.5770915"><ele>1440.0</ele><time>2026-04-26T09:47:19.193Z</time></trkpt><trkpt lat="45.9712029" lon="11.5769274"><ele>1442.25</ele><time>2026-04-26T09:47:20.192Z</time></trkpt><trkpt lat="45.9711633" lon="11.5767711"><ele>1444.5</ele><time>2026-04-26T09:47:21.191Z</time></trkpt><trkpt lat="45.9711309" lon="11.5766074"><ele>1446.75</ele><time>2026-04-26T09:47:22.193Z</time></trkpt><trkpt lat="45.9711065" lon="11.5764343"><ele>1449.0</ele><time>2026-04-26T09:47:23.192Z</time></trkpt><trkpt lat="45.9710797" lon="11.5762569"><ele>1447.3333333333333</ele><time>2026-04-26T09:47:24.192Z</time></trkpt><trkpt lat="45.9710364" lon="11.5760969"><ele>1445.6666666666665</ele><time>2026-04-26T09:47:25.193Z</time></trkpt><trkpt lat="45.9709773" lon="11.5759376"><ele>1444.0</ele><time>2026-04-26T09:47:26.193Z</time></trkpt><trkpt lat="45.9708423" lon="11.5756626"><ele>1444.0</ele><time>2026-04-26T09:47:28.192Z</time></trkpt><trkpt lat="45.9707577" lon="11.5755386"><ele>1444.0</ele><time>2026-04-26T09:47:29.192Z</time></trkpt><trkpt lat="45.9706709" lon="11.5754125"><ele>1444.0</ele><time>2026-04-26T09:47:30.192Z</time></trkpt><trkpt lat="45.970579" lon="11.5752881"><ele>1444.0</ele><time>2026-04-26T09:47:31.193Z</time></trkpt><trkpt lat="45.9704958" lon="11.5751644"><ele>1446.2</ele><time>2026-04-26T09:47:32.192Z</time></trkpt><trkpt lat="45.9704078" lon="11.575044"><ele>1448.4</ele><time>2026-04-26T09:47:33.193Z</time></trkpt><trkpt lat="45.9703349" lon="11.5749612"><ele>1450.6</ele><time>2026-04-26T09:47:33.995Z</time></trkpt><trkpt lat="45.9702383" lon="11.5748542"><ele>1452.8</ele><time>2026-04-26T09:47:35.193Z</time></trkpt><trkpt lat="45.9701637" lon="11.5747899"><ele>1455.0</ele><time>2026-04-26T09:47:36.191Z</time></trkpt><trkpt lat="45.9700926" lon="11.5747539"><ele>1453.2</ele><time>2026-04-26T09:47:37.191Z</time></trkpt><trkpt lat="45.9699882" lon="11.5747125"><ele>1451.4</ele><time>2026-04-26T09:47:39.191Z</time></trkpt><trkpt lat="45.9699322" lon="11.5746195"><ele>1449.6</ele><time>2026-04-26T09:47:41.199Z</time></trkpt><trkpt lat="45.9699248" lon="11.5744395"><ele>1447.8</ele><time>2026-04-26T09:47:43.19Z</time></trkpt><trkpt lat="45.969938" lon="11.5743293"><ele>1446.0</ele><time>2026-04-26T09:47:44.191Z</time></trkpt><trkpt lat="45.9699628" lon="11.5742066"><ele>1446.0</ele><time>2026-04-26T09:47:45.19Z</time></trkpt><trkpt lat="45.9700072" lon="11.5740833"><ele>1446.0</ele><time>2026-04-26T09:47:46.188Z</time></trkpt><trkpt lat="45.9700488" lon="11.573946"><ele>1446.0</ele><time>2026-04-26T09:47:47.192Z</time></trkpt><trkpt lat="45.9701055" lon="11.5736675"><ele>1446.0</ele><time>2026-04-26T09:47:49.191Z</time></trkpt><trkpt lat="45.9701332" lon="11.5735087"><ele>1451.8333333333333</ele><time>2026-04-26T09:47:50.192Z</time></trkpt><trkpt lat="45.9701388" lon="11.5733712"><ele>1457.6666666666667</ele><time>2026-04-26T09:47:51.191Z</time></trkpt><trkpt lat="45.9701351" lon="11.5732433"><ele>1463.5</ele><time>2026-04-26T09:47:52.191Z</time></trkpt><trkpt lat="45.9701265" lon="11.5731229"><ele>1469.3333333333335</ele><time>2026-04-26T09:47:53.191Z</time></trkpt><trkpt lat="45.9701095" lon="11.5730033"><ele>1475.1666666666667</ele><time>2026-04-26T09:47:54.191Z</time></trkpt><trkpt lat="45.9700883" lon="11.5728749"><ele>1481.0</ele><time>2026-04-26T09:47:55.189Z</time></trkpt><trkpt lat="45.9700689" lon="11.572734"><ele>1482.8333333333335</ele><time>2026-04-26T09:47:56.19Z</time></trkpt><trkpt lat="45.9700372" lon="11.5725964"><ele>1484.6666666666667</ele><time>2026-04-26T09:47:57.189Z</time></trkpt><trkpt lat="45.9700024" lon="11.5724589"><ele>1486.5</ele><time>2026-04-26T09:47:58.19Z</time></trkpt><trkpt lat="45.9699743" lon="11.5723402"><ele>1488.3333333333333</ele><time>2026-04-26T09:47:59.19Z</time></trkpt><trkpt lat="45.9699613" lon="11.5722198"><ele>1490.1666666666665</ele><time>2026-04-26T09:48:00.191Z</time></trkpt><trkpt lat="45.9699582" lon="11.5721155"><ele>1492.0</ele><time>2026-04-26T09:48:01.193Z</time></trkpt><trkpt lat="45.9699255" lon="11.571952"><ele>1487.6666666666665</ele><time>2026-04-26T09:48:03.192Z</time></trkpt><trkpt lat="45.9698933" lon="11.5718579"><ele>1483.3333333333333</ele><time>2026-04-26T09:48:04.19Z</time></trkpt><trkpt lat="45.9698476" lon="11.5717583"><ele>1479.0</ele><time>2026-04-26T09:48:05.192Z</time></trkpt><trkpt lat="45.9698137" lon="11.5716575"><ele>1474.6666666666667</ele><time>2026-04-26T09:48:06.19Z</time></trkpt><trkpt lat="45.969768" lon="11.5715729"><ele>1470.3333333333335</ele><time>2026-04-26T09:48:07.19Z</time></trkpt><trkpt lat="45.9697114" lon="11.5715072"><ele>1466.0</ele><time>2026-04-26T09:48:08.19Z</time></trkpt><trkpt lat="45.9695395" lon="11.571429"><ele>1466.0</ele><time>2026-04-26T09:48:10.189Z</time></trkpt><trkpt lat="45.9694446" lon="11.5714051"><ele>1466.0</ele><time>2026-04-26T09:48:11.192Z</time></trkpt><trkpt lat="45.969374" lon="11.571381"><ele>1466.0</ele><time>2026-04-26T09:48:12.192Z</time></trkpt><trkpt lat="45.9692938" lon="11.5712789"><ele>1466.0</ele><time>2026-04-26T09:48:14.191Z</time></trkpt><trkpt lat="45.9692842" lon="11.5711077"><ele>1466.0</ele><time>2026-04-26T09:48:16.191Z</time></trkpt><trkpt lat="45.969281" lon="11.5710093"><ele>1465.3333333333335</ele><time>2026-04-26T09:48:17.191Z</time></trkpt><trkpt lat="45.969267" lon="11.5709076"><ele>1464.6666666666667</ele><time>2026-04-26T09:48:18.19Z</time></trkpt><trkpt lat="45.9692456" lon="11.5708014"><ele>1464.0</ele><time>2026-04-26T09:48:19.191Z</time></trkpt><trkpt lat="45.9692096" lon="11.5706908"><ele>1463.3333333333333</ele><time>2026-04-26T09:48:20.193Z</time></trkpt><trkpt lat="45.9691598" lon="11.5705725"><ele>1462.6666666666665</ele><time>2026-04-26T09:48:21.193Z</time></trkpt><trkpt lat="45.9691026" lon="11.5704563"><ele>1462.0</ele><time>2026-04-26T09:48:22.192Z</time></trkpt><trkpt lat="45.9690545" lon="11.570357"><ele>1464.3333333333333</ele><time>2026-04-26T09:48:23.192Z</time></trkpt><trkpt lat="45.9690111" lon="11.5702635"><ele>1466.6666666666665</ele><time>2026-04-26T09:48:24.193Z</time></trkpt><trkpt lat="45.9689663" lon="11.5701833"><ele>1469.0</ele><time>2026-04-26T09:48:25.19Z</time></trkpt><trkpt lat="45.9689138" lon="11.5700785"><ele>1471.3333333333333</ele><time>2026-04-26T09:48:26.191Z</time></trkpt><trkpt lat="45.9688688" lon="11.5699649"><ele>1473.6666666666667</ele><time>2026-04-26T09:48:27.19Z</time></trkpt><trkpt lat="45.9688323" lon="11.5698684"><ele>1476.0</ele><time>2026-04-26T09:48:28.19Z</time></trkpt><trkpt lat="45.9687698" lon="11.5697285"><ele>1476.0</ele><time>2026-04-26T09:48:30.191Z</time></trkpt><trkpt lat="45.9686304" lon="11.5696583"><ele>1476.0</ele><time>2026-04-26T09:48:32.187Z</time></trkpt><trkpt lat="45.9685574" lon="11.5696377"><ele>1476.0</ele><time>2026-04-26T09:48:33.187Z</time></trkpt><trkpt lat="45.968479" lon="11.5696282"><ele>1476.0</ele><time>2026-04-26T09:48:34.187Z</time></trkpt><trkpt lat="45.9684026" lon="11.5696203"><ele>1476.0</ele><time>2026-04-26T09:48:35.189Z</time></trkpt><trkpt lat="45.9683322" lon="11.5696025"><ele>1476.0</ele><time>2026-04-26T09:48:36.188Z</time></trkpt><trkpt lat="45.9682764" lon="11.5695502"><ele>1477.8333333333333</ele><time>2026-04-26T09:48:37.19Z</time></trkpt><trkpt lat="45.9682186" lon="11.5694807"><ele>1479.6666666666667</ele><time>2026-04-26T09:48:38.19Z</time></trkpt><trkpt lat="45.9681708" lon="11.5693883"><ele>1481.5</ele><time>2026-04-26T09:48:39.189Z</time></trkpt><trkpt lat="45.9681105" lon="11.5692964"><ele>1483.3333333333335</ele><time>2026-04-26T09:48:40.189Z</time></trkpt><trkpt lat="45.9680554" lon="11.5692139"><ele>1485.1666666666667</ele><time>2026-04-26T09:48:41.189Z</time></trkpt><trkpt lat="45.9679613" lon="11.5691171"><ele>1487.0</ele><time>2026-04-26T09:48:43.188Z</time></trkpt><trkpt lat="45.9678357" lon="11.569117"><ele>1487.0</ele><time>2026-04-26T09:48:45.188Z</time></trkpt><trkpt lat="45.9677604" lon="11.5691508"><ele>1487.0</ele><time>2026-04-26T09:48:46.188Z</time></trkpt><trkpt lat="45.9676995" lon="11.5691999"><ele>1487.0</ele><time>2026-04-26T09:48:47.191Z</time></trkpt><trkpt lat="45.9675838" lon="11.5692389"><ele>1487.0</ele><time>2026-04-26T09:48:49.189Z</time></trkpt><trkpt lat="45.9674751" lon="11.569253"><ele>1487.0</ele><time>2026-04-26T09:48:51.19Z</time></trkpt><trkpt lat="45.9672679" lon="11.5690953"><ele>1485.8333333333335</ele><time>2026-04-26T09:48:55.189Z</time></trkpt><trkpt lat="45.9672078" lon="11.5690194"><ele>1484.6666666666667</ele><time>2026-04-26T09:48:56.186Z</time></trkpt><trkpt lat="45.9671458" lon="11.5689289"><ele>1483.5</ele><time>2026-04-26T09:48:57.188Z</time></trkpt><trkpt lat="45.9670975" lon="11.5688308"><ele>1482.3333333333333</ele><time>2026-04-26T09:48:58.186Z</time></trkpt><trkpt lat="45.967049" lon="11.5687267"><ele>1481.1666666666665</ele><time>2026-04-26T09:48:59.189Z</time></trkpt><trkpt lat="45.9670122" lon="11.5686225"><ele>1480.0</ele><time>2026-04-26T09:49:00.188Z</time></trkpt><trkpt lat="45.9669822" lon="11.5685056"><ele>1483.8</ele><time>2026-04-26T09:49:01.188Z</time></trkpt><trkpt lat="45.9669478" lon="11.5683813"><ele>1487.6</ele><time>2026-04-26T09:49:02.189Z</time></trkpt><trkpt lat="45.9669058" lon="11.5682507"><ele>1491.4</ele><time>2026-04-26T09:49:03.187Z</time></trkpt><trkpt lat="45.9668615" lon="11.568125"><ele>1495.2</ele><time>2026-04-26T09:49:04.19Z</time></trkpt><trkpt lat="45.9668262" lon="11.567986"><ele>1499.0</ele><time>2026-04-26T09:49:05.188Z</time></trkpt><trkpt lat="45.9668047" lon="11.5678613"><ele>1501.8000000000002</ele><time>2026-04-26T09:49:06.187Z</time></trkpt><trkpt lat="45.9667807" lon="11.5677285"><ele>1504.6000000000001</ele><time>2026-04-26T09:49:07.189Z</time></trkpt><trkpt lat="45.9667641" lon="11.5675938"><ele>1507.4</ele><time>2026-04-26T09:49:08.189Z</time></trkpt><trkpt lat="45.966753" lon="11.5674592"><ele>1510.2</ele><time>2026-04-26T09:49:09.189Z</time></trkpt><trkpt lat="45.96675" lon="11.5673171"><ele>1513.0</ele><time>2026-04-26T09:49:10.186Z</time></trkpt><trkpt lat="45.9667449" lon="11.5671713"><ele>1513.0</ele><time>2026-04-26T09:49:11.189Z</time></trkpt><trkpt lat="45.9667346" lon="11.567039"><ele>1513.0</ele><time>2026-04-26T09:49:12.188Z</time></trkpt><trkpt lat="45.9666681" lon="11.5667953"><ele>1513.0</ele><time>2026-04-26T09:49:14.191Z</time></trkpt><trkpt lat="45.966608" lon="11.5666659"><ele>1513.0</ele><time>2026-04-26T09:49:15.188Z</time></trkpt><trkpt lat="45.9665206" lon="11.5665327"><ele>1513.2</ele><time>2026-04-26T09:49:16.188Z</time></trkpt><trkpt lat="45.9664272" lon="11.5664089"><ele>1513.4</ele><time>2026-04-26T09:49:17.188Z</time></trkpt><trkpt lat="45.9663467" lon="11.5662993"><ele>1513.6000000000001</ele><time>2026-04-26T09:49:18.189Z</time></trkpt><trkpt lat="45.9662745" lon="11.5662077"><ele>1513.8000000000002</ele><time>2026-04-26T09:49:19.189Z</time></trkpt><trkpt lat="45.9662105" lon="11.5661233"><ele>1514.0</ele><time>2026-04-26T09:49:20.189Z</time></trkpt><trkpt lat="45.9661532" lon="11.5660362"><ele>1514.0</ele><time>2026-04-26T09:49:21.186Z</time></trkpt><trkpt lat="45.9661065" lon="11.5659546"><ele>1514.0</ele><time>2026-04-26T09:49:22.187Z</time></trkpt><trkpt lat="45.9660762" lon="11.5658457"><ele>1514.0</ele><time>2026-04-26T09:49:23.188Z</time></trkpt><trkpt lat="45.9660579" lon="11.5657026"><ele>1514.0</ele><time>2026-04-26T09:49:24.186Z</time></trkpt><trkpt lat="45.966045" lon="11.5655988"><ele>1514.0</ele><time>2026-04-26T09:49:24.992Z</time></trkpt><trkpt lat="45.9660132" lon="11.5654859"><ele>1514.0</ele><time>2026-04-26T09:49:26.19Z</time></trkpt><trkpt lat="45.9659724" lon="11.5654132"><ele>1513.3333333333335</ele><time>2026-04-26T09:49:27.188Z</time></trkpt><trkpt lat="45.9659164" lon="11.5653589"><ele>1512.6666666666667</ele><time>2026-04-26T09:49:28.189Z</time></trkpt><trkpt lat="45.9658349" lon="11.5653242"><ele>1512.0</ele><time>2026-04-26T09:49:29.19Z</time></trkpt><trkpt lat="45.9657365" lon="11.5653041"><ele>1511.3333333333333</ele><time>2026-04-26T09:49:30.187Z</time></trkpt><trkpt lat="45.9656418" lon="11.5652897"><ele>1510.6666666666665</ele><time>2026-04-26T09:49:31.189Z</time></trkpt><trkpt lat="45.9655566" lon="11.565266"><ele>1510.0</ele><time>2026-04-26T09:49:32.189Z</time></trkpt><trkpt lat="45.9654873" lon="11.565226"><ele>1510.0</ele><time>2026-04-26T09:49:33.189Z</time></trkpt><trkpt lat="45.9653583" lon="11.5650471"><ele>1510.0</ele><time>2026-04-26T09:49:35.19Z</time></trkpt><trkpt lat="45.9652962" lon="11.564929"><ele>1510.0</ele><time>2026-04-26T09:49:36.189Z</time></trkpt><trkpt lat="45.9652407" lon="11.5648141"><ele>1510.0</ele><time>2026-04-26T09:49:37.19Z</time></trkpt><trkpt lat="45.9651901" lon="11.5646997"><ele>1510.0</ele><time>2026-04-26T09:49:38.19Z</time></trkpt><trkpt lat="45.9651403" lon="11.5645687"><ele>1510.0</ele><time>2026-04-26T09:49:39.19Z</time></trkpt><trkpt lat="45.9650969" lon="11.5644235"><ele>1510.0</ele><time>2026-04-26T09:49:40.188Z</time></trkpt><trkpt lat="45.9650462" lon="11.5642873"><ele>1510.0</ele><time>2026-04-26T09:49:41.189Z</time></trkpt><trkpt lat="45.9649869" lon="11.564165"><ele>1510.0</ele><time>2026-04-26T09:49:42.191Z</time></trkpt><trkpt lat="45.964923" lon="11.5640781"><ele>1509.3333333333333</ele><time>2026-04-26T09:49:43.189Z</time></trkpt><trkpt lat="45.9648613" lon="11.5640132"><ele>1508.6666666666665</ele><time>2026-04-26T09:49:44.191Z</time></trkpt><trkpt lat="45.9648067" lon="11.5639673"><ele>1508.0</ele><time>2026-04-26T09:49:45.189Z</time></trkpt><trkpt lat="45.9647307" lon="11.5638975"><ele>1507.3333333333333</ele><time>2026-04-26T09:49:47.187Z</time></trkpt><trkpt lat="45.9647069" lon="11.5637851"><ele>1506.6666666666667</ele><time>2026-04-26T09:49:49.188Z</time></trkpt><trkpt lat="45.964762" lon="11.5637252"><ele>1506.0</ele><time>2026-04-26T09:49:51.19Z</time></trkpt><trkpt lat="45.9648625" lon="11.5637907"><ele>1506.0</ele><time>2026-04-26T09:49:53.192Z</time></trkpt><trkpt lat="45.9649283" lon="11.5638643"><ele>1506.0</ele><time>2026-04-26T09:49:54.19Z</time></trkpt><trkpt lat="45.96507" lon="11.5639987"><ele>1506.0</ele><time>2026-04-26T09:49:56.188Z</time></trkpt><trkpt lat="45.9651496" lon="11.5640464"><ele>1506.0</ele><time>2026-04-26T09:49:57.189Z</time></trkpt><trkpt lat="45.9652273" lon="11.5640954"><ele>1506.0</ele><time>2026-04-26T09:49:58.187Z</time></trkpt><trkpt lat="45.9652937" lon="11.5641596"><ele>1506.8</ele><time>2026-04-26T09:49:59.191Z</time></trkpt><trkpt lat="45.9653548" lon="11.564231"><ele>1507.6</ele><time>2026-04-26T09:50:00.191Z</time></trkpt><trkpt lat="45.9654291" lon="11.5643089"><ele>1508.4</ele><time>2026-04-26T09:50:01.19Z</time></trkpt><trkpt lat="45.9655123" lon="11.5643918"><ele>1509.2</ele><time>2026-04-26T09:50:02.189Z</time></trkpt><trkpt lat="45.9655884" lon="11.5644846"><ele>1510.0</ele><time>2026-04-26T09:50:03.19Z</time></trkpt><trkpt lat="45.9656543" lon="11.5645742"><ele>1510.0</ele><time>2026-04-26T09:50:04.189Z</time></trkpt><trkpt lat="45.9657119" lon="11.56466"><ele>1510.0</ele><time>2026-04-26T09:50:05.19Z</time></trkpt><trkpt lat="45.965773" lon="11.564719"><ele>1510.0</ele><time>2026-04-26T09:50:06.189Z</time></trkpt><trkpt lat="45.9658513" lon="11.5647658"><ele>1510.0</ele><time>2026-04-26T09:50:07.19Z</time></trkpt><trkpt lat="45.9659395" lon="11.5648011"><ele>1510.0</ele><time>2026-04-26T09:50:08.189Z</time></trkpt><trkpt lat="45.9660365" lon="11.5648366"><ele>1510.0</ele><time>2026-04-26T09:50:09.191Z</time></trkpt><trkpt lat="45.9661306" lon="11.5648775"><ele>1513.8</ele><time>2026-04-26T09:50:10.189Z</time></trkpt><trkpt lat="45.966227" lon="11.5649171"><ele>1517.6</ele><time>2026-04-26T09:50:11.188Z</time></trkpt><trkpt lat="45.9663244" lon="11.5649565"><ele>1521.4</ele><time>2026-04-26T09:50:12.188Z</time></trkpt><trkpt lat="45.9664195" lon="11.5649946"><ele>1525.2</ele><time>2026-04-26T09:50:13.186Z</time></trkpt><trkpt lat="45.966512" lon="11.5650356"><ele>1529.0</ele><time>2026-04-26T09:50:14.189Z</time></trkpt><trkpt lat="45.9666078" lon="11.5650748"><ele>1530.0</ele><time>2026-04-26T09:50:15.19Z</time></trkpt><trkpt lat="45.9667549" lon="11.5651721"><ele>1531.0</ele><time>2026-04-26T09:50:17.188Z</time></trkpt><trkpt lat="45.9668049" lon="11.5652528"><ele>1532.0</ele><time>2026-04-26T09:50:18.19Z</time></trkpt><trkpt lat="45.9668469" lon="11.5653635"><ele>1533.0</ele><time>2026-04-26T09:50:19.189Z</time></trkpt><trkpt lat="45.966872" lon="11.5654773"><ele>1534.0</ele><time>2026-04-26T09:50:20.189Z</time></trkpt><trkpt lat="45.9668826" lon="11.56559"><ele>1534.0</ele><time>2026-04-26T09:50:21.188Z</time></trkpt><trkpt lat="45.9668964" lon="11.5656999"><ele>1534.0</ele><time>2026-04-26T09:50:22.189Z</time></trkpt><trkpt lat="45.9669272" lon="11.5657851"><ele>1534.0</ele><time>2026-04-26T09:50:23.189Z</time></trkpt><trkpt lat="45.9669703" lon="11.5658684"><ele>1534.0</ele><time>2026-04-26T09:50:24.191Z</time></trkpt><trkpt lat="45.9670237" lon="11.5659461"><ele>1534.0</ele><time>2026-04-26T09:50:25.192Z</time></trkpt><trkpt lat="45.9670753" lon="11.5660081"><ele>1534.0</ele><time>2026-04-26T09:50:26.192Z</time></trkpt><trkpt lat="45.9671888" lon="11.5661118"><ele>1534.0</ele><time>2026-04-26T09:50:28.188Z</time></trkpt><trkpt lat="45.9672598" lon="11.5661737"><ele>1534.0</ele><time>2026-04-26T09:50:29.191Z</time></trkpt><trkpt lat="45.9673255" lon="11.5662488"><ele>1534.0</ele><time>2026-04-26T09:50:30.19Z</time></trkpt><trkpt lat="45.9673743" lon="11.5663295"><ele>1534.0</ele><time>2026-04-26T09:50:31.191Z</time></trkpt><trkpt lat="45.967418" lon="11.5664176"><ele>1534.0</ele><time>2026-04-26T09:50:32.192Z</time></trkpt><trkpt lat="45.9674669" lon="11.566482"><ele>1534.0</ele><time>2026-04-26T09:50:33.192Z</time></trkpt><trkpt lat="45.9675803" lon="11.5665256"><ele>1533.6</ele><time>2026-04-26T09:50:35.192Z</time></trkpt><trkpt lat="45.9676746" lon="11.5665283"><ele>1533.2</ele><time>2026-04-26T09:50:37.189Z</time></trkpt><trkpt lat="45.9676599" lon="11.5663765"><ele>1532.8</ele><time>2026-04-26T09:50:41.191Z</time></trkpt><trkpt lat="45.9675628" lon="11.566373"><ele>1532.3999999999999</ele><time>2026-04-26T09:50:43.195Z</time></trkpt><trkpt lat="45.9674802" lon="11.5663186"><ele>1532.0</ele><time>2026-04-26T09:50:45.192Z</time></trkpt><trkpt lat="45.9674211" lon="11.5662336"><ele>1532.3999999999999</ele><time>2026-04-26T09:50:47.192Z</time></trkpt><trkpt lat="45.9673409" lon="11.5660892"><ele>1532.8</ele><time>2026-04-26T09:50:49.191Z</time></trkpt><trkpt lat="45.9673116" lon="11.5659954"><ele>1533.2</ele><time>2026-04-26T09:50:50.193Z</time></trkpt><trkpt lat="45.9672918" lon="11.5658799"><ele>1533.6</ele><time>2026-04-26T09:50:51.19Z</time></trkpt><trkpt lat="45.9672848" lon="11.5657412"><ele>1534.0</ele><time>2026-04-26T09:50:52.19Z</time></trkpt><trkpt lat="45.9672683" lon="11.565602"><ele>1534.0</ele><time>2026-04-26T09:50:53.192Z</time></trkpt><trkpt lat="45.9672464" lon="11.5654818"><ele>1534.0</ele><time>2026-04-26T09:50:54.19Z</time></trkpt><trkpt lat="45.9672217" lon="11.5653763"><ele>1534.0</ele><time>2026-04-26T09:50:55.191Z</time></trkpt><trkpt lat="45.9671886" lon="11.5652844"><ele>1534.0</ele><time>2026-04-26T09:50:56.191Z</time></trkpt><trkpt lat="45.9671165" lon="11.5651682"><ele>1534.0</ele><time>2026-04-26T09:50:58.191Z</time></trkpt><trkpt lat="45.9671978" lon="11.5650393"><ele>1534.0</ele><time>2026-04-26T09:51:03.192Z</time></trkpt><trkpt lat="45.967261" lon="11.565154"><ele>1534.0</ele><time>2026-04-26T09:51:05.194Z</time></trkpt><trkpt lat="45.9673" lon="11.5652391"><ele>1534.0</ele><time>2026-04-26T09:51:06.19Z</time></trkpt><trkpt lat="45.9673401" lon="11.5653282"><ele>1534.0</ele><time>2026-04-26T09:51:07.191Z</time></trkpt><trkpt lat="45.9673833" lon="11.5654271"><ele>1534.0</ele><time>2026-04-26T09:51:08.19Z</time></trkpt><trkpt lat="45.9674206" lon="11.5655395"><ele>1534.0</ele><time>2026-04-26T09:51:09.189Z</time></trkpt><trkpt lat="45.9674467" lon="11.5656597"><ele>1534.0</ele><time>2026-04-26T09:51:10.19Z</time></trkpt><trkpt lat="45.9674557" lon="11.5657701"><ele>1534.0</ele><time>2026-04-26T09:51:11.191Z</time></trkpt><trkpt lat="45.967471" lon="11.5658581"><ele>1534.0</ele><time>2026-04-26T09:51:12.191Z</time></trkpt><trkpt lat="45.9675371" lon="11.5659458"><ele>1534.0</ele><time>2026-04-26T09:51:14.19Z</time></trkpt><trkpt lat="45.967616" lon="11.5659169"><ele>1534.0</ele><time>2026-04-26T09:51:16.191Z</time></trkpt><trkpt lat="45.9677068" lon="11.5657775"><ele>1534.0</ele><time>2026-04-26T09:51:18.191Z</time></trkpt><trkpt lat="45.9677646" lon="11.5656773"><ele>1536.25</ele><time>2026-04-26T09:51:19.191Z</time></trkpt><trkpt lat="45.9679159" lon="11.5655127"><ele>1538.5</ele><time>2026-04-26T09:51:21.193Z</time></trkpt><trkpt lat="45.9679982" lon="11.5654486"><ele>1540.75</ele><time>2026-04-26T09:51:22.191Z</time></trkpt><trkpt lat="45.9680725" lon="11.5654117"><ele>1543.0</ele><time>2026-04-26T09:51:22.992Z</time></trkpt><trkpt lat="45.9681809" lon="11.5653864"><ele>1543.0000000000002</ele><time>2026-04-26T09:51:24.188Z</time></trkpt><trkpt lat="45.9682652" lon="11.565397"><ele>1543.0</ele><time>2026-04-26T09:51:25.191Z</time></trkpt><trkpt lat="45.9683532" lon="11.5654393"><ele>1543.0</ele><time>2026-04-26T09:51:26.19Z</time></trkpt><trkpt lat="45.9684295" lon="11.5654993"><ele>1543.0</ele><time>2026-04-26T09:51:27.191Z</time></trkpt><trkpt lat="45.968487" lon="11.565555"><ele>1543.0000000000002</ele><time>2026-04-26T09:51:28.192Z</time></trkpt><trkpt lat="45.9685799" lon="11.5655704"><ele>1543.0</ele><time>2026-04-26T09:51:30.191Z</time></trkpt><trkpt lat="45.9686593" lon="11.5655263"><ele>1543.6000000000001</ele><time>2026-04-26T09:51:32.19Z</time></trkpt><trkpt lat="45.9687429" lon="11.5655101"><ele>1544.2</ele><time>2026-04-26T09:51:56.192Z</time></trkpt><trkpt lat="45.9689134" lon="11.5654361"><ele>1544.8</ele><time>2026-04-26T09:51:59.191Z</time></trkpt><trkpt lat="45.9689922" lon="11.5653956"><ele>1545.4</ele><time>2026-04-26T09:52:00.191Z</time></trkpt><trkpt lat="45.9690758" lon="11.5653565"><ele>1546.0</ele><time>2026-04-26T09:52:02.19Z</time></trkpt><trkpt lat="45.9691419" lon="11.5653041"><ele>1546.0</ele><time>2026-04-26T09:52:05.191Z</time></trkpt><trkpt lat="45.9692044" lon="11.5652883"><ele>1546.0</ele><time>2026-04-26T09:53:05.19Z</time></trkpt><trkpt lat="45.9690589" lon="11.5654042"><ele>1546.0</ele><time>2026-04-26T09:53:26.19Z</time></trkpt><trkpt lat="45.968804" lon="11.5654361"><ele>1546.0000000000002</ele><time>2026-04-26T09:54:02.193Z</time></trkpt><trkpt lat="45.9687263" lon="11.5654562"><ele>1546.0</ele><time>2026-04-26T09:54:04.193Z</time></trkpt><trkpt lat="45.9686515" lon="11.5654363"><ele>1546.0</ele><time>2026-04-26T09:54:08.194Z</time></trkpt><trkpt lat="45.9685981" lon="11.5653579"><ele>1546.0</ele><time>2026-04-26T09:54:10.194Z</time></trkpt><trkpt lat="45.9685519" lon="11.5652775"><ele>1546.0000000000002</ele><time>2026-04-26T09:54:11.196Z</time></trkpt><trkpt lat="45.9684951" lon="11.5651754"><ele>1546.0</ele><time>2026-04-26T09:54:12.194Z</time></trkpt><trkpt lat="45.9684278" lon="11.5650696"><ele>1546.6666666666667</ele><time>2026-04-26T09:54:13.192Z</time></trkpt><trkpt lat="45.968362" lon="11.5649904"><ele>1547.3333333333335</ele><time>2026-04-26T09:54:14.193Z</time></trkpt><trkpt lat="45.9682945" lon="11.5649307"><ele>1548.0</ele><time>2026-04-26T09:54:15.19Z</time></trkpt><trkpt lat="45.9682178" lon="11.564883"><ele>1548.6666666666665</ele><time>2026-04-26T09:54:16.191Z</time></trkpt><trkpt lat="45.9681354" lon="11.5648473"><ele>1549.3333333333333</ele><time>2026-04-26T09:54:17.192Z</time></trkpt><trkpt lat="45.968056" lon="11.5648169"><ele>1550.0</ele><time>2026-04-26T09:54:18.19Z</time></trkpt><trkpt lat="45.9679814" lon="11.5647748"><ele>1550.25</ele><time>2026-04-26T09:54:19.193Z</time></trkpt><trkpt lat="45.9678372" lon="11.5646199"><ele>1550.5</ele><time>2026-04-26T09:54:21.193Z</time></trkpt><trkpt lat="45.9677754" lon="11.5645208"><ele>1550.75</ele><time>2026-04-26T09:54:22.193Z</time></trkpt><trkpt lat="45.9677144" lon="11.5644139"><ele>1551.0</ele><time>2026-04-26T09:54:23.194Z</time></trkpt><trkpt lat="45.9676484" lon="11.5643029"><ele>1551.0</ele><time>2026-04-26T09:54:24.192Z</time></trkpt><trkpt lat="45.9675769" lon="11.5641802"><ele>1551.0</ele><time>2026-04-26T09:54:25.191Z</time></trkpt><trkpt lat="45.9675038" lon="11.5640462"><ele>1551.0</ele><time>2026-04-26T09:54:26.195Z</time></trkpt><trkpt lat="45.9674298" lon="11.5639208"><ele>1551.0</ele><time>2026-04-26T09:54:27.19Z</time></trkpt><trkpt lat="45.9673574" lon="11.5638077"><ele>1552.0</ele><time>2026-04-26T09:54:28.193Z</time></trkpt><trkpt lat="45.9672958" lon="11.5636944"><ele>1553.0</ele><time>2026-04-26T09:54:29.191Z</time></trkpt><trkpt lat="45.9672397" lon="11.563585"><ele>1554.0</ele><time>2026-04-26T09:54:30.191Z</time></trkpt><trkpt lat="45.9671793" lon="11.563485"><ele>1555.0</ele><time>2026-04-26T09:54:31.194Z</time></trkpt><trkpt lat="45.9671014" lon="11.5633814"><ele>1556.0</ele><time>2026-04-26T09:54:32.195Z</time></trkpt><trkpt lat="45.9670224" lon="11.5632828"><ele>1555.9999999999998</ele><time>2026-04-26T09:54:33.192Z</time></trkpt><trkpt lat="45.9669579" lon="11.5631976"><ele>1556.0</ele><time>2026-04-26T09:54:34.192Z</time></trkpt><trkpt lat="45.9669077" lon="11.5631283"><ele>1556.0</ele><time>2026-04-26T09:54:35.192Z</time></trkpt><trkpt lat="45.9668281" lon="11.5630164"><ele>1556.0</ele><time>2026-04-26T09:54:37.194Z</time></trkpt><trkpt lat="45.9667745" lon="11.5629554"><ele>1555.9999999999998</ele><time>2026-04-26T09:54:40.192Z</time></trkpt><trkpt lat="45.9667183" lon="11.5628817"><ele>1556.0</ele><time>2026-04-26T09:55:35.194Z</time></trkpt><trkpt lat="45.9668213" lon="11.5630089"><ele>1555.9999999999998</ele><time>2026-04-26T09:55:46.194Z</time></trkpt><trkpt lat="45.9668672" lon="11.5630799"><ele>1556.0</ele><time>2026-04-26T09:55:47.192Z</time></trkpt><trkpt lat="45.9669321" lon="11.5631747"><ele>1556.0</ele><time>2026-04-26T09:55:48.192Z</time></trkpt><trkpt lat="45.9669989" lon="11.5632668"><ele>1556.0</ele><time>2026-04-26T09:55:49.192Z</time></trkpt><trkpt lat="45.9670611" lon="11.5633451"><ele>1555.9999999999998</ele><time>2026-04-26T09:55:50.194Z</time></trkpt><trkpt lat="45.9671273" lon="11.5634348"><ele>1556.0</ele><time>2026-04-26T09:55:51.193Z</time></trkpt><trkpt lat="45.967201" lon="11.5635533"><ele>1556.0</ele><time>2026-04-26T09:55:52.193Z</time></trkpt><trkpt lat="45.9672657" lon="11.563677"><ele>1556.0</ele><time>2026-04-26T09:55:53.191Z</time></trkpt><trkpt lat="45.9673202" lon="11.5637865"><ele>1556.0</ele><time>2026-04-26T09:55:54.192Z</time></trkpt><trkpt lat="45.9673733" lon="11.5638803"><ele>1556.0</ele><time>2026-04-26T09:55:55.189Z</time></trkpt><trkpt lat="45.967424" lon="11.5639643"><ele>1556.0</ele><time>2026-04-26T09:55:56.19Z</time></trkpt><trkpt lat="45.9675277" lon="11.5641481"><ele>1555.3333333333333</ele><time>2026-04-26T09:55:58.193Z</time></trkpt><trkpt lat="45.9675765" lon="11.5642346"><ele>1554.6666666666665</ele><time>2026-04-26T09:55:59.193Z</time></trkpt><trkpt lat="45.9676237" lon="11.5643135"><ele>1554.0</ele><time>2026-04-26T09:56:00.195Z</time></trkpt><trkpt lat="45.9676661" lon="11.5643935"><ele>1553.3333333333335</ele><time>2026-04-26T09:56:01.195Z</time></trkpt><trkpt lat="45.9677148" lon="11.5644814"><ele>1552.6666666666667</ele><time>2026-04-26T09:56:02.193Z</time></trkpt><trkpt lat="45.9678059" lon="11.5646322"><ele>1552.0</ele><time>2026-04-26T09:56:04.194Z</time></trkpt><trkpt lat="45.9678923" lon="11.5647558"><ele>1551.857142857143</ele><time>2026-04-26T09:56:06.193Z</time></trkpt><trkpt lat="45.9679506" lon="11.5648072"><ele>1551.7142857142858</ele><time>2026-04-26T09:56:07.194Z</time></trkpt><trkpt lat="45.9680141" lon="11.5648433"><ele>1551.5714285714287</ele><time>2026-04-26T09:56:08.194Z</time></trkpt><trkpt lat="45.9680769" lon="11.5648659"><ele>1551.4285714285716</ele><time>2026-04-26T09:56:09.194Z</time></trkpt><trkpt lat="45.9681479" lon="11.5648851"><ele>1551.2857142857142</ele><time>2026-04-26T09:56:10.194Z</time></trkpt><trkpt lat="45.9682153" lon="11.5649112"><ele>1551.1428571428573</ele><time>2026-04-26T09:56:11.196Z</time></trkpt><trkpt lat="45.9682751" lon="11.5649468"><ele>1551.0</ele><time>2026-04-26T09:56:12.194Z</time></trkpt><trkpt lat="45.9683322" lon="11.5649968"><ele>1550.8</ele><time>2026-04-26T09:56:13.194Z</time></trkpt><trkpt lat="45.968395" lon="11.5650651"><ele>1550.6</ele><time>2026-04-26T09:56:14.195Z</time></trkpt><trkpt lat="45.9684502" lon="11.5651418"><ele>1550.4</ele><time>2026-04-26T09:56:15.192Z</time></trkpt><trkpt lat="45.9684927" lon="11.5652202"><ele>1550.2</ele><time>2026-04-26T09:56:16.193Z</time></trkpt><trkpt lat="45.96856" lon="11.565346"><ele>1550.0</ele><time>2026-04-26T09:56:18.19Z</time></trkpt><trkpt lat="45.9686228" lon="11.5655361"><ele>1549.4285714285713</ele><time>2026-04-26T09:56:24.192Z</time></trkpt><trkpt lat="45.9685615" lon="11.5655816"><ele>1548.857142857143</ele><time>2026-04-26T09:56:26.191Z</time></trkpt><trkpt lat="45.9684655" lon="11.5655209"><ele>1548.2857142857142</ele><time>2026-04-26T09:56:28.191Z</time></trkpt><trkpt lat="45.9684125" lon="11.5654639"><ele>1547.7142857142858</ele><time>2026-04-26T09:56:29.192Z</time></trkpt><trkpt lat="45.968355" lon="11.5654181"><ele>1547.142857142857</ele><time>2026-04-26T09:56:30.189Z</time></trkpt><trkpt lat="45.9682903" lon="11.5653874"><ele>1546.5714285714284</ele><time>2026-04-26T09:56:31.19Z</time></trkpt><trkpt lat="45.9682191" lon="11.5653781"><ele>1546.0</ele><time>2026-04-26T09:56:32.192Z</time></trkpt><trkpt lat="45.968141" lon="11.5653897"><ele>1545.5000000000002</ele><time>2026-04-26T09:56:33.192Z</time></trkpt><trkpt lat="45.9680671" lon="11.5654235"><ele>1545.0</ele><time>2026-04-26T09:56:34.191Z</time></trkpt><trkpt lat="45.9679871" lon="11.5654724"><ele>1544.5</ele><time>2026-04-26T09:56:35.192Z</time></trkpt><trkpt lat="45.9679142" lon="11.5655317"><ele>1544.0</ele><time>2026-04-26T09:56:36.191Z</time></trkpt><trkpt lat="45.9678452" lon="11.5655917"><ele>1543.5000000000002</ele><time>2026-04-26T09:56:37.189Z</time></trkpt><trkpt lat="45.9677851" lon="11.5656568"><ele>1543.0</ele><time>2026-04-26T09:56:38.194Z</time></trkpt><trkpt lat="45.967735" lon="11.5657275"><ele>1543.0</ele><time>2026-04-26T09:56:39.191Z</time></trkpt><trkpt lat="45.9676162" lon="11.5659282"><ele>1543.0</ele><time>2026-04-26T09:56:42.188Z</time></trkpt><trkpt lat="45.9675322" lon="11.5659626"><ele>1543.0</ele><time>2026-04-26T09:56:44.191Z</time></trkpt><trkpt lat="45.9674498" lon="11.5658856"><ele>1543.0</ele><time>2026-04-26T09:56:46.192Z</time></trkpt><trkpt lat="45.9674212" lon="11.5657239"><ele>1543.1666666666667</ele><time>2026-04-26T09:56:48.19Z</time></trkpt><trkpt lat="45.9674156" lon="11.5656051"><ele>1543.3333333333335</ele><time>2026-04-26T09:56:49.191Z</time></trkpt><trkpt lat="45.9673977" lon="11.5654841"><ele>1543.5</ele><time>2026-04-26T09:56:50.189Z</time></trkpt><trkpt lat="45.9673599" lon="11.5653765"><ele>1543.6666666666665</ele><time>2026-04-26T09:56:51.192Z</time></trkpt><trkpt lat="45.9673196" lon="11.5652876"><ele>1543.8333333333333</ele><time>2026-04-26T09:56:52.19Z</time></trkpt><trkpt lat="45.9672787" lon="11.5652073"><ele>1544.0</ele><time>2026-04-26T09:56:53.19Z</time></trkpt><trkpt lat="45.9672334" lon="11.565081"><ele>1544.0</ele><time>2026-04-26T09:56:55.19Z</time></trkpt><trkpt lat="45.9671761" lon="11.5650303"><ele>1544.0</ele><time>2026-04-26T09:56:57.189Z</time></trkpt><trkpt lat="45.9671311" lon="11.5650955"><ele>1544.0</ele><time>2026-04-26T09:56:59.192Z</time></trkpt><trkpt lat="45.9671508" lon="11.5652091"><ele>1544.0</ele><time>2026-04-26T09:57:01.191Z</time></trkpt><trkpt lat="45.9672545" lon="11.5654988"><ele>1544.0</ele><time>2026-04-26T09:57:04.191Z</time></trkpt><trkpt lat="45.9672754" lon="11.5656246"><ele>1542.3333333333333</ele><time>2026-04-26T09:57:05.189Z</time></trkpt><trkpt lat="45.967298" lon="11.565749"><ele>1540.6666666666665</ele><time>2026-04-26T09:57:06.189Z</time></trkpt><trkpt lat="45.9673133" lon="11.5658776"><ele>1539.0</ele><time>2026-04-26T09:57:07.189Z</time></trkpt><trkpt lat="45.9673302" lon="11.5659968"><ele>1537.3333333333333</ele><time>2026-04-26T09:57:08.189Z</time></trkpt><trkpt lat="45.9673609" lon="11.5660959"><ele>1535.6666666666665</ele><time>2026-04-26T09:57:09.191Z</time></trkpt><trkpt lat="45.9674038" lon="11.5661826"><ele>1534.0</ele><time>2026-04-26T09:57:10.191Z</time></trkpt><trkpt lat="45.9674507" lon="11.5662652"><ele>1533.6666666666665</ele><time>2026-04-26T09:57:11.192Z</time></trkpt><trkpt lat="45.967495" lon="11.566332"><ele>1533.3333333333333</ele><time>2026-04-26T09:57:12.19Z</time></trkpt><trkpt lat="45.96759" lon="11.5664027"><ele>1533.0</ele><time>2026-04-26T09:57:14.189Z</time></trkpt><trkpt lat="45.9676702" lon="11.566385"><ele>1532.6666666666667</ele><time>2026-04-26T09:57:16.191Z</time></trkpt><trkpt lat="45.9677341" lon="11.566466"><ele>1532.3333333333335</ele><time>2026-04-26T09:57:19.191Z</time></trkpt><trkpt lat="45.9677058" lon="11.5665511"><ele>1532.0</ele><time>2026-04-26T09:57:21.19Z</time></trkpt><trkpt lat="45.9676004" lon="11.5665658"><ele>1532.3999999999999</ele><time>2026-04-26T09:57:23.191Z</time></trkpt><trkpt lat="45.9674274" lon="11.5664433"><ele>1532.8</ele><time>2026-04-26T09:57:26.193Z</time></trkpt><trkpt lat="45.9673757" lon="11.5663613"><ele>1533.2</ele><time>2026-04-26T09:57:27.192Z</time></trkpt><trkpt lat="45.9673177" lon="11.5662663"><ele>1533.6</ele><time>2026-04-26T09:57:28.192Z</time></trkpt><trkpt lat="45.9672575" lon="11.5661872"><ele>1534.0</ele><time>2026-04-26T09:57:29.189Z</time></trkpt><trkpt lat="45.9671923" lon="11.5661181"><ele>1534.0</ele><time>2026-04-26T09:57:30.189Z</time></trkpt><trkpt lat="45.9671271" lon="11.5660578"><ele>1534.0</ele><time>2026-04-26T09:57:31.189Z</time></trkpt><trkpt lat="45.9670726" lon="11.5660048"><ele>1534.0</ele><time>2026-04-26T09:57:32.188Z</time></trkpt><trkpt lat="45.9669822" lon="11.5658836"><ele>1534.0</ele><time>2026-04-26T09:57:34.189Z</time></trkpt><trkpt lat="45.9669483" lon="11.5657967"><ele>1534.0</ele><time>2026-04-26T09:57:35.193Z</time></trkpt><trkpt lat="45.9669271" lon="11.5656948"><ele>1534.0</ele><time>2026-04-26T09:57:36.19Z</time></trkpt><trkpt lat="45.9669129" lon="11.5655922"><ele>1534.0</ele><time>2026-04-26T09:57:37.19Z</time></trkpt><trkpt lat="45.9669043" lon="11.5654834"><ele>1534.0</ele><time>2026-04-26T09:57:38.192Z</time></trkpt><trkpt lat="45.9668766" lon="11.5653893"><ele>1534.0</ele><time>2026-04-26T09:57:39.192Z</time></trkpt><trkpt lat="45.9668324" lon="11.5652976"><ele>1534.0</ele><time>2026-04-26T09:57:40.191Z</time></trkpt><trkpt lat="45.9667766" lon="11.5652225"><ele>1534.0</ele><time>2026-04-26T09:57:41.192Z</time></trkpt><trkpt lat="45.9667031" lon="11.5651571"><ele>1534.0</ele><time>2026-04-26T09:57:42.192Z</time></trkpt><trkpt lat="45.9666108" lon="11.5651036"><ele>1532.75</ele><time>2026-04-26T09:57:43.192Z</time></trkpt><trkpt lat="45.9665099" lon="11.5650673"><ele>1531.5</ele><time>2026-04-26T09:57:44.19Z</time></trkpt><trkpt lat="45.9663145" lon="11.5650195"><ele>1530.25</ele><time>2026-04-26T09:57:46.19Z</time></trkpt><trkpt lat="45.966226" lon="11.5649909"><ele>1529.0</ele><time>2026-04-26T09:57:47.19Z</time></trkpt><trkpt lat="45.9661357" lon="11.5649547"><ele>1529.0</ele><time>2026-04-26T09:57:48.192Z</time></trkpt><trkpt lat="45.9660452" lon="11.5649041"><ele>1529.0</ele><time>2026-04-26T09:57:49.19Z</time></trkpt><trkpt lat="45.9659607" lon="11.5648546"><ele>1529.0</ele><time>2026-04-26T09:57:50.192Z</time></trkpt><trkpt lat="45.9658803" lon="11.5648199"><ele>1529.0</ele><time>2026-04-26T09:57:51.192Z</time></trkpt><trkpt lat="45.9658113" lon="11.5647863"><ele>1529.0</ele><time>2026-04-26T09:57:52.191Z</time></trkpt><trkpt lat="45.9657508" lon="11.5647436"><ele>1529.0</ele><time>2026-04-26T09:57:53.191Z</time></trkpt><trkpt lat="45.9656957" lon="11.5646707"><ele>1529.0</ele><time>2026-04-26T09:57:54.19Z</time></trkpt><trkpt lat="45.9656318" lon="11.5645758"><ele>1529.0</ele><time>2026-04-26T09:57:55.19Z</time></trkpt><trkpt lat="45.9655552" lon="11.5644746"><ele>1529.0</ele><time>2026-04-26T09:57:56.19Z</time></trkpt><trkpt lat="45.9654804" lon="11.5643798"><ele>1529.0</ele><time>2026-04-26T09:57:57.189Z</time></trkpt><trkpt lat="45.9654117" lon="11.5642961"><ele>1529.0</ele><time>2026-04-26T09:57:58.189Z</time></trkpt><trkpt lat="45.965343" lon="11.5642199"><ele>1529.0</ele><time>2026-04-26T09:57:59.19Z</time></trkpt><trkpt lat="45.9652793" lon="11.5641414"><ele>1529.0</ele><time>2026-04-26T09:58:00.19Z</time></trkpt><trkpt lat="45.9652123" lon="11.5640787"><ele>1529.0</ele><time>2026-04-26T09:58:01.192Z</time></trkpt><trkpt lat="45.9651368" lon="11.5640312"><ele>1529.0</ele><time>2026-04-26T09:58:02.191Z</time></trkpt><trkpt lat="45.9650613" lon="11.5639897"><ele>1529.0</ele><time>2026-04-26T09:58:03.189Z</time></trkpt><trkpt lat="45.9649963" lon="11.5639354"><ele>1529.0</ele><time>2026-04-26T09:58:04.19Z</time></trkpt><trkpt lat="45.9649384" lon="11.5638673"><ele>1524.4</ele><time>2026-04-26T09:58:05.19Z</time></trkpt><trkpt lat="45.9648092" lon="11.5637236"><ele>1519.8000000000002</ele><time>2026-04-26T09:58:08.191Z</time></trkpt><trkpt lat="45.964735" lon="11.5637534"><ele>1515.1999999999998</ele><time>2026-04-26T09:58:10.19Z</time></trkpt><trkpt lat="45.9647405" lon="11.5638557"><ele>1510.6</ele><time>2026-04-26T09:58:12.193Z</time></trkpt><trkpt lat="45.9648214" lon="11.5639476"><ele>1506.0</ele><time>2026-04-26T09:58:14.191Z</time></trkpt><trkpt lat="45.9648751" lon="11.5640032"><ele>1506.0</ele><time>2026-04-26T09:58:15.19Z</time></trkpt><trkpt lat="45.9649447" lon="11.564071"><ele>1506.0</ele><time>2026-04-26T09:58:16.19Z</time></trkpt><trkpt lat="45.9650045" lon="11.5641573"><ele>1506.0</ele><time>2026-04-26T09:58:17.191Z</time></trkpt><trkpt lat="45.9650474" lon="11.5642504"><ele>1506.0</ele><time>2026-04-26T09:58:18.191Z</time></trkpt><trkpt lat="45.9650858" lon="11.5643568"><ele>1506.0</ele><time>2026-04-26T09:58:19.19Z</time></trkpt><trkpt lat="45.9651186" lon="11.5644754"><ele>1506.0</ele><time>2026-04-26T09:58:20.19Z</time></trkpt><trkpt lat="45.9651446" lon="11.564587"><ele>1506.6666666666667</ele><time>2026-04-26T09:58:21.188Z</time></trkpt><trkpt lat="45.9651794" lon="11.5646995"><ele>1507.3333333333333</ele><time>2026-04-26T09:58:22.188Z</time></trkpt><trkpt lat="45.9652322" lon="11.5648067"><ele>1508.0</ele><time>2026-04-26T09:58:23.189Z</time></trkpt><trkpt lat="45.9652898" lon="11.5649025"><ele>1508.6666666666665</ele><time>2026-04-26T09:58:24.189Z</time></trkpt><trkpt lat="45.9653437" lon="11.5649832"><ele>1509.3333333333333</ele><time>2026-04-26T09:58:25.193Z</time></trkpt><trkpt lat="45.9653948" lon="11.5650544"><ele>1510.0</ele><time>2026-04-26T09:58:26.191Z</time></trkpt><trkpt lat="45.9655352" lon="11.5651555"><ele>1510.0</ele><time>2026-04-26T09:58:28.192Z</time></trkpt><trkpt lat="45.9656272" lon="11.5651808"><ele>1510.0</ele><time>2026-04-26T09:58:29.192Z</time></trkpt><trkpt lat="45.9657136" lon="11.5651912"><ele>1510.0</ele><time>2026-04-26T09:58:30.189Z</time></trkpt><trkpt lat="45.9657943" lon="11.5651927"><ele>1510.0</ele><time>2026-04-26T09:58:31.19Z</time></trkpt><trkpt lat="45.9658623" lon="11.5652118"><ele>1510.0</ele><time>2026-04-26T09:58:32.191Z</time></trkpt><trkpt lat="45.9659161" lon="11.5652607"><ele>1510.0</ele><time>2026-04-26T09:58:33.188Z</time></trkpt><trkpt lat="45.9659565" lon="11.565345"><ele>1510.6666666666665</ele><time>2026-04-26T09:58:34.191Z</time></trkpt><trkpt lat="45.9659763" lon="11.5654469"><ele>1511.3333333333333</ele><time>2026-04-26T09:58:35.192Z</time></trkpt><trkpt lat="45.9659777" lon="11.56556"><ele>1512.0</ele><time>2026-04-26T09:58:36.19Z</time></trkpt><trkpt lat="45.9659865" lon="11.5656668"><ele>1512.6666666666667</ele><time>2026-04-26T09:58:37.192Z</time></trkpt><trkpt lat="45.9660166" lon="11.5657725"><ele>1513.3333333333335</ele><time>2026-04-26T09:58:38.191Z</time></trkpt><trkpt lat="45.9660699" lon="11.5658811"><ele>1514.0</ele><time>2026-04-26T09:58:39.189Z</time></trkpt><trkpt lat="45.9661429" lon="11.5659845"><ele>1514.0</ele><time>2026-04-26T09:58:40.191Z</time></trkpt><trkpt lat="45.9662208" lon="11.5660735"><ele>1514.0</ele><time>2026-04-26T09:58:41.191Z</time></trkpt><trkpt lat="45.9663056" lon="11.566171"><ele>1514.0</ele><time>2026-04-26T09:58:42.189Z</time></trkpt><trkpt lat="45.9663844" lon="11.5662727"><ele>1514.0</ele><time>2026-04-26T09:58:43.191Z</time></trkpt><trkpt lat="45.96645" lon="11.5663776"><ele>1514.0</ele><time>2026-04-26T09:58:44.191Z</time></trkpt><trkpt lat="45.9665082" lon="11.5664858"><ele>1511.5</ele><time>2026-04-26T09:58:45.189Z</time></trkpt><trkpt lat="45.966552" lon="11.5666152"><ele>1509.0</ele><time>2026-04-26T09:58:46.189Z</time></trkpt><trkpt lat="45.966585" lon="11.5667447"><ele>1506.5</ele><time>2026-04-26T09:58:47.188Z</time></trkpt><trkpt lat="45.9666069" lon="11.5670112"><ele>1504.0</ele><time>2026-04-26T09:58:49.189Z</time></trkpt><trkpt lat="45.9666007" lon="11.5671431"><ele>1501.5</ele><time>2026-04-26T09:58:50.19Z</time></trkpt><trkpt lat="45.9665943" lon="11.5672854"><ele>1499.0</ele><time>2026-04-26T09:58:51.189Z</time></trkpt><trkpt lat="45.9666222" lon="11.5675604"><ele>1496.5</ele><time>2026-04-26T09:58:53.189Z</time></trkpt><trkpt lat="45.966645" lon="11.5677031"><ele>1494.0</ele><time>2026-04-26T09:58:54.191Z</time></trkpt><trkpt lat="45.9666692" lon="11.5678329"><ele>1494.8333333333333</ele><time>2026-04-26T09:58:55.189Z</time></trkpt><trkpt lat="45.9666976" lon="11.5679443"><ele>1495.6666666666667</ele><time>2026-04-26T09:58:56.189Z</time></trkpt><trkpt lat="45.9667355" lon="11.5680511"><ele>1496.5</ele><time>2026-04-26T09:58:57.189Z</time></trkpt><trkpt lat="45.9667813" lon="11.5681527"><ele>1497.3333333333335</ele><time>2026-04-26T09:58:58.189Z</time></trkpt><trkpt lat="45.9668143" lon="11.5682679"><ele>1498.1666666666667</ele><time>2026-04-26T09:58:59.192Z</time></trkpt><trkpt lat="45.9668528" lon="11.5683779"><ele>1499.0</ele><time>2026-04-26T09:59:00.19Z</time></trkpt><trkpt lat="45.9668818" lon="11.5684905"><ele>1499.0</ele><time>2026-04-26T09:59:01.189Z</time></trkpt><trkpt lat="45.9669182" lon="11.5685939"><ele>1499.0</ele><time>2026-04-26T09:59:02.191Z</time></trkpt><trkpt lat="45.9669618" lon="11.5686808"><ele>1499.0</ele><time>2026-04-26T09:59:03.19Z</time></trkpt><trkpt lat="45.967016" lon="11.5687549"><ele>1499.0</ele><time>2026-04-26T09:59:04.189Z</time></trkpt><trkpt lat="45.9670703" lon="11.5688132"><ele>1499.0</ele><time>2026-04-26T09:59:05.193Z</time></trkpt><trkpt lat="45.9671723" lon="11.5688961"><ele>1499.0</ele><time>2026-04-26T09:59:07.189Z</time></trkpt><trkpt lat="45.9672715" lon="11.5689528"><ele>1496.6</ele><time>2026-04-26T09:59:09.186Z</time></trkpt><trkpt lat="45.9674111" lon="11.5689546"><ele>1494.2</ele><time>2026-04-26T09:59:11.189Z</time></trkpt><trkpt lat="45.9674919" lon="11.5689343"><ele>1491.8</ele><time>2026-04-26T09:59:12.186Z</time></trkpt><trkpt lat="45.9675656" lon="11.5688918"><ele>1489.3999999999999</ele><time>2026-04-26T09:59:13.191Z</time></trkpt><trkpt lat="45.967629" lon="11.568837"><ele>1487.0</ele><time>2026-04-26T09:59:14.19Z</time></trkpt><trkpt lat="45.9677254" lon="11.5687916"><ele>1487.0</ele><time>2026-04-26T09:59:16.189Z</time></trkpt><trkpt lat="45.9677863" lon="11.5688235"><ele>1487.0</ele><time>2026-04-26T09:59:17.19Z</time></trkpt><trkpt lat="45.9678554" lon="11.5688694"><ele>1487.0</ele><time>2026-04-26T09:59:18.19Z</time></trkpt><trkpt lat="45.9679229" lon="11.5689316"><ele>1487.0</ele><time>2026-04-26T09:59:19.191Z</time></trkpt><trkpt lat="45.9679928" lon="11.5690182"><ele>1487.0</ele><time>2026-04-26T09:59:20.189Z</time></trkpt><trkpt lat="45.9680483" lon="11.5691207"><ele>1487.0</ele><time>2026-04-26T09:59:21.19Z</time></trkpt><trkpt lat="45.9680961" lon="11.5691973"><ele>1487.0</ele><time>2026-04-26T09:59:22.188Z</time></trkpt><trkpt lat="45.9682155" lon="11.5692819"><ele>1487.0</ele><time>2026-04-26T09:59:24.189Z</time></trkpt><trkpt lat="45.9682932" lon="11.5692936"><ele>1487.0</ele><time>2026-04-26T09:59:25.189Z</time></trkpt><trkpt lat="45.9683853" lon="11.5693003"><ele>1487.0</ele><time>2026-04-26T09:59:26.189Z</time></trkpt><trkpt lat="45.9684615" lon="11.5692923"><ele>1487.0</ele><time>2026-04-26T09:59:27.189Z</time></trkpt><trkpt lat="45.9685344" lon="11.5692843"><ele>1489.5</ele><time>2026-04-26T09:59:28.191Z</time></trkpt><trkpt lat="45.9686138" lon="11.5693233"><ele>1492.0</ele><time>2026-04-26T09:59:29.19Z</time></trkpt><trkpt lat="45.9686825" lon="11.5693808"><ele>1494.5</ele><time>2026-04-26T09:59:30.19Z</time></trkpt><trkpt lat="45.9688189" lon="11.5696473"><ele>1497.0</ele><time>2026-04-26T09:59:32.189Z</time></trkpt><trkpt lat="45.9688746" lon="11.5697972"><ele>1492.8</ele><time>2026-04-26T09:59:33.188Z</time></trkpt><trkpt lat="45.9689324" lon="11.5699209"><ele>1488.6</ele><time>2026-04-26T09:59:34.188Z</time></trkpt><trkpt lat="45.9689885" lon="11.570039"><ele>1484.3999999999999</ele><time>2026-04-26T09:59:35.189Z</time></trkpt><trkpt lat="45.9690456" lon="11.5701614"><ele>1480.1999999999998</ele><time>2026-04-26T09:59:36.189Z</time></trkpt><trkpt lat="45.9691021" lon="11.5702764"><ele>1476.0</ele><time>2026-04-26T09:59:37.189Z</time></trkpt><trkpt lat="45.969151" lon="11.5703834"><ele>1476.1666666666667</ele><time>2026-04-26T09:59:38.189Z</time></trkpt><trkpt lat="45.9691872" lon="11.5704956"><ele>1476.3333333333333</ele><time>2026-04-26T09:59:39.189Z</time></trkpt><trkpt lat="45.9692106" lon="11.5706078"><ele>1476.5</ele><time>2026-04-26T09:59:40.188Z</time></trkpt><trkpt lat="45.9692156" lon="11.5707166"><ele>1476.6666666666665</ele><time>2026-04-26T09:59:41.189Z</time></trkpt><trkpt lat="45.9692093" lon="11.5708165"><ele>1476.8333333333333</ele><time>2026-04-26T09:59:42.189Z</time></trkpt><trkpt lat="45.969213" lon="11.5709833"><ele>1477.0</ele><time>2026-04-26T09:59:44.19Z</time></trkpt><trkpt lat="45.9692423" lon="11.5710652"><ele>1477.0</ele><time>2026-04-26T09:59:45.191Z</time></trkpt><trkpt lat="45.9692873" lon="11.5711294"><ele>1477.0</ele><time>2026-04-26T09:59:46.188Z</time></trkpt><trkpt lat="45.9693537" lon="11.5711764"><ele>1477.0</ele><time>2026-04-26T09:59:47.192Z</time></trkpt><trkpt lat="45.9694364" lon="11.5712068"><ele>1477.0</ele><time>2026-04-26T09:59:48.191Z</time></trkpt><trkpt lat="45.9695363" lon="11.5712283"><ele>1477.0</ele><time>2026-04-26T09:59:49.191Z</time></trkpt><trkpt lat="45.9696145" lon="11.5712556"><ele>1477.0</ele><time>2026-04-26T09:59:50.191Z</time></trkpt><trkpt lat="45.9696762" lon="11.5713115"><ele>1474.8</ele><time>2026-04-26T09:59:51.191Z</time></trkpt><trkpt lat="45.9697735" lon="11.571487"><ele>1472.6</ele><time>2026-04-26T09:59:53.19Z</time></trkpt><trkpt lat="45.9698117" lon="11.5715911"><ele>1470.3999999999999</ele><time>2026-04-26T09:59:54.191Z</time></trkpt><trkpt lat="45.9698532" lon="11.5716969"><ele>1468.1999999999998</ele><time>2026-04-26T09:59:55.191Z</time></trkpt><trkpt lat="45.9698946" lon="11.5718127"><ele>1466.0</ele><time>2026-04-26T09:59:56.192Z</time></trkpt><trkpt lat="45.9699178" lon="11.5719454"><ele>1464.0</ele><time>2026-04-26T09:59:57.19Z</time></trkpt><trkpt lat="45.9699424" lon="11.5720737"><ele>1462.0</ele><time>2026-04-26T09:59:58.19Z</time></trkpt><trkpt lat="45.9699679" lon="11.5721957"><ele>1460.0</ele><time>2026-04-26T09:59:59.19Z</time></trkpt><trkpt lat="45.9700032" lon="11.5723091"><ele>1458.0</ele><time>2026-04-26T10:00:00.187Z</time></trkpt><trkpt lat="45.9700336" lon="11.5724354"><ele>1456.0</ele><time>2026-04-26T10:00:01.186Z</time></trkpt><trkpt lat="45.9700535" lon="11.572564"><ele>1460.1666666666665</ele><time>2026-04-26T10:00:02.189Z</time></trkpt><trkpt lat="45.970063" lon="11.5726925"><ele>1464.3333333333333</ele><time>2026-04-26T10:00:03.189Z</time></trkpt><trkpt lat="45.9700725" lon="11.572819"><ele>1468.5</ele><time>2026-04-26T10:00:04.19Z</time></trkpt><trkpt lat="45.9700847" lon="11.5729367"><ele>1472.6666666666667</ele><time>2026-04-26T10:00:05.19Z</time></trkpt><trkpt lat="45.9701003" lon="11.5730481"><ele>1476.8333333333335</ele><time>2026-04-26T10:00:06.188Z</time></trkpt><trkpt lat="45.9701094" lon="11.573157"><ele>1481.0</ele><time>2026-04-26T10:00:07.19Z</time></trkpt><trkpt lat="45.9701075" lon="11.5732651"><ele>1481.0</ele><time>2026-04-26T10:00:08.189Z</time></trkpt><trkpt lat="45.9700936" lon="11.5733807"><ele>1481.0</ele><time>2026-04-26T10:00:09.19Z</time></trkpt><trkpt lat="45.9700814" lon="11.5735012"><ele>1481.0</ele><time>2026-04-26T10:00:10.188Z</time></trkpt><trkpt lat="45.9700599" lon="11.5736237"><ele>1481.0</ele><time>2026-04-26T10:00:11.191Z</time></trkpt><trkpt lat="45.9700439" lon="11.5737286"><ele>1481.0</ele><time>2026-04-26T10:00:12.19Z</time></trkpt><trkpt lat="45.9699923" lon="11.5739322"><ele>1474.0</ele><time>2026-04-26T10:00:14.191Z</time></trkpt><trkpt lat="45.9699706" lon="11.5740263"><ele>1467.0</ele><time>2026-04-26T10:00:15.19Z</time></trkpt><trkpt lat="45.9699435" lon="11.5741195"><ele>1460.0</ele><time>2026-04-26T10:00:16.19Z</time></trkpt><trkpt lat="45.9699137" lon="11.5742936"><ele>1453.0</ele><time>2026-04-26T10:00:18.191Z</time></trkpt><trkpt lat="45.969926" lon="11.5744377"><ele>1446.0</ele><time>2026-04-26T10:00:20.187Z</time></trkpt><trkpt lat="45.9700037" lon="11.5745447"><ele>1447.8</ele><time>2026-04-26T10:00:22.188Z</time></trkpt><trkpt lat="45.9700763" lon="11.5745904"><ele>1449.6</ele><time>2026-04-26T10:00:23.189Z</time></trkpt><trkpt lat="45.9701629" lon="11.5746349"><ele>1451.4</ele><time>2026-04-26T10:00:24.19Z</time></trkpt><trkpt lat="45.9702473" lon="11.5747038"><ele>1453.2</ele><time>2026-04-26T10:00:25.188Z</time></trkpt><trkpt lat="45.9703265" lon="11.5747883"><ele>1455.0</ele><time>2026-04-26T10:00:26.192Z</time></trkpt><trkpt lat="45.9704086" lon="11.5748834"><ele>1455.0</ele><time>2026-04-26T10:00:27.19Z</time></trkpt><trkpt lat="45.9704829" lon="11.5749899"><ele>1455.0</ele><time>2026-04-26T10:00:28.191Z</time></trkpt><trkpt lat="45.9705565" lon="11.5751088"><ele>1455.0</ele><time>2026-04-26T10:00:29.192Z</time></trkpt><trkpt lat="45.970632" lon="11.5752331"><ele>1455.0</ele><time>2026-04-26T10:00:30.191Z</time></trkpt><trkpt lat="45.9707075" lon="11.5753556"><ele>1455.0</ele><time>2026-04-26T10:00:31.191Z</time></trkpt><trkpt lat="45.9707961" lon="11.5754857"><ele>1455.3333333333333</ele><time>2026-04-26T10:00:32.193Z</time></trkpt><trkpt lat="45.9708749" lon="11.5756112"><ele>1455.6666666666665</ele><time>2026-04-26T10:00:33.192Z</time></trkpt><trkpt lat="45.9710077" lon="11.5758856"><ele>1456.0</ele><time>2026-04-26T10:00:35.191Z</time></trkpt><trkpt lat="45.9710589" lon="11.5760265"><ele>1456.0</ele><time>2026-04-26T10:00:36.191Z</time></trkpt><trkpt lat="45.9710979" lon="11.5761665"><ele>1456.0</ele><time>2026-04-26T10:00:37.191Z</time></trkpt><trkpt lat="45.9711256" lon="11.5763114"><ele>1456.0</ele><time>2026-04-26T10:00:38.192Z</time></trkpt><trkpt lat="45.9711511" lon="11.5764676"><ele>1456.0</ele><time>2026-04-26T10:00:39.191Z</time></trkpt><trkpt lat="45.9711837" lon="11.5766305"><ele>1456.0</ele><time>2026-04-26T10:00:40.192Z</time></trkpt><trkpt lat="45.9712227" lon="11.5767963"><ele>1454.25</ele><time>2026-04-26T10:00:41.193Z</time></trkpt><trkpt lat="45.971267" lon="11.5769698"><ele>1452.5</ele><time>2026-04-26T10:00:42.193Z</time></trkpt><trkpt lat="45.9713138" lon="11.577146"><ele>1450.75</ele><time>2026-04-26T10:00:43.192Z</time></trkpt><trkpt lat="45.9713575" lon="11.5773323"><ele>1449.0</ele><time>2026-04-26T10:00:44.192Z</time></trkpt><trkpt lat="45.9714017" lon="11.5775126"><ele>1446.75</ele><time>2026-04-26T10:00:45.194Z</time></trkpt><trkpt lat="45.9714479" lon="11.577688"><ele>1444.5</ele><time>2026-04-26T10:00:46.19Z</time></trkpt><trkpt lat="45.9714946" lon="11.5778672"><ele>1442.25</ele><time>2026-04-26T10:00:47.188Z</time></trkpt><trkpt lat="45.9715383" lon="11.5780421"><ele>1440.0</ele><time>2026-04-26T10:00:48.188Z</time></trkpt><trkpt lat="45.9715808" lon="11.578208"><ele>1439.4</ele><time>2026-04-26T10:00:49.19Z</time></trkpt><trkpt lat="45.9716242" lon="11.5783645"><ele>1438.8</ele><time>2026-04-26T10:00:50.19Z</time></trkpt><trkpt lat="45.9716645" lon="11.5785143"><ele>1438.1999999999998</ele><time>2026-04-26T10:00:51.191Z</time></trkpt><trkpt lat="45.9716916" lon="11.5786585"><ele>1437.6</ele><time>2026-04-26T10:00:52.193Z</time></trkpt><trkpt lat="45.9717033" lon="11.5787826"><ele>1437.0</ele><time>2026-04-26T10:00:53.193Z</time></trkpt><trkpt lat="45.9717088" lon="11.578884"><ele>1437.0</ele><time>2026-04-26T10:00:54.194Z</time></trkpt><trkpt lat="45.97179" lon="11.5791523"><ele>1437.0</ele><time>2026-04-26T10:00:58.19Z</time></trkpt><trkpt lat="45.9718318" lon="11.579234"><ele>1437.0</ele><time>2026-04-26T10:01:00.191Z</time></trkpt><trkpt lat="45.9718197" lon="11.5793402"><ele>1437.0</ele><time>2026-04-26T10:01:02.193Z</time></trkpt><trkpt lat="45.9717316" lon="11.5793317"><ele>1437.0</ele><time>2026-04-26T10:01:05.189Z</time></trkpt><trkpt lat="45.9716875" lon="11.5791976"><ele>1433.6</ele><time>2026-04-26T10:01:07.19Z</time></trkpt><trkpt lat="45.9716519" lon="11.5790992"><ele>1430.1999999999998</ele><time>2026-04-26T10:01:08.191Z</time></trkpt><trkpt lat="45.9715946" lon="11.5790031"><ele>1426.8</ele><time>2026-04-26T10:01:09.189Z</time></trkpt><trkpt lat="45.9715199" lon="11.5789134"><ele>1423.4</ele><time>2026-04-26T10:01:10.19Z</time></trkpt><trkpt lat="45.9714314" lon="11.5788226"><ele>1420.0</ele><time>2026-04-26T10:01:11.189Z</time></trkpt><trkpt lat="45.9713294" lon="11.5787219"><ele>1422.5</ele><time>2026-04-26T10:01:12.187Z</time></trkpt><trkpt lat="45.9712229" lon="11.578614"><ele>1425.0</ele><time>2026-04-26T10:01:13.187Z</time></trkpt><trkpt lat="45.97112" lon="11.5785162"><ele>1427.5</ele><time>2026-04-26T10:01:14.189Z</time></trkpt><trkpt lat="45.9710318" lon="11.5784268"><ele>1430.0</ele><time>2026-04-26T10:01:15.19Z</time></trkpt><trkpt lat="45.9708984" lon="11.5782735"><ele>1427.4</ele><time>2026-04-26T10:01:17.189Z</time></trkpt><trkpt lat="45.9708444" lon="11.5782025"><ele>1424.8</ele><time>2026-04-26T10:01:18.191Z</time></trkpt><trkpt lat="45.9708031" lon="11.5781313"><ele>1422.1999999999998</ele><time>2026-04-26T10:01:19.192Z</time></trkpt><trkpt lat="45.9707225" lon="11.5780021"><ele>1419.6</ele><time>2026-04-26T10:01:21.193Z</time></trkpt><trkpt lat="45.9706455" lon="11.5778962"><ele>1417.0</ele><time>2026-04-26T10:01:23.189Z</time></trkpt><trkpt lat="45.9705821" lon="11.5778135"><ele>1417.0</ele><time>2026-04-26T10:01:25.189Z</time></trkpt><trkpt lat="45.9705177" lon="11.577743"><ele>1417.0</ele><time>2026-04-26T10:01:27.188Z</time></trkpt><trkpt lat="45.9704504" lon="11.577669"><ele>1417.0</ele><time>2026-04-26T10:01:29.189Z</time></trkpt><trkpt lat="45.9703836" lon="11.5775897"><ele>1417.0</ele><time>2026-04-26T10:01:31.188Z</time></trkpt><trkpt lat="45.970271" lon="11.5774725"><ele>1417.0</ele><time>2026-04-26T10:01:33.189Z</time></trkpt><trkpt lat="45.9701976" lon="11.5773872"><ele>1417.0</ele><time>2026-04-26T10:01:34.189Z</time></trkpt><trkpt lat="45.9701393" lon="11.5772961"><ele>1417.0</ele><time>2026-04-26T10:01:35.188Z</time></trkpt><trkpt lat="45.9700958" lon="11.5772194"><ele>1417.0</ele><time>2026-04-26T10:01:36.186Z</time></trkpt><trkpt lat="45.9699016" lon="11.5771555"><ele>1417.0</ele><time>2026-04-26T10:01:39.187Z</time></trkpt><trkpt lat="45.9698072" lon="11.5772049"><ele>1413.5</ele><time>2026-04-26T10:01:40.19Z</time></trkpt><trkpt lat="45.9696951" lon="11.5772834"><ele>1410.0</ele><time>2026-04-26T10:01:41.191Z</time></trkpt><trkpt lat="45.9695847" lon="11.5773614"><ele>1406.5</ele><time>2026-04-26T10:01:42.19Z</time></trkpt><trkpt lat="45.9694845" lon="11.5774387"><ele>1403.0</ele><time>2026-04-26T10:01:43.189Z</time></trkpt><trkpt lat="45.96938" lon="11.5775473"><ele>1403.0</ele><time>2026-04-26T10:01:44.191Z</time></trkpt><trkpt lat="45.969268" lon="11.5776952"><ele>1403.0</ele><time>2026-04-26T10:01:45.191Z</time></trkpt><trkpt lat="45.9691483" lon="11.5778582"><ele>1403.0</ele><time>2026-04-26T10:01:46.193Z</time></trkpt><trkpt lat="45.9690057" lon="11.5780373"><ele>1402.6666666666667</ele><time>2026-04-26T10:01:47.195Z</time></trkpt><trkpt lat="45.9688693" lon="11.578206"><ele>1402.3333333333333</ele><time>2026-04-26T10:01:48.19Z</time></trkpt><trkpt lat="45.9687349" lon="11.5783797"><ele>1402.0</ele><time>2026-04-26T10:01:49.191Z</time></trkpt><trkpt lat="45.968615" lon="11.5785433"><ele>1400.5</ele><time>2026-04-26T10:01:50.191Z</time></trkpt><trkpt lat="45.9685144" lon="11.5786952"><ele>1399.0</ele><time>2026-04-26T10:01:51.19Z</time></trkpt><trkpt lat="45.9684203" lon="11.5788352"><ele>1397.5</ele><time>2026-04-26T10:01:52.191Z</time></trkpt><trkpt lat="45.9683193" lon="11.5789751"><ele>1396.0</ele><time>2026-04-26T10:01:53.193Z</time></trkpt><trkpt lat="45.9682248" lon="11.5790965"><ele>1396.0</ele><time>2026-04-26T10:01:54.191Z</time></trkpt><trkpt lat="45.968137" lon="11.5791966"><ele>1396.0</ele><time>2026-04-26T10:01:55.19Z</time></trkpt><trkpt lat="45.9680456" lon="11.5792882"><ele>1396.0</ele><time>2026-04-26T10:01:56.189Z</time></trkpt><trkpt lat="45.967944" lon="11.5793772"><ele>1396.0</ele><time>2026-04-26T10:01:57.19Z</time></trkpt><trkpt lat="45.9677548" lon="11.5795155"><ele>1394.6</ele><time>2026-04-26T10:01:59.192Z</time></trkpt><trkpt lat="45.9676728" lon="11.5795805"><ele>1393.1999999999998</ele><time>2026-04-26T10:02:00.191Z</time></trkpt><trkpt lat="45.9676044" lon="11.5796603"><ele>1391.8000000000002</ele><time>2026-04-26T10:02:01.191Z</time></trkpt><trkpt lat="45.9675509" lon="11.5797723"><ele>1390.4</ele><time>2026-04-26T10:02:02.194Z</time></trkpt><trkpt lat="45.9675167" lon="11.579923"><ele>1389.0</ele><time>2026-04-26T10:02:03.192Z</time></trkpt><trkpt lat="45.967494" lon="11.5801315"><ele>1390.0</ele><time>2026-04-26T10:02:04.19Z</time></trkpt><trkpt lat="45.9674841" lon="11.5803609"><ele>1391.0</ele><time>2026-04-26T10:02:05.191Z</time></trkpt><trkpt lat="45.9674785" lon="11.580583"><ele>1392.0</ele><time>2026-04-26T10:02:06.19Z</time></trkpt><trkpt lat="45.9674698" lon="11.5807884"><ele>1392.0</ele><time>2026-04-26T10:02:07.192Z</time></trkpt><trkpt lat="45.967455" lon="11.580994"><ele>1392.0</ele><time>2026-04-26T10:02:08.192Z</time></trkpt><trkpt lat="45.9674392" lon="11.5811871"><ele>1392.0</ele><time>2026-04-26T10:02:09.193Z</time></trkpt><trkpt lat="45.9674181" lon="11.581368"><ele>1392.0</ele><time>2026-04-26T10:02:10.194Z</time></trkpt><trkpt lat="45.9673886" lon="11.5815419"><ele>1392.25</ele><time>2026-04-26T10:02:11.194Z</time></trkpt><trkpt lat="45.9673491" lon="11.5817005"><ele>1392.5</ele><time>2026-04-26T10:02:12.189Z</time></trkpt><trkpt lat="45.9672949" lon="11.5818416"><ele>1392.75</ele><time>2026-04-26T10:02:13.188Z</time></trkpt><trkpt lat="45.9672234" lon="11.5819787"><ele>1393.0</ele><time>2026-04-26T10:02:14.189Z</time></trkpt><trkpt lat="45.9671382" lon="11.5821212"><ele>1393.75</ele><time>2026-04-26T10:02:15.189Z</time></trkpt><trkpt lat="45.9670603" lon="11.5822539"><ele>1394.5</ele><time>2026-04-26T10:02:16.191Z</time></trkpt><trkpt lat="45.9670189" lon="11.58233"><ele>1395.25</ele><time>2026-04-26T10:02:16.799Z</time></trkpt><trkpt lat="45.9669227" lon="11.5824713"><ele>1396.0</ele><time>2026-04-26T10:02:18.191Z</time></trkpt><trkpt lat="45.9667826" lon="11.5825655"><ele>1393.6</ele><time>2026-04-26T10:02:20.194Z</time></trkpt><trkpt lat="45.9666868" lon="11.5825719"><ele>1391.1999999999998</ele><time>2026-04-26T10:02:22.19Z</time></trkpt><trkpt lat="45.9665718" lon="11.5825768"><ele>1388.8000000000002</ele><time>2026-04-26T10:02:24.189Z</time></trkpt><trkpt lat="45.9664874" lon="11.582577"><ele>1386.4</ele><time>2026-04-26T10:02:25.187Z</time></trkpt><trkpt lat="45.9663831" lon="11.5825721"><ele>1384.0</ele><time>2026-04-26T10:02:26.188Z</time></trkpt><trkpt lat="45.9662733" lon="11.5825799"><ele>1384.0</ele><time>2026-04-26T10:02:27.185Z</time></trkpt><trkpt lat="45.9661589" lon="11.5826104"><ele>1384.0</ele><time>2026-04-26T10:02:28.187Z</time></trkpt><trkpt lat="45.9660617" lon="11.5826512"><ele>1384.0</ele><time>2026-04-26T10:02:29.19Z</time></trkpt><trkpt lat="45.9659651" lon="11.5826772"><ele>1384.0</ele><time>2026-04-26T10:02:30.189Z</time></trkpt><trkpt lat="45.9658581" lon="11.5827029"><ele>1384.0</ele><time>2026-04-26T10:02:31.191Z</time></trkpt><trkpt lat="45.9657574" lon="11.5827384"><ele>1384.2</ele><time>2026-04-26T10:02:32.19Z</time></trkpt><trkpt lat="45.9656647" lon="11.5827733"><ele>1384.4</ele><time>2026-04-26T10:02:33.189Z</time></trkpt><trkpt lat="45.9655628" lon="11.5828118"><ele>1384.6</ele><time>2026-04-26T10:02:34.191Z</time></trkpt><trkpt lat="45.9654588" lon="11.5828673"><ele>1384.8</ele><time>2026-04-26T10:02:35.192Z</time></trkpt><trkpt lat="45.9653615" lon="11.5829306"><ele>1385.0</ele><time>2026-04-26T10:02:36.19Z</time></trkpt><trkpt lat="45.965274" lon="11.582994"><ele>1384.3333333333335</ele><time>2026-04-26T10:02:37.19Z</time></trkpt><trkpt lat="45.9651937" lon="11.5830603"><ele>1383.6666666666667</ele><time>2026-04-26T10:02:38.192Z</time></trkpt><trkpt lat="45.9651173" lon="11.5831599"><ele>1383.0</ele><time>2026-04-26T10:02:39.191Z</time></trkpt><trkpt lat="45.9649647" lon="11.5834979"><ele>1383.0</ele><time>2026-04-26T10:02:41.19Z</time></trkpt><trkpt lat="45.9648833" lon="11.5836606"><ele>1383.0</ele><time>2026-04-26T10:02:42.191Z</time></trkpt><trkpt lat="45.9647946" lon="11.5838026"><ele>1383.0</ele><time>2026-04-26T10:02:43.191Z</time></trkpt><trkpt lat="45.9647009" lon="11.5839419"><ele>1383.0</ele><time>2026-04-26T10:02:44.192Z</time></trkpt><trkpt lat="45.9646052" lon="11.5840841"><ele>1382.75</ele><time>2026-04-26T10:02:45.192Z</time></trkpt><trkpt lat="45.9645171" lon="11.5842155"><ele>1382.5</ele><time>2026-04-26T10:02:46.192Z</time></trkpt><trkpt lat="45.9644317" lon="11.5843339"><ele>1382.25</ele><time>2026-04-26T10:02:47.193Z</time></trkpt><trkpt lat="45.9643475" lon="11.5844413"><ele>1382.0</ele><time>2026-04-26T10:02:48.19Z</time></trkpt><trkpt lat="45.964262" lon="11.5845509"><ele>1380.8</ele><time>2026-04-26T10:02:49.194Z</time></trkpt><trkpt lat="45.9641764" lon="11.5846616"><ele>1379.6</ele><time>2026-04-26T10:02:50.194Z</time></trkpt><trkpt lat="45.9640927" lon="11.5847553"><ele>1378.3999999999999</ele><time>2026-04-26T10:02:51.193Z</time></trkpt><trkpt lat="45.9640062" lon="11.5848358"><ele>1377.1999999999998</ele><time>2026-04-26T10:02:52.19Z</time></trkpt><trkpt lat="45.9639136" lon="11.5849298"><ele>1376.0</ele><time>2026-04-26T10:02:53.192Z</time></trkpt><trkpt lat="45.9638292" lon="11.5850479"><ele>1376.0</ele><time>2026-04-26T10:02:54.193Z</time></trkpt><trkpt lat="45.9637563" lon="11.5852077"><ele>1376.0</ele><time>2026-04-26T10:02:55.193Z</time></trkpt><trkpt lat="45.9636894" lon="11.5854178"><ele>1376.0</ele><time>2026-04-26T10:02:56.192Z</time></trkpt><trkpt lat="45.9636185" lon="11.5856695"><ele>1376.0</ele><time>2026-04-26T10:02:57.191Z</time></trkpt><trkpt lat="45.9635291" lon="11.5859467"><ele>1376.0</ele><time>2026-04-26T10:02:58.191Z</time></trkpt><trkpt lat="45.963414" lon="11.5862359"><ele>1376.0</ele><time>2026-04-26T10:02:59.194Z</time></trkpt><trkpt lat="45.9633008" lon="11.5865087"><ele>1374.0</ele><time>2026-04-26T10:03:00.193Z</time></trkpt><trkpt lat="45.9630904" lon="11.5870346"><ele>1372.0</ele><time>2026-04-26T10:03:02.193Z</time></trkpt><trkpt lat="45.9629881" lon="11.5872753"><ele>1372.0</ele><time>2026-04-26T10:03:03.192Z</time></trkpt><trkpt lat="45.9628804" lon="11.587535"><ele>1372.0</ele><time>2026-04-26T10:03:04.192Z</time></trkpt><trkpt lat="45.9627722" lon="11.5877881"><ele>1372.0</ele><time>2026-04-26T10:03:05.193Z</time></trkpt><trkpt lat="45.9626702" lon="11.5880208"><ele>1372.6666666666665</ele><time>2026-04-26T10:03:06.193Z</time></trkpt><trkpt lat="45.9625751" lon="11.5882394"><ele>1373.3333333333333</ele><time>2026-04-26T10:03:07.192Z</time></trkpt><trkpt lat="45.9624897" lon="11.5884446"><ele>1374.0</ele><time>2026-04-26T10:03:08.196Z</time></trkpt><trkpt lat="45.9624103" lon="11.5886221"><ele>1375.5</ele><time>2026-04-26T10:03:09.195Z</time></trkpt><trkpt lat="45.9623405" lon="11.5887767"><ele>1377.0</ele><time>2026-04-26T10:03:10.193Z</time></trkpt><trkpt lat="45.962283" lon="11.5889227"><ele>1378.5</ele><time>2026-04-26T10:03:11.193Z</time></trkpt><trkpt lat="45.9622337" lon="11.5890605"><ele>1380.0</ele><time>2026-04-26T10:03:12.194Z</time></trkpt><trkpt lat="45.9621894" lon="11.5891885"><ele>1380.0</ele><time>2026-04-26T10:03:13.192Z</time></trkpt><trkpt lat="45.9621533" lon="11.5893065"><ele>1380.0</ele><time>2026-04-26T10:03:14.192Z</time></trkpt><trkpt lat="45.9621229" lon="11.5894153"><ele>1380.0</ele><time>2026-04-26T10:03:15.192Z</time></trkpt><trkpt lat="45.9620993" lon="11.5895124"><ele>1380.0</ele><time>2026-04-26T10:03:16.193Z</time></trkpt><trkpt lat="45.9620705" lon="11.5896832"><ele>1380.0</ele><time>2026-04-26T10:03:18.194Z</time></trkpt><trkpt lat="45.9620541" lon="11.5897743"><ele>1380.0</ele><time>2026-04-26T10:03:19.192Z</time></trkpt><trkpt lat="45.9620356" lon="11.5898624"><ele>1380.2</ele><time>2026-04-26T10:03:20.197Z</time></trkpt><trkpt lat="45.9620009" lon="11.5900361"><ele>1380.4</ele><time>2026-04-26T10:03:22.194Z</time></trkpt><trkpt lat="45.9619861" lon="11.5902213"><ele>1380.6</ele><time>2026-04-26T10:03:24.192Z</time></trkpt><trkpt lat="45.9619686" lon="11.5903226"><ele>1380.8</ele><time>2026-04-26T10:03:25.193Z</time></trkpt><trkpt lat="45.9619426" lon="11.5904496"><ele>1381.0</ele><time>2026-04-26T10:03:26.193Z</time></trkpt><trkpt lat="45.9619107" lon="11.5906031"><ele>1380.5</ele><time>2026-04-26T10:03:27.194Z</time></trkpt><trkpt lat="45.9618804" lon="11.5907752"><ele>1380.0</ele><time>2026-04-26T10:03:28.193Z</time></trkpt><trkpt lat="45.9618512" lon="11.5909571"><ele>1379.5</ele><time>2026-04-26T10:03:29.194Z</time></trkpt><trkpt lat="45.9618126" lon="11.5911534"><ele>1379.0</ele><time>2026-04-26T10:03:30.193Z</time></trkpt><trkpt lat="45.9617737" lon="11.5913401"><ele>1379.0</ele><time>2026-04-26T10:03:31.193Z</time></trkpt><trkpt lat="45.961738" lon="11.5915219"><ele>1379.0</ele><time>2026-04-26T10:03:32.194Z</time></trkpt><trkpt lat="45.9617089" lon="11.5917109"><ele>1379.0</ele><time>2026-04-26T10:03:33.195Z</time></trkpt><trkpt lat="45.9616921" lon="11.5919023"><ele>1379.0</ele><time>2026-04-26T10:03:34.195Z</time></trkpt><trkpt lat="45.9616924" lon="11.592101"><ele>1379.25</ele><time>2026-04-26T10:03:35.195Z</time></trkpt><trkpt lat="45.9617138" lon="11.5923097"><ele>1379.5</ele><time>2026-04-26T10:03:36.195Z</time></trkpt><trkpt lat="45.9617618" lon="11.5925136"><ele>1379.75</ele><time>2026-04-26T10:03:37.194Z</time></trkpt><trkpt lat="45.9618363" lon="11.5927059"><ele>1380.0</ele><time>2026-04-26T10:03:38.191Z</time></trkpt><trkpt lat="45.961933" lon="11.5929028"><ele>1380.0</ele><time>2026-04-26T10:03:39.192Z</time></trkpt><trkpt lat="45.9620243" lon="11.5930788"><ele>1380.0</ele><time>2026-04-26T10:03:40.19Z</time></trkpt><trkpt lat="45.9621045" lon="11.5932359"><ele>1380.0</ele><time>2026-04-26T10:03:41.191Z</time></trkpt><trkpt lat="45.9621756" lon="11.5933881"><ele>1380.0</ele><time>2026-04-26T10:03:42.193Z</time></trkpt><trkpt lat="45.9622405" lon="11.593556"><ele>1379.0</ele><time>2026-04-26T10:03:43.194Z</time></trkpt><trkpt lat="45.9623606" lon="11.5939685"><ele>1378.0</ele><time>2026-04-26T10:03:45.194Z</time></trkpt><trkpt lat="45.9624123" lon="11.5942094"><ele>1378.0</ele><time>2026-04-26T10:03:46.194Z</time></trkpt><trkpt lat="45.9624638" lon="11.5944344"><ele>1378.0</ele><time>2026-04-26T10:03:47.195Z</time></trkpt><trkpt lat="45.962518" lon="11.5946474"><ele>1378.0</ele><time>2026-04-26T10:03:48.193Z</time></trkpt><trkpt lat="45.9625619" lon="11.5948413"><ele>1377.75</ele><time>2026-04-26T10:03:49.195Z</time></trkpt><trkpt lat="45.9625946" lon="11.5950139"><ele>1377.5</ele><time>2026-04-26T10:03:50.195Z</time></trkpt><trkpt lat="45.9626139" lon="11.5951735"><ele>1377.25</ele><time>2026-04-26T10:03:51.193Z</time></trkpt><trkpt lat="45.9626172" lon="11.5952715"><ele>1377.0</ele><time>2026-04-26T10:03:51.802Z</time></trkpt><trkpt lat="45.962595" lon="11.5955001"><ele>1377.0</ele><time>2026-04-26T10:03:53.194Z</time></trkpt><trkpt lat="45.9625652" lon="11.5956471"><ele>1377.0</ele><time>2026-04-26T10:03:54.192Z</time></trkpt><trkpt lat="45.9625344" lon="11.5957811"><ele>1377.0</ele><time>2026-04-26T10:03:55.195Z</time></trkpt><trkpt lat="45.9625069" lon="11.5959018"><ele>1377.0</ele><time>2026-04-26T10:03:56.196Z</time></trkpt><trkpt lat="45.96248" lon="11.596013"><ele>1377.0</ele><time>2026-04-26T10:03:57.193Z</time></trkpt><trkpt lat="45.962444" lon="11.5961048"><ele>1377.0</ele><time>2026-04-26T10:03:58.192Z</time></trkpt><trkpt lat="45.962395" lon="11.5961807"><ele>1375.8333333333333</ele><time>2026-04-26T10:03:59.193Z</time></trkpt><trkpt lat="45.9623331" lon="11.5962506"><ele>1374.6666666666667</ele><time>2026-04-26T10:04:00.193Z</time></trkpt><trkpt lat="45.9622604" lon="11.5963103"><ele>1373.5</ele><time>2026-04-26T10:04:01.196Z</time></trkpt><trkpt lat="45.9621834" lon="11.5963514"><ele>1372.3333333333335</ele><time>2026-04-26T10:04:02.194Z</time></trkpt><trkpt lat="45.9621047" lon="11.5963743"><ele>1371.1666666666667</ele><time>2026-04-26T10:04:03.191Z</time></trkpt><trkpt lat="45.9620296" lon="11.5963902"><ele>1370.0</ele><time>2026-04-26T10:04:04.191Z</time></trkpt><trkpt lat="45.9618595" lon="11.5964164"><ele>1370.0</ele><time>2026-04-26T10:04:06.193Z</time></trkpt><trkpt lat="45.9617683" lon="11.596413"><ele>1370.0</ele><time>2026-04-26T10:04:07.196Z</time></trkpt><trkpt lat="45.9616635" lon="11.5964025"><ele>1370.0</ele><time>2026-04-26T10:04:08.193Z</time></trkpt><trkpt lat="45.9615475" lon="11.596385"><ele>1370.0</ele><time>2026-04-26T10:04:09.195Z</time></trkpt><trkpt lat="45.961427" lon="11.5963718"><ele>1370.0</ele><time>2026-04-26T10:04:10.194Z</time></trkpt><trkpt lat="45.9613043" lon="11.5963701"><ele>1369.0</ele><time>2026-04-26T10:04:11.195Z</time></trkpt><trkpt lat="45.9611667" lon="11.5963669"><ele>1368.0</ele><time>2026-04-26T10:04:12.193Z</time></trkpt><trkpt lat="45.9610017" lon="11.5963647"><ele>1367.0</ele><time>2026-04-26T10:04:13.195Z</time></trkpt><trkpt lat="45.9608223" lon="11.5963706"><ele>1365.3333333333335</ele><time>2026-04-26T10:04:14.195Z</time></trkpt><trkpt lat="45.9606525" lon="11.5963801"><ele>1363.6666666666667</ele><time>2026-04-26T10:04:15.193Z</time></trkpt><trkpt lat="45.9604919" lon="11.5963945"><ele>1362.0</ele><time>2026-04-26T10:04:16.192Z</time></trkpt><trkpt lat="45.9603401" lon="11.5964163"><ele>1362.0</ele><time>2026-04-26T10:04:17.195Z</time></trkpt><trkpt lat="45.9601978" lon="11.5964515"><ele>1362.0</ele><time>2026-04-26T10:04:18.195Z</time></trkpt><trkpt lat="45.9600652" lon="11.5965022"><ele>1362.0</ele><time>2026-04-26T10:04:19.195Z</time></trkpt><trkpt lat="45.9599406" lon="11.5965642"><ele>1362.0</ele><time>2026-04-26T10:04:20.195Z</time></trkpt><trkpt lat="45.9598198" lon="11.5966348"><ele>1362.0</ele><time>2026-04-26T10:04:21.194Z</time></trkpt><trkpt lat="45.9597002" lon="11.5967199"><ele>1362.0</ele><time>2026-04-26T10:04:22.194Z</time></trkpt><trkpt lat="45.9595825" lon="11.5968227"><ele>1362.0</ele><time>2026-04-26T10:04:23.195Z</time></trkpt><trkpt lat="45.9594637" lon="11.5969384"><ele>1362.0</ele><time>2026-04-26T10:04:24.193Z</time></trkpt><trkpt lat="45.9593394" lon="11.5970601"><ele>1359.5</ele><time>2026-04-26T10:04:25.192Z</time></trkpt><trkpt lat="45.9590821" lon="11.5973257"><ele>1357.0</ele><time>2026-04-26T10:04:27.192Z</time></trkpt><trkpt lat="45.9589583" lon="11.5974642"><ele>1357.0</ele><time>2026-04-26T10:04:28.191Z</time></trkpt><trkpt lat="45.9588489" lon="11.5976036"><ele>1357.0</ele><time>2026-04-26T10:04:29.193Z</time></trkpt><trkpt lat="45.9587491" lon="11.5977437"><ele>1357.0</ele><time>2026-04-26T10:04:30.189Z</time></trkpt><trkpt lat="45.9586359" lon="11.5978809"><ele>1357.0</ele><time>2026-04-26T10:04:31.189Z</time></trkpt><trkpt lat="45.9585099" lon="11.597987"><ele>1357.6666666666665</ele><time>2026-04-26T10:04:32.192Z</time></trkpt><trkpt lat="45.9583804" lon="11.5980911"><ele>1358.3333333333333</ele><time>2026-04-26T10:04:33.192Z</time></trkpt><trkpt lat="45.9582516" lon="11.5982277"><ele>1359.0</ele><time>2026-04-26T10:04:34.191Z</time></trkpt><trkpt lat="45.9581355" lon="11.5983899"><ele>1359.25</ele><time>2026-04-26T10:04:35.192Z</time></trkpt><trkpt lat="45.9580371" lon="11.5985596"><ele>1359.5</ele><time>2026-04-26T10:04:36.192Z</time></trkpt><trkpt lat="45.9579499" lon="11.5987333"><ele>1359.75</ele><time>2026-04-26T10:04:37.192Z</time></trkpt><trkpt lat="45.9578801" lon="11.5988783"><ele>1360.0</ele><time>2026-04-26T10:04:37.994Z</time></trkpt><trkpt lat="45.9577756" lon="11.5990918"><ele>1358.0</ele><time>2026-04-26T10:04:39.192Z</time></trkpt><trkpt lat="45.9576892" lon="11.599256"><ele>1356.0</ele><time>2026-04-26T10:04:40.193Z</time></trkpt><trkpt lat="45.9576187" lon="11.5994108"><ele>1354.0</ele><time>2026-04-26T10:04:41.19Z</time></trkpt><trkpt lat="45.9575689" lon="11.5995503"><ele>1352.0</ele><time>2026-04-26T10:04:42.191Z</time></trkpt><trkpt lat="45.957512" lon="11.5996712"><ele>1352.0</ele><time>2026-04-26T10:04:43.192Z</time></trkpt><trkpt lat="45.9574323" lon="11.5997742"><ele>1352.0</ele><time>2026-04-26T10:04:44.192Z</time></trkpt><trkpt lat="45.9573344" lon="11.5998661"><ele>1352.0</ele><time>2026-04-26T10:04:45.193Z</time></trkpt><trkpt lat="45.9572267" lon="11.5999524"><ele>1352.0</ele><time>2026-04-26T10:04:46.191Z</time></trkpt><trkpt lat="45.9569957" lon="11.6000809"><ele>1352.0</ele><time>2026-04-26T10:04:48.193Z</time></trkpt><trkpt lat="45.9568762" lon="11.600108"><ele>1352.0</ele><time>2026-04-26T10:04:49.192Z</time></trkpt><trkpt lat="45.9567478" lon="11.6001051"><ele>1352.0</ele><time>2026-04-26T10:04:50.194Z</time></trkpt><trkpt lat="45.9566087" lon="11.6000855"><ele>1352.0</ele><time>2026-04-26T10:04:51.193Z</time></trkpt><trkpt lat="45.9564601" lon="11.6000805"><ele>1353.0</ele><time>2026-04-26T10:04:52.189Z</time></trkpt><trkpt lat="45.9563052" lon="11.6000918"><ele>1354.0</ele><time>2026-04-26T10:04:53.19Z</time></trkpt><trkpt lat="45.9561585" lon="11.6001027"><ele>1355.0</ele><time>2026-04-26T10:04:54.19Z</time></trkpt><trkpt lat="45.9560239" lon="11.600116"><ele>1356.0</ele><time>2026-04-26T10:04:55.194Z</time></trkpt><trkpt lat="45.9559004" lon="11.600145"><ele>1355.5</ele><time>2026-04-26T10:04:56.197Z</time></trkpt><trkpt lat="45.9557863" lon="11.6002044"><ele>1355.0</ele><time>2026-04-26T10:04:57.196Z</time></trkpt><trkpt lat="45.9556688" lon="11.6002987"><ele>1354.5</ele><time>2026-04-26T10:04:58.192Z</time></trkpt><trkpt lat="45.9555419" lon="11.6004154"><ele>1354.0</ele><time>2026-04-26T10:04:59.192Z</time></trkpt><trkpt lat="45.9554345" lon="11.6005197"><ele>1351.3333333333333</ele><time>2026-04-26T10:04:59.993Z</time></trkpt><trkpt lat="45.9552718" lon="11.6006826"><ele>1348.6666666666667</ele><time>2026-04-26T10:05:01.192Z</time></trkpt><trkpt lat="45.9551349" lon="11.600821"><ele>1346.0</ele><time>2026-04-26T10:05:02.193Z</time></trkpt><trkpt lat="45.9549908" lon="11.6009612"><ele>1345.0</ele><time>2026-04-26T10:05:03.193Z</time></trkpt><trkpt lat="45.954836" lon="11.6011073"><ele>1344.0</ele><time>2026-04-26T10:05:04.195Z</time></trkpt><trkpt lat="45.9546828" lon="11.6012529"><ele>1343.0</ele><time>2026-04-26T10:05:05.196Z</time></trkpt><trkpt lat="45.9545363" lon="11.6013975"><ele>1340.0</ele><time>2026-04-26T10:05:06.193Z</time></trkpt><trkpt lat="45.9543888" lon="11.6015435"><ele>1337.0</ele><time>2026-04-26T10:05:07.195Z</time></trkpt><trkpt lat="45.9541071" lon="11.6018295"><ele>1337.0</ele><time>2026-04-26T10:05:09.194Z</time></trkpt><trkpt lat="45.9539715" lon="11.6019556"><ele>1337.0</ele><time>2026-04-26T10:05:10.193Z</time></trkpt><trkpt lat="45.9538403" lon="11.6020804"><ele>1337.0</ele><time>2026-04-26T10:05:11.195Z</time></trkpt><trkpt lat="45.9537143" lon="11.6022065"><ele>1336.5</ele><time>2026-04-26T10:05:12.195Z</time></trkpt><trkpt lat="45.9535991" lon="11.6023351"><ele>1336.0</ele><time>2026-04-26T10:05:13.192Z</time></trkpt><trkpt lat="45.9534929" lon="11.6024584"><ele>1335.5</ele><time>2026-04-26T10:05:14.194Z</time></trkpt><trkpt lat="45.9533928" lon="11.60257"><ele>1335.0</ele><time>2026-04-26T10:05:15.193Z</time></trkpt><trkpt lat="45.9532962" lon="11.6026699"><ele>1335.0</ele><time>2026-04-26T10:05:16.192Z</time></trkpt><trkpt lat="45.9532021" lon="11.6027654"><ele>1335.0</ele><time>2026-04-26T10:05:17.195Z</time></trkpt><trkpt lat="45.9531029" lon="11.6028622"><ele>1335.0</ele><time>2026-04-26T10:05:18.195Z</time></trkpt><trkpt lat="45.9529933" lon="11.6029626"><ele>1335.0</ele><time>2026-04-26T10:05:19.193Z</time></trkpt><trkpt lat="45.9528691" lon="11.60306"><ele>1334.3333333333333</ele><time>2026-04-26T10:05:20.194Z</time></trkpt><trkpt lat="45.9527265" lon="11.6031585"><ele>1333.6666666666665</ele><time>2026-04-26T10:05:21.194Z</time></trkpt><trkpt lat="45.9526333" lon="11.6032211"><ele>1333.0</ele><time>2026-04-26T10:05:21.8Z</time></trkpt><trkpt lat="45.9524065" lon="11.6033797"><ele>1333.0</ele><time>2026-04-26T10:05:23.194Z</time></trkpt><trkpt lat="45.9522444" lon="11.603503"><ele>1333.0</ele><time>2026-04-26T10:05:24.195Z</time></trkpt><trkpt lat="45.9520946" lon="11.6036261"><ele>1333.0</ele><time>2026-04-26T10:05:25.194Z</time></trkpt><trkpt lat="45.9519531" lon="11.6037464"><ele>1331.6666666666665</ele><time>2026-04-26T10:05:26.193Z</time></trkpt><trkpt lat="45.9518085" lon="11.6038633"><ele>1330.3333333333333</ele><time>2026-04-26T10:05:27.193Z</time></trkpt><trkpt lat="45.9516674" lon="11.6039753"><ele>1329.0</ele><time>2026-04-26T10:05:28.195Z</time></trkpt><trkpt lat="45.9514085" lon="11.6042309"><ele>1329.0</ele><time>2026-04-26T10:05:30.198Z</time></trkpt><trkpt lat="45.9512932" lon="11.6043762"><ele>1329.0</ele><time>2026-04-26T10:05:31.198Z</time></trkpt><trkpt lat="45.9511887" lon="11.6045151"><ele>1329.0</ele><time>2026-04-26T10:05:32.197Z</time></trkpt><trkpt lat="45.9510838" lon="11.6046338"><ele>1329.0</ele><time>2026-04-26T10:05:33.192Z</time></trkpt><trkpt lat="45.9509656" lon="11.6047227"><ele>1328.5</ele><time>2026-04-26T10:05:34.192Z</time></trkpt><trkpt lat="45.950832" lon="11.6047757"><ele>1328.0</ele><time>2026-04-26T10:05:35.192Z</time></trkpt><trkpt lat="45.9506998" lon="11.6048267"><ele>1327.5</ele><time>2026-04-26T10:05:36.192Z</time></trkpt><trkpt lat="45.9505675" lon="11.6049159"><ele>1327.0</ele><time>2026-04-26T10:05:37.194Z</time></trkpt><trkpt lat="45.9504366" lon="11.6050548"><ele>1327.0</ele><time>2026-04-26T10:05:38.195Z</time></trkpt><trkpt lat="45.9503122" lon="11.6052192"><ele>1327.0</ele><time>2026-04-26T10:05:39.193Z</time></trkpt><trkpt lat="45.9501938" lon="11.6053826"><ele>1327.0</ele><time>2026-04-26T10:05:40.192Z</time></trkpt><trkpt lat="45.9500804" lon="11.6055406"><ele>1326.0</ele><time>2026-04-26T10:05:41.19Z</time></trkpt><trkpt lat="45.9499719" lon="11.6056997"><ele>1325.0</ele><time>2026-04-26T10:05:42.19Z</time></trkpt><trkpt lat="45.9498795" lon="11.6058526"><ele>1324.0</ele><time>2026-04-26T10:05:43.192Z</time></trkpt><trkpt lat="45.9498306" lon="11.6059417"><ele>1323.0</ele><time>2026-04-26T10:05:43.801Z</time></trkpt><trkpt lat="45.9497262" lon="11.6061495"><ele>1322.25</ele><time>2026-04-26T10:05:45.195Z</time></trkpt><trkpt lat="45.9496606" lon="11.6062988"><ele>1321.5</ele><time>2026-04-26T10:05:46.198Z</time></trkpt><trkpt lat="45.9495981" lon="11.6064485"><ele>1320.75</ele><time>2026-04-26T10:05:47.198Z</time></trkpt><trkpt lat="45.9495298" lon="11.6066026"><ele>1320.0</ele><time>2026-04-26T10:05:48.196Z</time></trkpt><trkpt lat="45.9494588" lon="11.6067615"><ele>1320.0</ele><time>2026-04-26T10:05:49.192Z</time></trkpt><trkpt lat="45.9493035" lon="11.6071085"><ele>1320.0</ele><time>2026-04-26T10:05:51.193Z</time></trkpt><trkpt lat="45.9492146" lon="11.6073014"><ele>1320.0</ele><time>2026-04-26T10:05:52.193Z</time></trkpt><trkpt lat="45.9491232" lon="11.6075012"><ele>1320.0</ele><time>2026-04-26T10:05:53.194Z</time></trkpt><trkpt lat="45.9490358" lon="11.6076953"><ele>1320.0</ele><time>2026-04-26T10:05:54.194Z</time></trkpt><trkpt lat="45.9489483" lon="11.6078901"><ele>1320.0</ele><time>2026-04-26T10:05:55.198Z</time></trkpt><trkpt lat="45.9488634" lon="11.6080745"><ele>1319.5</ele><time>2026-04-26T10:05:56.199Z</time></trkpt><trkpt lat="45.9487822" lon="11.6082483"><ele>1319.0</ele><time>2026-04-26T10:05:57.198Z</time></trkpt><trkpt lat="45.9487044" lon="11.6084095"><ele>1318.5</ele><time>2026-04-26T10:05:58.194Z</time></trkpt><trkpt lat="45.9486292" lon="11.6085558"><ele>1318.0</ele><time>2026-04-26T10:05:59.194Z</time></trkpt><trkpt lat="45.9485462" lon="11.608682"><ele>1318.0</ele><time>2026-04-26T10:06:00.194Z</time></trkpt><trkpt lat="45.9484451" lon="11.608783"><ele>1318.0</ele><time>2026-04-26T10:06:01.192Z</time></trkpt><trkpt lat="45.9483292" lon="11.6088484"><ele>1318.0</ele><time>2026-04-26T10:06:02.193Z</time></trkpt><trkpt lat="45.9482137" lon="11.6088928"><ele>1318.0</ele><time>2026-04-26T10:06:03.192Z</time></trkpt><trkpt lat="45.9480993" lon="11.6089323"><ele>1318.0</ele><time>2026-04-26T10:06:04.191Z</time></trkpt><trkpt lat="45.9479772" lon="11.6089707"><ele>1318.0</ele><time>2026-04-26T10:06:05.192Z</time></trkpt><trkpt lat="45.9478522" lon="11.6089796"><ele>1318.0</ele><time>2026-04-26T10:06:06.189Z</time></trkpt><trkpt lat="45.9477364" lon="11.6089481"><ele>1318.0</ele><time>2026-04-26T10:06:07.189Z</time></trkpt><trkpt lat="45.9476313" lon="11.6089012"><ele>1317.4</ele><time>2026-04-26T10:06:08.192Z</time></trkpt><trkpt lat="45.9475335" lon="11.6088583"><ele>1316.8000000000002</ele><time>2026-04-26T10:06:09.193Z</time></trkpt><trkpt lat="45.9474426" lon="11.6088197"><ele>1316.2</ele><time>2026-04-26T10:06:10.192Z</time></trkpt><trkpt lat="45.9472815" lon="11.6087534"><ele>1315.6</ele><time>2026-04-26T10:06:12.193Z</time></trkpt><trkpt lat="45.9472025" lon="11.6087419"><ele>1315.0</ele><time>2026-04-26T10:06:13.193Z</time></trkpt><trkpt lat="45.9471087" lon="11.6087475"><ele>1315.0</ele><time>2026-04-26T10:06:14.194Z</time></trkpt><trkpt lat="45.9470164" lon="11.6087232"><ele>1315.0</ele><time>2026-04-26T10:06:15.194Z</time></trkpt><trkpt lat="45.9469196" lon="11.608652"><ele>1315.0</ele><time>2026-04-26T10:06:16.192Z</time></trkpt><trkpt lat="45.9468197" lon="11.6085659"><ele>1315.0</ele><time>2026-04-26T10:06:17.194Z</time></trkpt><trkpt lat="45.946721" lon="11.60851"><ele>1315.0</ele><time>2026-04-26T10:06:18.194Z</time></trkpt><trkpt lat="45.94662" lon="11.6084836"><ele>1315.5</ele><time>2026-04-26T10:06:19.197Z</time></trkpt><trkpt lat="45.9465144" lon="11.6084849"><ele>1316.0</ele><time>2026-04-26T10:06:20.197Z</time></trkpt><trkpt lat="45.9464054" lon="11.6085225"><ele>1316.5</ele><time>2026-04-26T10:06:21.199Z</time></trkpt><trkpt lat="45.9462919" lon="11.6086004"><ele>1317.0</ele><time>2026-04-26T10:06:22.196Z</time></trkpt><trkpt lat="45.9461768" lon="11.6087083"><ele>1316.0</ele><time>2026-04-26T10:06:23.194Z</time></trkpt><trkpt lat="45.9460619" lon="11.608826"><ele>1315.0</ele><time>2026-04-26T10:06:24.194Z</time></trkpt><trkpt lat="45.9459548" lon="11.6089325"><ele>1314.0</ele><time>2026-04-26T10:06:25.194Z</time></trkpt><trkpt lat="45.9458589" lon="11.6090341"><ele>1313.0</ele><time>2026-04-26T10:06:26.196Z</time></trkpt><trkpt lat="45.9457737" lon="11.6091534"><ele>1314.25</ele><time>2026-04-26T10:06:27.196Z</time></trkpt><trkpt lat="45.9456971" lon="11.6093092"><ele>1315.5</ele><time>2026-04-26T10:06:28.194Z</time></trkpt><trkpt lat="45.9456224" lon="11.6094943"><ele>1316.75</ele><time>2026-04-26T10:06:29.193Z</time></trkpt><trkpt lat="45.9455461" lon="11.609681"><ele>1318.0</ele><time>2026-04-26T10:06:30.191Z</time></trkpt><trkpt lat="45.9454691" lon="11.6098546"><ele>1318.0</ele><time>2026-04-26T10:06:31.192Z</time></trkpt><trkpt lat="45.9452735" lon="11.6101996"><ele>1318.0</ele><time>2026-04-26T10:06:33.198Z</time></trkpt><trkpt lat="45.9451598" lon="11.6103929"><ele>1317.0</ele><time>2026-04-26T10:06:34.197Z</time></trkpt><trkpt lat="45.9450525" lon="11.6105726"><ele>1316.0</ele><time>2026-04-26T10:06:35.195Z</time></trkpt><trkpt lat="45.9449684" lon="11.6107155"><ele>1315.0</ele><time>2026-04-26T10:06:36.193Z</time></trkpt><trkpt lat="45.9449015" lon="11.6108276"><ele>1314.0</ele><time>2026-04-26T10:06:37.193Z</time></trkpt><trkpt lat="45.9448462" lon="11.6109161"><ele>1314.8000000000002</ele><time>2026-04-26T10:06:38.193Z</time></trkpt><trkpt lat="45.9447981" lon="11.6109867"><ele>1315.6000000000001</ele><time>2026-04-26T10:06:39.194Z</time></trkpt><trkpt lat="45.9447217" lon="11.6110773"><ele>1316.4</ele><time>2026-04-26T10:06:41.193Z</time></trkpt><trkpt lat="45.9446718" lon="11.6111825"><ele>1317.2</ele><time>2026-04-26T10:07:40.192Z</time></trkpt><trkpt lat="45.9446085" lon="11.6113944"><ele>1318.0</ele><time>2026-04-26T10:07:42.193Z</time></trkpt><trkpt lat="45.9445471" lon="11.6115137"><ele>1318.0</ele><time>2026-04-26T10:07:43.19Z</time></trkpt><trkpt lat="45.9444745" lon="11.6116201"><ele>1318.0</ele><time>2026-04-26T10:07:44.191Z</time></trkpt><trkpt lat="45.944386" lon="11.6117323"><ele>1318.0</ele><time>2026-04-26T10:07:45.192Z</time></trkpt><trkpt lat="45.9442919" lon="11.6118457"><ele>1318.0</ele><time>2026-04-26T10:07:46.191Z</time></trkpt><trkpt lat="45.9442097" lon="11.6119638"><ele>1318.0</ele><time>2026-04-26T10:07:47.193Z</time></trkpt><trkpt lat="45.9441428" lon="11.612093"><ele>1318.0</ele><time>2026-04-26T10:07:48.193Z</time></trkpt><trkpt lat="45.9440896" lon="11.6122292"><ele>1318.0</ele><time>2026-04-26T10:07:49.194Z</time></trkpt><trkpt lat="45.9440412" lon="11.6123637"><ele>1318.0</ele><time>2026-04-26T10:07:50.194Z</time></trkpt><trkpt lat="45.9439804" lon="11.612479"><ele>1318.0</ele><time>2026-04-26T10:07:51.193Z</time></trkpt><trkpt lat="45.9439029" lon="11.6125615"><ele>1318.0</ele><time>2026-04-26T10:07:52.193Z</time></trkpt><trkpt lat="45.9438085" lon="11.6126104"><ele>1318.0</ele><time>2026-04-26T10:07:53.195Z</time></trkpt><trkpt lat="45.9436955" lon="11.6126243"><ele>1318.0</ele><time>2026-04-26T10:07:54.193Z</time></trkpt><trkpt lat="45.9435652" lon="11.6126042"><ele>1318.0</ele><time>2026-04-26T10:07:55.192Z</time></trkpt><trkpt lat="45.9434397" lon="11.6125801"><ele>1317.6666666666665</ele><time>2026-04-26T10:07:56.194Z</time></trkpt><trkpt lat="45.9433314" lon="11.6125761"><ele>1317.3333333333333</ele><time>2026-04-26T10:07:57.194Z</time></trkpt><trkpt lat="45.9432449" lon="11.6125736"><ele>1317.0</ele><time>2026-04-26T10:07:58.192Z</time></trkpt><trkpt lat="45.9431728" lon="11.6125588"><ele>1316.6666666666667</ele><time>2026-04-26T10:07:59.194Z</time></trkpt><trkpt lat="45.9431097" lon="11.6125209"><ele>1316.3333333333335</ele><time>2026-04-26T10:08:00.193Z</time></trkpt><trkpt lat="45.9430615" lon="11.6124583"><ele>1316.0</ele><time>2026-04-26T10:08:01.193Z</time></trkpt><trkpt lat="45.943021" lon="11.612282"><ele>1316.0</ele><time>2026-04-26T10:08:03.193Z</time></trkpt><trkpt lat="45.9430169" lon="11.6121816"><ele>1316.0</ele><time>2026-04-26T10:08:04.193Z</time></trkpt><trkpt lat="45.9430039" lon="11.6120769"><ele>1316.0</ele><time>2026-04-26T10:08:05.193Z</time></trkpt><trkpt lat="45.9429758" lon="11.6119712"><ele>1316.0</ele><time>2026-04-26T10:08:06.193Z</time></trkpt><trkpt lat="45.9429326" lon="11.6118682"><ele>1316.0</ele><time>2026-04-26T10:08:07.192Z</time></trkpt><trkpt lat="45.9428736" lon="11.611772"><ele>1316.0</ele><time>2026-04-26T10:08:08.192Z</time></trkpt><trkpt lat="45.9427991" lon="11.611688"><ele>1315.8</ele><time>2026-04-26T10:08:09.19Z</time></trkpt><trkpt lat="45.942715" lon="11.6116126"><ele>1315.6</ele><time>2026-04-26T10:08:10.192Z</time></trkpt><trkpt lat="45.9426273" lon="11.6115518"><ele>1315.4</ele><time>2026-04-26T10:08:11.194Z</time></trkpt><trkpt lat="45.9425376" lon="11.6115125"><ele>1315.2</ele><time>2026-04-26T10:08:12.194Z</time></trkpt><trkpt lat="45.942447" lon="11.6114923"><ele>1315.0</ele><time>2026-04-26T10:08:13.192Z</time></trkpt><trkpt lat="45.9423605" lon="11.6114842"><ele>1315.0</ele><time>2026-04-26T10:08:14.192Z</time></trkpt><trkpt lat="45.9422818" lon="11.611473"><ele>1315.0</ele><time>2026-04-26T10:08:15.193Z</time></trkpt><trkpt lat="45.9422133" lon="11.6114324"><ele>1315.0</ele><time>2026-04-26T10:08:16.192Z</time></trkpt><trkpt lat="45.9421596" lon="11.6113438"><ele>1315.0</ele><time>2026-04-26T10:08:17.194Z</time></trkpt><trkpt lat="45.9421107" lon="11.6112131"><ele>1315.0</ele><time>2026-04-26T10:08:18.193Z</time></trkpt><trkpt lat="45.9420538" lon="11.6110494"><ele>1315.5</ele><time>2026-04-26T10:08:19.193Z</time></trkpt><trkpt lat="45.9419987" lon="11.6108928"><ele>1316.0</ele><time>2026-04-26T10:08:20.192Z</time></trkpt><trkpt lat="45.9419324" lon="11.6107684"><ele>1316.5</ele><time>2026-04-26T10:08:21.193Z</time></trkpt><trkpt lat="45.9418468" lon="11.6106854"><ele>1317.0</ele><time>2026-04-26T10:08:22.192Z</time></trkpt><trkpt lat="45.9416815" lon="11.6105745"><ele>1317.0</ele><time>2026-04-26T10:08:24.192Z</time></trkpt><trkpt lat="45.9416101" lon="11.6104837"><ele>1317.0</ele><time>2026-04-26T10:08:25.192Z</time></trkpt><trkpt lat="45.9415299" lon="11.610363"><ele>1317.0</ele><time>2026-04-26T10:08:26.194Z</time></trkpt><trkpt lat="45.9414519" lon="11.6102379"><ele>1317.0</ele><time>2026-04-26T10:08:27.193Z</time></trkpt><trkpt lat="45.9413842" lon="11.6101273"><ele>1317.0</ele><time>2026-04-26T10:08:28.194Z</time></trkpt><trkpt lat="45.9413229" lon="11.6100383"><ele>1319.0</ele><time>2026-04-26T10:08:29.192Z</time></trkpt><trkpt lat="45.9412599" lon="11.6099848"><ele>1321.0</ele><time>2026-04-26T10:08:30.193Z</time></trkpt><trkpt lat="45.9411966" lon="11.609975"><ele>1323.0</ele><time>2026-04-26T10:08:31.193Z</time></trkpt><trkpt lat="45.9410847" lon="11.6100475"><ele>1325.0</ele><time>2026-04-26T10:08:33.19Z</time></trkpt><trkpt lat="45.9410265" lon="11.6101036"><ele>1327.0</ele><time>2026-04-26T10:08:34.189Z</time></trkpt><trkpt lat="45.9409611" lon="11.610169"><ele>1329.0</ele><time>2026-04-26T10:08:35.192Z</time></trkpt><trkpt lat="45.9408922" lon="11.6102554"><ele>1325.25</ele><time>2026-04-26T10:08:36.191Z</time></trkpt><trkpt lat="45.9408113" lon="11.61036"><ele>1321.5</ele><time>2026-04-26T10:08:37.193Z</time></trkpt><trkpt lat="45.9407089" lon="11.6104808"><ele>1317.75</ele><time>2026-04-26T10:08:38.195Z</time></trkpt><trkpt lat="45.9405876" lon="11.6106236"><ele>1314.0</ele><time>2026-04-26T10:08:39.192Z</time></trkpt><trkpt lat="45.9404568" lon="11.6107887"><ele>1314.0</ele><time>2026-04-26T10:08:40.193Z</time></trkpt><trkpt lat="45.9403388" lon="11.6109508"><ele>1314.0</ele><time>2026-04-26T10:08:41.193Z</time></trkpt><trkpt lat="45.9402352" lon="11.6111104"><ele>1314.0</ele><time>2026-04-26T10:08:42.194Z</time></trkpt><trkpt lat="45.9401322" lon="11.6112818"><ele>1316.6666666666667</ele><time>2026-04-26T10:08:43.193Z</time></trkpt><trkpt lat="45.9399674" lon="11.6116352"><ele>1319.3333333333335</ele><time>2026-04-26T10:08:45.192Z</time></trkpt><trkpt lat="45.9399165" lon="11.6118165"><ele>1322.0</ele><time>2026-04-26T10:08:46.192Z</time></trkpt><trkpt lat="45.93989" lon="11.6120123"><ele>1324.25</ele><time>2026-04-26T10:08:47.193Z</time></trkpt><trkpt lat="45.9398937" lon="11.6121939"><ele>1326.5</ele><time>2026-04-26T10:08:48.191Z</time></trkpt><trkpt lat="45.9399257" lon="11.6123602"><ele>1328.75</ele><time>2026-04-26T10:08:49.193Z</time></trkpt><trkpt lat="45.9399796" lon="11.612517"><ele>1331.0</ele><time>2026-04-26T10:08:50.191Z</time></trkpt><trkpt lat="45.9400484" lon="11.6126401"><ele>1328.4</ele><time>2026-04-26T10:08:51.192Z</time></trkpt><trkpt lat="45.9401232" lon="11.6127283"><ele>1325.8</ele><time>2026-04-26T10:08:52.192Z</time></trkpt><trkpt lat="45.9401848" lon="11.612822"><ele>1323.2</ele><time>2026-04-26T10:08:53.192Z</time></trkpt><trkpt lat="45.940218" lon="11.6129447"><ele>1320.6000000000001</ele><time>2026-04-26T10:08:54.192Z</time></trkpt><trkpt lat="45.9402231" lon="11.6130948"><ele>1318.0</ele><time>2026-04-26T10:08:55.192Z</time></trkpt><trkpt lat="45.9402218" lon="11.613274"><ele>1318.0</ele><time>2026-04-26T10:08:56.192Z</time></trkpt><trkpt lat="45.9402384" lon="11.6134842"><ele>1318.0</ele><time>2026-04-26T10:08:57.191Z</time></trkpt><trkpt lat="45.9402747" lon="11.6136987"><ele>1318.0</ele><time>2026-04-26T10:08:58.19Z</time></trkpt><trkpt lat="45.9403056" lon="11.6138837"><ele>1318.0</ele><time>2026-04-26T10:08:59.191Z</time></trkpt><trkpt lat="45.9403227" lon="11.6140376"><ele>1318.4</ele><time>2026-04-26T10:09:00.189Z</time></trkpt><trkpt lat="45.9403254" lon="11.6141715"><ele>1318.8000000000002</ele><time>2026-04-26T10:09:01.192Z</time></trkpt><trkpt lat="45.9403105" lon="11.6142873"><ele>1319.2</ele><time>2026-04-26T10:09:02.191Z</time></trkpt><trkpt lat="45.9402926" lon="11.6143887"><ele>1319.6</ele><time>2026-04-26T10:09:03.191Z</time></trkpt><trkpt lat="45.9402758" lon="11.6144832"><ele>1320.0</ele><time>2026-04-26T10:09:04.192Z</time></trkpt><trkpt lat="45.940283" lon="11.6147399"><ele>1321.2</ele><time>2026-04-26T10:09:07.191Z</time></trkpt><trkpt lat="45.940313" lon="11.61487"><ele>1322.4</ele><time>2026-04-26T10:09:09.19Z</time></trkpt><trkpt lat="45.9403556" lon="11.615007"><ele>1323.6</ele><time>2026-04-26T10:09:11.193Z</time></trkpt><trkpt lat="45.9403879" lon="11.6151423"><ele>1324.8</ele><time>2026-04-26T10:09:13.191Z</time></trkpt><trkpt lat="45.9404114" lon="11.6152562"><ele>1326.0</ele><time>2026-04-26T10:09:15.192Z</time></trkpt><trkpt lat="45.9404228" lon="11.6153574"><ele>1326.0</ele><time>2026-04-26T10:09:17.192Z</time></trkpt><trkpt lat="45.9404249" lon="11.6154563"><ele>1326.0</ele><time>2026-04-26T10:09:19.191Z</time></trkpt><trkpt lat="45.9403968" lon="11.6155591"><ele>1326.0</ele><time>2026-04-26T10:09:22.189Z</time></trkpt><trkpt lat="45.9404359" lon="11.6156581"><ele>1326.0</ele><time>2026-04-26T10:09:34.189Z</time></trkpt><trkpt lat="45.940448" lon="11.6153127"><ele>1325.9999999999998</ele><time>2026-04-26T11:17:07.395Z</time></trkpt><trkpt lat="45.9404301" lon="11.6152213"><ele>1326.0</ele><time>2026-04-26T11:17:10.394Z</time></trkpt><trkpt lat="45.9404042" lon="11.6151348"><ele>1326.0</ele><time>2026-04-26T11:17:13.395Z</time></trkpt><trkpt lat="45.9403672" lon="11.6150354"><ele>1326.0</ele><time>2026-04-26T11:17:16.393Z</time></trkpt><trkpt lat="45.9403338" lon="11.6149285"><ele>1326.0</ele><time>2026-04-26T11:17:19.395Z</time></trkpt><trkpt lat="45.9403141" lon="11.6148382"><ele>1325.9999999999998</ele><time>2026-04-26T11:17:21.395Z</time></trkpt><trkpt lat="45.9402742" lon="11.6147566"><ele>1326.0</ele><time>2026-04-26T11:18:30.394Z</time></trkpt><trkpt lat="45.9401757" lon="11.6149768"><ele>1326.0</ele><time>2026-04-26T11:18:35.397Z</time></trkpt><trkpt lat="45.9401489" lon="11.6151446"><ele>1326.0</ele><time>2026-04-26T11:18:36.397Z</time></trkpt><trkpt lat="45.940111" lon="11.6153578"><ele>1326.0</ele><time>2026-04-26T11:18:37.393Z</time></trkpt><trkpt lat="45.9400716" lon="11.6155452"><ele>1326.0</ele><time>2026-04-26T11:18:38.393Z</time></trkpt><trkpt lat="45.9400334" lon="11.6157124"><ele>1330.0</ele><time>2026-04-26T11:18:39.393Z</time></trkpt><trkpt lat="45.9399956" lon="11.6158861"><ele>1334.0</ele><time>2026-04-26T11:18:40.393Z</time></trkpt><trkpt lat="45.9399788" lon="11.6159793"><ele>1338.0</ele><time>2026-04-26T11:18:40.998Z</time></trkpt><trkpt lat="45.9399459" lon="11.616185"><ele>1342.0</ele><time>2026-04-26T11:18:42.396Z</time></trkpt><trkpt lat="45.939916" lon="11.6163464"><ele>1342.0</ele><time>2026-04-26T11:18:43.398Z</time></trkpt><trkpt lat="45.9398804" lon="11.6165315"><ele>1342.0</ele><time>2026-04-26T11:18:44.396Z</time></trkpt><trkpt lat="45.9398468" lon="11.6167238"><ele>1342.0</ele><time>2026-04-26T11:18:45.394Z</time></trkpt><trkpt lat="45.9398236" lon="11.6169035"><ele>1342.0</ele><time>2026-04-26T11:18:46.394Z</time></trkpt><trkpt lat="45.9398204" lon="11.6171113"><ele>1341.6666666666665</ele><time>2026-04-26T11:18:47.395Z</time></trkpt><trkpt lat="45.9398375" lon="11.6173648"><ele>1341.3333333333333</ele><time>2026-04-26T11:18:48.393Z</time></trkpt><trkpt lat="45.9398591" lon="11.6176314"><ele>1341.0</ele><time>2026-04-26T11:18:49.395Z</time></trkpt><trkpt lat="45.939874" lon="11.6178756"><ele>1341.0</ele><time>2026-04-26T11:18:50.393Z</time></trkpt><trkpt lat="45.9398875" lon="11.6181111"><ele>1341.0</ele><time>2026-04-26T11:18:51.395Z</time></trkpt><trkpt lat="45.939914" lon="11.6185756"><ele>1342.75</ele><time>2026-04-26T11:18:53.397Z</time></trkpt><trkpt lat="45.9399247" lon="11.6187948"><ele>1344.5</ele><time>2026-04-26T11:18:54.396Z</time></trkpt><trkpt lat="45.93993" lon="11.6190094"><ele>1346.25</ele><time>2026-04-26T11:18:55.395Z</time></trkpt><trkpt lat="45.9399341" lon="11.6192156"><ele>1348.0</ele><time>2026-04-26T11:18:56.394Z</time></trkpt><trkpt lat="45.9399392" lon="11.6194123"><ele>1347.75</ele><time>2026-04-26T11:18:57.395Z</time></trkpt><trkpt lat="45.9399456" lon="11.6196093"><ele>1347.5</ele><time>2026-04-26T11:18:58.394Z</time></trkpt><trkpt lat="45.9399492" lon="11.6198088"><ele>1347.25</ele><time>2026-04-26T11:18:59.396Z</time></trkpt><trkpt lat="45.9399517" lon="11.6199946"><ele>1347.0</ele><time>2026-04-26T11:19:00.394Z</time></trkpt><trkpt lat="45.9399513" lon="11.6201486"><ele>1347.0</ele><time>2026-04-26T11:19:01.393Z</time></trkpt><trkpt lat="45.9399391" lon="11.6202766"><ele>1347.0</ele><time>2026-04-26T11:19:02.392Z</time></trkpt><trkpt lat="45.9399053" lon="11.62038"><ele>1347.0</ele><time>2026-04-26T11:19:03.392Z</time></trkpt><trkpt lat="45.939831" lon="11.6204635"><ele>1347.0</ele><time>2026-04-26T11:19:04.394Z</time></trkpt><trkpt lat="45.9397294" lon="11.6205483"><ele>1347.0</ele><time>2026-04-26T11:19:05.395Z</time></trkpt><trkpt lat="45.9396305" lon="11.6206587"><ele>1345.6666666666667</ele><time>2026-04-26T11:19:06.396Z</time></trkpt><trkpt lat="45.9395411" lon="11.6208194"><ele>1344.3333333333335</ele><time>2026-04-26T11:19:07.395Z</time></trkpt><trkpt lat="45.9394553" lon="11.6210312"><ele>1343.0</ele><time>2026-04-26T11:19:08.392Z</time></trkpt><trkpt lat="45.9393743" lon="11.6212529"><ele>1342.0</ele><time>2026-04-26T11:19:09.393Z</time></trkpt><trkpt lat="45.9392889" lon="11.6214457"><ele>1341.0</ele><time>2026-04-26T11:19:10.393Z</time></trkpt><trkpt lat="45.9391984" lon="11.6216234"><ele>1340.0</ele><time>2026-04-26T11:19:11.396Z</time></trkpt><trkpt lat="45.9391003" lon="11.6218008"><ele>1341.6666666666667</ele><time>2026-04-26T11:19:12.396Z</time></trkpt><trkpt lat="45.9388961" lon="11.6221014"><ele>1343.3333333333333</ele><time>2026-04-26T11:19:14.394Z</time></trkpt><trkpt lat="45.9387961" lon="11.622246"><ele>1345.0</ele><time>2026-04-26T11:19:15.396Z</time></trkpt><trkpt lat="45.9387151" lon="11.6223734"><ele>1345.0</ele><time>2026-04-26T11:19:16.193Z</time></trkpt><trkpt lat="45.9385881" lon="11.6225973"><ele>1345.0</ele><time>2026-04-26T11:19:17.394Z</time></trkpt><trkpt lat="45.9384796" lon="11.6227963"><ele>1345.0</ele><time>2026-04-26T11:19:18.393Z</time></trkpt><trkpt lat="45.9383831" lon="11.6229849"><ele>1350.6666666666665</ele><time>2026-04-26T11:19:19.393Z</time></trkpt><trkpt lat="45.9382851" lon="11.6231637"><ele>1356.3333333333333</ele><time>2026-04-26T11:19:20.393Z</time></trkpt><trkpt lat="45.9381855" lon="11.623349"><ele>1362.0</ele><time>2026-04-26T11:19:21.393Z</time></trkpt><trkpt lat="45.9380973" lon="11.6235319"><ele>1358.75</ele><time>2026-04-26T11:19:22.392Z</time></trkpt><trkpt lat="45.9380235" lon="11.6237052"><ele>1355.5</ele><time>2026-04-26T11:19:23.392Z</time></trkpt><trkpt lat="45.9379583" lon="11.6238717"><ele>1352.25</ele><time>2026-04-26T11:19:24.392Z</time></trkpt><trkpt lat="45.9379036" lon="11.6240501"><ele>1349.0</ele><time>2026-04-26T11:19:25.39Z</time></trkpt><trkpt lat="45.9378446" lon="11.6242418"><ele>1349.0</ele><time>2026-04-26T11:19:26.39Z</time></trkpt><trkpt lat="45.9377931" lon="11.6244484"><ele>1349.0</ele><time>2026-04-26T11:19:27.39Z</time></trkpt><trkpt lat="45.9377604" lon="11.6246567"><ele>1349.0</ele><time>2026-04-26T11:19:28.389Z</time></trkpt><trkpt lat="45.937744" lon="11.6248595"><ele>1349.0</ele><time>2026-04-26T11:19:29.39Z</time></trkpt><trkpt lat="45.937753" lon="11.6250684"><ele>1347.75</ele><time>2026-04-26T11:19:30.392Z</time></trkpt><trkpt lat="45.9377772" lon="11.6252721"><ele>1346.5</ele><time>2026-04-26T11:19:31.392Z</time></trkpt><trkpt lat="45.9378052" lon="11.6254764"><ele>1345.25</ele><time>2026-04-26T11:19:32.392Z</time></trkpt><trkpt lat="45.9378228" lon="11.6256902"><ele>1344.0</ele><time>2026-04-26T11:19:33.391Z</time></trkpt><trkpt lat="45.9378415" lon="11.626066"><ele>1341.6666666666667</ele><time>2026-04-26T11:19:34.992Z</time></trkpt><trkpt lat="45.9378532" lon="11.626406"><ele>1339.3333333333335</ele><time>2026-04-26T11:19:36.392Z</time></trkpt><trkpt lat="45.9378592" lon="11.6266263"><ele>1337.0</ele><time>2026-04-26T11:19:37.392Z</time></trkpt><trkpt lat="45.9378582" lon="11.6268393"><ele>1336.25</ele><time>2026-04-26T11:19:38.394Z</time></trkpt><trkpt lat="45.9378494" lon="11.6270537"><ele>1335.5</ele><time>2026-04-26T11:19:39.395Z</time></trkpt><trkpt lat="45.9378305" lon="11.6272556"><ele>1334.75</ele><time>2026-04-26T11:19:40.395Z</time></trkpt><trkpt lat="45.9377952" lon="11.6274369"><ele>1334.0</ele><time>2026-04-26T11:19:41.396Z</time></trkpt><trkpt lat="45.9377474" lon="11.6276155"><ele>1334.0</ele><time>2026-04-26T11:19:42.397Z</time></trkpt><trkpt lat="45.9376957" lon="11.6277986"><ele>1334.0</ele><time>2026-04-26T11:19:43.395Z</time></trkpt><trkpt lat="45.9376407" lon="11.6279646"><ele>1334.0</ele><time>2026-04-26T11:19:44.396Z</time></trkpt><trkpt lat="45.9375695" lon="11.6281174"><ele>1334.0</ele><time>2026-04-26T11:19:45.396Z</time></trkpt><trkpt lat="45.937476" lon="11.6282492"><ele>1341.25</ele><time>2026-04-26T11:19:46.396Z</time></trkpt><trkpt lat="45.9373612" lon="11.6283521"><ele>1348.5</ele><time>2026-04-26T11:19:47.392Z</time></trkpt><trkpt lat="45.9372222" lon="11.6284327"><ele>1355.75</ele><time>2026-04-26T11:19:48.394Z</time></trkpt><trkpt lat="45.937069" lon="11.6285152"><ele>1363.0</ele><time>2026-04-26T11:19:49.393Z</time></trkpt><trkpt lat="45.9369166" lon="11.6286346"><ele>1363.6666666666665</ele><time>2026-04-26T11:19:50.391Z</time></trkpt><trkpt lat="45.9367639" lon="11.6288036"><ele>1364.3333333333333</ele><time>2026-04-26T11:19:51.391Z</time></trkpt><trkpt lat="45.9366162" lon="11.6289801"><ele>1365.0</ele><time>2026-04-26T11:19:52.394Z</time></trkpt><trkpt lat="45.9364785" lon="11.6291379"><ele>1365.0</ele><time>2026-04-26T11:19:53.393Z</time></trkpt><trkpt lat="45.9363412" lon="11.6292776"><ele>1365.0</ele><time>2026-04-26T11:19:54.396Z</time></trkpt><trkpt lat="45.936048" lon="11.6295203"><ele>1364.6666666666667</ele><time>2026-04-26T11:19:56.396Z</time></trkpt><trkpt lat="45.9359184" lon="11.629667"><ele>1364.3333333333335</ele><time>2026-04-26T11:19:57.396Z</time></trkpt><trkpt lat="45.9357856" lon="11.6298028"><ele>1364.0</ele><time>2026-04-26T11:19:58.394Z</time></trkpt><trkpt lat="45.9356326" lon="11.6299066"><ele>1364.0</ele><time>2026-04-26T11:19:59.394Z</time></trkpt><trkpt lat="45.9354588" lon="11.6299917"><ele>1364.0</ele><time>2026-04-26T11:20:00.393Z</time></trkpt><trkpt lat="45.9352854" lon="11.6300606"><ele>1364.0</ele><time>2026-04-26T11:20:01.394Z</time></trkpt><trkpt lat="45.9351261" lon="11.6301211"><ele>1368.6666666666667</ele><time>2026-04-26T11:20:02.393Z</time></trkpt><trkpt lat="45.9349776" lon="11.6301793"><ele>1373.3333333333333</ele><time>2026-04-26T11:20:03.395Z</time></trkpt><trkpt lat="45.9348279" lon="11.6302311"><ele>1378.0</ele><time>2026-04-26T11:20:04.393Z</time></trkpt><trkpt lat="45.9346749" lon="11.630271"><ele>1378.0</ele><time>2026-04-26T11:20:05.394Z</time></trkpt><trkpt lat="45.9345244" lon="11.6302875"><ele>1378.0</ele><time>2026-04-26T11:20:06.393Z</time></trkpt><trkpt lat="45.934386" lon="11.6302959"><ele>1378.0</ele><time>2026-04-26T11:20:07.393Z</time></trkpt><trkpt lat="45.9342549" lon="11.6302959"><ele>1378.0</ele><time>2026-04-26T11:20:08.393Z</time></trkpt><trkpt lat="45.9341196" lon="11.6302789"><ele>1379.0</ele><time>2026-04-26T11:20:09.391Z</time></trkpt><trkpt lat="45.933984" lon="11.6302344"><ele>1380.0</ele><time>2026-04-26T11:20:10.393Z</time></trkpt><trkpt lat="45.9338449" lon="11.6301686"><ele>1381.0</ele><time>2026-04-26T11:20:11.392Z</time></trkpt><trkpt lat="45.9337069" lon="11.6300951"><ele>1382.0</ele><time>2026-04-26T11:20:12.393Z</time></trkpt><trkpt lat="45.9335735" lon="11.6300281"><ele>1382.0</ele><time>2026-04-26T11:20:13.393Z</time></trkpt><trkpt lat="45.9334394" lon="11.6299809"><ele>1382.0</ele><time>2026-04-26T11:20:14.39Z</time></trkpt><trkpt lat="45.9333068" lon="11.6299601"><ele>1382.0</ele><time>2026-04-26T11:20:15.391Z</time></trkpt><trkpt lat="45.9330639" lon="11.6299539"><ele>1380.5</ele><time>2026-04-26T11:20:17.393Z</time></trkpt><trkpt lat="45.9329568" lon="11.6300009"><ele>1379.0</ele><time>2026-04-26T11:20:18.392Z</time></trkpt><trkpt lat="45.9328595" lon="11.630074"><ele>1377.5</ele><time>2026-04-26T11:20:19.39Z</time></trkpt><trkpt lat="45.9327618" lon="11.6301888"><ele>1376.0</ele><time>2026-04-26T11:20:20.393Z</time></trkpt><trkpt lat="45.9326493" lon="11.6303109"><ele>1370.6666666666667</ele><time>2026-04-26T11:20:21.392Z</time></trkpt><trkpt lat="45.9325116" lon="11.6304201"><ele>1365.3333333333333</ele><time>2026-04-26T11:20:22.391Z</time></trkpt><trkpt lat="45.9323684" lon="11.6305385"><ele>1360.0</ele><time>2026-04-26T11:20:23.392Z</time></trkpt><trkpt lat="45.9322477" lon="11.630666"><ele>1360.0</ele><time>2026-04-26T11:20:24.395Z</time></trkpt><trkpt lat="45.9321393" lon="11.6307868"><ele>1360.0</ele><time>2026-04-26T11:20:25.395Z</time></trkpt><trkpt lat="45.9320231" lon="11.6308902"><ele>1360.0</ele><time>2026-04-26T11:20:26.393Z</time></trkpt><trkpt lat="45.9319005" lon="11.6309845"><ele>1360.0</ele><time>2026-04-26T11:20:27.395Z</time></trkpt><trkpt lat="45.9317749" lon="11.631077"><ele>1357.6666666666665</ele><time>2026-04-26T11:20:28.393Z</time></trkpt><trkpt lat="45.9316425" lon="11.6311652"><ele>1355.3333333333333</ele><time>2026-04-26T11:20:29.393Z</time></trkpt><trkpt lat="45.9315042" lon="11.6312414"><ele>1353.0</ele><time>2026-04-26T11:20:30.394Z</time></trkpt><trkpt lat="45.9313556" lon="11.631308"><ele>1353.0</ele><time>2026-04-26T11:20:31.394Z</time></trkpt><trkpt lat="45.9311967" lon="11.6313744"><ele>1353.0</ele><time>2026-04-26T11:20:32.393Z</time></trkpt><trkpt lat="45.9310365" lon="11.6314574"><ele>1353.0</ele><time>2026-04-26T11:20:33.394Z</time></trkpt><trkpt lat="45.9308846" lon="11.6315434"><ele>1358.3333333333333</ele><time>2026-04-26T11:20:34.394Z</time></trkpt><trkpt lat="45.9307389" lon="11.631634"><ele>1363.6666666666665</ele><time>2026-04-26T11:20:35.395Z</time></trkpt><trkpt lat="45.930589" lon="11.6317254"><ele>1369.0</ele><time>2026-04-26T11:20:36.395Z</time></trkpt><trkpt lat="45.9302787" lon="11.6319184"><ele>1367.0</ele><time>2026-04-26T11:20:38.392Z</time></trkpt><trkpt lat="45.930124" lon="11.6320443"><ele>1365.0</ele><time>2026-04-26T11:20:39.389Z</time></trkpt><trkpt lat="45.9299681" lon="11.6321812"><ele>1363.0</ele><time>2026-04-26T11:20:40.388Z</time></trkpt><trkpt lat="45.92981" lon="11.6323209"><ele>1363.0</ele><time>2026-04-26T11:20:41.389Z</time></trkpt><trkpt lat="45.9296602" lon="11.6324813"><ele>1363.0</ele><time>2026-04-26T11:20:42.39Z</time></trkpt><trkpt lat="45.929507" lon="11.6326537"><ele>1363.0</ele><time>2026-04-26T11:20:43.391Z</time></trkpt><trkpt lat="45.9293824" lon="11.6327963"><ele>1365.3333333333333</ele><time>2026-04-26T11:20:44.192Z</time></trkpt><trkpt lat="45.9292014" lon="11.6330122"><ele>1367.6666666666667</ele><time>2026-04-26T11:20:45.394Z</time></trkpt><trkpt lat="45.9290569" lon="11.6331775"><ele>1370.0</ele><time>2026-04-26T11:20:46.392Z</time></trkpt><trkpt lat="45.9289196" lon="11.6333304"><ele>1370.0</ele><time>2026-04-26T11:20:47.392Z</time></trkpt><trkpt lat="45.928793" lon="11.6334717"><ele>1370.0</ele><time>2026-04-26T11:20:48.391Z</time></trkpt><trkpt lat="45.9286699" lon="11.6336155"><ele>1370.0</ele><time>2026-04-26T11:20:49.391Z</time></trkpt><trkpt lat="45.9285626" lon="11.633788"><ele>1373.3333333333335</ele><time>2026-04-26T11:20:50.392Z</time></trkpt><trkpt lat="45.9284516" lon="11.6339795"><ele>1376.6666666666667</ele><time>2026-04-26T11:20:51.393Z</time></trkpt><trkpt lat="45.9283525" lon="11.6341554"><ele>1380.0</ele><time>2026-04-26T11:20:52.391Z</time></trkpt><trkpt lat="45.928265" lon="11.6343279"><ele>1376.3333333333333</ele><time>2026-04-26T11:20:53.392Z</time></trkpt><trkpt lat="45.9281892" lon="11.6345136"><ele>1372.6666666666665</ele><time>2026-04-26T11:20:54.393Z</time></trkpt><trkpt lat="45.9281341" lon="11.6347186"><ele>1369.0</ele><time>2026-04-26T11:20:55.395Z</time></trkpt><trkpt lat="45.9280876" lon="11.6349385"><ele>1369.0</ele><time>2026-04-26T11:20:56.392Z</time></trkpt><trkpt lat="45.9280603" lon="11.6351753"><ele>1369.0</ele><time>2026-04-26T11:20:57.394Z</time></trkpt><trkpt lat="45.9280144" lon="11.6356218"><ele>1367.75</ele><time>2026-04-26T11:20:59.392Z</time></trkpt><trkpt lat="45.9279941" lon="11.6358272"><ele>1366.5</ele><time>2026-04-26T11:21:00.392Z</time></trkpt><trkpt lat="45.9279646" lon="11.6360185"><ele>1365.25</ele><time>2026-04-26T11:21:01.393Z</time></trkpt><trkpt lat="45.9279165" lon="11.6361961"><ele>1364.0</ele><time>2026-04-26T11:21:02.394Z</time></trkpt><trkpt lat="45.9278478" lon="11.6363702"><ele>1363.5</ele><time>2026-04-26T11:21:03.391Z</time></trkpt><trkpt lat="45.927766" lon="11.6365273"><ele>1363.0</ele><time>2026-04-26T11:21:04.393Z</time></trkpt><trkpt lat="45.9276739" lon="11.6366585"><ele>1362.5</ele><time>2026-04-26T11:21:05.391Z</time></trkpt><trkpt lat="45.9275754" lon="11.6367856"><ele>1362.0</ele><time>2026-04-26T11:21:06.393Z</time></trkpt><trkpt lat="45.9275277" lon="11.6368744"><ele>1366.3333333333333</ele><time>2026-04-26T11:21:06.995Z</time></trkpt><trkpt lat="45.9274611" lon="11.6371284"><ele>1370.6666666666665</ele><time>2026-04-26T11:21:08.393Z</time></trkpt><trkpt lat="45.9274395" lon="11.6373533"><ele>1375.0</ele><time>2026-04-26T11:21:09.395Z</time></trkpt><trkpt lat="45.9274092" lon="11.6375732"><ele>1375.0</ele><time>2026-04-26T11:21:10.394Z</time></trkpt><trkpt lat="45.9273571" lon="11.6377578"><ele>1375.0</ele><time>2026-04-26T11:21:11.393Z</time></trkpt><trkpt lat="45.9272893" lon="11.6379132"><ele>1375.0</ele><time>2026-04-26T11:21:12.395Z</time></trkpt><trkpt lat="45.9272106" lon="11.6380302"><ele>1375.0</ele><time>2026-04-26T11:21:13.393Z</time></trkpt><trkpt lat="45.9271328" lon="11.6381002"><ele>1374.0</ele><time>2026-04-26T11:21:14.393Z</time></trkpt><trkpt lat="45.9270494" lon="11.6381483"><ele>1373.0</ele><time>2026-04-26T11:21:15.395Z</time></trkpt><trkpt lat="45.9269621" lon="11.6382203"><ele>1372.0</ele><time>2026-04-26T11:21:16.395Z</time></trkpt><trkpt lat="45.9268852" lon="11.6383394"><ele>1371.0</ele><time>2026-04-26T11:21:17.395Z</time></trkpt><trkpt lat="45.926825" lon="11.6385117"><ele>1370.0</ele><time>2026-04-26T11:21:18.395Z</time></trkpt><trkpt lat="45.9267436" lon="11.6389677"><ele>1368.3333333333335</ele><time>2026-04-26T11:21:20.393Z</time></trkpt><trkpt lat="45.9267347" lon="11.6392207"><ele>1366.6666666666667</ele><time>2026-04-26T11:21:21.394Z</time></trkpt><trkpt lat="45.9267377" lon="11.6394606"><ele>1365.0</ele><time>2026-04-26T11:21:22.396Z</time></trkpt><trkpt lat="45.9267392" lon="11.6396873"><ele>1364.5</ele><time>2026-04-26T11:21:23.393Z</time></trkpt><trkpt lat="45.926722" lon="11.6398994"><ele>1364.0</ele><time>2026-04-26T11:21:24.396Z</time></trkpt><trkpt lat="45.9266833" lon="11.6400993"><ele>1363.5</ele><time>2026-04-26T11:21:25.396Z</time></trkpt><trkpt lat="45.9266524" lon="11.6402975"><ele>1363.0</ele><time>2026-04-26T11:21:26.396Z</time></trkpt><trkpt lat="45.9266481" lon="11.6405044"><ele>1363.0</ele><time>2026-04-26T11:21:27.395Z</time></trkpt><trkpt lat="45.9266645" lon="11.6407038"><ele>1363.0</ele><time>2026-04-26T11:21:28.395Z</time></trkpt><trkpt lat="45.9266908" lon="11.640879"><ele>1363.0</ele><time>2026-04-26T11:21:29.395Z</time></trkpt><trkpt lat="45.9267101" lon="11.6410358"><ele>1363.0</ele><time>2026-04-26T11:21:30.391Z</time></trkpt><trkpt lat="45.9267075" lon="11.64118"><ele>1362.8000000000002</ele><time>2026-04-26T11:21:31.391Z</time></trkpt><trkpt lat="45.9266843" lon="11.6413061"><ele>1362.6</ele><time>2026-04-26T11:21:32.394Z</time></trkpt><trkpt lat="45.9266444" lon="11.6414096"><ele>1362.4</ele><time>2026-04-26T11:21:33.393Z</time></trkpt><trkpt lat="45.9265782" lon="11.6414941"><ele>1362.1999999999998</ele><time>2026-04-26T11:21:34.395Z</time></trkpt><trkpt lat="45.9264949" lon="11.6415463"><ele>1362.0</ele><time>2026-04-26T11:21:35.395Z</time></trkpt><trkpt lat="45.9263989" lon="11.6416068"><ele>1362.0</ele><time>2026-04-26T11:21:36.398Z</time></trkpt><trkpt lat="45.926303" lon="11.6417101"><ele>1362.0</ele><time>2026-04-26T11:21:37.398Z</time></trkpt><trkpt lat="45.9262084" lon="11.6418627"><ele>1362.0</ele><time>2026-04-26T11:21:38.395Z</time></trkpt><trkpt lat="45.9261166" lon="11.6420574"><ele>1362.0</ele><time>2026-04-26T11:21:39.397Z</time></trkpt><trkpt lat="45.9259851" lon="11.6424675"><ele>1362.6</ele><time>2026-04-26T11:21:41.394Z</time></trkpt><trkpt lat="45.9259545" lon="11.6426506"><ele>1363.1999999999998</ele><time>2026-04-26T11:21:42.395Z</time></trkpt><trkpt lat="45.9259363" lon="11.6428123"><ele>1363.8</ele><time>2026-04-26T11:21:43.395Z</time></trkpt><trkpt lat="45.9259065" lon="11.6429513"><ele>1364.4</ele><time>2026-04-26T11:21:44.395Z</time></trkpt><trkpt lat="45.9258529" lon="11.643063"><ele>1365.0</ele><time>2026-04-26T11:21:45.394Z</time></trkpt><trkpt lat="45.9257769" lon="11.6431321"><ele>1365.0</ele><time>2026-04-26T11:21:46.393Z</time></trkpt><trkpt lat="45.9256831" lon="11.6431469"><ele>1365.0</ele><time>2026-04-26T11:21:47.394Z</time></trkpt><trkpt lat="45.92557" lon="11.6431114"><ele>1365.0</ele><time>2026-04-26T11:21:48.395Z</time></trkpt><trkpt lat="45.9254368" lon="11.6430452"><ele>1365.0</ele><time>2026-04-26T11:21:49.397Z</time></trkpt><trkpt lat="45.9253071" lon="11.6429577"><ele>1365.0</ele><time>2026-04-26T11:21:50.395Z</time></trkpt><trkpt lat="45.925184" lon="11.6428828"><ele>1365.0</ele><time>2026-04-26T11:21:51.397Z</time></trkpt><trkpt lat="45.9250588" lon="11.6428566"><ele>1365.0</ele><time>2026-04-26T11:21:52.394Z</time></trkpt><trkpt lat="45.9249388" lon="11.6428913"><ele>1365.0</ele><time>2026-04-26T11:21:53.392Z</time></trkpt><trkpt lat="45.9248099" lon="11.64295"><ele>1366.0</ele><time>2026-04-26T11:21:54.391Z</time></trkpt><trkpt lat="45.9246757" lon="11.6430098"><ele>1367.0</ele><time>2026-04-26T11:21:55.391Z</time></trkpt><trkpt lat="45.9245767" lon="11.643079"><ele>1368.0</ele><time>2026-04-26T11:21:56.195Z</time></trkpt><trkpt lat="45.9244202" lon="11.6432071"><ele>1369.0</ele><time>2026-04-26T11:21:57.393Z</time></trkpt><trkpt lat="45.9242744" lon="11.6432771"><ele>1369.3333333333333</ele><time>2026-04-26T11:21:58.396Z</time></trkpt><trkpt lat="45.9241232" lon="11.6433284"><ele>1369.6666666666667</ele><time>2026-04-26T11:21:59.396Z</time></trkpt><trkpt lat="45.9239854" lon="11.6433638"><ele>1370.0</ele><time>2026-04-26T11:22:00.395Z</time></trkpt><trkpt lat="45.9237426" lon="11.6434051"><ele>1370.0</ele><time>2026-04-26T11:22:02.395Z</time></trkpt><trkpt lat="45.9236195" lon="11.6434625"><ele>1370.0</ele><time>2026-04-26T11:22:03.395Z</time></trkpt><trkpt lat="45.9234933" lon="11.6435485"><ele>1370.0</ele><time>2026-04-26T11:22:04.394Z</time></trkpt><trkpt lat="45.9233752" lon="11.6436604"><ele>1370.0</ele><time>2026-04-26T11:22:05.392Z</time></trkpt><trkpt lat="45.9232778" lon="11.6437886"><ele>1368.6</ele><time>2026-04-26T11:22:06.392Z</time></trkpt><trkpt lat="45.9231927" lon="11.6439194"><ele>1367.2</ele><time>2026-04-26T11:22:07.393Z</time></trkpt><trkpt lat="45.9231131" lon="11.644036"><ele>1365.8000000000002</ele><time>2026-04-26T11:22:08.393Z</time></trkpt><trkpt lat="45.9230307" lon="11.6441267"><ele>1364.4</ele><time>2026-04-26T11:22:09.393Z</time></trkpt><trkpt lat="45.9229415" lon="11.644182"><ele>1363.0</ele><time>2026-04-26T11:22:10.394Z</time></trkpt><trkpt lat="45.9228447" lon="11.6441976"><ele>1363.0</ele><time>2026-04-26T11:22:11.392Z</time></trkpt><trkpt lat="45.9227499" lon="11.6441702"><ele>1363.0</ele><time>2026-04-26T11:22:12.392Z</time></trkpt><trkpt lat="45.9226643" lon="11.6440879"><ele>1363.0</ele><time>2026-04-26T11:22:13.393Z</time></trkpt><trkpt lat="45.922587" lon="11.6439545"><ele>1363.0</ele><time>2026-04-26T11:22:14.392Z</time></trkpt><trkpt lat="45.9225188" lon="11.6437896"><ele>1362.8000000000002</ele><time>2026-04-26T11:22:15.393Z</time></trkpt><trkpt lat="45.9224644" lon="11.6436325"><ele>1362.6</ele><time>2026-04-26T11:22:16.393Z</time></trkpt><trkpt lat="45.9223998" lon="11.6435095"><ele>1362.4</ele><time>2026-04-26T11:22:17.391Z</time></trkpt><trkpt lat="45.9223143" lon="11.643433"><ele>1362.1999999999998</ele><time>2026-04-26T11:22:18.392Z</time></trkpt><trkpt lat="45.9222098" lon="11.6434044"><ele>1362.0</ele><time>2026-04-26T11:22:19.392Z</time></trkpt><trkpt lat="45.9221022" lon="11.643439"><ele>1362.0</ele><time>2026-04-26T11:22:20.395Z</time></trkpt><trkpt lat="45.9219995" lon="11.6435348"><ele>1362.0</ele><time>2026-04-26T11:22:21.397Z</time></trkpt><trkpt lat="45.9217811" lon="11.6438452"><ele>1362.0</ele><time>2026-04-26T11:22:23.394Z</time></trkpt><trkpt lat="45.921671" lon="11.6439947"><ele>1359.5</ele><time>2026-04-26T11:22:24.393Z</time></trkpt><trkpt lat="45.9215705" lon="11.6441213"><ele>1357.0</ele><time>2026-04-26T11:22:25.393Z</time></trkpt><trkpt lat="45.9214749" lon="11.644228"><ele>1354.5</ele><time>2026-04-26T11:22:26.394Z</time></trkpt><trkpt lat="45.9213784" lon="11.6443"><ele>1352.0</ele><time>2026-04-26T11:22:27.394Z</time></trkpt><trkpt lat="45.9212779" lon="11.6443331"><ele>1352.0</ele><time>2026-04-26T11:22:28.393Z</time></trkpt><trkpt lat="45.9211703" lon="11.6443211"><ele>1352.0</ele><time>2026-04-26T11:22:29.393Z</time></trkpt><trkpt lat="45.9210501" lon="11.644269"><ele>1352.0</ele><time>2026-04-26T11:22:30.395Z</time></trkpt><trkpt lat="45.9209389" lon="11.6441966"><ele>1352.0</ele><time>2026-04-26T11:22:31.396Z</time></trkpt><trkpt lat="45.9208407" lon="11.6441"><ele>1353.25</ele><time>2026-04-26T11:22:32.394Z</time></trkpt><trkpt lat="45.9207478" lon="11.6439821"><ele>1354.5</ele><time>2026-04-26T11:22:33.396Z</time></trkpt><trkpt lat="45.9206695" lon="11.6438489"><ele>1355.75</ele><time>2026-04-26T11:22:34.393Z</time></trkpt><trkpt lat="45.9206069" lon="11.6437062"><ele>1357.0</ele><time>2026-04-26T11:22:35.396Z</time></trkpt><trkpt lat="45.9205467" lon="11.6435653"><ele>1359.1999999999998</ele><time>2026-04-26T11:22:36.394Z</time></trkpt><trkpt lat="45.9204851" lon="11.6434307"><ele>1361.4</ele><time>2026-04-26T11:22:37.396Z</time></trkpt><trkpt lat="45.9204315" lon="11.6433101"><ele>1363.6</ele><time>2026-04-26T11:22:38.393Z</time></trkpt><trkpt lat="45.9203724" lon="11.6432186"><ele>1365.8000000000002</ele><time>2026-04-26T11:22:39.396Z</time></trkpt><trkpt lat="45.9202973" lon="11.6431753"><ele>1368.0</ele><time>2026-04-26T11:22:40.395Z</time></trkpt><trkpt lat="45.920218" lon="11.643193"><ele>1368.0</ele><time>2026-04-26T11:22:41.393Z</time></trkpt><trkpt lat="45.9201452" lon="11.6432721"><ele>1368.0</ele><time>2026-04-26T11:22:42.394Z</time></trkpt><trkpt lat="45.9200047" lon="11.6435529"><ele>1368.0</ele><time>2026-04-26T11:22:44.394Z</time></trkpt><trkpt lat="45.9199268" lon="11.6436989"><ele>1362.0</ele><time>2026-04-26T11:22:45.394Z</time></trkpt><trkpt lat="45.9198507" lon="11.6438354"><ele>1356.0</ele><time>2026-04-26T11:22:46.394Z</time></trkpt><trkpt lat="45.9197761" lon="11.6439593"><ele>1350.0</ele><time>2026-04-26T11:22:47.395Z</time></trkpt><trkpt lat="45.9196902" lon="11.6440637"><ele>1344.0</ele><time>2026-04-26T11:22:48.395Z</time></trkpt><trkpt lat="45.9195856" lon="11.6441562"><ele>1344.0</ele><time>2026-04-26T11:22:49.395Z</time></trkpt><trkpt lat="45.9194712" lon="11.6442507"><ele>1344.0</ele><time>2026-04-26T11:22:50.396Z</time></trkpt><trkpt lat="45.9193573" lon="11.6443442"><ele>1344.0</ele><time>2026-04-26T11:22:51.397Z</time></trkpt><trkpt lat="45.9192402" lon="11.64442"><ele>1344.0</ele><time>2026-04-26T11:22:52.395Z</time></trkpt><trkpt lat="45.9191192" lon="11.6444801"><ele>1338.8000000000002</ele><time>2026-04-26T11:22:53.396Z</time></trkpt><trkpt lat="45.9189974" lon="11.644533"><ele>1333.6000000000001</ele><time>2026-04-26T11:22:54.394Z</time></trkpt><trkpt lat="45.918884" lon="11.6445691"><ele>1328.4</ele><time>2026-04-26T11:22:55.393Z</time></trkpt><trkpt lat="45.9187812" lon="11.6445918"><ele>1323.2</ele><time>2026-04-26T11:22:56.394Z</time></trkpt><trkpt lat="45.9186833" lon="11.6446281"><ele>1318.0</ele><time>2026-04-26T11:22:57.394Z</time></trkpt><trkpt lat="45.9185914" lon="11.6447022"><ele>1318.0</ele><time>2026-04-26T11:22:58.393Z</time></trkpt><trkpt lat="45.9185154" lon="11.6448092"><ele>1318.0</ele><time>2026-04-26T11:22:59.392Z</time></trkpt><trkpt lat="45.918445" lon="11.6449239"><ele>1318.0</ele><time>2026-04-26T11:23:00.394Z</time></trkpt><trkpt lat="45.9183639" lon="11.6450266"><ele>1318.0</ele><time>2026-04-26T11:23:01.395Z</time></trkpt><trkpt lat="45.9182724" lon="11.6451164"><ele>1318.0</ele><time>2026-04-26T11:23:02.395Z</time></trkpt><trkpt lat="45.9181757" lon="11.6451922"><ele>1311.0</ele><time>2026-04-26T11:23:03.394Z</time></trkpt><trkpt lat="45.9179679" lon="11.6453244"><ele>1304.0</ele><time>2026-04-26T11:23:05.392Z</time></trkpt><trkpt lat="45.9178534" lon="11.6453891"><ele>1297.0</ele><time>2026-04-26T11:23:06.392Z</time></trkpt><trkpt lat="45.9177426" lon="11.6454564"><ele>1297.0</ele><time>2026-04-26T11:23:07.392Z</time></trkpt><trkpt lat="45.9176349" lon="11.6455299"><ele>1297.0</ele><time>2026-04-26T11:23:08.392Z</time></trkpt><trkpt lat="45.9175298" lon="11.6456053"><ele>1297.0</ele><time>2026-04-26T11:23:09.392Z</time></trkpt><trkpt lat="45.917425" lon="11.6456776"><ele>1297.0</ele><time>2026-04-26T11:23:10.393Z</time></trkpt><trkpt lat="45.9173249" lon="11.6457456"><ele>1301.0</ele><time>2026-04-26T11:23:11.391Z</time></trkpt><trkpt lat="45.9172193" lon="11.6458177"><ele>1305.0</ele><time>2026-04-26T11:23:12.393Z</time></trkpt><trkpt lat="45.9171144" lon="11.6458936"><ele>1309.0</ele><time>2026-04-26T11:23:13.394Z</time></trkpt><trkpt lat="45.9170098" lon="11.6459841"><ele>1313.0</ele><time>2026-04-26T11:23:14.392Z</time></trkpt><trkpt lat="45.9168983" lon="11.6460902"><ele>1309.0</ele><time>2026-04-26T11:23:15.392Z</time></trkpt><trkpt lat="45.9168284" lon="11.6461572"><ele>1305.0</ele><time>2026-04-26T11:23:15.991Z</time></trkpt><trkpt lat="45.916662" lon="11.6463421"><ele>1301.0</ele><time>2026-04-26T11:23:17.393Z</time></trkpt><trkpt lat="45.916539" lon="11.6464803"><ele>1301.0</ele><time>2026-04-26T11:23:18.392Z</time></trkpt><trkpt lat="45.9164144" lon="11.6466128"><ele>1301.0</ele><time>2026-04-26T11:23:19.392Z</time></trkpt><trkpt lat="45.9162951" lon="11.6467367"><ele>1301.0</ele><time>2026-04-26T11:23:20.392Z</time></trkpt><trkpt lat="45.9161699" lon="11.64686"><ele>1299.0</ele><time>2026-04-26T11:23:21.393Z</time></trkpt><trkpt lat="45.9160405" lon="11.6469842"><ele>1297.0</ele><time>2026-04-26T11:23:22.393Z</time></trkpt><trkpt lat="45.9159194" lon="11.6470983"><ele>1295.0</ele><time>2026-04-26T11:23:23.392Z</time></trkpt><trkpt lat="45.915807" lon="11.6472001"><ele>1293.0</ele><time>2026-04-26T11:23:24.394Z</time></trkpt><trkpt lat="45.9155999" lon="11.6473743"><ele>1293.0</ele><time>2026-04-26T11:23:26.393Z</time></trkpt><trkpt lat="45.9154953" lon="11.6474461"><ele>1293.0</ele><time>2026-04-26T11:23:27.393Z</time></trkpt><trkpt lat="45.9153846" lon="11.6474776"><ele>1293.0</ele><time>2026-04-26T11:23:28.392Z</time></trkpt><trkpt lat="45.9152813" lon="11.6475087"><ele>1293.0</ele><time>2026-04-26T11:23:29.392Z</time></trkpt><trkpt lat="45.9151929" lon="11.6475668"><ele>1293.0</ele><time>2026-04-26T11:23:30.392Z</time></trkpt><trkpt lat="45.9151248" lon="11.6476634"><ele>1290.4</ele><time>2026-04-26T11:23:31.39Z</time></trkpt><trkpt lat="45.9150824" lon="11.6478058"><ele>1287.8000000000002</ele><time>2026-04-26T11:23:32.392Z</time></trkpt><trkpt lat="45.9150516" lon="11.6479605"><ele>1285.2</ele><time>2026-04-26T11:23:33.392Z</time></trkpt><trkpt lat="45.915002" lon="11.648104"><ele>1282.6</ele><time>2026-04-26T11:23:34.395Z</time></trkpt><trkpt lat="45.9149302" lon="11.6482333"><ele>1280.0</ele><time>2026-04-26T11:23:35.394Z</time></trkpt><trkpt lat="45.9148458" lon="11.6483517"><ele>1280.0</ele><time>2026-04-26T11:23:36.392Z</time></trkpt><trkpt lat="45.9147614" lon="11.6484501"><ele>1280.0</ele><time>2026-04-26T11:23:37.393Z</time></trkpt><trkpt lat="45.9146687" lon="11.6485185"><ele>1280.0</ele><time>2026-04-26T11:23:38.393Z</time></trkpt><trkpt lat="45.9145715" lon="11.6485699"><ele>1280.0</ele><time>2026-04-26T11:23:39.392Z</time></trkpt><trkpt lat="45.9144775" lon="11.6486027"><ele>1280.0</ele><time>2026-04-26T11:23:40.392Z</time></trkpt><trkpt lat="45.9143886" lon="11.6486004"><ele>1280.0</ele><time>2026-04-26T11:23:41.393Z</time></trkpt><trkpt lat="45.9143024" lon="11.6485521"><ele>1280.0</ele><time>2026-04-26T11:23:42.394Z</time></trkpt><trkpt lat="45.9142127" lon="11.6484591"><ele>1280.0</ele><time>2026-04-26T11:23:43.395Z</time></trkpt><trkpt lat="45.9141227" lon="11.6483512"><ele>1280.0</ele><time>2026-04-26T11:23:44.394Z</time></trkpt><trkpt lat="45.9140377" lon="11.6482551"><ele>1280.0</ele><time>2026-04-26T11:23:45.395Z</time></trkpt><trkpt lat="45.9138431" lon="11.6481914"><ele>1280.0</ele><time>2026-04-26T11:23:47.392Z</time></trkpt><trkpt lat="45.9137298" lon="11.6482423"><ele>1280.0</ele><time>2026-04-26T11:23:48.394Z</time></trkpt><trkpt lat="45.9136117" lon="11.648286"><ele>1280.0</ele><time>2026-04-26T11:23:49.394Z</time></trkpt><trkpt lat="45.9134949" lon="11.6482814"><ele>1280.0</ele><time>2026-04-26T11:23:50.392Z</time></trkpt><trkpt lat="45.9133883" lon="11.64827"><ele>1278.75</ele><time>2026-04-26T11:23:51.394Z</time></trkpt><trkpt lat="45.9132898" lon="11.6483011"><ele>1277.5</ele><time>2026-04-26T11:23:52.394Z</time></trkpt><trkpt lat="45.9131966" lon="11.6483904"><ele>1276.25</ele><time>2026-04-26T11:23:53.395Z</time></trkpt><trkpt lat="45.9131104" lon="11.6485325"><ele>1275.0</ele><time>2026-04-26T11:23:54.393Z</time></trkpt><trkpt lat="45.913035" lon="11.648697"><ele>1271.2</ele><time>2026-04-26T11:23:55.392Z</time></trkpt><trkpt lat="45.9129658" lon="11.6488502"><ele>1267.4</ele><time>2026-04-26T11:23:56.391Z</time></trkpt><trkpt lat="45.9129085" lon="11.6489817"><ele>1263.6</ele><time>2026-04-26T11:23:57.394Z</time></trkpt><trkpt lat="45.9128536" lon="11.6490806"><ele>1259.8</ele><time>2026-04-26T11:23:58.392Z</time></trkpt><trkpt lat="45.9127926" lon="11.6491394"><ele>1256.0</ele><time>2026-04-26T11:23:59.395Z</time></trkpt><trkpt lat="45.9127185" lon="11.6491513"><ele>1256.0</ele><time>2026-04-26T11:24:00.393Z</time></trkpt><trkpt lat="45.9126197" lon="11.6490903"><ele>1256.0</ele><time>2026-04-26T11:24:01.393Z</time></trkpt><trkpt lat="45.9124913" lon="11.6490026"><ele>1256.0</ele><time>2026-04-26T11:24:02.392Z</time></trkpt><trkpt lat="45.9123411" lon="11.6489044"><ele>1256.0</ele><time>2026-04-26T11:24:03.392Z</time></trkpt><trkpt lat="45.9122166" lon="11.6488262"><ele>1255.5</ele><time>2026-04-26T11:24:04.391Z</time></trkpt><trkpt lat="45.9121204" lon="11.6487547"><ele>1255.0</ele><time>2026-04-26T11:24:05.391Z</time></trkpt><trkpt lat="45.9120389" lon="11.6486976"><ele>1254.5</ele><time>2026-04-26T11:24:06.39Z</time></trkpt><trkpt lat="45.9118469" lon="11.648565"><ele>1254.0</ele><time>2026-04-26T11:24:08.394Z</time></trkpt><trkpt lat="45.911718" lon="11.6484638"><ele>1254.0</ele><time>2026-04-26T11:24:09.392Z</time></trkpt><trkpt lat="45.9115702" lon="11.6483325"><ele>1254.0</ele><time>2026-04-26T11:24:10.392Z</time></trkpt><trkpt lat="45.9114061" lon="11.6481977"><ele>1254.0</ele><time>2026-04-26T11:24:11.394Z</time></trkpt><trkpt lat="45.9112469" lon="11.648071"><ele>1254.0</ele><time>2026-04-26T11:24:12.392Z</time></trkpt><trkpt lat="45.9111133" lon="11.647979"><ele>1254.0</ele><time>2026-04-26T11:24:13.392Z</time></trkpt><trkpt lat="45.9110143" lon="11.6479097"><ele>1254.0</ele><time>2026-04-26T11:24:14.391Z</time></trkpt><trkpt lat="45.910912" lon="11.6478383"><ele>1254.0</ele><time>2026-04-26T11:24:15.391Z</time></trkpt><trkpt lat="45.9108008" lon="11.6477433"><ele>1252.6666666666667</ele><time>2026-04-26T11:24:16.392Z</time></trkpt><trkpt lat="45.9106832" lon="11.6476013"><ele>1251.3333333333335</ele><time>2026-04-26T11:24:17.391Z</time></trkpt><trkpt lat="45.9105458" lon="11.6474329"><ele>1250.0</ele><time>2026-04-26T11:24:18.391Z</time></trkpt><trkpt lat="45.9103889" lon="11.6472599"><ele>1250.0</ele><time>2026-04-26T11:24:19.391Z</time></trkpt><trkpt lat="45.9102295" lon="11.6471067"><ele>1250.0</ele><time>2026-04-26T11:24:20.39Z</time></trkpt><trkpt lat="45.9100806" lon="11.6469946"><ele>1250.0</ele><time>2026-04-26T11:24:21.391Z</time></trkpt><trkpt lat="45.9099462" lon="11.6468948"><ele>1247.0</ele><time>2026-04-26T11:24:22.39Z</time></trkpt><trkpt lat="45.9098169" lon="11.6467912"><ele>1244.0</ele><time>2026-04-26T11:24:23.392Z</time></trkpt><trkpt lat="45.9096965" lon="11.6466539"><ele>1241.0</ele><time>2026-04-26T11:24:24.393Z</time></trkpt><trkpt lat="45.9095867" lon="11.6464979"><ele>1241.0</ele><time>2026-04-26T11:24:25.392Z</time></trkpt><trkpt lat="45.909482" lon="11.6463392"><ele>1241.0</ele><time>2026-04-26T11:24:26.393Z</time></trkpt><trkpt lat="45.9093661" lon="11.6462044"><ele>1241.0</ele><time>2026-04-26T11:24:27.395Z</time></trkpt><trkpt lat="45.9091214" lon="11.6459719"><ele>1238.25</ele><time>2026-04-26T11:24:29.393Z</time></trkpt><trkpt lat="45.9090072" lon="11.6458722"><ele>1235.5</ele><time>2026-04-26T11:24:30.392Z</time></trkpt><trkpt lat="45.9088959" lon="11.645763"><ele>1232.75</ele><time>2026-04-26T11:24:31.395Z</time></trkpt><trkpt lat="45.9088002" lon="11.6456439"><ele>1230.0</ele><time>2026-04-26T11:24:32.393Z</time></trkpt><trkpt lat="45.9087114" lon="11.6455268"><ele>1230.0</ele><time>2026-04-26T11:24:33.394Z</time></trkpt><trkpt lat="45.9086159" lon="11.6454366"><ele>1230.0</ele><time>2026-04-26T11:24:34.391Z</time></trkpt><trkpt lat="45.9085203" lon="11.6453719"><ele>1230.0</ele><time>2026-04-26T11:24:35.391Z</time></trkpt><trkpt lat="45.9084358" lon="11.6453188"><ele>1230.0</ele><time>2026-04-26T11:24:36.394Z</time></trkpt><trkpt lat="45.90837" lon="11.6452541"><ele>1230.0</ele><time>2026-04-26T11:24:37.391Z</time></trkpt><trkpt lat="45.9083179" lon="11.6451842"><ele>1230.0</ele><time>2026-04-26T11:24:38.392Z</time></trkpt><trkpt lat="45.9082271" lon="11.6450898"><ele>1230.0</ele><time>2026-04-26T11:24:40.391Z</time></trkpt><trkpt lat="45.9081578" lon="11.6451557"><ele>1230.0</ele><time>2026-04-26T11:24:42.394Z</time></trkpt><trkpt lat="45.9082334" lon="11.6452823"><ele>1230.0</ele><time>2026-04-26T11:24:44.39Z</time></trkpt><trkpt lat="45.9083176" lon="11.645368"><ele>1230.0</ele><time>2026-04-26T11:24:45.392Z</time></trkpt><trkpt lat="45.9084287" lon="11.6454735"><ele>1230.0</ele><time>2026-04-26T11:24:46.394Z</time></trkpt><trkpt lat="45.908546" lon="11.6455932"><ele>1230.0</ele><time>2026-04-26T11:24:47.389Z</time></trkpt><trkpt lat="45.9086457" lon="11.6457341"><ele>1230.0</ele><time>2026-04-26T11:24:48.393Z</time></trkpt><trkpt lat="45.9088355" lon="11.6460881"><ele>1219.3333333333333</ele><time>2026-04-26T11:24:50.392Z</time></trkpt><trkpt lat="45.9089409" lon="11.6462744"><ele>1208.6666666666665</ele><time>2026-04-26T11:24:51.392Z</time></trkpt><trkpt lat="45.909052" lon="11.6464332"><ele>1198.0</ele><time>2026-04-26T11:24:52.391Z</time></trkpt><trkpt lat="45.9091539" lon="11.6465724"><ele>1198.0</ele><time>2026-04-26T11:24:53.389Z</time></trkpt><trkpt lat="45.9092382" lon="11.6467163"><ele>1198.0</ele><time>2026-04-26T11:24:54.389Z</time></trkpt><trkpt lat="45.9092996" lon="11.6468794"><ele>1198.0</ele><time>2026-04-26T11:24:55.392Z</time></trkpt><trkpt lat="45.9093541" lon="11.6470414"><ele>1198.0</ele><time>2026-04-26T11:24:56.39Z</time></trkpt><trkpt lat="45.9094258" lon="11.6471936"><ele>1202.6666666666665</ele><time>2026-04-26T11:24:57.391Z</time></trkpt><trkpt lat="45.9095321" lon="11.6473561"><ele>1207.3333333333333</ele><time>2026-04-26T11:24:58.392Z</time></trkpt><trkpt lat="45.9096465" lon="11.6475204"><ele>1212.0</ele><time>2026-04-26T11:24:59.392Z</time></trkpt><trkpt lat="45.909755" lon="11.6476766"><ele>1202.0</ele><time>2026-04-26T11:25:00.392Z</time></trkpt><trkpt lat="45.9098496" lon="11.6478392"><ele>1192.0</ele><time>2026-04-26T11:25:01.387Z</time></trkpt><trkpt lat="45.9099265" lon="11.6480308"><ele>1182.0</ele><time>2026-04-26T11:25:02.39Z</time></trkpt><trkpt lat="45.9099921" lon="11.6482336"><ele>1182.0</ele><time>2026-04-26T11:25:03.39Z</time></trkpt><trkpt lat="45.9100592" lon="11.6484293"><ele>1182.0</ele><time>2026-04-26T11:25:04.389Z</time></trkpt><trkpt lat="45.910137" lon="11.648606"><ele>1182.0</ele><time>2026-04-26T11:25:05.391Z</time></trkpt><trkpt lat="45.9102028" lon="11.6487411"><ele>1182.0</ele><time>2026-04-26T11:25:06.193Z</time></trkpt><trkpt lat="45.9103109" lon="11.6489293"><ele>1183.6666666666667</ele><time>2026-04-26T11:25:07.392Z</time></trkpt><trkpt lat="45.9104182" lon="11.6490724"><ele>1185.3333333333335</ele><time>2026-04-26T11:25:08.39Z</time></trkpt><trkpt lat="45.9105398" lon="11.6492102"><ele>1187.0</ele><time>2026-04-26T11:25:09.39Z</time></trkpt><trkpt lat="45.9107658" lon="11.6494825"><ele>1186.8</ele><time>2026-04-26T11:25:11.389Z</time></trkpt><trkpt lat="45.9108652" lon="11.6496124"><ele>1186.6</ele><time>2026-04-26T11:25:12.39Z</time></trkpt><trkpt lat="45.9109511" lon="11.6497129"><ele>1186.3999999999999</ele><time>2026-04-26T11:25:13.391Z</time></trkpt><trkpt lat="45.9110293" lon="11.6497783"><ele>1186.2</ele><time>2026-04-26T11:25:14.393Z</time></trkpt><trkpt lat="45.9110986" lon="11.6498247"><ele>1186.0</ele><time>2026-04-26T11:25:15.394Z</time></trkpt><trkpt lat="45.9111802" lon="11.6499383"><ele>1186.0</ele><time>2026-04-26T11:25:17.392Z</time></trkpt><trkpt lat="45.911136" lon="11.6500245"><ele>1186.0</ele><time>2026-04-26T11:25:19.393Z</time></trkpt><trkpt lat="45.9110739" lon="11.6500044"><ele>1186.0</ele><time>2026-04-26T11:25:20.393Z</time></trkpt><trkpt lat="45.9109849" lon="11.6499236"><ele>1186.0</ele><time>2026-04-26T11:25:21.393Z</time></trkpt><trkpt lat="45.9108592" lon="11.6498145"><ele>1186.0</ele><time>2026-04-26T11:25:22.394Z</time></trkpt><trkpt lat="45.9106999" lon="11.6497073"><ele>1186.3333333333333</ele><time>2026-04-26T11:25:23.392Z</time></trkpt><trkpt lat="45.9105328" lon="11.6496144"><ele>1186.6666666666667</ele><time>2026-04-26T11:25:24.393Z</time></trkpt><trkpt lat="45.9103674" lon="11.6495404"><ele>1187.0</ele><time>2026-04-26T11:25:25.392Z</time></trkpt><trkpt lat="45.9102146" lon="11.6494373"><ele>1176.0</ele><time>2026-04-26T11:25:26.393Z</time></trkpt><trkpt lat="45.9100623" lon="11.6493065"><ele>1165.0</ele><time>2026-04-26T11:25:27.394Z</time></trkpt><trkpt lat="45.9099183" lon="11.6491729"><ele>1154.0</ele><time>2026-04-26T11:25:28.394Z</time></trkpt><trkpt lat="45.9097879" lon="11.6490378"><ele>1154.0</ele><time>2026-04-26T11:25:29.393Z</time></trkpt><trkpt lat="45.9096711" lon="11.6488985"><ele>1154.0</ele><time>2026-04-26T11:25:30.394Z</time></trkpt><trkpt lat="45.9094717" lon="11.6486025"><ele>1154.0</ele><time>2026-04-26T11:25:32.393Z</time></trkpt><trkpt lat="45.9093646" lon="11.6484825"><ele>1151.25</ele><time>2026-04-26T11:25:33.39Z</time></trkpt><trkpt lat="45.9092339" lon="11.6484081"><ele>1148.5</ele><time>2026-04-26T11:25:34.389Z</time></trkpt><trkpt lat="45.9090922" lon="11.6483463"><ele>1145.75</ele><time>2026-04-26T11:25:35.39Z</time></trkpt><trkpt lat="45.9089671" lon="11.6482562"><ele>1143.0</ele><time>2026-04-26T11:25:36.391Z</time></trkpt><trkpt lat="45.9088582" lon="11.6481409"><ele>1143.0</ele><time>2026-04-26T11:25:37.392Z</time></trkpt><trkpt lat="45.908757" lon="11.6480169"><ele>1143.0</ele><time>2026-04-26T11:25:38.393Z</time></trkpt><trkpt lat="45.908639" lon="11.6479084"><ele>1143.0</ele><time>2026-04-26T11:25:39.395Z</time></trkpt><trkpt lat="45.9085026" lon="11.6478067"><ele>1143.0</ele><time>2026-04-26T11:25:40.395Z</time></trkpt><trkpt lat="45.908365" lon="11.6477136"><ele>1139.25</ele><time>2026-04-26T11:25:41.395Z</time></trkpt><trkpt lat="45.908235" lon="11.6476196"><ele>1135.5</ele><time>2026-04-26T11:25:42.394Z</time></trkpt><trkpt lat="45.9081115" lon="11.6475052"><ele>1131.75</ele><time>2026-04-26T11:25:43.394Z</time></trkpt><trkpt lat="45.9079879" lon="11.6473748"><ele>1128.0</ele><time>2026-04-26T11:25:44.395Z</time></trkpt><trkpt lat="45.9078601" lon="11.6472543"><ele>1128.0</ele><time>2026-04-26T11:25:45.397Z</time></trkpt><trkpt lat="45.9077294" lon="11.6471591"><ele>1128.0</ele><time>2026-04-26T11:25:46.397Z</time></trkpt><trkpt lat="45.9075987" lon="11.6470879"><ele>1128.0</ele><time>2026-04-26T11:25:47.395Z</time></trkpt><trkpt lat="45.9074683" lon="11.6470225"><ele>1128.0</ele><time>2026-04-26T11:25:48.397Z</time></trkpt><trkpt lat="45.9073385" lon="11.6469334"><ele>1129.0</ele><time>2026-04-26T11:25:49.395Z</time></trkpt><trkpt lat="45.9072075" lon="11.6468122"><ele>1130.0</ele><time>2026-04-26T11:25:50.395Z</time></trkpt><trkpt lat="45.9070637" lon="11.6466816"><ele>1131.0</ele><time>2026-04-26T11:25:51.397Z</time></trkpt><trkpt lat="45.9067639" lon="11.6464418"><ele>1128.25</ele><time>2026-04-26T11:25:53.396Z</time></trkpt><trkpt lat="45.9066292" lon="11.6463237"><ele>1125.5</ele><time>2026-04-26T11:25:54.396Z</time></trkpt><trkpt lat="45.9065067" lon="11.6462055"><ele>1122.75</ele><time>2026-04-26T11:25:55.397Z</time></trkpt><trkpt lat="45.9063937" lon="11.646088"><ele>1120.0</ele><time>2026-04-26T11:25:56.396Z</time></trkpt><trkpt lat="45.9062898" lon="11.6459785"><ele>1120.0</ele><time>2026-04-26T11:25:57.397Z</time></trkpt><trkpt lat="45.9061922" lon="11.645886"><ele>1120.0</ele><time>2026-04-26T11:25:58.395Z</time></trkpt><trkpt lat="45.9060862" lon="11.6458231"><ele>1120.0</ele><time>2026-04-26T11:25:59.393Z</time></trkpt><trkpt lat="45.9059676" lon="11.6457985"><ele>1120.0</ele><time>2026-04-26T11:26:00.392Z</time></trkpt><trkpt lat="45.9058485" lon="11.6457993"><ele>1116.1666666666665</ele><time>2026-04-26T11:26:01.412Z</time></trkpt><trkpt lat="45.9057513" lon="11.6458026"><ele>1112.3333333333333</ele><time>2026-04-26T11:26:02.393Z</time></trkpt><trkpt lat="45.9056677" lon="11.6458012"><ele>1108.5</ele><time>2026-04-26T11:26:03.396Z</time></trkpt><trkpt lat="45.9055918" lon="11.6457865"><ele>1104.6666666666667</ele><time>2026-04-26T11:26:04.395Z</time></trkpt><trkpt lat="45.9055316" lon="11.6457279"><ele>1100.8333333333335</ele><time>2026-04-26T11:26:05.395Z</time></trkpt><trkpt lat="45.9054901" lon="11.6456396"><ele>1097.0</ele><time>2026-04-26T11:26:06.395Z</time></trkpt><trkpt lat="45.9054565" lon="11.6455463"><ele>1097.0</ele><time>2026-04-26T11:26:07.397Z</time></trkpt><trkpt lat="45.9054203" lon="11.6454065"><ele>1097.0</ele><time>2026-04-26T11:26:09.396Z</time></trkpt><trkpt lat="45.9054019" lon="11.6452983"><ele>1097.0</ele><time>2026-04-26T11:26:12.397Z</time></trkpt><trkpt lat="45.9053777" lon="11.6450718"><ele>1097.0</ele><time>2026-04-26T11:26:16.394Z</time></trkpt><trkpt lat="45.9053676" lon="11.6449184"><ele>1097.0</ele><time>2026-04-26T11:26:17.394Z</time></trkpt><trkpt lat="45.9053548" lon="11.6447344"><ele>1099.25</ele><time>2026-04-26T11:26:18.395Z</time></trkpt><trkpt lat="45.9053379" lon="11.6445371"><ele>1101.5</ele><time>2026-04-26T11:26:19.394Z</time></trkpt><trkpt lat="45.9053238" lon="11.6443383"><ele>1103.75</ele><time>2026-04-26T11:26:20.393Z</time></trkpt><trkpt lat="45.9053141" lon="11.6441421"><ele>1106.0</ele><time>2026-04-26T11:26:21.394Z</time></trkpt><trkpt lat="45.905311" lon="11.6439409"><ele>1109.6666666666667</ele><time>2026-04-26T11:26:22.392Z</time></trkpt><trkpt lat="45.9053179" lon="11.6437332"><ele>1113.3333333333333</ele><time>2026-04-26T11:26:23.391Z</time></trkpt><trkpt lat="45.9053315" lon="11.6435141"><ele>1117.0</ele><time>2026-04-26T11:26:24.392Z</time></trkpt><trkpt lat="45.9053481" lon="11.6432827"><ele>1118.6666666666665</ele><time>2026-04-26T11:26:25.392Z</time></trkpt><trkpt lat="45.9053633" lon="11.6430331"><ele>1120.3333333333333</ele><time>2026-04-26T11:26:26.393Z</time></trkpt><trkpt lat="45.9053786" lon="11.6427829"><ele>1122.0</ele><time>2026-04-26T11:26:27.394Z</time></trkpt><trkpt lat="45.9053924" lon="11.6425523"><ele>1122.0</ele><time>2026-04-26T11:26:28.392Z</time></trkpt><trkpt lat="45.9054065" lon="11.642336"><ele>1122.0</ele><time>2026-04-26T11:26:29.393Z</time></trkpt><trkpt lat="45.9054332" lon="11.6421161"><ele>1122.0</ele><time>2026-04-26T11:26:30.392Z</time></trkpt><trkpt lat="45.9054793" lon="11.6418957"><ele>1121.0</ele><time>2026-04-26T11:26:31.395Z</time></trkpt><trkpt lat="45.9055529" lon="11.6416731"><ele>1120.0</ele><time>2026-04-26T11:26:32.392Z</time></trkpt><trkpt lat="45.9056337" lon="11.6414413"><ele>1119.0</ele><time>2026-04-26T11:26:33.394Z</time></trkpt><trkpt lat="45.9057455" lon="11.6409898"><ele>1114.3333333333333</ele><time>2026-04-26T11:26:35.39Z</time></trkpt><trkpt lat="45.9057934" lon="11.6407784"><ele>1109.6666666666665</ele><time>2026-04-26T11:26:36.391Z</time></trkpt><trkpt lat="45.9058489" lon="11.6405712"><ele>1105.0</ele><time>2026-04-26T11:26:37.392Z</time></trkpt><trkpt lat="45.9059263" lon="11.6403634"><ele>1114.0</ele><time>2026-04-26T11:26:38.393Z</time></trkpt><trkpt lat="45.9060259" lon="11.640158"><ele>1123.0</ele><time>2026-04-26T11:26:39.391Z</time></trkpt><trkpt lat="45.9061154" lon="11.6399517"><ele>1132.0</ele><time>2026-04-26T11:26:40.391Z</time></trkpt><trkpt lat="45.9061871" lon="11.6397538"><ele>1132.0</ele><time>2026-04-26T11:26:41.39Z</time></trkpt><trkpt lat="45.9062562" lon="11.6395753"><ele>1132.0</ele><time>2026-04-26T11:26:42.392Z</time></trkpt><trkpt lat="45.9063561" lon="11.6394373"><ele>1132.0</ele><time>2026-04-26T11:26:43.389Z</time></trkpt><trkpt lat="45.9064784" lon="11.6393272"><ele>1132.0</ele><time>2026-04-26T11:26:44.39Z</time></trkpt><trkpt lat="45.9066229" lon="11.6391947"><ele>1138.3333333333333</ele><time>2026-04-26T11:26:45.391Z</time></trkpt><trkpt lat="45.9067631" lon="11.6390392"><ele>1144.6666666666667</ele><time>2026-04-26T11:26:46.388Z</time></trkpt><trkpt lat="45.906865" lon="11.6388982"><ele>1151.0</ele><time>2026-04-26T11:26:47.191Z</time></trkpt><trkpt lat="45.9069939" lon="11.638682"><ele>1144.0</ele><time>2026-04-26T11:26:48.391Z</time></trkpt><trkpt lat="45.9070908" lon="11.6385094"><ele>1137.0</ele><time>2026-04-26T11:26:49.39Z</time></trkpt><trkpt lat="45.9071801" lon="11.6383377"><ele>1130.0</ele><time>2026-04-26T11:26:50.39Z</time></trkpt><trkpt lat="45.9072602" lon="11.6381665"><ele>1123.0</ele><time>2026-04-26T11:26:51.392Z</time></trkpt><trkpt lat="45.9073197" lon="11.637995"><ele>1123.0</ele><time>2026-04-26T11:26:52.391Z</time></trkpt><trkpt lat="45.9073573" lon="11.637813"><ele>1123.0</ele><time>2026-04-26T11:26:53.392Z</time></trkpt><trkpt lat="45.9073637" lon="11.637618"><ele>1123.0</ele><time>2026-04-26T11:26:54.391Z</time></trkpt><trkpt lat="45.907248" lon="11.6372259"><ele>1125.3333333333333</ele><time>2026-04-26T11:26:56.395Z</time></trkpt><trkpt lat="45.9071252" lon="11.6370516"><ele>1127.6666666666667</ele><time>2026-04-26T11:26:57.393Z</time></trkpt><trkpt lat="45.9069907" lon="11.636898"><ele>1130.0</ele><time>2026-04-26T11:26:58.391Z</time></trkpt><trkpt lat="45.9068678" lon="11.6367507"><ele>1130.0</ele><time>2026-04-26T11:26:59.395Z</time></trkpt><trkpt lat="45.9067647" lon="11.6365991"><ele>1130.0</ele><time>2026-04-26T11:27:00.392Z</time></trkpt><trkpt lat="45.9066802" lon="11.6364185"><ele>1130.0</ele><time>2026-04-26T11:27:01.389Z</time></trkpt><trkpt lat="45.9066214" lon="11.6362008"><ele>1122.0</ele><time>2026-04-26T11:27:02.394Z</time></trkpt><trkpt lat="45.9065684" lon="11.6359569"><ele>1114.0</ele><time>2026-04-26T11:27:03.393Z</time></trkpt><trkpt lat="45.9065308" lon="11.6356891"><ele>1106.0</ele><time>2026-04-26T11:27:04.392Z</time></trkpt><trkpt lat="45.9064975" lon="11.6354031"><ele>1109.3333333333335</ele><time>2026-04-26T11:27:05.392Z</time></trkpt><trkpt lat="45.9064635" lon="11.6351086"><ele>1112.6666666666667</ele><time>2026-04-26T11:27:06.392Z</time></trkpt><trkpt lat="45.9064238" lon="11.6348182"><ele>1116.0</ele><time>2026-04-26T11:27:07.393Z</time></trkpt><trkpt lat="45.906372" lon="11.6345465"><ele>1118.6666666666667</ele><time>2026-04-26T11:27:08.393Z</time></trkpt><trkpt lat="45.906319" lon="11.6342875"><ele>1121.3333333333335</ele><time>2026-04-26T11:27:09.392Z</time></trkpt><trkpt lat="45.906285" lon="11.6340875"><ele>1124.0</ele><time>2026-04-26T11:27:10.192Z</time></trkpt><trkpt lat="45.9062509" lon="11.6337963"><ele>1126.6666666666667</ele><time>2026-04-26T11:27:11.391Z</time></trkpt><trkpt lat="45.9062286" lon="11.6335651"><ele>1129.3333333333333</ele><time>2026-04-26T11:27:12.392Z</time></trkpt><trkpt lat="45.9062008" lon="11.6333488"><ele>1132.0</ele><time>2026-04-26T11:27:13.393Z</time></trkpt><trkpt lat="45.9061605" lon="11.6331517"><ele>1132.0</ele><time>2026-04-26T11:27:14.393Z</time></trkpt><trkpt lat="45.9061056" lon="11.6329827"><ele>1132.0</ele><time>2026-04-26T11:27:15.393Z</time></trkpt><trkpt lat="45.9059471" lon="11.6327716"><ele>1132.0</ele><time>2026-04-26T11:27:17.393Z</time></trkpt><trkpt lat="45.9058371" lon="11.6327528"><ele>1128.5</ele><time>2026-04-26T11:27:18.393Z</time></trkpt><trkpt lat="45.9057127" lon="11.6327999"><ele>1125.0</ele><time>2026-04-26T11:27:19.393Z</time></trkpt><trkpt lat="45.9055852" lon="11.6329138"><ele>1121.5</ele><time>2026-04-26T11:27:20.391Z</time></trkpt><trkpt lat="45.9054708" lon="11.6330564"><ele>1118.0</ele><time>2026-04-26T11:27:21.39Z</time></trkpt><trkpt lat="45.9053746" lon="11.6331805"><ele>1113.0</ele><time>2026-04-26T11:27:22.392Z</time></trkpt><trkpt lat="45.9052902" lon="11.6332852"><ele>1108.0</ele><time>2026-04-26T11:27:23.392Z</time></trkpt><trkpt lat="45.9052043" lon="11.6333577"><ele>1103.0</ele><time>2026-04-26T11:27:24.394Z</time></trkpt><trkpt lat="45.9051112" lon="11.63338"><ele>1098.0</ele><time>2026-04-26T11:27:25.394Z</time></trkpt><trkpt lat="45.9050144" lon="11.6333233"><ele>1093.0</ele><time>2026-04-26T11:27:26.393Z</time></trkpt><trkpt lat="45.9049201" lon="11.6331994"><ele>1091.6666666666665</ele><time>2026-04-26T11:27:27.396Z</time></trkpt><trkpt lat="45.904825" lon="11.6330211"><ele>1090.3333333333333</ele><time>2026-04-26T11:27:28.393Z</time></trkpt><trkpt lat="45.9047208" lon="11.6328036"><ele>1089.0</ele><time>2026-04-26T11:27:29.393Z</time></trkpt><trkpt lat="45.9046077" lon="11.6325712"><ele>1096.6666666666667</ele><time>2026-04-26T11:27:30.395Z</time></trkpt><trkpt lat="45.9044965" lon="11.6323511"><ele>1104.3333333333335</ele><time>2026-04-26T11:27:31.395Z</time></trkpt><trkpt lat="45.904386" lon="11.6321509"><ele>1112.0</ele><time>2026-04-26T11:27:32.394Z</time></trkpt><trkpt lat="45.9042637" lon="11.6319819"><ele>1110.3333333333335</ele><time>2026-04-26T11:27:33.394Z</time></trkpt><trkpt lat="45.9041165" lon="11.6318537"><ele>1108.6666666666667</ele><time>2026-04-26T11:27:34.397Z</time></trkpt><trkpt lat="45.9039607" lon="11.6317722"><ele>1107.0</ele><time>2026-04-26T11:27:35.393Z</time></trkpt><trkpt lat="45.9038066" lon="11.631715"><ele>1107.0</ele><time>2026-04-26T11:27:36.39Z</time></trkpt><trkpt lat="45.9034953" lon="11.6315505"><ele>1107.0</ele><time>2026-04-26T11:27:38.39Z</time></trkpt><trkpt lat="45.9033352" lon="11.6314502"><ele>1099.6666666666667</ele><time>2026-04-26T11:27:39.393Z</time></trkpt><trkpt lat="45.903184" lon="11.6313558"><ele>1092.3333333333335</ele><time>2026-04-26T11:27:40.394Z</time></trkpt><trkpt lat="45.9030424" lon="11.631267"><ele>1085.0</ele><time>2026-04-26T11:27:41.394Z</time></trkpt><trkpt lat="45.9029155" lon="11.6311689"><ele>1083.75</ele><time>2026-04-26T11:27:42.395Z</time></trkpt><trkpt lat="45.9028017" lon="11.6310543"><ele>1082.5</ele><time>2026-04-26T11:27:43.396Z</time></trkpt><trkpt lat="45.9026957" lon="11.6309148"><ele>1081.25</ele><time>2026-04-26T11:27:44.397Z</time></trkpt><trkpt lat="45.9025922" lon="11.6307608"><ele>1080.0</ele><time>2026-04-26T11:27:45.398Z</time></trkpt><trkpt lat="45.9024905" lon="11.630606"><ele>1080.0</ele><time>2026-04-26T11:27:46.396Z</time></trkpt><trkpt lat="45.9023989" lon="11.630448"><ele>1080.0</ele><time>2026-04-26T11:27:47.397Z</time></trkpt><trkpt lat="45.9023199" lon="11.6302875"><ele>1080.0</ele><time>2026-04-26T11:27:48.397Z</time></trkpt><trkpt lat="45.9022441" lon="11.6301356"><ele>1080.0</ele><time>2026-04-26T11:27:49.395Z</time></trkpt><trkpt lat="45.9021462" lon="11.6300112"><ele>1081.5</ele><time>2026-04-26T11:27:50.396Z</time></trkpt><trkpt lat="45.9020194" lon="11.6299342"><ele>1083.0</ele><time>2026-04-26T11:27:51.396Z</time></trkpt><trkpt lat="45.9018708" lon="11.6299131"><ele>1084.5</ele><time>2026-04-26T11:27:52.395Z</time></trkpt><trkpt lat="45.9017095" lon="11.629933"><ele>1086.0</ele><time>2026-04-26T11:27:53.397Z</time></trkpt><trkpt lat="45.9015558" lon="11.6299557"><ele>1086.0</ele><time>2026-04-26T11:27:54.395Z</time></trkpt><trkpt lat="45.9014093" lon="11.6299692"><ele>1086.0</ele><time>2026-04-26T11:27:55.398Z</time></trkpt><trkpt lat="45.9012665" lon="11.6299764"><ele>1086.0</ele><time>2026-04-26T11:27:56.394Z</time></trkpt><trkpt lat="45.901119" lon="11.6299738"><ele>1086.0</ele><time>2026-04-26T11:27:57.396Z</time></trkpt><trkpt lat="45.9008217" lon="11.6299259"><ele>1084.25</ele><time>2026-04-26T11:27:59.394Z</time></trkpt><trkpt lat="45.9006844" lon="11.6298922"><ele>1082.5</ele><time>2026-04-26T11:28:00.394Z</time></trkpt><trkpt lat="45.9005523" lon="11.629863"><ele>1080.75</ele><time>2026-04-26T11:28:01.395Z</time></trkpt><trkpt lat="45.900423" lon="11.6298399"><ele>1079.0</ele><time>2026-04-26T11:28:02.395Z</time></trkpt><trkpt lat="45.9002935" lon="11.6298305"><ele>1079.0</ele><time>2026-04-26T11:28:03.395Z</time></trkpt><trkpt lat="45.9001607" lon="11.629835"><ele>1079.0</ele><time>2026-04-26T11:28:04.396Z</time></trkpt><trkpt lat="45.9000254" lon="11.6298575"><ele>1079.0</ele><time>2026-04-26T11:28:05.396Z</time></trkpt><trkpt lat="45.8998889" lon="11.6298897"><ele>1079.0</ele><time>2026-04-26T11:28:06.395Z</time></trkpt><trkpt lat="45.8997526" lon="11.6299257"><ele>1079.0</ele><time>2026-04-26T11:28:07.397Z</time></trkpt><trkpt lat="45.8996162" lon="11.6299619"><ele>1079.0</ele><time>2026-04-26T11:28:08.399Z</time></trkpt><trkpt lat="45.8994789" lon="11.6299988"><ele>1079.0</ele><time>2026-04-26T11:28:09.396Z</time></trkpt><trkpt lat="45.899342" lon="11.6300324"><ele>1079.0</ele><time>2026-04-26T11:28:10.396Z</time></trkpt><trkpt lat="45.899207" lon="11.6300638"><ele>1081.0</ele><time>2026-04-26T11:28:11.397Z</time></trkpt><trkpt lat="45.899072" lon="11.6300967"><ele>1083.0</ele><time>2026-04-26T11:28:12.397Z</time></trkpt><trkpt lat="45.8989378" lon="11.6301326"><ele>1085.0</ele><time>2026-04-26T11:28:13.397Z</time></trkpt><trkpt lat="45.8988095" lon="11.6301672"><ele>1087.0</ele><time>2026-04-26T11:28:14.398Z</time></trkpt><trkpt lat="45.8986879" lon="11.630198"><ele>1087.0</ele><time>2026-04-26T11:28:15.395Z</time></trkpt><trkpt lat="45.8985684" lon="11.6302301"><ele>1087.0</ele><time>2026-04-26T11:28:16.396Z</time></trkpt><trkpt lat="45.8984487" lon="11.6302614"><ele>1087.0</ele><time>2026-04-26T11:28:17.396Z</time></trkpt><trkpt lat="45.8983263" lon="11.6302919"><ele>1087.0</ele><time>2026-04-26T11:28:18.397Z</time></trkpt><trkpt lat="45.8980885" lon="11.6303517"><ele>1087.8</ele><time>2026-04-26T11:28:20.395Z</time></trkpt><trkpt lat="45.8979742" lon="11.6303838"><ele>1088.6</ele><time>2026-04-26T11:28:21.395Z</time></trkpt><trkpt lat="45.8978604" lon="11.6304161"><ele>1089.3999999999999</ele><time>2026-04-26T11:28:22.395Z</time></trkpt><trkpt lat="45.8977533" lon="11.6304453"><ele>1090.2</ele><time>2026-04-26T11:28:23.396Z</time></trkpt><trkpt lat="45.8976595" lon="11.6304748"><ele>1091.0</ele><time>2026-04-26T11:28:24.395Z</time></trkpt><trkpt lat="45.8975799" lon="11.6305164"><ele>1091.0</ele><time>2026-04-26T11:28:25.394Z</time></trkpt><trkpt lat="45.8975066" lon="11.630566"><ele>1091.0</ele><time>2026-04-26T11:28:26.392Z</time></trkpt><trkpt lat="45.8974295" lon="11.6306109"><ele>1091.0</ele><time>2026-04-26T11:28:27.393Z</time></trkpt><trkpt lat="45.8973468" lon="11.6306392"><ele>1091.0</ele><time>2026-04-26T11:28:28.397Z</time></trkpt><trkpt lat="45.8972515" lon="11.6306455"><ele>1091.0</ele><time>2026-04-26T11:28:29.396Z</time></trkpt><trkpt lat="45.8971479" lon="11.6306517"><ele>1091.0</ele><time>2026-04-26T11:28:30.396Z</time></trkpt><trkpt lat="45.8970454" lon="11.6306658"><ele>1091.0</ele><time>2026-04-26T11:28:31.397Z</time></trkpt><trkpt lat="45.896945" lon="11.6306773"><ele>1091.0</ele><time>2026-04-26T11:28:32.398Z</time></trkpt><trkpt lat="45.8968504" lon="11.6306844"><ele>1091.0</ele><time>2026-04-26T11:28:33.396Z</time></trkpt><trkpt lat="45.8967604" lon="11.6306921"><ele>1091.0</ele><time>2026-04-26T11:28:34.396Z</time></trkpt><trkpt lat="45.8966747" lon="11.630705"><ele>1091.0</ele><time>2026-04-26T11:28:35.397Z</time></trkpt><trkpt lat="45.8965974" lon="11.6307086"><ele>1091.0</ele><time>2026-04-26T11:28:36.396Z</time></trkpt><trkpt lat="45.8965368" lon="11.6306761"><ele>1088.6666666666667</ele><time>2026-04-26T11:28:37.394Z</time></trkpt><trkpt lat="45.8964952" lon="11.6305022"><ele>1086.3333333333333</ele><time>2026-04-26T11:28:39.398Z</time></trkpt><trkpt lat="45.8965875" lon="11.6302525"><ele>1084.0</ele><time>2026-04-26T11:28:41.392Z</time></trkpt><trkpt lat="45.8966959" lon="11.6301036"><ele>1085.6666666666665</ele><time>2026-04-26T11:28:42.395Z</time></trkpt><trkpt lat="45.896822" lon="11.6299371"><ele>1087.3333333333333</ele><time>2026-04-26T11:28:43.393Z</time></trkpt><trkpt lat="45.8969544" lon="11.6297627"><ele>1089.0</ele><time>2026-04-26T11:28:44.394Z</time></trkpt><trkpt lat="45.8970932" lon="11.6295863"><ele>1084.0</ele><time>2026-04-26T11:28:45.397Z</time></trkpt><trkpt lat="45.8972327" lon="11.6294197"><ele>1079.0</ele><time>2026-04-26T11:28:46.396Z</time></trkpt><trkpt lat="45.8973759" lon="11.6292596"><ele>1074.0</ele><time>2026-04-26T11:28:47.395Z</time></trkpt><trkpt lat="45.8975273" lon="11.6291014"><ele>1077.3333333333333</ele><time>2026-04-26T11:28:48.394Z</time></trkpt><trkpt lat="45.8976775" lon="11.628947"><ele>1080.6666666666665</ele><time>2026-04-26T11:28:49.392Z</time></trkpt><trkpt lat="45.8978257" lon="11.6288047"><ele>1084.0</ele><time>2026-04-26T11:28:50.392Z</time></trkpt><trkpt lat="45.8979786" lon="11.6286895"><ele>1078.0</ele><time>2026-04-26T11:28:51.392Z</time></trkpt><trkpt lat="45.8981419" lon="11.6285917"><ele>1072.0</ele><time>2026-04-26T11:28:52.392Z</time></trkpt><trkpt lat="45.8983141" lon="11.6284903"><ele>1066.0</ele><time>2026-04-26T11:28:53.395Z</time></trkpt><trkpt lat="45.898486" lon="11.628384"><ele>1066.0</ele><time>2026-04-26T11:28:54.398Z</time></trkpt><trkpt lat="45.8986502" lon="11.6282777"><ele>1066.0</ele><time>2026-04-26T11:28:55.397Z</time></trkpt><trkpt lat="45.8988044" lon="11.6281665"><ele>1066.0</ele><time>2026-04-26T11:28:56.395Z</time></trkpt><trkpt lat="45.8989486" lon="11.6280653"><ele>1066.0</ele><time>2026-04-26T11:28:57.396Z</time></trkpt><trkpt lat="45.8990788" lon="11.6279805"><ele>1066.0</ele><time>2026-04-26T11:28:58.396Z</time></trkpt><trkpt lat="45.8991904" lon="11.6279024"><ele>1066.0</ele><time>2026-04-26T11:28:59.394Z</time></trkpt><trkpt lat="45.8992806" lon="11.6278126"><ele>1066.0</ele><time>2026-04-26T11:29:00.395Z</time></trkpt><trkpt lat="45.8993717" lon="11.6275261"><ele>1066.6</ele><time>2026-04-26T11:29:02.397Z</time></trkpt><trkpt lat="45.8993567" lon="11.6273614"><ele>1067.1999999999998</ele><time>2026-04-26T11:29:03.402Z</time></trkpt><trkpt lat="45.8993153" lon="11.6272139"><ele>1067.8000000000002</ele><time>2026-04-26T11:29:04.397Z</time></trkpt><trkpt lat="45.8992843" lon="11.6270696"><ele>1068.4</ele><time>2026-04-26T11:29:05.395Z</time></trkpt><trkpt lat="45.8992929" lon="11.6269128"><ele>1069.0</ele><time>2026-04-26T11:29:06.397Z</time></trkpt><trkpt lat="45.8993389" lon="11.626739"><ele>1068.0</ele><time>2026-04-26T11:29:07.398Z</time></trkpt><trkpt lat="45.8994073" lon="11.6265412"><ele>1067.0</ele><time>2026-04-26T11:29:08.394Z</time></trkpt><trkpt lat="45.89947" lon="11.6263156"><ele>1066.0</ele><time>2026-04-26T11:29:09.399Z</time></trkpt><trkpt lat="45.8995055" lon="11.6260869"><ele>1066.0</ele><time>2026-04-26T11:29:10.396Z</time></trkpt><trkpt lat="45.899527" lon="11.6258649"><ele>1066.0</ele><time>2026-04-26T11:29:11.396Z</time></trkpt><trkpt lat="45.8995479" lon="11.6256573"><ele>1066.0</ele><time>2026-04-26T11:29:12.396Z</time></trkpt><trkpt lat="45.8995854" lon="11.6254684"><ele>1066.0</ele><time>2026-04-26T11:29:13.394Z</time></trkpt><trkpt lat="45.8996547" lon="11.6252981"><ele>1063.25</ele><time>2026-04-26T11:29:14.393Z</time></trkpt><trkpt lat="45.8997518" lon="11.6251555"><ele>1060.5</ele><time>2026-04-26T11:29:15.392Z</time></trkpt><trkpt lat="45.8998758" lon="11.6250605"><ele>1057.75</ele><time>2026-04-26T11:29:16.393Z</time></trkpt><trkpt lat="45.9000164" lon="11.6250118"><ele>1055.0</ele><time>2026-04-26T11:29:17.394Z</time></trkpt><trkpt lat="45.9001571" lon="11.6250057"><ele>1055.0</ele><time>2026-04-26T11:29:18.395Z</time></trkpt><trkpt lat="45.900293" lon="11.625018"><ele>1055.0</ele><time>2026-04-26T11:29:19.394Z</time></trkpt><trkpt lat="45.9004182" lon="11.6250212"><ele>1055.0</ele><time>2026-04-26T11:29:20.393Z</time></trkpt><trkpt lat="45.9005321" lon="11.6249935"><ele>1055.0</ele><time>2026-04-26T11:29:21.396Z</time></trkpt><trkpt lat="45.9006874" lon="11.6247766"><ele>1055.0</ele><time>2026-04-26T11:29:23.394Z</time></trkpt><trkpt lat="45.9007092" lon="11.6246143"><ele>1055.0</ele><time>2026-04-26T11:29:24.394Z</time></trkpt><trkpt lat="45.9006969" lon="11.6244353"><ele>1055.0</ele><time>2026-04-26T11:29:25.397Z</time></trkpt><trkpt lat="45.9006701" lon="11.6242367"><ele>1055.0</ele><time>2026-04-26T11:29:26.394Z</time></trkpt><trkpt lat="45.9006559" lon="11.6241081"><ele>1053.6666666666667</ele><time>2026-04-26T11:29:26.995Z</time></trkpt><trkpt lat="45.9006309" lon="11.6237837"><ele>1052.3333333333333</ele><time>2026-04-26T11:29:28.395Z</time></trkpt><trkpt lat="45.9006201" lon="11.6235526"><ele>1051.0</ele><time>2026-04-26T11:29:29.394Z</time></trkpt><trkpt lat="45.9006324" lon="11.6233168"><ele>1050.6666666666665</ele><time>2026-04-26T11:29:30.394Z</time></trkpt><trkpt lat="45.9006629" lon="11.623068"><ele>1050.3333333333333</ele><time>2026-04-26T11:29:31.397Z</time></trkpt><trkpt lat="45.9006896" lon="11.6228085"><ele>1050.0</ele><time>2026-04-26T11:29:32.397Z</time></trkpt><trkpt lat="45.9006938" lon="11.6225488"><ele>1051.6666666666667</ele><time>2026-04-26T11:29:33.394Z</time></trkpt><trkpt lat="45.900667" lon="11.6222906"><ele>1053.3333333333335</ele><time>2026-04-26T11:29:34.394Z</time></trkpt><trkpt lat="45.9006079" lon="11.6220344"><ele>1055.0</ele><time>2026-04-26T11:29:35.395Z</time></trkpt><trkpt lat="45.9005147" lon="11.6217893"><ele>1056.6666666666667</ele><time>2026-04-26T11:29:36.4Z</time></trkpt><trkpt lat="45.9003934" lon="11.6215657"><ele>1058.3333333333333</ele><time>2026-04-26T11:29:37.395Z</time></trkpt><trkpt lat="45.9002501" lon="11.621357"><ele>1060.0</ele><time>2026-04-26T11:29:38.393Z</time></trkpt><trkpt lat="45.9000979" lon="11.6211498"><ele>1051.6666666666665</ele><time>2026-04-26T11:29:39.394Z</time></trkpt><trkpt lat="45.8999477" lon="11.6209393"><ele>1043.3333333333333</ele><time>2026-04-26T11:29:40.394Z</time></trkpt><trkpt lat="45.8998047" lon="11.6207361"><ele>1035.0</ele><time>2026-04-26T11:29:41.394Z</time></trkpt><trkpt lat="45.8996683" lon="11.6205407"><ele>1040.0</ele><time>2026-04-26T11:29:42.394Z</time></trkpt><trkpt lat="45.8994229" lon="11.6201853"><ele>1045.0</ele><time>2026-04-26T11:29:44.394Z</time></trkpt><trkpt lat="45.899318" lon="11.6200332"><ele>1040.8</ele><time>2026-04-26T11:29:45.395Z</time></trkpt><trkpt lat="45.8992195" lon="11.6198946"><ele>1036.6</ele><time>2026-04-26T11:29:46.396Z</time></trkpt><trkpt lat="45.8991373" lon="11.6197794"><ele>1032.4</ele><time>2026-04-26T11:29:47.398Z</time></trkpt><trkpt lat="45.8990749" lon="11.6196904"><ele>1028.2</ele><time>2026-04-26T11:29:48.397Z</time></trkpt><trkpt lat="45.8990173" lon="11.6196094"><ele>1024.0</ele><time>2026-04-26T11:29:49.395Z</time></trkpt><trkpt lat="45.8989655" lon="11.6195359"><ele>1024.0</ele><time>2026-04-26T11:29:50.395Z</time></trkpt><trkpt lat="45.8989198" lon="11.6194701"><ele>1024.0</ele><time>2026-04-26T11:29:51.396Z</time></trkpt><trkpt lat="45.8988476" lon="11.6194029"><ele>1024.0</ele><time>2026-04-26T11:29:53.397Z</time></trkpt><trkpt lat="45.8988516" lon="11.6195185"><ele>1024.0</ele><time>2026-04-26T11:29:56.395Z</time></trkpt><trkpt lat="45.8989661" lon="11.6196501"><ele>1024.0</ele><time>2026-04-26T11:29:58.395Z</time></trkpt><trkpt lat="45.8990453" lon="11.6197604"><ele>1024.0</ele><time>2026-04-26T11:29:59.397Z</time></trkpt><trkpt lat="45.8991307" lon="11.6198918"><ele>1024.0</ele><time>2026-04-26T11:30:00.395Z</time></trkpt><trkpt lat="45.8992085" lon="11.6200191"><ele>1024.0</ele><time>2026-04-26T11:30:01.394Z</time></trkpt><trkpt lat="45.8992759" lon="11.6201586"><ele>1024.0</ele><time>2026-04-26T11:30:02.395Z</time></trkpt><trkpt lat="45.8993345" lon="11.6203308"><ele>1026.75</ele><time>2026-04-26T11:30:03.395Z</time></trkpt><trkpt lat="45.8994431" lon="11.6206406"><ele>1029.5</ele><time>2026-04-26T11:30:05.396Z</time></trkpt><trkpt lat="45.8994988" lon="11.6207439"><ele>1032.25</ele><time>2026-04-26T11:30:06.395Z</time></trkpt><trkpt lat="45.8995412" lon="11.6208158"><ele>1035.0</ele><time>2026-04-26T11:30:07.397Z</time></trkpt><trkpt lat="45.8994873" lon="11.6208956"><ele>1035.0</ele><time>2026-04-26T11:30:10.395Z</time></trkpt><trkpt lat="45.8994359" lon="11.6208346"><ele>1035.0</ele><time>2026-04-26T11:30:11.395Z</time></trkpt><trkpt lat="45.8993639" lon="11.6207325"><ele>1035.0</ele><time>2026-04-26T11:30:12.396Z</time></trkpt><trkpt lat="45.8992703" lon="11.6206075"><ele>1035.0</ele><time>2026-04-26T11:30:13.398Z</time></trkpt><trkpt lat="45.8991787" lon="11.6204862"><ele>1035.0</ele><time>2026-04-26T11:30:14.396Z</time></trkpt><trkpt lat="45.8990937" lon="11.6203809"><ele>1033.1666666666667</ele><time>2026-04-26T11:30:15.397Z</time></trkpt><trkpt lat="45.8990251" lon="11.6202882"><ele>1031.3333333333333</ele><time>2026-04-26T11:30:16.397Z</time></trkpt><trkpt lat="45.8989758" lon="11.6202128"><ele>1029.5</ele><time>2026-04-26T11:30:17.397Z</time></trkpt><trkpt lat="45.8989052" lon="11.620171"><ele>1027.6666666666665</ele><time>2026-04-26T11:30:19.395Z</time></trkpt><trkpt lat="45.8989128" lon="11.6203"><ele>1025.8333333333333</ele><time>2026-04-26T11:30:21.396Z</time></trkpt><trkpt lat="45.898963" lon="11.6204133"><ele>1024.0</ele><time>2026-04-26T11:30:22.395Z</time></trkpt><trkpt lat="45.8990228" lon="11.6205515"><ele>1024.0</ele><time>2026-04-26T11:30:23.397Z</time></trkpt><trkpt lat="45.8990624" lon="11.6206969"><ele>1024.0</ele><time>2026-04-26T11:30:24.395Z</time></trkpt><trkpt lat="45.8991529" lon="11.6209827"><ele>1024.0</ele><time>2026-04-26T11:30:26.394Z</time></trkpt><trkpt lat="45.8992144" lon="11.6210805"><ele>1024.0</ele><time>2026-04-26T11:30:27.394Z</time></trkpt><trkpt lat="45.8992687" lon="11.6211827"><ele>1021.6</ele><time>2026-04-26T11:30:29.394Z</time></trkpt><trkpt lat="45.8992165" lon="11.6212376"><ele>1019.2</ele><time>2026-04-26T11:30:31.393Z</time></trkpt><trkpt lat="45.899161" lon="11.621193"><ele>1016.8000000000001</ele><time>2026-04-26T11:30:32.396Z</time></trkpt><trkpt lat="45.899075" lon="11.6211006"><ele>1014.4000000000001</ele><time>2026-04-26T11:30:33.395Z</time></trkpt><trkpt lat="45.8989723" lon="11.6209822"><ele>1012.0</ele><time>2026-04-26T11:30:34.396Z</time></trkpt><trkpt lat="45.898878" lon="11.6208592"><ele>1011.9999999999999</ele><time>2026-04-26T11:30:35.394Z</time></trkpt><trkpt lat="45.898797" lon="11.6207433"><ele>1012.0</ele><time>2026-04-26T11:30:36.395Z</time></trkpt><trkpt lat="45.898732" lon="11.620645"><ele>1012.0</ele><time>2026-04-26T11:30:37.397Z</time></trkpt><trkpt lat="45.8986892" lon="11.6205591"><ele>1012.0</ele><time>2026-04-26T11:30:38.395Z</time></trkpt><trkpt lat="45.8986204" lon="11.6204992"><ele>1011.9999999999999</ele><time>2026-04-26T11:30:40.395Z</time></trkpt><trkpt lat="45.8985985" lon="11.6205981"><ele>1012.0</ele><time>2026-04-26T11:30:42.396Z</time></trkpt><trkpt lat="45.8986399" lon="11.6206844"><ele>1012.0</ele><time>2026-04-26T11:30:43.395Z</time></trkpt><trkpt lat="45.8986894" lon="11.6208072"><ele>1012.0</ele><time>2026-04-26T11:30:44.395Z</time></trkpt><trkpt lat="45.8987318" lon="11.6209734"><ele>1012.0</ele><time>2026-04-26T11:30:45.395Z</time></trkpt><trkpt lat="45.898817" lon="11.6212947"><ele>1009.3333333333333</ele><time>2026-04-26T11:30:47.395Z</time></trkpt><trkpt lat="45.8988656" lon="11.6214137"><ele>1006.6666666666666</ele><time>2026-04-26T11:30:48.397Z</time></trkpt><trkpt lat="45.8989091" lon="11.6214883"><ele>1004.0</ele><time>2026-04-26T11:30:49.396Z</time></trkpt><trkpt lat="45.8989471" lon="11.6215805"><ele>1001.3333333333333</ele><time>2026-04-26T11:30:51.395Z</time></trkpt><trkpt lat="45.8988832" lon="11.6216058"><ele>998.6666666666666</ele><time>2026-04-26T11:30:53.395Z</time></trkpt><trkpt lat="45.8988237" lon="11.6215489"><ele>996.0</ele><time>2026-04-26T11:30:54.396Z</time></trkpt><trkpt lat="45.8987362" lon="11.6214561"><ele>996.0</ele><time>2026-04-26T11:30:55.396Z</time></trkpt><trkpt lat="45.8986279" lon="11.6213483"><ele>996.0</ele><time>2026-04-26T11:30:56.395Z</time></trkpt><trkpt lat="45.898526" lon="11.6212441"><ele>996.0</ele><time>2026-04-26T11:30:57.394Z</time></trkpt><trkpt lat="45.8984337" lon="11.6211423"><ele>996.0</ele><time>2026-04-26T11:30:58.392Z</time></trkpt><trkpt lat="45.8983512" lon="11.6210408"><ele>994.8333333333334</ele><time>2026-04-26T11:30:59.394Z</time></trkpt><trkpt lat="45.8982817" lon="11.6209361"><ele>993.6666666666667</ele><time>2026-04-26T11:31:00.394Z</time></trkpt><trkpt lat="45.8982205" lon="11.6208364"><ele>992.5</ele><time>2026-04-26T11:31:01.394Z</time></trkpt><trkpt lat="45.8981761" lon="11.6207438"><ele>991.3333333333334</ele><time>2026-04-26T11:31:02.395Z</time></trkpt><trkpt lat="45.8981429" lon="11.6206149"><ele>990.1666666666667</ele><time>2026-04-26T11:31:04.396Z</time></trkpt><trkpt lat="45.8980867" lon="11.6206861"><ele>989.0</ele><time>2026-04-26T11:31:07.396Z</time></trkpt><trkpt lat="45.8981668" lon="11.6210315"><ele>987.0</ele><time>2026-04-26T11:31:10.394Z</time></trkpt><trkpt lat="45.8981795" lon="11.6211748"><ele>985.0000000000001</ele><time>2026-04-26T11:31:11.394Z</time></trkpt><trkpt lat="45.8981968" lon="11.6213175"><ele>983.0000000000001</ele><time>2026-04-26T11:31:12.393Z</time></trkpt><trkpt lat="45.898233" lon="11.6214685"><ele>981.0</ele><time>2026-04-26T11:31:13.396Z</time></trkpt><trkpt lat="45.8982823" lon="11.6216276"><ele>979.0</ele><time>2026-04-26T11:31:14.396Z</time></trkpt><trkpt lat="45.8983394" lon="11.6217598"><ele>978.9999999999999</ele><time>2026-04-26T11:31:15.395Z</time></trkpt><trkpt lat="45.8983963" lon="11.6218551"><ele>979.0</ele><time>2026-04-26T11:31:16.394Z</time></trkpt><trkpt lat="45.8984432" lon="11.6219613"><ele>979.0</ele><time>2026-04-26T11:31:18.395Z</time></trkpt><trkpt lat="45.898383" lon="11.6219948"><ele>979.0</ele><time>2026-04-26T11:31:20.397Z</time></trkpt><trkpt lat="45.8983233" lon="11.621936"><ele>978.9999999999999</ele><time>2026-04-26T11:31:21.399Z</time></trkpt><trkpt lat="45.8982397" lon="11.6218549"><ele>979.0</ele><time>2026-04-26T11:31:22.398Z</time></trkpt><trkpt lat="45.898138" lon="11.6217818"><ele>979.0</ele><time>2026-04-26T11:31:23.396Z</time></trkpt><trkpt lat="45.8980464" lon="11.6217111"><ele>979.0</ele><time>2026-04-26T11:31:24.399Z</time></trkpt><trkpt lat="45.8979736" lon="11.6216171"><ele>979.0</ele><time>2026-04-26T11:31:25.397Z</time></trkpt><trkpt lat="45.897909" lon="11.6214875"><ele>979.0</ele><time>2026-04-26T11:31:26.397Z</time></trkpt><trkpt lat="45.8978324" lon="11.6213244"><ele>982.3333333333333</ele><time>2026-04-26T11:31:27.398Z</time></trkpt><trkpt lat="45.8977486" lon="11.6211447"><ele>985.6666666666667</ele><time>2026-04-26T11:31:28.396Z</time></trkpt><trkpt lat="45.8976058" lon="11.6207974"><ele>989.0</ele><time>2026-04-26T11:31:30.396Z</time></trkpt><trkpt lat="45.8975556" lon="11.6206535"><ele>984.8000000000001</ele><time>2026-04-26T11:31:31.398Z</time></trkpt><trkpt lat="45.8975182" lon="11.6205422"><ele>980.6000000000001</ele><time>2026-04-26T11:31:32.397Z</time></trkpt><trkpt lat="45.8974613" lon="11.6204297"><ele>976.4</ele><time>2026-04-26T11:31:34.398Z</time></trkpt><trkpt lat="45.8974393" lon="11.6205794"><ele>972.2</ele><time>2026-04-26T11:31:37.399Z</time></trkpt><trkpt lat="45.8974707" lon="11.6207085"><ele>968.0</ele><time>2026-04-26T11:31:38.401Z</time></trkpt><trkpt lat="45.8974884" lon="11.6208746"><ele>968.0</ele><time>2026-04-26T11:31:39.399Z</time></trkpt><trkpt lat="45.8974866" lon="11.6210644"><ele>968.0</ele><time>2026-04-26T11:31:40.396Z</time></trkpt><trkpt lat="45.897477" lon="11.6212507"><ele>968.0</ele><time>2026-04-26T11:31:41.396Z</time></trkpt><trkpt lat="45.8974663" lon="11.6214288"><ele>968.0</ele><time>2026-04-26T11:31:42.396Z</time></trkpt><trkpt lat="45.8974563" lon="11.6215796"><ele>966.8</ele><time>2026-04-26T11:31:43.395Z</time></trkpt><trkpt lat="45.8974611" lon="11.6216966"><ele>965.5999999999999</ele><time>2026-04-26T11:31:44.397Z</time></trkpt><trkpt lat="45.8974852" lon="11.6217912"><ele>964.4000000000001</ele><time>2026-04-26T11:31:45.399Z</time></trkpt><trkpt lat="45.8975173" lon="11.6219059"><ele>963.2</ele><time>2026-04-26T11:31:47.394Z</time></trkpt><trkpt lat="45.8974551" lon="11.6219272"><ele>962.0</ele><time>2026-04-26T11:31:49.394Z</time></trkpt><trkpt lat="45.8973201" lon="11.6216376"><ele>962.0000000000001</ele><time>2026-04-26T11:31:52.398Z</time></trkpt><trkpt lat="45.8972925" lon="11.6215117"><ele>962.0</ele><time>2026-04-26T11:31:53.398Z</time></trkpt><trkpt lat="45.89727" lon="11.621389"><ele>962.0</ele><time>2026-04-26T11:31:54.398Z</time></trkpt><trkpt lat="45.8972417" lon="11.6212725"><ele>962.0</ele><time>2026-04-26T11:31:55.398Z</time></trkpt><trkpt lat="45.8972087" lon="11.6211552"><ele>962.0000000000001</ele><time>2026-04-26T11:31:56.396Z</time></trkpt><trkpt lat="45.8971686" lon="11.6210431"><ele>962.0</ele><time>2026-04-26T11:31:57.397Z</time></trkpt><trkpt lat="45.8971248" lon="11.6209382"><ele>963.0000000000001</ele><time>2026-04-26T11:31:58.397Z</time></trkpt><trkpt lat="45.89708" lon="11.6208386"><ele>964.0</ele><time>2026-04-26T11:31:59.396Z</time></trkpt><trkpt lat="45.8970439" lon="11.6207537"><ele>965.0</ele><time>2026-04-26T11:32:00.396Z</time></trkpt><trkpt lat="45.8969676" lon="11.6207041"><ele>966.0</ele><time>2026-04-26T11:32:02.396Z</time></trkpt><trkpt lat="45.8969473" lon="11.6208302"><ele>967.0000000000001</ele><time>2026-04-26T11:32:04.396Z</time></trkpt><trkpt lat="45.8969591" lon="11.6209317"><ele>968.0</ele><time>2026-04-26T11:32:05.395Z</time></trkpt><trkpt lat="45.8969644" lon="11.6210614"><ele>966.8</ele><time>2026-04-26T11:32:06.396Z</time></trkpt><trkpt lat="45.8969664" lon="11.6212182"><ele>965.5999999999999</ele><time>2026-04-26T11:32:07.398Z</time></trkpt><trkpt lat="45.8969665" lon="11.6213825"><ele>964.4000000000001</ele><time>2026-04-26T11:32:08.395Z</time></trkpt><trkpt lat="45.8969562" lon="11.6215348"><ele>963.2</ele><time>2026-04-26T11:32:09.396Z</time></trkpt><trkpt lat="45.8969374" lon="11.6216785"><ele>962.0</ele><time>2026-04-26T11:32:10.396Z</time></trkpt><trkpt lat="45.8969" lon="11.6219323"><ele>960.3333333333334</ele><time>2026-04-26T11:32:12.395Z</time></trkpt><trkpt lat="45.8969054" lon="11.622042"><ele>958.6666666666667</ele><time>2026-04-26T11:32:13.396Z</time></trkpt><trkpt lat="45.8969274" lon="11.6221487"><ele>957.0</ele><time>2026-04-26T11:32:14.396Z</time></trkpt><trkpt lat="45.8969529" lon="11.6222691"><ele>955.3333333333333</ele><time>2026-04-26T11:32:15.396Z</time></trkpt><trkpt lat="45.8969717" lon="11.6224052"><ele>953.6666666666666</ele><time>2026-04-26T11:32:16.394Z</time></trkpt><trkpt lat="45.8969878" lon="11.6225401"><ele>952.0</ele><time>2026-04-26T11:32:17.395Z</time></trkpt><trkpt lat="45.8970097" lon="11.6226689"><ele>951.9999999999999</ele><time>2026-04-26T11:32:18.396Z</time></trkpt><trkpt lat="45.8970412" lon="11.6227917"><ele>952.0</ele><time>2026-04-26T11:32:19.395Z</time></trkpt><trkpt lat="45.8970758" lon="11.6229122"><ele>952.0</ele><time>2026-04-26T11:32:20.394Z</time></trkpt><trkpt lat="45.8971051" lon="11.6230305"><ele>952.0</ele><time>2026-04-26T11:32:21.395Z</time></trkpt><trkpt lat="45.8971274" lon="11.6231465"><ele>951.9999999999999</ele><time>2026-04-26T11:32:22.395Z</time></trkpt><trkpt lat="45.897147" lon="11.62326"><ele>952.0</ele><time>2026-04-26T11:32:23.394Z</time></trkpt><trkpt lat="45.8971697" lon="11.6233695"><ele>950.8333333333333</ele><time>2026-04-26T11:32:24.394Z</time></trkpt><trkpt lat="45.8971979" lon="11.6234716"><ele>949.6666666666666</ele><time>2026-04-26T11:32:25.395Z</time></trkpt><trkpt lat="45.8972277" lon="11.6235704"><ele>948.5</ele><time>2026-04-26T11:32:26.395Z</time></trkpt><trkpt lat="45.8972557" lon="11.6236676"><ele>947.3333333333333</ele><time>2026-04-26T11:32:27.394Z</time></trkpt><trkpt lat="45.8972766" lon="11.6237608"><ele>946.1666666666666</ele><time>2026-04-26T11:32:28.393Z</time></trkpt><trkpt lat="45.8972597" lon="11.6238763"><ele>945.0</ele><time>2026-04-26T11:32:30.392Z</time></trkpt><trkpt lat="45.8971739" lon="11.6239073"><ele>945.0</ele><time>2026-04-26T11:32:32.392Z</time></trkpt><trkpt lat="45.8970207" lon="11.6239196"><ele>945.0</ele><time>2026-04-26T11:32:34.394Z</time></trkpt><trkpt lat="45.8969189" lon="11.6239334"><ele>945.0</ele><time>2026-04-26T11:32:35.393Z</time></trkpt><trkpt lat="45.8968122" lon="11.6239554"><ele>945.0</ele><time>2026-04-26T11:32:36.395Z</time></trkpt><trkpt lat="45.8967054" lon="11.6239814"><ele>941.4</ele><time>2026-04-26T11:32:37.394Z</time></trkpt><trkpt lat="45.8966031" lon="11.6240091"><ele>937.8</ele><time>2026-04-26T11:32:38.394Z</time></trkpt><trkpt lat="45.8965045" lon="11.6240264"><ele>934.2</ele><time>2026-04-26T11:32:39.396Z</time></trkpt><trkpt lat="45.8964036" lon="11.6240194"><ele>930.6</ele><time>2026-04-26T11:32:40.395Z</time></trkpt><trkpt lat="45.8963017" lon="11.6239979"><ele>927.0</ele><time>2026-04-26T11:32:41.393Z</time></trkpt><trkpt lat="45.8961958" lon="11.6239797"><ele>927.0</ele><time>2026-04-26T11:32:42.397Z</time></trkpt><trkpt lat="45.896084" lon="11.623964"><ele>927.0</ele><time>2026-04-26T11:32:43.395Z</time></trkpt><trkpt lat="45.8959692" lon="11.6239361"><ele>927.0</ele><time>2026-04-26T11:32:44.397Z</time></trkpt><trkpt lat="45.8958797" lon="11.6239065"><ele>927.0</ele><time>2026-04-26T11:32:45.196Z</time></trkpt><trkpt lat="45.8957562" lon="11.6238674"><ele>927.0</ele><time>2026-04-26T11:32:46.394Z</time></trkpt><trkpt lat="45.8956623" lon="11.6238397"><ele>925.0</ele><time>2026-04-26T11:32:47.394Z</time></trkpt><trkpt lat="45.8955711" lon="11.6238077"><ele>923.0</ele><time>2026-04-26T11:32:48.396Z</time></trkpt><trkpt lat="45.895483" lon="11.6237527"><ele>921.0</ele><time>2026-04-26T11:32:49.396Z</time></trkpt><trkpt lat="45.8953959" lon="11.6236861"><ele>919.0</ele><time>2026-04-26T11:32:50.395Z</time></trkpt><trkpt lat="45.8953013" lon="11.6236301"><ele>917.0</ele><time>2026-04-26T11:32:51.395Z</time></trkpt><trkpt lat="45.8952006" lon="11.6235834"><ele>915.5</ele><time>2026-04-26T11:32:52.394Z</time></trkpt><trkpt lat="45.8950998" lon="11.6235329"><ele>914.0</ele><time>2026-04-26T11:32:53.395Z</time></trkpt><trkpt lat="45.8949066" lon="11.6234481"><ele>912.5</ele><time>2026-04-26T11:32:55.392Z</time></trkpt><trkpt lat="45.8948114" lon="11.6234332"><ele>911.0</ele><time>2026-04-26T11:32:56.392Z</time></trkpt><trkpt lat="45.8947201" lon="11.623427"><ele>907.8</ele><time>2026-04-26T11:32:57.393Z</time></trkpt><trkpt lat="45.894643" lon="11.6234174"><ele>904.5999999999999</ele><time>2026-04-26T11:32:58.396Z</time></trkpt><trkpt lat="45.8945825" lon="11.6233921"><ele>901.4</ele><time>2026-04-26T11:32:59.395Z</time></trkpt><trkpt lat="45.894494" lon="11.6232541"><ele>898.2</ele><time>2026-04-26T11:33:01.396Z</time></trkpt><trkpt lat="45.8944545" lon="11.6231414"><ele>895.0</ele><time>2026-04-26T11:33:02.392Z</time></trkpt><trkpt lat="45.8944095" lon="11.623013"><ele>895.0</ele><time>2026-04-26T11:33:03.392Z</time></trkpt><trkpt lat="45.8943534" lon="11.6228821"><ele>895.0</ele><time>2026-04-26T11:33:04.397Z</time></trkpt><trkpt lat="45.8942867" lon="11.6227514"><ele>895.0</ele><time>2026-04-26T11:33:05.393Z</time></trkpt><trkpt lat="45.8942105" lon="11.6226221"><ele>895.0</ele><time>2026-04-26T11:33:06.395Z</time></trkpt><trkpt lat="45.8941252" lon="11.6224958"><ele>892.4</ele><time>2026-04-26T11:33:07.398Z</time></trkpt><trkpt lat="45.8940445" lon="11.6223698"><ele>889.8</ele><time>2026-04-26T11:33:08.395Z</time></trkpt><trkpt lat="45.8939723" lon="11.6222423"><ele>887.2</ele><time>2026-04-26T11:33:09.393Z</time></trkpt><trkpt lat="45.8938979" lon="11.6221263"><ele>884.6</ele><time>2026-04-26T11:33:10.397Z</time></trkpt><trkpt lat="45.8938248" lon="11.622019"><ele>882.0</ele><time>2026-04-26T11:33:11.396Z</time></trkpt><trkpt lat="45.8937584" lon="11.6219098"><ele>882.0</ele><time>2026-04-26T11:33:12.396Z</time></trkpt><trkpt lat="45.8936977" lon="11.621786"><ele>882.0</ele><time>2026-04-26T11:33:13.397Z</time></trkpt><trkpt lat="45.8936516" lon="11.6216736"><ele>882.0</ele><time>2026-04-26T11:33:14.196Z</time></trkpt><trkpt lat="45.8935396" lon="11.621346"><ele>882.0</ele><time>2026-04-26T11:33:16.395Z</time></trkpt><trkpt lat="45.8934987" lon="11.6211901"><ele>882.0</ele><time>2026-04-26T11:33:17.395Z</time></trkpt><trkpt lat="45.893456" lon="11.6210412"><ele>882.0</ele><time>2026-04-26T11:33:18.391Z</time></trkpt><trkpt lat="45.8934119" lon="11.6208997"><ele>882.0</ele><time>2026-04-26T11:33:19.391Z</time></trkpt><trkpt lat="45.8933782" lon="11.6207675"><ele>882.0</ele><time>2026-04-26T11:33:20.393Z</time></trkpt><trkpt lat="45.8933638" lon="11.6206493"><ele>880.8</ele><time>2026-04-26T11:33:21.393Z</time></trkpt><trkpt lat="45.8933682" lon="11.6205373"><ele>879.6</ele><time>2026-04-26T11:33:22.395Z</time></trkpt><trkpt lat="45.8933775" lon="11.6204352"><ele>878.3999999999999</ele><time>2026-04-26T11:33:23.396Z</time></trkpt><trkpt lat="45.8933674" lon="11.6202626"><ele>877.1999999999999</ele><time>2026-04-26T11:33:25.393Z</time></trkpt><trkpt lat="45.8933251" lon="11.6201276"><ele>876.0</ele><time>2026-04-26T11:33:27.394Z</time></trkpt><trkpt lat="45.8932607" lon="11.6200341"><ele>876.0</ele><time>2026-04-26T11:33:29.394Z</time></trkpt><trkpt lat="45.8931212" lon="11.6200386"><ele>875.9999999999999</ele><time>2026-04-26T11:33:31.396Z</time></trkpt><trkpt lat="45.8930327" lon="11.6200479"><ele>875.9999999999999</ele><time>2026-04-26T11:33:32.394Z</time></trkpt><trkpt lat="45.892932" lon="11.6200498"><ele>876.0</ele><time>2026-04-26T11:33:33.393Z</time></trkpt><trkpt lat="45.8928181" lon="11.6200632"><ele>876.0</ele><time>2026-04-26T11:33:34.395Z</time></trkpt><trkpt lat="45.8925577" lon="11.6201592"><ele>876.3333333333333</ele><time>2026-04-26T11:33:36.395Z</time></trkpt><trkpt lat="45.8924151" lon="11.6202374"><ele>876.6666666666666</ele><time>2026-04-26T11:33:37.391Z</time></trkpt><trkpt lat="45.8922746" lon="11.6203256"><ele>877.0</ele><time>2026-04-26T11:33:38.391Z</time></trkpt><trkpt lat="45.8921363" lon="11.6204149"><ele>871.3333333333333</ele><time>2026-04-26T11:33:39.392Z</time></trkpt><trkpt lat="45.8919972" lon="11.6205012"><ele>865.6666666666667</ele><time>2026-04-26T11:33:40.393Z</time></trkpt><trkpt lat="45.8918593" lon="11.6205865"><ele>860.0</ele><time>2026-04-26T11:33:41.391Z</time></trkpt><trkpt lat="45.8917222" lon="11.620675"><ele>860.0</ele><time>2026-04-26T11:33:42.392Z</time></trkpt><trkpt lat="45.8915872" lon="11.6207637"><ele>860.0</ele><time>2026-04-26T11:33:43.391Z</time></trkpt><trkpt lat="45.8914501" lon="11.6208437"><ele>860.0</ele><time>2026-04-26T11:33:44.39Z</time></trkpt><trkpt lat="45.891311" lon="11.6209119"><ele>860.0</ele><time>2026-04-26T11:33:45.393Z</time></trkpt><trkpt lat="45.8911713" lon="11.6209836"><ele>860.0</ele><time>2026-04-26T11:33:46.392Z</time></trkpt><trkpt lat="45.8910283" lon="11.6210809"><ele>860.0</ele><time>2026-04-26T11:33:47.392Z</time></trkpt><trkpt lat="45.8908815" lon="11.6212032"><ele>860.0</ele><time>2026-04-26T11:33:48.391Z</time></trkpt><trkpt lat="45.8907398" lon="11.6213379"><ele>855.6666666666667</ele><time>2026-04-26T11:33:49.394Z</time></trkpt><trkpt lat="45.8906048" lon="11.6214724"><ele>851.3333333333333</ele><time>2026-04-26T11:33:50.391Z</time></trkpt><trkpt lat="45.89048" lon="11.6215998"><ele>847.0</ele><time>2026-04-26T11:33:51.392Z</time></trkpt><trkpt lat="45.8903611" lon="11.6217185"><ele>847.0</ele><time>2026-04-26T11:33:52.392Z</time></trkpt><trkpt lat="45.8902463" lon="11.6218355"><ele>847.0</ele><time>2026-04-26T11:33:53.394Z</time></trkpt><trkpt lat="45.8901328" lon="11.6219476"><ele>847.0</ele><time>2026-04-26T11:33:54.394Z</time></trkpt><trkpt lat="45.8900219" lon="11.6220585"><ele>847.0</ele><time>2026-04-26T11:33:55.393Z</time></trkpt><trkpt lat="45.8898135" lon="11.6222768"><ele>845.4000000000001</ele><time>2026-04-26T11:33:57.393Z</time></trkpt><trkpt lat="45.8897205" lon="11.6223586"><ele>843.8000000000001</ele><time>2026-04-26T11:33:58.394Z</time></trkpt><trkpt lat="45.8896382" lon="11.6224403"><ele>842.2</ele><time>2026-04-26T11:33:59.394Z</time></trkpt><trkpt lat="45.8895604" lon="11.6225213"><ele>840.6</ele><time>2026-04-26T11:34:00.396Z</time></trkpt><trkpt lat="45.8894814" lon="11.6225958"><ele>839.0</ele><time>2026-04-26T11:34:01.396Z</time></trkpt><trkpt lat="45.8893903" lon="11.6226671"><ele>839.0</ele><time>2026-04-26T11:34:02.394Z</time></trkpt><trkpt lat="45.8892846" lon="11.6227311"><ele>839.0</ele><time>2026-04-26T11:34:03.394Z</time></trkpt><trkpt lat="45.8891758" lon="11.6227846"><ele>839.0</ele><time>2026-04-26T11:34:04.394Z</time></trkpt><trkpt lat="45.8890701" lon="11.6228324"><ele>839.0</ele><time>2026-04-26T11:34:05.395Z</time></trkpt><trkpt lat="45.888968" lon="11.6228776"><ele>839.0</ele><time>2026-04-26T11:34:06.395Z</time></trkpt><trkpt lat="45.8888708" lon="11.6229266"><ele>838.2</ele><time>2026-04-26T11:34:07.395Z</time></trkpt><trkpt lat="45.8887781" lon="11.622983"><ele>837.4000000000001</ele><time>2026-04-26T11:34:08.393Z</time></trkpt><trkpt lat="45.8886888" lon="11.6230452"><ele>836.6</ele><time>2026-04-26T11:34:09.393Z</time></trkpt><trkpt lat="45.8886034" lon="11.6231061"><ele>835.8</ele><time>2026-04-26T11:34:10.392Z</time></trkpt><trkpt lat="45.8885223" lon="11.6231572"><ele>835.0</ele><time>2026-04-26T11:34:11.393Z</time></trkpt><trkpt lat="45.8884419" lon="11.6232002"><ele>834.0</ele><time>2026-04-26T11:34:12.394Z</time></trkpt><trkpt lat="45.8883611" lon="11.6232387"><ele>833.0</ele><time>2026-04-26T11:34:13.394Z</time></trkpt><trkpt lat="45.8882796" lon="11.6232691"><ele>832.0</ele><time>2026-04-26T11:34:14.393Z</time></trkpt><trkpt lat="45.8881942" lon="11.6232986"><ele>831.0</ele><time>2026-04-26T11:34:15.394Z</time></trkpt><trkpt lat="45.8881009" lon="11.6233169"><ele>830.0</ele><time>2026-04-26T11:34:16.394Z</time></trkpt><trkpt lat="45.8878873" lon="11.6233463"><ele>830.0</ele><time>2026-04-26T11:34:18.394Z</time></trkpt><trkpt lat="45.8877719" lon="11.6233483"><ele>830.0</ele><time>2026-04-26T11:34:19.395Z</time></trkpt><trkpt lat="45.88766" lon="11.6233487"><ele>830.0</ele><time>2026-04-26T11:34:20.394Z</time></trkpt><trkpt lat="45.8875509" lon="11.6233557"><ele>830.0</ele><time>2026-04-26T11:34:21.393Z</time></trkpt><trkpt lat="45.887447" lon="11.6233724"><ele>830.0</ele><time>2026-04-26T11:34:22.395Z</time></trkpt><trkpt lat="45.8873463" lon="11.6233817"><ele>828.6</ele><time>2026-04-26T11:34:23.394Z</time></trkpt><trkpt lat="45.8872502" lon="11.6233912"><ele>827.2</ele><time>2026-04-26T11:34:24.394Z</time></trkpt><trkpt lat="45.8871568" lon="11.6233831"><ele>825.8</ele><time>2026-04-26T11:34:25.394Z</time></trkpt><trkpt lat="45.8870678" lon="11.623346"><ele>824.4</ele><time>2026-04-26T11:34:26.392Z</time></trkpt><trkpt lat="45.8869843" lon="11.6232833"><ele>823.0</ele><time>2026-04-26T11:34:27.393Z</time></trkpt><trkpt lat="45.8868983" lon="11.6232148"><ele>823.0</ele><time>2026-04-26T11:34:28.396Z</time></trkpt><trkpt lat="45.8868065" lon="11.623145"><ele>823.0</ele><time>2026-04-26T11:34:29.394Z</time></trkpt><trkpt lat="45.8867111" lon="11.6230741"><ele>823.0</ele><time>2026-04-26T11:34:30.394Z</time></trkpt><trkpt lat="45.8866149" lon="11.6230055"><ele>823.0</ele><time>2026-04-26T11:34:31.394Z</time></trkpt><trkpt lat="45.8865232" lon="11.6229397"><ele>823.0</ele><time>2026-04-26T11:34:32.39Z</time></trkpt><trkpt lat="45.8864353" lon="11.6228684"><ele>822.8</ele><time>2026-04-26T11:34:33.392Z</time></trkpt><trkpt lat="45.8863475" lon="11.6227949"><ele>822.5999999999999</ele><time>2026-04-26T11:34:34.393Z</time></trkpt><trkpt lat="45.8862571" lon="11.6227214"><ele>822.4000000000001</ele><time>2026-04-26T11:34:35.392Z</time></trkpt><trkpt lat="45.886157" lon="11.6226696"><ele>822.2</ele><time>2026-04-26T11:34:36.396Z</time></trkpt><trkpt lat="45.8860566" lon="11.6226363"><ele>822.0</ele><time>2026-04-26T11:34:37.393Z</time></trkpt><trkpt lat="45.8858636" lon="11.6225896"><ele>821.2</ele><time>2026-04-26T11:34:39.395Z</time></trkpt><trkpt lat="45.8857651" lon="11.6225952"><ele>820.4000000000001</ele><time>2026-04-26T11:34:40.394Z</time></trkpt><trkpt lat="45.8856603" lon="11.6226132"><ele>819.5999999999999</ele><time>2026-04-26T11:34:41.395Z</time></trkpt><trkpt lat="45.8855584" lon="11.6226056"><ele>818.8</ele><time>2026-04-26T11:34:42.393Z</time></trkpt><trkpt lat="45.8854609" lon="11.6225895"><ele>818.0</ele><time>2026-04-26T11:34:43.393Z</time></trkpt><trkpt lat="45.8853826" lon="11.6225939"><ele>818.0</ele><time>2026-04-26T11:34:44.393Z</time></trkpt><trkpt lat="45.885307" lon="11.6226187"><ele>818.0</ele><time>2026-04-26T11:34:46.394Z</time></trkpt><trkpt lat="45.8852151" lon="11.6226448"><ele>818.0</ele><time>2026-04-26T11:35:14.395Z</time></trkpt><trkpt lat="45.8850765" lon="11.6226383"><ele>818.0</ele><time>2026-04-26T11:35:16.397Z</time></trkpt><trkpt lat="45.884996" lon="11.6226118"><ele>818.0</ele><time>2026-04-26T11:35:17.395Z</time></trkpt><trkpt lat="45.8849116" lon="11.6225691"><ele>817.5000000000001</ele><time>2026-04-26T11:35:18.397Z</time></trkpt><trkpt lat="45.8848331" lon="11.6225249"><ele>817.0</ele><time>2026-04-26T11:35:19.396Z</time></trkpt><trkpt lat="45.8847499" lon="11.6224856"><ele>816.5</ele><time>2026-04-26T11:35:20.395Z</time></trkpt><trkpt lat="45.8846702" lon="11.6224497"><ele>816.0</ele><time>2026-04-26T11:35:21.393Z</time></trkpt><trkpt lat="45.8846025" lon="11.6224195"><ele>815.5000000000001</ele><time>2026-04-26T11:35:22.395Z</time></trkpt><trkpt lat="45.8845013" lon="11.6223483"><ele>815.0</ele><time>2026-04-26T11:35:24.391Z</time></trkpt><trkpt lat="45.8844644" lon="11.6221805"><ele>815.0</ele><time>2026-04-26T11:35:26.395Z</time></trkpt><trkpt lat="45.8844419" lon="11.6220883"><ele>815.0</ele><time>2026-04-26T11:35:27.397Z</time></trkpt><trkpt lat="45.8843924" lon="11.6220071"><ele>815.0</ele><time>2026-04-26T11:35:28.395Z</time></trkpt><trkpt lat="45.884318" lon="11.6219317"><ele>815.0</ele><time>2026-04-26T11:35:29.396Z</time></trkpt><trkpt lat="45.8842188" lon="11.6218496"><ele>815.0</ele><time>2026-04-26T11:35:30.394Z</time></trkpt><trkpt lat="45.8841133" lon="11.6217562"><ele>816.5</ele><time>2026-04-26T11:35:31.396Z</time></trkpt><trkpt lat="45.8840505" lon="11.621703"><ele>818.0</ele><time>2026-04-26T11:35:31.997Z</time></trkpt><trkpt lat="45.8838885" lon="11.6215813"><ele>819.5</ele><time>2026-04-26T11:35:33.395Z</time></trkpt><trkpt lat="45.8837698" lon="11.6215022"><ele>821.0</ele><time>2026-04-26T11:35:34.394Z</time></trkpt><trkpt lat="45.8836725" lon="11.6214315"><ele>821.0</ele><time>2026-04-26T11:35:35.392Z</time></trkpt><trkpt lat="45.8835111" lon="11.6213167"><ele>821.0</ele><time>2026-04-26T11:35:37.392Z</time></trkpt><trkpt lat="45.8834525" lon="11.6212552"><ele>821.0</ele><time>2026-04-26T11:35:38.393Z</time></trkpt><trkpt lat="45.8833964" lon="11.6211108"><ele>821.0</ele><time>2026-04-26T11:35:40.393Z</time></trkpt><trkpt lat="45.8834322" lon="11.6209391"><ele>823.3333333333334</ele><time>2026-04-26T11:35:42.394Z</time></trkpt><trkpt lat="45.8834868" lon="11.6208347"><ele>825.6666666666667</ele><time>2026-04-26T11:35:43.392Z</time></trkpt><trkpt lat="45.8835588" lon="11.6207268"><ele>828.0</ele><time>2026-04-26T11:35:44.392Z</time></trkpt><trkpt lat="45.8836225" lon="11.6206348"><ele>830.3333333333333</ele><time>2026-04-26T11:35:45.392Z</time></trkpt><trkpt lat="45.8836608" lon="11.620545"><ele>832.6666666666666</ele><time>2026-04-26T11:35:46.391Z</time></trkpt><trkpt lat="45.8836739" lon="11.6204448"><ele>835.0</ele><time>2026-04-26T11:35:47.392Z</time></trkpt><trkpt lat="45.8836618" lon="11.6203446"><ele>837.4</ele><time>2026-04-26T11:35:48.392Z</time></trkpt><trkpt lat="45.8836275" lon="11.620256"><ele>839.8</ele><time>2026-04-26T11:35:49.393Z</time></trkpt><trkpt lat="45.8835643" lon="11.6201564"><ele>842.2</ele><time>2026-04-26T11:35:50.392Z</time></trkpt><trkpt lat="45.8834724" lon="11.6200415"><ele>844.6</ele><time>2026-04-26T11:35:51.395Z</time></trkpt><trkpt lat="45.8833719" lon="11.6199264"><ele>847.0</ele><time>2026-04-26T11:35:52.393Z</time></trkpt><trkpt lat="45.8832746" lon="11.6198095"><ele>844.25</ele><time>2026-04-26T11:35:53.397Z</time></trkpt><trkpt lat="45.8831835" lon="11.619701"><ele>841.5</ele><time>2026-04-26T11:35:54.394Z</time></trkpt><trkpt lat="45.8831046" lon="11.6195998"><ele>838.75</ele><time>2026-04-26T11:35:55.395Z</time></trkpt><trkpt lat="45.8830294" lon="11.6195241"><ele>836.0</ele><time>2026-04-26T11:35:56.395Z</time></trkpt><trkpt lat="45.88289" lon="11.6193339"><ele>836.0</ele><time>2026-04-26T11:35:59.393Z</time></trkpt><trkpt lat="45.882893" lon="11.6191611"><ele>836.0</ele><time>2026-04-26T11:36:01.394Z</time></trkpt><trkpt lat="45.8829294" lon="11.6190462"><ele>836.0</ele><time>2026-04-26T11:36:02.395Z</time></trkpt><trkpt lat="45.8829834" lon="11.6189302"><ele>836.0</ele><time>2026-04-26T11:36:03.396Z</time></trkpt><trkpt lat="45.8830321" lon="11.6188185"><ele>836.0</ele><time>2026-04-26T11:36:04.395Z</time></trkpt><trkpt lat="45.8830521" lon="11.6187156"><ele>837.0</ele><time>2026-04-26T11:36:05.396Z</time></trkpt><trkpt lat="45.883044" lon="11.6186075"><ele>838.0</ele><time>2026-04-26T11:36:06.393Z</time></trkpt><trkpt lat="45.8830117" lon="11.6184916"><ele>839.0</ele><time>2026-04-26T11:36:07.393Z</time></trkpt><trkpt lat="45.8829598" lon="11.618372"><ele>840.0</ele><time>2026-04-26T11:36:08.393Z</time></trkpt><trkpt lat="45.8828977" lon="11.6182782"><ele>841.0</ele><time>2026-04-26T11:36:09.394Z</time></trkpt><trkpt lat="45.8827297" lon="11.6181297"><ele>840.9999999999999</ele><time>2026-04-26T11:36:11.392Z</time></trkpt><trkpt lat="45.8826444" lon="11.6180707"><ele>841.0</ele><time>2026-04-26T11:36:12.391Z</time></trkpt><trkpt lat="45.882583" lon="11.6179854"><ele>841.0</ele><time>2026-04-26T11:36:13.392Z</time></trkpt><trkpt lat="45.8825338" lon="11.6178952"><ele>841.0</ele><time>2026-04-26T11:36:14.395Z</time></trkpt><trkpt lat="45.8825069" lon="11.6178038"><ele>840.9999999999999</ele><time>2026-04-26T11:36:15.393Z</time></trkpt><trkpt lat="45.8825141" lon="11.6177096"><ele>841.0</ele><time>2026-04-26T11:36:16.394Z</time></trkpt><trkpt lat="45.8825511" lon="11.6176129"><ele>842.6666666666666</ele><time>2026-04-26T11:36:17.395Z</time></trkpt><trkpt lat="45.8827241" lon="11.6174241"><ele>844.3333333333333</ele><time>2026-04-26T11:36:19.393Z</time></trkpt><trkpt lat="45.8828515" lon="11.6173331"><ele>846.0</ele><time>2026-04-26T11:36:20.393Z</time></trkpt><trkpt lat="45.8829872" lon="11.6172484"><ele>846.0</ele><time>2026-04-26T11:36:21.394Z</time></trkpt><trkpt lat="45.8831239" lon="11.6171568"><ele>846.0</ele><time>2026-04-26T11:36:22.392Z</time></trkpt><trkpt lat="45.8832396" lon="11.6170699"><ele>846.0</ele><time>2026-04-26T11:36:23.393Z</time></trkpt><trkpt lat="45.8833476" lon="11.6169927"><ele>846.0</ele><time>2026-04-26T11:36:24.391Z</time></trkpt><trkpt lat="45.8834536" lon="11.6169041"><ele>847.25</ele><time>2026-04-26T11:36:25.391Z</time></trkpt><trkpt lat="45.8835596" lon="11.6168043"><ele>848.5</ele><time>2026-04-26T11:36:26.395Z</time></trkpt><trkpt lat="45.8836611" lon="11.6166853"><ele>849.75</ele><time>2026-04-26T11:36:27.393Z</time></trkpt><trkpt lat="45.8837538" lon="11.616562"><ele>851.0</ele><time>2026-04-26T11:36:28.394Z</time></trkpt><trkpt lat="45.8838365" lon="11.6164578"><ele>851.0</ele><time>2026-04-26T11:36:29.394Z</time></trkpt><trkpt lat="45.8839224" lon="11.616352"><ele>851.0</ele><time>2026-04-26T11:36:30.392Z</time></trkpt><trkpt lat="45.8840156" lon="11.6162468"><ele>851.0</ele><time>2026-04-26T11:36:31.395Z</time></trkpt><trkpt lat="45.8841052" lon="11.6161592"><ele>851.0</ele><time>2026-04-26T11:36:32.393Z</time></trkpt><trkpt lat="45.8841992" lon="11.616087"><ele>851.0</ele><time>2026-04-26T11:36:33.394Z</time></trkpt><trkpt lat="45.8842982" lon="11.616029"><ele>849.25</ele><time>2026-04-26T11:36:34.393Z</time></trkpt><trkpt lat="45.8844066" lon="11.6159809"><ele>847.5</ele><time>2026-04-26T11:36:35.392Z</time></trkpt><trkpt lat="45.8845166" lon="11.6159496"><ele>845.75</ele><time>2026-04-26T11:36:36.392Z</time></trkpt><trkpt lat="45.8846302" lon="11.615941"><ele>844.0</ele><time>2026-04-26T11:36:37.392Z</time></trkpt><trkpt lat="45.8847481" lon="11.6159354"><ele>844.0</ele><time>2026-04-26T11:36:38.393Z</time></trkpt><trkpt lat="45.884995" lon="11.6159388"><ele>844.0</ele><time>2026-04-26T11:36:40.393Z</time></trkpt><trkpt lat="45.8851057" lon="11.6159449"><ele>844.0</ele><time>2026-04-26T11:36:41.393Z</time></trkpt><trkpt lat="45.8852121" lon="11.6159529"><ele>844.6</ele><time>2026-04-26T11:36:42.392Z</time></trkpt><trkpt lat="45.885318" lon="11.6159671"><ele>845.2</ele><time>2026-04-26T11:36:43.391Z</time></trkpt><trkpt lat="45.8854253" lon="11.6159812"><ele>845.8000000000001</ele><time>2026-04-26T11:36:44.392Z</time></trkpt><trkpt lat="45.8855213" lon="11.6159887"><ele>846.4000000000001</ele><time>2026-04-26T11:36:45.392Z</time></trkpt><trkpt lat="45.8856153" lon="11.6160004"><ele>847.0</ele><time>2026-04-26T11:36:46.392Z</time></trkpt><trkpt lat="45.8857183" lon="11.6160258"><ele>847.0</ele><time>2026-04-26T11:36:47.392Z</time></trkpt><trkpt lat="45.8858214" lon="11.6160596"><ele>847.0</ele><time>2026-04-26T11:36:48.394Z</time></trkpt><trkpt lat="45.8859339" lon="11.6160934"><ele>847.0</ele><time>2026-04-26T11:36:49.391Z</time></trkpt><trkpt lat="45.8860265" lon="11.6161221"><ele>847.0</ele><time>2026-04-26T11:36:50.392Z</time></trkpt><trkpt lat="45.8861344" lon="11.6161544"><ele>847.0</ele><time>2026-04-26T11:36:51.391Z</time></trkpt><trkpt lat="45.8862592" lon="11.6161941"><ele>853.75</ele><time>2026-04-26T11:36:52.391Z</time></trkpt><trkpt lat="45.8863815" lon="11.6162446"><ele>860.5</ele><time>2026-04-26T11:36:53.391Z</time></trkpt><trkpt lat="45.8864877" lon="11.6162777"><ele>867.25</ele><time>2026-04-26T11:36:54.389Z</time></trkpt><trkpt lat="45.8865872" lon="11.6163257"><ele>874.0</ele><time>2026-04-26T11:36:55.392Z</time></trkpt><trkpt lat="45.8866926" lon="11.6163737"><ele>876.0</ele><time>2026-04-26T11:36:56.391Z</time></trkpt><trkpt lat="45.8868039" lon="11.6164046"><ele>878.0</ele><time>2026-04-26T11:36:57.391Z</time></trkpt><trkpt lat="45.8869178" lon="11.6164259"><ele>880.0</ele><time>2026-04-26T11:36:58.39Z</time></trkpt><trkpt lat="45.8870255" lon="11.6164511"><ele>882.0</ele><time>2026-04-26T11:36:59.389Z</time></trkpt><trkpt lat="45.8872013" lon="11.6164789"><ele>882.0</ele><time>2026-04-26T11:37:01.387Z</time></trkpt><trkpt lat="45.8872845" lon="11.6164995"><ele>882.0</ele><time>2026-04-26T11:37:02.387Z</time></trkpt><trkpt lat="45.8873651" lon="11.6165103"><ele>882.0</ele><time>2026-04-26T11:37:03.392Z</time></trkpt><trkpt lat="45.8874379" lon="11.616511"><ele>882.0</ele><time>2026-04-26T11:37:04.391Z</time></trkpt><trkpt lat="45.8875196" lon="11.6164751"><ele>882.0</ele><time>2026-04-26T11:37:05.39Z</time></trkpt><trkpt lat="45.8876008" lon="11.6164391"><ele>882.0</ele><time>2026-04-26T11:37:06.39Z</time></trkpt><trkpt lat="45.8877068" lon="11.6163957"><ele>886.4000000000001</ele><time>2026-04-26T11:37:08.389Z</time></trkpt><trkpt lat="45.8877728" lon="11.6162807"><ele>890.8000000000001</ele><time>2026-04-26T11:37:10.39Z</time></trkpt><trkpt lat="45.8877603" lon="11.616172"><ele>895.2</ele><time>2026-04-26T11:37:11.39Z</time></trkpt><trkpt lat="45.8877198" lon="11.6160515"><ele>899.6</ele><time>2026-04-26T11:37:12.391Z</time></trkpt><trkpt lat="45.8876706" lon="11.6159459"><ele>904.0</ele><time>2026-04-26T11:37:13.393Z</time></trkpt><trkpt lat="45.8875986" lon="11.6158344"><ele>900.0</ele><time>2026-04-26T11:37:14.389Z</time></trkpt><trkpt lat="45.8875332" lon="11.6157337"><ele>896.0000000000001</ele><time>2026-04-26T11:37:15.39Z</time></trkpt><trkpt lat="45.8874676" lon="11.6156252"><ele>892.0000000000001</ele><time>2026-04-26T11:37:16.395Z</time></trkpt><trkpt lat="45.887398" lon="11.6155246"><ele>888.0</ele><time>2026-04-26T11:37:17.391Z</time></trkpt><trkpt lat="45.8873391" lon="11.6154247"><ele>884.0</ele><time>2026-04-26T11:37:18.389Z</time></trkpt><trkpt lat="45.8872779" lon="11.6153136"><ele>884.0</ele><time>2026-04-26T11:37:19.39Z</time></trkpt><trkpt lat="45.8872126" lon="11.6152059"><ele>884.0</ele><time>2026-04-26T11:37:20.39Z</time></trkpt><trkpt lat="45.8871061" lon="11.6149629"><ele>884.0</ele><time>2026-04-26T11:37:22.392Z</time></trkpt><trkpt lat="45.8870402" lon="11.6148444"><ele>884.0</ele><time>2026-04-26T11:37:23.391Z</time></trkpt><trkpt lat="45.88699" lon="11.6147382"><ele>884.0000000000001</ele><time>2026-04-26T11:37:24.391Z</time></trkpt><trkpt lat="45.8869423" lon="11.6146428"><ele>884.0</ele><time>2026-04-26T11:37:25.392Z</time></trkpt><trkpt lat="45.8869036" lon="11.6145567"><ele>884.0</ele><time>2026-04-26T11:37:26.39Z</time></trkpt><trkpt lat="45.8868642" lon="11.6144646"><ele>884.0</ele><time>2026-04-26T11:37:27.393Z</time></trkpt><trkpt lat="45.8868343" lon="11.6143679"><ele>884.0000000000001</ele><time>2026-04-26T11:37:28.393Z</time></trkpt><trkpt lat="45.8868143" lon="11.6142816"><ele>884.0</ele><time>2026-04-26T11:37:29.391Z</time></trkpt><trkpt lat="45.8868061" lon="11.6140927"><ele>886.0</ele><time>2026-04-26T11:37:31.393Z</time></trkpt><trkpt lat="45.8868237" lon="11.6139678"><ele>888.0000000000001</ele><time>2026-04-26T11:37:32.393Z</time></trkpt><trkpt lat="45.8868352" lon="11.6138101"><ele>890.0000000000001</ele><time>2026-04-26T11:37:33.394Z</time></trkpt><trkpt lat="45.8868421" lon="11.6136683"><ele>892.0</ele><time>2026-04-26T11:37:34.396Z</time></trkpt><trkpt lat="45.8868431" lon="11.6135426"><ele>894.0</ele><time>2026-04-26T11:37:35.394Z</time></trkpt><trkpt lat="45.8868403" lon="11.6134026"><ele>895.6</ele><time>2026-04-26T11:37:36.395Z</time></trkpt><trkpt lat="45.8868296" lon="11.613257"><ele>897.2</ele><time>2026-04-26T11:37:37.393Z</time></trkpt><trkpt lat="45.8868111" lon="11.613108"><ele>898.8000000000001</ele><time>2026-04-26T11:37:38.394Z</time></trkpt><trkpt lat="45.8867869" lon="11.6129599"><ele>900.4000000000001</ele><time>2026-04-26T11:37:39.392Z</time></trkpt><trkpt lat="45.886768" lon="11.6128322"><ele>902.0</ele><time>2026-04-26T11:37:40.392Z</time></trkpt><trkpt lat="45.8867533" lon="11.6127284"><ele>902.6</ele><time>2026-04-26T11:37:41.392Z</time></trkpt><trkpt lat="45.8867187" lon="11.6125285"><ele>903.2</ele><time>2026-04-26T11:37:43.391Z</time></trkpt><trkpt lat="45.8867172" lon="11.6124197"><ele>903.8</ele><time>2026-04-26T11:37:44.393Z</time></trkpt><trkpt lat="45.8867332" lon="11.6122888"><ele>904.4</ele><time>2026-04-26T11:37:45.393Z</time></trkpt><trkpt lat="45.886761" lon="11.6121594"><ele>905.0</ele><time>2026-04-26T11:37:46.392Z</time></trkpt><trkpt lat="45.8867936" lon="11.6120369"><ele>903.0000000000001</ele><time>2026-04-26T11:37:47.391Z</time></trkpt><trkpt lat="45.8868277" lon="11.6119446"><ele>901.0</ele><time>2026-04-26T11:37:48.391Z</time></trkpt><trkpt lat="45.8868837" lon="11.6118655"><ele>899.0</ele><time>2026-04-26T11:37:49.391Z</time></trkpt><trkpt lat="45.88696" lon="11.6117947"><ele>897.0</ele><time>2026-04-26T11:37:50.39Z</time></trkpt><trkpt lat="45.8870468" lon="11.6117234"><ele>895.0000000000001</ele><time>2026-04-26T11:37:51.392Z</time></trkpt><trkpt lat="45.8871402" lon="11.6116504"><ele>893.0</ele><time>2026-04-26T11:37:52.395Z</time></trkpt><trkpt lat="45.8872316" lon="11.6115902"><ele>893.0</ele><time>2026-04-26T11:37:53.395Z</time></trkpt><trkpt lat="45.8873212" lon="11.6115367"><ele>893.0</ele><time>2026-04-26T11:37:54.394Z</time></trkpt><trkpt lat="45.8874156" lon="11.6114859"><ele>893.0</ele><time>2026-04-26T11:37:55.393Z</time></trkpt><trkpt lat="45.8875148" lon="11.611436"><ele>893.0</ele><time>2026-04-26T11:37:56.392Z</time></trkpt><trkpt lat="45.8876247" lon="11.6113925"><ele>893.0</ele><time>2026-04-26T11:37:57.391Z</time></trkpt><trkpt lat="45.88772" lon="11.6113519"><ele>896.2</ele><time>2026-04-26T11:37:58.395Z</time></trkpt><trkpt lat="45.8878087" lon="11.6113213"><ele>899.4</ele><time>2026-04-26T11:37:59.393Z</time></trkpt><trkpt lat="45.8879019" lon="11.611299"><ele>902.6000000000001</ele><time>2026-04-26T11:38:00.393Z</time></trkpt><trkpt lat="45.8880012" lon="11.6112829"><ele>905.8000000000001</ele><time>2026-04-26T11:38:01.393Z</time></trkpt><trkpt lat="45.888103" lon="11.6112672"><ele>909.0</ele><time>2026-04-26T11:38:02.391Z</time></trkpt><trkpt lat="45.8882996" lon="11.6112594"><ele>909.0</ele><time>2026-04-26T11:38:04.391Z</time></trkpt><trkpt lat="45.8884093" lon="11.6112604"><ele>909.0000000000001</ele><time>2026-04-26T11:38:05.393Z</time></trkpt><trkpt lat="45.8885039" lon="11.611258"><ele>909.0000000000001</ele><time>2026-04-26T11:38:06.391Z</time></trkpt><trkpt lat="45.8885701" lon="11.6112496"><ele>909.0</ele><time>2026-04-26T11:38:07.396Z</time></trkpt><trkpt lat="45.8886405" lon="11.6111927"><ele>909.0</ele><time>2026-04-26T11:38:09.393Z</time></trkpt><trkpt lat="45.88868" lon="11.6110367"><ele>907.3333333333334</ele><time>2026-04-26T11:38:11.392Z</time></trkpt><trkpt lat="45.8886608" lon="11.6109468"><ele>905.6666666666667</ele><time>2026-04-26T11:38:12.391Z</time></trkpt><trkpt lat="45.888618" lon="11.61085"><ele>904.0</ele><time>2026-04-26T11:38:13.391Z</time></trkpt><trkpt lat="45.8885793" lon="11.6107505"><ele>902.3333333333334</ele><time>2026-04-26T11:38:14.389Z</time></trkpt><trkpt lat="45.8885533" lon="11.6106629"><ele>900.6666666666667</ele><time>2026-04-26T11:38:15.393Z</time></trkpt><trkpt lat="45.8885488" lon="11.6105349"><ele>899.0</ele><time>2026-04-26T11:38:17.393Z</time></trkpt><trkpt lat="45.8886056" lon="11.6103921"><ele>896.4000000000001</ele><time>2026-04-26T11:38:19.391Z</time></trkpt><trkpt lat="45.8886506" lon="11.6103168"><ele>893.8000000000001</ele><time>2026-04-26T11:38:20.393Z</time></trkpt><trkpt lat="45.8887087" lon="11.6102413"><ele>891.1999999999999</ele><time>2026-04-26T11:38:21.393Z</time></trkpt><trkpt lat="45.8887767" lon="11.6101639"><ele>888.5999999999999</ele><time>2026-04-26T11:38:22.394Z</time></trkpt><trkpt lat="45.8888441" lon="11.6100895"><ele>886.0</ele><time>2026-04-26T11:38:23.393Z</time></trkpt><trkpt lat="45.8890068" lon="11.6098832"><ele>886.0</ele><time>2026-04-26T11:38:25.393Z</time></trkpt><trkpt lat="45.8890934" lon="11.6097981"><ele>885.9999999999999</ele><time>2026-04-26T11:38:26.392Z</time></trkpt><trkpt lat="45.8891674" lon="11.6097106"><ele>885.9999999999999</ele><time>2026-04-26T11:38:27.391Z</time></trkpt><trkpt lat="45.8892575" lon="11.6096216"><ele>886.0</ele><time>2026-04-26T11:38:28.393Z</time></trkpt><trkpt lat="45.8893374" lon="11.6095273"><ele>886.0</ele><time>2026-04-26T11:38:29.392Z</time></trkpt><trkpt lat="45.8894167" lon="11.6094551"><ele>886.8</ele><time>2026-04-26T11:38:30.389Z</time></trkpt><trkpt lat="45.8895029" lon="11.6093796"><ele>887.5999999999999</ele><time>2026-04-26T11:38:31.393Z</time></trkpt><trkpt lat="45.8895837" lon="11.6092917"><ele>888.4</ele><time>2026-04-26T11:38:32.392Z</time></trkpt><trkpt lat="45.8896559" lon="11.6092181"><ele>889.2</ele><time>2026-04-26T11:38:33.391Z</time></trkpt><trkpt lat="45.8897296" lon="11.609141"><ele>890.0</ele><time>2026-04-26T11:38:34.391Z</time></trkpt><trkpt lat="45.8898017" lon="11.6090421"><ele>890.0</ele><time>2026-04-26T11:38:35.391Z</time></trkpt><trkpt lat="45.8898754" lon="11.6089357"><ele>890.0</ele><time>2026-04-26T11:38:36.39Z</time></trkpt><trkpt lat="45.8899566" lon="11.6088108"><ele>890.0</ele><time>2026-04-26T11:38:37.39Z</time></trkpt><trkpt lat="45.8900396" lon="11.6086825"><ele>890.0</ele><time>2026-04-26T11:38:38.39Z</time></trkpt><trkpt lat="45.8901224" lon="11.608563"><ele>891.6</ele><time>2026-04-26T11:38:39.392Z</time></trkpt><trkpt lat="45.890187" lon="11.6084441"><ele>893.2</ele><time>2026-04-26T11:38:40.392Z</time></trkpt><trkpt lat="45.8902479" lon="11.6083207"><ele>894.8</ele><time>2026-04-26T11:38:41.393Z</time></trkpt><trkpt lat="45.8903013" lon="11.6082004"><ele>896.4</ele><time>2026-04-26T11:38:42.391Z</time></trkpt><trkpt lat="45.8903504" lon="11.6081154"><ele>898.0</ele><time>2026-04-26T11:38:43.39Z</time></trkpt><trkpt lat="45.8903969" lon="11.6080476"><ele>898.0</ele><time>2026-04-26T11:38:44.392Z</time></trkpt><trkpt lat="45.8905452" lon="11.6078818"><ele>898.0</ele><time>2026-04-26T11:38:47.392Z</time></trkpt><trkpt lat="45.890613" lon="11.6078176"><ele>898.0</ele><time>2026-04-26T11:38:48.391Z</time></trkpt><trkpt lat="45.8906788" lon="11.607776"><ele>898.0</ele><time>2026-04-26T11:38:49.392Z</time></trkpt><trkpt lat="45.8907397" lon="11.6077106"><ele>898.0</ele><time>2026-04-26T11:38:50.392Z</time></trkpt><trkpt lat="45.8907994" lon="11.6076117"><ele>893.8</ele><time>2026-04-26T11:38:51.392Z</time></trkpt><trkpt lat="45.8908305" lon="11.6074833"><ele>889.5999999999999</ele><time>2026-04-26T11:38:52.39Z</time></trkpt><trkpt lat="45.8908549" lon="11.6073196"><ele>885.4000000000001</ele><time>2026-04-26T11:38:53.392Z</time></trkpt><trkpt lat="45.8908823" lon="11.6071521"><ele>881.2</ele><time>2026-04-26T11:38:54.393Z</time></trkpt><trkpt lat="45.8908963" lon="11.60699"><ele>877.0</ele><time>2026-04-26T11:38:55.395Z</time></trkpt><trkpt lat="45.8909084" lon="11.6068526"><ele>876.4999999999999</ele><time>2026-04-26T11:38:56.392Z</time></trkpt><trkpt lat="45.8909165" lon="11.6067308"><ele>876.0</ele><time>2026-04-26T11:38:57.393Z</time></trkpt><trkpt lat="45.8909361" lon="11.606616"><ele>875.5</ele><time>2026-04-26T11:38:58.393Z</time></trkpt><trkpt lat="45.8909683" lon="11.6064945"><ele>875.0</ele><time>2026-04-26T11:38:59.394Z</time></trkpt><trkpt lat="45.8910105" lon="11.6063712"><ele>874.4999999999999</ele><time>2026-04-26T11:39:00.393Z</time></trkpt><trkpt lat="45.8910609" lon="11.6062568"><ele>874.0</ele><time>2026-04-26T11:39:01.393Z</time></trkpt><trkpt lat="45.8911153" lon="11.6061485"><ele>874.0</ele><time>2026-04-26T11:39:02.393Z</time></trkpt><trkpt lat="45.8911903" lon="11.6060404"><ele>874.0</ele><time>2026-04-26T11:39:03.392Z</time></trkpt><trkpt lat="45.8912748" lon="11.605947"><ele>874.0</ele><time>2026-04-26T11:39:04.393Z</time></trkpt><trkpt lat="45.8913625" lon="11.6058445"><ele>874.0</ele><time>2026-04-26T11:39:05.393Z</time></trkpt><trkpt lat="45.8915454" lon="11.6056079"><ele>874.0</ele><time>2026-04-26T11:39:07.395Z</time></trkpt><trkpt lat="45.8916254" lon="11.6054823"><ele>874.0000000000001</ele><time>2026-04-26T11:39:08.394Z</time></trkpt><trkpt lat="45.8916928" lon="11.6053598"><ele>874.0000000000001</ele><time>2026-04-26T11:39:09.397Z</time></trkpt><trkpt lat="45.8917593" lon="11.6052499"><ele>874.0</ele><time>2026-04-26T11:39:10.393Z</time></trkpt><trkpt lat="45.8918292" lon="11.6051572"><ele>874.0</ele><time>2026-04-26T11:39:11.393Z</time></trkpt><trkpt lat="45.8919083" lon="11.6050787"><ele>876.6</ele><time>2026-04-26T11:39:12.394Z</time></trkpt><trkpt lat="45.8920019" lon="11.6050115"><ele>879.2</ele><time>2026-04-26T11:39:13.395Z</time></trkpt><trkpt lat="45.8920873" lon="11.6049604"><ele>881.8000000000001</ele><time>2026-04-26T11:39:14.391Z</time></trkpt><trkpt lat="45.8921556" lon="11.6049186"><ele>884.4000000000001</ele><time>2026-04-26T11:39:15.394Z</time></trkpt><trkpt lat="45.8922423" lon="11.6048236"><ele>887.0</ele><time>2026-04-26T11:39:17.393Z</time></trkpt><trkpt lat="45.8922691" lon="11.6046954"><ele>887.0</ele><time>2026-04-26T11:39:19.394Z</time></trkpt><trkpt lat="45.8922188" lon="11.6045436"><ele>887.0</ele><time>2026-04-26T11:39:21.393Z</time></trkpt><trkpt lat="45.8921676" lon="11.6044605"><ele>887.0</ele><time>2026-04-26T11:39:22.396Z</time></trkpt><trkpt lat="45.8920972" lon="11.6043787"><ele>887.0</ele><time>2026-04-26T11:39:23.395Z</time></trkpt><trkpt lat="45.8920214" lon="11.604294"><ele>887.0</ele><time>2026-04-26T11:39:24.394Z</time></trkpt><trkpt lat="45.8919446" lon="11.6042155"><ele>885.0</ele><time>2026-04-26T11:39:25.396Z</time></trkpt><trkpt lat="45.8918549" lon="11.6041446"><ele>883.0</ele><time>2026-04-26T11:39:26.395Z</time></trkpt><trkpt lat="45.8916971" lon="11.6040425"><ele>881.0</ele><time>2026-04-26T11:39:28.394Z</time></trkpt><trkpt lat="45.8916277" lon="11.6040215"><ele>879.0</ele><time>2026-04-26T11:39:29.393Z</time></trkpt><trkpt lat="45.891553" lon="11.604025"><ele>877.0</ele><time>2026-04-26T11:39:30.395Z</time></trkpt><trkpt lat="45.8914841" lon="11.6040462"><ele>874.3333333333333</ele><time>2026-04-26T11:39:31.394Z</time></trkpt><trkpt lat="45.8914168" lon="11.604085"><ele>871.6666666666666</ele><time>2026-04-26T11:39:32.394Z</time></trkpt><trkpt lat="45.8913437" lon="11.6041254"><ele>869.0</ele><time>2026-04-26T11:39:33.395Z</time></trkpt><trkpt lat="45.8912796" lon="11.6041617"><ele>866.3333333333333</ele><time>2026-04-26T11:39:34.394Z</time></trkpt><trkpt lat="45.8911688" lon="11.6042252"><ele>863.6666666666666</ele><time>2026-04-26T11:39:36.394Z</time></trkpt><trkpt lat="45.8910643" lon="11.6042594"><ele>861.0</ele><time>2026-04-26T11:39:38.395Z</time></trkpt><trkpt lat="45.8909387" lon="11.6042477"><ele>861.5</ele><time>2026-04-26T11:39:40.396Z</time></trkpt><trkpt lat="45.8908784" lon="11.6042207"><ele>862.0</ele><time>2026-04-26T11:39:41.394Z</time></trkpt><trkpt lat="45.8907866" lon="11.6041259"><ele>862.5</ele><time>2026-04-26T11:39:43.397Z</time></trkpt><trkpt lat="45.8907457" lon="11.6040508"><ele>863.0</ele><time>2026-04-26T11:39:44.397Z</time></trkpt><trkpt lat="45.8907121" lon="11.6039644"><ele>863.5</ele><time>2026-04-26T11:39:45.395Z</time></trkpt><trkpt lat="45.8906806" lon="11.6038715"><ele>864.0</ele><time>2026-04-26T11:39:46.396Z</time></trkpt><trkpt lat="45.8906462" lon="11.6037762"><ele>865.0</ele><time>2026-04-26T11:39:47.395Z</time></trkpt><trkpt lat="45.8905935" lon="11.6036044"><ele>866.0000000000001</ele><time>2026-04-26T11:39:49.395Z</time></trkpt><trkpt lat="45.8905804" lon="11.6035036"><ele>867.0000000000001</ele><time>2026-04-26T11:39:50.393Z</time></trkpt><trkpt lat="45.8905785" lon="11.6033838"><ele>868.0</ele><time>2026-04-26T11:39:51.394Z</time></trkpt><trkpt lat="45.8905856" lon="11.6032555"><ele>869.0</ele><time>2026-04-26T11:39:52.391Z</time></trkpt><trkpt lat="45.8905907" lon="11.6031332"><ele>869.0</ele><time>2026-04-26T11:39:53.394Z</time></trkpt><trkpt lat="45.8905965" lon="11.6030223"><ele>869.0000000000001</ele><time>2026-04-26T11:39:54.396Z</time></trkpt><trkpt lat="45.8906025" lon="11.6029228"><ele>869.0000000000001</ele><time>2026-04-26T11:39:55.393Z</time></trkpt><trkpt lat="45.8906131" lon="11.6027169"><ele>869.0</ele><time>2026-04-26T11:39:57.395Z</time></trkpt><trkpt lat="45.8906282" lon="11.6025506"><ele>869.0</ele><time>2026-04-26T11:39:59.395Z</time></trkpt><trkpt lat="45.8906356" lon="11.6024094"><ele>868.8000000000001</ele><time>2026-04-26T11:40:01.396Z</time></trkpt><trkpt lat="45.8906349" lon="11.6022978"><ele>868.6000000000001</ele><time>2026-04-26T11:40:03.396Z</time></trkpt><trkpt lat="45.8905747" lon="11.6022644"><ele>868.4</ele><time>2026-04-26T11:40:05.395Z</time></trkpt><trkpt lat="45.8904693" lon="11.6024005"><ele>868.2</ele><time>2026-04-26T11:40:07.396Z</time></trkpt><trkpt lat="45.8903963" lon="11.6025327"><ele>868.0</ele><time>2026-04-26T11:40:08.394Z</time></trkpt><trkpt lat="45.8901894" lon="11.6028299"><ele>865.25</ele><time>2026-04-26T11:40:10.396Z</time></trkpt><trkpt lat="45.8900847" lon="11.6029684"><ele>862.5</ele><time>2026-04-26T11:40:11.396Z</time></trkpt><trkpt lat="45.8899848" lon="11.6031037"><ele>859.75</ele><time>2026-04-26T11:40:12.395Z</time></trkpt><trkpt lat="45.8898801" lon="11.6032463"><ele>857.0</ele><time>2026-04-26T11:40:13.397Z</time></trkpt><trkpt lat="45.88977" lon="11.6033943"><ele>857.0</ele><time>2026-04-26T11:40:14.394Z</time></trkpt><trkpt lat="45.8896547" lon="11.6035464"><ele>857.0</ele><time>2026-04-26T11:40:15.394Z</time></trkpt><trkpt lat="45.8895373" lon="11.6037021"><ele>857.0</ele><time>2026-04-26T11:40:16.392Z</time></trkpt><trkpt lat="45.8894251" lon="11.603853"><ele>856.5</ele><time>2026-04-26T11:40:17.393Z</time></trkpt><trkpt lat="45.8893215" lon="11.6039904"><ele>856.0</ele><time>2026-04-26T11:40:18.395Z</time></trkpt><trkpt lat="45.8892208" lon="11.6041232"><ele>855.5</ele><time>2026-04-26T11:40:19.396Z</time></trkpt><trkpt lat="45.8891156" lon="11.6042624"><ele>855.0</ele><time>2026-04-26T11:40:20.396Z</time></trkpt><trkpt lat="45.8890035" lon="11.6044095"><ele>848.3333333333333</ele><time>2026-04-26T11:40:21.396Z</time></trkpt><trkpt lat="45.888933" lon="11.6045023"><ele>841.6666666666666</ele><time>2026-04-26T11:40:21.996Z</time></trkpt><trkpt lat="45.8887722" lon="11.6047149"><ele>835.0</ele><time>2026-04-26T11:40:23.395Z</time></trkpt><trkpt lat="45.8886696" lon="11.6048512"><ele>835.0</ele><time>2026-04-26T11:40:24.397Z</time></trkpt><trkpt lat="45.8885798" lon="11.6049666"><ele>835.0</ele><time>2026-04-26T11:40:25.394Z</time></trkpt><trkpt lat="45.8885058" lon="11.6050626"><ele>835.0</ele><time>2026-04-26T11:40:26.394Z</time></trkpt><trkpt lat="45.8884523" lon="11.6051325"><ele>835.0</ele><time>2026-04-26T11:40:27.397Z</time></trkpt><trkpt lat="45.8883812" lon="11.6052239"><ele>835.0</ele><time>2026-04-26T11:40:29.396Z</time></trkpt><trkpt lat="45.8882671" lon="11.6051322"><ele>834.0</ele><time>2026-04-26T11:40:34.392Z</time></trkpt><trkpt lat="45.8882382" lon="11.6050356"><ele>833.0</ele><time>2026-04-26T11:40:36.394Z</time></trkpt><trkpt lat="45.8883088" lon="11.6049813"><ele>832.0</ele><time>2026-04-26T11:40:39.391Z</time></trkpt><trkpt lat="45.8883728" lon="11.6051236"><ele>831.0</ele><time>2026-04-26T11:40:41.391Z</time></trkpt><trkpt lat="45.8884106" lon="11.6052997"><ele>830.0</ele><time>2026-04-26T11:40:43.393Z</time></trkpt><trkpt lat="45.8884334" lon="11.6054047"><ele>830.0</ele><time>2026-04-26T11:40:44.391Z</time></trkpt><trkpt lat="45.8884566" lon="11.6055501"><ele>830.0</ele><time>2026-04-26T11:40:45.395Z</time></trkpt><trkpt lat="45.8884778" lon="11.6057247"><ele>830.0</ele><time>2026-04-26T11:40:46.395Z</time></trkpt><trkpt lat="45.8884978" lon="11.6058953"><ele>830.0</ele><time>2026-04-26T11:40:47.393Z</time></trkpt><trkpt lat="45.888521" lon="11.6060471"><ele>828.8</ele><time>2026-04-26T11:40:48.393Z</time></trkpt><trkpt lat="45.8885504" lon="11.6061762"><ele>827.6</ele><time>2026-04-26T11:40:49.392Z</time></trkpt><trkpt lat="45.8885862" lon="11.6062886"><ele>826.4000000000001</ele><time>2026-04-26T11:40:50.39Z</time></trkpt><trkpt lat="45.8886455" lon="11.606485"><ele>825.2</ele><time>2026-04-26T11:40:52.392Z</time></trkpt><trkpt lat="45.8886868" lon="11.6066254"><ele>824.0</ele><time>2026-04-26T11:40:54.392Z</time></trkpt><trkpt lat="45.888772" lon="11.6066171"><ele>824.0</ele><time>2026-04-26T11:40:56.392Z</time></trkpt><trkpt lat="45.888775" lon="11.6064792"><ele>824.0</ele><time>2026-04-26T11:40:58.392Z</time></trkpt><trkpt lat="45.8887006" lon="11.6063473"><ele>824.0</ele><time>2026-04-26T11:41:00.391Z</time></trkpt><trkpt lat="45.8886465" lon="11.6061719"><ele>824.0</ele><time>2026-04-26T11:41:02.393Z</time></trkpt><trkpt lat="45.8886384" lon="11.606059"><ele>824.0</ele><time>2026-04-26T11:41:03.391Z</time></trkpt><trkpt lat="45.8886428" lon="11.6059219"><ele>825.2</ele><time>2026-04-26T11:41:04.39Z</time></trkpt><trkpt lat="45.8886488" lon="11.605763"><ele>826.4000000000001</ele><time>2026-04-26T11:41:05.39Z</time></trkpt><trkpt lat="45.8886631" lon="11.6055999"><ele>827.6</ele><time>2026-04-26T11:41:06.39Z</time></trkpt><trkpt lat="45.8886756" lon="11.605448"><ele>828.8</ele><time>2026-04-26T11:41:07.394Z</time></trkpt><trkpt lat="45.8886782" lon="11.6053102"><ele>830.0</ele><time>2026-04-26T11:41:08.393Z</time></trkpt><trkpt lat="45.8886667" lon="11.6051937"><ele>831.0</ele><time>2026-04-26T11:41:09.392Z</time></trkpt><trkpt lat="45.888636" lon="11.605081"><ele>832.0</ele><time>2026-04-26T11:41:10.394Z</time></trkpt><trkpt lat="45.888591" lon="11.6049709"><ele>833.0</ele><time>2026-04-26T11:41:11.391Z</time></trkpt><trkpt lat="45.8885084" lon="11.6047627"><ele>834.0</ele><time>2026-04-26T11:41:13.393Z</time></trkpt><trkpt lat="45.8884568" lon="11.6046839"><ele>835.0</ele><time>2026-04-26T11:41:14.392Z</time></trkpt><trkpt lat="45.8883818" lon="11.6046368"><ele>837.6</ele><time>2026-04-26T11:41:15.393Z</time></trkpt><trkpt lat="45.8883024" lon="11.6046063"><ele>840.2</ele><time>2026-04-26T11:41:16.393Z</time></trkpt><trkpt lat="45.8882321" lon="11.6045801"><ele>842.8</ele><time>2026-04-26T11:41:17.393Z</time></trkpt><trkpt lat="45.8881543" lon="11.604449"><ele>845.4</ele><time>2026-04-26T11:41:19.39Z</time></trkpt><trkpt lat="45.8881456" lon="11.604331"><ele>848.0</ele><time>2026-04-26T11:41:20.391Z</time></trkpt><trkpt lat="45.8881449" lon="11.6041816"><ele>848.0</ele><time>2026-04-26T11:41:21.391Z</time></trkpt><trkpt lat="45.8881412" lon="11.6040079"><ele>848.0</ele><time>2026-04-26T11:41:22.391Z</time></trkpt><trkpt lat="45.8881259" lon="11.6038353"><ele>848.0</ele><time>2026-04-26T11:41:23.392Z</time></trkpt><trkpt lat="45.8881071" lon="11.6036703"><ele>848.0</ele><time>2026-04-26T11:41:24.391Z</time></trkpt><trkpt lat="45.8880819" lon="11.6035165"><ele>846.3333333333334</ele><time>2026-04-26T11:41:25.389Z</time></trkpt><trkpt lat="45.8880642" lon="11.6033777"><ele>844.6666666666667</ele><time>2026-04-26T11:41:26.39Z</time></trkpt><trkpt lat="45.8880691" lon="11.6032501"><ele>843.0</ele><time>2026-04-26T11:41:27.392Z</time></trkpt><trkpt lat="45.8880917" lon="11.6031349"><ele>841.3333333333333</ele><time>2026-04-26T11:41:28.39Z</time></trkpt><trkpt lat="45.8881245" lon="11.6030243"><ele>839.6666666666666</ele><time>2026-04-26T11:41:29.389Z</time></trkpt><trkpt lat="45.8881786" lon="11.6029197"><ele>838.0</ele><time>2026-04-26T11:41:30.389Z</time></trkpt><trkpt lat="45.8882337" lon="11.6028335"><ele>838.4</ele><time>2026-04-26T11:41:31.39Z</time></trkpt><trkpt lat="45.8882965" lon="11.6027605"><ele>838.8</ele><time>2026-04-26T11:41:32.392Z</time></trkpt><trkpt lat="45.8883908" lon="11.6026103"><ele>839.2</ele><time>2026-04-26T11:41:34.391Z</time></trkpt><trkpt lat="45.8884056" lon="11.6025177"><ele>839.6</ele><time>2026-04-26T11:41:35.391Z</time></trkpt><trkpt lat="45.8884277" lon="11.6024292"><ele>840.0</ele><time>2026-04-26T11:41:36.392Z</time></trkpt><trkpt lat="45.8884775" lon="11.6022883"><ele>840.0</ele><time>2026-04-26T11:41:38.391Z</time></trkpt><trkpt lat="45.8885387" lon="11.6022467"><ele>840.0</ele><time>2026-04-26T11:41:40.391Z</time></trkpt><trkpt lat="45.8885464" lon="11.6023394"><ele>840.0</ele><time>2026-04-26T11:41:42.391Z</time></trkpt><trkpt lat="45.8885074" lon="11.6024841"><ele>840.0</ele><time>2026-04-26T11:41:44.392Z</time></trkpt><trkpt lat="45.8884872" lon="11.6025782"><ele>840.0</ele><time>2026-04-26T11:41:45.393Z</time></trkpt><trkpt lat="45.8884695" lon="11.6026655"><ele>840.0</ele><time>2026-04-26T11:41:46.392Z</time></trkpt><trkpt lat="45.8883838" lon="11.6027842"><ele>839.5</ele><time>2026-04-26T11:41:48.392Z</time></trkpt><trkpt lat="45.8882945" lon="11.6028889"><ele>839.0</ele><time>2026-04-26T11:41:50.391Z</time></trkpt><trkpt lat="45.8882353" lon="11.603041"><ele>838.5</ele><time>2026-04-26T11:41:52.391Z</time></trkpt><trkpt lat="45.8882182" lon="11.6031333"><ele>838.0</ele><time>2026-04-26T11:41:53.39Z</time></trkpt><trkpt lat="45.888244" lon="11.6033768"><ele>838.0</ele><time>2026-04-26T11:41:56.39Z</time></trkpt><trkpt lat="45.8882984" lon="11.6034759"><ele>838.0</ele><time>2026-04-26T11:41:58.392Z</time></trkpt><trkpt lat="45.8883794" lon="11.6034674"><ele>838.0</ele><time>2026-04-26T11:42:00.39Z</time></trkpt><trkpt lat="45.8884162" lon="11.6033417"><ele>838.0</ele><time>2026-04-26T11:42:02.392Z</time></trkpt><trkpt lat="45.8884064" lon="11.6031835"><ele>838.0</ele><time>2026-04-26T11:42:04.391Z</time></trkpt><trkpt lat="45.8884664" lon="11.6030751"><ele>837.0</ele><time>2026-04-26T11:42:06.392Z</time></trkpt><trkpt lat="45.8885431" lon="11.6030378"><ele>836.0</ele><time>2026-04-26T11:42:07.393Z</time></trkpt><trkpt lat="45.8886418" lon="11.6029734"><ele>835.0</ele><time>2026-04-26T11:42:08.391Z</time></trkpt><trkpt lat="45.8887452" lon="11.6028786"><ele>834.0</ele><time>2026-04-26T11:42:09.392Z</time></trkpt><trkpt lat="45.8888487" lon="11.6028017"><ele>833.0</ele><time>2026-04-26T11:42:10.39Z</time></trkpt><trkpt lat="45.8889532" lon="11.6027574"><ele>829.25</ele><time>2026-04-26T11:42:11.39Z</time></trkpt><trkpt lat="45.8890674" lon="11.6027183"><ele>825.5</ele><time>2026-04-26T11:42:12.391Z</time></trkpt><trkpt lat="45.8891763" lon="11.6026557"><ele>821.75</ele><time>2026-04-26T11:42:13.391Z</time></trkpt><trkpt lat="45.8892618" lon="11.6025692"><ele>818.0</ele><time>2026-04-26T11:42:14.391Z</time></trkpt><trkpt lat="45.8893804" lon="11.6023412"><ele>822.0000000000001</ele><time>2026-04-26T11:42:16.391Z</time></trkpt><trkpt lat="45.8893911" lon="11.6022168"><ele>826.0</ele><time>2026-04-26T11:42:17.391Z</time></trkpt><trkpt lat="45.8893707" lon="11.6020867"><ele>830.0</ele><time>2026-04-26T11:42:18.39Z</time></trkpt><trkpt lat="45.8893526" lon="11.6019566"><ele>834.0</ele><time>2026-04-26T11:42:19.389Z</time></trkpt><trkpt lat="45.8893556" lon="11.601839"><ele>838.0000000000001</ele><time>2026-04-26T11:42:20.39Z</time></trkpt><trkpt lat="45.8893813" lon="11.6017383"><ele>842.0</ele><time>2026-04-26T11:42:21.391Z</time></trkpt><trkpt lat="45.8894483" lon="11.60167"><ele>842.0</ele><time>2026-04-26T11:42:22.39Z</time></trkpt><trkpt lat="45.8895372" lon="11.6016124"><ele>842.0</ele><time>2026-04-26T11:42:23.39Z</time></trkpt><trkpt lat="45.8896187" lon="11.6015161"><ele>842.0</ele><time>2026-04-26T11:42:24.393Z</time></trkpt><trkpt lat="45.8896684" lon="11.6013719"><ele>842.0</ele><time>2026-04-26T11:42:25.392Z</time></trkpt><trkpt lat="45.8897106" lon="11.6011871"><ele>840.5</ele><time>2026-04-26T11:42:26.392Z</time></trkpt><trkpt lat="45.8897518" lon="11.6009931"><ele>839.0</ele><time>2026-04-26T11:42:27.392Z</time></trkpt><trkpt lat="45.8897885" lon="11.6008145"><ele>837.5</ele><time>2026-04-26T11:42:28.391Z</time></trkpt><trkpt lat="45.8898159" lon="11.6006486"><ele>836.0</ele><time>2026-04-26T11:42:29.392Z</time></trkpt><trkpt lat="45.8898226" lon="11.6004888"><ele>836.0</ele><time>2026-04-26T11:42:30.391Z</time></trkpt><trkpt lat="45.8898246" lon="11.6003491"><ele>836.0</ele><time>2026-04-26T11:42:31.39Z</time></trkpt><trkpt lat="45.8898455" lon="11.6002376"><ele>836.0</ele><time>2026-04-26T11:42:32.392Z</time></trkpt><trkpt lat="45.889901" lon="11.6001597"><ele>836.0</ele><time>2026-04-26T11:42:33.393Z</time></trkpt><trkpt lat="45.8899878" lon="11.6000974"><ele>836.0</ele><time>2026-04-26T11:42:34.392Z</time></trkpt><trkpt lat="45.8900842" lon="11.6000416"><ele>838.5</ele><time>2026-04-26T11:42:35.39Z</time></trkpt><trkpt lat="45.8902636" lon="11.5998751"><ele>841.0</ele><time>2026-04-26T11:42:37.392Z</time></trkpt><trkpt lat="45.8903368" lon="11.5997556"><ele>843.5</ele><time>2026-04-26T11:42:38.39Z</time></trkpt><trkpt lat="45.8903989" lon="11.5996174"><ele>846.0</ele><time>2026-04-26T11:42:39.393Z</time></trkpt><trkpt lat="45.8904526" lon="11.5994648"><ele>846.0</ele><time>2026-04-26T11:42:40.393Z</time></trkpt><trkpt lat="45.8905006" lon="11.599293"><ele>846.0</ele><time>2026-04-26T11:42:41.391Z</time></trkpt><trkpt lat="45.8905286" lon="11.5990989"><ele>846.0</ele><time>2026-04-26T11:42:42.389Z</time></trkpt><trkpt lat="45.8905469" lon="11.598919"><ele>846.0</ele><time>2026-04-26T11:42:43.39Z</time></trkpt><trkpt lat="45.8905588" lon="11.598755"><ele>845.4</ele><time>2026-04-26T11:42:44.39Z</time></trkpt><trkpt lat="45.8905621" lon="11.5986065"><ele>844.8</ele><time>2026-04-26T11:42:45.39Z</time></trkpt><trkpt lat="45.8905502" lon="11.5984778"><ele>844.1999999999999</ele><time>2026-04-26T11:42:46.393Z</time></trkpt><trkpt lat="45.8905338" lon="11.5983769"><ele>843.5999999999999</ele><time>2026-04-26T11:42:47.392Z</time></trkpt><trkpt lat="45.8906004" lon="11.5982187"><ele>843.0</ele><time>2026-04-26T11:42:49.392Z</time></trkpt><trkpt lat="45.8906826" lon="11.598143"><ele>843.0</ele><time>2026-04-26T11:42:50.393Z</time></trkpt><trkpt lat="45.8907843" lon="11.5980675"><ele>843.0</ele><time>2026-04-26T11:42:51.391Z</time></trkpt><trkpt lat="45.89087" lon="11.5979867"><ele>843.0</ele><time>2026-04-26T11:42:52.392Z</time></trkpt><trkpt lat="45.8909277" lon="11.5978971"><ele>843.0</ele><time>2026-04-26T11:42:53.392Z</time></trkpt><trkpt lat="45.8909482" lon="11.5977966"><ele>843.0</ele><time>2026-04-26T11:42:54.393Z</time></trkpt><trkpt lat="45.8909373" lon="11.5977061"><ele>843.0</ele><time>2026-04-26T11:42:55.392Z</time></trkpt><trkpt lat="45.8908316" lon="11.5976252"><ele>843.25</ele><time>2026-04-26T11:42:57.393Z</time></trkpt><trkpt lat="45.890643" lon="11.5976311"><ele>843.5</ele><time>2026-04-26T11:42:59.391Z</time></trkpt><trkpt lat="45.8905393" lon="11.597612"><ele>843.75</ele><time>2026-04-26T11:43:00.391Z</time></trkpt><trkpt lat="45.8904414" lon="11.5975483"><ele>844.0</ele><time>2026-04-26T11:43:01.392Z</time></trkpt><trkpt lat="45.8903672" lon="11.5974643"><ele>843.9999999999999</ele><time>2026-04-26T11:43:02.393Z</time></trkpt><trkpt lat="45.8903177" lon="11.5973716"><ele>844.0</ele><time>2026-04-26T11:43:03.395Z</time></trkpt><trkpt lat="45.8902907" lon="11.5972363"><ele>844.0</ele><time>2026-04-26T11:43:04.394Z</time></trkpt><trkpt lat="45.8902837" lon="11.5970898"><ele>844.0</ele><time>2026-04-26T11:43:05.395Z</time></trkpt><trkpt lat="45.8902851" lon="11.5969614"><ele>843.9999999999999</ele><time>2026-04-26T11:43:06.392Z</time></trkpt><trkpt lat="45.8902916" lon="11.5968518"><ele>844.0</ele><time>2026-04-26T11:43:07.392Z</time></trkpt><trkpt lat="45.8902985" lon="11.5967612"><ele>845.4999999999999</ele><time>2026-04-26T11:43:08.391Z</time></trkpt><trkpt lat="45.8902938" lon="11.5966172"><ele>847.0</ele><time>2026-04-26T11:43:10.393Z</time></trkpt><trkpt lat="45.8902599" lon="11.5964608"><ele>848.5</ele><time>2026-04-26T11:43:12.394Z</time></trkpt><trkpt lat="45.8902446" lon="11.5963588"><ele>850.0</ele><time>2026-04-26T11:43:13.394Z</time></trkpt><trkpt lat="45.89024" lon="11.5962411"><ele>851.4999999999999</ele><time>2026-04-26T11:43:14.394Z</time></trkpt><trkpt lat="45.8902416" lon="11.5961357"><ele>853.0</ele><time>2026-04-26T11:43:15.396Z</time></trkpt><trkpt lat="45.890243" lon="11.595968"><ele>854.0</ele><time>2026-04-26T11:43:17.394Z</time></trkpt><trkpt lat="45.8902388" lon="11.5958536"><ele>855.0</ele><time>2026-04-26T11:43:19.395Z</time></trkpt><trkpt lat="45.8902488" lon="11.5954501"><ele>856.0</ele><time>2026-04-26T11:44:05.393Z</time></trkpt><trkpt lat="45.8902456" lon="11.5953329"><ele>857.0</ele><time>2026-04-26T11:44:06.396Z</time></trkpt><trkpt lat="45.8902316" lon="11.5952326"><ele>857.6</ele><time>2026-04-26T11:44:07.393Z</time></trkpt><trkpt lat="45.8901935" lon="11.5950689"><ele>858.2</ele><time>2026-04-26T11:44:09.394Z</time></trkpt><trkpt lat="45.8901535" lon="11.5948854"><ele>858.8</ele><time>2026-04-26T11:44:11.393Z</time></trkpt><trkpt lat="45.8901385" lon="11.594778"><ele>859.4</ele><time>2026-04-26T11:44:12.393Z</time></trkpt><trkpt lat="45.8901296" lon="11.5946853"><ele>860.0</ele><time>2026-04-26T11:44:13.394Z</time></trkpt><trkpt lat="45.8901178" lon="11.5945375"><ele>858.0000000000001</ele><time>2026-04-26T11:44:15.393Z</time></trkpt><trkpt lat="45.8900571" lon="11.5944162"><ele>856.0</ele><time>2026-04-26T11:44:17.394Z</time></trkpt><trkpt lat="45.8900002" lon="11.5943594"><ele>854.0</ele><time>2026-04-26T11:44:18.394Z</time></trkpt><trkpt lat="45.8899304" lon="11.5943048"><ele>852.0</ele><time>2026-04-26T11:44:19.395Z</time></trkpt><trkpt lat="45.8898653" lon="11.5942393"><ele>850.0000000000001</ele><time>2026-04-26T11:44:20.394Z</time></trkpt><trkpt lat="45.8898113" lon="11.5941541"><ele>848.0</ele><time>2026-04-26T11:44:21.393Z</time></trkpt><trkpt lat="45.8897543" lon="11.5940412"><ele>848.0</ele><time>2026-04-26T11:44:22.394Z</time></trkpt><trkpt lat="45.889695" lon="11.5939173"><ele>848.0</ele><time>2026-04-26T11:44:23.392Z</time></trkpt><trkpt lat="45.8896047" lon="11.5937082"><ele>848.0</ele><time>2026-04-26T11:44:25.396Z</time></trkpt><trkpt lat="45.8895747" lon="11.5936236"><ele>848.0</ele><time>2026-04-26T11:44:26.394Z</time></trkpt><trkpt lat="45.8895649" lon="11.5934557"><ele>849.0000000000001</ele><time>2026-04-26T11:44:28.395Z</time></trkpt><trkpt lat="45.8895882" lon="11.5933711"><ele>850.0</ele><time>2026-04-26T11:44:29.395Z</time></trkpt><trkpt lat="45.8896274" lon="11.593298"><ele>851.0</ele><time>2026-04-26T11:44:30.395Z</time></trkpt><trkpt lat="45.8896775" lon="11.5932243"><ele>852.0</ele><time>2026-04-26T11:44:31.396Z</time></trkpt><trkpt lat="45.8897285" lon="11.5931427"><ele>853.0000000000001</ele><time>2026-04-26T11:44:32.397Z</time></trkpt><trkpt lat="45.8897739" lon="11.5930661"><ele>854.0</ele><time>2026-04-26T11:44:33.397Z</time></trkpt><trkpt lat="45.8898478" lon="11.5929362"><ele>856.0</ele><time>2026-04-26T11:44:35.395Z</time></trkpt><trkpt lat="45.8899047" lon="11.5928146"><ele>858.0000000000001</ele><time>2026-04-26T11:44:37.394Z</time></trkpt><trkpt lat="45.8898952" lon="11.5926868"><ele>860.0000000000001</ele><time>2026-04-26T11:44:39.395Z</time></trkpt><trkpt lat="45.8898178" lon="11.5926157"><ele>862.0</ele><time>2026-04-26T11:44:41.393Z</time></trkpt><trkpt lat="45.8896924" lon="11.5925966"><ele>864.0</ele><time>2026-04-26T11:44:43.393Z</time></trkpt><trkpt lat="45.889618" lon="11.5926005"><ele>864.0</ele><time>2026-04-26T11:44:44.391Z</time></trkpt><trkpt lat="45.8894262" lon="11.5925926"><ele>864.0000000000001</ele><time>2026-04-26T11:44:47.391Z</time></trkpt><trkpt lat="45.8893697" lon="11.5925287"><ele>864.0000000000001</ele><time>2026-04-26T11:44:48.394Z</time></trkpt><trkpt lat="45.8893096" lon="11.5924461"><ele>864.0</ele><time>2026-04-26T11:44:49.394Z</time></trkpt><trkpt lat="45.8892446" lon="11.5923514"><ele>864.0</ele><time>2026-04-26T11:44:50.393Z</time></trkpt><trkpt lat="45.8891931" lon="11.5922601"><ele>863.5</ele><time>2026-04-26T11:44:51.394Z</time></trkpt><trkpt lat="45.8891405" lon="11.5921714"><ele>863.0</ele><time>2026-04-26T11:44:52.395Z</time></trkpt><trkpt lat="45.8890891" lon="11.5920725"><ele>862.5</ele><time>2026-04-26T11:44:53.393Z</time></trkpt><trkpt lat="45.8890453" lon="11.5919708"><ele>862.0</ele><time>2026-04-26T11:44:54.395Z</time></trkpt><trkpt lat="45.8890144" lon="11.5918618"><ele>861.5</ele><time>2026-04-26T11:44:55.395Z</time></trkpt><trkpt lat="45.8889824" lon="11.5917518"><ele>861.0</ele><time>2026-04-26T11:44:56.392Z</time></trkpt><trkpt lat="45.8889485" lon="11.5916377"><ele>861.0</ele><time>2026-04-26T11:44:57.394Z</time></trkpt><trkpt lat="45.8889189" lon="11.5915351"><ele>861.0</ele><time>2026-04-26T11:44:58.394Z</time></trkpt><trkpt lat="45.8889075" lon="11.5914302"><ele>861.0</ele><time>2026-04-26T11:44:59.394Z</time></trkpt><trkpt lat="45.8888958" lon="11.5913209"><ele>861.0</ele><time>2026-04-26T11:45:00.394Z</time></trkpt><trkpt lat="45.8888869" lon="11.5912171"><ele>861.0</ele><time>2026-04-26T11:45:01.396Z</time></trkpt><trkpt lat="45.8888697" lon="11.5911031"><ele>861.0</ele><time>2026-04-26T11:45:02.394Z</time></trkpt><trkpt lat="45.8888646" lon="11.590976"><ele>864.75</ele><time>2026-04-26T11:45:03.395Z</time></trkpt><trkpt lat="45.8888538" lon="11.5908522"><ele>868.5</ele><time>2026-04-26T11:45:04.394Z</time></trkpt><trkpt lat="45.8888291" lon="11.5907235"><ele>872.25</ele><time>2026-04-26T11:45:05.393Z</time></trkpt><trkpt lat="45.888743" lon="11.590478"><ele>876.0</ele><time>2026-04-26T11:45:07.392Z</time></trkpt><trkpt lat="45.8886974" lon="11.5903589"><ele>879.4</ele><time>2026-04-26T11:45:08.39Z</time></trkpt><trkpt lat="45.8886466" lon="11.590247"><ele>882.8</ele><time>2026-04-26T11:45:09.391Z</time></trkpt><trkpt lat="45.8885945" lon="11.590132"><ele>886.1999999999999</ele><time>2026-04-26T11:45:10.39Z</time></trkpt><trkpt lat="45.888563" lon="11.5899971"><ele>889.5999999999999</ele><time>2026-04-26T11:45:11.392Z</time></trkpt><trkpt lat="45.8885396" lon="11.5898777"><ele>893.0</ele><time>2026-04-26T11:45:12.393Z</time></trkpt><trkpt lat="45.8885088" lon="11.5897643"><ele>893.0</ele><time>2026-04-26T11:45:13.395Z</time></trkpt><trkpt lat="45.8884716" lon="11.5896477"><ele>893.0</ele><time>2026-04-26T11:45:14.393Z</time></trkpt><trkpt lat="45.888416" lon="11.5895218"><ele>893.0</ele><time>2026-04-26T11:45:15.395Z</time></trkpt><trkpt lat="45.8883609" lon="11.5893896"><ele>893.0</ele><time>2026-04-26T11:45:16.392Z</time></trkpt><trkpt lat="45.8883119" lon="11.5892561"><ele>893.0</ele><time>2026-04-26T11:45:17.393Z</time></trkpt><trkpt lat="45.888272" lon="11.5891346"><ele>891.1666666666667</ele><time>2026-04-26T11:45:18.393Z</time></trkpt><trkpt lat="45.8882365" lon="11.5890197"><ele>889.3333333333334</ele><time>2026-04-26T11:45:19.391Z</time></trkpt><trkpt lat="45.8882015" lon="11.5889284"><ele>887.5</ele><time>2026-04-26T11:45:20.193Z</time></trkpt><trkpt lat="45.8881412" lon="11.5887925"><ele>885.6666666666667</ele><time>2026-04-26T11:45:21.394Z</time></trkpt><trkpt lat="45.8880994" lon="11.588684"><ele>883.8333333333334</ele><time>2026-04-26T11:45:22.392Z</time></trkpt><trkpt lat="45.888055" lon="11.5885824"><ele>882.0</ele><time>2026-04-26T11:45:23.391Z</time></trkpt><trkpt lat="45.8880107" lon="11.5884858"><ele>882.0</ele><time>2026-04-26T11:45:24.392Z</time></trkpt><trkpt lat="45.8879709" lon="11.5884083"><ele>882.0</ele><time>2026-04-26T11:45:25.394Z</time></trkpt><trkpt lat="45.887914" lon="11.5882722"><ele>882.0</ele><time>2026-04-26T11:45:27.392Z</time></trkpt><trkpt lat="45.8878468" lon="11.5880711"><ele>882.0</ele><time>2026-04-26T11:45:37.391Z</time></trkpt><trkpt lat="45.8877966" lon="11.5879156"><ele>884.6666666666666</ele><time>2026-04-26T11:45:39.394Z</time></trkpt><trkpt lat="45.8877476" lon="11.5878016"><ele>887.3333333333333</ele><time>2026-04-26T11:45:40.393Z</time></trkpt><trkpt lat="45.8876964" lon="11.587691"><ele>890.0</ele><time>2026-04-26T11:45:41.392Z</time></trkpt><trkpt lat="45.8876702" lon="11.5875764"><ele>892.6666666666666</ele><time>2026-04-26T11:45:42.394Z</time></trkpt><trkpt lat="45.8876515" lon="11.5874757"><ele>895.3333333333333</ele><time>2026-04-26T11:45:43.392Z</time></trkpt><trkpt lat="45.887643" lon="11.5873644"><ele>898.0</ele><time>2026-04-26T11:45:44.395Z</time></trkpt><trkpt lat="45.8876427" lon="11.5872432"><ele>898.0</ele><time>2026-04-26T11:45:45.393Z</time></trkpt><trkpt lat="45.8876495" lon="11.5871306"><ele>898.0</ele><time>2026-04-26T11:45:46.393Z</time></trkpt><trkpt lat="45.8876689" lon="11.5870215"><ele>898.0</ele><time>2026-04-26T11:45:47.392Z</time></trkpt><trkpt lat="45.8877023" lon="11.5869084"><ele>898.0</ele><time>2026-04-26T11:45:48.394Z</time></trkpt><trkpt lat="45.8877919" lon="11.5866373"><ele>899.5999999999999</ele><time>2026-04-26T11:45:50.393Z</time></trkpt><trkpt lat="45.8878208" lon="11.5864996"><ele>901.1999999999999</ele><time>2026-04-26T11:45:51.392Z</time></trkpt><trkpt lat="45.8878366" lon="11.5863565"><ele>902.8</ele><time>2026-04-26T11:45:52.392Z</time></trkpt><trkpt lat="45.8878399" lon="11.5862066"><ele>904.4</ele><time>2026-04-26T11:45:53.392Z</time></trkpt><trkpt lat="45.887831" lon="11.5860467"><ele>906.0</ele><time>2026-04-26T11:45:54.393Z</time></trkpt><trkpt lat="45.887815" lon="11.5858799"><ele>906.4</ele><time>2026-04-26T11:45:55.392Z</time></trkpt><trkpt lat="45.8877987" lon="11.5857124"><ele>906.8</ele><time>2026-04-26T11:45:56.391Z</time></trkpt><trkpt lat="45.8877849" lon="11.585563"><ele>907.1999999999999</ele><time>2026-04-26T11:45:57.39Z</time></trkpt><trkpt lat="45.8877697" lon="11.58541"><ele>907.5999999999999</ele><time>2026-04-26T11:45:58.388Z</time></trkpt><trkpt lat="45.8877541" lon="11.5852448"><ele>908.0</ele><time>2026-04-26T11:45:59.388Z</time></trkpt><trkpt lat="45.8877404" lon="11.5850749"><ele>909.75</ele><time>2026-04-26T11:46:00.387Z</time></trkpt><trkpt lat="45.887733" lon="11.5849073"><ele>911.5</ele><time>2026-04-26T11:46:01.389Z</time></trkpt><trkpt lat="45.8877151" lon="11.5847488"><ele>913.25</ele><time>2026-04-26T11:46:02.389Z</time></trkpt><trkpt lat="45.8876888" lon="11.584589"><ele>915.0</ele><time>2026-04-26T11:46:03.392Z</time></trkpt><trkpt lat="45.887665" lon="11.5844354"><ele>917.4</ele><time>2026-04-26T11:46:04.394Z</time></trkpt><trkpt lat="45.8876526" lon="11.5842865"><ele>919.8</ele><time>2026-04-26T11:46:05.392Z</time></trkpt><trkpt lat="45.88764" lon="11.584139"><ele>922.2</ele><time>2026-04-26T11:46:06.392Z</time></trkpt><trkpt lat="45.887622" lon="11.5839926"><ele>924.6</ele><time>2026-04-26T11:46:07.391Z</time></trkpt><trkpt lat="45.8876074" lon="11.5838565"><ele>927.0</ele><time>2026-04-26T11:46:08.392Z</time></trkpt><trkpt lat="45.8876045" lon="11.5837347"><ele>927.25</ele><time>2026-04-26T11:46:09.392Z</time></trkpt><trkpt lat="45.8876049" lon="11.5834745"><ele>927.5</ele><time>2026-04-26T11:46:11.391Z</time></trkpt><trkpt lat="45.887616" lon="11.583323"><ele>927.75</ele><time>2026-04-26T11:46:12.393Z</time></trkpt><trkpt lat="45.8876357" lon="11.5831607"><ele>928.0</ele><time>2026-04-26T11:46:13.393Z</time></trkpt><trkpt lat="45.8876517" lon="11.5829949"><ele>928.0</ele><time>2026-04-26T11:46:14.391Z</time></trkpt><trkpt lat="45.8876576" lon="11.5828431"><ele>928.0</ele><time>2026-04-26T11:46:15.39Z</time></trkpt><trkpt lat="45.8876595" lon="11.5827037"><ele>928.0</ele><time>2026-04-26T11:46:16.392Z</time></trkpt><trkpt lat="45.8876541" lon="11.5825766"><ele>928.0</ele><time>2026-04-26T11:46:17.39Z</time></trkpt><trkpt lat="45.8876416" lon="11.582451"><ele>928.0</ele><time>2026-04-26T11:46:18.392Z</time></trkpt><trkpt lat="45.8876272" lon="11.5823443"><ele>927.9999999999999</ele><time>2026-04-26T11:46:19.389Z</time></trkpt><trkpt lat="45.8876149" lon="11.5821635"><ele>928.0</ele><time>2026-04-26T11:46:21.391Z</time></trkpt><trkpt lat="45.8876046" lon="11.5820588"><ele>928.0</ele><time>2026-04-26T11:46:22.391Z</time></trkpt><trkpt lat="45.887596" lon="11.5819389"><ele>928.0</ele><time>2026-04-26T11:46:23.392Z</time></trkpt><trkpt lat="45.8875898" lon="11.5818196"><ele>927.9999999999999</ele><time>2026-04-26T11:46:24.391Z</time></trkpt><trkpt lat="45.8875749" lon="11.5817091"><ele>928.0</ele><time>2026-04-26T11:46:25.39Z</time></trkpt><trkpt lat="45.8875566" lon="11.5815818"><ele>918.0</ele><time>2026-04-26T11:46:26.391Z</time></trkpt><trkpt lat="45.8875446" lon="11.5814455"><ele>908.0</ele><time>2026-04-26T11:46:27.394Z</time></trkpt><trkpt lat="45.8875418" lon="11.5812918"><ele>898.0</ele><time>2026-04-26T11:46:28.39Z</time></trkpt><trkpt lat="45.8875463" lon="11.5811168"><ele>888.0</ele><time>2026-04-26T11:46:29.393Z</time></trkpt><trkpt lat="45.8875559" lon="11.5809386"><ele>878.0</ele><time>2026-04-26T11:46:30.391Z</time></trkpt><trkpt lat="45.8875731" lon="11.5806294"><ele>877.6666666666667</ele><time>2026-04-26T11:46:32.392Z</time></trkpt><trkpt lat="45.8875813" lon="11.5804945"><ele>877.3333333333334</ele><time>2026-04-26T11:46:33.393Z</time></trkpt><trkpt lat="45.8875938" lon="11.5803787"><ele>877.0</ele><time>2026-04-26T11:46:34.393Z</time></trkpt><trkpt lat="45.887617" lon="11.580269"><ele>876.6666666666667</ele><time>2026-04-26T11:46:35.391Z</time></trkpt><trkpt lat="45.8876509" lon="11.5801619"><ele>876.3333333333334</ele><time>2026-04-26T11:46:36.393Z</time></trkpt><trkpt lat="45.8876938" lon="11.580058"><ele>876.0</ele><time>2026-04-26T11:46:37.392Z</time></trkpt><trkpt lat="45.887757" lon="11.5799532"><ele>881.4</ele><time>2026-04-26T11:46:38.39Z</time></trkpt><trkpt lat="45.8878343" lon="11.5798383"><ele>886.8</ele><time>2026-04-26T11:46:39.393Z</time></trkpt><trkpt lat="45.8879103" lon="11.5797325"><ele>892.1999999999999</ele><time>2026-04-26T11:46:40.395Z</time></trkpt><trkpt lat="45.8879632" lon="11.5796151"><ele>897.5999999999999</ele><time>2026-04-26T11:46:41.39Z</time></trkpt><trkpt lat="45.8879997" lon="11.5794941"><ele>903.0</ele><time>2026-04-26T11:46:42.389Z</time></trkpt><trkpt lat="45.8880262" lon="11.5793566"><ele>903.0</ele><time>2026-04-26T11:46:43.39Z</time></trkpt><trkpt lat="45.8880388" lon="11.5792045"><ele>903.0</ele><time>2026-04-26T11:46:44.388Z</time></trkpt><trkpt lat="45.8880402" lon="11.5790591"><ele>903.0</ele><time>2026-04-26T11:46:45.389Z</time></trkpt><trkpt lat="45.8880398" lon="11.5789311"><ele>903.0</ele><time>2026-04-26T11:46:46.39Z</time></trkpt><trkpt lat="45.8880477" lon="11.5788152"><ele>903.0</ele><time>2026-04-26T11:46:47.389Z</time></trkpt><trkpt lat="45.888074" lon="11.5786953"><ele>900.5999999999999</ele><time>2026-04-26T11:46:48.387Z</time></trkpt><trkpt lat="45.8881102" lon="11.5785767"><ele>898.1999999999999</ele><time>2026-04-26T11:46:49.386Z</time></trkpt><trkpt lat="45.8881371" lon="11.5784529"><ele>895.8</ele><time>2026-04-26T11:46:50.387Z</time></trkpt><trkpt lat="45.8881496" lon="11.5783282"><ele>893.4</ele><time>2026-04-26T11:46:51.39Z</time></trkpt><trkpt lat="45.8881537" lon="11.5780683"><ele>891.0</ele><time>2026-04-26T11:46:54.39Z</time></trkpt><trkpt lat="45.8882129" lon="11.5779692"><ele>891.0</ele><time>2026-04-26T11:46:56.388Z</time></trkpt><trkpt lat="45.8883192" lon="11.5779331"><ele>891.0</ele><time>2026-04-26T11:46:58.388Z</time></trkpt><trkpt lat="45.8884105" lon="11.5778928"><ele>891.0</ele><time>2026-04-26T11:47:00.386Z</time></trkpt><trkpt lat="45.8884709" lon="11.5778302"><ele>891.0</ele><time>2026-04-26T11:47:02.388Z</time></trkpt><trkpt lat="45.8884641" lon="11.577725"><ele>891.0</ele><time>2026-04-26T11:47:04.388Z</time></trkpt><trkpt lat="45.8883889" lon="11.5776564"><ele>891.0</ele><time>2026-04-26T11:47:06.389Z</time></trkpt><trkpt lat="45.8883263" lon="11.5776429"><ele>891.1999999999999</ele><time>2026-04-26T11:47:07.387Z</time></trkpt><trkpt lat="45.8882638" lon="11.5776079"><ele>891.3999999999999</ele><time>2026-04-26T11:47:08.388Z</time></trkpt><trkpt lat="45.888207" lon="11.5775406"><ele>891.6</ele><time>2026-04-26T11:47:09.387Z</time></trkpt><trkpt lat="45.8881314" lon="11.5773977"><ele>891.8</ele><time>2026-04-26T11:47:11.388Z</time></trkpt><trkpt lat="45.8881178" lon="11.5772873"><ele>892.0</ele><time>2026-04-26T11:47:12.389Z</time></trkpt><trkpt lat="45.888155" lon="11.5769974"><ele>893.25</ele><time>2026-04-26T11:47:14.387Z</time></trkpt><trkpt lat="45.8881788" lon="11.5768163"><ele>894.5</ele><time>2026-04-26T11:47:15.391Z</time></trkpt><trkpt lat="45.8881969" lon="11.5766382"><ele>895.75</ele><time>2026-04-26T11:47:16.39Z</time></trkpt><trkpt lat="45.8882279" lon="11.5764701"><ele>897.0</ele><time>2026-04-26T11:47:17.391Z</time></trkpt><trkpt lat="45.8882589" lon="11.5763226"><ele>896.0</ele><time>2026-04-26T11:47:18.392Z</time></trkpt><trkpt lat="45.8882924" lon="11.5761814"><ele>895.0</ele><time>2026-04-26T11:47:19.389Z</time></trkpt><trkpt lat="45.8883387" lon="11.5760355"><ele>894.0</ele><time>2026-04-26T11:47:20.392Z</time></trkpt><trkpt lat="45.8883976" lon="11.5758873"><ele>893.0</ele><time>2026-04-26T11:47:21.392Z</time></trkpt><trkpt lat="45.888453" lon="11.5757309"><ele>901.5999999999999</ele><time>2026-04-26T11:47:22.391Z</time></trkpt><trkpt lat="45.8884961" lon="11.5755737"><ele>910.1999999999999</ele><time>2026-04-26T11:47:23.39Z</time></trkpt><trkpt lat="45.8885323" lon="11.575425"><ele>918.8</ele><time>2026-04-26T11:47:24.392Z</time></trkpt><trkpt lat="45.8885664" lon="11.575293"><ele>927.4</ele><time>2026-04-26T11:47:25.39Z</time></trkpt><trkpt lat="45.8885907" lon="11.5751749"><ele>936.0</ele><time>2026-04-26T11:47:26.39Z</time></trkpt><trkpt lat="45.8886014" lon="11.575062"><ele>936.0</ele><time>2026-04-26T11:47:27.392Z</time></trkpt><trkpt lat="45.8886049" lon="11.5749555"><ele>936.0000000000001</ele><time>2026-04-26T11:47:28.39Z</time></trkpt><trkpt lat="45.8886066" lon="11.5748552"><ele>936.0</ele><time>2026-04-26T11:47:29.39Z</time></trkpt><trkpt lat="45.8886101" lon="11.5747503"><ele>936.0</ele><time>2026-04-26T11:47:30.39Z</time></trkpt><trkpt lat="45.888607" lon="11.574646"><ele>936.0000000000001</ele><time>2026-04-26T11:47:31.389Z</time></trkpt><trkpt lat="45.8885963" lon="11.5745371"><ele>936.0</ele><time>2026-04-26T11:47:32.39Z</time></trkpt><trkpt lat="45.8885852" lon="11.5744292"><ele>936.0</ele><time>2026-04-26T11:47:33.392Z</time></trkpt><trkpt lat="45.8885637" lon="11.5742022"><ele>935.5999999999999</ele><time>2026-04-26T11:47:35.389Z</time></trkpt><trkpt lat="45.8885456" lon="11.5740782"><ele>935.1999999999999</ele><time>2026-04-26T11:47:36.39Z</time></trkpt><trkpt lat="45.8885226" lon="11.5739422"><ele>934.8000000000001</ele><time>2026-04-26T11:47:37.391Z</time></trkpt><trkpt lat="45.8885033" lon="11.5737949"><ele>934.4000000000001</ele><time>2026-04-26T11:47:38.39Z</time></trkpt><trkpt lat="45.888482" lon="11.5736294"><ele>934.0</ele><time>2026-04-26T11:47:39.391Z</time></trkpt><trkpt lat="45.8884553" lon="11.5734657"><ele>935.4999999999999</ele><time>2026-04-26T11:47:40.393Z</time></trkpt><trkpt lat="45.8884343" lon="11.5733196"><ele>937.0</ele><time>2026-04-26T11:47:41.391Z</time></trkpt><trkpt lat="45.8884186" lon="11.5731906"><ele>938.5</ele><time>2026-04-26T11:47:42.393Z</time></trkpt><trkpt lat="45.8884065" lon="11.5730734"><ele>940.0</ele><time>2026-04-26T11:47:43.391Z</time></trkpt><trkpt lat="45.8884006" lon="11.5729698"><ele>941.4999999999999</ele><time>2026-04-26T11:47:44.392Z</time></trkpt><trkpt lat="45.888418" lon="11.57286"><ele>943.0</ele><time>2026-04-26T11:47:45.391Z</time></trkpt><trkpt lat="45.8884545" lon="11.5727291"><ele>944.0</ele><time>2026-04-26T11:47:46.391Z</time></trkpt><trkpt lat="45.8885056" lon="11.5725845"><ele>945.0</ele><time>2026-04-26T11:47:47.391Z</time></trkpt><trkpt lat="45.8885569" lon="11.5724352"><ele>946.0</ele><time>2026-04-26T11:47:48.392Z</time></trkpt><trkpt lat="45.8885974" lon="11.5722743"><ele>947.0</ele><time>2026-04-26T11:47:49.393Z</time></trkpt><trkpt lat="45.8886331" lon="11.5721055"><ele>945.0</ele><time>2026-04-26T11:47:50.393Z</time></trkpt><trkpt lat="45.8886673" lon="11.5719402"><ele>943.0</ele><time>2026-04-26T11:47:51.391Z</time></trkpt><trkpt lat="45.8886913" lon="11.5717744"><ele>941.0</ele><time>2026-04-26T11:47:52.391Z</time></trkpt><trkpt lat="45.8887105" lon="11.5715972"><ele>939.0</ele><time>2026-04-26T11:47:53.392Z</time></trkpt><trkpt lat="45.8887295" lon="11.5714203"><ele>937.0</ele><time>2026-04-26T11:47:54.391Z</time></trkpt><trkpt lat="45.8887478" lon="11.5711125"><ele>935.0</ele><time>2026-04-26T11:47:56.391Z</time></trkpt><trkpt lat="45.8887616" lon="11.5709819"><ele>933.0</ele><time>2026-04-26T11:47:57.391Z</time></trkpt><trkpt lat="45.8887867" lon="11.5708591"><ele>931.0</ele><time>2026-04-26T11:47:58.391Z</time></trkpt><trkpt lat="45.8888175" lon="11.5707508"><ele>931.0</ele><time>2026-04-26T11:47:59.391Z</time></trkpt><trkpt lat="45.8888541" lon="11.5706554"><ele>931.0</ele><time>2026-04-26T11:48:00.39Z</time></trkpt><trkpt lat="45.8888926" lon="11.5705636"><ele>931.0</ele><time>2026-04-26T11:48:01.389Z</time></trkpt><trkpt lat="45.8889213" lon="11.5704664"><ele>931.0</ele><time>2026-04-26T11:48:02.391Z</time></trkpt><trkpt lat="45.8889457" lon="11.5703653"><ele>931.0</ele><time>2026-04-26T11:48:03.389Z</time></trkpt><trkpt lat="45.8889584" lon="11.5702613"><ele>931.0</ele><time>2026-04-26T11:48:04.39Z</time></trkpt><trkpt lat="45.8889723" lon="11.5701618"><ele>931.0</ele><time>2026-04-26T11:48:05.39Z</time></trkpt><trkpt lat="45.8889957" lon="11.5700687"><ele>929.9999999999999</ele><time>2026-04-26T11:48:06.39Z</time></trkpt><trkpt lat="45.8890166" lon="11.5699798"><ele>929.0</ele><time>2026-04-26T11:48:07.39Z</time></trkpt><trkpt lat="45.8890391" lon="11.5698928"><ele>928.0</ele><time>2026-04-26T11:48:08.391Z</time></trkpt><trkpt lat="45.8890528" lon="11.5697962"><ele>927.0</ele><time>2026-04-26T11:48:09.391Z</time></trkpt><trkpt lat="45.8890614" lon="11.5696805"><ele>925.9999999999999</ele><time>2026-04-26T11:48:10.391Z</time></trkpt><trkpt lat="45.8890584" lon="11.5695334"><ele>925.0</ele><time>2026-04-26T11:48:11.39Z</time></trkpt><trkpt lat="45.8890427" lon="11.5693665"><ele>925.0</ele><time>2026-04-26T11:48:12.392Z</time></trkpt><trkpt lat="45.8890175" lon="11.5691985"><ele>925.0</ele><time>2026-04-26T11:48:13.389Z</time></trkpt><trkpt lat="45.888991" lon="11.5690305"><ele>925.0</ele><time>2026-04-26T11:48:14.391Z</time></trkpt><trkpt lat="45.8889679" lon="11.5688768"><ele>925.0</ele><time>2026-04-26T11:48:15.391Z</time></trkpt><trkpt lat="45.8888932" lon="11.5685895"><ele>925.75</ele><time>2026-04-26T11:48:17.391Z</time></trkpt><trkpt lat="45.8888349" lon="11.568442"><ele>926.5</ele><time>2026-04-26T11:48:18.391Z</time></trkpt><trkpt lat="45.8887819" lon="11.5683051"><ele>927.25</ele><time>2026-04-26T11:48:19.392Z</time></trkpt><trkpt lat="45.8887355" lon="11.5681617"><ele>928.0</ele><time>2026-04-26T11:48:20.392Z</time></trkpt><trkpt lat="45.8886997" lon="11.5680057"><ele>930.2</ele><time>2026-04-26T11:48:21.392Z</time></trkpt><trkpt lat="45.8886662" lon="11.567841"><ele>932.4</ele><time>2026-04-26T11:48:22.392Z</time></trkpt><trkpt lat="45.8886337" lon="11.5676869"><ele>934.6000000000001</ele><time>2026-04-26T11:48:23.391Z</time></trkpt><trkpt lat="45.8886031" lon="11.5675459"><ele>936.8000000000001</ele><time>2026-04-26T11:48:24.393Z</time></trkpt><trkpt lat="45.8885792" lon="11.5674162"><ele>939.0</ele><time>2026-04-26T11:48:25.391Z</time></trkpt><trkpt lat="45.8885639" lon="11.5672966"><ele>939.0</ele><time>2026-04-26T11:48:26.392Z</time></trkpt><trkpt lat="45.8885572" lon="11.5671873"><ele>939.0</ele><time>2026-04-26T11:48:27.391Z</time></trkpt><trkpt lat="45.8885621" lon="11.5670843"><ele>939.0</ele><time>2026-04-26T11:48:28.39Z</time></trkpt><trkpt lat="45.8885783" lon="11.5669766"><ele>939.0</ele><time>2026-04-26T11:48:29.391Z</time></trkpt><trkpt lat="45.8886108" lon="11.5668569"><ele>939.0</ele><time>2026-04-26T11:48:30.392Z</time></trkpt><trkpt lat="45.8886562" lon="11.5667301"><ele>939.0</ele><time>2026-04-26T11:48:31.391Z</time></trkpt><trkpt lat="45.8887032" lon="11.5666093"><ele>936.8000000000001</ele><time>2026-04-26T11:48:32.393Z</time></trkpt><trkpt lat="45.8887526" lon="11.5664941"><ele>934.6000000000001</ele><time>2026-04-26T11:48:33.393Z</time></trkpt><trkpt lat="45.8888152" lon="11.5663855"><ele>932.4</ele><time>2026-04-26T11:48:34.394Z</time></trkpt><trkpt lat="45.8888893" lon="11.5662951"><ele>930.2</ele><time>2026-04-26T11:48:35.391Z</time></trkpt><trkpt lat="45.8889749" lon="11.5662155"><ele>928.0</ele><time>2026-04-26T11:48:36.392Z</time></trkpt><trkpt lat="45.889167" lon="11.5660697"><ele>928.75</ele><time>2026-04-26T11:48:38.39Z</time></trkpt><trkpt lat="45.8892881" lon="11.5660165"><ele>929.5</ele><time>2026-04-26T11:48:39.391Z</time></trkpt><trkpt lat="45.8894287" lon="11.5659829"><ele>930.25</ele><time>2026-04-26T11:48:40.393Z</time></trkpt><trkpt lat="45.8895802" lon="11.5659525"><ele>931.0</ele><time>2026-04-26T11:48:41.391Z</time></trkpt><trkpt lat="45.8897247" lon="11.565919"><ele>931.0</ele><time>2026-04-26T11:48:42.39Z</time></trkpt><trkpt lat="45.8898553" lon="11.5658892"><ele>931.0</ele><time>2026-04-26T11:48:43.391Z</time></trkpt><trkpt lat="45.8899759" lon="11.5658621"><ele>931.0</ele><time>2026-04-26T11:48:44.392Z</time></trkpt><trkpt lat="45.8901001" lon="11.5658432"><ele>931.0</ele><time>2026-04-26T11:48:45.392Z</time></trkpt><trkpt lat="45.8902316" lon="11.5658373"><ele>932.6666666666666</ele><time>2026-04-26T11:48:46.388Z</time></trkpt><trkpt lat="45.8903926" lon="11.5658505"><ele>934.3333333333333</ele><time>2026-04-26T11:48:47.39Z</time></trkpt><trkpt lat="45.890485" lon="11.565852"><ele>936.0</ele><time>2026-04-26T11:48:47.987Z</time></trkpt><trkpt lat="45.8907185" lon="11.5658056"><ele>936.0</ele><time>2026-04-26T11:48:49.389Z</time></trkpt><trkpt lat="45.8908915" lon="11.5657595"><ele>936.0</ele><time>2026-04-26T11:48:50.389Z</time></trkpt><trkpt lat="45.8910457" lon="11.5657197"><ele>936.0</ele><time>2026-04-26T11:48:51.39Z</time></trkpt><trkpt lat="45.8911976" lon="11.565675"><ele>938.25</ele><time>2026-04-26T11:48:52.389Z</time></trkpt><trkpt lat="45.8913521" lon="11.5656241"><ele>940.5</ele><time>2026-04-26T11:48:53.393Z</time></trkpt><trkpt lat="45.8914988" lon="11.565573"><ele>942.75</ele><time>2026-04-26T11:48:54.395Z</time></trkpt><trkpt lat="45.8916295" lon="11.56553"><ele>945.0</ele><time>2026-04-26T11:48:55.392Z</time></trkpt><trkpt lat="45.8917441" lon="11.5654931"><ele>947.25</ele><time>2026-04-26T11:48:56.392Z</time></trkpt><trkpt lat="45.8918452" lon="11.5654623"><ele>949.5</ele><time>2026-04-26T11:48:57.394Z</time></trkpt><trkpt lat="45.8920569" lon="11.5654271"><ele>951.75</ele><time>2026-04-26T11:48:59.394Z</time></trkpt><trkpt lat="45.8921392" lon="11.5654105"><ele>954.0</ele><time>2026-04-26T11:49:00.392Z</time></trkpt><trkpt lat="45.8921949" lon="11.5653591"><ele>954.0</ele><time>2026-04-26T11:49:01.393Z</time></trkpt><trkpt lat="45.8922276" lon="11.565264"><ele>954.0</ele><time>2026-04-26T11:49:02.391Z</time></trkpt><trkpt lat="45.8922307" lon="11.5651379"><ele>954.0</ele><time>2026-04-26T11:49:03.395Z</time></trkpt><trkpt lat="45.8922055" lon="11.5650127"><ele>954.0</ele><time>2026-04-26T11:49:04.394Z</time></trkpt><trkpt lat="45.892158" lon="11.5649003"><ele>954.0</ele><time>2026-04-26T11:49:05.394Z</time></trkpt><trkpt lat="45.8921003" lon="11.5648057"><ele>954.0</ele><time>2026-04-26T11:49:06.395Z</time></trkpt><trkpt lat="45.8920201" lon="11.564704"><ele>954.0</ele><time>2026-04-26T11:49:07.393Z</time></trkpt><trkpt lat="45.8919281" lon="11.5645914"><ele>954.0</ele><time>2026-04-26T11:49:08.391Z</time></trkpt><trkpt lat="45.8918163" lon="11.5644964"><ele>954.0</ele><time>2026-04-26T11:49:09.394Z</time></trkpt><trkpt lat="45.891674" lon="11.564439"><ele>954.0</ele><time>2026-04-26T11:49:10.394Z</time></trkpt><trkpt lat="45.8915115" lon="11.5644055"><ele>954.75</ele><time>2026-04-26T11:49:11.394Z</time></trkpt><trkpt lat="45.891364" lon="11.5643784"><ele>955.5</ele><time>2026-04-26T11:49:12.392Z</time></trkpt><trkpt lat="45.8912306" lon="11.564345"><ele>956.25</ele><time>2026-04-26T11:49:13.394Z</time></trkpt><trkpt lat="45.8911161" lon="11.5642991"><ele>957.0</ele><time>2026-04-26T11:49:14.391Z</time></trkpt><trkpt lat="45.8910378" lon="11.5642533"><ele>957.0</ele><time>2026-04-26T11:49:15.393Z</time></trkpt><trkpt lat="45.8909857" lon="11.5641718"><ele>957.0</ele><time>2026-04-26T11:49:17.391Z</time></trkpt><trkpt lat="45.891036" lon="11.5641059"><ele>957.0</ele><time>2026-04-26T11:49:19.392Z</time></trkpt><trkpt lat="45.891304" lon="11.5641149"><ele>957.0</ele><time>2026-04-26T11:49:22.392Z</time></trkpt><trkpt lat="45.8914045" lon="11.5641093"><ele>957.0</ele><time>2026-04-26T11:49:23.391Z</time></trkpt><trkpt lat="45.8915078" lon="11.5640904"><ele>957.0</ele><time>2026-04-26T11:49:24.393Z</time></trkpt><trkpt lat="45.8916144" lon="11.5640583"><ele>957.0</ele><time>2026-04-26T11:49:25.391Z</time></trkpt><trkpt lat="45.8917319" lon="11.5640176"><ele>957.0</ele><time>2026-04-26T11:49:26.39Z</time></trkpt><trkpt lat="45.8918689" lon="11.5639714"><ele>959.25</ele><time>2026-04-26T11:49:27.393Z</time></trkpt><trkpt lat="45.892023" lon="11.5639247"><ele>961.5</ele><time>2026-04-26T11:49:28.393Z</time></trkpt><trkpt lat="45.8921623" lon="11.5639029"><ele>963.75</ele><time>2026-04-26T11:49:29.392Z</time></trkpt><trkpt lat="45.8922874" lon="11.5639293"><ele>966.0</ele><time>2026-04-26T11:49:30.392Z</time></trkpt><trkpt lat="45.8924107" lon="11.5639998"><ele>966.0</ele><time>2026-04-26T11:49:31.393Z</time></trkpt><trkpt lat="45.892547" lon="11.5640878"><ele>966.0</ele><time>2026-04-26T11:49:32.392Z</time></trkpt><trkpt lat="45.8926991" lon="11.5641789"><ele>966.0</ele><time>2026-04-26T11:49:33.393Z</time></trkpt><trkpt lat="45.8928535" lon="11.5642653"><ele>973.0</ele><time>2026-04-26T11:49:34.392Z</time></trkpt><trkpt lat="45.8929712" lon="11.5643341"><ele>980.0</ele><time>2026-04-26T11:49:35.192Z</time></trkpt><trkpt lat="45.8931446" lon="11.5644316"><ele>987.0</ele><time>2026-04-26T11:49:36.394Z</time></trkpt><trkpt lat="45.8932739" lon="11.5645054"><ele>985.0</ele><time>2026-04-26T11:49:37.394Z</time></trkpt><trkpt lat="45.8933988" lon="11.5645596"><ele>983.0</ele><time>2026-04-26T11:49:38.391Z</time></trkpt><trkpt lat="45.8935369" lon="11.5645845"><ele>981.0</ele><time>2026-04-26T11:49:39.392Z</time></trkpt><trkpt lat="45.8936913" lon="11.5645862"><ele>979.0</ele><time>2026-04-26T11:49:40.388Z</time></trkpt><trkpt lat="45.8940074" lon="11.5646502"><ele>979.0</ele><time>2026-04-26T11:49:42.392Z</time></trkpt><trkpt lat="45.8941561" lon="11.5647185"><ele>979.0</ele><time>2026-04-26T11:49:43.394Z</time></trkpt><trkpt lat="45.8942868" lon="11.5647838"><ele>979.0</ele><time>2026-04-26T11:49:44.392Z</time></trkpt><trkpt lat="45.8943945" lon="11.5648746"><ele>979.0</ele><time>2026-04-26T11:49:45.393Z</time></trkpt><trkpt lat="45.8944754" lon="11.5649921"><ele>980.8000000000001</ele><time>2026-04-26T11:49:46.392Z</time></trkpt><trkpt lat="45.8945246" lon="11.5651377"><ele>982.6000000000001</ele><time>2026-04-26T11:49:47.392Z</time></trkpt><trkpt lat="45.8945498" lon="11.5652866"><ele>984.4</ele><time>2026-04-26T11:49:48.393Z</time></trkpt><trkpt lat="45.8945826" lon="11.5654293"><ele>986.2</ele><time>2026-04-26T11:49:49.392Z</time></trkpt><trkpt lat="45.8946422" lon="11.5655479"><ele>988.0</ele><time>2026-04-26T11:49:50.391Z</time></trkpt><trkpt lat="45.8947135" lon="11.5656286"><ele>988.0</ele><time>2026-04-26T11:49:51.393Z</time></trkpt><trkpt lat="45.8947812" lon="11.5656713"><ele>988.0</ele><time>2026-04-26T11:49:52.394Z</time></trkpt><trkpt lat="45.8948451" lon="11.5656641"><ele>988.0</ele><time>2026-04-26T11:49:53.392Z</time></trkpt><trkpt lat="45.8949137" lon="11.565606"><ele>988.0</ele><time>2026-04-26T11:49:54.393Z</time></trkpt><trkpt lat="45.8949836" lon="11.5654921"><ele>988.0</ele><time>2026-04-26T11:49:55.393Z</time></trkpt><trkpt lat="45.8950552" lon="11.5653326"><ele>992.0</ele><time>2026-04-26T11:49:56.393Z</time></trkpt><trkpt lat="45.8951314" lon="11.5651754"><ele>996.0</ele><time>2026-04-26T11:49:57.395Z</time></trkpt><trkpt lat="45.8952058" lon="11.5650318"><ele>1000.0</ele><time>2026-04-26T11:49:58.394Z</time></trkpt><trkpt lat="45.8952687" lon="11.5649033"><ele>1004.0</ele><time>2026-04-26T11:49:59.392Z</time></trkpt><trkpt lat="45.8953105" lon="11.5647825"><ele>1004.0</ele><time>2026-04-26T11:50:00.393Z</time></trkpt><trkpt lat="45.8953197" lon="11.5646554"><ele>1004.0</ele><time>2026-04-26T11:50:01.393Z</time></trkpt><trkpt lat="45.8952194" lon="11.5644352"><ele>1004.0</ele><time>2026-04-26T11:50:03.39Z</time></trkpt><trkpt lat="45.8951184" lon="11.5643442"><ele>1004.0</ele><time>2026-04-26T11:50:04.391Z</time></trkpt><trkpt lat="45.8949962" lon="11.5642716"><ele>1005.0</ele><time>2026-04-26T11:50:05.392Z</time></trkpt><trkpt lat="45.8948483" lon="11.5642238"><ele>1006.0</ele><time>2026-04-26T11:50:06.392Z</time></trkpt><trkpt lat="45.8946896" lon="11.5642047"><ele>1007.0</ele><time>2026-04-26T11:50:07.39Z</time></trkpt><trkpt lat="45.8945439" lon="11.564186"><ele>1007.0</ele><time>2026-04-26T11:50:08.39Z</time></trkpt><trkpt lat="45.8943958" lon="11.5641664"><ele>1007.0</ele><time>2026-04-26T11:50:09.391Z</time></trkpt><trkpt lat="45.894254" lon="11.5641197"><ele>1007.0</ele><time>2026-04-26T11:50:10.393Z</time></trkpt><trkpt lat="45.8941302" lon="11.5640511"><ele>1007.0</ele><time>2026-04-26T11:50:11.39Z</time></trkpt><trkpt lat="45.894028" lon="11.563964"><ele>1006.0</ele><time>2026-04-26T11:50:12.39Z</time></trkpt><trkpt lat="45.8939355" lon="11.5638532"><ele>1005.0</ele><time>2026-04-26T11:50:13.388Z</time></trkpt><trkpt lat="45.8938508" lon="11.5637206"><ele>1004.0</ele><time>2026-04-26T11:50:14.39Z</time></trkpt><trkpt lat="45.8937664" lon="11.5635978"><ele>1003.0</ele><time>2026-04-26T11:50:15.394Z</time></trkpt><trkpt lat="45.8936611" lon="11.5635232"><ele>1006.5</ele><time>2026-04-26T11:50:16.393Z</time></trkpt><trkpt lat="45.8935388" lon="11.5635042"><ele>1010.0</ele><time>2026-04-26T11:50:17.394Z</time></trkpt><trkpt lat="45.8934059" lon="11.5635243"><ele>1013.5</ele><time>2026-04-26T11:50:18.393Z</time></trkpt><trkpt lat="45.8932887" lon="11.5635343"><ele>1017.0</ele><time>2026-04-26T11:50:19.392Z</time></trkpt><trkpt lat="45.8931858" lon="11.5635146"><ele>1017.0</ele><time>2026-04-26T11:50:20.393Z</time></trkpt><trkpt lat="45.8930878" lon="11.5634523"><ele>1017.0</ele><time>2026-04-26T11:50:21.396Z</time></trkpt><trkpt lat="45.8929962" lon="11.5633427"><ele>1017.0</ele><time>2026-04-26T11:50:22.393Z</time></trkpt><trkpt lat="45.8928174" lon="11.5630753"><ele>1017.0</ele><time>2026-04-26T11:50:24.392Z</time></trkpt><trkpt lat="45.8927589" lon="11.5629064"><ele>1017.0</ele><time>2026-04-26T11:50:25.392Z</time></trkpt><trkpt lat="45.8926999" lon="11.5627096"><ele>1017.0</ele><time>2026-04-26T11:50:26.393Z</time></trkpt><trkpt lat="45.8926347" lon="11.5624927"><ele>1017.0</ele><time>2026-04-26T11:50:27.392Z</time></trkpt><trkpt lat="45.8925656" lon="11.5622544"><ele>1016.3333333333333</ele><time>2026-04-26T11:50:28.39Z</time></trkpt><trkpt lat="45.8924985" lon="11.56199"><ele>1015.6666666666666</ele><time>2026-04-26T11:50:29.392Z</time></trkpt><trkpt lat="45.8924451" lon="11.5617275"><ele>1015.0</ele><time>2026-04-26T11:50:30.392Z</time></trkpt><trkpt lat="45.8924051" lon="11.5614839"><ele>1015.0</ele><time>2026-04-26T11:50:31.394Z</time></trkpt><trkpt lat="45.8923572" lon="11.5612601"><ele>1015.0</ele><time>2026-04-26T11:50:32.392Z</time></trkpt><trkpt lat="45.8922925" lon="11.5610495"><ele>1015.0</ele><time>2026-04-26T11:50:33.395Z</time></trkpt><trkpt lat="45.8922153" lon="11.5608548"><ele>1020.3333333333333</ele><time>2026-04-26T11:50:34.395Z</time></trkpt><trkpt lat="45.8921278" lon="11.5606746"><ele>1025.6666666666667</ele><time>2026-04-26T11:50:35.393Z</time></trkpt><trkpt lat="45.892029" lon="11.5605097"><ele>1031.0</ele><time>2026-04-26T11:50:36.395Z</time></trkpt><trkpt lat="45.8919151" lon="11.5603616"><ele>1030.0</ele><time>2026-04-26T11:50:37.395Z</time></trkpt><trkpt lat="45.8917855" lon="11.5602266"><ele>1029.0</ele><time>2026-04-26T11:50:38.396Z</time></trkpt><trkpt lat="45.8916624" lon="11.5601085"><ele>1028.0</ele><time>2026-04-26T11:50:39.394Z</time></trkpt><trkpt lat="45.8915528" lon="11.5599923"><ele>1027.0</ele><time>2026-04-26T11:50:40.394Z</time></trkpt><trkpt lat="45.8914574" lon="11.5598604"><ele>1027.0</ele><time>2026-04-26T11:50:41.394Z</time></trkpt><trkpt lat="45.8913764" lon="11.5597011"><ele>1027.0</ele><time>2026-04-26T11:50:42.392Z</time></trkpt><trkpt lat="45.891316" lon="11.5595291"><ele>1027.0</ele><time>2026-04-26T11:50:43.394Z</time></trkpt><trkpt lat="45.8912932" lon="11.5592023"><ele>1031.75</ele><time>2026-04-26T11:50:45.395Z</time></trkpt><trkpt lat="45.8913236" lon="11.5590267"><ele>1036.5</ele><time>2026-04-26T11:50:46.395Z</time></trkpt><trkpt lat="45.8913682" lon="11.5588493"><ele>1041.25</ele><time>2026-04-26T11:50:47.394Z</time></trkpt><trkpt lat="45.8914106" lon="11.5586913"><ele>1046.0</ele><time>2026-04-26T11:50:48.395Z</time></trkpt><trkpt lat="45.8914414" lon="11.558547"><ele>1048.6</ele><time>2026-04-26T11:50:49.393Z</time></trkpt><trkpt lat="45.8914464" lon="11.5584126"><ele>1051.1999999999998</ele><time>2026-04-26T11:50:50.395Z</time></trkpt><trkpt lat="45.8914132" lon="11.558275"><ele>1053.8000000000002</ele><time>2026-04-26T11:50:51.393Z</time></trkpt><trkpt lat="45.8913406" lon="11.5581381"><ele>1056.4</ele><time>2026-04-26T11:50:52.391Z</time></trkpt><trkpt lat="45.8912406" lon="11.5580261"><ele>1059.0</ele><time>2026-04-26T11:50:53.393Z</time></trkpt><trkpt lat="45.8911336" lon="11.5579655"><ele>1059.0</ele><time>2026-04-26T11:50:54.391Z</time></trkpt><trkpt lat="45.8910195" lon="11.5579573"><ele>1059.0</ele><time>2026-04-26T11:50:55.389Z</time></trkpt><trkpt lat="45.8909133" lon="11.5579572"><ele>1059.0</ele><time>2026-04-26T11:50:56.392Z</time></trkpt><trkpt lat="45.8908238" lon="11.5579113"><ele>1059.0</ele><time>2026-04-26T11:50:57.392Z</time></trkpt><trkpt lat="45.8907507" lon="11.5578117"><ele>1059.0</ele><time>2026-04-26T11:50:58.393Z</time></trkpt><trkpt lat="45.8907097" lon="11.5576596"><ele>1057.5</ele><time>2026-04-26T11:50:59.396Z</time></trkpt><trkpt lat="45.890696" lon="11.557479"><ele>1056.0</ele><time>2026-04-26T11:51:00.393Z</time></trkpt><trkpt lat="45.8907019" lon="11.5572767"><ele>1054.5</ele><time>2026-04-26T11:51:01.393Z</time></trkpt><trkpt lat="45.8906916" lon="11.5570733"><ele>1053.0</ele><time>2026-04-26T11:51:02.394Z</time></trkpt><trkpt lat="45.8906407" lon="11.5568605"><ele>1060.0</ele><time>2026-04-26T11:51:03.394Z</time></trkpt><trkpt lat="45.8905725" lon="11.5566393"><ele>1067.0</ele><time>2026-04-26T11:51:04.39Z</time></trkpt><trkpt lat="45.8905068" lon="11.5562224"><ele>1070.0</ele><time>2026-04-26T11:51:06.393Z</time></trkpt><trkpt lat="45.8904544" lon="11.5560578"><ele>1073.0</ele><time>2026-04-26T11:51:07.392Z</time></trkpt><trkpt lat="45.8904022" lon="11.5559102"><ele>1076.0</ele><time>2026-04-26T11:51:08.392Z</time></trkpt><trkpt lat="45.8903762" lon="11.5557628"><ele>1079.0</ele><time>2026-04-26T11:51:09.394Z</time></trkpt><trkpt lat="45.8903885" lon="11.5556049"><ele>1079.0</ele><time>2026-04-26T11:51:10.393Z</time></trkpt><trkpt lat="45.8904339" lon="11.5554284"><ele>1079.0</ele><time>2026-04-26T11:51:11.393Z</time></trkpt><trkpt lat="45.8904919" lon="11.5552416"><ele>1079.0</ele><time>2026-04-26T11:51:12.393Z</time></trkpt><trkpt lat="45.89055" lon="11.5550731"><ele>1079.0</ele><time>2026-04-26T11:51:13.393Z</time></trkpt><trkpt lat="45.8905954" lon="11.5549238"><ele>1078.25</ele><time>2026-04-26T11:51:14.394Z</time></trkpt><trkpt lat="45.8906123" lon="11.5547768"><ele>1077.5</ele><time>2026-04-26T11:51:15.394Z</time></trkpt><trkpt lat="45.8905861" lon="11.5546361"><ele>1076.75</ele><time>2026-04-26T11:51:16.39Z</time></trkpt><trkpt lat="45.8905149" lon="11.554509"><ele>1076.0</ele><time>2026-04-26T11:51:17.391Z</time></trkpt><trkpt lat="45.8904096" lon="11.5543967"><ele>1078.0</ele><time>2026-04-26T11:51:18.391Z</time></trkpt><trkpt lat="45.8902914" lon="11.5542777"><ele>1080.0</ele><time>2026-04-26T11:51:19.391Z</time></trkpt><trkpt lat="45.8901861" lon="11.5541437"><ele>1082.0</ele><time>2026-04-26T11:51:20.393Z</time></trkpt><trkpt lat="45.8900857" lon="11.5539864"><ele>1084.0</ele><time>2026-04-26T11:51:21.394Z</time></trkpt><trkpt lat="45.8899936" lon="11.5538059"><ele>1081.5</ele><time>2026-04-26T11:51:22.393Z</time></trkpt><trkpt lat="45.8899193" lon="11.5536301"><ele>1079.0</ele><time>2026-04-26T11:51:23.394Z</time></trkpt><trkpt lat="45.8898511" lon="11.5534792"><ele>1076.5</ele><time>2026-04-26T11:51:24.394Z</time></trkpt><trkpt lat="45.8897897" lon="11.5533315"><ele>1074.0</ele><time>2026-04-26T11:51:25.392Z</time></trkpt><trkpt lat="45.8897238" lon="11.5529585"><ele>1075.25</ele><time>2026-04-26T11:51:27.395Z</time></trkpt><trkpt lat="45.8896633" lon="11.5527699"><ele>1076.5</ele><time>2026-04-26T11:51:28.393Z</time></trkpt><trkpt lat="45.8896208" lon="11.5526717"><ele>1077.75</ele><time>2026-04-26T11:51:28.993Z</time></trkpt><trkpt lat="45.8895465" lon="11.5524692"><ele>1079.0</ele><time>2026-04-26T11:51:30.395Z</time></trkpt><trkpt lat="45.8895362" lon="11.552331"><ele>1079.0</ele><time>2026-04-26T11:51:31.396Z</time></trkpt><trkpt lat="45.8895719" lon="11.5522094"><ele>1079.0</ele><time>2026-04-26T11:51:32.395Z</time></trkpt><trkpt lat="45.889644" lon="11.5521052"><ele>1079.0</ele><time>2026-04-26T11:51:33.395Z</time></trkpt><trkpt lat="45.889731" lon="11.5520064"><ele>1079.0</ele><time>2026-04-26T11:51:34.395Z</time></trkpt><trkpt lat="45.8898148" lon="11.5519036"><ele>1079.0</ele><time>2026-04-26T11:51:35.395Z</time></trkpt><trkpt lat="45.8898875" lon="11.5518037"><ele>1080.2</ele><time>2026-04-26T11:51:36.395Z</time></trkpt><trkpt lat="45.8899545" lon="11.5517133"><ele>1081.4</ele><time>2026-04-26T11:51:37.396Z</time></trkpt><trkpt lat="45.8900209" lon="11.5516245"><ele>1082.6</ele><time>2026-04-26T11:51:38.394Z</time></trkpt><trkpt lat="45.8900911" lon="11.5515298"><ele>1083.8</ele><time>2026-04-26T11:51:39.395Z</time></trkpt><trkpt lat="45.8901633" lon="11.5514278"><ele>1085.0</ele><time>2026-04-26T11:51:40.393Z</time></trkpt><trkpt lat="45.8902408" lon="11.5513208"><ele>1085.0</ele><time>2026-04-26T11:51:41.392Z</time></trkpt><trkpt lat="45.8903242" lon="11.5512096"><ele>1085.0</ele><time>2026-04-26T11:51:42.393Z</time></trkpt><trkpt lat="45.8904138" lon="11.551092"><ele>1085.0</ele><time>2026-04-26T11:51:43.392Z</time></trkpt><trkpt lat="45.8905075" lon="11.5509684"><ele>1085.0</ele><time>2026-04-26T11:51:44.393Z</time></trkpt><trkpt lat="45.8906056" lon="11.5508418"><ele>1085.3333333333335</ele><time>2026-04-26T11:51:45.397Z</time></trkpt><trkpt lat="45.8907046" lon="11.550716"><ele>1085.6666666666667</ele><time>2026-04-26T11:51:46.394Z</time></trkpt><trkpt lat="45.8908897" lon="11.5504741"><ele>1086.0</ele><time>2026-04-26T11:51:48.395Z</time></trkpt><trkpt lat="45.890975" lon="11.5503613"><ele>1086.0</ele><time>2026-04-26T11:51:49.396Z</time></trkpt><trkpt lat="45.8910598" lon="11.5502524"><ele>1086.0</ele><time>2026-04-26T11:51:50.393Z</time></trkpt><trkpt lat="45.8911457" lon="11.5501447"><ele>1086.0</ele><time>2026-04-26T11:51:51.395Z</time></trkpt><trkpt lat="45.8912319" lon="11.5500355"><ele>1086.0</ele><time>2026-04-26T11:51:52.394Z</time></trkpt><trkpt lat="45.8913175" lon="11.5499211"><ele>1086.0</ele><time>2026-04-26T11:51:53.396Z</time></trkpt><trkpt lat="45.8914056" lon="11.5498036"><ele>1086.0</ele><time>2026-04-26T11:51:54.395Z</time></trkpt><trkpt lat="45.8914946" lon="11.5496936"><ele>1086.0</ele><time>2026-04-26T11:51:55.395Z</time></trkpt><trkpt lat="45.8915715" lon="11.5496006"><ele>1086.0</ele><time>2026-04-26T11:51:56.394Z</time></trkpt><trkpt lat="45.8916376" lon="11.5495205"><ele>1086.0</ele><time>2026-04-26T11:51:57.395Z</time></trkpt><trkpt lat="45.89169" lon="11.5494533"><ele>1086.0</ele><time>2026-04-26T11:51:58.396Z</time></trkpt><trkpt lat="45.8917446" lon="11.5493726"><ele>1086.0</ele><time>2026-04-26T11:52:00.393Z</time></trkpt><trkpt lat="45.8918086" lon="11.5492946"><ele>1086.0</ele><time>2026-04-26T11:52:04.398Z</time></trkpt><trkpt lat="45.8919087" lon="11.5491793"><ele>1086.0</ele><time>2026-04-26T11:52:06.393Z</time></trkpt><trkpt lat="45.8919756" lon="11.5490903"><ele>1086.0</ele><time>2026-04-26T11:52:07.391Z</time></trkpt><trkpt lat="45.8920995" lon="11.5489313"><ele>1086.0</ele><time>2026-04-26T11:52:09.395Z</time></trkpt><trkpt lat="45.8921506" lon="11.5488681"><ele>1086.0</ele><time>2026-04-26T11:52:10.395Z</time></trkpt><trkpt lat="45.8922305" lon="11.5487842"><ele>1086.0</ele><time>2026-04-26T11:52:12.397Z</time></trkpt><trkpt lat="45.892281" lon="11.5487288"><ele>1086.0</ele><time>2026-04-26T11:52:14.396Z</time></trkpt><trkpt lat="45.8922848" lon="11.5486237"><ele>1086.0</ele><time>2026-04-26T11:52:17.395Z</time></trkpt><trkpt lat="45.8922023" lon="11.5485782"><ele>1086.0</ele><time>2026-04-26T11:52:19.395Z</time></trkpt><trkpt lat="45.8921318" lon="11.5485688"><ele>1086.0</ele><time>2026-04-26T11:52:20.394Z</time></trkpt><trkpt lat="45.8920582" lon="11.5485679"><ele>1086.0</ele><time>2026-04-26T11:52:21.396Z</time></trkpt><trkpt lat="45.8919937" lon="11.5485731"><ele>1086.0</ele><time>2026-04-26T11:52:22.394Z</time></trkpt><trkpt lat="45.8918789" lon="11.5485807"><ele>1086.0</ele><time>2026-04-26T11:52:24.396Z</time></trkpt><trkpt lat="45.8917901" lon="11.5485772"><ele>1086.0</ele><time>2026-04-26T11:52:26.395Z</time></trkpt><trkpt lat="45.8917219" lon="11.548587"><ele>1086.0</ele><time>2026-04-26T11:52:30.39Z</time></trkpt><trkpt lat="45.8917294" lon="11.5488237"><ele>1086.0</ele><time>2026-04-26T11:52:34.396Z</time></trkpt><trkpt lat="45.8917498" lon="11.5489462"><ele>1086.0</ele><time>2026-04-26T11:52:35.394Z</time></trkpt><trkpt lat="45.8917652" lon="11.5490526"><ele>1086.0</ele><time>2026-04-26T11:52:36.394Z</time></trkpt><trkpt lat="45.8918006" lon="11.5491882"><ele>1086.0</ele><time>2026-04-26T11:52:38.394Z</time></trkpt><trkpt lat="45.891874" lon="11.5492173"><ele>1086.0</ele><time>2026-04-26T11:52:40.395Z</time></trkpt><trkpt lat="45.891937" lon="11.5491717"><ele>1086.0</ele><time>2026-04-26T11:52:41.393Z</time></trkpt><trkpt lat="45.8920141" lon="11.549074"><ele>1086.0</ele><time>2026-04-26T11:52:42.394Z</time></trkpt><trkpt lat="45.8920865" lon="11.5489775"><ele>1086.0</ele><time>2026-04-26T11:52:43.394Z</time></trkpt><trkpt lat="45.8921446" lon="11.548904"><ele>1086.0</ele><time>2026-04-26T11:52:44.393Z</time></trkpt><trkpt lat="45.892195" lon="11.5488439"><ele>1086.0</ele><time>2026-04-26T11:52:45.397Z</time></trkpt><trkpt lat="45.8922734" lon="11.54878"><ele>1086.0</ele><time>2026-04-26T11:52:47.396Z</time></trkpt><trkpt lat="45.8923314" lon="11.548736"><ele>1086.0</ele><time>2026-04-26T11:52:50.395Z</time></trkpt><trkpt lat="45.8923741" lon="11.5486476"><ele>1086.0</ele><time>2026-04-26T11:52:55.393Z</time></trkpt><trkpt lat="45.8924194" lon="11.5484016"><ele>1086.0</ele><time>2026-04-26T11:52:57.393Z</time></trkpt><trkpt lat="45.8924332" lon="11.548269"><ele>1086.0</ele><time>2026-04-26T11:52:58.392Z</time></trkpt><trkpt lat="45.8924462" lon="11.5481519"><ele>1086.0</ele><time>2026-04-26T11:52:59.394Z</time></trkpt><trkpt lat="45.8924555" lon="11.5480596"><ele>1086.0</ele><time>2026-04-26T11:53:00.394Z</time></trkpt><trkpt lat="45.8924631" lon="11.5479174"><ele>1086.2</ele><time>2026-04-26T11:53:02.393Z</time></trkpt><trkpt lat="45.8924458" lon="11.5478088"><ele>1086.3999999999999</ele><time>2026-04-26T11:53:04.396Z</time></trkpt><trkpt lat="45.8923477" lon="11.5477743"><ele>1086.6</ele><time>2026-04-26T11:53:06.394Z</time></trkpt><trkpt lat="45.8922294" lon="11.5477584"><ele>1086.8</ele><time>2026-04-26T11:53:08.393Z</time></trkpt><trkpt lat="45.8921233" lon="11.5477349"><ele>1087.0</ele><time>2026-04-26T11:53:10.394Z</time></trkpt><trkpt lat="45.8920507" lon="11.5477231"><ele>1087.0</ele><time>2026-04-26T11:53:12.394Z</time></trkpt><trkpt lat="45.8919669" lon="11.5477392"><ele>1087.0</ele><time>2026-04-26T11:53:26.392Z</time></trkpt><trkpt lat="45.8917916" lon="11.5478333"><ele>1087.0</ele><time>2026-04-26T11:53:28.392Z</time></trkpt><trkpt lat="45.8916608" lon="11.547889"><ele>1087.0</ele><time>2026-04-26T11:53:29.393Z</time></trkpt><trkpt lat="45.8915266" lon="11.5479499"><ele>1086.25</ele><time>2026-04-26T11:53:30.392Z</time></trkpt><trkpt lat="45.8913923" lon="11.547995"><ele>1085.5</ele><time>2026-04-26T11:53:31.392Z</time></trkpt><trkpt lat="45.8912629" lon="11.5480303"><ele>1084.75</ele><time>2026-04-26T11:53:32.392Z</time></trkpt><trkpt lat="45.8911389" lon="11.5480561"><ele>1084.0</ele><time>2026-04-26T11:53:33.395Z</time></trkpt><trkpt lat="45.8910193" lon="11.5480653"><ele>1083.0</ele><time>2026-04-26T11:53:34.393Z</time></trkpt><trkpt lat="45.8909003" lon="11.548061"><ele>1082.0</ele><time>2026-04-26T11:53:35.393Z</time></trkpt><trkpt lat="45.8907769" lon="11.5480332"><ele>1081.0</ele><time>2026-04-26T11:53:36.392Z</time></trkpt><trkpt lat="45.8906468" lon="11.5479923"><ele>1080.0</ele><time>2026-04-26T11:53:37.394Z</time></trkpt><trkpt lat="45.8905085" lon="11.5479442"><ele>1080.0</ele><time>2026-04-26T11:53:38.393Z</time></trkpt><trkpt lat="45.8903616" lon="11.5478895"><ele>1080.0</ele><time>2026-04-26T11:53:39.394Z</time></trkpt><trkpt lat="45.8902219" lon="11.5478337"><ele>1080.0</ele><time>2026-04-26T11:53:40.396Z</time></trkpt><trkpt lat="45.890087" lon="11.5478008"><ele>1080.0</ele><time>2026-04-26T11:53:41.394Z</time></trkpt><trkpt lat="45.8899511" lon="11.547782"><ele>1079.75</ele><time>2026-04-26T11:53:42.394Z</time></trkpt><trkpt lat="45.88981" lon="11.547766"><ele>1079.5</ele><time>2026-04-26T11:53:43.393Z</time></trkpt><trkpt lat="45.8896657" lon="11.5477582"><ele>1079.25</ele><time>2026-04-26T11:53:44.393Z</time></trkpt><trkpt lat="45.889518" lon="11.5477492"><ele>1079.0</ele><time>2026-04-26T11:53:45.394Z</time></trkpt><trkpt lat="45.8893671" lon="11.5477383"><ele>1079.0</ele><time>2026-04-26T11:53:46.392Z</time></trkpt><trkpt lat="45.8892135" lon="11.5477295"><ele>1079.0</ele><time>2026-04-26T11:53:47.394Z</time></trkpt><trkpt lat="45.8889244" lon="11.5477365"><ele>1079.0</ele><time>2026-04-26T11:53:49.394Z</time></trkpt><trkpt lat="45.8887898" lon="11.5477674"><ele>1079.0</ele><time>2026-04-26T11:53:50.392Z</time></trkpt><trkpt lat="45.8886656" lon="11.5478155"><ele>1079.0</ele><time>2026-04-26T11:53:51.393Z</time></trkpt><trkpt lat="45.8885525" lon="11.5478768"><ele>1079.0</ele><time>2026-04-26T11:53:52.392Z</time></trkpt><trkpt lat="45.8884543" lon="11.5479397"><ele>1079.0</ele><time>2026-04-26T11:53:53.394Z</time></trkpt><trkpt lat="45.8883593" lon="11.5480025"><ele>1079.75</ele><time>2026-04-26T11:53:54.392Z</time></trkpt><trkpt lat="45.8882633" lon="11.5480905"><ele>1080.5</ele><time>2026-04-26T11:53:55.395Z</time></trkpt><trkpt lat="45.8881721" lon="11.5482018"><ele>1081.25</ele><time>2026-04-26T11:53:56.393Z</time></trkpt><trkpt lat="45.8880809" lon="11.5483161"><ele>1082.0</ele><time>2026-04-26T11:53:57.393Z</time></trkpt><trkpt lat="45.8879942" lon="11.5484155"><ele>1082.0</ele><time>2026-04-26T11:53:58.393Z</time></trkpt><trkpt lat="45.8879048" lon="11.5484966"><ele>1082.0</ele><time>2026-04-26T11:53:59.393Z</time></trkpt><trkpt lat="45.8877926" lon="11.5485467"><ele>1082.0</ele><time>2026-04-26T11:54:00.394Z</time></trkpt><trkpt lat="45.8876688" lon="11.5485814"><ele>1082.0</ele><time>2026-04-26T11:54:01.394Z</time></trkpt><trkpt lat="45.8875367" lon="11.5486055"><ele>1082.0</ele><time>2026-04-26T11:54:02.393Z</time></trkpt><trkpt lat="45.8874035" lon="11.5486174"><ele>1082.0</ele><time>2026-04-26T11:54:03.395Z</time></trkpt><trkpt lat="45.8872688" lon="11.5486253"><ele>1082.0</ele><time>2026-04-26T11:54:04.394Z</time></trkpt><trkpt lat="45.8871397" lon="11.5486216"><ele>1082.0</ele><time>2026-04-26T11:54:05.393Z</time></trkpt><trkpt lat="45.8870143" lon="11.548612"><ele>1082.0</ele><time>2026-04-26T11:54:06.394Z</time></trkpt><trkpt lat="45.8868939" lon="11.5485958"><ele>1082.0</ele><time>2026-04-26T11:54:07.393Z</time></trkpt><trkpt lat="45.8867833" lon="11.5485712"><ele>1082.0</ele><time>2026-04-26T11:54:08.394Z</time></trkpt><trkpt lat="45.886597" lon="11.548504"><ele>1082.0</ele><time>2026-04-26T11:54:10.394Z</time></trkpt><trkpt lat="45.8865179" lon="11.5484509"><ele>1081.1666666666667</ele><time>2026-04-26T11:54:11.393Z</time></trkpt><trkpt lat="45.8864603" lon="11.5483898"><ele>1080.3333333333335</ele><time>2026-04-26T11:54:12.194Z</time></trkpt><trkpt lat="45.8863719" lon="11.5483182"><ele>1079.5</ele><time>2026-04-26T11:54:13.394Z</time></trkpt><trkpt lat="45.8862907" lon="11.5483058"><ele>1078.6666666666667</ele><time>2026-04-26T11:54:14.395Z</time></trkpt><trkpt lat="45.8862015" lon="11.5483325"><ele>1077.8333333333333</ele><time>2026-04-26T11:54:15.397Z</time></trkpt><trkpt lat="45.8860998" lon="11.5483605"><ele>1077.0</ele><time>2026-04-26T11:54:16.394Z</time></trkpt><trkpt lat="45.8859908" lon="11.5483449"><ele>1076.8</ele><time>2026-04-26T11:54:17.397Z</time></trkpt><trkpt lat="45.8858825" lon="11.5483062"><ele>1076.6</ele><time>2026-04-26T11:54:18.397Z</time></trkpt><trkpt lat="45.8857791" lon="11.5482678"><ele>1076.3999999999999</ele><time>2026-04-26T11:54:19.395Z</time></trkpt><trkpt lat="45.8856719" lon="11.5482339"><ele>1076.2</ele><time>2026-04-26T11:54:20.396Z</time></trkpt><trkpt lat="45.8855634" lon="11.5482036"><ele>1076.0</ele><time>2026-04-26T11:54:21.398Z</time></trkpt><trkpt lat="45.8854632" lon="11.5481714"><ele>1076.0</ele><time>2026-04-26T11:54:22.395Z</time></trkpt><trkpt lat="45.8853694" lon="11.5481378"><ele>1076.0</ele><time>2026-04-26T11:54:23.397Z</time></trkpt><trkpt lat="45.8852772" lon="11.5481144"><ele>1076.0</ele><time>2026-04-26T11:54:24.397Z</time></trkpt><trkpt lat="45.8851773" lon="11.5480974"><ele>1076.0</ele><time>2026-04-26T11:54:25.396Z</time></trkpt><trkpt lat="45.8850718" lon="11.5480756"><ele>1076.0</ele><time>2026-04-26T11:54:26.397Z</time></trkpt><trkpt lat="45.8849583" lon="11.5480427"><ele>1075.3333333333335</ele><time>2026-04-26T11:54:27.396Z</time></trkpt><trkpt lat="45.8848314" lon="11.5480055"><ele>1074.6666666666667</ele><time>2026-04-26T11:54:28.396Z</time></trkpt><trkpt lat="45.8846979" lon="11.5479725"><ele>1074.0</ele><time>2026-04-26T11:54:29.394Z</time></trkpt><trkpt lat="45.8844486" lon="11.5479334"><ele>1074.0</ele><time>2026-04-26T11:54:31.197Z</time></trkpt><trkpt lat="45.8842808" lon="11.5479181"><ele>1074.0</ele><time>2026-04-26T11:54:32.394Z</time></trkpt><trkpt lat="45.8841516" lon="11.5479128"><ele>1074.0</ele><time>2026-04-26T11:54:33.394Z</time></trkpt><trkpt lat="45.88403" lon="11.5479164"><ele>1074.0</ele><time>2026-04-26T11:54:34.395Z</time></trkpt><trkpt lat="45.88391" lon="11.5479263"><ele>1074.75</ele><time>2026-04-26T11:54:35.394Z</time></trkpt><trkpt lat="45.8837872" lon="11.5479403"><ele>1075.5</ele><time>2026-04-26T11:54:36.396Z</time></trkpt><trkpt lat="45.8836612" lon="11.5479564"><ele>1076.25</ele><time>2026-04-26T11:54:37.399Z</time></trkpt><trkpt lat="45.8835292" lon="11.5479753"><ele>1077.0</ele><time>2026-04-26T11:54:38.398Z</time></trkpt><trkpt lat="45.8833904" lon="11.5479961"><ele>1079.25</ele><time>2026-04-26T11:54:39.397Z</time></trkpt><trkpt lat="45.8832479" lon="11.5480195"><ele>1081.5</ele><time>2026-04-26T11:54:40.398Z</time></trkpt><trkpt lat="45.8831135" lon="11.5480421"><ele>1083.75</ele><time>2026-04-26T11:54:41.397Z</time></trkpt><trkpt lat="45.8829878" lon="11.5480629"><ele>1086.0</ele><time>2026-04-26T11:54:42.395Z</time></trkpt><trkpt lat="45.8828675" lon="11.5480789"><ele>1086.0</ele><time>2026-04-26T11:54:43.397Z</time></trkpt><trkpt lat="45.8827476" lon="11.5480944"><ele>1086.0</ele><time>2026-04-26T11:54:44.394Z</time></trkpt><trkpt lat="45.8826232" lon="11.5481128"><ele>1086.0</ele><time>2026-04-26T11:54:45.396Z</time></trkpt><trkpt lat="45.8824945" lon="11.5481332"><ele>1086.0</ele><time>2026-04-26T11:54:46.397Z</time></trkpt><trkpt lat="45.8823651" lon="11.5481556"><ele>1085.0</ele><time>2026-04-26T11:54:47.398Z</time></trkpt><trkpt lat="45.8822405" lon="11.5481762"><ele>1084.0</ele><time>2026-04-26T11:54:48.397Z</time></trkpt><trkpt lat="45.8821212" lon="11.5481948"><ele>1083.0</ele><time>2026-04-26T11:54:49.397Z</time></trkpt><trkpt lat="45.8819984" lon="11.5482146"><ele>1082.0</ele><time>2026-04-26T11:54:50.397Z</time></trkpt><trkpt lat="45.8817372" lon="11.548258"><ele>1081.75</ele><time>2026-04-26T11:54:52.396Z</time></trkpt><trkpt lat="45.8815965" lon="11.5482754"><ele>1081.5</ele><time>2026-04-26T11:54:53.395Z</time></trkpt><trkpt lat="45.8814503" lon="11.5482953"><ele>1081.25</ele><time>2026-04-26T11:54:54.397Z</time></trkpt><trkpt lat="45.8813029" lon="11.5483135"><ele>1081.0</ele><time>2026-04-26T11:54:55.397Z</time></trkpt><trkpt lat="45.8811607" lon="11.5483293"><ele>1081.0</ele><time>2026-04-26T11:54:56.393Z</time></trkpt><trkpt lat="45.8810229" lon="11.5483472"><ele>1081.0</ele><time>2026-04-26T11:54:57.395Z</time></trkpt><trkpt lat="45.8808882" lon="11.548369"><ele>1081.0</ele><time>2026-04-26T11:54:58.392Z</time></trkpt><trkpt lat="45.8807538" lon="11.5483915"><ele>1081.0</ele><time>2026-04-26T11:54:59.393Z</time></trkpt><trkpt lat="45.8806174" lon="11.5484145"><ele>1079.0</ele><time>2026-04-26T11:55:00.394Z</time></trkpt><trkpt lat="45.8804749" lon="11.5484363"><ele>1077.0</ele><time>2026-04-26T11:55:01.397Z</time></trkpt><trkpt lat="45.8803291" lon="11.5484563"><ele>1075.0</ele><time>2026-04-26T11:55:02.397Z</time></trkpt><trkpt lat="45.8801802" lon="11.5484771"><ele>1073.0</ele><time>2026-04-26T11:55:03.396Z</time></trkpt><trkpt lat="45.8800265" lon="11.5485014"><ele>1073.0</ele><time>2026-04-26T11:55:04.393Z</time></trkpt><trkpt lat="45.8798745" lon="11.5485183"><ele>1073.0</ele><time>2026-04-26T11:55:05.397Z</time></trkpt><trkpt lat="45.8797258" lon="11.5485251"><ele>1073.0</ele><time>2026-04-26T11:55:06.394Z</time></trkpt><trkpt lat="45.879578" lon="11.54852"><ele>1073.0</ele><time>2026-04-26T11:55:07.398Z</time></trkpt><trkpt lat="45.8794345" lon="11.5485087"><ele>1073.0</ele><time>2026-04-26T11:55:08.394Z</time></trkpt><trkpt lat="45.8792937" lon="11.5484961"><ele>1073.0</ele><time>2026-04-26T11:55:09.396Z</time></trkpt><trkpt lat="45.8791539" lon="11.548472"><ele>1073.0</ele><time>2026-04-26T11:55:10.395Z</time></trkpt><trkpt lat="45.8790399" lon="11.5484461"><ele>1073.0</ele><time>2026-04-26T11:55:11.195Z</time></trkpt><trkpt lat="45.8787066" lon="11.5483713"><ele>1073.0</ele><time>2026-04-26T11:55:13.395Z</time></trkpt><trkpt lat="45.8785511" lon="11.5483328"><ele>1073.0</ele><time>2026-04-26T11:55:14.397Z</time></trkpt><trkpt lat="45.8784024" lon="11.5482965"><ele>1073.0</ele><time>2026-04-26T11:55:15.395Z</time></trkpt><trkpt lat="45.8782606" lon="11.5482613"><ele>1073.5</ele><time>2026-04-26T11:55:16.396Z</time></trkpt><trkpt lat="45.8781195" lon="11.5482294"><ele>1074.0</ele><time>2026-04-26T11:55:17.395Z</time></trkpt><trkpt lat="45.8779764" lon="11.5481995"><ele>1074.5</ele><time>2026-04-26T11:55:18.397Z</time></trkpt><trkpt lat="45.8778347" lon="11.5481698"><ele>1075.0</ele><time>2026-04-26T11:55:19.396Z</time></trkpt><trkpt lat="45.8776986" lon="11.5481363"><ele>1074.25</ele><time>2026-04-26T11:55:20.395Z</time></trkpt><trkpt lat="45.8775672" lon="11.5480953"><ele>1073.5</ele><time>2026-04-26T11:55:21.393Z</time></trkpt><trkpt lat="45.8774345" lon="11.5480425"><ele>1072.75</ele><time>2026-04-26T11:55:22.395Z</time></trkpt><trkpt lat="45.8772981" lon="11.5479748"><ele>1072.0</ele><time>2026-04-26T11:55:23.393Z</time></trkpt><trkpt lat="45.8771589" lon="11.547893"><ele>1071.0</ele><time>2026-04-26T11:55:24.394Z</time></trkpt><trkpt lat="45.8770248" lon="11.547803"><ele>1070.0</ele><time>2026-04-26T11:55:25.395Z</time></trkpt><trkpt lat="45.8768999" lon="11.5477152"><ele>1069.0</ele><time>2026-04-26T11:55:26.396Z</time></trkpt><trkpt lat="45.8767888" lon="11.5476387"><ele>1068.0</ele><time>2026-04-26T11:55:27.399Z</time></trkpt><trkpt lat="45.8766893" lon="11.5475729"><ele>1068.0</ele><time>2026-04-26T11:55:28.399Z</time></trkpt><trkpt lat="45.8765979" lon="11.5475127"><ele>1068.0</ele><time>2026-04-26T11:55:29.4Z</time></trkpt><trkpt lat="45.8765144" lon="11.5474516"><ele>1068.0</ele><time>2026-04-26T11:55:30.399Z</time></trkpt><trkpt lat="45.8764305" lon="11.5473887"><ele>1068.0</ele><time>2026-04-26T11:55:31.395Z</time></trkpt><trkpt lat="45.8762413" lon="11.5472608"><ele>1068.0</ele><time>2026-04-26T11:55:33.397Z</time></trkpt><trkpt lat="45.8761417" lon="11.5471941"><ele>1068.0</ele><time>2026-04-26T11:55:34.397Z</time></trkpt><trkpt lat="45.8760437" lon="11.5471244"><ele>1068.0</ele><time>2026-04-26T11:55:35.397Z</time></trkpt><trkpt lat="45.8759462" lon="11.5470594"><ele>1068.0</ele><time>2026-04-26T11:55:36.398Z</time></trkpt><trkpt lat="45.8758394" lon="11.5469952"><ele>1068.0</ele><time>2026-04-26T11:55:37.398Z</time></trkpt><trkpt lat="45.8757262" lon="11.5469409"><ele>1067.5</ele><time>2026-04-26T11:55:38.396Z</time></trkpt><trkpt lat="45.8756105" lon="11.5468855"><ele>1067.0</ele><time>2026-04-26T11:55:39.396Z</time></trkpt><trkpt lat="45.875491" lon="11.546828"><ele>1066.5</ele><time>2026-04-26T11:55:40.396Z</time></trkpt><trkpt lat="45.875365" lon="11.5467711"><ele>1066.0</ele><time>2026-04-26T11:55:41.395Z</time></trkpt><trkpt lat="45.8752323" lon="11.5467196"><ele>1066.25</ele><time>2026-04-26T11:55:42.396Z</time></trkpt><trkpt lat="45.875095" lon="11.5466684"><ele>1066.5</ele><time>2026-04-26T11:55:43.396Z</time></trkpt><trkpt lat="45.8749508" lon="11.5466151"><ele>1066.75</ele><time>2026-04-26T11:55:44.395Z</time></trkpt><trkpt lat="45.8747993" lon="11.5465588"><ele>1067.0</ele><time>2026-04-26T11:55:45.395Z</time></trkpt><trkpt lat="45.8746573" lon="11.5465051"><ele>1067.0</ele><time>2026-04-26T11:55:46.395Z</time></trkpt><trkpt lat="45.8745292" lon="11.5464575"><ele>1067.0</ele><time>2026-04-26T11:55:47.396Z</time></trkpt><trkpt lat="45.8744086" lon="11.5464111"><ele>1067.0</ele><time>2026-04-26T11:55:48.394Z</time></trkpt><trkpt lat="45.8742884" lon="11.5463651"><ele>1067.0</ele><time>2026-04-26T11:55:49.396Z</time></trkpt><trkpt lat="45.8741665" lon="11.546319"><ele>1067.5</ele><time>2026-04-26T11:55:50.395Z</time></trkpt><trkpt lat="45.8740474" lon="11.5462753"><ele>1068.0</ele><time>2026-04-26T11:55:51.396Z</time></trkpt><trkpt lat="45.8739363" lon="11.5462333"><ele>1068.5</ele><time>2026-04-26T11:55:52.397Z</time></trkpt><trkpt lat="45.8737346" lon="11.5461548"><ele>1069.0</ele><time>2026-04-26T11:55:54.397Z</time></trkpt><trkpt lat="45.8736362" lon="11.5461248"><ele>1069.0</ele><time>2026-04-26T11:55:55.396Z</time></trkpt><trkpt lat="45.8735326" lon="11.5461014"><ele>1069.0</ele><time>2026-04-26T11:55:56.395Z</time></trkpt><trkpt lat="45.8734192" lon="11.5460918"><ele>1069.0</ele><time>2026-04-26T11:55:57.4Z</time></trkpt><trkpt lat="45.8732979" lon="11.546095"><ele>1069.0</ele><time>2026-04-26T11:55:58.397Z</time></trkpt><trkpt lat="45.8731765" lon="11.54611"><ele>1070.8</ele><time>2026-04-26T11:55:59.397Z</time></trkpt><trkpt lat="45.8730628" lon="11.5461377"><ele>1072.6000000000001</ele><time>2026-04-26T11:56:00.397Z</time></trkpt><trkpt lat="45.8729592" lon="11.5461773"><ele>1074.4</ele><time>2026-04-26T11:56:01.396Z</time></trkpt><trkpt lat="45.8728672" lon="11.5462256"><ele>1076.2</ele><time>2026-04-26T11:56:02.396Z</time></trkpt><trkpt lat="45.8727847" lon="11.5462833"><ele>1078.0</ele><time>2026-04-26T11:56:03.396Z</time></trkpt><trkpt lat="45.8727053" lon="11.5463472"><ele>1078.0</ele><time>2026-04-26T11:56:04.395Z</time></trkpt><trkpt lat="45.8726263" lon="11.5464143"><ele>1078.0</ele><time>2026-04-26T11:56:05.395Z</time></trkpt><trkpt lat="45.8725437" lon="11.5464869"><ele>1078.0</ele><time>2026-04-26T11:56:06.398Z</time></trkpt><trkpt lat="45.8724577" lon="11.5465703"><ele>1078.0</ele><time>2026-04-26T11:56:07.396Z</time></trkpt><trkpt lat="45.8723682" lon="11.5466641"><ele>1078.0</ele><time>2026-04-26T11:56:08.396Z</time></trkpt><trkpt lat="45.8722752" lon="11.5467682"><ele>1078.75</ele><time>2026-04-26T11:56:09.397Z</time></trkpt><trkpt lat="45.8721782" lon="11.5468799"><ele>1079.5</ele><time>2026-04-26T11:56:10.396Z</time></trkpt><trkpt lat="45.8720741" lon="11.5469911"><ele>1080.25</ele><time>2026-04-26T11:56:11.393Z</time></trkpt><trkpt lat="45.8719576" lon="11.54711"><ele>1081.0</ele><time>2026-04-26T11:56:12.393Z</time></trkpt><trkpt lat="45.8718565" lon="11.5472169"><ele>1082.0</ele><time>2026-04-26T11:56:13.197Z</time></trkpt><trkpt lat="45.8715855" lon="11.5475033"><ele>1083.0</ele><time>2026-04-26T11:56:15.397Z</time></trkpt><trkpt lat="45.8714774" lon="11.547615"><ele>1083.0</ele><time>2026-04-26T11:56:16.396Z</time></trkpt><trkpt lat="45.8713739" lon="11.5477155"><ele>1083.0</ele><time>2026-04-26T11:56:17.396Z</time></trkpt><trkpt lat="45.8712645" lon="11.5478076"><ele>1083.0</ele><time>2026-04-26T11:56:18.398Z</time></trkpt><trkpt lat="45.8711495" lon="11.5478907"><ele>1083.0</ele><time>2026-04-26T11:56:19.397Z</time></trkpt><trkpt lat="45.8710276" lon="11.5479589"><ele>1084.5</ele><time>2026-04-26T11:56:20.396Z</time></trkpt><trkpt lat="45.8709018" lon="11.5480175"><ele>1086.0</ele><time>2026-04-26T11:56:21.396Z</time></trkpt><trkpt lat="45.8707708" lon="11.5480736"><ele>1087.5</ele><time>2026-04-26T11:56:22.396Z</time></trkpt><trkpt lat="45.8706305" lon="11.5481306"><ele>1089.0</ele><time>2026-04-26T11:56:23.395Z</time></trkpt><trkpt lat="45.8704789" lon="11.5481858"><ele>1089.0</ele><time>2026-04-26T11:56:24.394Z</time></trkpt><trkpt lat="45.8703162" lon="11.5482412"><ele>1089.0</ele><time>2026-04-26T11:56:25.396Z</time></trkpt><trkpt lat="45.87015" lon="11.548295"><ele>1089.0</ele><time>2026-04-26T11:56:26.395Z</time></trkpt><trkpt lat="45.8699848" lon="11.5483534"><ele>1087.6666666666667</ele><time>2026-04-26T11:56:27.398Z</time></trkpt><trkpt lat="45.86981" lon="11.5484268"><ele>1086.3333333333335</ele><time>2026-04-26T11:56:28.397Z</time></trkpt><trkpt lat="45.8696173" lon="11.5485006"><ele>1085.0</ele><time>2026-04-26T11:56:29.395Z</time></trkpt><trkpt lat="45.8694296" lon="11.5485528"><ele>1085.3333333333335</ele><time>2026-04-26T11:56:30.397Z</time></trkpt><trkpt lat="45.8692591" lon="11.548597"><ele>1085.6666666666667</ele><time>2026-04-26T11:56:31.398Z</time></trkpt><trkpt lat="45.8691068" lon="11.5486428"><ele>1086.0</ele><time>2026-04-26T11:56:32.395Z</time></trkpt><trkpt lat="45.8689667" lon="11.5486887"><ele>1090.3333333333333</ele><time>2026-04-26T11:56:33.397Z</time></trkpt><trkpt lat="45.8687091" lon="11.5487744"><ele>1094.6666666666665</ele><time>2026-04-26T11:56:35.392Z</time></trkpt><trkpt lat="45.8685801" lon="11.5488178"><ele>1099.0</ele><time>2026-04-26T11:56:36.395Z</time></trkpt><trkpt lat="45.868449" lon="11.5488618"><ele>1099.0</ele><time>2026-04-26T11:56:37.396Z</time></trkpt><trkpt lat="45.86832" lon="11.5489041"><ele>1099.0</ele><time>2026-04-26T11:56:38.4Z</time></trkpt><trkpt lat="45.8681966" lon="11.5489453"><ele>1099.0</ele><time>2026-04-26T11:56:39.398Z</time></trkpt><trkpt lat="45.8680714" lon="11.5489862"><ele>1099.0</ele><time>2026-04-26T11:56:40.398Z</time></trkpt><trkpt lat="45.8679439" lon="11.5490276"><ele>1099.0</ele><time>2026-04-26T11:56:41.398Z</time></trkpt><trkpt lat="45.86782" lon="11.5490676"><ele>1099.0</ele><time>2026-04-26T11:56:42.397Z</time></trkpt><trkpt lat="45.8677059" lon="11.5491057"><ele>1099.0</ele><time>2026-04-26T11:56:43.395Z</time></trkpt><trkpt lat="45.8676008" lon="11.5491453"><ele>1099.0</ele><time>2026-04-26T11:56:44.396Z</time></trkpt><trkpt lat="45.8675013" lon="11.5491913"><ele>1098.0</ele><time>2026-04-26T11:56:45.397Z</time></trkpt><trkpt lat="45.8674068" lon="11.5492527"><ele>1097.0</ele><time>2026-04-26T11:56:46.396Z</time></trkpt><trkpt lat="45.8673181" lon="11.5493328"><ele>1096.0</ele><time>2026-04-26T11:56:47.397Z</time></trkpt><trkpt lat="45.8672273" lon="11.5494444"><ele>1095.0</ele><time>2026-04-26T11:56:48.397Z</time></trkpt><trkpt lat="45.867134" lon="11.5495958"><ele>1098.6666666666667</ele><time>2026-04-26T11:56:49.399Z</time></trkpt><trkpt lat="45.867035" lon="11.5497857"><ele>1102.3333333333335</ele><time>2026-04-26T11:56:50.397Z</time></trkpt><trkpt lat="45.8669199" lon="11.55"><ele>1106.0</ele><time>2026-04-26T11:56:51.399Z</time></trkpt><trkpt lat="45.8667811" lon="11.5502254"><ele>1104.3333333333335</ele><time>2026-04-26T11:56:52.397Z</time></trkpt><trkpt lat="45.8666216" lon="11.5504507"><ele>1102.6666666666667</ele><time>2026-04-26T11:56:53.396Z</time></trkpt><trkpt lat="45.8664629" lon="11.5506623"><ele>1101.0</ele><time>2026-04-26T11:56:54.396Z</time></trkpt><trkpt lat="45.8661738" lon="11.5510501"><ele>1101.0</ele><time>2026-04-26T11:56:56.396Z</time></trkpt><trkpt lat="45.8660342" lon="11.5512134"><ele>1101.0</ele><time>2026-04-26T11:56:57.398Z</time></trkpt><trkpt lat="45.8658948" lon="11.5513549"><ele>1101.0</ele><time>2026-04-26T11:56:58.396Z</time></trkpt><trkpt lat="45.8657548" lon="11.5514896"><ele>1101.0</ele><time>2026-04-26T11:56:59.396Z</time></trkpt><trkpt lat="45.8656212" lon="11.5516192"><ele>1101.0</ele><time>2026-04-26T11:57:00.392Z</time></trkpt><trkpt lat="45.8654989" lon="11.5517398"><ele>1101.0</ele><time>2026-04-26T11:57:01.392Z</time></trkpt><trkpt lat="45.8653915" lon="11.5518436"><ele>1101.0</ele><time>2026-04-26T11:57:02.392Z</time></trkpt><trkpt lat="45.865299" lon="11.5519305"><ele>1101.0</ele><time>2026-04-26T11:57:03.393Z</time></trkpt><trkpt lat="45.8652162" lon="11.5520096"><ele>1101.0</ele><time>2026-04-26T11:57:04.395Z</time></trkpt><trkpt lat="45.8651414" lon="11.5520782"><ele>1101.0</ele><time>2026-04-26T11:57:05.395Z</time></trkpt><trkpt lat="45.8650739" lon="11.552137"><ele>1101.0</ele><time>2026-04-26T11:57:06.396Z</time></trkpt><trkpt lat="45.8650178" lon="11.5521869"><ele>1101.0</ele><time>2026-04-26T11:57:07.395Z</time></trkpt><trkpt lat="45.8649585" lon="11.5523017"><ele>1101.0</ele><time>2026-04-26T11:57:09.399Z</time></trkpt><trkpt lat="45.8650005" lon="11.5524818"><ele>1100.25</ele><time>2026-04-26T11:57:11.398Z</time></trkpt><trkpt lat="45.8650531" lon="11.5526189"><ele>1099.5</ele><time>2026-04-26T11:57:12.398Z</time></trkpt><trkpt lat="45.8651086" lon="11.5527985"><ele>1098.75</ele><time>2026-04-26T11:57:13.397Z</time></trkpt><trkpt lat="45.8651721" lon="11.5530106"><ele>1098.0</ele><time>2026-04-26T11:57:14.396Z</time></trkpt><trkpt lat="45.8652391" lon="11.5532215"><ele>1099.3333333333333</ele><time>2026-04-26T11:57:15.396Z</time></trkpt><trkpt lat="45.8653611" lon="11.5535969"><ele>1100.6666666666665</ele><time>2026-04-26T11:57:17.397Z</time></trkpt><trkpt lat="45.8654231" lon="11.5537605"><ele>1102.0</ele><time>2026-04-26T11:57:18.398Z</time></trkpt><trkpt lat="45.8654921" lon="11.5539099"><ele>1102.0</ele><time>2026-04-26T11:57:19.4Z</time></trkpt><trkpt lat="45.8655686" lon="11.5540479"><ele>1102.0</ele><time>2026-04-26T11:57:20.394Z</time></trkpt><trkpt lat="45.8656581" lon="11.554172"><ele>1102.0</ele><time>2026-04-26T11:57:21.396Z</time></trkpt><trkpt lat="45.8657586" lon="11.5542897"><ele>1102.0</ele><time>2026-04-26T11:57:22.396Z</time></trkpt><trkpt lat="45.8658595" lon="11.5544217"><ele>1104.3333333333333</ele><time>2026-04-26T11:57:23.395Z</time></trkpt><trkpt lat="45.8659615" lon="11.554582"><ele>1106.6666666666667</ele><time>2026-04-26T11:57:24.395Z</time></trkpt><trkpt lat="45.8660566" lon="11.5547689"><ele>1109.0</ele><time>2026-04-26T11:57:25.394Z</time></trkpt><trkpt lat="45.86614" lon="11.554952"><ele>1109.0</ele><time>2026-04-26T11:57:26.394Z</time></trkpt><trkpt lat="45.8662149" lon="11.555122"><ele>1109.0</ele><time>2026-04-26T11:57:27.396Z</time></trkpt><trkpt lat="45.8662887" lon="11.5552858"><ele>1109.0</ele><time>2026-04-26T11:57:28.397Z</time></trkpt><trkpt lat="45.8663721" lon="11.5554447"><ele>1109.0</ele><time>2026-04-26T11:57:29.399Z</time></trkpt><trkpt lat="45.866469" lon="11.5555971"><ele>1107.75</ele><time>2026-04-26T11:57:30.395Z</time></trkpt><trkpt lat="45.8665663" lon="11.5557543"><ele>1106.5</ele><time>2026-04-26T11:57:31.397Z</time></trkpt><trkpt lat="45.8666479" lon="11.5559154"><ele>1105.25</ele><time>2026-04-26T11:57:32.397Z</time></trkpt><trkpt lat="45.8667196" lon="11.5560735"><ele>1104.0</ele><time>2026-04-26T11:57:33.395Z</time></trkpt><trkpt lat="45.8667769" lon="11.5562245"><ele>1104.3333333333333</ele><time>2026-04-26T11:57:34.397Z</time></trkpt><trkpt lat="45.8668398" lon="11.556357"><ele>1104.6666666666665</ele><time>2026-04-26T11:57:35.399Z</time></trkpt><trkpt lat="45.8669153" lon="11.556489"><ele>1105.0</ele><time>2026-04-26T11:57:36.398Z</time></trkpt><trkpt lat="45.8670525" lon="11.5567431"><ele>1105.0</ele><time>2026-04-26T11:57:38.399Z</time></trkpt><trkpt lat="45.8671442" lon="11.5568549"><ele>1105.0</ele><time>2026-04-26T11:57:39.399Z</time></trkpt><trkpt lat="45.8672446" lon="11.5569638"><ele>1105.0</ele><time>2026-04-26T11:57:40.398Z</time></trkpt><trkpt lat="45.8673354" lon="11.5570715"><ele>1105.0</ele><time>2026-04-26T11:57:41.397Z</time></trkpt><trkpt lat="45.8674088" lon="11.5571906"><ele>1104.2</ele><time>2026-04-26T11:57:42.397Z</time></trkpt><trkpt lat="45.867462" lon="11.5573246"><ele>1103.4</ele><time>2026-04-26T11:57:43.397Z</time></trkpt><trkpt lat="45.8674921" lon="11.5574618"><ele>1102.6</ele><time>2026-04-26T11:57:44.397Z</time></trkpt><trkpt lat="45.867501" lon="11.557598"><ele>1101.8</ele><time>2026-04-26T11:57:45.397Z</time></trkpt><trkpt lat="45.867499" lon="11.5577415"><ele>1101.0</ele><time>2026-04-26T11:57:46.4Z</time></trkpt><trkpt lat="45.8675056" lon="11.5578849"><ele>1101.0</ele><time>2026-04-26T11:57:47.397Z</time></trkpt><trkpt lat="45.867539" lon="11.558008"><ele>1101.0</ele><time>2026-04-26T11:57:48.396Z</time></trkpt><trkpt lat="45.867602" lon="11.558111"><ele>1101.0</ele><time>2026-04-26T11:57:49.397Z</time></trkpt><trkpt lat="45.8676936" lon="11.5582025"><ele>1101.0</ele><time>2026-04-26T11:57:50.396Z</time></trkpt><trkpt lat="45.8678073" lon="11.5583029"><ele>1101.0</ele><time>2026-04-26T11:57:51.396Z</time></trkpt><trkpt lat="45.8679329" lon="11.5584099"><ele>1101.6666666666667</ele><time>2026-04-26T11:57:52.398Z</time></trkpt><trkpt lat="45.8680585" lon="11.558524"><ele>1102.3333333333335</ele><time>2026-04-26T11:57:53.399Z</time></trkpt><trkpt lat="45.8681783" lon="11.5586682"><ele>1103.0</ele><time>2026-04-26T11:57:54.399Z</time></trkpt><trkpt lat="45.8682899" lon="11.5588552"><ele>1103.6666666666667</ele><time>2026-04-26T11:57:55.397Z</time></trkpt><trkpt lat="45.8683954" lon="11.5590702"><ele>1104.3333333333333</ele><time>2026-04-26T11:57:56.398Z</time></trkpt><trkpt lat="45.8684944" lon="11.5592827"><ele>1105.0</ele><time>2026-04-26T11:57:57.398Z</time></trkpt><trkpt lat="45.8686986" lon="11.5596531"><ele>1105.0</ele><time>2026-04-26T11:57:59.396Z</time></trkpt><trkpt lat="45.8688264" lon="11.5598156"><ele>1105.0</ele><time>2026-04-26T11:58:00.397Z</time></trkpt><trkpt lat="45.8689678" lon="11.5599697"><ele>1105.0</ele><time>2026-04-26T11:58:01.399Z</time></trkpt><trkpt lat="45.8691138" lon="11.5601216"><ele>1105.0</ele><time>2026-04-26T11:58:02.395Z</time></trkpt><trkpt lat="45.869256" lon="11.5602705"><ele>1105.0</ele><time>2026-04-26T11:58:03.398Z</time></trkpt><trkpt lat="45.8693904" lon="11.5604063"><ele>1105.0</ele><time>2026-04-26T11:58:04.397Z</time></trkpt><trkpt lat="45.8695219" lon="11.5605291"><ele>1106.0</ele><time>2026-04-26T11:58:05.4Z</time></trkpt><trkpt lat="45.8696553" lon="11.5606448"><ele>1107.0</ele><time>2026-04-26T11:58:06.4Z</time></trkpt><trkpt lat="45.8697975" lon="11.5607622"><ele>1108.0</ele><time>2026-04-26T11:58:07.399Z</time></trkpt><trkpt lat="45.8699505" lon="11.5608805"><ele>1108.6666666666665</ele><time>2026-04-26T11:58:08.396Z</time></trkpt><trkpt lat="45.8701132" lon="11.5609999"><ele>1109.3333333333333</ele><time>2026-04-26T11:58:09.397Z</time></trkpt><trkpt lat="45.870271" lon="11.5611167"><ele>1110.0</ele><time>2026-04-26T11:58:10.397Z</time></trkpt><trkpt lat="45.8704157" lon="11.561228"><ele>1110.0</ele><time>2026-04-26T11:58:11.395Z</time></trkpt><trkpt lat="45.8705572" lon="11.5613401"><ele>1110.0</ele><time>2026-04-26T11:58:12.396Z</time></trkpt><trkpt lat="45.8706963" lon="11.5614607"><ele>1110.0</ele><time>2026-04-26T11:58:13.397Z</time></trkpt><trkpt lat="45.8708294" lon="11.5615993"><ele>1110.6666666666667</ele><time>2026-04-26T11:58:14.396Z</time></trkpt><trkpt lat="45.8709478" lon="11.5617587"><ele>1111.3333333333335</ele><time>2026-04-26T11:58:15.396Z</time></trkpt><trkpt lat="45.8710467" lon="11.561938"><ele>1112.0</ele><time>2026-04-26T11:58:16.399Z</time></trkpt><trkpt lat="45.8711402" lon="11.5621359"><ele>1112.0</ele><time>2026-04-26T11:58:17.399Z</time></trkpt><trkpt lat="45.871251" lon="11.5623341"><ele>1112.0</ele><time>2026-04-26T11:58:18.398Z</time></trkpt><trkpt lat="45.871537" lon="11.5626924"><ele>1112.0</ele><time>2026-04-26T11:58:20.397Z</time></trkpt><trkpt lat="45.87168" lon="11.5628454"><ele>1112.0</ele><time>2026-04-26T11:58:21.398Z</time></trkpt><trkpt lat="45.8718153" lon="11.5629833"><ele>1112.0</ele><time>2026-04-26T11:58:22.399Z</time></trkpt><trkpt lat="45.8719436" lon="11.5631111"><ele>1113.0</ele><time>2026-04-26T11:58:23.398Z</time></trkpt><trkpt lat="45.8720692" lon="11.5632365"><ele>1114.0</ele><time>2026-04-26T11:58:24.398Z</time></trkpt><trkpt lat="45.872195" lon="11.5633668"><ele>1115.0</ele><time>2026-04-26T11:58:25.399Z</time></trkpt><trkpt lat="45.8723181" lon="11.5634997"><ele>1115.0</ele><time>2026-04-26T11:58:26.399Z</time></trkpt><trkpt lat="45.8724334" lon="11.5636231"><ele>1115.0</ele><time>2026-04-26T11:58:27.4Z</time></trkpt><trkpt lat="45.8725409" lon="11.5637391"><ele>1115.0</ele><time>2026-04-26T11:58:28.395Z</time></trkpt><trkpt lat="45.8726473" lon="11.5638561"><ele>1115.0</ele><time>2026-04-26T11:58:29.401Z</time></trkpt><trkpt lat="45.8727556" lon="11.5639761"><ele>1116.25</ele><time>2026-04-26T11:58:30.4Z</time></trkpt><trkpt lat="45.8728591" lon="11.564095"><ele>1117.5</ele><time>2026-04-26T11:58:31.399Z</time></trkpt><trkpt lat="45.8729554" lon="11.5642072"><ele>1118.75</ele><time>2026-04-26T11:58:32.397Z</time></trkpt><trkpt lat="45.8730516" lon="11.5643223"><ele>1120.0</ele><time>2026-04-26T11:58:33.398Z</time></trkpt><trkpt lat="45.8731495" lon="11.5644398"><ele>1120.75</ele><time>2026-04-26T11:58:34.399Z</time></trkpt><trkpt lat="45.8732515" lon="11.5645515"><ele>1121.5</ele><time>2026-04-26T11:58:35.399Z</time></trkpt><trkpt lat="45.8733643" lon="11.564648"><ele>1122.25</ele><time>2026-04-26T11:58:36.398Z</time></trkpt><trkpt lat="45.873493" lon="11.5647204"><ele>1123.0</ele><time>2026-04-26T11:58:37.395Z</time></trkpt><trkpt lat="45.8736313" lon="11.564769"><ele>1123.0</ele><time>2026-04-26T11:58:38.397Z</time></trkpt><trkpt lat="45.8737628" lon="11.5648055"><ele>1123.0</ele><time>2026-04-26T11:58:39.396Z</time></trkpt><trkpt lat="45.8740018" lon="11.5648768"><ele>1123.0</ele><time>2026-04-26T11:58:41.398Z</time></trkpt><trkpt lat="45.8741121" lon="11.5649395"><ele>1123.0</ele><time>2026-04-26T11:58:42.398Z</time></trkpt><trkpt lat="45.8742209" lon="11.5650263"><ele>1123.0</ele><time>2026-04-26T11:58:43.397Z</time></trkpt><trkpt lat="45.8743311" lon="11.565132"><ele>1123.0</ele><time>2026-04-26T11:58:44.397Z</time></trkpt><trkpt lat="45.8744448" lon="11.5652541"><ele>1123.0</ele><time>2026-04-26T11:58:45.397Z</time></trkpt><trkpt lat="45.8745518" lon="11.5653944"><ele>1124.0</ele><time>2026-04-26T11:58:46.397Z</time></trkpt><trkpt lat="45.8746544" lon="11.5655562"><ele>1125.0</ele><time>2026-04-26T11:58:47.399Z</time></trkpt><trkpt lat="45.8747607" lon="11.5657313"><ele>1126.0</ele><time>2026-04-26T11:58:48.399Z</time></trkpt><trkpt lat="45.8748672" lon="11.5659003"><ele>1126.0</ele><time>2026-04-26T11:58:49.398Z</time></trkpt><trkpt lat="45.8749705" lon="11.5660525"><ele>1126.0</ele><time>2026-04-26T11:58:50.398Z</time></trkpt><trkpt lat="45.8750683" lon="11.566194"><ele>1126.0</ele><time>2026-04-26T11:58:51.398Z</time></trkpt><trkpt lat="45.8751599" lon="11.5663265"><ele>1126.0</ele><time>2026-04-26T11:58:52.396Z</time></trkpt><trkpt lat="45.8752443" lon="11.5664461"><ele>1126.0</ele><time>2026-04-26T11:58:53.399Z</time></trkpt><trkpt lat="45.8753191" lon="11.5665482"><ele>1126.0</ele><time>2026-04-26T11:58:54.398Z</time></trkpt><trkpt lat="45.8753972" lon="11.5666311"><ele>1126.0</ele><time>2026-04-26T11:58:55.398Z</time></trkpt><trkpt lat="45.8754818" lon="11.566718"><ele>1126.0</ele><time>2026-04-26T11:58:56.398Z</time></trkpt><trkpt lat="45.8755538" lon="11.5668153"><ele>1126.0</ele><time>2026-04-26T11:58:57.398Z</time></trkpt><trkpt lat="45.8756258" lon="11.566921"><ele>1126.0</ele><time>2026-04-26T11:58:58.397Z</time></trkpt><trkpt lat="45.8756859" lon="11.567009"><ele>1126.0</ele><time>2026-04-26T11:58:59.2Z</time></trkpt><trkpt lat="45.875774" lon="11.5671454"><ele>1126.0</ele><time>2026-04-26T11:59:00.397Z</time></trkpt><trkpt lat="45.8759224" lon="11.5673824"><ele>1126.0</ele><time>2026-04-26T11:59:02.396Z</time></trkpt><trkpt lat="45.8759909" lon="11.5674949"><ele>1126.8</ele><time>2026-04-26T11:59:03.396Z</time></trkpt><trkpt lat="45.8760546" lon="11.5676015"><ele>1127.6</ele><time>2026-04-26T11:59:04.394Z</time></trkpt><trkpt lat="45.8761116" lon="11.5676994"><ele>1128.4</ele><time>2026-04-26T11:59:05.397Z</time></trkpt><trkpt lat="45.8761564" lon="11.5677914"><ele>1129.2</ele><time>2026-04-26T11:59:06.401Z</time></trkpt><trkpt lat="45.8761896" lon="11.5678769"><ele>1130.0</ele><time>2026-04-26T11:59:07.4Z</time></trkpt><trkpt lat="45.8762456" lon="11.5680349"><ele>1130.6</ele><time>2026-04-26T11:59:09.4Z</time></trkpt><trkpt lat="45.8762774" lon="11.568136"><ele>1131.2</ele><time>2026-04-26T11:59:10.399Z</time></trkpt><trkpt lat="45.8763178" lon="11.5682583"><ele>1131.8</ele><time>2026-04-26T11:59:11.397Z</time></trkpt><trkpt lat="45.8763688" lon="11.568384"><ele>1132.4</ele><time>2026-04-26T11:59:12.397Z</time></trkpt><trkpt lat="45.8764154" lon="11.5684904"><ele>1133.0</ele><time>2026-04-26T11:59:13.398Z</time></trkpt><trkpt lat="45.8764541" lon="11.5686079"><ele>1134.0</ele><time>2026-04-26T11:59:14.397Z</time></trkpt><trkpt lat="45.8764837" lon="11.5687424"><ele>1135.0</ele><time>2026-04-26T11:59:15.397Z</time></trkpt><trkpt lat="45.8765065" lon="11.5688687"><ele>1136.0</ele><time>2026-04-26T11:59:16.397Z</time></trkpt><trkpt lat="45.8765265" lon="11.5689896"><ele>1137.0</ele><time>2026-04-26T11:59:17.397Z</time></trkpt><trkpt lat="45.8765422" lon="11.5691181"><ele>1138.0</ele><time>2026-04-26T11:59:18.4Z</time></trkpt><trkpt lat="45.8765523" lon="11.569247"><ele>1138.0</ele><time>2026-04-26T11:59:19.4Z</time></trkpt><trkpt lat="45.8765518" lon="11.5693696"><ele>1138.0</ele><time>2026-04-26T11:59:20.397Z</time></trkpt><trkpt lat="45.87654" lon="11.5694857"><ele>1138.0</ele><time>2026-04-26T11:59:21.399Z</time></trkpt><trkpt lat="45.8764529" lon="11.5698026"><ele>1138.0</ele><time>2026-04-26T11:59:24.397Z</time></trkpt><trkpt lat="45.8764046" lon="11.5698912"><ele>1138.4</ele><time>2026-04-26T11:59:25.398Z</time></trkpt><trkpt lat="45.8763375" lon="11.5699777"><ele>1138.8</ele><time>2026-04-26T11:59:26.395Z</time></trkpt><trkpt lat="45.8762576" lon="11.5700636"><ele>1139.2</ele><time>2026-04-26T11:59:27.394Z</time></trkpt><trkpt lat="45.8761819" lon="11.5701604"><ele>1139.6</ele><time>2026-04-26T11:59:28.394Z</time></trkpt><trkpt lat="45.8761189" lon="11.570283"><ele>1140.0</ele><time>2026-04-26T11:59:29.392Z</time></trkpt><trkpt lat="45.8760594" lon="11.5704265"><ele>1140.0</ele><time>2026-04-26T11:59:30.396Z</time></trkpt><trkpt lat="45.8760006" lon="11.5705763"><ele>1140.0</ele><time>2026-04-26T11:59:31.393Z</time></trkpt><trkpt lat="45.8759471" lon="11.5707162"><ele>1140.0</ele><time>2026-04-26T11:59:32.395Z</time></trkpt><trkpt lat="45.8759018" lon="11.5708626"><ele>1140.0</ele><time>2026-04-26T11:59:33.396Z</time></trkpt><trkpt lat="45.875867" lon="11.571006"><ele>1140.0</ele><time>2026-04-26T11:59:34.396Z</time></trkpt><trkpt lat="45.8758448" lon="11.5711549"><ele>1141.5</ele><time>2026-04-26T11:59:35.398Z</time></trkpt><trkpt lat="45.875827" lon="11.5712876"><ele>1143.0</ele><time>2026-04-26T11:59:36.398Z</time></trkpt><trkpt lat="45.8758009" lon="11.5713974"><ele>1144.5</ele><time>2026-04-26T11:59:37.398Z</time></trkpt><trkpt lat="45.8757625" lon="11.5714967"><ele>1146.0</ele><time>2026-04-26T11:59:38.397Z</time></trkpt><trkpt lat="45.8757157" lon="11.5715782"><ele>1147.5</ele><time>2026-04-26T11:59:39.392Z</time></trkpt><trkpt lat="45.8756517" lon="11.5716441"><ele>1149.0</ele><time>2026-04-26T11:59:40.395Z</time></trkpt><trkpt lat="45.8755593" lon="11.5717085"><ele>1149.0</ele><time>2026-04-26T11:59:41.396Z</time></trkpt><trkpt lat="45.8754727" lon="11.5717762"><ele>1149.0</ele><time>2026-04-26T11:59:42.393Z</time></trkpt><trkpt lat="45.8753197" lon="11.5719665"><ele>1149.0</ele><time>2026-04-26T11:59:44.394Z</time></trkpt><trkpt lat="45.8752606" lon="11.572087"><ele>1149.0</ele><time>2026-04-26T11:59:45.394Z</time></trkpt><trkpt lat="45.8752155" lon="11.572208"><ele>1151.1666666666667</ele><time>2026-04-26T11:59:46.395Z</time></trkpt><trkpt lat="45.8751801" lon="11.5723126"><ele>1153.3333333333333</ele><time>2026-04-26T11:59:47.393Z</time></trkpt><trkpt lat="45.875152" lon="11.572419"><ele>1155.5</ele><time>2026-04-26T11:59:48.395Z</time></trkpt><trkpt lat="45.8751251" lon="11.5725252"><ele>1157.6666666666665</ele><time>2026-04-26T11:59:49.393Z</time></trkpt><trkpt lat="45.8750944" lon="11.5726251"><ele>1159.8333333333333</ele><time>2026-04-26T11:59:50.395Z</time></trkpt><trkpt lat="45.8750551" lon="11.5727223"><ele>1162.0</ele><time>2026-04-26T11:59:51.391Z</time></trkpt><trkpt lat="45.8750191" lon="11.5728139"><ele>1164.0</ele><time>2026-04-26T11:59:52.392Z</time></trkpt><trkpt lat="45.8749509" lon="11.5729282"><ele>1166.0</ele><time>2026-04-26T11:59:54.393Z</time></trkpt><trkpt lat="45.8749454" lon="11.5730552"><ele>1168.0</ele><time>2026-04-26T11:59:56.393Z</time></trkpt><trkpt lat="45.8750074" lon="11.5731197"><ele>1170.0</ele><time>2026-04-26T11:59:58.392Z</time></trkpt><trkpt lat="45.8750943" lon="11.5730913"><ele>1172.0</ele><time>2026-04-26T12:00:00.391Z</time></trkpt><trkpt lat="45.8751757" lon="11.5730501"><ele>1174.0</ele><time>2026-04-26T12:00:01.394Z</time></trkpt><trkpt lat="45.8752671" lon="11.5729984"><ele>1175.0</ele><time>2026-04-26T12:00:02.391Z</time></trkpt><trkpt lat="45.8753398" lon="11.5729438"><ele>1176.0</ele><time>2026-04-26T12:00:03.393Z</time></trkpt><trkpt lat="45.8754413" lon="11.572801"><ele>1177.0</ele><time>2026-04-26T12:00:05.394Z</time></trkpt><trkpt lat="45.8754862" lon="11.5727268"><ele>1178.0</ele><time>2026-04-26T12:00:06.392Z</time></trkpt><trkpt lat="45.8755387" lon="11.5726672"><ele>1179.0</ele><time>2026-04-26T12:00:07.393Z</time></trkpt><trkpt lat="45.8755982" lon="11.5726351"><ele>1180.0</ele><time>2026-04-26T12:00:08.395Z</time></trkpt><trkpt lat="45.8756712" lon="11.5726327"><ele>1178.3333333333333</ele><time>2026-04-26T12:00:09.394Z</time></trkpt><trkpt lat="45.8757465" lon="11.5726393"><ele>1176.6666666666665</ele><time>2026-04-26T12:00:10.394Z</time></trkpt><trkpt lat="45.8758285" lon="11.5726614"><ele>1175.0</ele><time>2026-04-26T12:00:11.395Z</time></trkpt><trkpt lat="45.8758999" lon="11.5726867"><ele>1173.3333333333333</ele><time>2026-04-26T12:00:12.397Z</time></trkpt><trkpt lat="45.8760063" lon="11.5727212"><ele>1171.6666666666667</ele><time>2026-04-26T12:00:14.394Z</time></trkpt><trkpt lat="45.8761017" lon="11.5727317"><ele>1170.0</ele><time>2026-04-26T12:00:16.394Z</time></trkpt><trkpt lat="45.8761839" lon="11.5727222"><ele>1170.0</ele><time>2026-04-26T12:00:18.393Z</time></trkpt><trkpt lat="45.8762681" lon="11.5726875"><ele>1170.0</ele><time>2026-04-26T12:00:20.396Z</time></trkpt><trkpt lat="45.8763359" lon="11.5726241"><ele>1170.0</ele><time>2026-04-26T12:00:22.395Z</time></trkpt><trkpt lat="45.8763924" lon="11.5725638"><ele>1170.0</ele><time>2026-04-26T12:00:24.394Z</time></trkpt><trkpt lat="45.8765169" lon="11.5723936"><ele>1170.0</ele><time>2026-04-26T12:00:28.398Z</time></trkpt><trkpt lat="45.8765833" lon="11.5723222"><ele>1170.0</ele><time>2026-04-26T12:00:30.397Z</time></trkpt><trkpt lat="45.8766565" lon="11.5723384"><ele>1170.0</ele><time>2026-04-26T12:00:32.396Z</time></trkpt><trkpt lat="45.8767147" lon="11.5724511"><ele>1170.0</ele><time>2026-04-26T12:00:34.396Z</time></trkpt><trkpt lat="45.8767509" lon="11.5725887"><ele>1170.0</ele><time>2026-04-26T12:00:36.397Z</time></trkpt><trkpt lat="45.8767753" lon="11.5727549"><ele>1170.0</ele><time>2026-04-26T12:00:38.398Z</time></trkpt><trkpt lat="45.8767884" lon="11.5729197"><ele>1167.8</ele><time>2026-04-26T12:00:40.394Z</time></trkpt><trkpt lat="45.876808" lon="11.5730839"><ele>1165.6</ele><time>2026-04-26T12:00:42.394Z</time></trkpt><trkpt lat="45.8768569" lon="11.5732237"><ele>1163.4</ele><time>2026-04-26T12:00:44.396Z</time></trkpt><trkpt lat="45.876899" lon="11.5732954"><ele>1161.2</ele><time>2026-04-26T12:00:45.397Z</time></trkpt><trkpt lat="45.8769945" lon="11.5734563"><ele>1159.0</ele><time>2026-04-26T12:00:47.397Z</time></trkpt><trkpt lat="45.8770355" lon="11.573528"><ele>1159.0</ele><time>2026-04-26T12:00:48.196Z</time></trkpt><trkpt lat="45.8770953" lon="11.5736522"><ele>1159.0</ele><time>2026-04-26T12:00:49.395Z</time></trkpt><trkpt lat="45.8771406" lon="11.5737554"><ele>1159.0</ele><time>2026-04-26T12:00:50.395Z</time></trkpt><trkpt lat="45.8771789" lon="11.5738476"><ele>1159.0</ele><time>2026-04-26T12:00:51.396Z</time></trkpt><trkpt lat="45.8772181" lon="11.5739237"><ele>1159.0</ele><time>2026-04-26T12:00:52.396Z</time></trkpt><trkpt lat="45.8773307" lon="11.5740132"><ele>1159.8</ele><time>2026-04-26T12:00:54.396Z</time></trkpt><trkpt lat="45.8774095" lon="11.574018"><ele>1160.6000000000001</ele><time>2026-04-26T12:00:55.395Z</time></trkpt><trkpt lat="45.8774978" lon="11.573989"><ele>1161.4</ele><time>2026-04-26T12:00:56.397Z</time></trkpt><trkpt lat="45.8775798" lon="11.5739291"><ele>1162.2</ele><time>2026-04-26T12:00:57.397Z</time></trkpt><trkpt lat="45.8776658" lon="11.5738324"><ele>1163.0</ele><time>2026-04-26T12:00:58.397Z</time></trkpt><trkpt lat="45.8777427" lon="11.5737387"><ele>1162.5</ele><time>2026-04-26T12:00:59.397Z</time></trkpt><trkpt lat="45.8778177" lon="11.5736658"><ele>1162.0</ele><time>2026-04-26T12:01:00.397Z</time></trkpt><trkpt lat="45.8778847" lon="11.5736042"><ele>1161.5</ele><time>2026-04-26T12:01:01.395Z</time></trkpt><trkpt lat="45.8779482" lon="11.573546"><ele>1161.0</ele><time>2026-04-26T12:01:02.396Z</time></trkpt><trkpt lat="45.8780153" lon="11.5734963"><ele>1160.5</ele><time>2026-04-26T12:01:03.396Z</time></trkpt><trkpt lat="45.8780921" lon="11.5734489"><ele>1160.0</ele><time>2026-04-26T12:01:04.394Z</time></trkpt><trkpt lat="45.8781778" lon="11.5734152"><ele>1160.0</ele><time>2026-04-26T12:01:05.394Z</time></trkpt><trkpt lat="45.878272" lon="11.5733974"><ele>1160.0</ele><time>2026-04-26T12:01:06.395Z</time></trkpt><trkpt lat="45.8784627" lon="11.5733875"><ele>1160.0</ele><time>2026-04-26T12:01:08.396Z</time></trkpt><trkpt lat="45.8785512" lon="11.5733807"><ele>1160.0</ele><time>2026-04-26T12:01:09.398Z</time></trkpt><trkpt lat="45.8786307" lon="11.5733817"><ele>1159.2857142857142</ele><time>2026-04-26T12:01:10.398Z</time></trkpt><trkpt lat="45.8787046" lon="11.5733941"><ele>1158.5714285714287</ele><time>2026-04-26T12:01:11.397Z</time></trkpt><trkpt lat="45.8787751" lon="11.5734186"><ele>1157.857142857143</ele><time>2026-04-26T12:01:12.397Z</time></trkpt><trkpt lat="45.8788423" lon="11.57345"><ele>1157.142857142857</ele><time>2026-04-26T12:01:13.397Z</time></trkpt><trkpt lat="45.8789056" lon="11.5734833"><ele>1156.4285714285716</ele><time>2026-04-26T12:01:14.396Z</time></trkpt><trkpt lat="45.8789693" lon="11.5735183"><ele>1155.7142857142858</ele><time>2026-04-26T12:01:15.4Z</time></trkpt><trkpt lat="45.8790396" lon="11.5735568"><ele>1155.0</ele><time>2026-04-26T12:01:16.397Z</time></trkpt><trkpt lat="45.8791052" lon="11.5735948"><ele>1155.0</ele><time>2026-04-26T12:01:17.4Z</time></trkpt><trkpt lat="45.8791685" lon="11.573628"><ele>1155.0</ele><time>2026-04-26T12:01:18.402Z</time></trkpt><trkpt lat="45.8792284" lon="11.5736617"><ele>1155.0</ele><time>2026-04-26T12:01:19.398Z</time></trkpt><trkpt lat="45.8793334" lon="11.5737312"><ele>1155.0</ele><time>2026-04-26T12:01:21.4Z</time></trkpt><trkpt lat="45.879403" lon="11.5738059"><ele>1155.0</ele><time>2026-04-26T12:01:23.403Z</time></trkpt><trkpt lat="45.879416" lon="11.5739316"><ele>1155.0</ele><time>2026-04-26T12:01:25.401Z</time></trkpt><trkpt lat="45.8793404" lon="11.5740529"><ele>1155.75</ele><time>2026-04-26T12:01:27.4Z</time></trkpt><trkpt lat="45.8791805" lon="11.5742106"><ele>1156.5</ele><time>2026-04-26T12:01:29.398Z</time></trkpt><trkpt lat="45.8790767" lon="11.5742891"><ele>1157.25</ele><time>2026-04-26T12:01:30.395Z</time></trkpt><trkpt lat="45.8789683" lon="11.5743719"><ele>1158.0</ele><time>2026-04-26T12:01:31.397Z</time></trkpt><trkpt lat="45.8788653" lon="11.574452"><ele>1153.0</ele><time>2026-04-26T12:01:32.398Z</time></trkpt><trkpt lat="45.8787625" lon="11.5745338"><ele>1148.0</ele><time>2026-04-26T12:01:33.398Z</time></trkpt><trkpt lat="45.8786599" lon="11.5746186"><ele>1143.0</ele><time>2026-04-26T12:01:34.398Z</time></trkpt><trkpt lat="45.8785588" lon="11.5747054"><ele>1138.0</ele><time>2026-04-26T12:01:35.397Z</time></trkpt><trkpt lat="45.8784571" lon="11.5747984"><ele>1141.75</ele><time>2026-04-26T12:01:36.398Z</time></trkpt><trkpt lat="45.8783515" lon="11.5748977"><ele>1145.5</ele><time>2026-04-26T12:01:37.398Z</time></trkpt><trkpt lat="45.8782477" lon="11.5750001"><ele>1149.25</ele><time>2026-04-26T12:01:38.395Z</time></trkpt><trkpt lat="45.8781469" lon="11.5750979"><ele>1153.0</ele><time>2026-04-26T12:01:39.397Z</time></trkpt><trkpt lat="45.8780496" lon="11.5751994"><ele>1153.0</ele><time>2026-04-26T12:01:40.396Z</time></trkpt><trkpt lat="45.8779556" lon="11.5753097"><ele>1153.0</ele><time>2026-04-26T12:01:41.396Z</time></trkpt><trkpt lat="45.8778621" lon="11.5754312"><ele>1153.0</ele><time>2026-04-26T12:01:42.396Z</time></trkpt><trkpt lat="45.8777661" lon="11.5755481"><ele>1153.0</ele><time>2026-04-26T12:01:43.397Z</time></trkpt><trkpt lat="45.8776696" lon="11.5756633"><ele>1154.25</ele><time>2026-04-26T12:01:44.397Z</time></trkpt><trkpt lat="45.8775774" lon="11.5757842"><ele>1155.5</ele><time>2026-04-26T12:01:45.397Z</time></trkpt><trkpt lat="45.8774811" lon="11.5759028"><ele>1156.75</ele><time>2026-04-26T12:01:46.397Z</time></trkpt><trkpt lat="45.8773904" lon="11.5760207"><ele>1158.0</ele><time>2026-04-26T12:01:47.395Z</time></trkpt><trkpt lat="45.8772947" lon="11.5761197"><ele>1152.3333333333333</ele><time>2026-04-26T12:01:48.396Z</time></trkpt><trkpt lat="45.8770995" lon="11.5763443"><ele>1146.6666666666665</ele><time>2026-04-26T12:01:50.394Z</time></trkpt><trkpt lat="45.8770101" lon="11.5764998"><ele>1141.0</ele><time>2026-04-26T12:01:51.393Z</time></trkpt><trkpt lat="45.8769319" lon="11.5766751"><ele>1141.0</ele><time>2026-04-26T12:01:52.393Z</time></trkpt><trkpt lat="45.8768635" lon="11.5768426"><ele>1141.0</ele><time>2026-04-26T12:01:53.392Z</time></trkpt><trkpt lat="45.8768025" lon="11.5769959"><ele>1141.0</ele><time>2026-04-26T12:01:54.392Z</time></trkpt><trkpt lat="45.8767452" lon="11.5771438"><ele>1141.0</ele><time>2026-04-26T12:01:55.392Z</time></trkpt><trkpt lat="45.8766901" lon="11.5772811"><ele>1143.8333333333333</ele><time>2026-04-26T12:01:56.392Z</time></trkpt><trkpt lat="45.8766396" lon="11.5774052"><ele>1146.6666666666665</ele><time>2026-04-26T12:01:57.396Z</time></trkpt><trkpt lat="45.8765899" lon="11.5775139"><ele>1149.5</ele><time>2026-04-26T12:01:58.395Z</time></trkpt><trkpt lat="45.8765365" lon="11.5776088"><ele>1152.3333333333333</ele><time>2026-04-26T12:01:59.395Z</time></trkpt><trkpt lat="45.8764765" lon="11.5776788"><ele>1155.1666666666667</ele><time>2026-04-26T12:02:00.391Z</time></trkpt><trkpt lat="45.8764113" lon="11.5777322"><ele>1158.0</ele><time>2026-04-26T12:02:01.394Z</time></trkpt><trkpt lat="45.8763589" lon="11.5777906"><ele>1156.0</ele><time>2026-04-26T12:02:02.394Z</time></trkpt><trkpt lat="45.8763228" lon="11.5779462"><ele>1154.0</ele><time>2026-04-26T12:02:04.391Z</time></trkpt><trkpt lat="45.8763311" lon="11.5780398"><ele>1152.0</ele><time>2026-04-26T12:02:05.393Z</time></trkpt><trkpt lat="45.8763494" lon="11.5781538"><ele>1150.0</ele><time>2026-04-26T12:02:06.391Z</time></trkpt><trkpt lat="45.8763518" lon="11.5782655"><ele>1148.0</ele><time>2026-04-26T12:02:07.393Z</time></trkpt><trkpt lat="45.8763459" lon="11.5783693"><ele>1146.0</ele><time>2026-04-26T12:02:08.393Z</time></trkpt><trkpt lat="45.8763095" lon="11.5784747"><ele>1146.0</ele><time>2026-04-26T12:02:09.392Z</time></trkpt><trkpt lat="45.8761915" lon="11.5786671"><ele>1146.0</ele><time>2026-04-26T12:02:11.392Z</time></trkpt><trkpt lat="45.8761132" lon="11.5787574"><ele>1146.0</ele><time>2026-04-26T12:02:12.392Z</time></trkpt><trkpt lat="45.8760477" lon="11.5788153"><ele>1146.0</ele><time>2026-04-26T12:02:13.192Z</time></trkpt><trkpt lat="45.8759609" lon="11.5788685"><ele>1143.8333333333333</ele><time>2026-04-26T12:02:14.39Z</time></trkpt><trkpt lat="45.8759142" lon="11.578935"><ele>1141.6666666666667</ele><time>2026-04-26T12:02:16.39Z</time></trkpt><trkpt lat="45.8759275" lon="11.579051"><ele>1139.5</ele><time>2026-04-26T12:02:18.39Z</time></trkpt><trkpt lat="45.8759728" lon="11.5791337"><ele>1137.3333333333335</ele><time>2026-04-26T12:02:19.39Z</time></trkpt><trkpt lat="45.8760385" lon="11.5792468"><ele>1135.1666666666667</ele><time>2026-04-26T12:02:20.389Z</time></trkpt><trkpt lat="45.8760767" lon="11.5793497"><ele>1133.0</ele><time>2026-04-26T12:02:21.391Z</time></trkpt><trkpt lat="45.8761169" lon="11.5794491"><ele>1132.1666666666667</ele><time>2026-04-26T12:02:22.393Z</time></trkpt><trkpt lat="45.8761507" lon="11.5795768"><ele>1131.3333333333335</ele><time>2026-04-26T12:02:23.393Z</time></trkpt><trkpt lat="45.8761673" lon="11.5796984"><ele>1130.5</ele><time>2026-04-26T12:02:24.392Z</time></trkpt><trkpt lat="45.8761715" lon="11.5798262"><ele>1129.6666666666667</ele><time>2026-04-26T12:02:25.394Z</time></trkpt><trkpt lat="45.8761508" lon="11.5799507"><ele>1128.8333333333333</ele><time>2026-04-26T12:02:26.391Z</time></trkpt><trkpt lat="45.8761171" lon="11.5800609"><ele>1128.0</ele><time>2026-04-26T12:02:27.392Z</time></trkpt><trkpt lat="45.8760799" lon="11.5801637"><ele>1128.0</ele><time>2026-04-26T12:02:28.391Z</time></trkpt><trkpt lat="45.8760051" lon="11.5802767"><ele>1128.0</ele><time>2026-04-26T12:02:29.392Z</time></trkpt><trkpt lat="45.87594" lon="11.5803734"><ele>1128.0</ele><time>2026-04-26T12:02:30.391Z</time></trkpt><trkpt lat="45.8758185" lon="11.5805382"><ele>1128.0</ele><time>2026-04-26T12:02:32.39Z</time></trkpt><trkpt lat="45.8757838" lon="11.5806494"><ele>1127.8</ele><time>2026-04-26T12:02:34.39Z</time></trkpt><trkpt lat="45.8758216" lon="11.5808007"><ele>1127.6</ele><time>2026-04-26T12:02:36.391Z</time></trkpt><trkpt lat="45.8758827" lon="11.5808863"><ele>1127.4</ele><time>2026-04-26T12:02:37.394Z</time></trkpt><trkpt lat="45.8759576" lon="11.5809955"><ele>1127.2</ele><time>2026-04-26T12:02:38.393Z</time></trkpt><trkpt lat="45.8760187" lon="11.5811138"><ele>1127.0</ele><time>2026-04-26T12:02:39.391Z</time></trkpt><trkpt lat="45.8760721" lon="11.5812323"><ele>1127.0</ele><time>2026-04-26T12:02:40.39Z</time></trkpt><trkpt lat="45.8761185" lon="11.5813562"><ele>1127.0</ele><time>2026-04-26T12:02:41.392Z</time></trkpt><trkpt lat="45.8761638" lon="11.581471"><ele>1127.0</ele><time>2026-04-26T12:02:42.391Z</time></trkpt><trkpt lat="45.8761983" lon="11.5815705"><ele>1127.0</ele><time>2026-04-26T12:02:43.389Z</time></trkpt><trkpt lat="45.8762117" lon="11.5816692"><ele>1127.0</ele><time>2026-04-26T12:02:44.387Z</time></trkpt><trkpt lat="45.876208" lon="11.5817888"><ele>1127.0</ele><time>2026-04-26T12:02:45.387Z</time></trkpt><trkpt lat="45.8761819" lon="11.5819137"><ele>1126.4</ele><time>2026-04-26T12:02:46.391Z</time></trkpt><trkpt lat="45.8761294" lon="11.5820503"><ele>1125.8000000000002</ele><time>2026-04-26T12:02:47.391Z</time></trkpt><trkpt lat="45.8760669" lon="11.5822054"><ele>1125.2</ele><time>2026-04-26T12:02:48.391Z</time></trkpt><trkpt lat="45.8760216" lon="11.5823424"><ele>1124.6000000000001</ele><time>2026-04-26T12:02:49.39Z</time></trkpt><trkpt lat="45.8759981" lon="11.5824758"><ele>1124.0</ele><time>2026-04-26T12:02:50.391Z</time></trkpt><trkpt lat="45.8759994" lon="11.5826184"><ele>1126.4</ele><time>2026-04-26T12:02:51.391Z</time></trkpt><trkpt lat="45.8760028" lon="11.5828781"><ele>1128.8000000000002</ele><time>2026-04-26T12:02:53.391Z</time></trkpt><trkpt lat="45.876027" lon="11.5829842"><ele>1131.1999999999998</ele><time>2026-04-26T12:02:54.39Z</time></trkpt><trkpt lat="45.8760737" lon="11.5830611"><ele>1133.6</ele><time>2026-04-26T12:02:55.391Z</time></trkpt><trkpt lat="45.8761384" lon="11.58314"><ele>1136.0</ele><time>2026-04-26T12:02:56.391Z</time></trkpt><trkpt lat="45.8762225" lon="11.5832052"><ele>1136.0</ele><time>2026-04-26T12:02:57.39Z</time></trkpt><trkpt lat="45.8762999" lon="11.5832652"><ele>1136.0</ele><time>2026-04-26T12:02:58.391Z</time></trkpt><trkpt lat="45.87636" lon="11.5833222"><ele>1136.0</ele><time>2026-04-26T12:02:59.39Z</time></trkpt><trkpt lat="45.8764152" lon="11.5833913"><ele>1136.0</ele><time>2026-04-26T12:03:00.389Z</time></trkpt><trkpt lat="45.8764517" lon="11.5834801"><ele>1136.0</ele><time>2026-04-26T12:03:01.39Z</time></trkpt><trkpt lat="45.876479" lon="11.5835692"><ele>1136.0</ele><time>2026-04-26T12:03:02.389Z</time></trkpt><trkpt lat="45.8764967" lon="11.5836595"><ele>1136.0</ele><time>2026-04-26T12:03:03.393Z</time></trkpt><trkpt lat="45.8764937" lon="11.5837552"><ele>1138.3333333333335</ele><time>2026-04-26T12:03:04.393Z</time></trkpt><trkpt lat="45.8764897" lon="11.5838472"><ele>1140.6666666666667</ele><time>2026-04-26T12:03:05.392Z</time></trkpt><trkpt lat="45.8764799" lon="11.5839714"><ele>1143.0</ele><time>2026-04-26T12:03:06.394Z</time></trkpt><trkpt lat="45.8764741" lon="11.5840948"><ele>1145.3333333333333</ele><time>2026-04-26T12:03:07.391Z</time></trkpt><trkpt lat="45.8764664" lon="11.584227"><ele>1147.6666666666665</ele><time>2026-04-26T12:03:08.391Z</time></trkpt><trkpt lat="45.8764561" lon="11.5843519"><ele>1150.0</ele><time>2026-04-26T12:03:09.388Z</time></trkpt><trkpt lat="45.8764533" lon="11.5844697"><ele>1149.6</ele><time>2026-04-26T12:03:10.39Z</time></trkpt><trkpt lat="45.8764336" lon="11.5845846"><ele>1149.2</ele><time>2026-04-26T12:03:11.396Z</time></trkpt><trkpt lat="45.8764014" lon="11.5846963"><ele>1148.8</ele><time>2026-04-26T12:03:12.395Z</time></trkpt><trkpt lat="45.876361" lon="11.5849222"><ele>1148.4</ele><time>2026-04-26T12:03:14.392Z</time></trkpt><trkpt lat="45.8763307" lon="11.5850208"><ele>1148.0</ele><time>2026-04-26T12:03:15.393Z</time></trkpt><trkpt lat="45.8762821" lon="11.5850991"><ele>1148.0</ele><time>2026-04-26T12:03:16.392Z</time></trkpt><trkpt lat="45.8761787" lon="11.5851966"><ele>1148.0</ele><time>2026-04-26T12:03:18.393Z</time></trkpt><trkpt lat="45.876093" lon="11.5852343"><ele>1148.0</ele><time>2026-04-26T12:03:19.392Z</time></trkpt><trkpt lat="45.8759979" lon="11.5852576"><ele>1148.0</ele><time>2026-04-26T12:03:20.39Z</time></trkpt><trkpt lat="45.8759206" lon="11.5852835"><ele>1148.0</ele><time>2026-04-26T12:03:21.393Z</time></trkpt><trkpt lat="45.8758289" lon="11.5854069"><ele>1151.8</ele><time>2026-04-26T12:03:23.394Z</time></trkpt><trkpt lat="45.8758022" lon="11.5854962"><ele>1155.6</ele><time>2026-04-26T12:03:24.394Z</time></trkpt><trkpt lat="45.8758163" lon="11.5856094"><ele>1159.4</ele><time>2026-04-26T12:03:25.393Z</time></trkpt><trkpt lat="45.8758331" lon="11.5857742"><ele>1163.2</ele><time>2026-04-26T12:03:26.392Z</time></trkpt><trkpt lat="45.8758704" lon="11.5859604"><ele>1167.0</ele><time>2026-04-26T12:03:27.391Z</time></trkpt><trkpt lat="45.8759191" lon="11.5861074"><ele>1160.6</ele><time>2026-04-26T12:03:28.391Z</time></trkpt><trkpt lat="45.8759643" lon="11.5862271"><ele>1154.2</ele><time>2026-04-26T12:03:29.39Z</time></trkpt><trkpt lat="45.8759979" lon="11.5863141"><ele>1147.8</ele><time>2026-04-26T12:03:30.391Z</time></trkpt><trkpt lat="45.8760417" lon="11.5864613"><ele>1141.4</ele><time>2026-04-26T12:03:32.39Z</time></trkpt><trkpt lat="45.8760371" lon="11.5865522"><ele>1135.0</ele><time>2026-04-26T12:03:33.39Z</time></trkpt><trkpt lat="45.8759619" lon="11.5867575"><ele>1137.0</ele><time>2026-04-26T12:03:35.392Z</time></trkpt><trkpt lat="45.8759079" lon="11.5868633"><ele>1139.0</ele><time>2026-04-26T12:03:36.394Z</time></trkpt><trkpt lat="45.8758556" lon="11.5869667"><ele>1141.0</ele><time>2026-04-26T12:03:37.392Z</time></trkpt><trkpt lat="45.8758109" lon="11.5871113"><ele>1143.0</ele><time>2026-04-26T12:03:39.392Z</time></trkpt><trkpt lat="45.8758443" lon="11.5872479"><ele>1145.0</ele><time>2026-04-26T12:03:41.393Z</time></trkpt><trkpt lat="45.8759495" lon="11.587374"><ele>1145.0</ele><time>2026-04-26T12:03:43.392Z</time></trkpt><trkpt lat="45.876018" lon="11.5874281"><ele>1145.0</ele><time>2026-04-26T12:03:44.392Z</time></trkpt><trkpt lat="45.8760856" lon="11.5875699"><ele>1145.0</ele><time>2026-04-26T12:03:46.393Z</time></trkpt><trkpt lat="45.8761154" lon="11.5876766"><ele>1145.0</ele><time>2026-04-26T12:03:47.394Z</time></trkpt><trkpt lat="45.8761232" lon="11.587803"><ele>1145.0</ele><time>2026-04-26T12:03:48.394Z</time></trkpt><trkpt lat="45.876124" lon="11.5879556"><ele>1147.2</ele><time>2026-04-26T12:03:49.392Z</time></trkpt><trkpt lat="45.8761302" lon="11.5880958"><ele>1149.4</ele><time>2026-04-26T12:03:50.393Z</time></trkpt><trkpt lat="45.8761477" lon="11.5882237"><ele>1151.6</ele><time>2026-04-26T12:03:51.393Z</time></trkpt><trkpt lat="45.8761598" lon="11.5883479"><ele>1153.8</ele><time>2026-04-26T12:03:52.392Z</time></trkpt><trkpt lat="45.8761654" lon="11.5884787"><ele>1156.0</ele><time>2026-04-26T12:03:53.392Z</time></trkpt><trkpt lat="45.8761698" lon="11.5886284"><ele>1158.75</ele><time>2026-04-26T12:03:54.395Z</time></trkpt><trkpt lat="45.8761812" lon="11.5889241"><ele>1161.5</ele><time>2026-04-26T12:03:56.391Z</time></trkpt><trkpt lat="45.8762064" lon="11.5890629"><ele>1164.25</ele><time>2026-04-26T12:03:57.393Z</time></trkpt><trkpt lat="45.8762273" lon="11.589217"><ele>1167.0</ele><time>2026-04-26T12:03:58.392Z</time></trkpt><trkpt lat="45.8762428" lon="11.5893779"><ele>1168.2</ele><time>2026-04-26T12:03:59.392Z</time></trkpt><trkpt lat="45.8762582" lon="11.5895301"><ele>1169.4</ele><time>2026-04-26T12:04:00.394Z</time></trkpt><trkpt lat="45.876272" lon="11.5896871"><ele>1170.6</ele><time>2026-04-26T12:04:01.394Z</time></trkpt><trkpt lat="45.8762901" lon="11.5898302"><ele>1171.8</ele><time>2026-04-26T12:04:02.393Z</time></trkpt><trkpt lat="45.8763228" lon="11.5899584"><ele>1173.0</ele><time>2026-04-26T12:04:03.393Z</time></trkpt><trkpt lat="45.8763562" lon="11.590094"><ele>1173.0</ele><time>2026-04-26T12:04:04.393Z</time></trkpt><trkpt lat="45.8763791" lon="11.5902342"><ele>1173.0</ele><time>2026-04-26T12:04:05.395Z</time></trkpt><trkpt lat="45.8763949" lon="11.5903575"><ele>1173.0</ele><time>2026-04-26T12:04:06.393Z</time></trkpt><trkpt lat="45.8764213" lon="11.5904633"><ele>1173.0</ele><time>2026-04-26T12:04:07.394Z</time></trkpt><trkpt lat="45.8764441" lon="11.5905818"><ele>1173.0</ele><time>2026-04-26T12:04:08.392Z</time></trkpt><trkpt lat="45.8764568" lon="11.5907073"><ele>1173.0</ele><time>2026-04-26T12:04:09.393Z</time></trkpt><trkpt lat="45.8764524" lon="11.5908513"><ele>1173.8</ele><time>2026-04-26T12:04:10.393Z</time></trkpt><trkpt lat="45.8764471" lon="11.5909828"><ele>1174.6</ele><time>2026-04-26T12:04:11.393Z</time></trkpt><trkpt lat="45.87644" lon="11.5911283"><ele>1175.4</ele><time>2026-04-26T12:04:12.392Z</time></trkpt><trkpt lat="45.8764274" lon="11.5912806"><ele>1176.2</ele><time>2026-04-26T12:04:13.393Z</time></trkpt><trkpt lat="45.8764173" lon="11.5914233"><ele>1177.0</ele><time>2026-04-26T12:04:14.392Z</time></trkpt><trkpt lat="45.8764054" lon="11.5915472"><ele>1177.2</ele><time>2026-04-26T12:04:15.394Z</time></trkpt><trkpt lat="45.8763756" lon="11.591741"><ele>1177.4</ele><time>2026-04-26T12:04:17.394Z</time></trkpt><trkpt lat="45.876352" lon="11.5918396"><ele>1177.6</ele><time>2026-04-26T12:04:18.393Z</time></trkpt><trkpt lat="45.8763192" lon="11.5919394"><ele>1177.8</ele><time>2026-04-26T12:04:19.395Z</time></trkpt><trkpt lat="45.8762806" lon="11.5920335"><ele>1178.0</ele><time>2026-04-26T12:04:20.393Z</time></trkpt><trkpt lat="45.8762248" lon="11.5921339"><ele>1178.0</ele><time>2026-04-26T12:04:21.392Z</time></trkpt><trkpt lat="45.8761653" lon="11.5922369"><ele>1178.0</ele><time>2026-04-26T12:04:22.394Z</time></trkpt><trkpt lat="45.8761045" lon="11.5923327"><ele>1178.0</ele><time>2026-04-26T12:04:23.392Z</time></trkpt><trkpt lat="45.8760461" lon="11.592404"><ele>1178.0</ele><time>2026-04-26T12:04:24.394Z</time></trkpt><trkpt lat="45.8759387" lon="11.592476"><ele>1178.0</ele><time>2026-04-26T12:04:26.397Z</time></trkpt><trkpt lat="45.8758463" lon="11.5924886"><ele>1178.6</ele><time>2026-04-26T12:04:28.394Z</time></trkpt><trkpt lat="45.8757816" lon="11.5924745"><ele>1179.1999999999998</ele><time>2026-04-26T12:04:30.395Z</time></trkpt><trkpt lat="45.8756988" lon="11.5925346"><ele>1179.8</ele><time>2026-04-26T12:04:49.395Z</time></trkpt><trkpt lat="45.8755414" lon="11.5927424"><ele>1180.3999999999999</ele><time>2026-04-26T12:04:53.396Z</time></trkpt><trkpt lat="45.8755184" lon="11.5928288"><ele>1181.0</ele><time>2026-04-26T12:04:54.394Z</time></trkpt><trkpt lat="45.8755112" lon="11.5929305"><ele>1181.0</ele><time>2026-04-26T12:04:55.395Z</time></trkpt><trkpt lat="45.8755123" lon="11.5930451"><ele>1181.0</ele><time>2026-04-26T12:04:56.395Z</time></trkpt><trkpt lat="45.8755108" lon="11.5931502"><ele>1181.0</ele><time>2026-04-26T12:04:57.397Z</time></trkpt><trkpt lat="45.8754962" lon="11.5932386"><ele>1181.0</ele><time>2026-04-26T12:04:58.394Z</time></trkpt><trkpt lat="45.875429" lon="11.5933492"><ele>1181.0</ele><time>2026-04-26T12:05:00.394Z</time></trkpt><trkpt lat="45.8753283" lon="11.5933914"><ele>1181.0</ele><time>2026-04-26T12:05:02.394Z</time></trkpt><trkpt lat="45.8751918" lon="11.5933911"><ele>1181.0</ele><time>2026-04-26T12:05:04.394Z</time></trkpt><trkpt lat="45.8751067" lon="11.5933857"><ele>1181.0</ele><time>2026-04-26T12:05:05.396Z</time></trkpt><trkpt lat="45.8750265" lon="11.5933624"><ele>1181.0</ele><time>2026-04-26T12:05:06.395Z</time></trkpt><trkpt lat="45.874951" lon="11.5933272"><ele>1181.0</ele><time>2026-04-26T12:05:07.395Z</time></trkpt><trkpt lat="45.874885" lon="11.5932933"><ele>1181.0</ele><time>2026-04-26T12:05:08.396Z</time></trkpt><trkpt lat="45.8748263" lon="11.59326"><ele>1181.0</ele><time>2026-04-26T12:05:09.391Z</time></trkpt><trkpt lat="45.8747162" lon="11.5931978"><ele>1179.8333333333335</ele><time>2026-04-26T12:05:11.393Z</time></trkpt><trkpt lat="45.8745715" lon="11.5931391"><ele>1178.6666666666667</ele><time>2026-04-26T12:05:13.395Z</time></trkpt><trkpt lat="45.8745007" lon="11.593108"><ele>1177.5</ele><time>2026-04-26T12:05:14.395Z</time></trkpt><trkpt lat="45.8744277" lon="11.5930865"><ele>1176.3333333333333</ele><time>2026-04-26T12:05:15.4Z</time></trkpt><trkpt lat="45.8743521" lon="11.5930754"><ele>1175.1666666666665</ele><time>2026-04-26T12:05:16.395Z</time></trkpt><trkpt lat="45.8742807" lon="11.5930759"><ele>1174.0</ele><time>2026-04-26T12:05:17.398Z</time></trkpt><trkpt lat="45.8742137" lon="11.5930857"><ele>1173.8</ele><time>2026-04-26T12:05:18.398Z</time></trkpt><trkpt lat="45.8740933" lon="11.5931151"><ele>1173.6000000000001</ele><time>2026-04-26T12:05:20.396Z</time></trkpt><trkpt lat="45.8739816" lon="11.5930946"><ele>1173.4</ele><time>2026-04-26T12:05:22.397Z</time></trkpt><trkpt lat="45.8739165" lon="11.5930505"><ele>1173.2</ele><time>2026-04-26T12:05:23.394Z</time></trkpt><trkpt lat="45.8738557" lon="11.5929921"><ele>1173.0</ele><time>2026-04-26T12:05:24.395Z</time></trkpt><trkpt lat="45.873801" lon="11.592925"><ele>1173.0</ele><time>2026-04-26T12:05:25.395Z</time></trkpt><trkpt lat="45.8737599" lon="11.592851"><ele>1173.0</ele><time>2026-04-26T12:05:26.394Z</time></trkpt><trkpt lat="45.8737318" lon="11.5927668"><ele>1173.0</ele><time>2026-04-26T12:05:27.394Z</time></trkpt><trkpt lat="45.8737166" lon="11.5926785"><ele>1173.0</ele><time>2026-04-26T12:05:28.396Z</time></trkpt><trkpt lat="45.8736725" lon="11.5925201"><ele>1173.0</ele><time>2026-04-26T12:05:30.396Z</time></trkpt><trkpt lat="45.8735707" lon="11.5924136"><ele>1173.0</ele><time>2026-04-26T12:05:32.397Z</time></trkpt><trkpt lat="45.8733912" lon="11.5923579"><ele>1171.0</ele><time>2026-04-26T12:05:34.394Z</time></trkpt><trkpt lat="45.8732949" lon="11.592334"><ele>1169.0</ele><time>2026-04-26T12:05:35.392Z</time></trkpt><trkpt lat="45.873195" lon="11.592321"><ele>1167.0</ele><time>2026-04-26T12:05:36.394Z</time></trkpt><trkpt lat="45.8731017" lon="11.5923099"><ele>1165.0</ele><time>2026-04-26T12:05:37.397Z</time></trkpt><trkpt lat="45.8730102" lon="11.5923093"><ele>1163.0</ele><time>2026-04-26T12:05:38.398Z</time></trkpt><trkpt lat="45.8729338" lon="11.5923245"><ele>1163.0</ele><time>2026-04-26T12:05:39.199Z</time></trkpt><trkpt lat="45.87282" lon="11.5923892"><ele>1163.0</ele><time>2026-04-26T12:05:40.396Z</time></trkpt><trkpt lat="45.8727345" lon="11.5924623"><ele>1163.0</ele><time>2026-04-26T12:05:41.396Z</time></trkpt><trkpt lat="45.8726551" lon="11.5925299"><ele>1163.0</ele><time>2026-04-26T12:05:42.397Z</time></trkpt><trkpt lat="45.8725789" lon="11.5925807"><ele>1163.0</ele><time>2026-04-26T12:05:43.396Z</time></trkpt><trkpt lat="45.8724991" lon="11.5926038"><ele>1163.0</ele><time>2026-04-26T12:05:44.396Z</time></trkpt><trkpt lat="45.87241" lon="11.5926081"><ele>1163.0</ele><time>2026-04-26T12:05:45.396Z</time></trkpt><trkpt lat="45.8723188" lon="11.5925927"><ele>1163.0</ele><time>2026-04-26T12:05:46.396Z</time></trkpt><trkpt lat="45.8722217" lon="11.5925492"><ele>1163.0</ele><time>2026-04-26T12:05:47.397Z</time></trkpt><trkpt lat="45.8721349" lon="11.5924906"><ele>1163.0</ele><time>2026-04-26T12:05:48.395Z</time></trkpt><trkpt lat="45.8720538" lon="11.5924185"><ele>1163.0</ele><time>2026-04-26T12:05:49.395Z</time></trkpt><trkpt lat="45.8719769" lon="11.5923268"><ele>1163.0</ele><time>2026-04-26T12:05:50.395Z</time></trkpt><trkpt lat="45.8719152" lon="11.5922119"><ele>1163.0</ele><time>2026-04-26T12:05:51.394Z</time></trkpt><trkpt lat="45.8718588" lon="11.5920738"><ele>1163.0</ele><time>2026-04-26T12:05:52.393Z</time></trkpt><trkpt lat="45.8717975" lon="11.5919244"><ele>1163.0</ele><time>2026-04-26T12:05:53.397Z</time></trkpt><trkpt lat="45.8716414" lon="11.5916888"><ele>1161.75</ele><time>2026-04-26T12:05:55.398Z</time></trkpt><trkpt lat="45.87154" lon="11.591582"><ele>1160.5</ele><time>2026-04-26T12:05:56.398Z</time></trkpt><trkpt lat="45.8714448" lon="11.5914779"><ele>1159.25</ele><time>2026-04-26T12:05:57.394Z</time></trkpt><trkpt lat="45.871354" lon="11.591372"><ele>1158.0</ele><time>2026-04-26T12:05:58.395Z</time></trkpt><trkpt lat="45.8712612" lon="11.5912568"><ele>1160.25</ele><time>2026-04-26T12:05:59.393Z</time></trkpt><trkpt lat="45.8711681" lon="11.5911362"><ele>1162.5</ele><time>2026-04-26T12:06:00.393Z</time></trkpt><trkpt lat="45.8710932" lon="11.5910383"><ele>1164.75</ele><time>2026-04-26T12:06:01.196Z</time></trkpt><trkpt lat="45.8709902" lon="11.590902"><ele>1167.0</ele><time>2026-04-26T12:06:02.394Z</time></trkpt><trkpt lat="45.8709148" lon="11.5907955"><ele>1163.4</ele><time>2026-04-26T12:06:03.397Z</time></trkpt><trkpt lat="45.8708473" lon="11.5906999"><ele>1159.8000000000002</ele><time>2026-04-26T12:06:04.396Z</time></trkpt><trkpt lat="45.870777" lon="11.5906133"><ele>1156.2</ele><time>2026-04-26T12:06:05.396Z</time></trkpt><trkpt lat="45.8706989" lon="11.5905386"><ele>1152.6000000000001</ele><time>2026-04-26T12:06:06.398Z</time></trkpt><trkpt lat="45.8706117" lon="11.5904879"><ele>1149.0</ele><time>2026-04-26T12:06:07.397Z</time></trkpt><trkpt lat="45.8705074" lon="11.5904594"><ele>1149.0</ele><time>2026-04-26T12:06:08.394Z</time></trkpt><trkpt lat="45.8703936" lon="11.5904573"><ele>1149.0</ele><time>2026-04-26T12:06:09.396Z</time></trkpt><trkpt lat="45.8702689" lon="11.5904825"><ele>1149.0</ele><time>2026-04-26T12:06:10.395Z</time></trkpt><trkpt lat="45.8701514" lon="11.590524"><ele>1149.0</ele><time>2026-04-26T12:06:11.396Z</time></trkpt><trkpt lat="45.8700482" lon="11.590573"><ele>1149.0</ele><time>2026-04-26T12:06:12.396Z</time></trkpt><trkpt lat="45.8699589" lon="11.5906209"><ele>1149.0</ele><time>2026-04-26T12:06:13.397Z</time></trkpt><trkpt lat="45.8698782" lon="11.590657"><ele>1149.0</ele><time>2026-04-26T12:06:14.395Z</time></trkpt><trkpt lat="45.869708" lon="11.5906828"><ele>1149.0</ele><time>2026-04-26T12:06:16.396Z</time></trkpt><trkpt lat="45.8696121" lon="11.5906832"><ele>1149.0</ele><time>2026-04-26T12:06:17.399Z</time></trkpt><trkpt lat="45.8695101" lon="11.5906756"><ele>1149.0</ele><time>2026-04-26T12:06:18.396Z</time></trkpt><trkpt lat="45.8694024" lon="11.5906618"><ele>1149.0</ele><time>2026-04-26T12:06:19.394Z</time></trkpt><trkpt lat="45.8692963" lon="11.5906396"><ele>1149.0</ele><time>2026-04-26T12:06:20.395Z</time></trkpt><trkpt lat="45.8691983" lon="11.5906136"><ele>1149.0</ele><time>2026-04-26T12:06:21.395Z</time></trkpt><trkpt lat="45.8691097" lon="11.5905781"><ele>1149.0</ele><time>2026-04-26T12:06:22.394Z</time></trkpt><trkpt lat="45.8690297" lon="11.590531"><ele>1149.2</ele><time>2026-04-26T12:06:23.392Z</time></trkpt><trkpt lat="45.8689524" lon="11.5904606"><ele>1149.4</ele><time>2026-04-26T12:06:24.393Z</time></trkpt><trkpt lat="45.8688758" lon="11.5903636"><ele>1149.6</ele><time>2026-04-26T12:06:25.392Z</time></trkpt><trkpt lat="45.8687968" lon="11.590249"><ele>1149.8</ele><time>2026-04-26T12:06:26.393Z</time></trkpt><trkpt lat="45.8687207" lon="11.5901347"><ele>1150.0</ele><time>2026-04-26T12:06:27.394Z</time></trkpt><trkpt lat="45.868654" lon="11.5900302"><ele>1149.6</ele><time>2026-04-26T12:06:28.393Z</time></trkpt><trkpt lat="45.8685964" lon="11.5899321"><ele>1149.2</ele><time>2026-04-26T12:06:29.394Z</time></trkpt><trkpt lat="45.8685439" lon="11.589829"><ele>1148.8</ele><time>2026-04-26T12:06:30.394Z</time></trkpt><trkpt lat="45.8684894" lon="11.5897109"><ele>1148.4</ele><time>2026-04-26T12:06:31.394Z</time></trkpt><trkpt lat="45.8684363" lon="11.5895703"><ele>1148.0</ele><time>2026-04-26T12:06:32.394Z</time></trkpt><trkpt lat="45.8683806" lon="11.589417"><ele>1150.0</ele><time>2026-04-26T12:06:33.393Z</time></trkpt><trkpt lat="45.8683217" lon="11.5892711"><ele>1152.0</ele><time>2026-04-26T12:06:34.395Z</time></trkpt><trkpt lat="45.8682583" lon="11.5891327"><ele>1154.0</ele><time>2026-04-26T12:06:35.393Z</time></trkpt><trkpt lat="45.8681222" lon="11.5889224"><ele>1156.0</ele><time>2026-04-26T12:06:37.392Z</time></trkpt><trkpt lat="45.8680489" lon="11.588854"><ele>1156.0</ele><time>2026-04-26T12:06:38.393Z</time></trkpt><trkpt lat="45.8679537" lon="11.5887968"><ele>1156.0</ele><time>2026-04-26T12:06:39.393Z</time></trkpt><trkpt lat="45.8678401" lon="11.5887425"><ele>1156.0</ele><time>2026-04-26T12:06:40.391Z</time></trkpt><trkpt lat="45.8677402" lon="11.5886888"><ele>1156.0</ele><time>2026-04-26T12:06:41.395Z</time></trkpt><trkpt lat="45.8676443" lon="11.588646"><ele>1156.0</ele><time>2026-04-26T12:06:42.395Z</time></trkpt><trkpt lat="45.867538" lon="11.5886141"><ele>1158.0</ele><time>2026-04-26T12:06:43.392Z</time></trkpt><trkpt lat="45.8674263" lon="11.5885861"><ele>1160.0</ele><time>2026-04-26T12:06:44.393Z</time></trkpt><trkpt lat="45.8673253" lon="11.5885618"><ele>1162.0</ele><time>2026-04-26T12:06:45.394Z</time></trkpt><trkpt lat="45.8672207" lon="11.5885364"><ele>1164.0</ele><time>2026-04-26T12:06:46.395Z</time></trkpt><trkpt lat="45.8671119" lon="11.5884953"><ele>1166.0</ele><time>2026-04-26T12:06:47.393Z</time></trkpt><trkpt lat="45.8670092" lon="11.5884533"><ele>1166.0</ele><time>2026-04-26T12:06:48.393Z</time></trkpt><trkpt lat="45.86691" lon="11.5884111"><ele>1166.0</ele><time>2026-04-26T12:06:49.394Z</time></trkpt><trkpt lat="45.8668012" lon="11.5883735"><ele>1166.0</ele><time>2026-04-26T12:06:50.394Z</time></trkpt><trkpt lat="45.8666848" lon="11.5883383"><ele>1166.0</ele><time>2026-04-26T12:06:51.395Z</time></trkpt><trkpt lat="45.866577" lon="11.5883182"><ele>1166.0</ele><time>2026-04-26T12:06:52.395Z</time></trkpt><trkpt lat="45.8664773" lon="11.5883157"><ele>1162.3999999999999</ele><time>2026-04-26T12:06:53.393Z</time></trkpt><trkpt lat="45.8663809" lon="11.5883107"><ele>1158.8</ele><time>2026-04-26T12:06:54.394Z</time></trkpt><trkpt lat="45.8662975" lon="11.5883119"><ele>1155.1999999999998</ele><time>2026-04-26T12:06:55.394Z</time></trkpt><trkpt lat="45.8662209" lon="11.5883334"><ele>1151.6</ele><time>2026-04-26T12:06:56.394Z</time></trkpt><trkpt lat="45.8660716" lon="11.588452"><ele>1148.0</ele><time>2026-04-26T12:06:58.395Z</time></trkpt><trkpt lat="45.8660091" lon="11.5885289"><ele>1148.0</ele><time>2026-04-26T12:06:59.398Z</time></trkpt><trkpt lat="45.8659538" lon="11.5885918"><ele>1148.0</ele><time>2026-04-26T12:07:00.4Z</time></trkpt><trkpt lat="45.8658932" lon="11.5886512"><ele>1148.0</ele><time>2026-04-26T12:07:01.393Z</time></trkpt><trkpt lat="45.8658214" lon="11.5887017"><ele>1148.0</ele><time>2026-04-26T12:07:02.395Z</time></trkpt><trkpt lat="45.8657411" lon="11.5887373"><ele>1148.0</ele><time>2026-04-26T12:07:03.396Z</time></trkpt><trkpt lat="45.8656481" lon="11.5887628"><ele>1148.0</ele><time>2026-04-26T12:07:04.396Z</time></trkpt><trkpt lat="45.865551" lon="11.5887898"><ele>1146.1666666666667</ele><time>2026-04-26T12:07:05.395Z</time></trkpt><trkpt lat="45.8654631" lon="11.5888085"><ele>1144.3333333333335</ele><time>2026-04-26T12:07:06.395Z</time></trkpt><trkpt lat="45.8653837" lon="11.5888142"><ele>1142.5</ele><time>2026-04-26T12:07:07.397Z</time></trkpt><trkpt lat="45.8653116" lon="11.5888097"><ele>1140.6666666666667</ele><time>2026-04-26T12:07:08.396Z</time></trkpt><trkpt lat="45.8652383" lon="11.5887879"><ele>1138.8333333333333</ele><time>2026-04-26T12:07:09.399Z</time></trkpt><trkpt lat="45.8651628" lon="11.5887571"><ele>1137.0</ele><time>2026-04-26T12:07:10.397Z</time></trkpt><trkpt lat="45.8650886" lon="11.5887185"><ele>1137.0</ele><time>2026-04-26T12:07:11.395Z</time></trkpt><trkpt lat="45.8650193" lon="11.5886819"><ele>1137.0</ele><time>2026-04-26T12:07:12.397Z</time></trkpt><trkpt lat="45.8649428" lon="11.588661"><ele>1137.0</ele><time>2026-04-26T12:07:13.393Z</time></trkpt><trkpt lat="45.864873" lon="11.5886649"><ele>1137.0</ele><time>2026-04-26T12:07:14.394Z</time></trkpt><trkpt lat="45.8647574" lon="11.5887"><ele>1137.0</ele><time>2026-04-26T12:07:16.397Z</time></trkpt><trkpt lat="45.864632" lon="11.5886903"><ele>1137.75</ele><time>2026-04-26T12:07:18.395Z</time></trkpt><trkpt lat="45.8644824" lon="11.5885542"><ele>1138.5</ele><time>2026-04-26T12:07:20.394Z</time></trkpt><trkpt lat="45.8643896" lon="11.5884606"><ele>1139.25</ele><time>2026-04-26T12:07:21.394Z</time></trkpt><trkpt lat="45.8642908" lon="11.5883688"><ele>1140.0</ele><time>2026-04-26T12:07:22.394Z</time></trkpt><trkpt lat="45.864195" lon="11.5882893"><ele>1140.0</ele><time>2026-04-26T12:07:23.396Z</time></trkpt><trkpt lat="45.8640952" lon="11.5882264"><ele>1140.0</ele><time>2026-04-26T12:07:24.394Z</time></trkpt><trkpt lat="45.8639909" lon="11.5881858"><ele>1140.0</ele><time>2026-04-26T12:07:25.394Z</time></trkpt><trkpt lat="45.863883" lon="11.5881609"><ele>1140.0</ele><time>2026-04-26T12:07:26.395Z</time></trkpt><trkpt lat="45.8637828" lon="11.5881344"><ele>1140.0</ele><time>2026-04-26T12:07:27.393Z</time></trkpt><trkpt lat="45.8636884" lon="11.5881097"><ele>1140.0</ele><time>2026-04-26T12:07:28.395Z</time></trkpt><trkpt lat="45.8635967" lon="11.5880839"><ele>1140.0</ele><time>2026-04-26T12:07:29.396Z</time></trkpt><trkpt lat="45.8635102" lon="11.5880497"><ele>1140.0</ele><time>2026-04-26T12:07:30.394Z</time></trkpt><trkpt lat="45.8634208" lon="11.5880002"><ele>1140.0</ele><time>2026-04-26T12:07:31.396Z</time></trkpt><trkpt lat="45.8633307" lon="11.5879358"><ele>1140.0</ele><time>2026-04-26T12:07:32.394Z</time></trkpt><trkpt lat="45.863255" lon="11.58786"><ele>1142.4</ele><time>2026-04-26T12:07:33.393Z</time></trkpt><trkpt lat="45.8631779" lon="11.5877701"><ele>1144.8</ele><time>2026-04-26T12:07:34.395Z</time></trkpt><trkpt lat="45.8630991" lon="11.5876659"><ele>1147.2</ele><time>2026-04-26T12:07:35.393Z</time></trkpt><trkpt lat="45.8630157" lon="11.5875696"><ele>1149.6</ele><time>2026-04-26T12:07:36.393Z</time></trkpt><trkpt lat="45.8629384" lon="11.587483"><ele>1152.0</ele><time>2026-04-26T12:07:37.394Z</time></trkpt><trkpt lat="45.8628795" lon="11.587417"><ele>1152.0</ele><time>2026-04-26T12:07:38.392Z</time></trkpt><trkpt lat="45.8627854" lon="11.5873341"><ele>1152.0</ele><time>2026-04-26T12:07:40.393Z</time></trkpt><trkpt lat="45.862617" lon="11.5872466"><ele>1152.0</ele><time>2026-04-26T12:07:43.395Z</time></trkpt><trkpt lat="45.8625536" lon="11.5872186"><ele>1152.0</ele><time>2026-04-26T12:07:44.393Z</time></trkpt><trkpt lat="45.8624466" lon="11.5871523"><ele>1151.5</ele><time>2026-04-26T12:07:46.392Z</time></trkpt><trkpt lat="45.8623907" lon="11.5870946"><ele>1151.0</ele><time>2026-04-26T12:07:47.393Z</time></trkpt><trkpt lat="45.8623315" lon="11.5870192"><ele>1150.5</ele><time>2026-04-26T12:07:48.394Z</time></trkpt><trkpt lat="45.8622706" lon="11.5869549"><ele>1150.0</ele><time>2026-04-26T12:07:49.395Z</time></trkpt><trkpt lat="45.8621402" lon="11.5868313"><ele>1149.5</ele><time>2026-04-26T12:07:51.395Z</time></trkpt><trkpt lat="45.8620924" lon="11.5867719"><ele>1149.0</ele><time>2026-04-26T12:07:52.395Z</time></trkpt><trkpt lat="45.862029" lon="11.5866752"><ele>1149.0</ele><time>2026-04-26T12:07:54.393Z</time></trkpt><trkpt lat="45.8619947" lon="11.5865524"><ele>1149.0</ele><time>2026-04-26T12:07:56.394Z</time></trkpt><trkpt lat="45.8619845" lon="11.5864216"><ele>1149.0</ele><time>2026-04-26T12:07:58.395Z</time></trkpt><trkpt lat="45.8619978" lon="11.5862605"><ele>1149.0</ele><time>2026-04-26T12:08:00.394Z</time></trkpt><trkpt lat="45.8620154" lon="11.5861641"><ele>1149.0</ele><time>2026-04-26T12:08:01.392Z</time></trkpt><trkpt lat="45.8620594" lon="11.585958"><ele>1149.0</ele><time>2026-04-26T12:08:03.393Z</time></trkpt><trkpt lat="45.8620683" lon="11.5858599"><ele>1149.0</ele><time>2026-04-26T12:08:04.393Z</time></trkpt><trkpt lat="45.8620736" lon="11.5857582"><ele>1149.0</ele><time>2026-04-26T12:08:05.395Z</time></trkpt><trkpt lat="45.8620728" lon="11.5856448"><ele>1149.0</ele><time>2026-04-26T12:08:06.395Z</time></trkpt><trkpt lat="45.8620758" lon="11.5855147"><ele>1149.0</ele><time>2026-04-26T12:08:07.396Z</time></trkpt><trkpt lat="45.8620771" lon="11.5853798"><ele>1149.0</ele><time>2026-04-26T12:08:08.394Z</time></trkpt><trkpt lat="45.862073" lon="11.5852601"><ele>1149.0</ele><time>2026-04-26T12:08:09.396Z</time></trkpt><trkpt lat="45.862069" lon="11.5851202"><ele>1149.0</ele><time>2026-04-26T12:08:11.396Z</time></trkpt><trkpt lat="45.8620731" lon="11.5850135"><ele>1149.0</ele><time>2026-04-26T12:08:48.396Z</time></trkpt><trkpt lat="45.8621957" lon="11.5848687"><ele>1149.0</ele><time>2026-04-26T12:08:51.395Z</time></trkpt><trkpt lat="45.8622654" lon="11.5848024"><ele>1149.0</ele><time>2026-04-26T12:08:52.393Z</time></trkpt><trkpt lat="45.862337" lon="11.5847311"><ele>1149.0</ele><time>2026-04-26T12:08:53.395Z</time></trkpt><trkpt lat="45.8623948" lon="11.5846575"><ele>1149.0</ele><time>2026-04-26T12:08:54.397Z</time></trkpt><trkpt lat="45.8624321" lon="11.5845678"><ele>1149.0</ele><time>2026-04-26T12:08:55.397Z</time></trkpt><trkpt lat="45.8624538" lon="11.5844599"><ele>1149.0</ele><time>2026-04-26T12:08:56.398Z</time></trkpt><trkpt lat="45.8624777" lon="11.5843529"><ele>1149.0</ele><time>2026-04-26T12:08:57.395Z</time></trkpt><trkpt lat="45.8625122" lon="11.5842634"><ele>1149.0</ele><time>2026-04-26T12:08:58.395Z</time></trkpt><trkpt lat="45.8625638" lon="11.584175"><ele>1148.5</ele><time>2026-04-26T12:08:59.396Z</time></trkpt><trkpt lat="45.8626132" lon="11.5840826"><ele>1148.0</ele><time>2026-04-26T12:09:00.396Z</time></trkpt><trkpt lat="45.8626389" lon="11.5839913"><ele>1147.5</ele><time>2026-04-26T12:09:01.397Z</time></trkpt><trkpt lat="45.8626463" lon="11.5838954"><ele>1147.0</ele><time>2026-04-26T12:09:02.396Z</time></trkpt><trkpt lat="45.8626358" lon="11.5837883"><ele>1146.5</ele><time>2026-04-26T12:09:03.398Z</time></trkpt><trkpt lat="45.8626029" lon="11.5836819"><ele>1146.0</ele><time>2026-04-26T12:09:04.393Z</time></trkpt><trkpt lat="45.8625585" lon="11.5835719"><ele>1146.0</ele><time>2026-04-26T12:09:05.397Z</time></trkpt><trkpt lat="45.8625145" lon="11.5834629"><ele>1146.0</ele><time>2026-04-26T12:09:06.395Z</time></trkpt><trkpt lat="45.8624748" lon="11.5833596"><ele>1146.0</ele><time>2026-04-26T12:09:07.396Z</time></trkpt><trkpt lat="45.8624431" lon="11.5832638"><ele>1146.0</ele><time>2026-04-26T12:09:08.395Z</time></trkpt><trkpt lat="45.862425" lon="11.5831734"><ele>1146.0</ele><time>2026-04-26T12:09:09.395Z</time></trkpt><trkpt lat="45.862419" lon="11.5830812"><ele>1146.0</ele><time>2026-04-26T12:09:10.397Z</time></trkpt><trkpt lat="45.8624739" lon="11.5828769"><ele>1145.8333333333333</ele><time>2026-04-26T12:09:12.396Z</time></trkpt><trkpt lat="45.8625165" lon="11.5827769"><ele>1145.6666666666667</ele><time>2026-04-26T12:09:13.396Z</time></trkpt><trkpt lat="45.8625403" lon="11.5826776"><ele>1145.5</ele><time>2026-04-26T12:09:14.395Z</time></trkpt><trkpt lat="45.8625485" lon="11.5825665"><ele>1145.3333333333335</ele><time>2026-04-26T12:09:15.394Z</time></trkpt><trkpt lat="45.8625451" lon="11.5824406"><ele>1145.1666666666667</ele><time>2026-04-26T12:09:16.395Z</time></trkpt><trkpt lat="45.8625402" lon="11.5823193"><ele>1145.0</ele><time>2026-04-26T12:09:17.392Z</time></trkpt><trkpt lat="45.8625443" lon="11.5821974"><ele>1145.0</ele><time>2026-04-26T12:09:18.395Z</time></trkpt><trkpt lat="45.862563" lon="11.5820678"><ele>1145.0</ele><time>2026-04-26T12:09:19.396Z</time></trkpt><trkpt lat="45.8625924" lon="11.5819515"><ele>1145.0</ele><time>2026-04-26T12:09:20.395Z</time></trkpt><trkpt lat="45.8626335" lon="11.5818519"><ele>1145.0</ele><time>2026-04-26T12:09:21.398Z</time></trkpt><trkpt lat="45.8626749" lon="11.5817478"><ele>1145.0</ele><time>2026-04-26T12:09:22.397Z</time></trkpt><trkpt lat="45.8627057" lon="11.5816382"><ele>1145.0</ele><time>2026-04-26T12:09:23.398Z</time></trkpt><trkpt lat="45.8627307" lon="11.5815283"><ele>1148.3333333333335</ele><time>2026-04-26T12:09:24.398Z</time></trkpt><trkpt lat="45.8627597" lon="11.5814372"><ele>1151.6666666666667</ele><time>2026-04-26T12:09:25.396Z</time></trkpt><trkpt lat="45.8628022" lon="11.5813603"><ele>1155.0</ele><time>2026-04-26T12:09:26.401Z</time></trkpt><trkpt lat="45.8628624" lon="11.5812924"><ele>1158.3333333333333</ele><time>2026-04-26T12:09:27.398Z</time></trkpt><trkpt lat="45.8629308" lon="11.5812366"><ele>1161.6666666666665</ele><time>2026-04-26T12:09:28.396Z</time></trkpt><trkpt lat="45.8630214" lon="11.5811089"><ele>1165.0</ele><time>2026-04-26T12:09:30.397Z</time></trkpt><trkpt lat="45.8630442" lon="11.5810056"><ele>1165.0</ele><time>2026-04-26T12:09:31.396Z</time></trkpt><trkpt lat="45.8630763" lon="11.5807346"><ele>1165.0</ele><time>2026-04-26T12:09:33.397Z</time></trkpt><trkpt lat="45.8631022" lon="11.5805805"><ele>1165.0</ele><time>2026-04-26T12:09:34.397Z</time></trkpt><trkpt lat="45.8631341" lon="11.5804193"><ele>1165.0</ele><time>2026-04-26T12:09:35.395Z</time></trkpt><trkpt lat="45.8631702" lon="11.5802684"><ele>1164.2</ele><time>2026-04-26T12:09:36.396Z</time></trkpt><trkpt lat="45.8632014" lon="11.580132"><ele>1163.4</ele><time>2026-04-26T12:09:37.398Z</time></trkpt><trkpt lat="45.8632251" lon="11.580008"><ele>1162.6</ele><time>2026-04-26T12:09:38.396Z</time></trkpt><trkpt lat="45.8632357" lon="11.5798887"><ele>1161.8</ele><time>2026-04-26T12:09:39.395Z</time></trkpt><trkpt lat="45.8632234" lon="11.5797648"><ele>1161.0</ele><time>2026-04-26T12:09:40.394Z</time></trkpt><trkpt lat="45.8631915" lon="11.579632"><ele>1161.6666666666667</ele><time>2026-04-26T12:09:41.392Z</time></trkpt><trkpt lat="45.863162" lon="11.579492"><ele>1162.3333333333333</ele><time>2026-04-26T12:09:42.393Z</time></trkpt><trkpt lat="45.8631406" lon="11.579362"><ele>1163.0</ele><time>2026-04-26T12:09:43.395Z</time></trkpt><trkpt lat="45.8631296" lon="11.5792338"><ele>1163.6666666666665</ele><time>2026-04-26T12:09:44.397Z</time></trkpt><trkpt lat="45.8631331" lon="11.5791126"><ele>1164.3333333333333</ele><time>2026-04-26T12:09:45.398Z</time></trkpt><trkpt lat="45.8631475" lon="11.5790059"><ele>1165.0</ele><time>2026-04-26T12:09:46.395Z</time></trkpt><trkpt lat="45.8631763" lon="11.5789125"><ele>1165.0</ele><time>2026-04-26T12:09:47.397Z</time></trkpt><trkpt lat="45.8632185" lon="11.5788207"><ele>1165.0</ele><time>2026-04-26T12:09:48.398Z</time></trkpt><trkpt lat="45.8632581" lon="11.5787407"><ele>1165.0</ele><time>2026-04-26T12:09:49.396Z</time></trkpt><trkpt lat="45.8633014" lon="11.5785927"><ele>1165.0</ele><time>2026-04-26T12:09:51.395Z</time></trkpt><trkpt lat="45.8632974" lon="11.5784666"><ele>1165.0</ele><time>2026-04-26T12:09:53.396Z</time></trkpt><trkpt lat="45.863103" lon="11.5783761"><ele>1166.0</ele><time>2026-04-26T12:09:57.396Z</time></trkpt><trkpt lat="45.8630248" lon="11.5784066"><ele>1167.0</ele><time>2026-04-26T12:09:58.396Z</time></trkpt><trkpt lat="45.862938" lon="11.5784354"><ele>1168.0</ele><time>2026-04-26T12:09:59.397Z</time></trkpt><trkpt lat="45.862849" lon="11.5784624"><ele>1169.0</ele><time>2026-04-26T12:10:00.395Z</time></trkpt><trkpt lat="45.8627575" lon="11.5784865"><ele>1170.0</ele><time>2026-04-26T12:10:01.395Z</time></trkpt><trkpt lat="45.8626619" lon="11.5785135"><ele>1169.0</ele><time>2026-04-26T12:10:02.396Z</time></trkpt><trkpt lat="45.862565" lon="11.5785441"><ele>1168.0</ele><time>2026-04-26T12:10:03.396Z</time></trkpt><trkpt lat="45.8624831" lon="11.578564"><ele>1167.0</ele><time>2026-04-26T12:10:04.394Z</time></trkpt><trkpt lat="45.8624167" lon="11.5785809"><ele>1166.0</ele><time>2026-04-26T12:10:05.393Z</time></trkpt><trkpt lat="45.8623595" lon="11.5786235"><ele>1165.0</ele><time>2026-04-26T12:10:06.394Z</time></trkpt><trkpt lat="45.8623137" lon="11.5786988"><ele>1164.0</ele><time>2026-04-26T12:10:07.396Z</time></trkpt><trkpt lat="45.8622766" lon="11.5788039"><ele>1162.5</ele><time>2026-04-26T12:10:08.396Z</time></trkpt><trkpt lat="45.8622342" lon="11.5789063"><ele>1161.0</ele><time>2026-04-26T12:10:09.395Z</time></trkpt><trkpt lat="45.8621816" lon="11.5790077"><ele>1159.5</ele><time>2026-04-26T12:10:10.395Z</time></trkpt><trkpt lat="45.8621204" lon="11.5791059"><ele>1158.0</ele><time>2026-04-26T12:10:11.395Z</time></trkpt><trkpt lat="45.862052" lon="11.5791864"><ele>1156.5</ele><time>2026-04-26T12:10:12.396Z</time></trkpt><trkpt lat="45.861971" lon="11.579253"><ele>1155.0</ele><time>2026-04-26T12:10:13.395Z</time></trkpt><trkpt lat="45.8618815" lon="11.5792984"><ele>1156.0</ele><time>2026-04-26T12:10:14.395Z</time></trkpt><trkpt lat="45.8617237" lon="11.5793224"><ele>1157.0</ele><time>2026-04-26T12:10:16.396Z</time></trkpt><trkpt lat="45.861652" lon="11.5793384"><ele>1158.0</ele><time>2026-04-26T12:10:17.398Z</time></trkpt><trkpt lat="45.8615485" lon="11.5794101"><ele>1159.0</ele><time>2026-04-26T12:10:19.401Z</time></trkpt><trkpt lat="45.8615184" lon="11.5794926"><ele>1160.0</ele><time>2026-04-26T12:10:20.397Z</time></trkpt><trkpt lat="45.8615101" lon="11.5795857"><ele>1160.0</ele><time>2026-04-26T12:10:21.398Z</time></trkpt><trkpt lat="45.8615348" lon="11.5797179"><ele>1160.0</ele><time>2026-04-26T12:10:23.398Z</time></trkpt><trkpt lat="45.8615542" lon="11.5798237"><ele>1160.0</ele><time>2026-04-26T12:10:25.4Z</time></trkpt><trkpt lat="45.8615327" lon="11.5799478"><ele>1160.0</ele><time>2026-04-26T12:10:27.397Z</time></trkpt><trkpt lat="45.8614554" lon="11.5800944"><ele>1160.0</ele><time>2026-04-26T12:10:29.395Z</time></trkpt><trkpt lat="45.8614087" lon="11.5801591"><ele>1160.0</ele><time>2026-04-26T12:10:30.396Z</time></trkpt><trkpt lat="45.8613085" lon="11.5802453"><ele>1160.0</ele><time>2026-04-26T12:10:32.396Z</time></trkpt><trkpt lat="45.8611891" lon="11.5802598"><ele>1160.0</ele><time>2026-04-26T12:10:34.396Z</time></trkpt><trkpt lat="45.8611116" lon="11.5802515"><ele>1160.0</ele><time>2026-04-26T12:10:35.393Z</time></trkpt><trkpt lat="45.8609444" lon="11.5802299"><ele>1160.1666666666667</ele><time>2026-04-26T12:10:37.393Z</time></trkpt><trkpt lat="45.8608785" lon="11.5802208"><ele>1160.3333333333335</ele><time>2026-04-26T12:10:38.393Z</time></trkpt><trkpt lat="45.8607874" lon="11.5802347"><ele>1160.5</ele><time>2026-04-26T12:10:40.395Z</time></trkpt><trkpt lat="45.8607455" lon="11.5803177"><ele>1160.6666666666667</ele><time>2026-04-26T12:10:42.396Z</time></trkpt><trkpt lat="45.8607568" lon="11.5804478"><ele>1160.8333333333333</ele><time>2026-04-26T12:10:44.396Z</time></trkpt><trkpt lat="45.8608551" lon="11.5805359"><ele>1161.0</ele><time>2026-04-26T12:10:46.395Z</time></trkpt><trkpt lat="45.8609313" lon="11.5805882"><ele>1159.0</ele><time>2026-04-26T12:10:47.395Z</time></trkpt><trkpt lat="45.8610006" lon="11.5806475"><ele>1157.0</ele><time>2026-04-26T12:10:48.395Z</time></trkpt><trkpt lat="45.8610653" lon="11.5807243"><ele>1155.0</ele><time>2026-04-26T12:10:49.395Z</time></trkpt><trkpt lat="45.8611316" lon="11.580815"><ele>1153.0</ele><time>2026-04-26T12:10:50.398Z</time></trkpt><trkpt lat="45.861197" lon="11.5809022"><ele>1151.0</ele><time>2026-04-26T12:10:51.395Z</time></trkpt><trkpt lat="45.8612625" lon="11.5809837"><ele>1149.0</ele><time>2026-04-26T12:10:52.394Z</time></trkpt><trkpt lat="45.861326" lon="11.581064"><ele>1149.0</ele><time>2026-04-26T12:10:53.391Z</time></trkpt><trkpt lat="45.8613886" lon="11.5811415"><ele>1149.0</ele><time>2026-04-26T12:10:54.391Z</time></trkpt><trkpt lat="45.8614514" lon="11.5812143"><ele>1149.0</ele><time>2026-04-26T12:10:55.391Z</time></trkpt><trkpt lat="45.8615131" lon="11.581284"><ele>1149.0</ele><time>2026-04-26T12:10:56.393Z</time></trkpt><trkpt lat="45.8616437" lon="11.5813912"><ele>1149.0</ele><time>2026-04-26T12:10:58.393Z</time></trkpt><trkpt lat="45.8617127" lon="11.5814262"><ele>1148.1666666666667</ele><time>2026-04-26T12:10:59.395Z</time></trkpt><trkpt lat="45.8617785" lon="11.5814506"><ele>1147.3333333333333</ele><time>2026-04-26T12:11:00.394Z</time></trkpt><trkpt lat="45.8618755" lon="11.5815016"><ele>1146.5</ele><time>2026-04-26T12:11:02.395Z</time></trkpt><trkpt lat="45.8619206" lon="11.5816082"><ele>1145.6666666666665</ele><time>2026-04-26T12:11:04.394Z</time></trkpt><trkpt lat="45.8619155" lon="11.5816988"><ele>1144.8333333333333</ele><time>2026-04-26T12:11:05.393Z</time></trkpt><trkpt lat="45.8619037" lon="11.5818002"><ele>1144.0</ele><time>2026-04-26T12:11:06.394Z</time></trkpt><trkpt lat="45.8619019" lon="11.5818996"><ele>1143.8333333333333</ele><time>2026-04-26T12:11:07.394Z</time></trkpt><trkpt lat="45.8619153" lon="11.5819962"><ele>1143.6666666666665</ele><time>2026-04-26T12:11:08.392Z</time></trkpt><trkpt lat="45.8619435" lon="11.582083"><ele>1143.5</ele><time>2026-04-26T12:11:09.39Z</time></trkpt><trkpt lat="45.8619856" lon="11.5822228"><ele>1143.3333333333333</ele><time>2026-04-26T12:11:11.393Z</time></trkpt><trkpt lat="45.8619591" lon="11.5823801"><ele>1143.1666666666667</ele><time>2026-04-26T12:11:13.392Z</time></trkpt><trkpt lat="45.8619371" lon="11.5824653"><ele>1143.0</ele><time>2026-04-26T12:11:14.392Z</time></trkpt><trkpt lat="45.86192" lon="11.5825533"><ele>1143.4</ele><time>2026-04-26T12:11:15.392Z</time></trkpt><trkpt lat="45.8618888" lon="11.5826387"><ele>1143.8</ele><time>2026-04-26T12:11:16.391Z</time></trkpt><trkpt lat="45.8618554" lon="11.5827291"><ele>1144.2</ele><time>2026-04-26T12:11:17.389Z</time></trkpt><trkpt lat="45.8618093" lon="11.5829405"><ele>1144.6</ele><time>2026-04-26T12:11:19.391Z</time></trkpt><trkpt lat="45.8618011" lon="11.583055"><ele>1145.0</ele><time>2026-04-26T12:11:20.389Z</time></trkpt><trkpt lat="45.8617939" lon="11.583173"><ele>1145.1666666666667</ele><time>2026-04-26T12:11:21.39Z</time></trkpt><trkpt lat="45.8617852" lon="11.583288"><ele>1145.3333333333335</ele><time>2026-04-26T12:11:22.391Z</time></trkpt><trkpt lat="45.861784" lon="11.583397"><ele>1145.5</ele><time>2026-04-26T12:11:23.393Z</time></trkpt><trkpt lat="45.8617858" lon="11.5835019"><ele>1145.6666666666667</ele><time>2026-04-26T12:11:24.391Z</time></trkpt><trkpt lat="45.8617864" lon="11.5836019"><ele>1145.8333333333333</ele><time>2026-04-26T12:11:25.391Z</time></trkpt><trkpt lat="45.8617816" lon="11.5836971"><ele>1146.0</ele><time>2026-04-26T12:11:26.391Z</time></trkpt><trkpt lat="45.8617668" lon="11.5838515"><ele>1143.8333333333333</ele><time>2026-04-26T12:11:28.391Z</time></trkpt><trkpt lat="45.8617446" lon="11.5839756"><ele>1141.6666666666667</ele><time>2026-04-26T12:11:30.391Z</time></trkpt><trkpt lat="45.8617234" lon="11.5841163"><ele>1139.5</ele><time>2026-04-26T12:11:32.391Z</time></trkpt><trkpt lat="45.8616893" lon="11.5842647"><ele>1137.3333333333335</ele><time>2026-04-26T12:11:34.395Z</time></trkpt><trkpt lat="45.8616659" lon="11.5843488"><ele>1135.1666666666667</ele><time>2026-04-26T12:11:35.391Z</time></trkpt><trkpt lat="45.8616375" lon="11.5844461"><ele>1133.0</ele><time>2026-04-26T12:11:36.391Z</time></trkpt><trkpt lat="45.8616055" lon="11.5845463"><ele>1133.0</ele><time>2026-04-26T12:11:37.392Z</time></trkpt><trkpt lat="45.8615722" lon="11.5846375"><ele>1133.0</ele><time>2026-04-26T12:11:38.39Z</time></trkpt><trkpt lat="45.8614838" lon="11.5848303"><ele>1133.0</ele><time>2026-04-26T12:11:40.392Z</time></trkpt><trkpt lat="45.8614223" lon="11.584934"><ele>1133.0</ele><time>2026-04-26T12:11:41.389Z</time></trkpt><trkpt lat="45.8613576" lon="11.585042"><ele>1133.0</ele><time>2026-04-26T12:11:42.391Z</time></trkpt><trkpt lat="45.8612975" lon="11.585147"><ele>1133.0</ele><time>2026-04-26T12:11:43.39Z</time></trkpt><trkpt lat="45.8612395" lon="11.5852454"><ele>1133.0</ele><time>2026-04-26T12:11:44.39Z</time></trkpt><trkpt lat="45.8611909" lon="11.5853349"><ele>1133.0</ele><time>2026-04-26T12:11:45.392Z</time></trkpt><trkpt lat="45.86115" lon="11.58542"><ele>1133.0</ele><time>2026-04-26T12:11:46.393Z</time></trkpt><trkpt lat="45.8611118" lon="11.5854972"><ele>1133.0</ele><time>2026-04-26T12:11:47.392Z</time></trkpt><trkpt lat="45.8610496" lon="11.5856304"><ele>1133.0</ele><time>2026-04-26T12:11:49.193Z</time></trkpt><trkpt lat="45.8609915" lon="11.5857108"><ele>1131.8333333333335</ele><time>2026-04-26T12:11:50.391Z</time></trkpt><trkpt lat="45.8609201" lon="11.5857624"><ele>1130.6666666666667</ele><time>2026-04-26T12:11:51.394Z</time></trkpt><trkpt lat="45.8608261" lon="11.5858078"><ele>1129.5</ele><time>2026-04-26T12:11:52.391Z</time></trkpt><trkpt lat="45.8607309" lon="11.585853"><ele>1128.3333333333333</ele><time>2026-04-26T12:11:53.392Z</time></trkpt><trkpt lat="45.8606477" lon="11.5858923"><ele>1127.1666666666665</ele><time>2026-04-26T12:11:54.391Z</time></trkpt><trkpt lat="45.8605725" lon="11.5859115"><ele>1126.0</ele><time>2026-04-26T12:11:55.391Z</time></trkpt><trkpt lat="45.860501" lon="11.5859034"><ele>1126.0</ele><time>2026-04-26T12:11:56.392Z</time></trkpt><trkpt lat="45.8604333" lon="11.5858769"><ele>1126.0</ele><time>2026-04-26T12:11:57.393Z</time></trkpt><trkpt lat="45.8603691" lon="11.5858353"><ele>1126.0</ele><time>2026-04-26T12:11:58.391Z</time></trkpt><trkpt lat="45.8602981" lon="11.5857796"><ele>1126.0</ele><time>2026-04-26T12:11:59.391Z</time></trkpt><trkpt lat="45.8601307" lon="11.5856754"><ele>1126.0</ele><time>2026-04-26T12:12:01.394Z</time></trkpt><trkpt lat="45.8600492" lon="11.5856551"><ele>1125.8</ele><time>2026-04-26T12:12:02.397Z</time></trkpt><trkpt lat="45.859965" lon="11.5856527"><ele>1125.6</ele><time>2026-04-26T12:12:03.395Z</time></trkpt><trkpt lat="45.8598865" lon="11.5856832"><ele>1125.4</ele><time>2026-04-26T12:12:04.392Z</time></trkpt><trkpt lat="45.8598041" lon="11.5857595"><ele>1125.2</ele><time>2026-04-26T12:12:05.391Z</time></trkpt><trkpt lat="45.8596997" lon="11.5858776"><ele>1125.0</ele><time>2026-04-26T12:12:06.389Z</time></trkpt><trkpt lat="45.8595998" lon="11.5859962"><ele>1125.0</ele><time>2026-04-26T12:12:07.389Z</time></trkpt><trkpt lat="45.8594981" lon="11.5861098"><ele>1125.0</ele><time>2026-04-26T12:12:08.388Z</time></trkpt><trkpt lat="45.8593912" lon="11.5862079"><ele>1125.0</ele><time>2026-04-26T12:12:09.39Z</time></trkpt><trkpt lat="45.8592877" lon="11.5862929"><ele>1125.0</ele><time>2026-04-26T12:12:10.392Z</time></trkpt><trkpt lat="45.85919" lon="11.5863629"><ele>1125.0</ele><time>2026-04-26T12:12:11.393Z</time></trkpt><trkpt lat="45.8590847" lon="11.586419"><ele>1125.0</ele><time>2026-04-26T12:12:12.392Z</time></trkpt><trkpt lat="45.8589706" lon="11.5864686"><ele>1125.0</ele><time>2026-04-26T12:12:13.393Z</time></trkpt><trkpt lat="45.8588333" lon="11.5865172"><ele>1125.0</ele><time>2026-04-26T12:12:14.396Z</time></trkpt><trkpt lat="45.8586977" lon="11.5865517"><ele>1125.0</ele><time>2026-04-26T12:12:15.395Z</time></trkpt><trkpt lat="45.8585711" lon="11.5865793"><ele>1125.0</ele><time>2026-04-26T12:12:16.393Z</time></trkpt><trkpt lat="45.8584365" lon="11.5866036"><ele>1125.0</ele><time>2026-04-26T12:12:17.391Z</time></trkpt><trkpt lat="45.8582909" lon="11.5866266"><ele>1125.0</ele><time>2026-04-26T12:12:18.392Z</time></trkpt><trkpt lat="45.8581371" lon="11.5866255"><ele>1122.5</ele><time>2026-04-26T12:12:19.393Z</time></trkpt><trkpt lat="45.8579695" lon="11.5865955"><ele>1120.0</ele><time>2026-04-26T12:12:20.392Z</time></trkpt><trkpt lat="45.8576834" lon="11.5865537"><ele>1119.0</ele><time>2026-04-26T12:12:22.392Z</time></trkpt><trkpt lat="45.8575625" lon="11.5865439"><ele>1118.0</ele><time>2026-04-26T12:12:23.394Z</time></trkpt><trkpt lat="45.8574515" lon="11.5865416"><ele>1117.0</ele><time>2026-04-26T12:12:24.393Z</time></trkpt><trkpt lat="45.8573379" lon="11.5865441"><ele>1116.0</ele><time>2026-04-26T12:12:25.393Z</time></trkpt><trkpt lat="45.8572335" lon="11.5865379"><ele>1116.0</ele><time>2026-04-26T12:12:26.391Z</time></trkpt><trkpt lat="45.8571355" lon="11.5865136"><ele>1116.0</ele><time>2026-04-26T12:12:27.39Z</time></trkpt><trkpt lat="45.8570422" lon="11.5864751"><ele>1116.0</ele><time>2026-04-26T12:12:28.391Z</time></trkpt><trkpt lat="45.8569534" lon="11.5864304"><ele>1116.0</ele><time>2026-04-26T12:12:29.39Z</time></trkpt><trkpt lat="45.8568695" lon="11.5863756"><ele>1116.0</ele><time>2026-04-26T12:12:30.387Z</time></trkpt><trkpt lat="45.8567887" lon="11.586305"><ele>1116.0</ele><time>2026-04-26T12:12:31.389Z</time></trkpt><trkpt lat="45.8567015" lon="11.5861928"><ele>1116.0</ele><time>2026-04-26T12:12:32.39Z</time></trkpt><trkpt lat="45.8566108" lon="11.5860475"><ele>1116.0</ele><time>2026-04-26T12:12:33.389Z</time></trkpt><trkpt lat="45.8565293" lon="11.58592"><ele>1116.0</ele><time>2026-04-26T12:12:34.391Z</time></trkpt><trkpt lat="45.8564478" lon="11.5858137"><ele>1116.0</ele><time>2026-04-26T12:12:35.39Z</time></trkpt><trkpt lat="45.8563709" lon="11.5857207"><ele>1116.0</ele><time>2026-04-26T12:12:36.392Z</time></trkpt><trkpt lat="45.8562951" lon="11.5856492"><ele>1116.0</ele><time>2026-04-26T12:12:37.391Z</time></trkpt><trkpt lat="45.8562185" lon="11.5856071"><ele>1116.0</ele><time>2026-04-26T12:12:38.391Z</time></trkpt><trkpt lat="45.8561382" lon="11.5856039"><ele>1116.0</ele><time>2026-04-26T12:12:39.391Z</time></trkpt><trkpt lat="45.8560525" lon="11.5856428"><ele>1116.0</ele><time>2026-04-26T12:12:40.391Z</time></trkpt><trkpt lat="45.8559548" lon="11.5857323"><ele>1114.3333333333333</ele><time>2026-04-26T12:12:41.39Z</time></trkpt><trkpt lat="45.8557312" lon="11.5860311"><ele>1112.6666666666665</ele><time>2026-04-26T12:12:43.389Z</time></trkpt><trkpt lat="45.8556276" lon="11.5861592"><ele>1111.0</ele><time>2026-04-26T12:12:44.388Z</time></trkpt><trkpt lat="45.8555402" lon="11.5862838"><ele>1111.0</ele><time>2026-04-26T12:12:45.39Z</time></trkpt><trkpt lat="45.8554725" lon="11.5864065"><ele>1111.0</ele><time>2026-04-26T12:12:46.389Z</time></trkpt><trkpt lat="45.8554158" lon="11.5865155"><ele>1111.0</ele><time>2026-04-26T12:12:47.39Z</time></trkpt><trkpt lat="45.855365" lon="11.5866"><ele>1111.0</ele><time>2026-04-26T12:12:48.392Z</time></trkpt><trkpt lat="45.8553195" lon="11.5866642"><ele>1111.0</ele><time>2026-04-26T12:12:49.389Z</time></trkpt><trkpt lat="45.8552093" lon="11.5867575"><ele>1111.0</ele><time>2026-04-26T12:12:51.388Z</time></trkpt><trkpt lat="45.8551302" lon="11.5867663"><ele>1111.0</ele><time>2026-04-26T12:12:52.39Z</time></trkpt><trkpt lat="45.8550518" lon="11.5867884"><ele>1111.0</ele><time>2026-04-26T12:12:53.391Z</time></trkpt><trkpt lat="45.8549017" lon="11.5869565"><ele>1111.0</ele><time>2026-04-26T12:12:55.389Z</time></trkpt><trkpt lat="45.8548432" lon="11.5870857"><ele>1111.0</ele><time>2026-04-26T12:12:56.388Z</time></trkpt><trkpt lat="45.8548014" lon="11.5871919"><ele>1111.0</ele><time>2026-04-26T12:12:57.389Z</time></trkpt><trkpt lat="45.8547486" lon="11.5872727"><ele>1111.0</ele><time>2026-04-26T12:12:58.392Z</time></trkpt><trkpt lat="45.8546809" lon="11.5873296"><ele>1111.0</ele><time>2026-04-26T12:12:59.394Z</time></trkpt><trkpt lat="45.854606" lon="11.5873539"><ele>1111.0</ele><time>2026-04-26T12:13:00.394Z</time></trkpt><trkpt lat="45.85454" lon="11.5873604"><ele>1111.0</ele><time>2026-04-26T12:13:01.39Z</time></trkpt><trkpt lat="45.8544339" lon="11.5873588"><ele>1111.0</ele><time>2026-04-26T12:13:03.39Z</time></trkpt><trkpt lat="45.8543009" lon="11.5873458"><ele>1111.0</ele><time>2026-04-26T12:13:43.389Z</time></trkpt><trkpt lat="45.8542471" lon="11.5872978"><ele>1111.0</ele><time>2026-04-26T12:16:07.392Z</time></trkpt><trkpt lat="45.8541411" lon="11.5876229"><ele>1111.0</ele><time>2026-04-26T12:28:17.396Z</time></trkpt><trkpt lat="45.8541238" lon="11.5877272"><ele>1109.3333333333333</ele><time>2026-04-26T12:28:18.394Z</time></trkpt><trkpt lat="45.8541174" lon="11.5878535"><ele>1107.6666666666665</ele><time>2026-04-26T12:28:19.394Z</time></trkpt><trkpt lat="45.8541193" lon="11.5880047"><ele>1106.0</ele><time>2026-04-26T12:28:20.394Z</time></trkpt><trkpt lat="45.8541293" lon="11.5881396"><ele>1104.3333333333333</ele><time>2026-04-26T12:28:21.395Z</time></trkpt><trkpt lat="45.8541295" lon="11.588259"><ele>1102.6666666666667</ele><time>2026-04-26T12:28:22.395Z</time></trkpt><trkpt lat="45.8541226" lon="11.5883661"><ele>1101.0</ele><time>2026-04-26T12:28:23.396Z</time></trkpt><trkpt lat="45.854109" lon="11.5884577"><ele>1101.0</ele><time>2026-04-26T12:28:24.395Z</time></trkpt><trkpt lat="45.8540841" lon="11.5885575"><ele>1101.0</ele><time>2026-04-26T12:28:25.393Z</time></trkpt><trkpt lat="45.8540462" lon="11.5886646"><ele>1101.0</ele><time>2026-04-26T12:28:26.393Z</time></trkpt><trkpt lat="45.8539964" lon="11.588776"><ele>1101.0</ele><time>2026-04-26T12:28:27.393Z</time></trkpt><trkpt lat="45.8539434" lon="11.5888764"><ele>1101.0</ele><time>2026-04-26T12:28:28.394Z</time></trkpt><trkpt lat="45.8538913" lon="11.5889626"><ele>1101.0</ele><time>2026-04-26T12:28:29.391Z</time></trkpt><trkpt lat="45.8538304" lon="11.5890312"><ele>1101.3999999999999</ele><time>2026-04-26T12:28:30.395Z</time></trkpt><trkpt lat="45.853764" lon="11.5890911"><ele>1101.8</ele><time>2026-04-26T12:28:31.396Z</time></trkpt><trkpt lat="45.8536859" lon="11.5891355"><ele>1102.1999999999998</ele><time>2026-04-26T12:28:32.393Z</time></trkpt><trkpt lat="45.8535962" lon="11.5891748"><ele>1102.6</ele><time>2026-04-26T12:28:33.393Z</time></trkpt><trkpt lat="45.8535035" lon="11.5892301"><ele>1103.0</ele><time>2026-04-26T12:28:34.394Z</time></trkpt><trkpt lat="45.8534197" lon="11.5893074"><ele>1103.0</ele><time>2026-04-26T12:28:35.393Z</time></trkpt><trkpt lat="45.8533346" lon="11.5894153"><ele>1103.0</ele><time>2026-04-26T12:28:36.395Z</time></trkpt><trkpt lat="45.8531756" lon="11.5896134"><ele>1103.0</ele><time>2026-04-26T12:28:38.396Z</time></trkpt><trkpt lat="45.8530977" lon="11.5896803"><ele>1103.0</ele><time>2026-04-26T12:28:39.392Z</time></trkpt><trkpt lat="45.8530097" lon="11.5897398"><ele>1103.0</ele><time>2026-04-26T12:28:40.393Z</time></trkpt><trkpt lat="45.8529216" lon="11.5897955"><ele>1103.0</ele><time>2026-04-26T12:28:41.391Z</time></trkpt><trkpt lat="45.8528373" lon="11.5898326"><ele>1103.0</ele><time>2026-04-26T12:28:42.393Z</time></trkpt><trkpt lat="45.8527477" lon="11.5898315"><ele>1103.0</ele><time>2026-04-26T12:28:43.391Z</time></trkpt><trkpt lat="45.8526548" lon="11.5898251"><ele>1103.0</ele><time>2026-04-26T12:28:44.391Z</time></trkpt><trkpt lat="45.8525558" lon="11.5898532"><ele>1101.2</ele><time>2026-04-26T12:28:45.393Z</time></trkpt><trkpt lat="45.8524533" lon="11.5899143"><ele>1099.4</ele><time>2026-04-26T12:28:46.393Z</time></trkpt><trkpt lat="45.8523531" lon="11.589986"><ele>1097.6000000000001</ele><time>2026-04-26T12:28:47.391Z</time></trkpt><trkpt lat="45.8522598" lon="11.5900611"><ele>1095.8</ele><time>2026-04-26T12:28:48.395Z</time></trkpt><trkpt lat="45.8521646" lon="11.5901374"><ele>1094.0</ele><time>2026-04-26T12:28:49.394Z</time></trkpt><trkpt lat="45.8520638" lon="11.5902094"><ele>1094.0</ele><time>2026-04-26T12:28:50.391Z</time></trkpt><trkpt lat="45.8519604" lon="11.5902776"><ele>1094.0</ele><time>2026-04-26T12:28:51.394Z</time></trkpt><trkpt lat="45.8518932" lon="11.5903182"><ele>1094.0</ele><time>2026-04-26T12:28:51.996Z</time></trkpt><trkpt lat="45.851728" lon="11.5904164"><ele>1094.0</ele><time>2026-04-26T12:28:53.393Z</time></trkpt><trkpt lat="45.8516029" lon="11.590486"><ele>1092.75</ele><time>2026-04-26T12:28:54.394Z</time></trkpt><trkpt lat="45.8514787" lon="11.5905699"><ele>1091.5</ele><time>2026-04-26T12:28:55.396Z</time></trkpt><trkpt lat="45.8513655" lon="11.5906596"><ele>1090.25</ele><time>2026-04-26T12:28:56.392Z</time></trkpt><trkpt lat="45.851265" lon="11.590742"><ele>1089.0</ele><time>2026-04-26T12:28:57.393Z</time></trkpt><trkpt lat="45.8510911" lon="11.5908721"><ele>1089.0</ele><time>2026-04-26T12:28:59.394Z</time></trkpt><trkpt lat="45.8510071" lon="11.5909239"><ele>1089.0</ele><time>2026-04-26T12:29:00.396Z</time></trkpt><trkpt lat="45.8509217" lon="11.5910044"><ele>1089.0</ele><time>2026-04-26T12:29:01.394Z</time></trkpt><trkpt lat="45.8508352" lon="11.5910967"><ele>1089.0</ele><time>2026-04-26T12:29:02.394Z</time></trkpt><trkpt lat="45.8507543" lon="11.5912047"><ele>1089.0</ele><time>2026-04-26T12:29:03.395Z</time></trkpt><trkpt lat="45.8506731" lon="11.5913264"><ele>1087.4</ele><time>2026-04-26T12:29:04.393Z</time></trkpt><trkpt lat="45.8506099" lon="11.5914516"><ele>1085.8000000000002</ele><time>2026-04-26T12:29:05.393Z</time></trkpt><trkpt lat="45.8505518" lon="11.5915922"><ele>1084.1999999999998</ele><time>2026-04-26T12:29:06.393Z</time></trkpt><trkpt lat="45.8504936" lon="11.5917339"><ele>1082.6</ele><time>2026-04-26T12:29:07.394Z</time></trkpt><trkpt lat="45.8504474" lon="11.5918675"><ele>1081.0</ele><time>2026-04-26T12:29:08.391Z</time></trkpt><trkpt lat="45.8503928" lon="11.5919845"><ele>1082.0</ele><time>2026-04-26T12:29:09.393Z</time></trkpt><trkpt lat="45.850341" lon="11.5920826"><ele>1083.0</ele><time>2026-04-26T12:29:10.393Z</time></trkpt><trkpt lat="45.8502824" lon="11.5921615"><ele>1084.0</ele><time>2026-04-26T12:29:11.394Z</time></trkpt><trkpt lat="45.8502066" lon="11.5922295"><ele>1085.0</ele><time>2026-04-26T12:29:12.394Z</time></trkpt><trkpt lat="45.8501167" lon="11.5923009"><ele>1086.0</ele><time>2026-04-26T12:29:13.393Z</time></trkpt><trkpt lat="45.850044" lon="11.5923873"><ele>1086.0</ele><time>2026-04-26T12:29:14.392Z</time></trkpt><trkpt lat="45.8499857" lon="11.5924867"><ele>1086.0</ele><time>2026-04-26T12:29:15.392Z</time></trkpt><trkpt lat="45.8499313" lon="11.5925885"><ele>1086.0</ele><time>2026-04-26T12:29:16.393Z</time></trkpt><trkpt lat="45.8498731" lon="11.5926756"><ele>1086.0</ele><time>2026-04-26T12:29:17.391Z</time></trkpt><trkpt lat="45.8497987" lon="11.59275"><ele>1086.0</ele><time>2026-04-26T12:29:18.392Z</time></trkpt><trkpt lat="45.8496216" lon="11.5928413"><ele>1084.3999999999999</ele><time>2026-04-26T12:29:20.395Z</time></trkpt><trkpt lat="45.8495372" lon="11.5928985"><ele>1082.8</ele><time>2026-04-26T12:29:21.394Z</time></trkpt><trkpt lat="45.8494645" lon="11.5929795"><ele>1081.1999999999998</ele><time>2026-04-26T12:29:22.394Z</time></trkpt><trkpt lat="45.849395" lon="11.5930876"><ele>1079.6</ele><time>2026-04-26T12:29:23.392Z</time></trkpt><trkpt lat="45.8493282" lon="11.5931993"><ele>1078.0</ele><time>2026-04-26T12:29:24.396Z</time></trkpt><trkpt lat="45.8492546" lon="11.5933166"><ele>1078.0</ele><time>2026-04-26T12:29:25.392Z</time></trkpt><trkpt lat="45.8491695" lon="11.5934299"><ele>1078.0</ele><time>2026-04-26T12:29:26.393Z</time></trkpt><trkpt lat="45.8490841" lon="11.5935444"><ele>1078.0</ele><time>2026-04-26T12:29:27.394Z</time></trkpt><trkpt lat="45.8489961" lon="11.593658"><ele>1078.0</ele><time>2026-04-26T12:29:28.393Z</time></trkpt><trkpt lat="45.8489135" lon="11.5937712"><ele>1070.5</ele><time>2026-04-26T12:29:29.394Z</time></trkpt><trkpt lat="45.8488336" lon="11.5938858"><ele>1063.0</ele><time>2026-04-26T12:29:30.393Z</time></trkpt><trkpt lat="45.8487443" lon="11.5939871"><ele>1055.5</ele><time>2026-04-26T12:29:31.393Z</time></trkpt><trkpt lat="45.84865" lon="11.594083"><ele>1048.0</ele><time>2026-04-26T12:29:32.393Z</time></trkpt><trkpt lat="45.8485566" lon="11.5941716"><ele>1048.0</ele><time>2026-04-26T12:29:33.396Z</time></trkpt><trkpt lat="45.8484657" lon="11.5942485"><ele>1048.0</ele><time>2026-04-26T12:29:34.393Z</time></trkpt><trkpt lat="45.8483683" lon="11.5943143"><ele>1048.0</ele><time>2026-04-26T12:29:35.394Z</time></trkpt><trkpt lat="45.848271" lon="11.5943876"><ele>1048.0</ele><time>2026-04-26T12:29:36.392Z</time></trkpt><trkpt lat="45.848178" lon="11.594462"><ele>1048.0</ele><time>2026-04-26T12:29:37.392Z</time></trkpt><trkpt lat="45.8481015" lon="11.5945345"><ele>1046.0</ele><time>2026-04-26T12:29:38.393Z</time></trkpt><trkpt lat="45.8480372" lon="11.5946061"><ele>1044.0</ele><time>2026-04-26T12:29:39.39Z</time></trkpt><trkpt lat="45.8479289" lon="11.5947464"><ele>1042.0</ele><time>2026-04-26T12:29:41.392Z</time></trkpt><trkpt lat="45.8478666" lon="11.5947787"><ele>1040.0</ele><time>2026-04-26T12:29:42.392Z</time></trkpt><trkpt lat="45.8477873" lon="11.5948003"><ele>1038.0</ele><time>2026-04-26T12:29:43.392Z</time></trkpt><trkpt lat="45.8476943" lon="11.594828"><ele>1039.1666666666667</ele><time>2026-04-26T12:29:44.394Z</time></trkpt><trkpt lat="45.8476051" lon="11.5948701"><ele>1040.3333333333333</ele><time>2026-04-26T12:29:45.393Z</time></trkpt><trkpt lat="45.8475243" lon="11.5949129"><ele>1041.5</ele><time>2026-04-26T12:29:46.393Z</time></trkpt><trkpt lat="45.8474466" lon="11.5949382"><ele>1042.6666666666665</ele><time>2026-04-26T12:29:47.393Z</time></trkpt><trkpt lat="45.8473729" lon="11.5949487"><ele>1043.8333333333333</ele><time>2026-04-26T12:29:48.392Z</time></trkpt><trkpt lat="45.8472927" lon="11.5949462"><ele>1045.0</ele><time>2026-04-26T12:29:49.392Z</time></trkpt><trkpt lat="45.8471922" lon="11.5949488"><ele>1045.0</ele><time>2026-04-26T12:29:50.391Z</time></trkpt><trkpt lat="45.8470821" lon="11.5949803"><ele>1045.0</ele><time>2026-04-26T12:29:51.395Z</time></trkpt><trkpt lat="45.846971" lon="11.5950245"><ele>1045.0</ele><time>2026-04-26T12:29:52.394Z</time></trkpt><trkpt lat="45.8468665" lon="11.5950758"><ele>1045.0</ele><time>2026-04-26T12:29:53.395Z</time></trkpt><trkpt lat="45.84676" lon="11.5951396"><ele>1045.0</ele><time>2026-04-26T12:29:54.392Z</time></trkpt><trkpt lat="45.8466494" lon="11.5951942"><ele>1045.0</ele><time>2026-04-26T12:29:55.393Z</time></trkpt><trkpt lat="45.8465424" lon="11.5952312"><ele>1045.0</ele><time>2026-04-26T12:29:56.394Z</time></trkpt><trkpt lat="45.8464403" lon="11.5952712"><ele>1045.0</ele><time>2026-04-26T12:29:57.392Z</time></trkpt><trkpt lat="45.8463439" lon="11.5952991"><ele>1045.0</ele><time>2026-04-26T12:29:58.393Z</time></trkpt><trkpt lat="45.846237" lon="11.5953426"><ele>1036.6666666666665</ele><time>2026-04-26T12:29:59.392Z</time></trkpt><trkpt lat="45.846138" lon="11.595388"><ele>1028.3333333333333</ele><time>2026-04-26T12:30:00.393Z</time></trkpt><trkpt lat="45.8459121" lon="11.5954538"><ele>1020.0</ele><time>2026-04-26T12:30:02.392Z</time></trkpt><trkpt lat="45.8457945" lon="11.5954759"><ele>1020.0</ele><time>2026-04-26T12:30:03.39Z</time></trkpt><trkpt lat="45.845669" lon="11.5954719"><ele>1020.0</ele><time>2026-04-26T12:30:04.391Z</time></trkpt><trkpt lat="45.8455313" lon="11.5954544"><ele>1020.0</ele><time>2026-04-26T12:30:05.392Z</time></trkpt><trkpt lat="45.8453865" lon="11.5954244"><ele>1020.0</ele><time>2026-04-26T12:30:06.389Z</time></trkpt><trkpt lat="45.8452354" lon="11.5953888"><ele>1018.0</ele><time>2026-04-26T12:30:07.391Z</time></trkpt><trkpt lat="45.8450944" lon="11.5953463"><ele>1016.0</ele><time>2026-04-26T12:30:08.391Z</time></trkpt><trkpt lat="45.8449602" lon="11.595305"><ele>1014.0</ele><time>2026-04-26T12:30:09.391Z</time></trkpt><trkpt lat="45.8448343" lon="11.5952762"><ele>1012.0</ele><time>2026-04-26T12:30:10.392Z</time></trkpt><trkpt lat="45.8447123" lon="11.5952805"><ele>1012.0</ele><time>2026-04-26T12:30:11.392Z</time></trkpt><trkpt lat="45.8445983" lon="11.5952978"><ele>1012.0</ele><time>2026-04-26T12:30:12.391Z</time></trkpt><trkpt lat="45.8444972" lon="11.5953151"><ele>1012.0</ele><time>2026-04-26T12:30:13.391Z</time></trkpt><trkpt lat="45.8444016" lon="11.595325"><ele>1012.0</ele><time>2026-04-26T12:30:14.391Z</time></trkpt><trkpt lat="45.8443159" lon="11.5953508"><ele>1012.0</ele><time>2026-04-26T12:30:15.395Z</time></trkpt><trkpt lat="45.8442396" lon="11.5953627"><ele>1010.8</ele><time>2026-04-26T12:30:16.393Z</time></trkpt><trkpt lat="45.8441655" lon="11.595361"><ele>1009.6</ele><time>2026-04-26T12:30:17.392Z</time></trkpt><trkpt lat="45.844088" lon="11.5953401"><ele>1008.3999999999999</ele><time>2026-04-26T12:30:18.391Z</time></trkpt><trkpt lat="45.8440061" lon="11.595296"><ele>1007.1999999999999</ele><time>2026-04-26T12:30:19.392Z</time></trkpt><trkpt lat="45.8439221" lon="11.5952138"><ele>1006.0</ele><time>2026-04-26T12:30:20.391Z</time></trkpt><trkpt lat="45.8438262" lon="11.5951077"><ele>1006.25</ele><time>2026-04-26T12:30:21.393Z</time></trkpt><trkpt lat="45.8436511" lon="11.5948866"><ele>1006.5</ele><time>2026-04-26T12:30:23.394Z</time></trkpt><trkpt lat="45.8435692" lon="11.5947904"><ele>1006.75</ele><time>2026-04-26T12:30:24.393Z</time></trkpt><trkpt lat="45.8434836" lon="11.5946998"><ele>1007.0</ele><time>2026-04-26T12:30:25.394Z</time></trkpt><trkpt lat="45.8434015" lon="11.5946015"><ele>1010.0</ele><time>2026-04-26T12:30:26.393Z</time></trkpt><trkpt lat="45.8433065" lon="11.5945032"><ele>1013.0</ele><time>2026-04-26T12:30:27.394Z</time></trkpt><trkpt lat="45.8432127" lon="11.5944147"><ele>1016.0</ele><time>2026-04-26T12:30:28.391Z</time></trkpt><trkpt lat="45.8431257" lon="11.5943332"><ele>1019.0</ele><time>2026-04-26T12:30:29.389Z</time></trkpt><trkpt lat="45.8430481" lon="11.5942554"><ele>1022.0</ele><time>2026-04-26T12:30:30.389Z</time></trkpt><trkpt lat="45.8429756" lon="11.5941871"><ele>1022.0</ele><time>2026-04-26T12:30:31.388Z</time></trkpt><trkpt lat="45.8429045" lon="11.5941232"><ele>1022.0</ele><time>2026-04-26T12:30:32.391Z</time></trkpt><trkpt lat="45.8428305" lon="11.594044"><ele>1022.0</ele><time>2026-04-26T12:30:33.391Z</time></trkpt><trkpt lat="45.8427563" lon="11.5939567"><ele>1022.0</ele><time>2026-04-26T12:30:34.393Z</time></trkpt><trkpt lat="45.8426663" lon="11.5938586"><ele>1022.0</ele><time>2026-04-26T12:30:35.39Z</time></trkpt><trkpt lat="45.8425542" lon="11.5937423"><ele>1020.6666666666667</ele><time>2026-04-26T12:30:36.391Z</time></trkpt><trkpt lat="45.8424208" lon="11.5936212"><ele>1019.3333333333333</ele><time>2026-04-26T12:30:37.392Z</time></trkpt><trkpt lat="45.8422624" lon="11.5934984"><ele>1018.0</ele><time>2026-04-26T12:30:38.391Z</time></trkpt><trkpt lat="45.8421011" lon="11.5933621"><ele>1018.0</ele><time>2026-04-26T12:30:39.392Z</time></trkpt><trkpt lat="45.8419667" lon="11.5932063"><ele>1018.0</ele><time>2026-04-26T12:30:40.391Z</time></trkpt><trkpt lat="45.8418458" lon="11.5930281"><ele>1018.0</ele><time>2026-04-26T12:30:41.391Z</time></trkpt><trkpt lat="45.8417247" lon="11.5928503"><ele>1016.0</ele><time>2026-04-26T12:30:42.391Z</time></trkpt><trkpt lat="45.8414495" lon="11.5925623"><ele>1014.0</ele><time>2026-04-26T12:30:44.393Z</time></trkpt><trkpt lat="45.8413021" lon="11.5924419"><ele>1014.0</ele><time>2026-04-26T12:30:45.392Z</time></trkpt><trkpt lat="45.8411414" lon="11.5923381"><ele>1014.0</ele><time>2026-04-26T12:30:46.392Z</time></trkpt><trkpt lat="45.8409622" lon="11.592261"><ele>1014.0</ele><time>2026-04-26T12:30:47.391Z</time></trkpt><trkpt lat="45.8407771" lon="11.5921979"><ele>1012.0</ele><time>2026-04-26T12:30:48.393Z</time></trkpt><trkpt lat="45.8405995" lon="11.5921546"><ele>1010.0</ele><time>2026-04-26T12:30:49.393Z</time></trkpt><trkpt lat="45.8404319" lon="11.5921315"><ele>1008.0</ele><time>2026-04-26T12:30:50.393Z</time></trkpt><trkpt lat="45.8402702" lon="11.5921142"><ele>1010.6666666666667</ele><time>2026-04-26T12:30:51.394Z</time></trkpt><trkpt lat="45.8401161" lon="11.5920858"><ele>1013.3333333333334</ele><time>2026-04-26T12:30:52.393Z</time></trkpt><trkpt lat="45.8399596" lon="11.5920332"><ele>1016.0</ele><time>2026-04-26T12:30:53.391Z</time></trkpt><trkpt lat="45.8397984" lon="11.5919554"><ele>1016.6666666666667</ele><time>2026-04-26T12:30:54.39Z</time></trkpt><trkpt lat="45.8396401" lon="11.5918505"><ele>1017.3333333333333</ele><time>2026-04-26T12:30:55.39Z</time></trkpt><trkpt lat="45.8394918" lon="11.5917204"><ele>1018.0</ele><time>2026-04-26T12:30:56.393Z</time></trkpt><trkpt lat="45.839346" lon="11.5915703"><ele>1018.3333333333333</ele><time>2026-04-26T12:30:57.394Z</time></trkpt><trkpt lat="45.8391959" lon="11.5914048"><ele>1018.6666666666667</ele><time>2026-04-26T12:30:58.392Z</time></trkpt><trkpt lat="45.8390531" lon="11.5912362"><ele>1019.0</ele><time>2026-04-26T12:30:59.394Z</time></trkpt><trkpt lat="45.8389213" lon="11.5910716"><ele>1019.0</ele><time>2026-04-26T12:31:00.395Z</time></trkpt><trkpt lat="45.8388007" lon="11.5908934"><ele>1019.0</ele><time>2026-04-26T12:31:01.393Z</time></trkpt><trkpt lat="45.8386891" lon="11.5906931"><ele>1019.0</ele><time>2026-04-26T12:31:02.392Z</time></trkpt><trkpt lat="45.8385767" lon="11.5904762"><ele>1014.5</ele><time>2026-04-26T12:31:03.394Z</time></trkpt><trkpt lat="45.8383361" lon="11.5900157"><ele>1010.0</ele><time>2026-04-26T12:31:05.395Z</time></trkpt><trkpt lat="45.8382127" lon="11.5897765"><ele>1010.0</ele><time>2026-04-26T12:31:06.393Z</time></trkpt><trkpt lat="45.8380986" lon="11.5895454"><ele>1010.0</ele><time>2026-04-26T12:31:07.393Z</time></trkpt><trkpt lat="45.8379906" lon="11.5893248"><ele>1010.0</ele><time>2026-04-26T12:31:08.393Z</time></trkpt><trkpt lat="45.8378812" lon="11.5891053"><ele>1009.6666666666667</ele><time>2026-04-26T12:31:09.392Z</time></trkpt><trkpt lat="45.8377682" lon="11.5888779"><ele>1009.3333333333333</ele><time>2026-04-26T12:31:10.393Z</time></trkpt><trkpt lat="45.837649" lon="11.5886413"><ele>1009.0</ele><time>2026-04-26T12:31:11.39Z</time></trkpt><trkpt lat="45.8375255" lon="11.5883962"><ele>1009.0</ele><time>2026-04-26T12:31:12.392Z</time></trkpt><trkpt lat="45.8374031" lon="11.5881482"><ele>1009.0</ele><time>2026-04-26T12:31:13.39Z</time></trkpt><trkpt lat="45.8372853" lon="11.5879034"><ele>1009.0</ele><time>2026-04-26T12:31:14.392Z</time></trkpt><trkpt lat="45.8371718" lon="11.5876699"><ele>1011.0</ele><time>2026-04-26T12:31:15.393Z</time></trkpt><trkpt lat="45.837061" lon="11.5874508"><ele>1013.0</ele><time>2026-04-26T12:31:16.392Z</time></trkpt><trkpt lat="45.8369509" lon="11.5872371"><ele>1015.0</ele><time>2026-04-26T12:31:17.39Z</time></trkpt><trkpt lat="45.8368412" lon="11.5870227"><ele>1016.3333333333333</ele><time>2026-04-26T12:31:18.391Z</time></trkpt><trkpt lat="45.8367304" lon="11.5868145"><ele>1017.6666666666667</ele><time>2026-04-26T12:31:19.392Z</time></trkpt><trkpt lat="45.8366081" lon="11.5866245"><ele>1019.0</ele><time>2026-04-26T12:31:20.391Z</time></trkpt><trkpt lat="45.8364677" lon="11.5864535"><ele>1019.0</ele><time>2026-04-26T12:31:21.394Z</time></trkpt><trkpt lat="45.8363124" lon="11.5862952"><ele>1019.0</ele><time>2026-04-26T12:31:22.394Z</time></trkpt><trkpt lat="45.836148" lon="11.5861375"><ele>1019.0</ele><time>2026-04-26T12:31:23.392Z</time></trkpt><trkpt lat="45.8359775" lon="11.5859789"><ele>1024.0</ele><time>2026-04-26T12:31:24.392Z</time></trkpt><trkpt lat="45.8356583" lon="11.585673"><ele>1029.0</ele><time>2026-04-26T12:31:26.393Z</time></trkpt><trkpt lat="45.835523" lon="11.585539"><ele>1029.0</ele><time>2026-04-26T12:31:27.393Z</time></trkpt><trkpt lat="45.8354082" lon="11.5854248"><ele>1029.0</ele><time>2026-04-26T12:31:28.394Z</time></trkpt><trkpt lat="45.8353117" lon="11.5853291"><ele>1029.0</ele><time>2026-04-26T12:31:29.393Z</time></trkpt><trkpt lat="45.8352301" lon="11.585249"><ele>1029.0</ele><time>2026-04-26T12:31:30.391Z</time></trkpt><trkpt lat="45.8351652" lon="11.5851815"><ele>1029.0</ele><time>2026-04-26T12:31:31.392Z</time></trkpt><trkpt lat="45.8351146" lon="11.5851272"><ele>1030.0</ele><time>2026-04-26T12:31:32.393Z</time></trkpt><trkpt lat="45.835011" lon="11.5850101"><ele>1031.0</ele><time>2026-04-26T12:31:34.392Z</time></trkpt><trkpt lat="45.8349527" lon="11.5849141"><ele>1032.0</ele><time>2026-04-26T12:31:35.392Z</time></trkpt><trkpt lat="45.8348869" lon="11.5847867"><ele>1033.0</ele><time>2026-04-26T12:31:36.394Z</time></trkpt><trkpt lat="45.8348119" lon="11.5846227"><ele>1033.3333333333333</ele><time>2026-04-26T12:31:37.393Z</time></trkpt><trkpt lat="45.8347302" lon="11.584414"><ele>1033.6666666666667</ele><time>2026-04-26T12:31:38.394Z</time></trkpt><trkpt lat="45.8346457" lon="11.5841803"><ele>1034.0</ele><time>2026-04-26T12:31:39.396Z</time></trkpt><trkpt lat="45.8345684" lon="11.5839657"><ele>1034.0</ele><time>2026-04-26T12:31:40.393Z</time></trkpt><trkpt lat="45.8344974" lon="11.5837633"><ele>1034.0</ele><time>2026-04-26T12:31:41.391Z</time></trkpt><trkpt lat="45.8344322" lon="11.583552"><ele>1034.0</ele><time>2026-04-26T12:31:42.392Z</time></trkpt><trkpt lat="45.834379" lon="11.5833248"><ele>1031.0</ele><time>2026-04-26T12:31:43.391Z</time></trkpt><trkpt lat="45.8343423" lon="11.5830829"><ele>1028.0</ele><time>2026-04-26T12:31:44.389Z</time></trkpt><trkpt lat="45.8343142" lon="11.5828238"><ele>1025.0</ele><time>2026-04-26T12:31:45.394Z</time></trkpt><trkpt lat="45.8342743" lon="11.5823131"><ele>1025.0</ele><time>2026-04-26T12:31:47.391Z</time></trkpt><trkpt lat="45.8342588" lon="11.5820694"><ele>1025.0</ele><time>2026-04-26T12:31:48.393Z</time></trkpt><trkpt lat="45.834246" lon="11.5818251"><ele>1025.0</ele><time>2026-04-26T12:31:49.391Z</time></trkpt><trkpt lat="45.8342337" lon="11.5815794"><ele>1025.0</ele><time>2026-04-26T12:31:50.392Z</time></trkpt><trkpt lat="45.8342233" lon="11.5813372"><ele>1025.0</ele><time>2026-04-26T12:31:51.394Z</time></trkpt><trkpt lat="45.834213" lon="11.5811023"><ele>1025.0</ele><time>2026-04-26T12:31:52.393Z</time></trkpt><trkpt lat="45.8341995" lon="11.5808676"><ele>1025.0</ele><time>2026-04-26T12:31:53.395Z</time></trkpt><trkpt lat="45.8341856" lon="11.5806305"><ele>1025.0</ele><time>2026-04-26T12:31:54.392Z</time></trkpt><trkpt lat="45.8341718" lon="11.580393"><ele>1025.0</ele><time>2026-04-26T12:31:55.392Z</time></trkpt><trkpt lat="45.8341565" lon="11.5801554"><ele>1024.0</ele><time>2026-04-26T12:31:56.393Z</time></trkpt><trkpt lat="45.8341409" lon="11.5799183"><ele>1023.0</ele><time>2026-04-26T12:31:57.391Z</time></trkpt><trkpt lat="45.8341322" lon="11.5797762"><ele>1022.0</ele><time>2026-04-26T12:31:57.994Z</time></trkpt><trkpt lat="45.8341114" lon="11.5794482"><ele>1022.0</ele><time>2026-04-26T12:31:59.393Z</time></trkpt><trkpt lat="45.8340959" lon="11.5792186"><ele>1022.0</ele><time>2026-04-26T12:32:00.394Z</time></trkpt><trkpt lat="45.8340825" lon="11.5789904"><ele>1022.0</ele><time>2026-04-26T12:32:01.392Z</time></trkpt><trkpt lat="45.8340668" lon="11.5787626"><ele>1022.6666666666667</ele><time>2026-04-26T12:32:02.395Z</time></trkpt><trkpt lat="45.8340541" lon="11.5785302"><ele>1023.3333333333333</ele><time>2026-04-26T12:32:03.393Z</time></trkpt><trkpt lat="45.8340408" lon="11.5782949"><ele>1024.0</ele><time>2026-04-26T12:32:04.394Z</time></trkpt><trkpt lat="45.8340255" lon="11.5780557"><ele>1024.5</ele><time>2026-04-26T12:32:05.395Z</time></trkpt><trkpt lat="45.8340088" lon="11.577811"><ele>1025.0</ele><time>2026-04-26T12:32:06.393Z</time></trkpt><trkpt lat="45.8339784" lon="11.5773256"><ele>1025.0</ele><time>2026-04-26T12:32:08.392Z</time></trkpt><trkpt lat="45.8339644" lon="11.5770992"><ele>1025.0</ele><time>2026-04-26T12:32:09.392Z</time></trkpt><trkpt lat="45.8339507" lon="11.5768872"><ele>1025.0</ele><time>2026-04-26T12:32:10.394Z</time></trkpt><trkpt lat="45.8339383" lon="11.5766896"><ele>1025.0</ele><time>2026-04-26T12:32:11.393Z</time></trkpt><trkpt lat="45.8339278" lon="11.5765007"><ele>1025.0</ele><time>2026-04-26T12:32:12.395Z</time></trkpt><trkpt lat="45.8339156" lon="11.5763108"><ele>1025.0</ele><time>2026-04-26T12:32:13.409Z</time></trkpt><trkpt lat="45.8339026" lon="11.5761216"><ele>1025.0</ele><time>2026-04-26T12:32:14.393Z</time></trkpt><trkpt lat="45.8338897" lon="11.5759313"><ele>1025.0</ele><time>2026-04-26T12:32:15.395Z</time></trkpt><trkpt lat="45.8338779" lon="11.5757413"><ele>1025.5</ele><time>2026-04-26T12:32:16.39Z</time></trkpt><trkpt lat="45.8338664" lon="11.575551"><ele>1026.0</ele><time>2026-04-26T12:32:17.392Z</time></trkpt><trkpt lat="45.8338656" lon="11.5753604"><ele>1026.5</ele><time>2026-04-26T12:32:18.393Z</time></trkpt><trkpt lat="45.8338856" lon="11.5751722"><ele>1027.0</ele><time>2026-04-26T12:32:19.394Z</time></trkpt><trkpt lat="45.8339243" lon="11.5749832"><ele>1028.3333333333333</ele><time>2026-04-26T12:32:20.395Z</time></trkpt><trkpt lat="45.8339758" lon="11.5747887"><ele>1029.6666666666667</ele><time>2026-04-26T12:32:21.409Z</time></trkpt><trkpt lat="45.8340381" lon="11.5745888"><ele>1031.0</ele><time>2026-04-26T12:32:22.394Z</time></trkpt><trkpt lat="45.834107" lon="11.5743839"><ele>1032.0</ele><time>2026-04-26T12:32:23.396Z</time></trkpt><trkpt lat="45.8341783" lon="11.5741804"><ele>1033.0</ele><time>2026-04-26T12:32:24.394Z</time></trkpt><trkpt lat="45.8342478" lon="11.5739814"><ele>1034.0</ele><time>2026-04-26T12:32:25.394Z</time></trkpt><trkpt lat="45.8343179" lon="11.573788"><ele>1042.5</ele><time>2026-04-26T12:32:26.395Z</time></trkpt><trkpt lat="45.8343967" lon="11.5735967"><ele>1051.0</ele><time>2026-04-26T12:32:27.395Z</time></trkpt><trkpt lat="45.8345887" lon="11.573224"><ele>1051.0</ele><time>2026-04-26T12:32:29.395Z</time></trkpt><trkpt lat="45.834695" lon="11.5730332"><ele>1051.0</ele><time>2026-04-26T12:32:30.392Z</time></trkpt><trkpt lat="45.8348016" lon="11.5728367"><ele>1051.0</ele><time>2026-04-26T12:32:31.392Z</time></trkpt><trkpt lat="45.834906" lon="11.5726403"><ele>1054.0</ele><time>2026-04-26T12:32:32.393Z</time></trkpt><trkpt lat="45.835004" lon="11.5724461"><ele>1057.0</ele><time>2026-04-26T12:32:33.392Z</time></trkpt><trkpt lat="45.835093" lon="11.5722519"><ele>1060.0</ele><time>2026-04-26T12:32:34.392Z</time></trkpt><trkpt lat="45.8351727" lon="11.5720527"><ele>1053.0</ele><time>2026-04-26T12:32:35.392Z</time></trkpt><trkpt lat="45.8352483" lon="11.571849"><ele>1046.0</ele><time>2026-04-26T12:32:36.394Z</time></trkpt><trkpt lat="45.8353232" lon="11.5716438"><ele>1039.0</ele><time>2026-04-26T12:32:37.394Z</time></trkpt><trkpt lat="45.8353974" lon="11.5714361"><ele>1039.0</ele><time>2026-04-26T12:32:38.394Z</time></trkpt><trkpt lat="45.8354737" lon="11.5712255"><ele>1039.0</ele><time>2026-04-26T12:32:39.393Z</time></trkpt><trkpt lat="45.8355507" lon="11.5710098"><ele>1039.0</ele><time>2026-04-26T12:32:40.393Z</time></trkpt><trkpt lat="45.8356278" lon="11.5707905"><ele>1039.0</ele><time>2026-04-26T12:32:41.394Z</time></trkpt><trkpt lat="45.8357056" lon="11.5705684"><ele>1039.0</ele><time>2026-04-26T12:32:42.394Z</time></trkpt><trkpt lat="45.8357818" lon="11.5703462"><ele>1039.0</ele><time>2026-04-26T12:32:43.394Z</time></trkpt><trkpt lat="45.835856" lon="11.570134"><ele>1039.6666666666665</ele><time>2026-04-26T12:32:44.393Z</time></trkpt><trkpt lat="45.8359269" lon="11.5699325"><ele>1040.3333333333333</ele><time>2026-04-26T12:32:45.395Z</time></trkpt><trkpt lat="45.835996" lon="11.5697349"><ele>1041.0</ele><time>2026-04-26T12:32:46.393Z</time></trkpt><trkpt lat="45.8360634" lon="11.5695341"><ele>1044.0</ele><time>2026-04-26T12:32:47.395Z</time></trkpt><trkpt lat="45.8361314" lon="11.5693326"><ele>1047.0</ele><time>2026-04-26T12:32:48.394Z</time></trkpt><trkpt lat="45.8362547" lon="11.568924"><ele>1047.0</ele><time>2026-04-26T12:32:50.394Z</time></trkpt><trkpt lat="45.8363045" lon="11.5687143"><ele>1047.0</ele><time>2026-04-26T12:32:51.393Z</time></trkpt><trkpt lat="45.836346" lon="11.5685033"><ele>1047.0</ele><time>2026-04-26T12:32:52.394Z</time></trkpt><trkpt lat="45.8363786" lon="11.5682909"><ele>1048.3333333333333</ele><time>2026-04-26T12:32:53.392Z</time></trkpt><trkpt lat="45.8364034" lon="11.5680743"><ele>1049.6666666666665</ele><time>2026-04-26T12:32:54.393Z</time></trkpt><trkpt lat="45.8364166" lon="11.567854"><ele>1051.0</ele><time>2026-04-26T12:32:55.39Z</time></trkpt><trkpt lat="45.8364179" lon="11.5676281"><ele>1052.3333333333333</ele><time>2026-04-26T12:32:56.391Z</time></trkpt><trkpt lat="45.8364071" lon="11.567397"><ele>1053.6666666666667</ele><time>2026-04-26T12:32:57.392Z</time></trkpt><trkpt lat="45.8363865" lon="11.5671643"><ele>1055.0</ele><time>2026-04-26T12:32:58.392Z</time></trkpt><trkpt lat="45.836364" lon="11.5669771"><ele>1056.6666666666667</ele><time>2026-04-26T12:32:59.193Z</time></trkpt><trkpt lat="45.8363185" lon="11.5666978"><ele>1058.3333333333333</ele><time>2026-04-26T12:33:00.397Z</time></trkpt><trkpt lat="45.8362691" lon="11.5664705"><ele>1060.0</ele><time>2026-04-26T12:33:01.394Z</time></trkpt><trkpt lat="45.836213" lon="11.5662502"><ele>1060.6666666666665</ele><time>2026-04-26T12:33:02.394Z</time></trkpt><trkpt lat="45.836157" lon="11.5660308"><ele>1061.3333333333333</ele><time>2026-04-26T12:33:03.392Z</time></trkpt><trkpt lat="45.8361006" lon="11.5658124"><ele>1062.0</ele><time>2026-04-26T12:33:04.392Z</time></trkpt><trkpt lat="45.8360423" lon="11.5655949"><ele>1062.0</ele><time>2026-04-26T12:33:05.393Z</time></trkpt><trkpt lat="45.8359773" lon="11.5653815"><ele>1062.0</ele><time>2026-04-26T12:33:06.395Z</time></trkpt><trkpt lat="45.8359055" lon="11.5651719"><ele>1062.0</ele><time>2026-04-26T12:33:07.394Z</time></trkpt><trkpt lat="45.8358279" lon="11.564962"><ele>1060.5</ele><time>2026-04-26T12:33:08.392Z</time></trkpt><trkpt lat="45.8357476" lon="11.5647481"><ele>1059.0</ele><time>2026-04-26T12:33:09.394Z</time></trkpt><trkpt lat="45.8355896" lon="11.5643162"><ele>1062.0</ele><time>2026-04-26T12:33:11.392Z</time></trkpt><trkpt lat="45.8355106" lon="11.5640992"><ele>1065.0</ele><time>2026-04-26T12:33:12.393Z</time></trkpt><trkpt lat="45.8354338" lon="11.5638909"><ele>1068.0</ele><time>2026-04-26T12:33:13.39Z</time></trkpt><trkpt lat="45.8353645" lon="11.563692"><ele>1070.0</ele><time>2026-04-26T12:33:14.391Z</time></trkpt><trkpt lat="45.8353056" lon="11.5635069"><ele>1072.0</ele><time>2026-04-26T12:33:15.392Z</time></trkpt><trkpt lat="45.8352599" lon="11.5633305"><ele>1074.0</ele><time>2026-04-26T12:33:16.392Z</time></trkpt><trkpt lat="45.8352302" lon="11.5631562"><ele>1076.0</ele><time>2026-04-26T12:33:17.392Z</time></trkpt><trkpt lat="45.8352091" lon="11.5629823"><ele>1076.0</ele><time>2026-04-26T12:33:18.392Z</time></trkpt><trkpt lat="45.8351947" lon="11.5628003"><ele>1076.0</ele><time>2026-04-26T12:33:19.391Z</time></trkpt><trkpt lat="45.8351959" lon="11.5626083"><ele>1076.0</ele><time>2026-04-26T12:33:20.391Z</time></trkpt><trkpt lat="45.8352123" lon="11.5624182"><ele>1076.0</ele><time>2026-04-26T12:33:21.39Z</time></trkpt><trkpt lat="45.8352434" lon="11.5622268"><ele>1075.25</ele><time>2026-04-26T12:33:22.39Z</time></trkpt><trkpt lat="45.8352828" lon="11.5620297"><ele>1074.5</ele><time>2026-04-26T12:33:23.39Z</time></trkpt><trkpt lat="45.8353253" lon="11.5618236"><ele>1073.75</ele><time>2026-04-26T12:33:24.393Z</time></trkpt><trkpt lat="45.8353697" lon="11.5616079"><ele>1073.0</ele><time>2026-04-26T12:33:25.393Z</time></trkpt><trkpt lat="45.8354149" lon="11.5613883"><ele>1074.0</ele><time>2026-04-26T12:33:26.392Z</time></trkpt><trkpt lat="45.83545" lon="11.5611666"><ele>1075.0</ele><time>2026-04-26T12:33:27.392Z</time></trkpt><trkpt lat="45.8354682" lon="11.5609391"><ele>1076.0</ele><time>2026-04-26T12:33:28.39Z</time></trkpt><trkpt lat="45.8354723" lon="11.5607079"><ele>1076.0</ele><time>2026-04-26T12:33:29.391Z</time></trkpt><trkpt lat="45.8354632" lon="11.5604915"><ele>1076.0</ele><time>2026-04-26T12:33:30.391Z</time></trkpt><trkpt lat="45.8354208" lon="11.560093"><ele>1076.0</ele><time>2026-04-26T12:33:32.392Z</time></trkpt><trkpt lat="45.8353987" lon="11.5598902"><ele>1077.75</ele><time>2026-04-26T12:33:33.392Z</time></trkpt><trkpt lat="45.8353745" lon="11.559687"><ele>1079.5</ele><time>2026-04-26T12:33:34.391Z</time></trkpt><trkpt lat="45.8353449" lon="11.5595036"><ele>1081.25</ele><time>2026-04-26T12:33:35.392Z</time></trkpt><trkpt lat="45.8353153" lon="11.5593557"><ele>1083.0</ele><time>2026-04-26T12:33:36.394Z</time></trkpt><trkpt lat="45.8352877" lon="11.5592378"><ele>1084.8</ele><time>2026-04-26T12:33:37.392Z</time></trkpt><trkpt lat="45.8352591" lon="11.5591509"><ele>1086.6</ele><time>2026-04-26T12:33:38.391Z</time></trkpt><trkpt lat="45.8352221" lon="11.5590521"><ele>1088.4</ele><time>2026-04-26T12:33:40.395Z</time></trkpt><trkpt lat="45.8351803" lon="11.5589837"><ele>1090.2</ele><time>2026-04-26T12:33:43.393Z</time></trkpt><trkpt lat="45.8351146" lon="11.5590478"><ele>1092.0</ele><time>2026-04-26T12:33:53.393Z</time></trkpt><trkpt lat="45.8350312" lon="11.5592856"><ele>1086.6</ele><time>2026-04-26T12:33:58.393Z</time></trkpt><trkpt lat="45.8350091" lon="11.559406"><ele>1081.2</ele><time>2026-04-26T12:34:00.392Z</time></trkpt><trkpt lat="45.834984" lon="11.5595044"><ele>1075.8</ele><time>2026-04-26T12:34:25.391Z</time></trkpt><trkpt lat="45.8349824" lon="11.5597654"><ele>1070.4</ele><time>2026-04-26T12:34:28.393Z</time></trkpt><trkpt lat="45.8349969" lon="11.5598746"><ele>1065.0</ele><time>2026-04-26T12:34:29.392Z</time></trkpt><trkpt lat="45.8350188" lon="11.5599676"><ele>1064.8</ele><time>2026-04-26T12:34:30.395Z</time></trkpt><trkpt lat="45.8350474" lon="11.5600793"><ele>1064.6</ele><time>2026-04-26T12:34:31.393Z</time></trkpt><trkpt lat="45.8350776" lon="11.5602181"><ele>1064.4</ele><time>2026-04-26T12:34:32.392Z</time></trkpt><trkpt lat="45.8350973" lon="11.5603686"><ele>1064.2</ele><time>2026-04-26T12:34:33.392Z</time></trkpt><trkpt lat="45.8351039" lon="11.5605088"><ele>1064.0</ele><time>2026-04-26T12:34:34.39Z</time></trkpt><trkpt lat="45.8350957" lon="11.5606445"><ele>1063.5</ele><time>2026-04-26T12:34:35.391Z</time></trkpt><trkpt lat="45.8350834" lon="11.5607951"><ele>1063.0</ele><time>2026-04-26T12:34:36.389Z</time></trkpt><trkpt lat="45.835073" lon="11.5609528"><ele>1062.5</ele><time>2026-04-26T12:34:37.392Z</time></trkpt><trkpt lat="45.8350539" lon="11.561077"><ele>1062.0</ele><time>2026-04-26T12:34:38.393Z</time></trkpt><trkpt lat="45.8350216" lon="11.5611709"><ele>1061.5</ele><time>2026-04-26T12:34:39.393Z</time></trkpt><trkpt lat="45.8349716" lon="11.5612419"><ele>1061.0</ele><time>2026-04-26T12:34:40.393Z</time></trkpt><trkpt lat="45.8349068" lon="11.5613019"><ele>1060.2</ele><time>2026-04-26T12:34:41.394Z</time></trkpt><trkpt lat="45.8348251" lon="11.5613368"><ele>1059.3999999999999</ele><time>2026-04-26T12:34:42.392Z</time></trkpt><trkpt lat="45.8347284" lon="11.5613396"><ele>1058.6</ele><time>2026-04-26T12:34:43.394Z</time></trkpt><trkpt lat="45.8346297" lon="11.5613425"><ele>1057.8</ele><time>2026-04-26T12:34:44.393Z</time></trkpt><trkpt lat="45.8345438" lon="11.5613744"><ele>1057.0</ele><time>2026-04-26T12:34:45.392Z</time></trkpt><trkpt lat="45.8344662" lon="11.5614378"><ele>1057.0</ele><time>2026-04-26T12:34:46.393Z</time></trkpt><trkpt lat="45.8343436" lon="11.561635"><ele>1057.0</ele><time>2026-04-26T12:34:48.394Z</time></trkpt><trkpt lat="45.8343011" lon="11.5617576"><ele>1057.0</ele><time>2026-04-26T12:34:49.392Z</time></trkpt><trkpt lat="45.8342602" lon="11.5618992"><ele>1057.0</ele><time>2026-04-26T12:34:50.392Z</time></trkpt><trkpt lat="45.8342204" lon="11.5620249"><ele>1059.0</ele><time>2026-04-26T12:34:51.392Z</time></trkpt><trkpt lat="45.8341703" lon="11.5621332"><ele>1061.0</ele><time>2026-04-26T12:34:52.393Z</time></trkpt><trkpt lat="45.8341084" lon="11.5622403"><ele>1063.0</ele><time>2026-04-26T12:34:53.392Z</time></trkpt><trkpt lat="45.8340465" lon="11.5623563"><ele>1065.0</ele><time>2026-04-26T12:34:54.393Z</time></trkpt><trkpt lat="45.8340107" lon="11.5624841"><ele>1067.0</ele><time>2026-04-26T12:34:55.392Z</time></trkpt><trkpt lat="45.8339894" lon="11.5626164"><ele>1067.0</ele><time>2026-04-26T12:34:56.391Z</time></trkpt><trkpt lat="45.8339795" lon="11.5627547"><ele>1067.0</ele><time>2026-04-26T12:34:57.39Z</time></trkpt><trkpt lat="45.8339636" lon="11.5628987"><ele>1067.0</ele><time>2026-04-26T12:34:58.388Z</time></trkpt><trkpt lat="45.8339544" lon="11.5630525"><ele>1067.0</ele><time>2026-04-26T12:34:59.388Z</time></trkpt><trkpt lat="45.8339486" lon="11.5632124"><ele>1067.0</ele><time>2026-04-26T12:35:00.391Z</time></trkpt><trkpt lat="45.8339514" lon="11.5633627"><ele>1066.8</ele><time>2026-04-26T12:35:01.39Z</time></trkpt><trkpt lat="45.8339637" lon="11.5635017"><ele>1066.6</ele><time>2026-04-26T12:35:02.389Z</time></trkpt><trkpt lat="45.833984" lon="11.5636403"><ele>1066.3999999999999</ele><time>2026-04-26T12:35:03.392Z</time></trkpt><trkpt lat="45.834019" lon="11.5637782"><ele>1066.2</ele><time>2026-04-26T12:35:04.391Z</time></trkpt><trkpt lat="45.8340555" lon="11.5639252"><ele>1066.0</ele><time>2026-04-26T12:35:05.391Z</time></trkpt><trkpt lat="45.8341024" lon="11.5640693"><ele>1068.3333333333333</ele><time>2026-04-26T12:35:06.392Z</time></trkpt><trkpt lat="45.8341732" lon="11.5642079"><ele>1070.6666666666667</ele><time>2026-04-26T12:35:07.39Z</time></trkpt><trkpt lat="45.834323" lon="11.5644868"><ele>1073.0</ele><time>2026-04-26T12:35:09.395Z</time></trkpt><trkpt lat="45.8344047" lon="11.5646168"><ele>1073.0</ele><time>2026-04-26T12:35:10.391Z</time></trkpt><trkpt lat="45.8344859" lon="11.5647461"><ele>1073.0</ele><time>2026-04-26T12:35:11.389Z</time></trkpt><trkpt lat="45.8345666" lon="11.5648647"><ele>1073.0</ele><time>2026-04-26T12:35:12.392Z</time></trkpt><trkpt lat="45.8346408" lon="11.5649813"><ele>1073.0</ele><time>2026-04-26T12:35:13.389Z</time></trkpt><trkpt lat="45.8347149" lon="11.5650971"><ele>1073.0</ele><time>2026-04-26T12:35:14.389Z</time></trkpt><trkpt lat="45.8347838" lon="11.5652301"><ele>1073.0</ele><time>2026-04-26T12:35:15.391Z</time></trkpt><trkpt lat="45.8348519" lon="11.5653621"><ele>1073.0</ele><time>2026-04-26T12:35:16.392Z</time></trkpt><trkpt lat="45.8349019" lon="11.5654885"><ele>1073.0</ele><time>2026-04-26T12:35:17.391Z</time></trkpt><trkpt lat="45.8349436" lon="11.5655975"><ele>1073.0</ele><time>2026-04-26T12:35:18.391Z</time></trkpt><trkpt lat="45.8349996" lon="11.5656977"><ele>1070.8</ele><time>2026-04-26T12:35:19.393Z</time></trkpt><trkpt lat="45.8350637" lon="11.5657893"><ele>1068.6</ele><time>2026-04-26T12:35:20.391Z</time></trkpt><trkpt lat="45.8350951" lon="11.5659188"><ele>1066.4</ele><time>2026-04-26T12:35:21.39Z</time></trkpt><trkpt lat="45.8351267" lon="11.5660566"><ele>1064.2</ele><time>2026-04-26T12:35:22.388Z</time></trkpt><trkpt lat="45.8351693" lon="11.5661959"><ele>1062.0</ele><time>2026-04-26T12:35:23.39Z</time></trkpt><trkpt lat="45.8352065" lon="11.5663065"><ele>1062.0</ele><time>2026-04-26T12:35:24.189Z</time></trkpt><trkpt lat="45.8352471" lon="11.566478"><ele>1062.0</ele><time>2026-04-26T12:35:25.389Z</time></trkpt><trkpt lat="45.8352718" lon="11.5666213"><ele>1062.0</ele><time>2026-04-26T12:35:26.39Z</time></trkpt><trkpt lat="45.8352902" lon="11.5667899"><ele>1062.0</ele><time>2026-04-26T12:35:27.39Z</time></trkpt><trkpt lat="45.8353099" lon="11.566957"><ele>1061.5</ele><time>2026-04-26T12:35:28.389Z</time></trkpt><trkpt lat="45.8353223" lon="11.5672903"><ele>1061.0</ele><time>2026-04-26T12:35:30.39Z</time></trkpt><trkpt lat="45.8353183" lon="11.5674346"><ele>1060.5</ele><time>2026-04-26T12:35:31.389Z</time></trkpt><trkpt lat="45.8353037" lon="11.5675688"><ele>1060.0</ele><time>2026-04-26T12:35:32.389Z</time></trkpt><trkpt lat="45.83527" lon="11.5677105"><ele>1059.2</ele><time>2026-04-26T12:35:33.39Z</time></trkpt><trkpt lat="45.8352309" lon="11.5678621"><ele>1058.4</ele><time>2026-04-26T12:35:34.389Z</time></trkpt><trkpt lat="45.8351867" lon="11.5680004"><ele>1057.6</ele><time>2026-04-26T12:35:35.39Z</time></trkpt><trkpt lat="45.8351253" lon="11.5681246"><ele>1056.8</ele><time>2026-04-26T12:35:36.39Z</time></trkpt><trkpt lat="45.8350591" lon="11.5682519"><ele>1056.0</ele><time>2026-04-26T12:35:37.392Z</time></trkpt><trkpt lat="45.8349942" lon="11.5683855"><ele>1060.8</ele><time>2026-04-26T12:35:38.391Z</time></trkpt><trkpt lat="45.8349299" lon="11.568523"><ele>1065.6</ele><time>2026-04-26T12:35:39.393Z</time></trkpt><trkpt lat="45.8348516" lon="11.5686382"><ele>1070.4</ele><time>2026-04-26T12:35:40.391Z</time></trkpt><trkpt lat="45.8347834" lon="11.5687595"><ele>1075.2</ele><time>2026-04-26T12:35:41.391Z</time></trkpt><trkpt lat="45.8346979" lon="11.5688558"><ele>1080.0</ele><time>2026-04-26T12:35:42.392Z</time></trkpt><trkpt lat="45.8346048" lon="11.5689373"><ele>1080.0</ele><time>2026-04-26T12:35:43.392Z</time></trkpt><trkpt lat="45.8345058" lon="11.5690179"><ele>1080.0</ele><time>2026-04-26T12:35:44.391Z</time></trkpt><trkpt lat="45.8344" lon="11.569086"><ele>1080.0</ele><time>2026-04-26T12:35:45.392Z</time></trkpt><trkpt lat="45.834306" lon="11.5691501"><ele>1080.0</ele><time>2026-04-26T12:35:46.391Z</time></trkpt><trkpt lat="45.8341998" lon="11.5691931"><ele>1080.0</ele><time>2026-04-26T12:35:47.389Z</time></trkpt><trkpt lat="45.834089" lon="11.569225"><ele>1090.3333333333333</ele><time>2026-04-26T12:35:48.388Z</time></trkpt><trkpt lat="45.8339732" lon="11.569248"><ele>1100.6666666666665</ele><time>2026-04-26T12:35:49.389Z</time></trkpt><trkpt lat="45.8337318" lon="11.5693137"><ele>1111.0</ele><time>2026-04-26T12:35:51.39Z</time></trkpt><trkpt lat="45.8336087" lon="11.569363"><ele>1111.0</ele><time>2026-04-26T12:35:52.389Z</time></trkpt><trkpt lat="45.8334898" lon="11.5694142"><ele>1111.0</ele><time>2026-04-26T12:35:53.389Z</time></trkpt><trkpt lat="45.8333774" lon="11.5694654"><ele>1111.0</ele><time>2026-04-26T12:35:54.39Z</time></trkpt><trkpt lat="45.8332643" lon="11.5695049"><ele>1111.0</ele><time>2026-04-26T12:35:55.39Z</time></trkpt><trkpt lat="45.8331428" lon="11.5695456"><ele>1106.0</ele><time>2026-04-26T12:35:56.388Z</time></trkpt><trkpt lat="45.8330225" lon="11.5695961"><ele>1101.0</ele><time>2026-04-26T12:35:57.39Z</time></trkpt><trkpt lat="45.8329095" lon="11.5696571"><ele>1096.0</ele><time>2026-04-26T12:35:58.389Z</time></trkpt><trkpt lat="45.8328045" lon="11.5697257"><ele>1091.0</ele><time>2026-04-26T12:35:59.389Z</time></trkpt><trkpt lat="45.8327034" lon="11.5698059"><ele>1096.75</ele><time>2026-04-26T12:36:00.39Z</time></trkpt><trkpt lat="45.8325869" lon="11.569883"><ele>1102.5</ele><time>2026-04-26T12:36:01.393Z</time></trkpt><trkpt lat="45.832463" lon="11.5699369"><ele>1108.25</ele><time>2026-04-26T12:36:02.391Z</time></trkpt><trkpt lat="45.8323335" lon="11.5699901"><ele>1114.0</ele><time>2026-04-26T12:36:03.392Z</time></trkpt><trkpt lat="45.8322111" lon="11.5700283"><ele>1114.0</ele><time>2026-04-26T12:36:04.388Z</time></trkpt><trkpt lat="45.8320943" lon="11.5700503"><ele>1114.0</ele><time>2026-04-26T12:36:05.39Z</time></trkpt><trkpt lat="45.8319749" lon="11.5700551"><ele>1114.0</ele><time>2026-04-26T12:36:06.392Z</time></trkpt><trkpt lat="45.8318721" lon="11.5700493"><ele>1114.0</ele><time>2026-04-26T12:36:07.189Z</time></trkpt><trkpt lat="45.8317196" lon="11.5700378"><ele>1117.6666666666665</ele><time>2026-04-26T12:36:08.39Z</time></trkpt><trkpt lat="45.8315934" lon="11.5700065"><ele>1121.3333333333333</ele><time>2026-04-26T12:36:09.393Z</time></trkpt><trkpt lat="45.8314622" lon="11.5700012"><ele>1125.0</ele><time>2026-04-26T12:36:10.39Z</time></trkpt><trkpt lat="45.8312215" lon="11.5699798"><ele>1125.0</ele><time>2026-04-26T12:36:12.388Z</time></trkpt><trkpt lat="45.8311026" lon="11.5699669"><ele>1125.0</ele><time>2026-04-26T12:36:13.389Z</time></trkpt><trkpt lat="45.8309806" lon="11.5699475"><ele>1125.0</ele><time>2026-04-26T12:36:14.389Z</time></trkpt><trkpt lat="45.830861" lon="11.5699149"><ele>1125.0</ele><time>2026-04-26T12:36:15.39Z</time></trkpt><trkpt lat="45.8307536" lon="11.5698753"><ele>1125.0</ele><time>2026-04-26T12:36:16.391Z</time></trkpt><trkpt lat="45.8306504" lon="11.5698673"><ele>1125.0</ele><time>2026-04-26T12:36:17.391Z</time></trkpt><trkpt lat="45.8305583" lon="11.5698728"><ele>1125.0</ele><time>2026-04-26T12:36:18.391Z</time></trkpt><trkpt lat="45.8304676" lon="11.5698379"><ele>1125.0</ele><time>2026-04-26T12:36:19.39Z</time></trkpt><trkpt lat="45.8303724" lon="11.5697749"><ele>1125.0</ele><time>2026-04-26T12:36:20.391Z</time></trkpt><trkpt lat="45.830262" lon="11.5697097"><ele>1125.0</ele><time>2026-04-26T12:36:21.392Z</time></trkpt><trkpt lat="45.8301478" lon="11.569644"><ele>1125.0</ele><time>2026-04-26T12:36:22.39Z</time></trkpt><trkpt lat="45.8300387" lon="11.5695722"><ele>1125.0</ele><time>2026-04-26T12:36:23.391Z</time></trkpt><trkpt lat="45.8299342" lon="11.5695065"><ele>1125.0</ele><time>2026-04-26T12:36:24.391Z</time></trkpt><trkpt lat="45.8298259" lon="11.5694513"><ele>1130.75</ele><time>2026-04-26T12:36:25.39Z</time></trkpt><trkpt lat="45.8297065" lon="11.5694113"><ele>1136.5</ele><time>2026-04-26T12:36:26.39Z</time></trkpt><trkpt lat="45.8295794" lon="11.5693795"><ele>1142.25</ele><time>2026-04-26T12:36:27.39Z</time></trkpt><trkpt lat="45.8294596" lon="11.5693477"><ele>1148.0</ele><time>2026-04-26T12:36:28.389Z</time></trkpt><trkpt lat="45.8293503" lon="11.5693166"><ele>1145.5</ele><time>2026-04-26T12:36:29.391Z</time></trkpt><trkpt lat="45.8292527" lon="11.5692806"><ele>1143.0</ele><time>2026-04-26T12:36:30.389Z</time></trkpt><trkpt lat="45.8291547" lon="11.5692326"><ele>1140.5</ele><time>2026-04-26T12:36:31.39Z</time></trkpt><trkpt lat="45.8289488" lon="11.5690818"><ele>1138.0</ele><time>2026-04-26T12:36:33.39Z</time></trkpt><trkpt lat="45.828846" lon="11.5690104"><ele>1138.0</ele><time>2026-04-26T12:36:34.389Z</time></trkpt><trkpt lat="45.828737" lon="11.5689619"><ele>1138.0</ele><time>2026-04-26T12:36:35.388Z</time></trkpt><trkpt lat="45.8286288" lon="11.5689372"><ele>1138.0</ele><time>2026-04-26T12:36:36.389Z</time></trkpt><trkpt lat="45.8285274" lon="11.5689504"><ele>1138.0</ele><time>2026-04-26T12:36:37.389Z</time></trkpt><trkpt lat="45.8284278" lon="11.5689928"><ele>1138.0</ele><time>2026-04-26T12:36:38.389Z</time></trkpt><trkpt lat="45.8283293" lon="11.569059"><ele>1137.6</ele><time>2026-04-26T12:36:39.39Z</time></trkpt><trkpt lat="45.8282239" lon="11.5691122"><ele>1137.1999999999998</ele><time>2026-04-26T12:36:40.392Z</time></trkpt><trkpt lat="45.8281303" lon="11.569161"><ele>1136.8</ele><time>2026-04-26T12:36:41.389Z</time></trkpt><trkpt lat="45.8280543" lon="11.5692118"><ele>1136.3999999999999</ele><time>2026-04-26T12:36:42.39Z</time></trkpt><trkpt lat="45.8279742" lon="11.5692539"><ele>1136.0</ele><time>2026-04-26T12:36:43.392Z</time></trkpt><trkpt lat="45.8278935" lon="11.5692899"><ele>1136.0</ele><time>2026-04-26T12:36:44.391Z</time></trkpt><trkpt lat="45.8278196" lon="11.5693"><ele>1136.0</ele><time>2026-04-26T12:36:45.391Z</time></trkpt><trkpt lat="45.8277342" lon="11.5692812"><ele>1136.0</ele><time>2026-04-26T12:36:46.392Z</time></trkpt><trkpt lat="45.8276424" lon="11.569226"><ele>1136.0</ele><time>2026-04-26T12:36:47.391Z</time></trkpt><trkpt lat="45.8275383" lon="11.5691418"><ele>1136.0</ele><time>2026-04-26T12:36:48.392Z</time></trkpt><trkpt lat="45.8274255" lon="11.5690471"><ele>1137.25</ele><time>2026-04-26T12:36:49.39Z</time></trkpt><trkpt lat="45.8273076" lon="11.5689531"><ele>1138.5</ele><time>2026-04-26T12:36:50.393Z</time></trkpt><trkpt lat="45.8271924" lon="11.5688547"><ele>1139.75</ele><time>2026-04-26T12:36:51.391Z</time></trkpt><trkpt lat="45.8270803" lon="11.5687562"><ele>1141.0</ele><time>2026-04-26T12:36:52.393Z</time></trkpt><trkpt lat="45.8268555" lon="11.568567"><ele>1140.75</ele><time>2026-04-26T12:36:54.392Z</time></trkpt><trkpt lat="45.8267449" lon="11.5684736"><ele>1140.5</ele><time>2026-04-26T12:36:55.392Z</time></trkpt><trkpt lat="45.8266419" lon="11.5683862"><ele>1140.25</ele><time>2026-04-26T12:36:56.394Z</time></trkpt><trkpt lat="45.8265467" lon="11.5682944"><ele>1140.0</ele><time>2026-04-26T12:36:57.392Z</time></trkpt><trkpt lat="45.8264557" lon="11.5681873"><ele>1140.0</ele><time>2026-04-26T12:36:58.392Z</time></trkpt><trkpt lat="45.8263693" lon="11.5680687"><ele>1140.0</ele><time>2026-04-26T12:36:59.391Z</time></trkpt><trkpt lat="45.826288" lon="11.5679462"><ele>1140.0</ele><time>2026-04-26T12:37:00.391Z</time></trkpt><trkpt lat="45.8262079" lon="11.5678156"><ele>1140.0</ele><time>2026-04-26T12:37:01.391Z</time></trkpt><trkpt lat="45.8261246" lon="11.5676809"><ele>1140.8</ele><time>2026-04-26T12:37:02.392Z</time></trkpt><trkpt lat="45.8260399" lon="11.5675714"><ele>1141.6</ele><time>2026-04-26T12:37:03.395Z</time></trkpt><trkpt lat="45.8259563" lon="11.5674853"><ele>1142.4</ele><time>2026-04-26T12:37:04.393Z</time></trkpt><trkpt lat="45.8258708" lon="11.5674237"><ele>1143.2</ele><time>2026-04-26T12:37:05.391Z</time></trkpt><trkpt lat="45.8257769" lon="11.5673724"><ele>1144.0</ele><time>2026-04-26T12:37:06.394Z</time></trkpt><trkpt lat="45.8256725" lon="11.5673185"><ele>1144.0</ele><time>2026-04-26T12:37:07.392Z</time></trkpt><trkpt lat="45.825564" lon="11.5672659"><ele>1144.0</ele><time>2026-04-26T12:37:08.394Z</time></trkpt><trkpt lat="45.8254517" lon="11.5672083"><ele>1144.0</ele><time>2026-04-26T12:37:09.394Z</time></trkpt><trkpt lat="45.8253384" lon="11.5671495"><ele>1144.0</ele><time>2026-04-26T12:37:10.394Z</time></trkpt><trkpt lat="45.8252249" lon="11.5670863"><ele>1148.0</ele><time>2026-04-26T12:37:11.395Z</time></trkpt><trkpt lat="45.8251132" lon="11.5670219"><ele>1152.0</ele><time>2026-04-26T12:37:12.395Z</time></trkpt><trkpt lat="45.8250041" lon="11.5669597"><ele>1156.0</ele><time>2026-04-26T12:37:13.395Z</time></trkpt><trkpt lat="45.8247742" lon="11.5668793"><ele>1156.0</ele><time>2026-04-26T12:37:15.395Z</time></trkpt><trkpt lat="45.8246511" lon="11.566862"><ele>1156.0</ele><time>2026-04-26T12:37:16.393Z</time></trkpt><trkpt lat="45.8245259" lon="11.5668574"><ele>1156.0</ele><time>2026-04-26T12:37:17.394Z</time></trkpt><trkpt lat="45.8244015" lon="11.5668667"><ele>1156.0</ele><time>2026-04-26T12:37:18.395Z</time></trkpt><trkpt lat="45.8242767" lon="11.5668851"><ele>1155.75</ele><time>2026-04-26T12:37:19.394Z</time></trkpt><trkpt lat="45.8241511" lon="11.5669081"><ele>1155.5</ele><time>2026-04-26T12:37:20.394Z</time></trkpt><trkpt lat="45.8240271" lon="11.5669333"><ele>1155.25</ele><time>2026-04-26T12:37:21.392Z</time></trkpt><trkpt lat="45.8239018" lon="11.5669632"><ele>1155.0</ele><time>2026-04-26T12:37:22.394Z</time></trkpt><trkpt lat="45.8237806" lon="11.5669988"><ele>1154.75</ele><time>2026-04-26T12:37:23.396Z</time></trkpt><trkpt lat="45.8236665" lon="11.5670338"><ele>1154.5</ele><time>2026-04-26T12:37:24.392Z</time></trkpt><trkpt lat="45.8235557" lon="11.5670626"><ele>1154.25</ele><time>2026-04-26T12:37:25.393Z</time></trkpt><trkpt lat="45.8234435" lon="11.5670773"><ele>1154.0</ele><time>2026-04-26T12:37:26.389Z</time></trkpt><trkpt lat="45.8233302" lon="11.5670777"><ele>1154.0</ele><time>2026-04-26T12:37:27.392Z</time></trkpt><trkpt lat="45.8232167" lon="11.5670573"><ele>1154.0</ele><time>2026-04-26T12:37:28.394Z</time></trkpt><trkpt lat="45.8231054" lon="11.5670178"><ele>1154.0</ele><time>2026-04-26T12:37:29.392Z</time></trkpt><trkpt lat="45.8229938" lon="11.5669678"><ele>1154.0</ele><time>2026-04-26T12:37:30.394Z</time></trkpt><trkpt lat="45.8228816" lon="11.5669185"><ele>1154.25</ele><time>2026-04-26T12:37:31.392Z</time></trkpt><trkpt lat="45.8227686" lon="11.5668714"><ele>1154.5</ele><time>2026-04-26T12:37:32.394Z</time></trkpt><trkpt lat="45.8226545" lon="11.5668306"><ele>1154.75</ele><time>2026-04-26T12:37:33.394Z</time></trkpt><trkpt lat="45.822537" lon="11.5667943"><ele>1155.0</ele><time>2026-04-26T12:37:34.394Z</time></trkpt><trkpt lat="45.8222932" lon="11.5667294"><ele>1155.2</ele><time>2026-04-26T12:37:36.397Z</time></trkpt><trkpt lat="45.8221738" lon="11.5666919"><ele>1155.4</ele><time>2026-04-26T12:37:37.396Z</time></trkpt><trkpt lat="45.8220583" lon="11.566652"><ele>1155.6</ele><time>2026-04-26T12:37:38.395Z</time></trkpt><trkpt lat="45.8219573" lon="11.5666186"><ele>1155.8</ele><time>2026-04-26T12:37:39.396Z</time></trkpt><trkpt lat="45.8218604" lon="11.5665894"><ele>1156.0</ele><time>2026-04-26T12:37:40.396Z</time></trkpt><trkpt lat="45.8217608" lon="11.5665604"><ele>1156.8</ele><time>2026-04-26T12:37:41.396Z</time></trkpt><trkpt lat="45.8216578" lon="11.5665229"><ele>1157.6</ele><time>2026-04-26T12:37:42.396Z</time></trkpt><trkpt lat="45.8215568" lon="11.5664701"><ele>1158.4</ele><time>2026-04-26T12:37:43.396Z</time></trkpt><trkpt lat="45.8214566" lon="11.56641"><ele>1159.2</ele><time>2026-04-26T12:37:44.395Z</time></trkpt><trkpt lat="45.8213576" lon="11.5663448"><ele>1160.0</ele><time>2026-04-26T12:37:45.395Z</time></trkpt><trkpt lat="45.8212561" lon="11.5662795"><ele>1160.0</ele><time>2026-04-26T12:37:46.398Z</time></trkpt><trkpt lat="45.8211484" lon="11.5662198"><ele>1160.0</ele><time>2026-04-26T12:37:47.397Z</time></trkpt><trkpt lat="45.8210368" lon="11.566165"><ele>1160.0</ele><time>2026-04-26T12:37:48.396Z</time></trkpt><trkpt lat="45.8209334" lon="11.5661135"><ele>1160.0</ele><time>2026-04-26T12:37:49.394Z</time></trkpt><trkpt lat="45.8208489" lon="11.5660789"><ele>1160.0</ele><time>2026-04-26T12:37:50.392Z</time></trkpt><trkpt lat="45.8207792" lon="11.5660575"><ele>1160.6</ele><time>2026-04-26T12:37:51.393Z</time></trkpt><trkpt lat="45.8207121" lon="11.5660466"><ele>1161.2</ele><time>2026-04-26T12:37:52.394Z</time></trkpt><trkpt lat="45.8206356" lon="11.5660425"><ele>1161.8</ele><time>2026-04-26T12:37:53.394Z</time></trkpt><trkpt lat="45.8205483" lon="11.5660487"><ele>1162.4</ele><time>2026-04-26T12:37:54.396Z</time></trkpt><trkpt lat="45.8204495" lon="11.5660604"><ele>1163.0</ele><time>2026-04-26T12:37:55.395Z</time></trkpt><trkpt lat="45.8202185" lon="11.5660741"><ele>1162.5</ele><time>2026-04-26T12:37:57.396Z</time></trkpt><trkpt lat="45.820093" lon="11.5660677"><ele>1162.0</ele><time>2026-04-26T12:37:58.397Z</time></trkpt><trkpt lat="45.8199657" lon="11.5660646"><ele>1161.5</ele><time>2026-04-26T12:37:59.395Z</time></trkpt><trkpt lat="45.8198457" lon="11.5660662"><ele>1161.0</ele><time>2026-04-26T12:38:00.396Z</time></trkpt><trkpt lat="45.8197367" lon="11.5660669"><ele>1161.0</ele><time>2026-04-26T12:38:01.396Z</time></trkpt><trkpt lat="45.8196387" lon="11.5660679"><ele>1161.0</ele><time>2026-04-26T12:38:02.396Z</time></trkpt><trkpt lat="45.8195479" lon="11.5660699"><ele>1161.0</ele><time>2026-04-26T12:38:03.396Z</time></trkpt><trkpt lat="45.8194576" lon="11.5660737"><ele>1161.0</ele><time>2026-04-26T12:38:04.397Z</time></trkpt><trkpt lat="45.8193635" lon="11.5660827"><ele>1161.0</ele><time>2026-04-26T12:38:05.395Z</time></trkpt><trkpt lat="45.8192657" lon="11.5660878"><ele>1160.8333333333333</ele><time>2026-04-26T12:38:06.398Z</time></trkpt><trkpt lat="45.8191756" lon="11.5660767"><ele>1160.6666666666667</ele><time>2026-04-26T12:38:07.394Z</time></trkpt><trkpt lat="45.8190915" lon="11.5660656"><ele>1160.5</ele><time>2026-04-26T12:38:08.395Z</time></trkpt><trkpt lat="45.8190074" lon="11.5660677"><ele>1160.3333333333335</ele><time>2026-04-26T12:38:09.396Z</time></trkpt><trkpt lat="45.8189162" lon="11.5660882"><ele>1160.1666666666667</ele><time>2026-04-26T12:38:10.395Z</time></trkpt><trkpt lat="45.8188312" lon="11.5661265"><ele>1160.0</ele><time>2026-04-26T12:38:11.398Z</time></trkpt><trkpt lat="45.8187542" lon="11.5661755"><ele>1160.2</ele><time>2026-04-26T12:38:12.395Z</time></trkpt><trkpt lat="45.8186779" lon="11.5662095"><ele>1160.4</ele><time>2026-04-26T12:38:13.394Z</time></trkpt><trkpt lat="45.8185947" lon="11.5662195"><ele>1160.6</ele><time>2026-04-26T12:38:14.392Z</time></trkpt><trkpt lat="45.8185134" lon="11.5662081"><ele>1160.8</ele><time>2026-04-26T12:38:15.394Z</time></trkpt><trkpt lat="45.818435" lon="11.5661863"><ele>1161.0</ele><time>2026-04-26T12:38:16.392Z</time></trkpt><trkpt lat="45.8182778" lon="11.5661426"><ele>1161.0</ele><time>2026-04-26T12:38:18.396Z</time></trkpt><trkpt lat="45.8182034" lon="11.5661215"><ele>1161.0</ele><time>2026-04-26T12:38:19.396Z</time></trkpt><trkpt lat="45.8181252" lon="11.5660816"><ele>1161.0</ele><time>2026-04-26T12:38:20.395Z</time></trkpt><trkpt lat="45.8180464" lon="11.5660221"><ele>1161.0</ele><time>2026-04-26T12:38:21.396Z</time></trkpt><trkpt lat="45.8179763" lon="11.5659547"><ele>1161.0</ele><time>2026-04-26T12:38:22.396Z</time></trkpt><trkpt lat="45.8179141" lon="11.5658794"><ele>1161.0</ele><time>2026-04-26T12:38:23.395Z</time></trkpt><trkpt lat="45.817848" lon="11.5658034"><ele>1161.0</ele><time>2026-04-26T12:38:24.396Z</time></trkpt><trkpt lat="45.8177872" lon="11.5657168"><ele>1161.0</ele><time>2026-04-26T12:38:25.396Z</time></trkpt><trkpt lat="45.8177331" lon="11.5656091"><ele>1161.0</ele><time>2026-04-26T12:38:26.394Z</time></trkpt><trkpt lat="45.8176841" lon="11.5654715"><ele>1161.0</ele><time>2026-04-26T12:38:27.396Z</time></trkpt><trkpt lat="45.8176381" lon="11.5653142"><ele>1161.0</ele><time>2026-04-26T12:38:28.397Z</time></trkpt><trkpt lat="45.817596" lon="11.565144"><ele>1161.5</ele><time>2026-04-26T12:38:29.396Z</time></trkpt><trkpt lat="45.8175643" lon="11.565004"><ele>1162.0</ele><time>2026-04-26T12:38:30.197Z</time></trkpt><trkpt lat="45.8175129" lon="11.564795"><ele>1162.5</ele><time>2026-04-26T12:38:31.398Z</time></trkpt><trkpt lat="45.8174701" lon="11.5646221"><ele>1163.0</ele><time>2026-04-26T12:38:32.397Z</time></trkpt><trkpt lat="45.8174306" lon="11.5644554"><ele>1163.8</ele><time>2026-04-26T12:38:33.398Z</time></trkpt><trkpt lat="45.8173933" lon="11.5643064"><ele>1164.6</ele><time>2026-04-26T12:38:34.396Z</time></trkpt><trkpt lat="45.8173469" lon="11.5641697"><ele>1165.4</ele><time>2026-04-26T12:38:35.396Z</time></trkpt><trkpt lat="45.8172876" lon="11.5640502"><ele>1166.2</ele><time>2026-04-26T12:38:36.396Z</time></trkpt><trkpt lat="45.817218" lon="11.5639545"><ele>1167.0</ele><time>2026-04-26T12:38:37.396Z</time></trkpt><trkpt lat="45.8170547" lon="11.5638129"><ele>1167.0</ele><time>2026-04-26T12:38:39.395Z</time></trkpt><trkpt lat="45.8169569" lon="11.5637422"><ele>1167.0</ele><time>2026-04-26T12:38:40.396Z</time></trkpt><trkpt lat="45.8168602" lon="11.5636664"><ele>1167.0</ele><time>2026-04-26T12:38:41.392Z</time></trkpt><trkpt lat="45.8167661" lon="11.5635882"><ele>1167.0</ele><time>2026-04-26T12:38:42.395Z</time></trkpt><trkpt lat="45.8166657" lon="11.5635096"><ele>1167.0</ele><time>2026-04-26T12:38:43.395Z</time></trkpt><trkpt lat="45.816564" lon="11.5634283"><ele>1167.2</ele><time>2026-04-26T12:38:44.396Z</time></trkpt><trkpt lat="45.8164725" lon="11.5633489"><ele>1167.4</ele><time>2026-04-26T12:38:45.395Z</time></trkpt><trkpt lat="45.8163911" lon="11.5632709"><ele>1167.6</ele><time>2026-04-26T12:38:46.395Z</time></trkpt><trkpt lat="45.8163134" lon="11.563191"><ele>1167.8</ele><time>2026-04-26T12:38:47.394Z</time></trkpt><trkpt lat="45.8162379" lon="11.5631076"><ele>1168.0</ele><time>2026-04-26T12:38:48.393Z</time></trkpt><trkpt lat="45.816163" lon="11.5630203"><ele>1168.0</ele><time>2026-04-26T12:38:49.394Z</time></trkpt><trkpt lat="45.8160871" lon="11.5629313"><ele>1168.0</ele><time>2026-04-26T12:38:50.394Z</time></trkpt><trkpt lat="45.8160058" lon="11.5628446"><ele>1168.0</ele><time>2026-04-26T12:38:51.395Z</time></trkpt><trkpt lat="45.8159241" lon="11.5627558"><ele>1168.0</ele><time>2026-04-26T12:38:52.394Z</time></trkpt><trkpt lat="45.8158416" lon="11.5626722"><ele>1168.0</ele><time>2026-04-26T12:38:53.396Z</time></trkpt><trkpt lat="45.8157678" lon="11.5625919"><ele>1169.5</ele><time>2026-04-26T12:38:54.396Z</time></trkpt><trkpt lat="45.8157022" lon="11.5625029"><ele>1171.0</ele><time>2026-04-26T12:38:55.395Z</time></trkpt><trkpt lat="45.8156479" lon="11.5623978"><ele>1172.5</ele><time>2026-04-26T12:38:56.394Z</time></trkpt><trkpt lat="45.8155527" lon="11.5621437"><ele>1174.0</ele><time>2026-04-26T12:38:58.394Z</time></trkpt><trkpt lat="45.8154281" lon="11.5618752"><ele>1173.75</ele><time>2026-04-26T12:39:00.394Z</time></trkpt><trkpt lat="45.8153576" lon="11.5617308"><ele>1173.5</ele><time>2026-04-26T12:39:01.392Z</time></trkpt><trkpt lat="45.8152801" lon="11.5615846"><ele>1173.25</ele><time>2026-04-26T12:39:02.394Z</time></trkpt><trkpt lat="45.8151915" lon="11.5614383"><ele>1173.0</ele><time>2026-04-26T12:39:03.393Z</time></trkpt><trkpt lat="45.8151018" lon="11.5612915"><ele>1174.0</ele><time>2026-04-26T12:39:04.392Z</time></trkpt><trkpt lat="45.8150148" lon="11.5611502"><ele>1175.0</ele><time>2026-04-26T12:39:05.391Z</time></trkpt><trkpt lat="45.8149408" lon="11.5610125"><ele>1176.0</ele><time>2026-04-26T12:39:06.394Z</time></trkpt><trkpt lat="45.8148754" lon="11.5608851"><ele>1177.0</ele><time>2026-04-26T12:39:07.394Z</time></trkpt><trkpt lat="45.8148102" lon="11.5607708"><ele>1177.0</ele><time>2026-04-26T12:39:08.394Z</time></trkpt><trkpt lat="45.8147379" lon="11.5606687"><ele>1177.0</ele><time>2026-04-26T12:39:09.393Z</time></trkpt><trkpt lat="45.8146595" lon="11.5605701"><ele>1177.0</ele><time>2026-04-26T12:39:10.396Z</time></trkpt><trkpt lat="45.8145855" lon="11.5604809"><ele>1177.0</ele><time>2026-04-26T12:39:11.397Z</time></trkpt><trkpt lat="45.8145202" lon="11.5604043"><ele>1177.0</ele><time>2026-04-26T12:39:12.394Z</time></trkpt><trkpt lat="45.8144642" lon="11.5603216"><ele>1176.2</ele><time>2026-04-26T12:39:13.396Z</time></trkpt><trkpt lat="45.8144072" lon="11.5602283"><ele>1175.4</ele><time>2026-04-26T12:39:14.394Z</time></trkpt><trkpt lat="45.8143546" lon="11.5601217"><ele>1174.6</ele><time>2026-04-26T12:39:15.395Z</time></trkpt><trkpt lat="45.8143044" lon="11.5600025"><ele>1173.8</ele><time>2026-04-26T12:39:16.395Z</time></trkpt><trkpt lat="45.8142499" lon="11.5598872"><ele>1173.0</ele><time>2026-04-26T12:39:17.394Z</time></trkpt><trkpt lat="45.8141899" lon="11.5597796"><ele>1173.0</ele><time>2026-04-26T12:39:18.394Z</time></trkpt><trkpt lat="45.8141213" lon="11.5596886"><ele>1173.0</ele><time>2026-04-26T12:39:19.396Z</time></trkpt><trkpt lat="45.8139607" lon="11.5595459"><ele>1173.0</ele><time>2026-04-26T12:39:21.396Z</time></trkpt><trkpt lat="45.813877" lon="11.5594865"><ele>1173.0</ele><time>2026-04-26T12:39:22.396Z</time></trkpt><trkpt lat="45.813784" lon="11.5594265"><ele>1173.6</ele><time>2026-04-26T12:39:23.394Z</time></trkpt><trkpt lat="45.8136913" lon="11.5593587"><ele>1174.1999999999998</ele><time>2026-04-26T12:39:24.396Z</time></trkpt><trkpt lat="45.8135965" lon="11.559284"><ele>1174.8</ele><time>2026-04-26T12:39:25.395Z</time></trkpt><trkpt lat="45.813499" lon="11.5592054"><ele>1175.3999999999999</ele><time>2026-04-26T12:39:26.392Z</time></trkpt><trkpt lat="45.8134024" lon="11.5591156"><ele>1176.0</ele><time>2026-04-26T12:39:27.393Z</time></trkpt><trkpt lat="45.8133021" lon="11.5590092"><ele>1175.75</ele><time>2026-04-26T12:39:28.394Z</time></trkpt><trkpt lat="45.8132032" lon="11.5588829"><ele>1175.5</ele><time>2026-04-26T12:39:29.393Z</time></trkpt><trkpt lat="45.8131134" lon="11.5587524"><ele>1175.25</ele><time>2026-04-26T12:39:30.393Z</time></trkpt><trkpt lat="45.8130367" lon="11.5586302"><ele>1175.0</ele><time>2026-04-26T12:39:31.394Z</time></trkpt><trkpt lat="45.8129644" lon="11.5585131"><ele>1175.0</ele><time>2026-04-26T12:39:32.395Z</time></trkpt><trkpt lat="45.8128862" lon="11.5583978"><ele>1175.0</ele><time>2026-04-26T12:39:33.394Z</time></trkpt><trkpt lat="45.8128048" lon="11.5582827"><ele>1175.0</ele><time>2026-04-26T12:39:34.395Z</time></trkpt><trkpt lat="45.8127533" lon="11.5582177"><ele>1175.0</ele><time>2026-04-26T12:39:34.996Z</time></trkpt><trkpt lat="45.8126317" lon="11.5580922"><ele>1175.0</ele><time>2026-04-26T12:39:36.396Z</time></trkpt><trkpt lat="45.8125461" lon="11.5580102"><ele>1176.4</ele><time>2026-04-26T12:39:37.394Z</time></trkpt><trkpt lat="45.8124627" lon="11.5579298"><ele>1177.8</ele><time>2026-04-26T12:39:38.395Z</time></trkpt><trkpt lat="45.8123899" lon="11.5578635"><ele>1179.2</ele><time>2026-04-26T12:39:39.396Z</time></trkpt><trkpt lat="45.8123206" lon="11.557805"><ele>1180.6</ele><time>2026-04-26T12:39:40.394Z</time></trkpt><trkpt lat="45.8121803" lon="11.5576872"><ele>1182.0</ele><time>2026-04-26T12:39:42.393Z</time></trkpt><trkpt lat="45.8121057" lon="11.5576255"><ele>1182.0</ele><time>2026-04-26T12:39:43.394Z</time></trkpt><trkpt lat="45.8120237" lon="11.5575529"><ele>1182.0</ele><time>2026-04-26T12:39:44.395Z</time></trkpt><trkpt lat="45.8119397" lon="11.5574741"><ele>1182.0</ele><time>2026-04-26T12:39:45.393Z</time></trkpt><trkpt lat="45.8118628" lon="11.5573886"><ele>1182.0</ele><time>2026-04-26T12:39:46.395Z</time></trkpt><trkpt lat="45.8117924" lon="11.5573056"><ele>1182.0</ele><time>2026-04-26T12:39:47.394Z</time></trkpt><trkpt lat="45.8117255" lon="11.5572263"><ele>1182.6666666666667</ele><time>2026-04-26T12:39:48.395Z</time></trkpt><trkpt lat="45.8116628" lon="11.5571578"><ele>1183.3333333333333</ele><time>2026-04-26T12:39:49.394Z</time></trkpt><trkpt lat="45.8115959" lon="11.5571031"><ele>1184.0</ele><time>2026-04-26T12:39:50.395Z</time></trkpt><trkpt lat="45.8115222" lon="11.5570606"><ele>1184.6666666666665</ele><time>2026-04-26T12:39:51.393Z</time></trkpt><trkpt lat="45.811441" lon="11.5570317"><ele>1185.3333333333333</ele><time>2026-04-26T12:39:52.391Z</time></trkpt><trkpt lat="45.8113572" lon="11.5570328"><ele>1186.0</ele><time>2026-04-26T12:39:53.392Z</time></trkpt><trkpt lat="45.8112749" lon="11.557043"><ele>1186.0</ele><time>2026-04-26T12:39:54.395Z</time></trkpt><trkpt lat="45.8111926" lon="11.5570403"><ele>1186.0</ele><time>2026-04-26T12:39:55.394Z</time></trkpt><trkpt lat="45.8111081" lon="11.5570268"><ele>1186.0</ele><time>2026-04-26T12:39:56.394Z</time></trkpt><trkpt lat="45.8110269" lon="11.5570187"><ele>1186.0</ele><time>2026-04-26T12:39:57.393Z</time></trkpt><trkpt lat="45.8109463" lon="11.5570296"><ele>1186.0</ele><time>2026-04-26T12:39:58.395Z</time></trkpt><trkpt lat="45.810867" lon="11.5570646"><ele>1186.0</ele><time>2026-04-26T12:39:59.395Z</time></trkpt><trkpt lat="45.810782" lon="11.5571292"><ele>1183.0</ele><time>2026-04-26T12:40:00.396Z</time></trkpt><trkpt lat="45.8106902" lon="11.557217"><ele>1180.0</ele><time>2026-04-26T12:40:01.395Z</time></trkpt><trkpt lat="45.8105024" lon="11.5573823"><ele>1177.0</ele><time>2026-04-26T12:40:03.395Z</time></trkpt><trkpt lat="45.8104095" lon="11.5574592"><ele>1174.0</ele><time>2026-04-26T12:40:04.395Z</time></trkpt><trkpt lat="45.8103241" lon="11.557533"><ele>1174.0</ele><time>2026-04-26T12:40:05.394Z</time></trkpt><trkpt lat="45.8102468" lon="11.5576004"><ele>1174.0</ele><time>2026-04-26T12:40:06.396Z</time></trkpt><trkpt lat="45.8101763" lon="11.557661"><ele>1174.0</ele><time>2026-04-26T12:40:07.394Z</time></trkpt><trkpt lat="45.8101078" lon="11.5577048"><ele>1174.0</ele><time>2026-04-26T12:40:08.395Z</time></trkpt><trkpt lat="45.8099622" lon="11.5577252"><ele>1174.0</ele><time>2026-04-26T12:40:10.395Z</time></trkpt><trkpt lat="45.8098768" lon="11.5577162"><ele>1173.8</ele><time>2026-04-26T12:40:11.396Z</time></trkpt><trkpt lat="45.8097774" lon="11.5576926"><ele>1173.6000000000001</ele><time>2026-04-26T12:40:12.393Z</time></trkpt><trkpt lat="45.8096774" lon="11.5576621"><ele>1173.4</ele><time>2026-04-26T12:40:13.396Z</time></trkpt><trkpt lat="45.8095828" lon="11.5576456"><ele>1173.2</ele><time>2026-04-26T12:40:14.395Z</time></trkpt><trkpt lat="45.8094896" lon="11.5576457"><ele>1173.0</ele><time>2026-04-26T12:40:15.396Z</time></trkpt><trkpt lat="45.8093926" lon="11.5576568"><ele>1173.0</ele><time>2026-04-26T12:40:16.391Z</time></trkpt><trkpt lat="45.8092929" lon="11.5576772"><ele>1173.0</ele><time>2026-04-26T12:40:17.392Z</time></trkpt><trkpt lat="45.8092016" lon="11.5577005"><ele>1173.0</ele><time>2026-04-26T12:40:18.39Z</time></trkpt><trkpt lat="45.8091138" lon="11.5577189"><ele>1173.0</ele><time>2026-04-26T12:40:19.393Z</time></trkpt><trkpt lat="45.8090305" lon="11.5577384"><ele>1173.0</ele><time>2026-04-26T12:40:20.392Z</time></trkpt><trkpt lat="45.8089568" lon="11.5577518"><ele>1173.0</ele><time>2026-04-26T12:40:21.394Z</time></trkpt><trkpt lat="45.8088894" lon="11.5577691"><ele>1171.3333333333333</ele><time>2026-04-26T12:40:22.393Z</time></trkpt><trkpt lat="45.808725" lon="11.5579155"><ele>1169.6666666666665</ele><time>2026-04-26T12:40:26.393Z</time></trkpt><trkpt lat="45.808616" lon="11.5580092"><ele>1168.0</ele><time>2026-04-26T12:40:43.392Z</time></trkpt><trkpt lat="45.8083946" lon="11.5581437"><ele>1164.75</ele><time>2026-04-26T12:40:45.396Z</time></trkpt><trkpt lat="45.8082504" lon="11.5581943"><ele>1161.5</ele><time>2026-04-26T12:40:46.392Z</time></trkpt><trkpt lat="45.808114" lon="11.5582228"><ele>1158.25</ele><time>2026-04-26T12:40:47.394Z</time></trkpt><trkpt lat="45.8079799" lon="11.5582268"><ele>1155.0</ele><time>2026-04-26T12:40:48.394Z</time></trkpt><trkpt lat="45.8078471" lon="11.5582154"><ele>1155.0</ele><time>2026-04-26T12:40:49.392Z</time></trkpt><trkpt lat="45.8077253" lon="11.5581928"><ele>1155.0</ele><time>2026-04-26T12:40:50.395Z</time></trkpt><trkpt lat="45.8076098" lon="11.5581467"><ele>1155.0</ele><time>2026-04-26T12:40:51.395Z</time></trkpt><trkpt lat="45.8075032" lon="11.558076"><ele>1155.0</ele><time>2026-04-26T12:40:52.393Z</time></trkpt><trkpt lat="45.8073987" lon="11.5579776"><ele>1157.75</ele><time>2026-04-26T12:40:53.392Z</time></trkpt><trkpt lat="45.8073116" lon="11.55786"><ele>1160.5</ele><time>2026-04-26T12:40:54.394Z</time></trkpt><trkpt lat="45.8072449" lon="11.5577271"><ele>1163.25</ele><time>2026-04-26T12:40:55.394Z</time></trkpt><trkpt lat="45.8071671" lon="11.5575974"><ele>1166.0</ele><time>2026-04-26T12:40:56.391Z</time></trkpt><trkpt lat="45.8070635" lon="11.5574828"><ele>1166.0</ele><time>2026-04-26T12:40:57.393Z</time></trkpt><trkpt lat="45.8069318" lon="11.5573859"><ele>1166.0</ele><time>2026-04-26T12:40:58.392Z</time></trkpt><trkpt lat="45.8067924" lon="11.557301"><ele>1166.0</ele><time>2026-04-26T12:40:59.393Z</time></trkpt><trkpt lat="45.8066708" lon="11.5572216"><ele>1166.0</ele><time>2026-04-26T12:41:00.395Z</time></trkpt><trkpt lat="45.8065554" lon="11.5571135"><ele>1164.6666666666667</ele><time>2026-04-26T12:41:01.392Z</time></trkpt><trkpt lat="45.8064424" lon="11.5569759"><ele>1163.3333333333333</ele><time>2026-04-26T12:41:02.395Z</time></trkpt><trkpt lat="45.8063158" lon="11.556831"><ele>1162.0</ele><time>2026-04-26T12:41:03.394Z</time></trkpt><trkpt lat="45.8061798" lon="11.5566745"><ele>1150.0</ele><time>2026-04-26T12:41:04.393Z</time></trkpt><trkpt lat="45.8059155" lon="11.5563595"><ele>1138.0</ele><time>2026-04-26T12:41:06.392Z</time></trkpt><trkpt lat="45.8057936" lon="11.5562193"><ele>1144.3333333333333</ele><time>2026-04-26T12:41:07.392Z</time></trkpt><trkpt lat="45.8056691" lon="11.5560846"><ele>1150.6666666666667</ele><time>2026-04-26T12:41:08.393Z</time></trkpt><trkpt lat="45.8055551" lon="11.5559489"><ele>1157.0</ele><time>2026-04-26T12:41:09.394Z</time></trkpt><trkpt lat="45.8054508" lon="11.555796"><ele>1157.0</ele><time>2026-04-26T12:41:10.394Z</time></trkpt><trkpt lat="45.8053486" lon="11.5556146"><ele>1157.0</ele><time>2026-04-26T12:41:11.393Z</time></trkpt><trkpt lat="45.805229" lon="11.555427"><ele>1157.0</ele><time>2026-04-26T12:41:12.395Z</time></trkpt><trkpt lat="45.8050993" lon="11.5552572"><ele>1154.6666666666667</ele><time>2026-04-26T12:41:13.394Z</time></trkpt><trkpt lat="45.8049791" lon="11.5550938"><ele>1152.3333333333333</ele><time>2026-04-26T12:41:14.395Z</time></trkpt><trkpt lat="45.8048699" lon="11.5549417"><ele>1150.0</ele><time>2026-04-26T12:41:15.394Z</time></trkpt><trkpt lat="45.8047623" lon="11.5548136"><ele>1150.0</ele><time>2026-04-26T12:41:16.394Z</time></trkpt><trkpt lat="45.8046496" lon="11.5547137"><ele>1150.0</ele><time>2026-04-26T12:41:17.393Z</time></trkpt><trkpt lat="45.8045377" lon="11.5546369"><ele>1150.0</ele><time>2026-04-26T12:41:18.393Z</time></trkpt><trkpt lat="45.8044405" lon="11.554571"><ele>1150.0</ele><time>2026-04-26T12:41:19.395Z</time></trkpt><trkpt lat="45.8043483" lon="11.5544852"><ele>1148.25</ele><time>2026-04-26T12:41:20.394Z</time></trkpt><trkpt lat="45.8042588" lon="11.5543726"><ele>1146.5</ele><time>2026-04-26T12:41:21.393Z</time></trkpt><trkpt lat="45.8041763" lon="11.5542373"><ele>1144.75</ele><time>2026-04-26T12:41:22.395Z</time></trkpt><trkpt lat="45.8040929" lon="11.5540892"><ele>1143.0</ele><time>2026-04-26T12:41:23.394Z</time></trkpt><trkpt lat="45.8040129" lon="11.553921"><ele>1143.0</ele><time>2026-04-26T12:41:24.395Z</time></trkpt><trkpt lat="45.8039394" lon="11.5537283"><ele>1143.0</ele><time>2026-04-26T12:41:25.396Z</time></trkpt><trkpt lat="45.8037887" lon="11.5532742"><ele>1148.6666666666667</ele><time>2026-04-26T12:41:27.395Z</time></trkpt><trkpt lat="45.8037142" lon="11.5530074"><ele>1154.3333333333335</ele><time>2026-04-26T12:41:28.393Z</time></trkpt><trkpt lat="45.8036332" lon="11.5527542"><ele>1160.0</ele><time>2026-04-26T12:41:29.392Z</time></trkpt><trkpt lat="45.8035546" lon="11.5525184"><ele>1159.0</ele><time>2026-04-26T12:41:30.392Z</time></trkpt><trkpt lat="45.8034775" lon="11.5522971"><ele>1158.0</ele><time>2026-04-26T12:41:31.39Z</time></trkpt><trkpt lat="45.8034039" lon="11.55208"><ele>1157.0</ele><time>2026-04-26T12:41:32.392Z</time></trkpt><trkpt lat="45.8033399" lon="11.5518755"><ele>1157.0</ele><time>2026-04-26T12:41:33.392Z</time></trkpt><trkpt lat="45.8032847" lon="11.551692"><ele>1157.0</ele><time>2026-04-26T12:41:34.395Z</time></trkpt><trkpt lat="45.8032471" lon="11.5515078"><ele>1157.0</ele><time>2026-04-26T12:41:35.395Z</time></trkpt><trkpt lat="45.8032301" lon="11.5513192"><ele>1157.0</ele><time>2026-04-26T12:41:36.396Z</time></trkpt><trkpt lat="45.8032327" lon="11.5511343"><ele>1158.0</ele><time>2026-04-26T12:41:37.395Z</time></trkpt><trkpt lat="45.8032605" lon="11.5509701"><ele>1159.0</ele><time>2026-04-26T12:41:38.394Z</time></trkpt><trkpt lat="45.8033245" lon="11.5508271"><ele>1160.0</ele><time>2026-04-26T12:41:39.397Z</time></trkpt><trkpt lat="45.8034175" lon="11.5507034"><ele>1161.0</ele><time>2026-04-26T12:41:40.395Z</time></trkpt><trkpt lat="45.8035304" lon="11.550585"><ele>1165.25</ele><time>2026-04-26T12:41:41.394Z</time></trkpt><trkpt lat="45.8036484" lon="11.5504724"><ele>1169.5</ele><time>2026-04-26T12:41:42.394Z</time></trkpt><trkpt lat="45.8037654" lon="11.5503895"><ele>1173.75</ele><time>2026-04-26T12:41:43.395Z</time></trkpt><trkpt lat="45.8038956" lon="11.5503481"><ele>1178.0</ele><time>2026-04-26T12:41:44.392Z</time></trkpt><trkpt lat="45.8040291" lon="11.5503261"><ele>1178.0</ele><time>2026-04-26T12:41:45.394Z</time></trkpt><trkpt lat="45.8041476" lon="11.5502914"><ele>1178.0</ele><time>2026-04-26T12:41:46.395Z</time></trkpt><trkpt lat="45.8042965" lon="11.5501144"><ele>1178.0</ele><time>2026-04-26T12:41:48.395Z</time></trkpt><trkpt lat="45.8043062" lon="11.5499705"><ele>1178.0</ele><time>2026-04-26T12:41:49.393Z</time></trkpt><trkpt lat="45.8042889" lon="11.5498058"><ele>1178.0</ele><time>2026-04-26T12:41:50.392Z</time></trkpt><trkpt lat="45.8042817" lon="11.5496214"><ele>1178.0</ele><time>2026-04-26T12:41:51.394Z</time></trkpt><trkpt lat="45.8042988" lon="11.5494134"><ele>1178.0</ele><time>2026-04-26T12:41:52.393Z</time></trkpt><trkpt lat="45.8043217" lon="11.5492021"><ele>1178.0</ele><time>2026-04-26T12:41:53.393Z</time></trkpt><trkpt lat="45.8043298" lon="11.5490111"><ele>1178.2</ele><time>2026-04-26T12:41:54.39Z</time></trkpt><trkpt lat="45.804318" lon="11.5488446"><ele>1178.4</ele><time>2026-04-26T12:41:55.391Z</time></trkpt><trkpt lat="45.8042681" lon="11.5487079"><ele>1178.6000000000001</ele><time>2026-04-26T12:41:56.391Z</time></trkpt><trkpt lat="45.8042052" lon="11.5486232"><ele>1178.8</ele><time>2026-04-26T12:41:57.192Z</time></trkpt><trkpt lat="45.8040817" lon="11.5485393"><ele>1179.0</ele><time>2026-04-26T12:41:58.392Z</time></trkpt><trkpt lat="45.8039798" lon="11.5484509"><ele>1182.25</ele><time>2026-04-26T12:41:59.392Z</time></trkpt><trkpt lat="45.8038856" lon="11.5483176"><ele>1185.5</ele><time>2026-04-26T12:42:00.395Z</time></trkpt><trkpt lat="45.8037971" lon="11.5481391"><ele>1188.75</ele><time>2026-04-26T12:42:01.393Z</time></trkpt><trkpt lat="45.8037232" lon="11.5479562"><ele>1192.0</ele><time>2026-04-26T12:42:02.395Z</time></trkpt><trkpt lat="45.8036755" lon="11.5477617"><ele>1193.2</ele><time>2026-04-26T12:42:03.395Z</time></trkpt><trkpt lat="45.8036475" lon="11.5475724"><ele>1194.4</ele><time>2026-04-26T12:42:04.394Z</time></trkpt><trkpt lat="45.803645" lon="11.5474055"><ele>1195.6</ele><time>2026-04-26T12:42:05.393Z</time></trkpt><trkpt lat="45.8036442" lon="11.5472624"><ele>1196.8</ele><time>2026-04-26T12:42:06.394Z</time></trkpt><trkpt lat="45.8036151" lon="11.5471429"><ele>1198.0</ele><time>2026-04-26T12:42:07.392Z</time></trkpt><trkpt lat="45.803475" lon="11.5469912"><ele>1198.0</ele><time>2026-04-26T12:42:09.394Z</time></trkpt><trkpt lat="45.8033885" lon="11.5469501"><ele>1198.0</ele><time>2026-04-26T12:42:10.395Z</time></trkpt><trkpt lat="45.803302" lon="11.5469031"><ele>1198.0</ele><time>2026-04-26T12:42:11.392Z</time></trkpt><trkpt lat="45.803219" lon="11.5468386"><ele>1198.0</ele><time>2026-04-26T12:42:12.395Z</time></trkpt><trkpt lat="45.8031455" lon="11.5467578"><ele>1198.0</ele><time>2026-04-26T12:42:13.392Z</time></trkpt><trkpt lat="45.8030812" lon="11.5466579"><ele>1198.0</ele><time>2026-04-26T12:42:14.396Z</time></trkpt><trkpt lat="45.8030243" lon="11.5465481"><ele>1198.0</ele><time>2026-04-26T12:42:15.393Z</time></trkpt><trkpt lat="45.8029722" lon="11.5464371"><ele>1198.0</ele><time>2026-04-26T12:42:16.395Z</time></trkpt><trkpt lat="45.8029338" lon="11.5463484"><ele>1198.0</ele><time>2026-04-26T12:42:17.194Z</time></trkpt><trkpt lat="45.802877" lon="11.5462205"><ele>1198.0</ele><time>2026-04-26T12:42:18.393Z</time></trkpt><trkpt lat="45.8028259" lon="11.54612"><ele>1198.6666666666665</ele><time>2026-04-26T12:42:19.391Z</time></trkpt><trkpt lat="45.8027682" lon="11.5460279"><ele>1199.3333333333333</ele><time>2026-04-26T12:42:20.395Z</time></trkpt><trkpt lat="45.8027073" lon="11.545939"><ele>1200.0</ele><time>2026-04-26T12:42:21.394Z</time></trkpt><trkpt lat="45.8026421" lon="11.5458538"><ele>1200.6666666666667</ele><time>2026-04-26T12:42:22.393Z</time></trkpt><trkpt lat="45.8025701" lon="11.5457749"><ele>1201.3333333333335</ele><time>2026-04-26T12:42:23.395Z</time></trkpt><trkpt lat="45.8024886" lon="11.5457089"><ele>1202.0</ele><time>2026-04-26T12:42:24.395Z</time></trkpt><trkpt lat="45.8023969" lon="11.5456593"><ele>1202.0</ele><time>2026-04-26T12:42:25.394Z</time></trkpt><trkpt lat="45.8022997" lon="11.5456099"><ele>1202.0</ele><time>2026-04-26T12:42:26.394Z</time></trkpt><trkpt lat="45.8022006" lon="11.5455517"><ele>1202.0</ele><time>2026-04-26T12:42:27.396Z</time></trkpt><trkpt lat="45.8020997" lon="11.5454834"><ele>1202.0</ele><time>2026-04-26T12:42:28.394Z</time></trkpt><trkpt lat="45.8018964" lon="11.5453195"><ele>1202.8</ele><time>2026-04-26T12:42:30.397Z</time></trkpt><trkpt lat="45.8018119" lon="11.5452345"><ele>1203.6</ele><time>2026-04-26T12:42:31.394Z</time></trkpt><trkpt lat="45.8017493" lon="11.5451326"><ele>1204.3999999999999</ele><time>2026-04-26T12:42:32.395Z</time></trkpt><trkpt lat="45.801701" lon="11.5450064"><ele>1205.2</ele><time>2026-04-26T12:42:33.396Z</time></trkpt><trkpt lat="45.8016713" lon="11.5448508"><ele>1206.0</ele><time>2026-04-26T12:42:34.395Z</time></trkpt><trkpt lat="45.8016561" lon="11.5446766"><ele>1208.6</ele><time>2026-04-26T12:42:35.397Z</time></trkpt><trkpt lat="45.8016472" lon="11.5445106"><ele>1211.1999999999998</ele><time>2026-04-26T12:42:36.398Z</time></trkpt><trkpt lat="45.8016328" lon="11.5443651"><ele>1213.8000000000002</ele><time>2026-04-26T12:42:37.395Z</time></trkpt><trkpt lat="45.801597" lon="11.5442441"><ele>1216.4</ele><time>2026-04-26T12:42:38.397Z</time></trkpt><trkpt lat="45.8015338" lon="11.5441517"><ele>1219.0</ele><time>2026-04-26T12:42:39.397Z</time></trkpt><trkpt lat="45.8014519" lon="11.5440891"><ele>1219.0</ele><time>2026-04-26T12:42:40.396Z</time></trkpt><trkpt lat="45.8013678" lon="11.5440414"><ele>1219.0</ele><time>2026-04-26T12:42:41.396Z</time></trkpt><trkpt lat="45.8012977" lon="11.5439869"><ele>1219.0</ele><time>2026-04-26T12:42:42.397Z</time></trkpt><trkpt lat="45.8012454" lon="11.5439154"><ele>1219.0</ele><time>2026-04-26T12:42:43.396Z</time></trkpt><trkpt lat="45.8012082" lon="11.5438201"><ele>1219.0</ele><time>2026-04-26T12:42:44.395Z</time></trkpt><trkpt lat="45.8011882" lon="11.5437008"><ele>1219.0</ele><time>2026-04-26T12:42:45.394Z</time></trkpt><trkpt lat="45.8011839" lon="11.5435684"><ele>1221.75</ele><time>2026-04-26T12:42:46.396Z</time></trkpt><trkpt lat="45.8011898" lon="11.5434328"><ele>1224.5</ele><time>2026-04-26T12:42:47.396Z</time></trkpt><trkpt lat="45.8012" lon="11.5432915"><ele>1227.25</ele><time>2026-04-26T12:42:48.396Z</time></trkpt><trkpt lat="45.8012169" lon="11.54314"><ele>1230.0</ele><time>2026-04-26T12:42:49.397Z</time></trkpt><trkpt lat="45.8012591" lon="11.5428434"><ele>1230.1666666666667</ele><time>2026-04-26T12:42:51.397Z</time></trkpt><trkpt lat="45.80128" lon="11.542715"><ele>1230.3333333333333</ele><time>2026-04-26T12:42:52.397Z</time></trkpt><trkpt lat="45.8013083" lon="11.5425899"><ele>1230.5</ele><time>2026-04-26T12:42:53.396Z</time></trkpt><trkpt lat="45.8013508" lon="11.5424821"><ele>1230.6666666666665</ele><time>2026-04-26T12:42:54.397Z</time></trkpt><trkpt lat="45.801407" lon="11.5423995"><ele>1230.8333333333333</ele><time>2026-04-26T12:42:55.397Z</time></trkpt><trkpt lat="45.8014754" lon="11.5423317"><ele>1231.0</ele><time>2026-04-26T12:42:56.395Z</time></trkpt><trkpt lat="45.8015528" lon="11.5422733"><ele>1231.0</ele><time>2026-04-26T12:42:57.395Z</time></trkpt><trkpt lat="45.8016385" lon="11.5422221"><ele>1231.0</ele><time>2026-04-26T12:42:58.396Z</time></trkpt><trkpt lat="45.801736" lon="11.5421741"><ele>1231.0</ele><time>2026-04-26T12:42:59.395Z</time></trkpt><trkpt lat="45.8018416" lon="11.5421268"><ele>1231.0</ele><time>2026-04-26T12:43:00.396Z</time></trkpt><trkpt lat="45.8019439" lon="11.5420648"><ele>1231.0</ele><time>2026-04-26T12:43:01.396Z</time></trkpt><trkpt lat="45.8020252" lon="11.5419745"><ele>1233.0</ele><time>2026-04-26T12:43:02.396Z</time></trkpt><trkpt lat="45.8020817" lon="11.5418691"><ele>1235.0</ele><time>2026-04-26T12:43:03.394Z</time></trkpt><trkpt lat="45.8021123" lon="11.5417599"><ele>1237.0</ele><time>2026-04-26T12:43:04.395Z</time></trkpt><trkpt lat="45.8021255" lon="11.5416491"><ele>1239.0</ele><time>2026-04-26T12:43:05.395Z</time></trkpt><trkpt lat="45.8021338" lon="11.5415321"><ele>1241.0</ele><time>2026-04-26T12:43:06.394Z</time></trkpt><trkpt lat="45.8021484" lon="11.5414116"><ele>1243.0</ele><time>2026-04-26T12:43:07.393Z</time></trkpt><trkpt lat="45.8021796" lon="11.5412906"><ele>1240.5</ele><time>2026-04-26T12:43:08.393Z</time></trkpt><trkpt lat="45.8022253" lon="11.5411783"><ele>1238.0</ele><time>2026-04-26T12:43:09.394Z</time></trkpt><trkpt lat="45.8022802" lon="11.5410727"><ele>1235.5</ele><time>2026-04-26T12:43:10.394Z</time></trkpt><trkpt lat="45.8023887" lon="11.5408568"><ele>1233.0</ele><time>2026-04-26T12:43:12.398Z</time></trkpt><trkpt lat="45.8024447" lon="11.5407447"><ele>1233.0</ele><time>2026-04-26T12:43:13.397Z</time></trkpt><trkpt lat="45.8024998" lon="11.5406273"><ele>1233.0</ele><time>2026-04-26T12:43:14.395Z</time></trkpt><trkpt lat="45.8025576" lon="11.5405105"><ele>1233.0</ele><time>2026-04-26T12:43:15.396Z</time></trkpt><trkpt lat="45.8026205" lon="11.5404156"><ele>1233.0</ele><time>2026-04-26T12:43:16.398Z</time></trkpt><trkpt lat="45.8026884" lon="11.5403412"><ele>1233.0</ele><time>2026-04-26T12:43:17.397Z</time></trkpt><trkpt lat="45.8027667" lon="11.54028"><ele>1233.8</ele><time>2026-04-26T12:43:18.396Z</time></trkpt><trkpt lat="45.8028514" lon="11.540228"><ele>1234.6</ele><time>2026-04-26T12:43:19.399Z</time></trkpt><trkpt lat="45.8029372" lon="11.5401825"><ele>1235.4</ele><time>2026-04-26T12:43:20.396Z</time></trkpt><trkpt lat="45.8030246" lon="11.5401403"><ele>1236.2</ele><time>2026-04-26T12:43:21.397Z</time></trkpt><trkpt lat="45.8031133" lon="11.5401004"><ele>1237.0</ele><time>2026-04-26T12:43:22.397Z</time></trkpt><trkpt lat="45.8032053" lon="11.5400591"><ele>1237.0</ele><time>2026-04-26T12:43:23.396Z</time></trkpt><trkpt lat="45.8033046" lon="11.5400175"><ele>1237.0</ele><time>2026-04-26T12:43:24.395Z</time></trkpt><trkpt lat="45.8034105" lon="11.5399763"><ele>1237.0</ele><time>2026-04-26T12:43:25.396Z</time></trkpt><trkpt lat="45.8035263" lon="11.539935"><ele>1237.0</ele><time>2026-04-26T12:43:26.396Z</time></trkpt><trkpt lat="45.8036397" lon="11.5398967"><ele>1237.0</ele><time>2026-04-26T12:43:27.397Z</time></trkpt><trkpt lat="45.8037423" lon="11.5398608"><ele>1240.75</ele><time>2026-04-26T12:43:28.397Z</time></trkpt><trkpt lat="45.803841" lon="11.5398203"><ele>1244.5</ele><time>2026-04-26T12:43:29.401Z</time></trkpt><trkpt lat="45.8039407" lon="11.5397742"><ele>1248.25</ele><time>2026-04-26T12:43:30.395Z</time></trkpt><trkpt lat="45.8040436" lon="11.5397241"><ele>1252.0</ele><time>2026-04-26T12:43:31.397Z</time></trkpt><trkpt lat="45.8042669" lon="11.5396009"><ele>1254.4</ele><time>2026-04-26T12:43:33.394Z</time></trkpt><trkpt lat="45.8043718" lon="11.5394997"><ele>1256.8000000000002</ele><time>2026-04-26T12:43:34.394Z</time></trkpt><trkpt lat="45.8044575" lon="11.5393815"><ele>1259.2</ele><time>2026-04-26T12:43:35.394Z</time></trkpt><trkpt lat="45.8045259" lon="11.5392763"><ele>1261.6000000000001</ele><time>2026-04-26T12:43:36.397Z</time></trkpt><trkpt lat="45.8045856" lon="11.5391793"><ele>1264.0</ele><time>2026-04-26T12:43:37.394Z</time></trkpt><trkpt lat="45.8046411" lon="11.5390758"><ele>1264.0</ele><time>2026-04-26T12:43:38.396Z</time></trkpt><trkpt lat="45.8046857" lon="11.5389509"><ele>1264.0</ele><time>2026-04-26T12:43:39.397Z</time></trkpt><trkpt lat="45.8047069" lon="11.5387986"><ele>1264.0</ele><time>2026-04-26T12:43:40.396Z</time></trkpt><trkpt lat="45.8047011" lon="11.5386244"><ele>1264.0</ele><time>2026-04-26T12:43:41.395Z</time></trkpt><trkpt lat="45.8046829" lon="11.5384276"><ele>1264.0</ele><time>2026-04-26T12:43:42.397Z</time></trkpt><trkpt lat="45.804669" lon="11.5382227"><ele>1264.0</ele><time>2026-04-26T12:43:43.395Z</time></trkpt><trkpt lat="45.804661" lon="11.5380349"><ele>1264.0</ele><time>2026-04-26T12:43:44.397Z</time></trkpt><trkpt lat="45.8046544" lon="11.5378656"><ele>1264.0</ele><time>2026-04-26T12:43:45.396Z</time></trkpt><trkpt lat="45.8046477" lon="11.5377138"><ele>1264.6666666666665</ele><time>2026-04-26T12:43:46.398Z</time></trkpt><trkpt lat="45.8046438" lon="11.5375787"><ele>1265.3333333333333</ele><time>2026-04-26T12:43:47.397Z</time></trkpt><trkpt lat="45.8046408" lon="11.5374596"><ele>1266.0</ele><time>2026-04-26T12:43:48.396Z</time></trkpt><trkpt lat="45.8046369" lon="11.5373551"><ele>1266.6666666666667</ele><time>2026-04-26T12:43:49.396Z</time></trkpt><trkpt lat="45.8046308" lon="11.5372625"><ele>1267.3333333333335</ele><time>2026-04-26T12:43:50.394Z</time></trkpt><trkpt lat="45.804623" lon="11.5371663"><ele>1268.0</ele><time>2026-04-26T12:43:51.397Z</time></trkpt><trkpt lat="45.8046146" lon="11.5370493"><ele>1269.25</ele><time>2026-04-26T12:43:52.397Z</time></trkpt><trkpt lat="45.804617" lon="11.5367926"><ele>1270.5</ele><time>2026-04-26T12:43:54.398Z</time></trkpt><trkpt lat="45.8046376" lon="11.536667"><ele>1271.75</ele><time>2026-04-26T12:43:55.395Z</time></trkpt><trkpt lat="45.8046697" lon="11.5365433"><ele>1273.0</ele><time>2026-04-26T12:43:56.396Z</time></trkpt><trkpt lat="45.8047178" lon="11.5364233"><ele>1273.0</ele><time>2026-04-26T12:43:57.394Z</time></trkpt><trkpt lat="45.8047814" lon="11.5363163"><ele>1273.0</ele><time>2026-04-26T12:43:58.392Z</time></trkpt><trkpt lat="45.8048493" lon="11.5362177"><ele>1273.0</ele><time>2026-04-26T12:43:59.393Z</time></trkpt><trkpt lat="45.8049168" lon="11.5360944"><ele>1273.0</ele><time>2026-04-26T12:44:00.398Z</time></trkpt><trkpt lat="45.8049787" lon="11.535941"><ele>1273.0</ele><time>2026-04-26T12:44:01.394Z</time></trkpt><trkpt lat="45.8050283" lon="11.535785"><ele>1272.2</ele><time>2026-04-26T12:44:02.394Z</time></trkpt><trkpt lat="45.8050722" lon="11.5356361"><ele>1271.4</ele><time>2026-04-26T12:44:03.395Z</time></trkpt><trkpt lat="45.8051187" lon="11.5354872"><ele>1270.6000000000001</ele><time>2026-04-26T12:44:04.395Z</time></trkpt><trkpt lat="45.8051624" lon="11.5353571"><ele>1269.8</ele><time>2026-04-26T12:44:05.396Z</time></trkpt><trkpt lat="45.8051966" lon="11.535245"><ele>1269.0</ele><time>2026-04-26T12:44:06.398Z</time></trkpt><trkpt lat="45.8052188" lon="11.5351445"><ele>1269.3333333333333</ele><time>2026-04-26T12:44:07.396Z</time></trkpt><trkpt lat="45.8052313" lon="11.535049"><ele>1269.6666666666667</ele><time>2026-04-26T12:44:08.396Z</time></trkpt><trkpt lat="45.80524" lon="11.5349548"><ele>1270.0</ele><time>2026-04-26T12:44:09.395Z</time></trkpt><trkpt lat="45.8052483" lon="11.5348569"><ele>1270.3333333333335</ele><time>2026-04-26T12:44:10.396Z</time></trkpt><trkpt lat="45.8052647" lon="11.534719"><ele>1270.6666666666667</ele><time>2026-04-26T12:44:12.397Z</time></trkpt><trkpt lat="45.8052814" lon="11.534619"><ele>1271.0</ele><time>2026-04-26T12:44:14.399Z</time></trkpt><trkpt lat="45.8051966" lon="11.5345397"><ele>1271.0</ele><time>2026-04-26T12:44:19.395Z</time></trkpt><trkpt lat="45.8051849" lon="11.5346399"><ele>1271.0</ele><time>2026-04-26T12:46:40.397Z</time></trkpt><trkpt lat="45.8053472" lon="11.5344422"><ele>1271.0</ele><time>2026-04-26T12:46:45.399Z</time></trkpt><trkpt lat="45.8054029" lon="11.5343146"><ele>1271.0</ele><time>2026-04-26T12:46:47.397Z</time></trkpt><trkpt lat="45.8054408" lon="11.5342336"><ele>1271.0</ele><time>2026-04-26T12:46:49.397Z</time></trkpt><trkpt lat="45.8054986" lon="11.5341867"><ele>1271.0</ele><time>2026-04-26T12:46:51.397Z</time></trkpt><trkpt lat="45.8055657" lon="11.5342426"><ele>1271.0</ele><time>2026-04-26T12:46:53.396Z</time></trkpt><trkpt lat="45.8056237" lon="11.5344107"><ele>1271.0</ele><time>2026-04-26T12:46:55.402Z</time></trkpt><trkpt lat="45.8056575" lon="11.5345394"><ele>1271.0</ele><time>2026-04-26T12:46:56.398Z</time></trkpt><trkpt lat="45.8056925" lon="11.5346985"><ele>1272.2</ele><time>2026-04-26T12:46:57.399Z</time></trkpt><trkpt lat="45.8057258" lon="11.5348594"><ele>1273.3999999999999</ele><time>2026-04-26T12:46:58.399Z</time></trkpt><trkpt lat="45.8057532" lon="11.5349968"><ele>1274.6</ele><time>2026-04-26T12:46:59.397Z</time></trkpt><trkpt lat="45.8057783" lon="11.5351377"><ele>1275.8</ele><time>2026-04-26T12:47:00.397Z</time></trkpt><trkpt lat="45.8058052" lon="11.535284"><ele>1277.0</ele><time>2026-04-26T12:47:01.398Z</time></trkpt><trkpt lat="45.8058512" lon="11.5355904"><ele>1277.6</ele><time>2026-04-26T12:47:03.399Z</time></trkpt><trkpt lat="45.8058701" lon="11.5357529"><ele>1278.2</ele><time>2026-04-26T12:47:04.398Z</time></trkpt><trkpt lat="45.805891" lon="11.5359198"><ele>1278.8</ele><time>2026-04-26T12:47:05.398Z</time></trkpt><trkpt lat="45.8059084" lon="11.536089"><ele>1279.4</ele><time>2026-04-26T12:47:06.398Z</time></trkpt><trkpt lat="45.805916" lon="11.5362242"><ele>1280.0</ele><time>2026-04-26T12:47:07.196Z</time></trkpt><trkpt lat="45.805922" lon="11.5364307"><ele>1281.75</ele><time>2026-04-26T12:47:08.399Z</time></trkpt><trkpt lat="45.8059311" lon="11.5366132"><ele>1283.5</ele><time>2026-04-26T12:47:09.399Z</time></trkpt><trkpt lat="45.8059425" lon="11.5368023"><ele>1285.25</ele><time>2026-04-26T12:47:10.398Z</time></trkpt><trkpt lat="45.8059502" lon="11.5369898"><ele>1287.0</ele><time>2026-04-26T12:47:11.397Z</time></trkpt><trkpt lat="45.805952" lon="11.5371658"><ele>1288.1999999999998</ele><time>2026-04-26T12:47:12.396Z</time></trkpt><trkpt lat="45.8059465" lon="11.5373179"><ele>1289.4</ele><time>2026-04-26T12:47:13.398Z</time></trkpt><trkpt lat="45.8059338" lon="11.5374609"><ele>1290.6</ele><time>2026-04-26T12:47:14.396Z</time></trkpt><trkpt lat="45.8059165" lon="11.5376004"><ele>1291.8000000000002</ele><time>2026-04-26T12:47:15.396Z</time></trkpt><trkpt lat="45.8058999" lon="11.5377337"><ele>1293.0</ele><time>2026-04-26T12:47:16.396Z</time></trkpt><trkpt lat="45.8058887" lon="11.5378647"><ele>1293.6000000000001</ele><time>2026-04-26T12:47:17.397Z</time></trkpt><trkpt lat="45.8058916" lon="11.5379957"><ele>1294.2</ele><time>2026-04-26T12:47:18.399Z</time></trkpt><trkpt lat="45.8059113" lon="11.5381351"><ele>1294.8</ele><time>2026-04-26T12:47:19.4Z</time></trkpt><trkpt lat="45.8059413" lon="11.5382848"><ele>1295.4</ele><time>2026-04-26T12:47:20.4Z</time></trkpt><trkpt lat="45.8059779" lon="11.5384392"><ele>1296.0</ele><time>2026-04-26T12:47:21.4Z</time></trkpt><trkpt lat="45.8060186" lon="11.5385989"><ele>1305.3333333333333</ele><time>2026-04-26T12:47:22.399Z</time></trkpt><trkpt lat="45.8060883" lon="11.538932"><ele>1314.6666666666665</ele><time>2026-04-26T12:47:24.399Z</time></trkpt><trkpt lat="45.8061171" lon="11.539105"><ele>1324.0</ele><time>2026-04-26T12:47:25.399Z</time></trkpt><trkpt lat="45.8061425" lon="11.5392736"><ele>1324.0</ele><time>2026-04-26T12:47:26.399Z</time></trkpt><trkpt lat="45.8061595" lon="11.5394264"><ele>1324.0</ele><time>2026-04-26T12:47:27.4Z</time></trkpt><trkpt lat="45.806165" lon="11.5395606"><ele>1324.0</ele><time>2026-04-26T12:47:28.399Z</time></trkpt><trkpt lat="45.8061725" lon="11.539672"><ele>1324.0</ele><time>2026-04-26T12:47:29.398Z</time></trkpt><trkpt lat="45.8061924" lon="11.5397656"><ele>1324.0</ele><time>2026-04-26T12:47:30.4Z</time></trkpt><trkpt lat="45.8062267" lon="11.5398533"><ele>1324.0</ele><time>2026-04-26T12:47:31.401Z</time></trkpt><trkpt lat="45.8062752" lon="11.539924"><ele>1323.5</ele><time>2026-04-26T12:47:32.399Z</time></trkpt><trkpt lat="45.8063322" lon="11.5399741"><ele>1323.0</ele><time>2026-04-26T12:47:33.401Z</time></trkpt><trkpt lat="45.8063999" lon="11.5400204"><ele>1322.5</ele><time>2026-04-26T12:47:34.401Z</time></trkpt><trkpt lat="45.8064705" lon="11.5400716"><ele>1322.0</ele><time>2026-04-26T12:47:35.4Z</time></trkpt><trkpt lat="45.8065481" lon="11.5401144"><ele>1321.5</ele><time>2026-04-26T12:47:36.398Z</time></trkpt><trkpt lat="45.8066254" lon="11.5401311"><ele>1321.0</ele><time>2026-04-26T12:47:37.4Z</time></trkpt><trkpt lat="45.8067003" lon="11.5401214"><ele>1321.0</ele><time>2026-04-26T12:47:38.397Z</time></trkpt><trkpt lat="45.8067697" lon="11.5400943"><ele>1321.0</ele><time>2026-04-26T12:47:39.397Z</time></trkpt><trkpt lat="45.8068675" lon="11.5400333"><ele>1321.0</ele><time>2026-04-26T12:47:41.4Z</time></trkpt><trkpt lat="45.8069238" lon="11.5399645"><ele>1321.0</ele><time>2026-04-26T12:48:01.399Z</time></trkpt><trkpt lat="45.807081" lon="11.5397985"><ele>1321.0</ele><time>2026-04-26T12:48:04.399Z</time></trkpt><trkpt lat="45.8071802" lon="11.5397311"><ele>1321.0</ele><time>2026-04-26T12:48:06.403Z</time></trkpt><trkpt lat="45.8072737" lon="11.5397212"><ele>1321.0</ele><time>2026-04-26T12:48:08.398Z</time></trkpt><trkpt lat="45.8073513" lon="11.5397737"><ele>1321.0</ele><time>2026-04-26T12:48:10.399Z</time></trkpt><trkpt lat="45.8074129" lon="11.5399186"><ele>1321.0</ele><time>2026-04-26T12:48:12.4Z</time></trkpt><trkpt lat="45.8074339" lon="11.5400243"><ele>1321.0</ele><time>2026-04-26T12:48:13.397Z</time></trkpt><trkpt lat="45.8074503" lon="11.5401327"><ele>1321.0</ele><time>2026-04-26T12:48:14.397Z</time></trkpt><trkpt lat="45.8074688" lon="11.5402229"><ele>1321.0</ele><time>2026-04-26T12:48:15.401Z</time></trkpt><trkpt lat="45.8075006" lon="11.5403215"><ele>1321.0</ele><time>2026-04-26T12:48:17.398Z</time></trkpt><trkpt lat="45.8075336" lon="11.5404229"><ele>1321.0</ele><time>2026-04-26T12:48:51.4Z</time></trkpt><trkpt lat="45.8077143" lon="11.5405713"><ele>1321.0</ele><time>2026-04-26T12:48:55.403Z</time></trkpt><trkpt lat="45.8077772" lon="11.5405891"><ele>1318.8</ele><time>2026-04-26T12:48:56.401Z</time></trkpt><trkpt lat="45.8078856" lon="11.5406422"><ele>1316.6</ele><time>2026-04-26T12:48:58.401Z</time></trkpt><trkpt lat="45.807941" lon="11.5407978"><ele>1314.4</ele><time>2026-04-26T12:49:00.402Z</time></trkpt><trkpt lat="45.8079452" lon="11.5409042"><ele>1312.2</ele><time>2026-04-26T12:49:01.402Z</time></trkpt><trkpt lat="45.8079277" lon="11.5410274"><ele>1310.0</ele><time>2026-04-26T12:49:02.4Z</time></trkpt><trkpt lat="45.8078946" lon="11.5411795"><ele>1308.5</ele><time>2026-04-26T12:49:03.399Z</time></trkpt><trkpt lat="45.8078589" lon="11.5413267"><ele>1307.0</ele><time>2026-04-26T12:49:04.4Z</time></trkpt><trkpt lat="45.8078284" lon="11.5414571"><ele>1305.5</ele><time>2026-04-26T12:49:05.4Z</time></trkpt><trkpt lat="45.8078061" lon="11.5415705"><ele>1304.0</ele><time>2026-04-26T12:49:06.401Z</time></trkpt><trkpt lat="45.8077901" lon="11.5416785"><ele>1302.5</ele><time>2026-04-26T12:49:07.402Z</time></trkpt><trkpt lat="45.807789" lon="11.5417701"><ele>1301.0</ele><time>2026-04-26T12:49:08.401Z</time></trkpt><trkpt lat="45.8078481" lon="11.5419241"><ele>1301.0</ele><time>2026-04-26T12:49:10.4Z</time></trkpt><trkpt lat="45.8079051" lon="11.5419804"><ele>1301.0</ele><time>2026-04-26T12:49:11.401Z</time></trkpt><trkpt lat="45.8079767" lon="11.5420173"><ele>1301.0</ele><time>2026-04-26T12:49:12.403Z</time></trkpt><trkpt lat="45.8081645" lon="11.5420854"><ele>1301.0</ele><time>2026-04-26T12:49:14.398Z</time></trkpt><trkpt lat="45.8082554" lon="11.5421181"><ele>1301.0</ele><time>2026-04-26T12:49:15.399Z</time></trkpt><trkpt lat="45.8083343" lon="11.5421463"><ele>1300.6666666666667</ele><time>2026-04-26T12:49:16.398Z</time></trkpt><trkpt lat="45.808402" lon="11.54218"><ele>1300.3333333333335</ele><time>2026-04-26T12:49:17.398Z</time></trkpt><trkpt lat="45.8084627" lon="11.5422311"><ele>1300.0</ele><time>2026-04-26T12:49:18.397Z</time></trkpt><trkpt lat="45.8085253" lon="11.5423048"><ele>1299.6666666666667</ele><time>2026-04-26T12:49:19.399Z</time></trkpt><trkpt lat="45.8085854" lon="11.5423732"><ele>1299.3333333333333</ele><time>2026-04-26T12:49:20.397Z</time></trkpt><trkpt lat="45.8086384" lon="11.5424325"><ele>1299.0</ele><time>2026-04-26T12:49:21.399Z</time></trkpt><trkpt lat="45.808727" lon="11.5424968"><ele>1299.0</ele><time>2026-04-26T12:49:23.397Z</time></trkpt><trkpt lat="45.8087878" lon="11.5424539"><ele>1299.0</ele><time>2026-04-26T12:49:25.397Z</time></trkpt><trkpt lat="45.8087792" lon="11.5423439"><ele>1299.0</ele><time>2026-04-26T12:49:27.398Z</time></trkpt><trkpt lat="45.8087142" lon="11.542198"><ele>1299.0</ele><time>2026-04-26T12:49:29.397Z</time></trkpt><trkpt lat="45.8086735" lon="11.5421095"><ele>1299.0</ele><time>2026-04-26T12:49:30.399Z</time></trkpt><trkpt lat="45.8086319" lon="11.5419633"><ele>1299.0</ele><time>2026-04-26T12:49:32.399Z</time></trkpt><trkpt lat="45.8086816" lon="11.541857"><ele>1299.0</ele><time>2026-04-26T12:49:34.398Z</time></trkpt><trkpt lat="45.8088825" lon="11.5420309"><ele>1299.0</ele><time>2026-04-26T12:49:38.4Z</time></trkpt><trkpt lat="45.8089415" lon="11.5421412"><ele>1299.0</ele><time>2026-04-26T12:49:39.398Z</time></trkpt><trkpt lat="45.8089988" lon="11.5422429"><ele>1299.0</ele><time>2026-04-26T12:49:40.396Z</time></trkpt><trkpt lat="45.8090462" lon="11.5423254"><ele>1299.0</ele><time>2026-04-26T12:49:41.396Z</time></trkpt><trkpt lat="45.8091365" lon="11.5424137"><ele>1299.0</ele><time>2026-04-26T12:49:43.397Z</time></trkpt><trkpt lat="45.8092512" lon="11.5424222"><ele>1299.0</ele><time>2026-04-26T12:49:45.396Z</time></trkpt><trkpt lat="45.8093334" lon="11.5423375"><ele>1299.0</ele><time>2026-04-26T12:49:47.398Z</time></trkpt><trkpt lat="45.8093699" lon="11.5422565"><ele>1298.6666666666667</ele><time>2026-04-26T12:49:48.399Z</time></trkpt><trkpt lat="45.8093902" lon="11.542131"><ele>1298.3333333333333</ele><time>2026-04-26T12:49:49.399Z</time></trkpt><trkpt lat="45.8094141" lon="11.542007"><ele>1298.0</ele><time>2026-04-26T12:49:50.399Z</time></trkpt><trkpt lat="45.8094444" lon="11.5419035"><ele>1297.6666666666665</ele><time>2026-04-26T12:49:51.397Z</time></trkpt><trkpt lat="45.8094894" lon="11.5418003"><ele>1297.3333333333333</ele><time>2026-04-26T12:49:52.397Z</time></trkpt><trkpt lat="45.8095406" lon="11.5417087"><ele>1297.0</ele><time>2026-04-26T12:49:53.395Z</time></trkpt><trkpt lat="45.809602" lon="11.5416457"><ele>1293.0</ele><time>2026-04-26T12:49:54.397Z</time></trkpt><trkpt lat="45.8096688" lon="11.5416008"><ele>1289.0</ele><time>2026-04-26T12:49:55.397Z</time></trkpt><trkpt lat="45.8098346" lon="11.5415739"><ele>1285.0</ele><time>2026-04-26T12:49:57.397Z</time></trkpt><trkpt lat="45.8099248" lon="11.5415715"><ele>1281.0</ele><time>2026-04-26T12:49:58.193Z</time></trkpt><trkpt lat="45.8100801" lon="11.5415829"><ele>1278.75</ele><time>2026-04-26T12:49:59.396Z</time></trkpt><trkpt lat="45.8102132" lon="11.5415963"><ele>1276.5</ele><time>2026-04-26T12:50:00.398Z</time></trkpt><trkpt lat="45.8103388" lon="11.5415964"><ele>1274.25</ele><time>2026-04-26T12:50:01.398Z</time></trkpt><trkpt lat="45.8104608" lon="11.5415803"><ele>1272.0</ele><time>2026-04-26T12:50:02.396Z</time></trkpt><trkpt lat="45.8105859" lon="11.5415769"><ele>1272.0</ele><time>2026-04-26T12:50:03.395Z</time></trkpt><trkpt lat="45.8107084" lon="11.5415862"><ele>1272.0</ele><time>2026-04-26T12:50:04.394Z</time></trkpt><trkpt lat="45.8108326" lon="11.5416103"><ele>1272.0</ele><time>2026-04-26T12:50:05.395Z</time></trkpt><trkpt lat="45.8109591" lon="11.5416313"><ele>1272.0</ele><time>2026-04-26T12:50:06.397Z</time></trkpt><trkpt lat="45.8110946" lon="11.5416348"><ele>1271.0</ele><time>2026-04-26T12:50:07.396Z</time></trkpt><trkpt lat="45.811232" lon="11.5416269"><ele>1270.0</ele><time>2026-04-26T12:50:08.4Z</time></trkpt><trkpt lat="45.8113639" lon="11.5416151"><ele>1269.0</ele><time>2026-04-26T12:50:09.398Z</time></trkpt><trkpt lat="45.8114926" lon="11.5416064"><ele>1268.0</ele><time>2026-04-26T12:50:10.398Z</time></trkpt><trkpt lat="45.811616" lon="11.5415995"><ele>1268.0</ele><time>2026-04-26T12:50:11.398Z</time></trkpt><trkpt lat="45.8117319" lon="11.5415934"><ele>1268.0</ele><time>2026-04-26T12:50:12.399Z</time></trkpt><trkpt lat="45.8118392" lon="11.5416032"><ele>1268.0</ele><time>2026-04-26T12:50:13.398Z</time></trkpt><trkpt lat="45.8119434" lon="11.541639"><ele>1268.0</ele><time>2026-04-26T12:50:14.4Z</time></trkpt><trkpt lat="45.8120511" lon="11.541712"><ele>1269.6666666666667</ele><time>2026-04-26T12:50:15.398Z</time></trkpt><trkpt lat="45.8121659" lon="11.5418026"><ele>1271.3333333333333</ele><time>2026-04-26T12:50:16.399Z</time></trkpt><trkpt lat="45.8124289" lon="11.5419403"><ele>1273.0</ele><time>2026-04-26T12:50:18.4Z</time></trkpt><trkpt lat="45.8125585" lon="11.541986"><ele>1273.2</ele><time>2026-04-26T12:50:19.397Z</time></trkpt><trkpt lat="45.8126739" lon="11.5420368"><ele>1273.4</ele><time>2026-04-26T12:50:20.398Z</time></trkpt><trkpt lat="45.812775" lon="11.5420861"><ele>1273.6000000000001</ele><time>2026-04-26T12:50:21.398Z</time></trkpt><trkpt lat="45.8128728" lon="11.5421164"><ele>1273.8</ele><time>2026-04-26T12:50:22.398Z</time></trkpt><trkpt lat="45.8129795" lon="11.5421289"><ele>1274.0</ele><time>2026-04-26T12:50:23.397Z</time></trkpt><trkpt lat="45.8130812" lon="11.5421342"><ele>1272.0</ele><time>2026-04-26T12:50:24.399Z</time></trkpt><trkpt lat="45.8131669" lon="11.5421389"><ele>1270.0</ele><time>2026-04-26T12:50:25.397Z</time></trkpt><trkpt lat="45.8132455" lon="11.5421459"><ele>1268.0</ele><time>2026-04-26T12:50:26.395Z</time></trkpt><trkpt lat="45.8133286" lon="11.5421558"><ele>1266.0</ele><time>2026-04-26T12:50:27.397Z</time></trkpt><trkpt lat="45.8134174" lon="11.542172"><ele>1264.0</ele><time>2026-04-26T12:50:28.397Z</time></trkpt><trkpt lat="45.8135164" lon="11.5421886"><ele>1262.0</ele><time>2026-04-26T12:50:29.396Z</time></trkpt><trkpt lat="45.8136271" lon="11.5422081"><ele>1262.0</ele><time>2026-04-26T12:50:30.395Z</time></trkpt><trkpt lat="45.8137492" lon="11.5422287"><ele>1262.0</ele><time>2026-04-26T12:50:31.397Z</time></trkpt><trkpt lat="45.813888" lon="11.5422435"><ele>1262.0</ele><time>2026-04-26T12:50:32.396Z</time></trkpt><trkpt lat="45.8139697" lon="11.5422591"><ele>1262.0</ele><time>2026-04-26T12:50:32.997Z</time></trkpt><trkpt lat="45.8141471" lon="11.5423199"><ele>1262.0</ele><time>2026-04-26T12:50:34.396Z</time></trkpt><trkpt lat="45.8142729" lon="11.5423767"><ele>1262.0</ele><time>2026-04-26T12:50:35.397Z</time></trkpt><trkpt lat="45.8144041" lon="11.5424221"><ele>1262.0</ele><time>2026-04-26T12:50:36.397Z</time></trkpt><trkpt lat="45.8145453" lon="11.5424465"><ele>1262.0</ele><time>2026-04-26T12:50:37.397Z</time></trkpt><trkpt lat="45.8148373" lon="11.5424888"><ele>1261.6666666666667</ele><time>2026-04-26T12:50:39.397Z</time></trkpt><trkpt lat="45.8149921" lon="11.5425185"><ele>1261.3333333333333</ele><time>2026-04-26T12:50:40.397Z</time></trkpt><trkpt lat="45.8151565" lon="11.5425514"><ele>1261.0</ele><time>2026-04-26T12:50:41.398Z</time></trkpt><trkpt lat="45.8153366" lon="11.542585"><ele>1262.0</ele><time>2026-04-26T12:50:42.397Z</time></trkpt><trkpt lat="45.8155131" lon="11.54262"><ele>1263.0</ele><time>2026-04-26T12:50:43.397Z</time></trkpt><trkpt lat="45.8156904" lon="11.542654"><ele>1264.0</ele><time>2026-04-26T12:50:44.397Z</time></trkpt><trkpt lat="45.815872" lon="11.5426929"><ele>1265.0</ele><time>2026-04-26T12:50:45.396Z</time></trkpt><trkpt lat="45.8160512" lon="11.5427419"><ele>1266.0</ele><time>2026-04-26T12:50:46.397Z</time></trkpt><trkpt lat="45.816215" lon="11.5427996"><ele>1267.0</ele><time>2026-04-26T12:50:47.397Z</time></trkpt><trkpt lat="45.816374" lon="11.5428597"><ele>1264.6666666666665</ele><time>2026-04-26T12:50:48.396Z</time></trkpt><trkpt lat="45.8165405" lon="11.5429189"><ele>1262.3333333333333</ele><time>2026-04-26T12:50:49.396Z</time></trkpt><trkpt lat="45.8166428" lon="11.542954"><ele>1260.0</ele><time>2026-04-26T12:50:49.993Z</time></trkpt><trkpt lat="45.8168794" lon="11.5430389"><ele>1260.0</ele><time>2026-04-26T12:50:51.397Z</time></trkpt><trkpt lat="45.8170414" lon="11.5431231"><ele>1260.0</ele><time>2026-04-26T12:50:52.397Z</time></trkpt><trkpt lat="45.8172075" lon="11.5432267"><ele>1260.0</ele><time>2026-04-26T12:50:53.394Z</time></trkpt><trkpt lat="45.8173696" lon="11.5433376"><ele>1260.0</ele><time>2026-04-26T12:50:54.395Z</time></trkpt><trkpt lat="45.8175246" lon="11.5434415"><ele>1260.0</ele><time>2026-04-26T12:50:55.395Z</time></trkpt><trkpt lat="45.8176767" lon="11.5435307"><ele>1260.0</ele><time>2026-04-26T12:50:56.395Z</time></trkpt><trkpt lat="45.8178233" lon="11.5436209"><ele>1258.3333333333333</ele><time>2026-04-26T12:50:57.398Z</time></trkpt><trkpt lat="45.8179538" lon="11.5437206"><ele>1256.6666666666665</ele><time>2026-04-26T12:50:58.397Z</time></trkpt><trkpt lat="45.8182038" lon="11.543927"><ele>1255.0</ele><time>2026-04-26T12:51:00.399Z</time></trkpt><trkpt lat="45.8183362" lon="11.5440247"><ele>1255.0</ele><time>2026-04-26T12:51:01.397Z</time></trkpt><trkpt lat="45.8184612" lon="11.544107"><ele>1255.0</ele><time>2026-04-26T12:51:02.398Z</time></trkpt><trkpt lat="45.8185814" lon="11.5441721"><ele>1255.0</ele><time>2026-04-26T12:51:03.397Z</time></trkpt><trkpt lat="45.8186943" lon="11.5442268"><ele>1255.0</ele><time>2026-04-26T12:51:04.398Z</time></trkpt><trkpt lat="45.8188043" lon="11.5442679"><ele>1255.0</ele><time>2026-04-26T12:51:05.397Z</time></trkpt><trkpt lat="45.8189244" lon="11.5442767"><ele>1255.0</ele><time>2026-04-26T12:51:06.399Z</time></trkpt><trkpt lat="45.8190699" lon="11.5442565"><ele>1255.0</ele><time>2026-04-26T12:51:07.397Z</time></trkpt><trkpt lat="45.8192141" lon="11.5442253"><ele>1255.0</ele><time>2026-04-26T12:51:08.397Z</time></trkpt><trkpt lat="45.8193409" lon="11.5441959"><ele>1255.0</ele><time>2026-04-26T12:51:09.399Z</time></trkpt><trkpt lat="45.8194456" lon="11.5441742"><ele>1255.0</ele><time>2026-04-26T12:51:10.398Z</time></trkpt><trkpt lat="45.8195539" lon="11.5441685"><ele>1255.0</ele><time>2026-04-26T12:51:11.398Z</time></trkpt><trkpt lat="45.8196706" lon="11.544185"><ele>1255.0</ele><time>2026-04-26T12:51:12.399Z</time></trkpt><trkpt lat="45.8197848" lon="11.5442109"><ele>1255.0</ele><time>2026-04-26T12:51:13.397Z</time></trkpt><trkpt lat="45.8198847" lon="11.544239"><ele>1255.0</ele><time>2026-04-26T12:51:14.397Z</time></trkpt><trkpt lat="45.8199794" lon="11.544272"><ele>1255.0</ele><time>2026-04-26T12:51:15.4Z</time></trkpt><trkpt lat="45.8200754" lon="11.5443145"><ele>1255.0</ele><time>2026-04-26T12:51:16.397Z</time></trkpt><trkpt lat="45.8201746" lon="11.5443605"><ele>1255.0</ele><time>2026-04-26T12:51:17.397Z</time></trkpt><trkpt lat="45.8202799" lon="11.5443997"><ele>1255.0</ele><time>2026-04-26T12:51:18.398Z</time></trkpt><trkpt lat="45.8203774" lon="11.5444172"><ele>1254.75</ele><time>2026-04-26T12:51:19.396Z</time></trkpt><trkpt lat="45.820551" lon="11.5443808"><ele>1254.5</ele><time>2026-04-26T12:51:21.398Z</time></trkpt><trkpt lat="45.8206279" lon="11.544326"><ele>1254.25</ele><time>2026-04-26T12:51:22.398Z</time></trkpt><trkpt lat="45.8207098" lon="11.5442368"><ele>1254.0</ele><time>2026-04-26T12:51:23.399Z</time></trkpt><trkpt lat="45.8207949" lon="11.5441321"><ele>1254.0</ele><time>2026-04-26T12:51:24.398Z</time></trkpt><trkpt lat="45.8208707" lon="11.5440316"><ele>1254.0</ele><time>2026-04-26T12:51:25.398Z</time></trkpt><trkpt lat="45.820937" lon="11.5439464"><ele>1254.0</ele><time>2026-04-26T12:51:26.397Z</time></trkpt><trkpt lat="45.8210109" lon="11.5438626"><ele>1254.0</ele><time>2026-04-26T12:51:28.396Z</time></trkpt><trkpt lat="45.8210935" lon="11.54382"><ele>1254.0</ele><time>2026-04-26T12:51:30.397Z</time></trkpt><trkpt lat="45.8211527" lon="11.543891"><ele>1254.6000000000001</ele><time>2026-04-26T12:51:33.397Z</time></trkpt><trkpt lat="45.8211468" lon="11.544007"><ele>1255.2</ele><time>2026-04-26T12:51:36.397Z</time></trkpt><trkpt lat="45.8211564" lon="11.544134"><ele>1255.8000000000002</ele><time>2026-04-26T12:51:39.397Z</time></trkpt><trkpt lat="45.8211562" lon="11.5442629"><ele>1256.4</ele><time>2026-04-26T12:51:42.393Z</time></trkpt><trkpt lat="45.8212259" lon="11.544431"><ele>1257.0</ele><time>2026-04-26T12:51:46.397Z</time></trkpt><trkpt lat="45.8213303" lon="11.5445211"><ele>1255.4</ele><time>2026-04-26T12:51:48.397Z</time></trkpt><trkpt lat="45.8214197" lon="11.544561"><ele>1253.8000000000002</ele><time>2026-04-26T12:51:49.396Z</time></trkpt><trkpt lat="45.8215078" lon="11.5446079"><ele>1252.2</ele><time>2026-04-26T12:51:50.397Z</time></trkpt><trkpt lat="45.821601" lon="11.5446825"><ele>1250.6000000000001</ele><time>2026-04-26T12:51:51.396Z</time></trkpt><trkpt lat="45.8216888" lon="11.5447828"><ele>1249.0</ele><time>2026-04-26T12:51:52.396Z</time></trkpt><trkpt lat="45.8217533" lon="11.5448942"><ele>1249.0</ele><time>2026-04-26T12:51:53.397Z</time></trkpt><trkpt lat="45.821808" lon="11.5449988"><ele>1249.0</ele><time>2026-04-26T12:51:54.397Z</time></trkpt><trkpt lat="45.8219251" lon="11.5451043"><ele>1249.0</ele><time>2026-04-26T12:51:56.397Z</time></trkpt><trkpt lat="45.8219974" lon="11.5451124"><ele>1249.0</ele><time>2026-04-26T12:51:57.398Z</time></trkpt><trkpt lat="45.8220703" lon="11.5451029"><ele>1249.0</ele><time>2026-04-26T12:51:58.396Z</time></trkpt><trkpt lat="45.822134" lon="11.5450907"><ele>1249.0</ele><time>2026-04-26T12:51:59.398Z</time></trkpt><trkpt lat="45.8222091" lon="11.5451187"><ele>1251.0</ele><time>2026-04-26T12:52:00.397Z</time></trkpt><trkpt lat="45.8223074" lon="11.545194"><ele>1253.0</ele><time>2026-04-26T12:52:01.396Z</time></trkpt><trkpt lat="45.8224235" lon="11.5452997"><ele>1255.0</ele><time>2026-04-26T12:52:02.396Z</time></trkpt><trkpt lat="45.8225485" lon="11.5454061"><ele>1257.0</ele><time>2026-04-26T12:52:03.395Z</time></trkpt><trkpt lat="45.822776" lon="11.5455793"><ele>1253.8</ele><time>2026-04-26T12:52:05.396Z</time></trkpt><trkpt lat="45.8228742" lon="11.5456458"><ele>1250.6</ele><time>2026-04-26T12:52:06.397Z</time></trkpt><trkpt lat="45.8229649" lon="11.5456781"><ele>1247.3999999999999</ele><time>2026-04-26T12:52:07.394Z</time></trkpt><trkpt lat="45.8230604" lon="11.5456986"><ele>1244.2</ele><time>2026-04-26T12:52:08.393Z</time></trkpt><trkpt lat="45.8231394" lon="11.5457212"><ele>1241.0</ele><time>2026-04-26T12:52:09.194Z</time></trkpt><trkpt lat="45.8232633" lon="11.5457766"><ele>1241.0</ele><time>2026-04-26T12:52:10.395Z</time></trkpt><trkpt lat="45.8233522" lon="11.545847"><ele>1241.0</ele><time>2026-04-26T12:52:11.396Z</time></trkpt><trkpt lat="45.8234266" lon="11.5459254"><ele>1241.0</ele><time>2026-04-26T12:52:12.396Z</time></trkpt><trkpt lat="45.8235109" lon="11.5459725"><ele>1241.0</ele><time>2026-04-26T12:52:13.395Z</time></trkpt><trkpt lat="45.8236046" lon="11.5459919"><ele>1241.0</ele><time>2026-04-26T12:52:14.398Z</time></trkpt><trkpt lat="45.8237079" lon="11.5459878"><ele>1241.2</ele><time>2026-04-26T12:52:15.395Z</time></trkpt><trkpt lat="45.8238194" lon="11.5459667"><ele>1241.3999999999999</ele><time>2026-04-26T12:52:16.395Z</time></trkpt><trkpt lat="45.823923" lon="11.545959"><ele>1241.6</ele><time>2026-04-26T12:52:17.397Z</time></trkpt><trkpt lat="45.82401" lon="11.545968"><ele>1241.8</ele><time>2026-04-26T12:52:18.395Z</time></trkpt><trkpt lat="45.8240976" lon="11.5459898"><ele>1242.0</ele><time>2026-04-26T12:52:19.396Z</time></trkpt><trkpt lat="45.8241882" lon="11.5460349"><ele>1242.0</ele><time>2026-04-26T12:52:20.396Z</time></trkpt><trkpt lat="45.8243005" lon="11.5460969"><ele>1242.0</ele><time>2026-04-26T12:52:21.396Z</time></trkpt><trkpt lat="45.8244105" lon="11.5461516"><ele>1242.0</ele><time>2026-04-26T12:52:22.396Z</time></trkpt><trkpt lat="45.824513" lon="11.5461926"><ele>1242.0</ele><time>2026-04-26T12:52:23.396Z</time></trkpt><trkpt lat="45.8246176" lon="11.5462162"><ele>1242.0</ele><time>2026-04-26T12:52:24.396Z</time></trkpt><trkpt lat="45.8248141" lon="11.5462061"><ele>1241.4</ele><time>2026-04-26T12:52:26.398Z</time></trkpt><trkpt lat="45.8249196" lon="11.5461771"><ele>1240.8000000000002</ele><time>2026-04-26T12:52:27.395Z</time></trkpt><trkpt lat="45.8250227" lon="11.5461466"><ele>1240.2</ele><time>2026-04-26T12:52:28.394Z</time></trkpt><trkpt lat="45.8251209" lon="11.5461113"><ele>1239.6000000000001</ele><time>2026-04-26T12:52:29.396Z</time></trkpt><trkpt lat="45.8252126" lon="11.5460602"><ele>1239.0</ele><time>2026-04-26T12:52:30.394Z</time></trkpt><trkpt lat="45.8252966" lon="11.5460039"><ele>1237.6666666666667</ele><time>2026-04-26T12:52:31.394Z</time></trkpt><trkpt lat="45.8253776" lon="11.5459598"><ele>1236.3333333333333</ele><time>2026-04-26T12:52:32.393Z</time></trkpt><trkpt lat="45.825454" lon="11.5459377"><ele>1235.0</ele><time>2026-04-26T12:52:33.392Z</time></trkpt><trkpt lat="45.8255334" lon="11.5459441"><ele>1233.6666666666665</ele><time>2026-04-26T12:52:34.392Z</time></trkpt><trkpt lat="45.8256287" lon="11.5459659"><ele>1232.3333333333333</ele><time>2026-04-26T12:52:35.394Z</time></trkpt><trkpt lat="45.8257292" lon="11.545968"><ele>1231.0</ele><time>2026-04-26T12:52:36.395Z</time></trkpt><trkpt lat="45.8258288" lon="11.5459458"><ele>1231.0</ele><time>2026-04-26T12:52:37.395Z</time></trkpt><trkpt lat="45.8259368" lon="11.5459043"><ele>1231.0</ele><time>2026-04-26T12:52:38.399Z</time></trkpt><trkpt lat="45.8260411" lon="11.5458552"><ele>1231.0</ele><time>2026-04-26T12:52:39.394Z</time></trkpt><trkpt lat="45.8261391" lon="11.5458131"><ele>1231.0</ele><time>2026-04-26T12:52:40.392Z</time></trkpt><trkpt lat="45.8262355" lon="11.5457782"><ele>1231.0</ele><time>2026-04-26T12:52:41.393Z</time></trkpt><trkpt lat="45.826333" lon="11.5457489"><ele>1232.25</ele><time>2026-04-26T12:52:42.393Z</time></trkpt><trkpt lat="45.8264395" lon="11.5457278"><ele>1233.5</ele><time>2026-04-26T12:52:43.394Z</time></trkpt><trkpt lat="45.8265536" lon="11.5456963"><ele>1234.75</ele><time>2026-04-26T12:52:44.393Z</time></trkpt><trkpt lat="45.8266703" lon="11.545659"><ele>1236.0</ele><time>2026-04-26T12:52:45.392Z</time></trkpt><trkpt lat="45.8268748" lon="11.5455724"><ele>1238.0</ele><time>2026-04-26T12:52:47.394Z</time></trkpt><trkpt lat="45.8269796" lon="11.5455041"><ele>1240.0</ele><time>2026-04-26T12:52:48.393Z</time></trkpt><trkpt lat="45.8270752" lon="11.5454208"><ele>1242.0</ele><time>2026-04-26T12:52:49.393Z</time></trkpt><trkpt lat="45.8271297" lon="11.5453661"><ele>1244.0</ele><time>2026-04-26T12:52:49.991Z</time></trkpt><trkpt lat="45.8272642" lon="11.5452465"><ele>1239.5</ele><time>2026-04-26T12:52:51.393Z</time></trkpt><trkpt lat="45.8273746" lon="11.5451836"><ele>1235.0</ele><time>2026-04-26T12:52:52.393Z</time></trkpt><trkpt lat="45.8275137" lon="11.5451244"><ele>1230.5</ele><time>2026-04-26T12:52:53.392Z</time></trkpt><trkpt lat="45.8276404" lon="11.5450765"><ele>1226.0</ele><time>2026-04-26T12:52:54.393Z</time></trkpt><trkpt lat="45.8277551" lon="11.5450456"><ele>1226.0</ele><time>2026-04-26T12:52:55.393Z</time></trkpt><trkpt lat="45.8278472" lon="11.5449981"><ele>1226.0</ele><time>2026-04-26T12:52:56.391Z</time></trkpt><trkpt lat="45.8279373" lon="11.5449528"><ele>1226.0</ele><time>2026-04-26T12:52:57.392Z</time></trkpt><trkpt lat="45.8280319" lon="11.5449155"><ele>1226.0</ele><time>2026-04-26T12:52:58.393Z</time></trkpt><trkpt lat="45.8281437" lon="11.5448911"><ele>1226.0</ele><time>2026-04-26T12:52:59.391Z</time></trkpt><trkpt lat="45.8282428" lon="11.5448783"><ele>1226.0</ele><time>2026-04-26T12:53:00.393Z</time></trkpt><trkpt lat="45.8283305" lon="11.544862"><ele>1226.0</ele><time>2026-04-26T12:53:01.391Z</time></trkpt><trkpt lat="45.8284246" lon="11.5448494"><ele>1226.0</ele><time>2026-04-26T12:53:02.392Z</time></trkpt><trkpt lat="45.8285268" lon="11.5448209"><ele>1226.0</ele><time>2026-04-26T12:53:03.392Z</time></trkpt><trkpt lat="45.8286328" lon="11.5447752"><ele>1226.0</ele><time>2026-04-26T12:53:04.392Z</time></trkpt><trkpt lat="45.8287492" lon="11.5447156"><ele>1227.3333333333335</ele><time>2026-04-26T12:53:05.394Z</time></trkpt><trkpt lat="45.8288626" lon="11.544639"><ele>1228.6666666666667</ele><time>2026-04-26T12:53:06.393Z</time></trkpt><trkpt lat="45.8290525" lon="11.5444859"><ele>1230.0</ele><time>2026-04-26T12:53:08.391Z</time></trkpt><trkpt lat="45.8291464" lon="11.544405"><ele>1226.0</ele><time>2026-04-26T12:53:09.394Z</time></trkpt><trkpt lat="45.8292396" lon="11.544343"><ele>1222.0</ele><time>2026-04-26T12:53:10.395Z</time></trkpt><trkpt lat="45.8293357" lon="11.5442807"><ele>1218.0</ele><time>2026-04-26T12:53:11.393Z</time></trkpt><trkpt lat="45.8294352" lon="11.5442046"><ele>1214.0</ele><time>2026-04-26T12:53:12.393Z</time></trkpt><trkpt lat="45.829556" lon="11.544137"><ele>1213.75</ele><time>2026-04-26T12:53:13.393Z</time></trkpt><trkpt lat="45.8296842" lon="11.544077"><ele>1213.5</ele><time>2026-04-26T12:53:14.392Z</time></trkpt><trkpt lat="45.8298158" lon="11.5440252"><ele>1213.25</ele><time>2026-04-26T12:53:15.393Z</time></trkpt><trkpt lat="45.8299395" lon="11.5439683"><ele>1213.0</ele><time>2026-04-26T12:53:16.393Z</time></trkpt><trkpt lat="45.8300435" lon="11.5439122"><ele>1213.0</ele><time>2026-04-26T12:53:17.395Z</time></trkpt><trkpt lat="45.830136" lon="11.5438611"><ele>1213.0</ele><time>2026-04-26T12:53:18.393Z</time></trkpt><trkpt lat="45.8302275" lon="11.5438304"><ele>1213.0</ele><time>2026-04-26T12:53:19.394Z</time></trkpt><trkpt lat="45.8303057" lon="11.543825"><ele>1213.0</ele><time>2026-04-26T12:53:20.392Z</time></trkpt><trkpt lat="45.8303801" lon="11.5438363"><ele>1213.0</ele><time>2026-04-26T12:53:21.393Z</time></trkpt><trkpt lat="45.8304587" lon="11.5438555"><ele>1213.0</ele><time>2026-04-26T12:53:22.393Z</time></trkpt><trkpt lat="45.8305245" lon="11.543878"><ele>1212.0</ele><time>2026-04-26T12:53:23.392Z</time></trkpt><trkpt lat="45.8306458" lon="11.5439378"><ele>1211.0</ele><time>2026-04-26T12:53:25.396Z</time></trkpt><trkpt lat="45.830709" lon="11.5439753"><ele>1210.0</ele><time>2026-04-26T12:53:26.395Z</time></trkpt><trkpt lat="45.8307717" lon="11.5440195"><ele>1209.0</ele><time>2026-04-26T12:53:27.396Z</time></trkpt><trkpt lat="45.8308943" lon="11.5441035"><ele>1208.0</ele><time>2026-04-26T12:53:29.394Z</time></trkpt><trkpt lat="45.8309585" lon="11.5441353"><ele>1206.1666666666667</ele><time>2026-04-26T12:53:30.395Z</time></trkpt><trkpt lat="45.8310224" lon="11.5441567"><ele>1204.3333333333335</ele><time>2026-04-26T12:53:31.396Z</time></trkpt><trkpt lat="45.8310946" lon="11.5441706"><ele>1202.5</ele><time>2026-04-26T12:53:32.393Z</time></trkpt><trkpt lat="45.8311649" lon="11.5441691"><ele>1200.6666666666667</ele><time>2026-04-26T12:53:33.396Z</time></trkpt><trkpt lat="45.8312439" lon="11.5441498"><ele>1198.8333333333333</ele><time>2026-04-26T12:53:34.395Z</time></trkpt><trkpt lat="45.8313249" lon="11.5441505"><ele>1197.0</ele><time>2026-04-26T12:53:35.393Z</time></trkpt><trkpt lat="45.8314066" lon="11.5441558"><ele>1197.0</ele><time>2026-04-26T12:53:36.392Z</time></trkpt><trkpt lat="45.8314818" lon="11.5441685"><ele>1197.0</ele><time>2026-04-26T12:53:37.395Z</time></trkpt><trkpt lat="45.8315598" lon="11.5441672"><ele>1197.0</ele><time>2026-04-26T12:53:38.395Z</time></trkpt><trkpt lat="45.8316322" lon="11.5441588"><ele>1197.0</ele><time>2026-04-26T12:53:39.394Z</time></trkpt><trkpt lat="45.8316991" lon="11.544148"><ele>1197.0</ele><time>2026-04-26T12:53:40.395Z</time></trkpt><trkpt lat="45.8317644" lon="11.5441155"><ele>1197.0</ele><time>2026-04-26T12:53:41.398Z</time></trkpt><trkpt lat="45.8318357" lon="11.5440654"><ele>1197.0</ele><time>2026-04-26T12:53:42.396Z</time></trkpt><trkpt lat="45.8319094" lon="11.5439956"><ele>1194.3333333333333</ele><time>2026-04-26T12:53:43.395Z</time></trkpt><trkpt lat="45.8319789" lon="11.5439203"><ele>1191.6666666666667</ele><time>2026-04-26T12:53:44.394Z</time></trkpt><trkpt lat="45.8320508" lon="11.5438672"><ele>1189.0</ele><time>2026-04-26T12:53:45.395Z</time></trkpt><trkpt lat="45.8321247" lon="11.5438344"><ele>1186.3333333333335</ele><time>2026-04-26T12:53:46.394Z</time></trkpt><trkpt lat="45.832209" lon="11.543822"><ele>1183.6666666666667</ele><time>2026-04-26T12:53:47.395Z</time></trkpt><trkpt lat="45.8323017" lon="11.5438332"><ele>1181.0</ele><time>2026-04-26T12:53:48.398Z</time></trkpt><trkpt lat="45.8324817" lon="11.543823"><ele>1181.0</ele><time>2026-04-26T12:53:50.397Z</time></trkpt><trkpt lat="45.8325601" lon="11.5437974"><ele>1181.0</ele><time>2026-04-26T12:53:51.398Z</time></trkpt><trkpt lat="45.8326634" lon="11.5437913"><ele>1181.0</ele><time>2026-04-26T12:53:52.397Z</time></trkpt><trkpt lat="45.8327688" lon="11.5437843"><ele>1181.0</ele><time>2026-04-26T12:53:53.398Z</time></trkpt><trkpt lat="45.8328682" lon="11.5437861"><ele>1181.0</ele><time>2026-04-26T12:53:54.397Z</time></trkpt><trkpt lat="45.8329546" lon="11.5437932"><ele>1180.0</ele><time>2026-04-26T12:53:55.396Z</time></trkpt><trkpt lat="45.8330703" lon="11.5438143"><ele>1179.0</ele><time>2026-04-26T12:53:57.397Z</time></trkpt><trkpt lat="45.8332064" lon="11.5439224"><ele>1178.0</ele><time>2026-04-26T12:53:59.396Z</time></trkpt><trkpt lat="45.83328" lon="11.5439732"><ele>1177.0</ele><time>2026-04-26T12:54:00.396Z</time></trkpt><trkpt lat="45.8333528" lon="11.5440422"><ele>1176.0</ele><time>2026-04-26T12:54:01.396Z</time></trkpt><trkpt lat="45.833413" lon="11.5441057"><ele>1175.3333333333333</ele><time>2026-04-26T12:54:02.397Z</time></trkpt><trkpt lat="45.8335036" lon="11.5442018"><ele>1174.6666666666667</ele><time>2026-04-26T12:54:04.396Z</time></trkpt><trkpt lat="45.833574" lon="11.5442394"><ele>1174.0</ele><time>2026-04-26T12:54:05.395Z</time></trkpt><trkpt lat="45.8336592" lon="11.5442657"><ele>1173.3333333333335</ele><time>2026-04-26T12:54:06.397Z</time></trkpt><trkpt lat="45.8337418" lon="11.5442856"><ele>1172.6666666666667</ele><time>2026-04-26T12:54:07.395Z</time></trkpt><trkpt lat="45.8338217" lon="11.5443152"><ele>1172.0</ele><time>2026-04-26T12:54:08.395Z</time></trkpt><trkpt lat="45.8338793" lon="11.5443597"><ele>1172.0</ele><time>2026-04-26T12:54:09.394Z</time></trkpt><trkpt lat="45.8340356" lon="11.5443768"><ele>1172.0</ele><time>2026-04-26T12:54:11.393Z</time></trkpt><trkpt lat="45.8341167" lon="11.5443534"><ele>1172.0</ele><time>2026-04-26T12:54:12.394Z</time></trkpt><trkpt lat="45.8341995" lon="11.5443367"><ele>1172.0</ele><time>2026-04-26T12:54:13.394Z</time></trkpt><trkpt lat="45.8342828" lon="11.5443354"><ele>1172.0</ele><time>2026-04-26T12:54:14.395Z</time></trkpt><trkpt lat="45.8343534" lon="11.5443176"><ele>1170.6666666666667</ele><time>2026-04-26T12:54:15.397Z</time></trkpt><trkpt lat="45.8344399" lon="11.5442696"><ele>1169.3333333333335</ele><time>2026-04-26T12:54:16.395Z</time></trkpt><trkpt lat="45.8345199" lon="11.5442242"><ele>1168.0</ele><time>2026-04-26T12:54:17.395Z</time></trkpt><trkpt lat="45.8345931" lon="11.5441808"><ele>1166.6666666666667</ele><time>2026-04-26T12:54:18.397Z</time></trkpt><trkpt lat="45.8346743" lon="11.5441576"><ele>1165.3333333333333</ele><time>2026-04-26T12:54:19.397Z</time></trkpt><trkpt lat="45.8347499" lon="11.5441528"><ele>1164.0</ele><time>2026-04-26T12:54:20.395Z</time></trkpt><trkpt lat="45.8348474" lon="11.5441681"><ele>1164.0</ele><time>2026-04-26T12:54:21.397Z</time></trkpt><trkpt lat="45.8349363" lon="11.5442002"><ele>1164.0</ele><time>2026-04-26T12:54:22.396Z</time></trkpt><trkpt lat="45.8350048" lon="11.5442463"><ele>1164.0</ele><time>2026-04-26T12:54:23.395Z</time></trkpt><trkpt lat="45.8350983" lon="11.5442824"><ele>1164.0</ele><time>2026-04-26T12:54:24.395Z</time></trkpt><trkpt lat="45.8351853" lon="11.5443186"><ele>1164.0</ele><time>2026-04-26T12:54:25.395Z</time></trkpt><trkpt lat="45.8352609" lon="11.5443756"><ele>1164.0</ele><time>2026-04-26T12:54:26.394Z</time></trkpt><trkpt lat="45.8353439" lon="11.5444606"><ele>1164.75</ele><time>2026-04-26T12:54:27.395Z</time></trkpt><trkpt lat="45.8354378" lon="11.5445515"><ele>1165.5</ele><time>2026-04-26T12:54:28.395Z</time></trkpt><trkpt lat="45.8355232" lon="11.5446468"><ele>1166.25</ele><time>2026-04-26T12:54:29.394Z</time></trkpt><trkpt lat="45.8355944" lon="11.5447396"><ele>1167.0</ele><time>2026-04-26T12:54:30.395Z</time></trkpt><trkpt lat="45.8357245" lon="11.544854"><ele>1167.0</ele><time>2026-04-26T12:54:32.397Z</time></trkpt><trkpt lat="45.8358066" lon="11.5448664"><ele>1167.0</ele><time>2026-04-26T12:54:33.395Z</time></trkpt><trkpt lat="45.8359036" lon="11.5448555"><ele>1167.0</ele><time>2026-04-26T12:54:34.395Z</time></trkpt><trkpt lat="45.8359935" lon="11.5448469"><ele>1167.0</ele><time>2026-04-26T12:54:35.393Z</time></trkpt><trkpt lat="45.8360802" lon="11.544842"><ele>1167.0</ele><time>2026-04-26T12:54:36.394Z</time></trkpt><trkpt lat="45.8361525" lon="11.5448401"><ele>1167.0</ele><time>2026-04-26T12:54:37.393Z</time></trkpt><trkpt lat="45.8362427" lon="11.5448515"><ele>1165.8333333333333</ele><time>2026-04-26T12:54:38.395Z</time></trkpt><trkpt lat="45.836332" lon="11.544849"><ele>1164.6666666666667</ele><time>2026-04-26T12:54:39.394Z</time></trkpt><trkpt lat="45.8364114" lon="11.544874"><ele>1163.5</ele><time>2026-04-26T12:54:40.394Z</time></trkpt><trkpt lat="45.8364885" lon="11.5449101"><ele>1162.3333333333335</ele><time>2026-04-26T12:54:41.396Z</time></trkpt><trkpt lat="45.8365524" lon="11.5449304"><ele>1161.1666666666667</ele><time>2026-04-26T12:54:42.395Z</time></trkpt><trkpt lat="45.8366659" lon="11.5449018"><ele>1160.0</ele><time>2026-04-26T12:54:44.395Z</time></trkpt><trkpt lat="45.8367458" lon="11.5448736"><ele>1160.0</ele><time>2026-04-26T12:54:45.397Z</time></trkpt><trkpt lat="45.836848" lon="11.5448324"><ele>1160.0</ele><time>2026-04-26T12:54:46.396Z</time></trkpt><trkpt lat="45.8369621" lon="11.5447702"><ele>1160.0</ele><time>2026-04-26T12:54:47.398Z</time></trkpt><trkpt lat="45.8370696" lon="11.5446915"><ele>1160.0</ele><time>2026-04-26T12:54:48.397Z</time></trkpt><trkpt lat="45.8371416" lon="11.5446384"><ele>1160.0</ele><time>2026-04-26T12:54:49.194Z</time></trkpt><trkpt lat="45.8372245" lon="11.544581"><ele>1160.0</ele><time>2026-04-26T12:54:50.395Z</time></trkpt><trkpt lat="45.8372923" lon="11.544562"><ele>1160.0</ele><time>2026-04-26T12:54:52.393Z</time></trkpt><trkpt lat="45.8374503" lon="11.5447442"><ele>1160.0</ele><time>2026-04-26T12:54:56.393Z</time></trkpt><trkpt lat="45.837495" lon="11.5448549"><ele>1160.0</ele><time>2026-04-26T12:54:58.393Z</time></trkpt><trkpt lat="45.8375209" lon="11.5450043"><ele>1160.0</ele><time>2026-04-26T12:55:00.393Z</time></trkpt><trkpt lat="45.8375818" lon="11.5451367"><ele>1160.0</ele><time>2026-04-26T12:55:02.397Z</time></trkpt><trkpt lat="45.8376881" lon="11.5452231"><ele>1160.0</ele><time>2026-04-26T12:55:04.397Z</time></trkpt><trkpt lat="45.837766" lon="11.5452559"><ele>1160.0</ele><time>2026-04-26T12:55:05.398Z</time></trkpt><trkpt lat="45.8378593" lon="11.5452751"><ele>1160.0</ele><time>2026-04-26T12:55:06.397Z</time></trkpt><trkpt lat="45.8379593" lon="11.5452911"><ele>1161.0</ele><time>2026-04-26T12:55:07.394Z</time></trkpt><trkpt lat="45.8380515" lon="11.5453091"><ele>1162.0</ele><time>2026-04-26T12:55:08.395Z</time></trkpt><trkpt lat="45.8381279" lon="11.5453322"><ele>1163.0</ele><time>2026-04-26T12:55:09.396Z</time></trkpt><trkpt lat="45.8381955" lon="11.545348"><ele>1164.0</ele><time>2026-04-26T12:55:10.395Z</time></trkpt><trkpt lat="45.8383216" lon="11.5452736"><ele>1165.0</ele><time>2026-04-26T12:55:12.395Z</time></trkpt><trkpt lat="45.8384053" lon="11.5451855"><ele>1163.5</ele><time>2026-04-26T12:55:13.395Z</time></trkpt><trkpt lat="45.8385937" lon="11.544989"><ele>1162.0</ele><time>2026-04-26T12:55:15.397Z</time></trkpt><trkpt lat="45.8386818" lon="11.5449191"><ele>1160.5</ele><time>2026-04-26T12:55:16.398Z</time></trkpt><trkpt lat="45.8387657" lon="11.5448639"><ele>1159.0</ele><time>2026-04-26T12:55:17.397Z</time></trkpt><trkpt lat="45.8388265" lon="11.5448219"><ele>1159.0</ele><time>2026-04-26T12:55:18.395Z</time></trkpt><trkpt lat="45.8389408" lon="11.5447638"><ele>1159.0</ele><time>2026-04-26T12:55:20.397Z</time></trkpt><trkpt lat="45.8390097" lon="11.5447921"><ele>1159.0</ele><time>2026-04-26T12:55:21.395Z</time></trkpt><trkpt lat="45.8390882" lon="11.5448495"><ele>1159.0</ele><time>2026-04-26T12:55:22.395Z</time></trkpt><trkpt lat="45.8391602" lon="11.5449112"><ele>1159.0</ele><time>2026-04-26T12:55:23.193Z</time></trkpt><trkpt lat="45.8392563" lon="11.545009"><ele>1157.5</ele><time>2026-04-26T12:55:24.393Z</time></trkpt><trkpt lat="45.8393278" lon="11.5451213"><ele>1156.0</ele><time>2026-04-26T12:55:25.394Z</time></trkpt><trkpt lat="45.839407" lon="11.5452522"><ele>1154.5</ele><time>2026-04-26T12:55:26.395Z</time></trkpt><trkpt lat="45.8394811" lon="11.5454044"><ele>1153.0</ele><time>2026-04-26T12:55:27.394Z</time></trkpt><trkpt lat="45.8395685" lon="11.5455482"><ele>1153.0</ele><time>2026-04-26T12:55:28.397Z</time></trkpt><trkpt lat="45.8396482" lon="11.5456694"><ele>1153.0</ele><time>2026-04-26T12:55:29.397Z</time></trkpt><trkpt lat="45.8397211" lon="11.5457765"><ele>1153.0</ele><time>2026-04-26T12:55:30.396Z</time></trkpt><trkpt lat="45.8397853" lon="11.5458454"><ele>1153.0</ele><time>2026-04-26T12:55:31.396Z</time></trkpt><trkpt lat="45.8398498" lon="11.5458957"><ele>1153.0</ele><time>2026-04-26T12:55:32.393Z</time></trkpt><trkpt lat="45.8399324" lon="11.5459367"><ele>1153.0</ele><time>2026-04-26T12:55:33.395Z</time></trkpt><trkpt lat="45.8400184" lon="11.5459656"><ele>1153.0</ele><time>2026-04-26T12:55:34.394Z</time></trkpt><trkpt lat="45.8402355" lon="11.5460153"><ele>1153.0</ele><time>2026-04-26T12:55:36.395Z</time></trkpt><trkpt lat="45.8403236" lon="11.5460592"><ele>1153.0</ele><time>2026-04-26T12:55:37.392Z</time></trkpt><trkpt lat="45.840404" lon="11.546089"><ele>1154.0</ele><time>2026-04-26T12:55:38.392Z</time></trkpt><trkpt lat="45.8404885" lon="11.5461215"><ele>1155.0</ele><time>2026-04-26T12:55:39.392Z</time></trkpt><trkpt lat="45.8405558" lon="11.5461553"><ele>1156.0</ele><time>2026-04-26T12:55:40.394Z</time></trkpt><trkpt lat="45.8406276" lon="11.5461832"><ele>1157.0</ele><time>2026-04-26T12:55:41.392Z</time></trkpt><trkpt lat="45.8407049" lon="11.546231"><ele>1158.0</ele><time>2026-04-26T12:55:42.391Z</time></trkpt><trkpt lat="45.8407755" lon="11.5462847"><ele>1159.0</ele><time>2026-04-26T12:55:43.392Z</time></trkpt><trkpt lat="45.8408409" lon="11.5463634"><ele>1157.5</ele><time>2026-04-26T12:55:44.392Z</time></trkpt><trkpt lat="45.8408956" lon="11.5464335"><ele>1156.0</ele><time>2026-04-26T12:55:45.19Z</time></trkpt><trkpt lat="45.840973" lon="11.5465083"><ele>1154.5</ele><time>2026-04-26T12:55:46.393Z</time></trkpt><trkpt lat="45.8410429" lon="11.5465924"><ele>1153.0</ele><time>2026-04-26T12:55:47.392Z</time></trkpt><trkpt lat="45.841105" lon="11.546668"><ele>1151.5</ele><time>2026-04-26T12:55:48.391Z</time></trkpt><trkpt lat="45.8411788" lon="11.5467381"><ele>1150.0</ele><time>2026-04-26T12:55:49.392Z</time></trkpt><trkpt lat="45.8412713" lon="11.5467973"><ele>1150.0</ele><time>2026-04-26T12:55:50.39Z</time></trkpt><trkpt lat="45.8413673" lon="11.5468573"><ele>1150.0</ele><time>2026-04-26T12:55:51.394Z</time></trkpt><trkpt lat="45.8414541" lon="11.5469116"><ele>1150.0</ele><time>2026-04-26T12:55:52.393Z</time></trkpt><trkpt lat="45.8415134" lon="11.5469811"><ele>1150.0</ele><time>2026-04-26T12:55:53.393Z</time></trkpt><trkpt lat="45.8415691" lon="11.5470517"><ele>1150.0</ele><time>2026-04-26T12:55:54.392Z</time></trkpt><trkpt lat="45.8416298" lon="11.5471213"><ele>1150.0</ele><time>2026-04-26T12:55:55.392Z</time></trkpt><trkpt lat="45.8417362" lon="11.5472854"><ele>1148.8</ele><time>2026-04-26T12:55:57.394Z</time></trkpt><trkpt lat="45.8418104" lon="11.547385"><ele>1147.6</ele><time>2026-04-26T12:55:58.392Z</time></trkpt><trkpt lat="45.8418849" lon="11.5474763"><ele>1146.4</ele><time>2026-04-26T12:55:59.393Z</time></trkpt><trkpt lat="45.8419555" lon="11.5475735"><ele>1145.2</ele><time>2026-04-26T12:56:00.394Z</time></trkpt><trkpt lat="45.8420225" lon="11.5476503"><ele>1144.0</ele><time>2026-04-26T12:56:01.394Z</time></trkpt><trkpt lat="45.8420874" lon="11.5477209"><ele>1144.0</ele><time>2026-04-26T12:56:02.394Z</time></trkpt><trkpt lat="45.842165" lon="11.5478007"><ele>1144.0</ele><time>2026-04-26T12:56:03.394Z</time></trkpt><trkpt lat="45.8422435" lon="11.5478845"><ele>1144.0</ele><time>2026-04-26T12:56:04.395Z</time></trkpt><trkpt lat="45.8423228" lon="11.5479653"><ele>1144.0</ele><time>2026-04-26T12:56:05.393Z</time></trkpt><trkpt lat="45.8423964" lon="11.5480366"><ele>1144.0</ele><time>2026-04-26T12:56:06.394Z</time></trkpt><trkpt lat="45.8424672" lon="11.5481127"><ele>1140.8333333333333</ele><time>2026-04-26T12:56:07.392Z</time></trkpt><trkpt lat="45.8425248" lon="11.5481879"><ele>1137.6666666666665</ele><time>2026-04-26T12:56:08.394Z</time></trkpt><trkpt lat="45.8425852" lon="11.548235"><ele>1134.5</ele><time>2026-04-26T12:56:09.393Z</time></trkpt><trkpt lat="45.8426698" lon="11.5482681"><ele>1131.3333333333333</ele><time>2026-04-26T12:56:10.393Z</time></trkpt><trkpt lat="45.8427578" lon="11.5482945"><ele>1128.1666666666667</ele><time>2026-04-26T12:56:11.393Z</time></trkpt><trkpt lat="45.8428484" lon="11.5483202"><ele>1125.0</ele><time>2026-04-26T12:56:12.392Z</time></trkpt><trkpt lat="45.8429502" lon="11.5483286"><ele>1125.0</ele><time>2026-04-26T12:56:13.392Z</time></trkpt><trkpt lat="45.8430517" lon="11.5483435"><ele>1125.0</ele><time>2026-04-26T12:56:14.391Z</time></trkpt><trkpt lat="45.8431578" lon="11.5483716"><ele>1125.0</ele><time>2026-04-26T12:56:15.392Z</time></trkpt><trkpt lat="45.8432585" lon="11.5483965"><ele>1125.0</ele><time>2026-04-26T12:56:16.393Z</time></trkpt><trkpt lat="45.8434537" lon="11.548491"><ele>1124.2</ele><time>2026-04-26T12:56:18.393Z</time></trkpt><trkpt lat="45.8435495" lon="11.5485305"><ele>1123.4</ele><time>2026-04-26T12:56:19.395Z</time></trkpt><trkpt lat="45.843632" lon="11.5485766"><ele>1122.6</ele><time>2026-04-26T12:56:20.393Z</time></trkpt><trkpt lat="45.8437115" lon="11.5486203"><ele>1121.8</ele><time>2026-04-26T12:56:21.392Z</time></trkpt><trkpt lat="45.8437942" lon="11.548647"><ele>1121.0</ele><time>2026-04-26T12:56:22.394Z</time></trkpt><trkpt lat="45.8438888" lon="11.548659"><ele>1121.0</ele><time>2026-04-26T12:56:23.393Z</time></trkpt><trkpt lat="45.8439882" lon="11.5486757"><ele>1121.0</ele><time>2026-04-26T12:56:24.395Z</time></trkpt><trkpt lat="45.844096" lon="11.5487123"><ele>1121.0</ele><time>2026-04-26T12:56:25.395Z</time></trkpt><trkpt lat="45.8442022" lon="11.5487742"><ele>1121.0</ele><time>2026-04-26T12:56:26.394Z</time></trkpt><trkpt lat="45.8443182" lon="11.5488503"><ele>1116.25</ele><time>2026-04-26T12:56:27.393Z</time></trkpt><trkpt lat="45.8444425" lon="11.5489364"><ele>1111.5</ele><time>2026-04-26T12:56:28.395Z</time></trkpt><trkpt lat="45.8445663" lon="11.5490231"><ele>1106.75</ele><time>2026-04-26T12:56:29.394Z</time></trkpt><trkpt lat="45.8446839" lon="11.5491065"><ele>1102.0</ele><time>2026-04-26T12:56:30.394Z</time></trkpt><trkpt lat="45.8447908" lon="11.549178"><ele>1102.0</ele><time>2026-04-26T12:56:31.396Z</time></trkpt><trkpt lat="45.8448894" lon="11.5492346"><ele>1102.0</ele><time>2026-04-26T12:56:32.392Z</time></trkpt><trkpt lat="45.8449788" lon="11.5492978"><ele>1102.0</ele><time>2026-04-26T12:56:33.395Z</time></trkpt><trkpt lat="45.8450622" lon="11.5493677"><ele>1102.0</ele><time>2026-04-26T12:56:34.393Z</time></trkpt><trkpt lat="45.8451385" lon="11.5494334"><ele>1102.0</ele><time>2026-04-26T12:56:35.395Z</time></trkpt><trkpt lat="45.8452115" lon="11.5494856"><ele>1101.2</ele><time>2026-04-26T12:56:36.392Z</time></trkpt><trkpt lat="45.8452852" lon="11.5495368"><ele>1100.4</ele><time>2026-04-26T12:56:37.392Z</time></trkpt><trkpt lat="45.8454294" lon="11.5496258"><ele>1099.6</ele><time>2026-04-26T12:56:39.393Z</time></trkpt><trkpt lat="45.8455165" lon="11.5496648"><ele>1098.8</ele><time>2026-04-26T12:56:40.393Z</time></trkpt><trkpt lat="45.8456159" lon="11.5496903"><ele>1098.0</ele><time>2026-04-26T12:56:41.393Z</time></trkpt><trkpt lat="45.8457311" lon="11.5497046"><ele>1096.2</ele><time>2026-04-26T12:56:42.395Z</time></trkpt><trkpt lat="45.8458468" lon="11.5497126"><ele>1094.4</ele><time>2026-04-26T12:56:43.396Z</time></trkpt><trkpt lat="45.8459538" lon="11.5497067"><ele>1092.6000000000001</ele><time>2026-04-26T12:56:44.396Z</time></trkpt><trkpt lat="45.8460495" lon="11.549696"><ele>1090.8</ele><time>2026-04-26T12:56:45.397Z</time></trkpt><trkpt lat="45.8461358" lon="11.5496811"><ele>1089.0</ele><time>2026-04-26T12:56:46.396Z</time></trkpt><trkpt lat="45.8462112" lon="11.5496733"><ele>1089.0</ele><time>2026-04-26T12:56:47.399Z</time></trkpt><trkpt lat="45.8462793" lon="11.5496682"><ele>1089.0</ele><time>2026-04-26T12:56:48.4Z</time></trkpt><trkpt lat="45.8463909" lon="11.5496636"><ele>1089.0</ele><time>2026-04-26T12:56:50.399Z</time></trkpt><trkpt lat="45.8464495" lon="11.5496993"><ele>1089.0</ele><time>2026-04-26T12:56:52.398Z</time></trkpt><trkpt lat="45.8464884" lon="11.5498005"><ele>1089.0</ele><time>2026-04-26T12:57:22.398Z</time></trkpt><trkpt lat="45.8467287" lon="11.5497249"><ele>1089.25</ele><time>2026-04-26T12:57:25.396Z</time></trkpt><trkpt lat="45.8468594" lon="11.5496509"><ele>1089.5</ele><time>2026-04-26T12:57:26.395Z</time></trkpt><trkpt lat="45.846986" lon="11.5495738"><ele>1089.75</ele><time>2026-04-26T12:57:27.396Z</time></trkpt><trkpt lat="45.8471043" lon="11.5494967"><ele>1090.0</ele><time>2026-04-26T12:57:28.396Z</time></trkpt><trkpt lat="45.8471765" lon="11.5494476"><ele>1090.0</ele><time>2026-04-26T12:57:28.997Z</time></trkpt><trkpt lat="45.8473564" lon="11.5493263"><ele>1090.0</ele><time>2026-04-26T12:57:30.4Z</time></trkpt><trkpt lat="45.8474998" lon="11.5492252"><ele>1090.0</ele><time>2026-04-26T12:57:31.401Z</time></trkpt><trkpt lat="45.8476582" lon="11.5491075"><ele>1092.3333333333333</ele><time>2026-04-26T12:57:32.398Z</time></trkpt><trkpt lat="45.8478265" lon="11.5489813"><ele>1094.6666666666667</ele><time>2026-04-26T12:57:33.399Z</time></trkpt><trkpt lat="45.8479834" lon="11.5488604"><ele>1097.0</ele><time>2026-04-26T12:57:34.397Z</time></trkpt><trkpt lat="45.8481252" lon="11.5487357"><ele>1096.25</ele><time>2026-04-26T12:57:35.398Z</time></trkpt><trkpt lat="45.8482448" lon="11.5485919"><ele>1095.5</ele><time>2026-04-26T12:57:36.397Z</time></trkpt><trkpt lat="45.8483429" lon="11.5484336"><ele>1094.75</ele><time>2026-04-26T12:57:37.398Z</time></trkpt><trkpt lat="45.8484264" lon="11.548272"><ele>1094.0</ele><time>2026-04-26T12:57:38.397Z</time></trkpt><trkpt lat="45.8484992" lon="11.548112"><ele>1094.0</ele><time>2026-04-26T12:57:39.399Z</time></trkpt><trkpt lat="45.8485628" lon="11.547954"><ele>1094.0</ele><time>2026-04-26T12:57:40.399Z</time></trkpt><trkpt lat="45.848618" lon="11.5477985"><ele>1094.0</ele><time>2026-04-26T12:57:41.398Z</time></trkpt><trkpt lat="45.8486672" lon="11.5476465"><ele>1094.0</ele><time>2026-04-26T12:57:42.401Z</time></trkpt><trkpt lat="45.8487167" lon="11.5475024"><ele>1092.5</ele><time>2026-04-26T12:57:43.4Z</time></trkpt><trkpt lat="45.8488317" lon="11.5472517"><ele>1091.0</ele><time>2026-04-26T12:57:45.4Z</time></trkpt><trkpt lat="45.8489023" lon="11.5471565"><ele>1089.5</ele><time>2026-04-26T12:57:46.402Z</time></trkpt><trkpt lat="45.8489836" lon="11.5470855"><ele>1088.0</ele><time>2026-04-26T12:57:47.398Z</time></trkpt><trkpt lat="45.8490851" lon="11.5470422"><ele>1088.6</ele><time>2026-04-26T12:57:48.399Z</time></trkpt><trkpt lat="45.8491886" lon="11.5470024"><ele>1089.1999999999998</ele><time>2026-04-26T12:57:49.398Z</time></trkpt><trkpt lat="45.8492585" lon="11.5469474"><ele>1089.8</ele><time>2026-04-26T12:57:50.196Z</time></trkpt><trkpt lat="45.8493243" lon="11.546822"><ele>1090.3999999999999</ele><time>2026-04-26T12:57:51.395Z</time></trkpt><trkpt lat="45.8493387" lon="11.546696"><ele>1091.0</ele><time>2026-04-26T12:57:52.397Z</time></trkpt><trkpt lat="45.8493144" lon="11.546563"><ele>1089.75</ele><time>2026-04-26T12:57:53.397Z</time></trkpt><trkpt lat="45.8492649" lon="11.5464177"><ele>1088.5</ele><time>2026-04-26T12:57:54.398Z</time></trkpt><trkpt lat="45.8492228" lon="11.5462609"><ele>1087.25</ele><time>2026-04-26T12:57:55.398Z</time></trkpt><trkpt lat="45.8492101" lon="11.5460939"><ele>1086.0</ele><time>2026-04-26T12:57:56.397Z</time></trkpt><trkpt lat="45.849231" lon="11.5459062"><ele>1086.0</ele><time>2026-04-26T12:57:57.398Z</time></trkpt><trkpt lat="45.8492778" lon="11.5456953"><ele>1086.0</ele><time>2026-04-26T12:57:58.397Z</time></trkpt><trkpt lat="45.849342" lon="11.5454632"><ele>1086.0</ele><time>2026-04-26T12:57:59.398Z</time></trkpt><trkpt lat="45.8494184" lon="11.5452084"><ele>1088.0</ele><time>2026-04-26T12:58:00.396Z</time></trkpt><trkpt lat="45.8495018" lon="11.5449331"><ele>1090.0</ele><time>2026-04-26T12:58:01.396Z</time></trkpt><trkpt lat="45.8495876" lon="11.54464"><ele>1092.0</ele><time>2026-04-26T12:58:02.395Z</time></trkpt><trkpt lat="45.8496777" lon="11.5443487"><ele>1092.5</ele><time>2026-04-26T12:58:03.397Z</time></trkpt><trkpt lat="45.8497447" lon="11.5441288"><ele>1093.0</ele><time>2026-04-26T12:58:04.193Z</time></trkpt><trkpt lat="45.8499173" lon="11.5435684"><ele>1093.0</ele><time>2026-04-26T12:58:06.395Z</time></trkpt><trkpt lat="45.849996" lon="11.5433236"><ele>1093.0</ele><time>2026-04-26T12:58:07.396Z</time></trkpt><trkpt lat="45.8500694" lon="11.5430891"><ele>1093.0</ele><time>2026-04-26T12:58:08.396Z</time></trkpt><trkpt lat="45.8501346" lon="11.5428648"><ele>1092.0</ele><time>2026-04-26T12:58:09.396Z</time></trkpt><trkpt lat="45.8501904" lon="11.5426417"><ele>1091.0</ele><time>2026-04-26T12:58:10.396Z</time></trkpt><trkpt lat="45.8502384" lon="11.5424132"><ele>1090.0</ele><time>2026-04-26T12:58:11.396Z</time></trkpt><trkpt lat="45.8502758" lon="11.5421741"><ele>1088.6666666666665</ele><time>2026-04-26T12:58:12.395Z</time></trkpt><trkpt lat="45.8503133" lon="11.5419286"><ele>1087.3333333333333</ele><time>2026-04-26T12:58:13.397Z</time></trkpt><trkpt lat="45.8503485" lon="11.5416938"><ele>1086.0</ele><time>2026-04-26T12:58:14.394Z</time></trkpt><trkpt lat="45.8503808" lon="11.5414647"><ele>1086.0</ele><time>2026-04-26T12:58:15.394Z</time></trkpt><trkpt lat="45.8504129" lon="11.5412395"><ele>1086.0</ele><time>2026-04-26T12:58:16.394Z</time></trkpt><trkpt lat="45.8504504" lon="11.5410239"><ele>1086.0</ele><time>2026-04-26T12:58:17.392Z</time></trkpt><trkpt lat="45.8505036" lon="11.5408218"><ele>1085.0</ele><time>2026-04-26T12:58:18.396Z</time></trkpt><trkpt lat="45.8505878" lon="11.5406279"><ele>1084.0</ele><time>2026-04-26T12:58:19.398Z</time></trkpt><trkpt lat="45.8506963" lon="11.5404346"><ele>1083.0</ele><time>2026-04-26T12:58:20.398Z</time></trkpt><trkpt lat="45.850825" lon="11.5402391"><ele>1084.0</ele><time>2026-04-26T12:58:21.396Z</time></trkpt><trkpt lat="45.8509702" lon="11.5400365"><ele>1085.0</ele><time>2026-04-26T12:58:22.397Z</time></trkpt><trkpt lat="45.8511223" lon="11.5398342"><ele>1086.0</ele><time>2026-04-26T12:58:23.397Z</time></trkpt><trkpt lat="45.8512698" lon="11.53964"><ele>1084.5</ele><time>2026-04-26T12:58:24.399Z</time></trkpt><trkpt lat="45.8515417" lon="11.5392812"><ele>1083.0</ele><time>2026-04-26T12:58:26.397Z</time></trkpt><trkpt lat="45.8516687" lon="11.5391142"><ele>1083.0</ele><time>2026-04-26T12:58:27.398Z</time></trkpt><trkpt lat="45.8517917" lon="11.5389547"><ele>1083.0</ele><time>2026-04-26T12:58:28.398Z</time></trkpt><trkpt lat="45.8519144" lon="11.5387919"><ele>1083.0</ele><time>2026-04-26T12:58:29.397Z</time></trkpt><trkpt lat="45.8520409" lon="11.5386166"><ele>1083.0</ele><time>2026-04-26T12:58:30.398Z</time></trkpt><trkpt lat="45.8521765" lon="11.5384334"><ele>1083.0</ele><time>2026-04-26T12:58:31.396Z</time></trkpt><trkpt lat="45.8523174" lon="11.538249"><ele>1083.0</ele><time>2026-04-26T12:58:32.397Z</time></trkpt><trkpt lat="45.8524537" lon="11.5380725"><ele>1083.0</ele><time>2026-04-26T12:58:33.397Z</time></trkpt><trkpt lat="45.8525849" lon="11.5379039"><ele>1083.0</ele><time>2026-04-26T12:58:34.396Z</time></trkpt><trkpt lat="45.852707" lon="11.5377363"><ele>1083.0</ele><time>2026-04-26T12:58:35.396Z</time></trkpt><trkpt lat="45.8528223" lon="11.5375719"><ele>1078.3333333333333</ele><time>2026-04-26T12:58:36.396Z</time></trkpt><trkpt lat="45.8529291" lon="11.5374021"><ele>1073.6666666666665</ele><time>2026-04-26T12:58:37.398Z</time></trkpt><trkpt lat="45.853023" lon="11.5372245"><ele>1069.0</ele><time>2026-04-26T12:58:38.395Z</time></trkpt><trkpt lat="45.853101" lon="11.537055"><ele>1069.2</ele><time>2026-04-26T12:58:39.396Z</time></trkpt><trkpt lat="45.8531638" lon="11.5369063"><ele>1069.4</ele><time>2026-04-26T12:58:40.395Z</time></trkpt><trkpt lat="45.853215" lon="11.5367786"><ele>1069.6</ele><time>2026-04-26T12:58:41.396Z</time></trkpt><trkpt lat="45.8532545" lon="11.5366614"><ele>1069.8</ele><time>2026-04-26T12:58:42.396Z</time></trkpt><trkpt lat="45.853271" lon="11.5365453"><ele>1070.0</ele><time>2026-04-26T12:58:43.397Z</time></trkpt><trkpt lat="45.8532646" lon="11.5364252"><ele>1070.0</ele><time>2026-04-26T12:58:44.396Z</time></trkpt><trkpt lat="45.853252" lon="11.5362908"><ele>1070.0</ele><time>2026-04-26T12:58:45.397Z</time></trkpt><trkpt lat="45.8532471" lon="11.5359682"><ele>1070.0</ele><time>2026-04-26T12:58:47.398Z</time></trkpt><trkpt lat="45.8532532" lon="11.5357938"><ele>1070.0</ele><time>2026-04-26T12:58:48.398Z</time></trkpt><trkpt lat="45.8532689" lon="11.5356181"><ele>1070.75</ele><time>2026-04-26T12:58:49.399Z</time></trkpt><trkpt lat="45.8532909" lon="11.5354297"><ele>1071.5</ele><time>2026-04-26T12:58:50.397Z</time></trkpt><trkpt lat="45.8533141" lon="11.5352496"><ele>1072.25</ele><time>2026-04-26T12:58:51.398Z</time></trkpt><trkpt lat="45.8533299" lon="11.5350835"><ele>1073.0</ele><time>2026-04-26T12:58:52.399Z</time></trkpt><trkpt lat="45.8533398" lon="11.5349304"><ele>1074.25</ele><time>2026-04-26T12:58:53.4Z</time></trkpt><trkpt lat="45.8533425" lon="11.5348041"><ele>1075.5</ele><time>2026-04-26T12:58:54.199Z</time></trkpt><trkpt lat="45.8533472" lon="11.5345895"><ele>1076.75</ele><time>2026-04-26T12:58:55.399Z</time></trkpt><trkpt lat="45.8533508" lon="11.5344008"><ele>1078.0</ele><time>2026-04-26T12:58:56.398Z</time></trkpt><trkpt lat="45.8533625" lon="11.5342063"><ele>1079.0</ele><time>2026-04-26T12:58:57.399Z</time></trkpt><trkpt lat="45.85338" lon="11.5340042"><ele>1080.0</ele><time>2026-04-26T12:58:58.399Z</time></trkpt><trkpt lat="45.8534036" lon="11.5337949"><ele>1081.0</ele><time>2026-04-26T12:58:59.4Z</time></trkpt><trkpt lat="45.8534415" lon="11.5335714"><ele>1079.3333333333333</ele><time>2026-04-26T12:59:00.398Z</time></trkpt><trkpt lat="45.8534928" lon="11.5333327"><ele>1077.6666666666667</ele><time>2026-04-26T12:59:01.398Z</time></trkpt><trkpt lat="45.8535482" lon="11.5330964"><ele>1076.0</ele><time>2026-04-26T12:59:02.397Z</time></trkpt><trkpt lat="45.8535988" lon="11.5328773"><ele>1076.0</ele><time>2026-04-26T12:59:03.396Z</time></trkpt><trkpt lat="45.8536419" lon="11.5326726"><ele>1076.0</ele><time>2026-04-26T12:59:04.396Z</time></trkpt><trkpt lat="45.8536821" lon="11.5324764"><ele>1076.0</ele><time>2026-04-26T12:59:05.395Z</time></trkpt><trkpt lat="45.8537141" lon="11.532295"><ele>1076.0</ele><time>2026-04-26T12:59:06.394Z</time></trkpt><trkpt lat="45.8537725" lon="11.5319255"><ele>1077.2</ele><time>2026-04-26T12:59:08.396Z</time></trkpt><trkpt lat="45.8537895" lon="11.5317569"><ele>1078.3999999999999</ele><time>2026-04-26T12:59:09.395Z</time></trkpt><trkpt lat="45.8537941" lon="11.5316013"><ele>1079.6</ele><time>2026-04-26T12:59:10.396Z</time></trkpt><trkpt lat="45.8537869" lon="11.5314486"><ele>1080.8</ele><time>2026-04-26T12:59:11.396Z</time></trkpt><trkpt lat="45.8537636" lon="11.5312975"><ele>1082.0</ele><time>2026-04-26T12:59:12.397Z</time></trkpt><trkpt lat="45.8537262" lon="11.5311411"><ele>1082.75</ele><time>2026-04-26T12:59:13.397Z</time></trkpt><trkpt lat="45.8536757" lon="11.5309855"><ele>1083.5</ele><time>2026-04-26T12:59:14.396Z</time></trkpt><trkpt lat="45.8536181" lon="11.5308038"><ele>1084.25</ele><time>2026-04-26T12:59:15.397Z</time></trkpt><trkpt lat="45.8535466" lon="11.5306262"><ele>1085.0</ele><time>2026-04-26T12:59:16.394Z</time></trkpt><trkpt lat="45.8534838" lon="11.5304609"><ele>1085.0</ele><time>2026-04-26T12:59:17.394Z</time></trkpt><trkpt lat="45.8534271" lon="11.5303039"><ele>1085.0</ele><time>2026-04-26T12:59:18.394Z</time></trkpt><trkpt lat="45.8533777" lon="11.5301667"><ele>1085.0</ele><time>2026-04-26T12:59:19.395Z</time></trkpt><trkpt lat="45.853339" lon="11.5300528"><ele>1085.0</ele><time>2026-04-26T12:59:20.394Z</time></trkpt><trkpt lat="45.8533147" lon="11.5299556"><ele>1085.0</ele><time>2026-04-26T12:59:21.396Z</time></trkpt><trkpt lat="45.8533324" lon="11.5297768"><ele>1085.0</ele><time>2026-04-26T12:59:23.396Z</time></trkpt><trkpt lat="45.8533803" lon="11.529665"><ele>1085.0</ele><time>2026-04-26T12:59:24.397Z</time></trkpt><trkpt lat="45.8534395" lon="11.5295565"><ele>1085.0</ele><time>2026-04-26T12:59:25.396Z</time></trkpt><trkpt lat="45.8534984" lon="11.5294506"><ele>1085.0</ele><time>2026-04-26T12:59:26.395Z</time></trkpt><trkpt lat="45.8535448" lon="11.529327"><ele>1085.0</ele><time>2026-04-26T12:59:27.394Z</time></trkpt><trkpt lat="45.8535924" lon="11.5290921"><ele>1085.2</ele><time>2026-04-26T12:59:29.396Z</time></trkpt><trkpt lat="45.8535946" lon="11.52899"><ele>1085.4</ele><time>2026-04-26T12:59:30.396Z</time></trkpt><trkpt lat="45.8535663" lon="11.5288273"><ele>1085.6</ele><time>2026-04-26T12:59:32.397Z</time></trkpt><trkpt lat="45.8534906" lon="11.5287114"><ele>1085.8</ele><time>2026-04-26T12:59:34.398Z</time></trkpt><trkpt lat="45.853374" lon="11.5286658"><ele>1086.0</ele><time>2026-04-26T12:59:36.398Z</time></trkpt><trkpt lat="45.8533041" lon="11.5286545"><ele>1086.0</ele><time>2026-04-26T12:59:37.397Z</time></trkpt><trkpt lat="45.8532193" lon="11.528614"><ele>1086.0</ele><time>2026-04-26T12:59:38.397Z</time></trkpt><trkpt lat="45.8531324" lon="11.5285556"><ele>1086.0</ele><time>2026-04-26T12:59:39.397Z</time></trkpt><trkpt lat="45.8530594" lon="11.528499"><ele>1086.0</ele><time>2026-04-26T12:59:40.397Z</time></trkpt><trkpt lat="45.8529845" lon="11.5284374"><ele>1086.0</ele><time>2026-04-26T12:59:41.397Z</time></trkpt><trkpt lat="45.8529102" lon="11.5283658"><ele>1086.0</ele><time>2026-04-26T12:59:42.397Z</time></trkpt><trkpt lat="45.8528298" lon="11.528292"><ele>1086.0</ele><time>2026-04-26T12:59:43.395Z</time></trkpt><trkpt lat="45.8527457" lon="11.5282207"><ele>1086.0</ele><time>2026-04-26T12:59:44.394Z</time></trkpt><trkpt lat="45.8526643" lon="11.52814"><ele>1086.0</ele><time>2026-04-26T12:59:45.396Z</time></trkpt><trkpt lat="45.8525848" lon="11.5280558"><ele>1086.0</ele><time>2026-04-26T12:59:46.398Z</time></trkpt><trkpt lat="45.8525169" lon="11.5279436"><ele>1086.0</ele><time>2026-04-26T12:59:47.397Z</time></trkpt><trkpt lat="45.8524511" lon="11.5278191"><ele>1086.6</ele><time>2026-04-26T12:59:48.396Z</time></trkpt><trkpt lat="45.852312" lon="11.5276444"><ele>1087.1999999999998</ele><time>2026-04-26T12:59:50.395Z</time></trkpt><trkpt lat="45.8522451" lon="11.5275837"><ele>1087.8000000000002</ele><time>2026-04-26T12:59:51.398Z</time></trkpt><trkpt lat="45.8521823" lon="11.5275311"><ele>1088.4</ele><time>2026-04-26T12:59:52.394Z</time></trkpt><trkpt lat="45.8521096" lon="11.5274939"><ele>1089.0</ele><time>2026-04-26T12:59:53.393Z</time></trkpt><trkpt lat="45.852043" lon="11.5274626"><ele>1089.0</ele><time>2026-04-26T12:59:54.395Z</time></trkpt><trkpt lat="45.8519151" lon="11.5274513"><ele>1089.0</ele><time>2026-04-26T12:59:56.396Z</time></trkpt><trkpt lat="45.8518317" lon="11.5274435"><ele>1089.0</ele><time>2026-04-26T12:59:57.396Z</time></trkpt><trkpt lat="45.8517263" lon="11.5274035"><ele>1089.0</ele><time>2026-04-26T12:59:58.398Z</time></trkpt><trkpt lat="45.851628" lon="11.5273463"><ele>1089.0</ele><time>2026-04-26T12:59:59.395Z</time></trkpt><trkpt lat="45.8515298" lon="11.5272794"><ele>1090.25</ele><time>2026-04-26T13:00:00.396Z</time></trkpt><trkpt lat="45.8514181" lon="11.5272152"><ele>1091.5</ele><time>2026-04-26T13:00:01.395Z</time></trkpt><trkpt lat="45.8513079" lon="11.5271531"><ele>1092.75</ele><time>2026-04-26T13:00:02.395Z</time></trkpt><trkpt lat="45.8511813" lon="11.5270783"><ele>1094.0</ele><time>2026-04-26T13:00:03.395Z</time></trkpt><trkpt lat="45.8510521" lon="11.5270109"><ele>1095.0</ele><time>2026-04-26T13:00:04.394Z</time></trkpt><trkpt lat="45.8509222" lon="11.5269556"><ele>1096.0</ele><time>2026-04-26T13:00:05.396Z</time></trkpt><trkpt lat="45.8507975" lon="11.5269112"><ele>1097.0</ele><time>2026-04-26T13:00:06.393Z</time></trkpt><trkpt lat="45.8506759" lon="11.526885"><ele>1098.0</ele><time>2026-04-26T13:00:07.393Z</time></trkpt><trkpt lat="45.8505524" lon="11.5268721"><ele>1098.0</ele><time>2026-04-26T13:00:08.396Z</time></trkpt><trkpt lat="45.8504352" lon="11.5268552"><ele>1098.0</ele><time>2026-04-26T13:00:09.395Z</time></trkpt><trkpt lat="45.8501989" lon="11.5268251"><ele>1098.0</ele><time>2026-04-26T13:00:11.392Z</time></trkpt><trkpt lat="45.850078" lon="11.5268117"><ele>1098.75</ele><time>2026-04-26T13:00:12.395Z</time></trkpt><trkpt lat="45.8499534" lon="11.5267974"><ele>1099.5</ele><time>2026-04-26T13:00:13.395Z</time></trkpt><trkpt lat="45.8498212" lon="11.5267761"><ele>1100.25</ele><time>2026-04-26T13:00:14.394Z</time></trkpt><trkpt lat="45.8496861" lon="11.5267424"><ele>1101.0</ele><time>2026-04-26T13:00:15.398Z</time></trkpt><trkpt lat="45.8495469" lon="11.5267151"><ele>1101.0</ele><time>2026-04-26T13:00:16.395Z</time></trkpt><trkpt lat="45.8494052" lon="11.5266985"><ele>1101.0</ele><time>2026-04-26T13:00:17.394Z</time></trkpt><trkpt lat="45.8492673" lon="11.5266925"><ele>1101.0</ele><time>2026-04-26T13:00:18.394Z</time></trkpt><trkpt lat="45.8491385" lon="11.5266962"><ele>1101.0</ele><time>2026-04-26T13:00:19.392Z</time></trkpt><trkpt lat="45.8490237" lon="11.5267182"><ele>1100.6</ele><time>2026-04-26T13:00:20.393Z</time></trkpt><trkpt lat="45.8489145" lon="11.5267245"><ele>1100.1999999999998</ele><time>2026-04-26T13:00:21.395Z</time></trkpt><trkpt lat="45.8488094" lon="11.526734"><ele>1099.8000000000002</ele><time>2026-04-26T13:00:22.395Z</time></trkpt><trkpt lat="45.8487211" lon="11.5267459"><ele>1099.4</ele><time>2026-04-26T13:00:23.398Z</time></trkpt><trkpt lat="45.8486452" lon="11.5267442"><ele>1099.0</ele><time>2026-04-26T13:00:24.394Z</time></trkpt><trkpt lat="45.8485636" lon="11.5267185"><ele>1099.0</ele><time>2026-04-26T13:00:25.393Z</time></trkpt><trkpt lat="45.848478" lon="11.5266565"><ele>1099.0</ele><time>2026-04-26T13:00:26.394Z</time></trkpt><trkpt lat="45.8483881" lon="11.5265787"><ele>1099.0</ele><time>2026-04-26T13:00:27.394Z</time></trkpt><trkpt lat="45.8482933" lon="11.5264894"><ele>1099.0</ele><time>2026-04-26T13:00:28.393Z</time></trkpt><trkpt lat="45.8481829" lon="11.526427"><ele>1099.0</ele><time>2026-04-26T13:00:29.393Z</time></trkpt><trkpt lat="45.8480704" lon="11.5263823"><ele>1099.0</ele><time>2026-04-26T13:00:30.395Z</time></trkpt><trkpt lat="45.8478115" lon="11.5263118"><ele>1099.0</ele><time>2026-04-26T13:00:32.393Z</time></trkpt><trkpt lat="45.847671" lon="11.5262972"><ele>1099.0</ele><time>2026-04-26T13:00:33.393Z</time></trkpt><trkpt lat="45.847529" lon="11.5262795"><ele>1100.25</ele><time>2026-04-26T13:00:34.393Z</time></trkpt><trkpt lat="45.8473856" lon="11.5262608"><ele>1101.5</ele><time>2026-04-26T13:00:35.395Z</time></trkpt><trkpt lat="45.8472504" lon="11.5262345"><ele>1102.75</ele><time>2026-04-26T13:00:36.395Z</time></trkpt><trkpt lat="45.8471273" lon="11.5262196"><ele>1104.0</ele><time>2026-04-26T13:00:37.394Z</time></trkpt><trkpt lat="45.8470155" lon="11.5261983"><ele>1104.25</ele><time>2026-04-26T13:00:38.392Z</time></trkpt><trkpt lat="45.846903" lon="11.5261576"><ele>1104.5</ele><time>2026-04-26T13:00:39.395Z</time></trkpt><trkpt lat="45.8467866" lon="11.5261096"><ele>1104.75</ele><time>2026-04-26T13:00:40.392Z</time></trkpt><trkpt lat="45.8466636" lon="11.5260279"><ele>1105.0</ele><time>2026-04-26T13:00:41.392Z</time></trkpt><trkpt lat="45.8465378" lon="11.5259365"><ele>1105.0</ele><time>2026-04-26T13:00:42.392Z</time></trkpt><trkpt lat="45.84641" lon="11.5258557"><ele>1105.0</ele><time>2026-04-26T13:00:43.392Z</time></trkpt><trkpt lat="45.8462869" lon="11.5257902"><ele>1105.0</ele><time>2026-04-26T13:00:44.391Z</time></trkpt><trkpt lat="45.8461719" lon="11.5257327"><ele>1105.0</ele><time>2026-04-26T13:00:45.393Z</time></trkpt><trkpt lat="45.8460664" lon="11.5256969"><ele>1105.4</ele><time>2026-04-26T13:00:46.392Z</time></trkpt><trkpt lat="45.8459568" lon="11.5256977"><ele>1105.8</ele><time>2026-04-26T13:00:47.393Z</time></trkpt><trkpt lat="45.8458514" lon="11.5257104"><ele>1106.2</ele><time>2026-04-26T13:00:48.394Z</time></trkpt><trkpt lat="45.845763" lon="11.5257106"><ele>1106.6</ele><time>2026-04-26T13:00:49.394Z</time></trkpt><trkpt lat="45.8456751" lon="11.5256953"><ele>1107.0</ele><time>2026-04-26T13:00:50.394Z</time></trkpt><trkpt lat="45.8455881" lon="11.525645"><ele>1107.0</ele><time>2026-04-26T13:00:51.394Z</time></trkpt><trkpt lat="45.8454106" lon="11.5254578"><ele>1107.0</ele><time>2026-04-26T13:00:53.394Z</time></trkpt><trkpt lat="45.8453187" lon="11.5253342"><ele>1107.0</ele><time>2026-04-26T13:00:54.394Z</time></trkpt><trkpt lat="45.8452139" lon="11.5252078"><ele>1107.3333333333333</ele><time>2026-04-26T13:00:55.394Z</time></trkpt><trkpt lat="45.8450905" lon="11.5250775"><ele>1107.6666666666665</ele><time>2026-04-26T13:00:56.393Z</time></trkpt><trkpt lat="45.8449645" lon="11.5249461"><ele>1108.0</ele><time>2026-04-26T13:00:57.396Z</time></trkpt><trkpt lat="45.8448327" lon="11.5248143"><ele>1108.0</ele><time>2026-04-26T13:00:58.396Z</time></trkpt><trkpt lat="45.8447076" lon="11.5246803"><ele>1108.0</ele><time>2026-04-26T13:00:59.397Z</time></trkpt><trkpt lat="45.8445877" lon="11.5245435"><ele>1108.0</ele><time>2026-04-26T13:01:00.397Z</time></trkpt><trkpt lat="45.8444717" lon="11.5244373"><ele>1108.0</ele><time>2026-04-26T13:01:01.394Z</time></trkpt><trkpt lat="45.8443603" lon="11.5243478"><ele>1109.0</ele><time>2026-04-26T13:01:02.395Z</time></trkpt><trkpt lat="45.8442438" lon="11.5242759"><ele>1110.0</ele><time>2026-04-26T13:01:03.395Z</time></trkpt><trkpt lat="45.8441178" lon="11.5242205"><ele>1111.0</ele><time>2026-04-26T13:01:04.396Z</time></trkpt><trkpt lat="45.8439824" lon="11.5241819"><ele>1112.0</ele><time>2026-04-26T13:01:05.394Z</time></trkpt><trkpt lat="45.8438389" lon="11.5241689"><ele>1112.0</ele><time>2026-04-26T13:01:06.394Z</time></trkpt><trkpt lat="45.8436827" lon="11.5241712"><ele>1112.0</ele><time>2026-04-26T13:01:07.393Z</time></trkpt><trkpt lat="45.8435244" lon="11.524175"><ele>1112.0</ele><time>2026-04-26T13:01:08.391Z</time></trkpt><trkpt lat="45.8433834" lon="11.5241766"><ele>1113.0</ele><time>2026-04-26T13:01:09.393Z</time></trkpt><trkpt lat="45.8432702" lon="11.5241743"><ele>1114.0</ele><time>2026-04-26T13:01:10.395Z</time></trkpt><trkpt lat="45.8431682" lon="11.5241616"><ele>1115.0</ele><time>2026-04-26T13:01:11.394Z</time></trkpt><trkpt lat="45.8430683" lon="11.5241248"><ele>1116.0</ele><time>2026-04-26T13:01:12.395Z</time></trkpt><trkpt lat="45.8428246" lon="11.523987"><ele>1116.0</ele><time>2026-04-26T13:01:14.392Z</time></trkpt><trkpt lat="45.8426864" lon="11.5239223"><ele>1116.0</ele><time>2026-04-26T13:01:15.394Z</time></trkpt><trkpt lat="45.8425384" lon="11.5238634"><ele>1116.0</ele><time>2026-04-26T13:01:16.392Z</time></trkpt><trkpt lat="45.842393" lon="11.5238082"><ele>1116.0</ele><time>2026-04-26T13:01:17.392Z</time></trkpt><trkpt lat="45.8422473" lon="11.5237466"><ele>1117.75</ele><time>2026-04-26T13:01:18.392Z</time></trkpt><trkpt lat="45.8420969" lon="11.5237056"><ele>1119.5</ele><time>2026-04-26T13:01:19.392Z</time></trkpt><trkpt lat="45.8419559" lon="11.5236697"><ele>1121.25</ele><time>2026-04-26T13:01:20.391Z</time></trkpt><trkpt lat="45.84183" lon="11.5236368"><ele>1123.0</ele><time>2026-04-26T13:01:21.392Z</time></trkpt><trkpt lat="45.8417246" lon="11.5236075"><ele>1123.0</ele><time>2026-04-26T13:01:22.392Z</time></trkpt><trkpt lat="45.8416314" lon="11.5235657"><ele>1123.0</ele><time>2026-04-26T13:01:23.391Z</time></trkpt><trkpt lat="45.8415341" lon="11.5235149"><ele>1123.0</ele><time>2026-04-26T13:01:24.393Z</time></trkpt><trkpt lat="45.841427" lon="11.5234404"><ele>1123.0</ele><time>2026-04-26T13:01:25.393Z</time></trkpt><trkpt lat="45.8413082" lon="11.5233574"><ele>1123.0</ele><time>2026-04-26T13:01:26.392Z</time></trkpt><trkpt lat="45.8411828" lon="11.5232634"><ele>1123.0</ele><time>2026-04-26T13:01:27.393Z</time></trkpt><trkpt lat="45.8410475" lon="11.5231583"><ele>1123.0</ele><time>2026-04-26T13:01:28.393Z</time></trkpt><trkpt lat="45.8409027" lon="11.5230448"><ele>1121.6666666666665</ele><time>2026-04-26T13:01:29.393Z</time></trkpt><trkpt lat="45.840752" lon="11.5229342"><ele>1120.3333333333333</ele><time>2026-04-26T13:01:30.388Z</time></trkpt><trkpt lat="45.8405961" lon="11.5228319"><ele>1119.0</ele><time>2026-04-26T13:01:31.39Z</time></trkpt><trkpt lat="45.8404328" lon="11.522746"><ele>1121.5</ele><time>2026-04-26T13:01:32.391Z</time></trkpt><trkpt lat="45.8402662" lon="11.52266"><ele>1124.0</ele><time>2026-04-26T13:01:33.39Z</time></trkpt><trkpt lat="45.8399644" lon="11.5225273"><ele>1124.0</ele><time>2026-04-26T13:01:35.393Z</time></trkpt><trkpt lat="45.839843" lon="11.5224687"><ele>1124.0</ele><time>2026-04-26T13:01:36.393Z</time></trkpt><trkpt lat="45.8397216" lon="11.5223995"><ele>1124.0</ele><time>2026-04-26T13:01:37.396Z</time></trkpt><trkpt lat="45.8395921" lon="11.5223139"><ele>1124.0</ele><time>2026-04-26T13:01:38.392Z</time></trkpt><trkpt lat="45.8394625" lon="11.5222035"><ele>1124.0</ele><time>2026-04-26T13:01:39.392Z</time></trkpt><trkpt lat="45.8393188" lon="11.5220823"><ele>1124.0</ele><time>2026-04-26T13:01:40.393Z</time></trkpt><trkpt lat="45.8391673" lon="11.5219726"><ele>1124.0</ele><time>2026-04-26T13:01:41.39Z</time></trkpt><trkpt lat="45.8390001" lon="11.5218878"><ele>1126.6666666666667</ele><time>2026-04-26T13:01:42.391Z</time></trkpt><trkpt lat="45.8388296" lon="11.5218151"><ele>1129.3333333333333</ele><time>2026-04-26T13:01:43.391Z</time></trkpt><trkpt lat="45.838663" lon="11.5217544"><ele>1132.0</ele><time>2026-04-26T13:01:44.392Z</time></trkpt><trkpt lat="45.8385165" lon="11.5216787"><ele>1132.25</ele><time>2026-04-26T13:01:45.391Z</time></trkpt><trkpt lat="45.8383791" lon="11.5216138"><ele>1132.5</ele><time>2026-04-26T13:01:46.391Z</time></trkpt><trkpt lat="45.8382406" lon="11.5215635"><ele>1132.75</ele><time>2026-04-26T13:01:47.389Z</time></trkpt><trkpt lat="45.8380962" lon="11.5215436"><ele>1133.0</ele><time>2026-04-26T13:01:48.392Z</time></trkpt><trkpt lat="45.8379495" lon="11.5215403"><ele>1133.0</ele><time>2026-04-26T13:01:49.392Z</time></trkpt><trkpt lat="45.8377948" lon="11.5215418"><ele>1133.0</ele><time>2026-04-26T13:01:50.391Z</time></trkpt><trkpt lat="45.8376425" lon="11.5215372"><ele>1133.0</ele><time>2026-04-26T13:01:51.393Z</time></trkpt><trkpt lat="45.8374907" lon="11.5215227"><ele>1134.3333333333335</ele><time>2026-04-26T13:01:52.39Z</time></trkpt><trkpt lat="45.837333" lon="11.5214937"><ele>1135.6666666666667</ele><time>2026-04-26T13:01:53.393Z</time></trkpt><trkpt lat="45.8371648" lon="11.5214565"><ele>1137.0</ele><time>2026-04-26T13:01:54.39Z</time></trkpt><trkpt lat="45.8368359" lon="11.5213905"><ele>1138.0</ele><time>2026-04-26T13:01:56.39Z</time></trkpt><trkpt lat="45.8366843" lon="11.5213516"><ele>1139.0</ele><time>2026-04-26T13:01:57.392Z</time></trkpt><trkpt lat="45.8365344" lon="11.521307"><ele>1140.0</ele><time>2026-04-26T13:01:58.392Z</time></trkpt><trkpt lat="45.836392" lon="11.5212431"><ele>1139.0</ele><time>2026-04-26T13:01:59.389Z</time></trkpt><trkpt lat="45.8362678" lon="11.5211717"><ele>1138.0</ele><time>2026-04-26T13:02:00.392Z</time></trkpt><trkpt lat="45.8361574" lon="11.5210806"><ele>1137.0</ele><time>2026-04-26T13:02:01.393Z</time></trkpt><trkpt lat="45.8360573" lon="11.520984"><ele>1136.0</ele><time>2026-04-26T13:02:02.392Z</time></trkpt><trkpt lat="45.8359711" lon="11.5208817"><ele>1136.0</ele><time>2026-04-26T13:02:03.393Z</time></trkpt><trkpt lat="45.8359001" lon="11.5207829"><ele>1136.0</ele><time>2026-04-26T13:02:04.394Z</time></trkpt><trkpt lat="45.8358388" lon="11.5207013"><ele>1136.0</ele><time>2026-04-26T13:02:05.392Z</time></trkpt><trkpt lat="45.8357894" lon="11.5206382"><ele>1136.0</ele><time>2026-04-26T13:02:06.39Z</time></trkpt><trkpt lat="45.835727" lon="11.5205394"><ele>1136.0</ele><time>2026-04-26T13:02:08.39Z</time></trkpt><trkpt lat="45.8356669" lon="11.5204822"><ele>1136.0</ele><time>2026-04-26T13:03:36.39Z</time></trkpt><trkpt lat="45.8356145" lon="11.5203352"><ele>1135.75</ele><time>2026-04-26T13:04:38.395Z</time></trkpt><trkpt lat="45.8355896" lon="11.5200217"><ele>1135.5</ele><time>2026-04-26T13:04:42.395Z</time></trkpt><trkpt lat="45.8355555" lon="11.5199414"><ele>1135.25</ele><time>2026-04-26T13:04:43.395Z</time></trkpt><trkpt lat="45.8354966" lon="11.5198598"><ele>1135.0</ele><time>2026-04-26T13:04:44.392Z</time></trkpt><trkpt lat="45.8354272" lon="11.5197838"><ele>1135.0</ele><time>2026-04-26T13:04:45.395Z</time></trkpt><trkpt lat="45.8353601" lon="11.519699"><ele>1135.0</ele><time>2026-04-26T13:04:46.393Z</time></trkpt><trkpt lat="45.8352959" lon="11.5196009"><ele>1135.0</ele><time>2026-04-26T13:04:47.392Z</time></trkpt><trkpt lat="45.8352498" lon="11.5194861"><ele>1135.0</ele><time>2026-04-26T13:04:48.393Z</time></trkpt><trkpt lat="45.8352107" lon="11.5193621"><ele>1135.0</ele><time>2026-04-26T13:04:49.392Z</time></trkpt><trkpt lat="45.8351698" lon="11.5192275"><ele>1136.4</ele><time>2026-04-26T13:04:50.393Z</time></trkpt><trkpt lat="45.8351335" lon="11.5190836"><ele>1137.8</ele><time>2026-04-26T13:04:51.396Z</time></trkpt><trkpt lat="45.8351055" lon="11.5189429"><ele>1139.2</ele><time>2026-04-26T13:04:52.393Z</time></trkpt><trkpt lat="45.8350878" lon="11.5188115"><ele>1140.6</ele><time>2026-04-26T13:04:53.393Z</time></trkpt><trkpt lat="45.8350721" lon="11.5186882"><ele>1142.0</ele><time>2026-04-26T13:04:54.395Z</time></trkpt><trkpt lat="45.8350501" lon="11.5185742"><ele>1142.0</ele><time>2026-04-26T13:04:55.393Z</time></trkpt><trkpt lat="45.8350145" lon="11.5184737"><ele>1142.0</ele><time>2026-04-26T13:04:56.392Z</time></trkpt><trkpt lat="45.8349749" lon="11.518374"><ele>1142.0</ele><time>2026-04-26T13:04:57.392Z</time></trkpt><trkpt lat="45.8349319" lon="11.5182625"><ele>1142.0</ele><time>2026-04-26T13:04:58.393Z</time></trkpt><trkpt lat="45.8348833" lon="11.5181676"><ele>1142.0</ele><time>2026-04-26T13:04:59.191Z</time></trkpt><trkpt lat="45.8347219" lon="11.5179168"><ele>1144.2</ele><time>2026-04-26T13:05:01.393Z</time></trkpt><trkpt lat="45.8346344" lon="11.5178198"><ele>1146.4</ele><time>2026-04-26T13:05:02.393Z</time></trkpt><trkpt lat="45.8345412" lon="11.5177261"><ele>1148.6</ele><time>2026-04-26T13:05:03.394Z</time></trkpt><trkpt lat="45.8344591" lon="11.5176345"><ele>1150.8</ele><time>2026-04-26T13:05:04.393Z</time></trkpt><trkpt lat="45.8343846" lon="11.5175308"><ele>1153.0</ele><time>2026-04-26T13:05:05.394Z</time></trkpt><trkpt lat="45.8343396" lon="11.5174272"><ele>1152.8333333333333</ele><time>2026-04-26T13:05:06.395Z</time></trkpt><trkpt lat="45.8343019" lon="11.517309"><ele>1152.6666666666665</ele><time>2026-04-26T13:05:07.394Z</time></trkpt><trkpt lat="45.8342739" lon="11.517207"><ele>1152.5</ele><time>2026-04-26T13:05:08.396Z</time></trkpt><trkpt lat="45.834246" lon="11.5170951"><ele>1152.3333333333333</ele><time>2026-04-26T13:05:09.394Z</time></trkpt><trkpt lat="45.8342311" lon="11.5169621"><ele>1152.1666666666667</ele><time>2026-04-26T13:05:10.396Z</time></trkpt><trkpt lat="45.834226" lon="11.5168232"><ele>1152.0</ele><time>2026-04-26T13:05:11.393Z</time></trkpt><trkpt lat="45.8342196" lon="11.5166862"><ele>1151.8</ele><time>2026-04-26T13:05:12.391Z</time></trkpt><trkpt lat="45.8342121" lon="11.5165672"><ele>1151.6</ele><time>2026-04-26T13:05:13.391Z</time></trkpt><trkpt lat="45.8341973" lon="11.5164449"><ele>1151.3999999999999</ele><time>2026-04-26T13:05:14.394Z</time></trkpt><trkpt lat="45.834178" lon="11.5163091"><ele>1151.2</ele><time>2026-04-26T13:05:15.394Z</time></trkpt><trkpt lat="45.8341626" lon="11.5161712"><ele>1151.0</ele><time>2026-04-26T13:05:16.395Z</time></trkpt><trkpt lat="45.834144" lon="11.5160417"><ele>1151.75</ele><time>2026-04-26T13:05:17.395Z</time></trkpt><trkpt lat="45.8341205" lon="11.5159324"><ele>1152.5</ele><time>2026-04-26T13:05:18.393Z</time></trkpt><trkpt lat="45.8340774" lon="11.5158333"><ele>1153.25</ele><time>2026-04-26T13:05:19.394Z</time></trkpt><trkpt lat="45.8339522" lon="11.5156275"><ele>1154.0</ele><time>2026-04-26T13:05:21.394Z</time></trkpt><trkpt lat="45.8338705" lon="11.5155256"><ele>1154.0</ele><time>2026-04-26T13:05:22.394Z</time></trkpt><trkpt lat="45.8337757" lon="11.5154325"><ele>1154.0</ele><time>2026-04-26T13:05:23.393Z</time></trkpt><trkpt lat="45.8336713" lon="11.5153517"><ele>1154.0</ele><time>2026-04-26T13:05:24.395Z</time></trkpt><trkpt lat="45.8335735" lon="11.5152773"><ele>1154.0</ele><time>2026-04-26T13:05:25.392Z</time></trkpt><trkpt lat="45.8334902" lon="11.515182"><ele>1154.2</ele><time>2026-04-26T13:05:26.393Z</time></trkpt><trkpt lat="45.8334101" lon="11.5150713"><ele>1154.4</ele><time>2026-04-26T13:05:27.395Z</time></trkpt><trkpt lat="45.8333408" lon="11.5149593"><ele>1154.6</ele><time>2026-04-26T13:05:28.397Z</time></trkpt><trkpt lat="45.8332753" lon="11.5148541"><ele>1154.8</ele><time>2026-04-26T13:05:29.394Z</time></trkpt><trkpt lat="45.8332021" lon="11.5147693"><ele>1155.0</ele><time>2026-04-26T13:05:30.395Z</time></trkpt><trkpt lat="45.8331318" lon="11.5147012"><ele>1155.0</ele><time>2026-04-26T13:05:31.395Z</time></trkpt><trkpt lat="45.8330585" lon="11.5146357"><ele>1155.0</ele><time>2026-04-26T13:05:32.394Z</time></trkpt><trkpt lat="45.8329887" lon="11.5145686"><ele>1155.0</ele><time>2026-04-26T13:05:33.394Z</time></trkpt><trkpt lat="45.8329317" lon="11.5145006"><ele>1155.0</ele><time>2026-04-26T13:05:34.393Z</time></trkpt><trkpt lat="45.8328848" lon="11.5144074"><ele>1155.0</ele><time>2026-04-26T13:05:35.391Z</time></trkpt><trkpt lat="45.8328517" lon="11.5143011"><ele>1155.0</ele><time>2026-04-26T13:05:36.392Z</time></trkpt><trkpt lat="45.8328329" lon="11.5141947"><ele>1155.6</ele><time>2026-04-26T13:05:37.391Z</time></trkpt><trkpt lat="45.8328091" lon="11.514102"><ele>1156.2</ele><time>2026-04-26T13:05:38.392Z</time></trkpt><trkpt lat="45.8327808" lon="11.514007"><ele>1156.8</ele><time>2026-04-26T13:05:39.394Z</time></trkpt><trkpt lat="45.8327401" lon="11.5139147"><ele>1157.4</ele><time>2026-04-26T13:05:40.393Z</time></trkpt><trkpt lat="45.8326095" lon="11.5137532"><ele>1158.0</ele><time>2026-04-26T13:05:42.393Z</time></trkpt><trkpt lat="45.8325347" lon="11.5136725"><ele>1158.0</ele><time>2026-04-26T13:05:43.395Z</time></trkpt><trkpt lat="45.8324672" lon="11.5136102"><ele>1158.0</ele><time>2026-04-26T13:05:44.392Z</time></trkpt><trkpt lat="45.8324155" lon="11.5135568"><ele>1158.0</ele><time>2026-04-26T13:05:45.392Z</time></trkpt><trkpt lat="45.8323434" lon="11.5134124"><ele>1158.0</ele><time>2026-04-26T13:05:47.392Z</time></trkpt><trkpt lat="45.8323096" lon="11.5133116"><ele>1158.0</ele><time>2026-04-26T13:05:48.393Z</time></trkpt><trkpt lat="45.8322743" lon="11.5132069"><ele>1158.0</ele><time>2026-04-26T13:05:49.394Z</time></trkpt><trkpt lat="45.8322408" lon="11.5130854"><ele>1158.0</ele><time>2026-04-26T13:05:50.394Z</time></trkpt><trkpt lat="45.8322154" lon="11.5129728"><ele>1158.0</ele><time>2026-04-26T13:05:51.395Z</time></trkpt><trkpt lat="45.8321881" lon="11.5128819"><ele>1158.0</ele><time>2026-04-26T13:05:52.396Z</time></trkpt><trkpt lat="45.8321342" lon="11.5127634"><ele>1158.0</ele><time>2026-04-26T13:05:54.393Z</time></trkpt><trkpt lat="45.8321102" lon="11.5126769"><ele>1158.0</ele><time>2026-04-26T13:06:08.392Z</time></trkpt><trkpt lat="45.8320489" lon="11.5124819"><ele>1159.2</ele><time>2026-04-26T13:06:16.393Z</time></trkpt><trkpt lat="45.8320045" lon="11.5123544"><ele>1160.4</ele><time>2026-04-26T13:06:19.395Z</time></trkpt><trkpt lat="45.8319445" lon="11.5121914"><ele>1161.6000000000001</ele><time>2026-04-26T13:06:21.395Z</time></trkpt><trkpt lat="45.8319105" lon="11.5120874"><ele>1162.8</ele><time>2026-04-26T13:06:22.395Z</time></trkpt><trkpt lat="45.8318736" lon="11.511973"><ele>1164.0</ele><time>2026-04-26T13:06:23.396Z</time></trkpt><trkpt lat="45.8318468" lon="11.5118616"><ele>1164.8333333333333</ele><time>2026-04-26T13:06:24.392Z</time></trkpt><trkpt lat="45.8318175" lon="11.5117505"><ele>1165.6666666666667</ele><time>2026-04-26T13:06:25.393Z</time></trkpt><trkpt lat="45.8317916" lon="11.5116337"><ele>1166.5</ele><time>2026-04-26T13:06:26.392Z</time></trkpt><trkpt lat="45.8317694" lon="11.5115064"><ele>1167.3333333333335</ele><time>2026-04-26T13:06:27.393Z</time></trkpt><trkpt lat="45.8317484" lon="11.5113763"><ele>1168.1666666666667</ele><time>2026-04-26T13:06:28.392Z</time></trkpt><trkpt lat="45.8317249" lon="11.5112684"><ele>1169.0</ele><time>2026-04-26T13:06:29.395Z</time></trkpt><trkpt lat="45.8316756" lon="11.511077"><ele>1169.6666666666667</ele><time>2026-04-26T13:06:31.392Z</time></trkpt><trkpt lat="45.8316316" lon="11.5109888"><ele>1170.3333333333335</ele><time>2026-04-26T13:06:32.394Z</time></trkpt><trkpt lat="45.8315737" lon="11.5109087"><ele>1171.0</ele><time>2026-04-26T13:06:33.394Z</time></trkpt><trkpt lat="45.8315077" lon="11.5108263"><ele>1171.6666666666667</ele><time>2026-04-26T13:06:34.392Z</time></trkpt><trkpt lat="45.8314318" lon="11.5107471"><ele>1172.3333333333333</ele><time>2026-04-26T13:06:35.394Z</time></trkpt><trkpt lat="45.8313594" lon="11.5106667"><ele>1173.0</ele><time>2026-04-26T13:06:36.395Z</time></trkpt><trkpt lat="45.8312809" lon="11.5105927"><ele>1173.0</ele><time>2026-04-26T13:06:37.394Z</time></trkpt><trkpt lat="45.8312067" lon="11.5104995"><ele>1173.0</ele><time>2026-04-26T13:06:38.392Z</time></trkpt><trkpt lat="45.831142" lon="11.5104031"><ele>1173.0</ele><time>2026-04-26T13:06:39.395Z</time></trkpt><trkpt lat="45.8310762" lon="11.5102996"><ele>1173.0</ele><time>2026-04-26T13:06:40.396Z</time></trkpt><trkpt lat="45.8310096" lon="11.5101976"><ele>1173.0</ele><time>2026-04-26T13:06:41.396Z</time></trkpt><trkpt lat="45.8309431" lon="11.5101264"><ele>1174.8</ele><time>2026-04-26T13:06:42.395Z</time></trkpt><trkpt lat="45.8308697" lon="11.5100729"><ele>1176.6</ele><time>2026-04-26T13:06:43.394Z</time></trkpt><trkpt lat="45.8307844" lon="11.5100302"><ele>1178.4</ele><time>2026-04-26T13:06:44.395Z</time></trkpt><trkpt lat="45.8306911" lon="11.509987"><ele>1180.2</ele><time>2026-04-26T13:06:45.396Z</time></trkpt><trkpt lat="45.8305932" lon="11.5099408"><ele>1182.0</ele><time>2026-04-26T13:06:46.394Z</time></trkpt><trkpt lat="45.8304914" lon="11.5098805"><ele>1182.0</ele><time>2026-04-26T13:06:47.395Z</time></trkpt><trkpt lat="45.830392" lon="11.5098249"><ele>1182.0</ele><time>2026-04-26T13:06:48.393Z</time></trkpt><trkpt lat="45.8302907" lon="11.5097693"><ele>1182.0</ele><time>2026-04-26T13:06:49.394Z</time></trkpt><trkpt lat="45.8301939" lon="11.5097046"><ele>1182.0</ele><time>2026-04-26T13:06:50.392Z</time></trkpt><trkpt lat="45.8299986" lon="11.5095473"><ele>1183.2</ele><time>2026-04-26T13:06:52.393Z</time></trkpt><trkpt lat="45.8299166" lon="11.5094706"><ele>1184.4</ele><time>2026-04-26T13:06:53.394Z</time></trkpt><trkpt lat="45.8298394" lon="11.5094059"><ele>1185.6</ele><time>2026-04-26T13:06:54.394Z</time></trkpt><trkpt lat="45.8297749" lon="11.5093652"><ele>1186.8</ele><time>2026-04-26T13:06:55.394Z</time></trkpt><trkpt lat="45.829689" lon="11.5092718"><ele>1188.0</ele><time>2026-04-26T13:06:57.395Z</time></trkpt><trkpt lat="45.8296505" lon="11.5091537"><ele>1188.0</ele><time>2026-04-26T13:06:59.395Z</time></trkpt><trkpt lat="45.8296223" lon="11.5090023"><ele>1188.0</ele><time>2026-04-26T13:07:01.395Z</time></trkpt><trkpt lat="45.829576" lon="11.5088811"><ele>1188.0</ele><time>2026-04-26T13:07:03.395Z</time></trkpt><trkpt lat="45.8295338" lon="11.5088113"><ele>1188.0</ele><time>2026-04-26T13:07:07.394Z</time></trkpt><trkpt lat="45.8294775" lon="11.5087234"><ele>1188.0</ele><time>2026-04-26T13:07:19.394Z</time></trkpt><trkpt lat="45.829238" lon="11.5086862"><ele>1188.8</ele><time>2026-04-26T13:07:23.395Z</time></trkpt><trkpt lat="45.8291398" lon="11.5086182"><ele>1189.6</ele><time>2026-04-26T13:07:25.394Z</time></trkpt><trkpt lat="45.8290928" lon="11.5084426"><ele>1190.4</ele><time>2026-04-26T13:07:27.396Z</time></trkpt><trkpt lat="45.8290933" lon="11.5083254"><ele>1191.2</ele><time>2026-04-26T13:07:28.396Z</time></trkpt><trkpt lat="45.8291025" lon="11.5081979"><ele>1192.0</ele><time>2026-04-26T13:07:29.396Z</time></trkpt><trkpt lat="45.8291158" lon="11.5080795"><ele>1192.0</ele><time>2026-04-26T13:07:30.395Z</time></trkpt><trkpt lat="45.8291527" lon="11.507989"><ele>1192.0</ele><time>2026-04-26T13:07:31.398Z</time></trkpt><trkpt lat="45.8291999" lon="11.5078895"><ele>1192.0</ele><time>2026-04-26T13:07:32.393Z</time></trkpt><trkpt lat="45.8292473" lon="11.5077864"><ele>1192.0</ele><time>2026-04-26T13:07:33.395Z</time></trkpt><trkpt lat="45.8292843" lon="11.5076794"><ele>1192.0</ele><time>2026-04-26T13:07:34.395Z</time></trkpt><trkpt lat="45.8292959" lon="11.5075844"><ele>1192.0</ele><time>2026-04-26T13:07:35.394Z</time></trkpt><trkpt lat="45.829255" lon="11.5074137"><ele>1191.6</ele><time>2026-04-26T13:07:37.392Z</time></trkpt><trkpt lat="45.8292228" lon="11.507316"><ele>1191.2</ele><time>2026-04-26T13:07:38.391Z</time></trkpt><trkpt lat="45.8291936" lon="11.5072004"><ele>1190.8</ele><time>2026-04-26T13:07:39.392Z</time></trkpt><trkpt lat="45.8291646" lon="11.5070801"><ele>1190.4</ele><time>2026-04-26T13:07:40.391Z</time></trkpt><trkpt lat="45.8291444" lon="11.506841"><ele>1190.0</ele><time>2026-04-26T13:07:42.394Z</time></trkpt><trkpt lat="45.8291482" lon="11.5067372"><ele>1190.0</ele><time>2026-04-26T13:07:43.394Z</time></trkpt><trkpt lat="45.8291663" lon="11.5065782"><ele>1190.0</ele><time>2026-04-26T13:07:45.393Z</time></trkpt><trkpt lat="45.8291769" lon="11.5064225"><ele>1190.0</ele><time>2026-04-26T13:07:47.396Z</time></trkpt><trkpt lat="45.8291773" lon="11.5063298"><ele>1190.0</ele><time>2026-04-26T13:07:48.394Z</time></trkpt><trkpt lat="45.8291685" lon="11.5062265"><ele>1190.0</ele><time>2026-04-26T13:07:49.393Z</time></trkpt><trkpt lat="45.82915" lon="11.5061147"><ele>1190.0</ele><time>2026-04-26T13:07:50.394Z</time></trkpt><trkpt lat="45.8291263" lon="11.5059993"><ele>1191.0</ele><time>2026-04-26T13:07:51.394Z</time></trkpt><trkpt lat="45.8290849" lon="11.505882"><ele>1192.0</ele><time>2026-04-26T13:07:52.394Z</time></trkpt><trkpt lat="45.8290647" lon="11.5057505"><ele>1193.0</ele><time>2026-04-26T13:07:53.395Z</time></trkpt><trkpt lat="45.8290425" lon="11.5056092"><ele>1194.0</ele><time>2026-04-26T13:07:54.393Z</time></trkpt><trkpt lat="45.8290191" lon="11.5054564"><ele>1195.0</ele><time>2026-04-26T13:07:55.395Z</time></trkpt><trkpt lat="45.8289978" lon="11.5053119"><ele>1196.4</ele><time>2026-04-26T13:07:56.393Z</time></trkpt><trkpt lat="45.8289782" lon="11.505186"><ele>1197.8</ele><time>2026-04-26T13:07:57.395Z</time></trkpt><trkpt lat="45.8289611" lon="11.5050573"><ele>1199.2</ele><time>2026-04-26T13:07:58.393Z</time></trkpt><trkpt lat="45.8289481" lon="11.5049257"><ele>1200.6</ele><time>2026-04-26T13:07:59.393Z</time></trkpt><trkpt lat="45.8289386" lon="11.5048008"><ele>1202.0</ele><time>2026-04-26T13:08:00.191Z</time></trkpt><trkpt lat="45.8289145" lon="11.5046197"><ele>1203.4</ele><time>2026-04-26T13:08:01.392Z</time></trkpt><trkpt lat="45.8288366" lon="11.5043695"><ele>1204.8000000000002</ele><time>2026-04-26T13:08:03.392Z</time></trkpt><trkpt lat="45.828783" lon="11.504265"><ele>1206.2</ele><time>2026-04-26T13:08:04.39Z</time></trkpt><trkpt lat="45.8287351" lon="11.5041747"><ele>1207.6000000000001</ele><time>2026-04-26T13:08:05.391Z</time></trkpt><trkpt lat="45.8287074" lon="11.5040872"><ele>1209.0</ele><time>2026-04-26T13:08:06.395Z</time></trkpt><trkpt lat="45.8286961" lon="11.5039877"><ele>1209.0</ele><time>2026-04-26T13:08:08.392Z</time></trkpt><trkpt lat="45.8287317" lon="11.5038991"><ele>1209.0</ele><time>2026-04-26T13:08:31.395Z</time></trkpt><trkpt lat="45.8288255" lon="11.5037464"><ele>1209.0</ele><time>2026-04-26T13:08:34.395Z</time></trkpt><trkpt lat="45.8288651" lon="11.5036725"><ele>1209.0</ele><time>2026-04-26T13:08:35.394Z</time></trkpt><trkpt lat="45.8288895" lon="11.5035091"><ele>1209.0</ele><time>2026-04-26T13:08:37.394Z</time></trkpt><trkpt lat="45.8288884" lon="11.5034045"><ele>1210.1666666666667</ele><time>2026-04-26T13:08:38.395Z</time></trkpt><trkpt lat="45.8288817" lon="11.5033017"><ele>1211.3333333333333</ele><time>2026-04-26T13:08:39.397Z</time></trkpt><trkpt lat="45.8288788" lon="11.5031495"><ele>1212.5</ele><time>2026-04-26T13:08:41.393Z</time></trkpt><trkpt lat="45.828926" lon="11.5029971"><ele>1213.6666666666665</ele><time>2026-04-26T13:08:43.396Z</time></trkpt><trkpt lat="45.8289553" lon="11.5029069"><ele>1214.8333333333333</ele><time>2026-04-26T13:08:44.394Z</time></trkpt><trkpt lat="45.8289816" lon="11.5028112"><ele>1216.0</ele><time>2026-04-26T13:08:45.395Z</time></trkpt><trkpt lat="45.8290175" lon="11.5027065"><ele>1216.3333333333333</ele><time>2026-04-26T13:08:46.39Z</time></trkpt><trkpt lat="45.829046" lon="11.5025854"><ele>1216.6666666666665</ele><time>2026-04-26T13:08:47.394Z</time></trkpt><trkpt lat="45.8290774" lon="11.502453"><ele>1217.0</ele><time>2026-04-26T13:08:48.394Z</time></trkpt><trkpt lat="45.8291026" lon="11.5023319"><ele>1217.3333333333333</ele><time>2026-04-26T13:08:49.393Z</time></trkpt><trkpt lat="45.8291056" lon="11.5022197"><ele>1217.6666666666667</ele><time>2026-04-26T13:08:50.391Z</time></trkpt><trkpt lat="45.8290942" lon="11.5021244"><ele>1218.0</ele><time>2026-04-26T13:08:51.39Z</time></trkpt><trkpt lat="45.8290632" lon="11.5020236"><ele>1218.25</ele><time>2026-04-26T13:08:52.391Z</time></trkpt><trkpt lat="45.8289548" lon="11.5018132"><ele>1218.5</ele><time>2026-04-26T13:08:54.393Z</time></trkpt><trkpt lat="45.8288823" lon="11.5017118"><ele>1218.75</ele><time>2026-04-26T13:08:55.393Z</time></trkpt><trkpt lat="45.8288106" lon="11.5016385"><ele>1219.0</ele><time>2026-04-26T13:08:56.392Z</time></trkpt><trkpt lat="45.8287348" lon="11.5015769"><ele>1219.0</ele><time>2026-04-26T13:08:57.392Z</time></trkpt><trkpt lat="45.8286838" lon="11.5015001"><ele>1219.0</ele><time>2026-04-26T13:08:58.393Z</time></trkpt><trkpt lat="45.828628" lon="11.5013993"><ele>1219.0</ele><time>2026-04-26T13:08:59.391Z</time></trkpt><trkpt lat="45.8285868" lon="11.5012871"><ele>1219.0</ele><time>2026-04-26T13:09:00.393Z</time></trkpt><trkpt lat="45.8285661" lon="11.5011544"><ele>1219.0</ele><time>2026-04-26T13:09:01.394Z</time></trkpt><trkpt lat="45.8285551" lon="11.5010218"><ele>1219.0</ele><time>2026-04-26T13:09:02.393Z</time></trkpt><trkpt lat="45.8285568" lon="11.5008864"><ele>1219.0</ele><time>2026-04-26T13:09:03.393Z</time></trkpt><trkpt lat="45.8285597" lon="11.500759"><ele>1219.0</ele><time>2026-04-26T13:09:04.393Z</time></trkpt><trkpt lat="45.8285762" lon="11.5006468"><ele>1219.0</ele><time>2026-04-26T13:09:05.395Z</time></trkpt><trkpt lat="45.8285913" lon="11.5005524"><ele>1219.0</ele><time>2026-04-26T13:09:06.395Z</time></trkpt><trkpt lat="45.8286493" lon="11.5004274"><ele>1219.0</ele><time>2026-04-26T13:09:08.396Z</time></trkpt><trkpt lat="45.8287557" lon="11.5004038"><ele>1219.0</ele><time>2026-04-26T13:09:10.395Z</time></trkpt><trkpt lat="45.8288339" lon="11.5004245"><ele>1219.0</ele><time>2026-04-26T13:09:11.395Z</time></trkpt><trkpt lat="45.8289204" lon="11.5004506"><ele>1219.0</ele><time>2026-04-26T13:09:12.396Z</time></trkpt><trkpt lat="45.8289885" lon="11.5004694"><ele>1219.0</ele><time>2026-04-26T13:09:13.394Z</time></trkpt><trkpt lat="45.8291162" lon="11.5004157"><ele>1219.0</ele><time>2026-04-26T13:09:15.394Z</time></trkpt><trkpt lat="45.8291765" lon="11.5003343"><ele>1219.0</ele><time>2026-04-26T13:09:16.395Z</time></trkpt><trkpt lat="45.8292252" lon="11.5002239"><ele>1219.0</ele><time>2026-04-26T13:09:17.393Z</time></trkpt><trkpt lat="45.8292754" lon="11.5000751"><ele>1219.0</ele><time>2026-04-26T13:09:18.394Z</time></trkpt><trkpt lat="45.8293253" lon="11.499894"><ele>1219.0</ele><time>2026-04-26T13:09:19.396Z</time></trkpt><trkpt lat="45.8293739" lon="11.4997211"><ele>1219.0</ele><time>2026-04-26T13:09:20.394Z</time></trkpt><trkpt lat="45.8294133" lon="11.4995374"><ele>1221.0</ele><time>2026-04-26T13:09:21.393Z</time></trkpt><trkpt lat="45.8294481" lon="11.4993452"><ele>1223.0</ele><time>2026-04-26T13:09:22.394Z</time></trkpt><trkpt lat="45.8294818" lon="11.4991687"><ele>1225.0</ele><time>2026-04-26T13:09:23.393Z</time></trkpt><trkpt lat="45.8294993" lon="11.4990708"><ele>1227.0</ele><time>2026-04-26T13:09:23.997Z</time></trkpt><trkpt lat="45.8295385" lon="11.4988589"><ele>1226.6</ele><time>2026-04-26T13:09:25.394Z</time></trkpt><trkpt lat="45.8295727" lon="11.4987115"><ele>1226.2</ele><time>2026-04-26T13:09:26.392Z</time></trkpt><trkpt lat="45.8296051" lon="11.4985739"><ele>1225.8</ele><time>2026-04-26T13:09:27.395Z</time></trkpt><trkpt lat="45.8296548" lon="11.4984409"><ele>1225.4</ele><time>2026-04-26T13:09:28.394Z</time></trkpt><trkpt lat="45.8297122" lon="11.498308"><ele>1225.0</ele><time>2026-04-26T13:09:29.395Z</time></trkpt><trkpt lat="45.8297869" lon="11.4981707"><ele>1225.0</ele><time>2026-04-26T13:09:30.395Z</time></trkpt><trkpt lat="45.8298668" lon="11.4980303"><ele>1225.0</ele><time>2026-04-26T13:09:31.395Z</time></trkpt><trkpt lat="45.8299415" lon="11.4979016"><ele>1225.0</ele><time>2026-04-26T13:09:32.393Z</time></trkpt><trkpt lat="45.8300123" lon="11.4977821"><ele>1225.0</ele><time>2026-04-26T13:09:33.394Z</time></trkpt><trkpt lat="45.8300811" lon="11.4976562"><ele>1226.6</ele><time>2026-04-26T13:09:34.393Z</time></trkpt><trkpt lat="45.8301759" lon="11.4974358"><ele>1228.2</ele><time>2026-04-26T13:09:36.394Z</time></trkpt><trkpt lat="45.8301946" lon="11.4973158"><ele>1229.8</ele><time>2026-04-26T13:09:37.395Z</time></trkpt><trkpt lat="45.8301945" lon="11.4972165"><ele>1231.4</ele><time>2026-04-26T13:09:38.393Z</time></trkpt><trkpt lat="45.8301925" lon="11.4970714"><ele>1233.0</ele><time>2026-04-26T13:09:40.39Z</time></trkpt><trkpt lat="45.8302203" lon="11.4968833"><ele>1233.0</ele><time>2026-04-26T13:09:42.392Z</time></trkpt><trkpt lat="45.8302555" lon="11.4967593"><ele>1233.0</ele><time>2026-04-26T13:09:43.393Z</time></trkpt><trkpt lat="45.8303045" lon="11.4966246"><ele>1233.0</ele><time>2026-04-26T13:09:44.395Z</time></trkpt><trkpt lat="45.8303559" lon="11.4964951"><ele>1233.0</ele><time>2026-04-26T13:09:45.394Z</time></trkpt><trkpt lat="45.8303967" lon="11.4963914"><ele>1233.0</ele><time>2026-04-26T13:09:46.395Z</time></trkpt><trkpt lat="45.8304321" lon="11.4962999"><ele>1233.4</ele><time>2026-04-26T13:09:47.394Z</time></trkpt><trkpt lat="45.8305128" lon="11.496159"><ele>1233.8</ele><time>2026-04-26T13:09:49.393Z</time></trkpt><trkpt lat="45.8305639" lon="11.4960882"><ele>1234.2</ele><time>2026-04-26T13:09:50.394Z</time></trkpt><trkpt lat="45.8306263" lon="11.4960339"><ele>1234.6</ele><time>2026-04-26T13:09:51.394Z</time></trkpt><trkpt lat="45.830707" lon="11.4959915"><ele>1235.0</ele><time>2026-04-26T13:09:52.393Z</time></trkpt><trkpt lat="45.8307987" lon="11.4959654"><ele>1235.0</ele><time>2026-04-26T13:09:53.393Z</time></trkpt><trkpt lat="45.8308925" lon="11.4959547"><ele>1235.0</ele><time>2026-04-26T13:09:54.397Z</time></trkpt><trkpt lat="45.830979" lon="11.4959387"><ele>1235.0</ele><time>2026-04-26T13:09:55.394Z</time></trkpt><trkpt lat="45.8311435" lon="11.4958896"><ele>1235.0</ele><time>2026-04-26T13:09:57.394Z</time></trkpt><trkpt lat="45.8312162" lon="11.4958827"><ele>1235.0</ele><time>2026-04-26T13:09:58.394Z</time></trkpt><trkpt lat="45.8312909" lon="11.4958833"><ele>1235.1666666666667</ele><time>2026-04-26T13:09:59.392Z</time></trkpt><trkpt lat="45.8313568" lon="11.495853"><ele>1235.3333333333335</ele><time>2026-04-26T13:10:00.396Z</time></trkpt><trkpt lat="45.831469" lon="11.4957398"><ele>1235.5</ele><time>2026-04-26T13:10:02.393Z</time></trkpt><trkpt lat="45.8315264" lon="11.495658"><ele>1235.6666666666667</ele><time>2026-04-26T13:10:03.394Z</time></trkpt><trkpt lat="45.8315799" lon="11.4955758"><ele>1235.8333333333333</ele><time>2026-04-26T13:10:04.394Z</time></trkpt><trkpt lat="45.8316346" lon="11.4954871"><ele>1236.0</ele><time>2026-04-26T13:10:05.392Z</time></trkpt><trkpt lat="45.8316856" lon="11.4953939"><ele>1236.0</ele><time>2026-04-26T13:10:06.392Z</time></trkpt><trkpt lat="45.8317253" lon="11.4953058"><ele>1236.0</ele><time>2026-04-26T13:10:07.392Z</time></trkpt><trkpt lat="45.8317759" lon="11.4952246"><ele>1236.0</ele><time>2026-04-26T13:10:08.393Z</time></trkpt><trkpt lat="45.8318197" lon="11.4951348"><ele>1236.0</ele><time>2026-04-26T13:10:09.393Z</time></trkpt><trkpt lat="45.8318599" lon="11.4950428"><ele>1236.0</ele><time>2026-04-26T13:10:10.394Z</time></trkpt><trkpt lat="45.831897" lon="11.4949441"><ele>1236.0</ele><time>2026-04-26T13:10:11.393Z</time></trkpt><trkpt lat="45.8319366" lon="11.4948499"><ele>1232.8</ele><time>2026-04-26T13:10:12.394Z</time></trkpt><trkpt lat="45.8319735" lon="11.4947598"><ele>1229.6</ele><time>2026-04-26T13:10:13.394Z</time></trkpt><trkpt lat="45.8320066" lon="11.4946719"><ele>1226.4</ele><time>2026-04-26T13:10:14.394Z</time></trkpt><trkpt lat="45.8320509" lon="11.4945808"><ele>1223.2</ele><time>2026-04-26T13:10:15.395Z</time></trkpt><trkpt lat="45.8321127" lon="11.4944944"><ele>1220.0</ele><time>2026-04-26T13:10:16.394Z</time></trkpt><trkpt lat="45.8322644" lon="11.4943411"><ele>1220.0</ele><time>2026-04-26T13:10:18.395Z</time></trkpt><trkpt lat="45.832339" lon="11.4942606"><ele>1220.0</ele><time>2026-04-26T13:10:19.397Z</time></trkpt><trkpt lat="45.8324036" lon="11.4941858"><ele>1220.0</ele><time>2026-04-26T13:10:20.395Z</time></trkpt><trkpt lat="45.8324667" lon="11.4941065"><ele>1220.0</ele><time>2026-04-26T13:10:21.396Z</time></trkpt><trkpt lat="45.832527" lon="11.4940096"><ele>1220.0</ele><time>2026-04-26T13:10:22.394Z</time></trkpt><trkpt lat="45.8326667" lon="11.4938206"><ele>1217.6666666666667</ele><time>2026-04-26T13:10:24.394Z</time></trkpt><trkpt lat="45.8327367" lon="11.4937443"><ele>1215.3333333333335</ele><time>2026-04-26T13:10:25.394Z</time></trkpt><trkpt lat="45.8328127" lon="11.4936878"><ele>1213.0</ele><time>2026-04-26T13:10:26.393Z</time></trkpt><trkpt lat="45.8328941" lon="11.4936446"><ele>1210.6666666666667</ele><time>2026-04-26T13:10:27.395Z</time></trkpt><trkpt lat="45.8329731" lon="11.4936002"><ele>1208.3333333333333</ele><time>2026-04-26T13:10:28.394Z</time></trkpt><trkpt lat="45.8330438" lon="11.4935544"><ele>1206.0</ele><time>2026-04-26T13:10:29.392Z</time></trkpt><trkpt lat="45.8331194" lon="11.4934794"><ele>1206.0</ele><time>2026-04-26T13:10:30.391Z</time></trkpt><trkpt lat="45.8331939" lon="11.4933721"><ele>1206.0</ele><time>2026-04-26T13:10:31.392Z</time></trkpt><trkpt lat="45.833268" lon="11.4932678"><ele>1206.0</ele><time>2026-04-26T13:10:32.392Z</time></trkpt><trkpt lat="45.8333363" lon="11.4931627"><ele>1206.0</ele><time>2026-04-26T13:10:33.394Z</time></trkpt><trkpt lat="45.8334143" lon="11.493047"><ele>1206.0</ele><time>2026-04-26T13:10:34.395Z</time></trkpt><trkpt lat="45.833482" lon="11.492932"><ele>1202.5</ele><time>2026-04-26T13:10:35.396Z</time></trkpt><trkpt lat="45.8335476" lon="11.4928258"><ele>1199.0</ele><time>2026-04-26T13:10:36.392Z</time></trkpt><trkpt lat="45.8336143" lon="11.4927173"><ele>1195.5</ele><time>2026-04-26T13:10:37.394Z</time></trkpt><trkpt lat="45.8337552" lon="11.4925414"><ele>1192.0</ele><time>2026-04-26T13:10:39.394Z</time></trkpt><trkpt lat="45.8337962" lon="11.4924594"><ele>1192.0</ele><time>2026-04-26T13:10:40.395Z</time></trkpt><trkpt lat="45.8338276" lon="11.4923676"><ele>1192.0</ele><time>2026-04-26T13:10:41.395Z</time></trkpt><trkpt lat="45.8338666" lon="11.4922613"><ele>1192.0</ele><time>2026-04-26T13:10:42.395Z</time></trkpt><trkpt lat="45.8339024" lon="11.4921474"><ele>1192.0</ele><time>2026-04-26T13:10:43.394Z</time></trkpt><trkpt lat="45.8339582" lon="11.4920242"><ele>1192.0</ele><time>2026-04-26T13:10:44.394Z</time></trkpt><trkpt lat="45.8340295" lon="11.4919072"><ele>1193.5</ele><time>2026-04-26T13:10:45.396Z</time></trkpt><trkpt lat="45.8340975" lon="11.4918081"><ele>1195.0</ele><time>2026-04-26T13:10:46.396Z</time></trkpt><trkpt lat="45.8341533" lon="11.491724"><ele>1196.5</ele><time>2026-04-26T13:10:47.395Z</time></trkpt><trkpt lat="45.8342038" lon="11.4916533"><ele>1198.0</ele><time>2026-04-26T13:10:48.393Z</time></trkpt><trkpt lat="45.8342568" lon="11.4915868"><ele>1199.5</ele><time>2026-04-26T13:10:49.395Z</time></trkpt><trkpt lat="45.8343064" lon="11.4915226"><ele>1201.0</ele><time>2026-04-26T13:10:50.395Z</time></trkpt><trkpt lat="45.8344157" lon="11.4913929"><ele>1198.2</ele><time>2026-04-26T13:10:52.394Z</time></trkpt><trkpt lat="45.8344729" lon="11.4913123"><ele>1195.3999999999999</ele><time>2026-04-26T13:10:53.394Z</time></trkpt><trkpt lat="45.834552" lon="11.4912145"><ele>1192.6</ele><time>2026-04-26T13:10:54.394Z</time></trkpt><trkpt lat="45.8346302" lon="11.4911268"><ele>1189.8</ele><time>2026-04-26T13:10:55.391Z</time></trkpt><trkpt lat="45.8347089" lon="11.4910519"><ele>1187.0</ele><time>2026-04-26T13:10:56.392Z</time></trkpt><trkpt lat="45.8347935" lon="11.4909863"><ele>1187.0</ele><time>2026-04-26T13:10:57.394Z</time></trkpt><trkpt lat="45.8348684" lon="11.4909367"><ele>1187.0</ele><time>2026-04-26T13:10:58.395Z</time></trkpt><trkpt lat="45.8350319" lon="11.4908382"><ele>1187.0</ele><time>2026-04-26T13:11:00.394Z</time></trkpt><trkpt lat="45.8351068" lon="11.4907695"><ele>1187.0</ele><time>2026-04-26T13:11:01.395Z</time></trkpt><trkpt lat="45.8351679" lon="11.4906807"><ele>1187.0</ele><time>2026-04-26T13:11:02.395Z</time></trkpt><trkpt lat="45.8352179" lon="11.4905547"><ele>1185.0</ele><time>2026-04-26T13:11:03.394Z</time></trkpt><trkpt lat="45.8352605" lon="11.4904231"><ele>1183.0</ele><time>2026-04-26T13:11:04.396Z</time></trkpt><trkpt lat="45.8352972" lon="11.4902823"><ele>1181.0</ele><time>2026-04-26T13:11:05.398Z</time></trkpt><trkpt lat="45.8353199" lon="11.4901334"><ele>1179.0</ele><time>2026-04-26T13:11:06.399Z</time></trkpt><trkpt lat="45.8353311" lon="11.4899902"><ele>1177.0</ele><time>2026-04-26T13:11:07.397Z</time></trkpt><trkpt lat="45.8353291" lon="11.4898512"><ele>1177.0</ele><time>2026-04-26T13:11:08.394Z</time></trkpt><trkpt lat="45.8353147" lon="11.4897242"><ele>1177.0</ele><time>2026-04-26T13:11:09.394Z</time></trkpt><trkpt lat="45.83528" lon="11.4894941"><ele>1177.0</ele><time>2026-04-26T13:11:11.394Z</time></trkpt><trkpt lat="45.8352554" lon="11.4893834"><ele>1177.0</ele><time>2026-04-26T13:11:12.395Z</time></trkpt><trkpt lat="45.8352194" lon="11.4892765"><ele>1177.0</ele><time>2026-04-26T13:11:13.394Z</time></trkpt><trkpt lat="45.8351622" lon="11.489149"><ele>1176.5</ele><time>2026-04-26T13:11:14.397Z</time></trkpt><trkpt lat="45.8351038" lon="11.4890301"><ele>1176.0</ele><time>2026-04-26T13:11:15.397Z</time></trkpt><trkpt lat="45.8350601" lon="11.4889191"><ele>1175.5</ele><time>2026-04-26T13:11:16.395Z</time></trkpt><trkpt lat="45.8350254" lon="11.4888304"><ele>1175.0</ele><time>2026-04-26T13:11:17.394Z</time></trkpt><trkpt lat="45.8349939" lon="11.4887499"><ele>1174.5</ele><time>2026-04-26T13:11:18.394Z</time></trkpt><trkpt lat="45.8349528" lon="11.4886781"><ele>1174.0</ele><time>2026-04-26T13:11:19.394Z</time></trkpt><trkpt lat="45.8347808" lon="11.4885682"><ele>1174.0</ele><time>2026-04-26T13:11:22.394Z</time></trkpt><trkpt lat="45.8347169" lon="11.4885486"><ele>1174.0</ele><time>2026-04-26T13:11:23.395Z</time></trkpt><trkpt lat="45.834606" lon="11.4885543"><ele>1174.0</ele><time>2026-04-26T13:11:25.395Z</time></trkpt><trkpt lat="45.8344953" lon="11.4885651"><ele>1174.0</ele><time>2026-04-26T13:11:27.397Z</time></trkpt><trkpt lat="45.8344065" lon="11.4886087"><ele>1174.0</ele><time>2026-04-26T13:11:29.395Z</time></trkpt><trkpt lat="45.8343269" lon="11.4886921"><ele>1173.6000000000001</ele><time>2026-04-26T13:11:31.395Z</time></trkpt><trkpt lat="45.8342581" lon="11.4887609"><ele>1173.2</ele><time>2026-04-26T13:11:33.393Z</time></trkpt><trkpt lat="45.8341834" lon="11.4887435"><ele>1172.8000000000002</ele><time>2026-04-26T13:11:35.393Z</time></trkpt><trkpt lat="45.8340947" lon="11.4886756"><ele>1172.4</ele><time>2026-04-26T13:11:37.392Z</time></trkpt><trkpt lat="45.8340379" lon="11.4886232"><ele>1172.0</ele><time>2026-04-26T13:11:38.394Z</time></trkpt><trkpt lat="45.8339292" lon="11.4885356"><ele>1172.0</ele><time>2026-04-26T13:11:40.392Z</time></trkpt><trkpt lat="45.8337672" lon="11.4884947"><ele>1172.0</ele><time>2026-04-26T13:11:42.393Z</time></trkpt><trkpt lat="45.8336791" lon="11.48848"><ele>1172.0</ele><time>2026-04-26T13:11:43.391Z</time></trkpt><trkpt lat="45.8335918" lon="11.4884557"><ele>1172.0</ele><time>2026-04-26T13:11:44.389Z</time></trkpt><trkpt lat="45.8335061" lon="11.488419"><ele>1172.0</ele><time>2026-04-26T13:11:45.391Z</time></trkpt><trkpt lat="45.833411" lon="11.4883877"><ele>1172.6</ele><time>2026-04-26T13:11:46.391Z</time></trkpt><trkpt lat="45.8333109" lon="11.4883354"><ele>1173.2</ele><time>2026-04-26T13:11:47.393Z</time></trkpt><trkpt lat="45.8332144" lon="11.4882786"><ele>1173.8</ele><time>2026-04-26T13:11:48.395Z</time></trkpt><trkpt lat="45.8331257" lon="11.4881985"><ele>1174.4</ele><time>2026-04-26T13:11:49.395Z</time></trkpt><trkpt lat="45.8330429" lon="11.4881187"><ele>1175.0</ele><time>2026-04-26T13:11:50.394Z</time></trkpt><trkpt lat="45.8329752" lon="11.4880658"><ele>1175.0</ele><time>2026-04-26T13:11:51.392Z</time></trkpt><trkpt lat="45.8328679" lon="11.4879964"><ele>1175.0</ele><time>2026-04-26T13:11:53.392Z</time></trkpt><trkpt lat="45.8327982" lon="11.4878952"><ele>1175.0</ele><time>2026-04-26T13:11:55.393Z</time></trkpt><trkpt lat="45.832772" lon="11.4877924"><ele>1175.0</ele><time>2026-04-26T13:11:56.393Z</time></trkpt><trkpt lat="45.8327396" lon="11.4876706"><ele>1175.0</ele><time>2026-04-26T13:11:57.393Z</time></trkpt><trkpt lat="45.8327243" lon="11.487569"><ele>1172.25</ele><time>2026-04-26T13:11:58.393Z</time></trkpt><trkpt lat="45.8326633" lon="11.4874525"><ele>1169.5</ele><time>2026-04-26T13:12:00.394Z</time></trkpt><trkpt lat="45.8325712" lon="11.4874068"><ele>1166.75</ele><time>2026-04-26T13:12:02.395Z</time></trkpt><trkpt lat="45.8324436" lon="11.4873204"><ele>1164.0</ele><time>2026-04-26T13:12:06.394Z</time></trkpt><trkpt lat="45.8324203" lon="11.4871347"><ele>1162.5</ele><time>2026-04-26T13:12:08.393Z</time></trkpt><trkpt lat="45.8324295" lon="11.4870033"><ele>1161.0</ele><time>2026-04-26T13:12:09.393Z</time></trkpt><trkpt lat="45.8324213" lon="11.4868781"><ele>1159.5</ele><time>2026-04-26T13:12:10.393Z</time></trkpt><trkpt lat="45.8323985" lon="11.4867473"><ele>1158.0</ele><time>2026-04-26T13:12:11.393Z</time></trkpt><trkpt lat="45.8323574" lon="11.4866374"><ele>1156.5</ele><time>2026-04-26T13:12:12.394Z</time></trkpt><trkpt lat="45.8323153" lon="11.4865322"><ele>1155.0</ele><time>2026-04-26T13:12:13.394Z</time></trkpt><trkpt lat="45.8322901" lon="11.4864389"><ele>1155.0</ele><time>2026-04-26T13:12:14.394Z</time></trkpt><trkpt lat="45.8322725" lon="11.4863466"><ele>1155.0</ele><time>2026-04-26T13:12:15.393Z</time></trkpt><trkpt lat="45.8322544" lon="11.48625"><ele>1155.0</ele><time>2026-04-26T13:12:16.394Z</time></trkpt><trkpt lat="45.8322369" lon="11.4861528"><ele>1155.0</ele><time>2026-04-26T13:12:17.394Z</time></trkpt><trkpt lat="45.8322404" lon="11.486038"><ele>1155.0</ele><time>2026-04-26T13:12:18.394Z</time></trkpt><trkpt lat="45.8322565" lon="11.4859276"><ele>1155.0</ele><time>2026-04-26T13:12:19.395Z</time></trkpt><trkpt lat="45.8322892" lon="11.4858473"><ele>1155.0</ele><time>2026-04-26T13:12:20.392Z</time></trkpt><trkpt lat="45.8323178" lon="11.4857623"><ele>1153.8</ele><time>2026-04-26T13:12:21.394Z</time></trkpt><trkpt lat="45.8323413" lon="11.4856687"><ele>1152.6</ele><time>2026-04-26T13:12:22.395Z</time></trkpt><trkpt lat="45.8323527" lon="11.4855645"><ele>1151.4</ele><time>2026-04-26T13:12:23.397Z</time></trkpt><trkpt lat="45.8323407" lon="11.4853234"><ele>1150.2</ele><time>2026-04-26T13:12:25.394Z</time></trkpt><trkpt lat="45.8323288" lon="11.4851961"><ele>1149.0</ele><time>2026-04-26T13:12:26.395Z</time></trkpt><trkpt lat="45.832313" lon="11.4850801"><ele>1148.5</ele><time>2026-04-26T13:12:27.394Z</time></trkpt><trkpt lat="45.8322964" lon="11.4849609"><ele>1148.0</ele><time>2026-04-26T13:12:28.393Z</time></trkpt><trkpt lat="45.8323001" lon="11.4848504"><ele>1147.5</ele><time>2026-04-26T13:12:29.395Z</time></trkpt><trkpt lat="45.8323065" lon="11.4847402"><ele>1147.0</ele><time>2026-04-26T13:12:30.392Z</time></trkpt><trkpt lat="45.8323033" lon="11.4846289"><ele>1146.5</ele><time>2026-04-26T13:12:31.394Z</time></trkpt><trkpt lat="45.8322915" lon="11.4845266"><ele>1146.0</ele><time>2026-04-26T13:12:32.392Z</time></trkpt><trkpt lat="45.832284" lon="11.4843805"><ele>1144.8</ele><time>2026-04-26T13:12:34.392Z</time></trkpt><trkpt lat="45.8322357" lon="11.4842328"><ele>1143.6</ele><time>2026-04-26T13:12:36.395Z</time></trkpt><trkpt lat="45.8321404" lon="11.4840828"><ele>1142.4</ele><time>2026-04-26T13:12:38.392Z</time></trkpt><trkpt lat="45.832094" lon="11.4840191"><ele>1141.2</ele><time>2026-04-26T13:12:39.393Z</time></trkpt><trkpt lat="45.8320374" lon="11.4839512"><ele>1140.0</ele><time>2026-04-26T13:12:40.393Z</time></trkpt><trkpt lat="45.8319762" lon="11.4838571"><ele>1140.0</ele><time>2026-04-26T13:12:41.392Z</time></trkpt><trkpt lat="45.8319174" lon="11.483765"><ele>1140.0</ele><time>2026-04-26T13:12:42.394Z</time></trkpt><trkpt lat="45.831861" lon="11.4836772"><ele>1140.0</ele><time>2026-04-26T13:12:43.395Z</time></trkpt><trkpt lat="45.8318005" lon="11.483578"><ele>1140.0</ele><time>2026-04-26T13:12:44.394Z</time></trkpt><trkpt lat="45.8317197" lon="11.4833571"><ele>1140.0</ele><time>2026-04-26T13:12:46.396Z</time></trkpt><trkpt lat="45.8316856" lon="11.4832549"><ele>1139.6666666666667</ele><time>2026-04-26T13:12:47.397Z</time></trkpt><trkpt lat="45.8316503" lon="11.4831534"><ele>1139.3333333333333</ele><time>2026-04-26T13:12:48.393Z</time></trkpt><trkpt lat="45.8316164" lon="11.4830711"><ele>1139.0</ele><time>2026-04-26T13:12:49.394Z</time></trkpt><trkpt lat="45.8315822" lon="11.4829826"><ele>1138.6666666666665</ele><time>2026-04-26T13:12:50.393Z</time></trkpt><trkpt lat="45.8315203" lon="11.4829109"><ele>1138.3333333333333</ele><time>2026-04-26T13:12:51.395Z</time></trkpt><trkpt lat="45.8314458" lon="11.4828545"><ele>1138.0</ele><time>2026-04-26T13:12:52.396Z</time></trkpt><trkpt lat="45.8313729" lon="11.4828188"><ele>1134.8</ele><time>2026-04-26T13:12:53.394Z</time></trkpt><trkpt lat="45.8313028" lon="11.4827827"><ele>1131.6</ele><time>2026-04-26T13:12:54.393Z</time></trkpt><trkpt lat="45.8311989" lon="11.4826793"><ele>1128.4</ele><time>2026-04-26T13:12:56.392Z</time></trkpt><trkpt lat="45.8311533" lon="11.4825812"><ele>1125.2</ele><time>2026-04-26T13:12:57.393Z</time></trkpt><trkpt lat="45.8310992" lon="11.4824841"><ele>1122.0</ele><time>2026-04-26T13:12:58.391Z</time></trkpt><trkpt lat="45.8310411" lon="11.4824052"><ele>1122.0</ele><time>2026-04-26T13:12:59.391Z</time></trkpt><trkpt lat="45.8309787" lon="11.4823705"><ele>1122.0</ele><time>2026-04-26T13:13:00.395Z</time></trkpt><trkpt lat="45.8309069" lon="11.4823431"><ele>1122.0</ele><time>2026-04-26T13:13:01.391Z</time></trkpt><trkpt lat="45.8308319" lon="11.4822985"><ele>1122.0</ele><time>2026-04-26T13:13:02.392Z</time></trkpt><trkpt lat="45.8307647" lon="11.4822441"><ele>1122.0</ele><time>2026-04-26T13:13:03.394Z</time></trkpt><trkpt lat="45.8307154" lon="11.4821877"><ele>1122.0</ele><time>2026-04-26T13:13:04.392Z</time></trkpt><trkpt lat="45.8306776" lon="11.4821146"><ele>1122.0</ele><time>2026-04-26T13:13:05.391Z</time></trkpt><trkpt lat="45.8305911" lon="11.4819126"><ele>1121.4</ele><time>2026-04-26T13:13:07.391Z</time></trkpt><trkpt lat="45.8305237" lon="11.4818035"><ele>1120.8000000000002</ele><time>2026-04-26T13:13:08.393Z</time></trkpt><trkpt lat="45.8304306" lon="11.4816867"><ele>1120.2</ele><time>2026-04-26T13:13:09.393Z</time></trkpt><trkpt lat="45.830343" lon="11.4815805"><ele>1119.6000000000001</ele><time>2026-04-26T13:13:10.392Z</time></trkpt><trkpt lat="45.8302621" lon="11.4814815"><ele>1119.0</ele><time>2026-04-26T13:13:11.393Z</time></trkpt><trkpt lat="45.8301777" lon="11.4813573"><ele>1118.4</ele><time>2026-04-26T13:13:12.392Z</time></trkpt><trkpt lat="45.8301071" lon="11.4812595"><ele>1117.8000000000002</ele><time>2026-04-26T13:13:13.394Z</time></trkpt><trkpt lat="45.8300395" lon="11.4811727"><ele>1117.1999999999998</ele><time>2026-04-26T13:13:14.393Z</time></trkpt><trkpt lat="45.8299752" lon="11.4810648"><ele>1116.6</ele><time>2026-04-26T13:13:15.395Z</time></trkpt><trkpt lat="45.8299101" lon="11.4809459"><ele>1116.0</ele><time>2026-04-26T13:13:16.393Z</time></trkpt><trkpt lat="45.8298625" lon="11.4808187"><ele>1116.0</ele><time>2026-04-26T13:13:17.396Z</time></trkpt><trkpt lat="45.829825" lon="11.4806936"><ele>1116.0</ele><time>2026-04-26T13:13:18.393Z</time></trkpt><trkpt lat="45.8297959" lon="11.4805563"><ele>1116.0</ele><time>2026-04-26T13:13:19.394Z</time></trkpt><trkpt lat="45.8297814" lon="11.4804224"><ele>1116.0</ele><time>2026-04-26T13:13:20.394Z</time></trkpt><trkpt lat="45.8297878" lon="11.480293"><ele>1116.0</ele><time>2026-04-26T13:13:21.393Z</time></trkpt><trkpt lat="45.8297975" lon="11.4801817"><ele>1114.2</ele><time>2026-04-26T13:13:22.391Z</time></trkpt><trkpt lat="45.8298049" lon="11.4800762"><ele>1112.3999999999999</ele><time>2026-04-26T13:13:23.392Z</time></trkpt><trkpt lat="45.8297967" lon="11.4799785"><ele>1110.6</ele><time>2026-04-26T13:13:24.394Z</time></trkpt><trkpt lat="45.8297697" lon="11.4798884"><ele>1108.8</ele><time>2026-04-26T13:13:25.395Z</time></trkpt><trkpt lat="45.8296875" lon="11.4797623"><ele>1107.0</ele><time>2026-04-26T13:13:27.394Z</time></trkpt><trkpt lat="45.8295654" lon="11.479674"><ele>1107.0</ele><time>2026-04-26T13:13:29.393Z</time></trkpt><trkpt lat="45.8295085" lon="11.4796252"><ele>1107.0</ele><time>2026-04-26T13:13:30.392Z</time></trkpt><trkpt lat="45.8294289" lon="11.4794891"><ele>1107.0</ele><time>2026-04-26T13:13:32.395Z</time></trkpt><trkpt lat="45.8293856" lon="11.4793538"><ele>1107.0</ele><time>2026-04-26T13:13:34.397Z</time></trkpt><trkpt lat="45.8293469" lon="11.4792807"><ele>1107.0</ele><time>2026-04-26T13:13:43.392Z</time></trkpt><trkpt lat="45.829298" lon="11.4792179"><ele>1107.0</ele><time>2026-04-26T13:14:24.395Z</time></trkpt><trkpt lat="45.8291362" lon="11.479291"><ele>1107.1666666666667</ele><time>2026-04-26T13:14:30.393Z</time></trkpt><trkpt lat="45.8290393" lon="11.4793095"><ele>1107.3333333333333</ele><time>2026-04-26T13:14:32.394Z</time></trkpt><trkpt lat="45.8289755" lon="11.479311"><ele>1107.5</ele><time>2026-04-26T13:14:33.393Z</time></trkpt><trkpt lat="45.8289076" lon="11.4793077"><ele>1107.6666666666665</ele><time>2026-04-26T13:14:34.393Z</time></trkpt><trkpt lat="45.8288359" lon="11.4793089"><ele>1107.8333333333333</ele><time>2026-04-26T13:14:35.394Z</time></trkpt><trkpt lat="45.8287562" lon="11.4793139"><ele>1108.0</ele><time>2026-04-26T13:14:36.393Z</time></trkpt><trkpt lat="45.8286724" lon="11.479332"><ele>1108.0</ele><time>2026-04-26T13:14:37.39Z</time></trkpt><trkpt lat="45.8285984" lon="11.4793495"><ele>1108.0</ele><time>2026-04-26T13:14:38.395Z</time></trkpt><trkpt lat="45.8285355" lon="11.4793538"><ele>1108.0</ele><time>2026-04-26T13:14:39.393Z</time></trkpt><trkpt lat="45.8284238" lon="11.4793039"><ele>1108.0</ele><time>2026-04-26T13:14:41.392Z</time></trkpt><trkpt lat="45.828362" lon="11.4792463"><ele>1108.0</ele><time>2026-04-26T13:14:42.393Z</time></trkpt><trkpt lat="45.82831" lon="11.4791656"><ele>1108.0</ele><time>2026-04-26T13:14:43.392Z</time></trkpt><trkpt lat="45.8282777" lon="11.4790835"><ele>1110.75</ele><time>2026-04-26T13:14:44.391Z</time></trkpt><trkpt lat="45.8282498" lon="11.4789753"><ele>1113.5</ele><time>2026-04-26T13:14:45.394Z</time></trkpt><trkpt lat="45.828198" lon="11.4787217"><ele>1116.25</ele><time>2026-04-26T13:14:48.394Z</time></trkpt><trkpt lat="45.8280983" lon="11.4786403"><ele>1119.0</ele><time>2026-04-26T13:14:50.392Z</time></trkpt><trkpt lat="45.8280263" lon="11.4786161"><ele>1119.0</ele><time>2026-04-26T13:14:51.394Z</time></trkpt><trkpt lat="45.8279547" lon="11.478599"><ele>1119.0</ele><time>2026-04-26T13:14:52.392Z</time></trkpt><trkpt lat="45.8278907" lon="11.4785593"><ele>1119.0</ele><time>2026-04-26T13:14:53.395Z</time></trkpt><trkpt lat="45.8278292" lon="11.4785037"><ele>1119.0</ele><time>2026-04-26T13:14:54.393Z</time></trkpt><trkpt lat="45.8277702" lon="11.4784203"><ele>1119.0</ele><time>2026-04-26T13:14:55.395Z</time></trkpt><trkpt lat="45.8277133" lon="11.4783484"><ele>1119.0</ele><time>2026-04-26T13:14:56.394Z</time></trkpt><trkpt lat="45.8276473" lon="11.4782498"><ele>1121.4</ele><time>2026-04-26T13:14:57.394Z</time></trkpt><trkpt lat="45.8275843" lon="11.4781589"><ele>1123.8000000000002</ele><time>2026-04-26T13:14:58.396Z</time></trkpt><trkpt lat="45.8275139" lon="11.478068"><ele>1126.1999999999998</ele><time>2026-04-26T13:14:59.394Z</time></trkpt><trkpt lat="45.8274267" lon="11.4779773"><ele>1128.6</ele><time>2026-04-26T13:15:00.393Z</time></trkpt><trkpt lat="45.8273317" lon="11.4779044"><ele>1131.0</ele><time>2026-04-26T13:15:01.392Z</time></trkpt><trkpt lat="45.8272347" lon="11.4778438"><ele>1131.8333333333333</ele><time>2026-04-26T13:15:02.392Z</time></trkpt><trkpt lat="45.8271525" lon="11.4777892"><ele>1132.6666666666667</ele><time>2026-04-26T13:15:03.394Z</time></trkpt><trkpt lat="45.8270945" lon="11.4777411"><ele>1133.5</ele><time>2026-04-26T13:15:04.393Z</time></trkpt><trkpt lat="45.8270426" lon="11.4776739"><ele>1134.3333333333335</ele><time>2026-04-26T13:15:05.392Z</time></trkpt><trkpt lat="45.8269624" lon="11.4775806"><ele>1135.1666666666667</ele><time>2026-04-26T13:15:07.393Z</time></trkpt><trkpt lat="45.8268668" lon="11.4776778"><ele>1136.0</ele><time>2026-04-26T13:15:12.391Z</time></trkpt><trkpt lat="45.8268796" lon="11.4778154"><ele>1135.1666666666667</ele><time>2026-04-26T13:15:14.392Z</time></trkpt><trkpt lat="45.8268737" lon="11.4779832"><ele>1134.3333333333335</ele><time>2026-04-26T13:15:16.392Z</time></trkpt><trkpt lat="45.8268635" lon="11.4780892"><ele>1133.5</ele><time>2026-04-26T13:15:17.392Z</time></trkpt><trkpt lat="45.826844" lon="11.4781932"><ele>1132.6666666666667</ele><time>2026-04-26T13:15:18.395Z</time></trkpt><trkpt lat="45.8268222" lon="11.4783051"><ele>1131.8333333333333</ele><time>2026-04-26T13:15:19.393Z</time></trkpt><trkpt lat="45.8267953" lon="11.4783962"><ele>1131.0</ele><time>2026-04-26T13:15:20.392Z</time></trkpt><trkpt lat="45.8267544" lon="11.4784958"><ele>1133.2</ele><time>2026-04-26T13:15:22.391Z</time></trkpt><trkpt lat="45.8266812" lon="11.4785253"><ele>1135.3999999999999</ele><time>2026-04-26T13:15:25.391Z</time></trkpt><trkpt lat="45.8266334" lon="11.4784608"><ele>1137.6</ele><time>2026-04-26T13:15:27.393Z</time></trkpt><trkpt lat="45.8265871" lon="11.4783184"><ele>1139.8</ele><time>2026-04-26T13:15:29.394Z</time></trkpt><trkpt lat="45.8264945" lon="11.4781612"><ele>1142.0</ele><time>2026-04-26T13:15:31.393Z</time></trkpt><trkpt lat="45.8264265" lon="11.478083"><ele>1142.0</ele><time>2026-04-26T13:15:32.391Z</time></trkpt><trkpt lat="45.8263684" lon="11.4780042"><ele>1142.0</ele><time>2026-04-26T13:15:33.392Z</time></trkpt><trkpt lat="45.8263048" lon="11.4779245"><ele>1142.0</ele><time>2026-04-26T13:15:34.394Z</time></trkpt><trkpt lat="45.8262412" lon="11.477845"><ele>1142.0</ele><time>2026-04-26T13:15:35.391Z</time></trkpt><trkpt lat="45.8261909" lon="11.477759"><ele>1142.0</ele><time>2026-04-26T13:15:36.391Z</time></trkpt><trkpt lat="45.8261271" lon="11.4776732"><ele>1142.0</ele><time>2026-04-26T13:15:37.394Z</time></trkpt><trkpt lat="45.8260501" lon="11.4776122"><ele>1144.5</ele><time>2026-04-26T13:15:38.391Z</time></trkpt><trkpt lat="45.8259687" lon="11.4775688"><ele>1147.0</ele><time>2026-04-26T13:15:39.392Z</time></trkpt><trkpt lat="45.8258942" lon="11.4775324"><ele>1149.5</ele><time>2026-04-26T13:15:40.392Z</time></trkpt><trkpt lat="45.8258203" lon="11.4775034"><ele>1152.0</ele><time>2026-04-26T13:15:41.391Z</time></trkpt><trkpt lat="45.8257578" lon="11.4774887"><ele>1154.5</ele><time>2026-04-26T13:15:42.393Z</time></trkpt><trkpt lat="45.8256227" lon="11.4774813"><ele>1157.0</ele><time>2026-04-26T13:15:44.39Z</time></trkpt><trkpt lat="45.8255399" lon="11.4774859"><ele>1157.0</ele><time>2026-04-26T13:15:45.392Z</time></trkpt><trkpt lat="45.8254516" lon="11.4774945"><ele>1157.0</ele><time>2026-04-26T13:15:46.391Z</time></trkpt><trkpt lat="45.8253588" lon="11.477504"><ele>1157.0</ele><time>2026-04-26T13:15:47.39Z</time></trkpt><trkpt lat="45.8252699" lon="11.4775124"><ele>1157.0</ele><time>2026-04-26T13:15:48.39Z</time></trkpt><trkpt lat="45.8251788" lon="11.4775091"><ele>1157.0</ele><time>2026-04-26T13:15:49.391Z</time></trkpt><trkpt lat="45.8251049" lon="11.4775094"><ele>1157.0</ele><time>2026-04-26T13:15:50.192Z</time></trkpt><trkpt lat="45.8249221" lon="11.4774801"><ele>1158.5</ele><time>2026-04-26T13:15:52.392Z</time></trkpt><trkpt lat="45.8248405" lon="11.4774778"><ele>1160.0</ele><time>2026-04-26T13:15:53.392Z</time></trkpt><trkpt lat="45.8247514" lon="11.477453"><ele>1161.5</ele><time>2026-04-26T13:15:54.393Z</time></trkpt><trkpt lat="45.824656" lon="11.477427"><ele>1163.0</ele><time>2026-04-26T13:15:55.393Z</time></trkpt><trkpt lat="45.8245697" lon="11.4774139"><ele>1164.5</ele><time>2026-04-26T13:15:56.393Z</time></trkpt><trkpt lat="45.8244895" lon="11.477388"><ele>1166.0</ele><time>2026-04-26T13:15:57.391Z</time></trkpt><trkpt lat="45.8244208" lon="11.4773571"><ele>1166.0</ele><time>2026-04-26T13:15:58.393Z</time></trkpt><trkpt lat="45.824351" lon="11.4772996"><ele>1166.0</ele><time>2026-04-26T13:15:59.392Z</time></trkpt><trkpt lat="45.8242759" lon="11.4772199"><ele>1166.0</ele><time>2026-04-26T13:16:00.392Z</time></trkpt><trkpt lat="45.8242016" lon="11.4771321"><ele>1166.0</ele><time>2026-04-26T13:16:01.394Z</time></trkpt><trkpt lat="45.8241295" lon="11.4770461"><ele>1166.0</ele><time>2026-04-26T13:16:02.391Z</time></trkpt><trkpt lat="45.8240559" lon="11.4769587"><ele>1168.6</ele><time>2026-04-26T13:16:03.392Z</time></trkpt><trkpt lat="45.8240173" lon="11.4768546"><ele>1171.1999999999998</ele><time>2026-04-26T13:16:04.39Z</time></trkpt><trkpt lat="45.8239785" lon="11.4767416"><ele>1173.8000000000002</ele><time>2026-04-26T13:16:05.39Z</time></trkpt><trkpt lat="45.8239391" lon="11.4766233"><ele>1176.4</ele><time>2026-04-26T13:16:06.391Z</time></trkpt><trkpt lat="45.8239097" lon="11.4764856"><ele>1179.0</ele><time>2026-04-26T13:16:07.39Z</time></trkpt><trkpt lat="45.8238854" lon="11.4763559"><ele>1179.75</ele><time>2026-04-26T13:16:08.391Z</time></trkpt><trkpt lat="45.8238497" lon="11.4762083"><ele>1180.5</ele><time>2026-04-26T13:16:09.391Z</time></trkpt><trkpt lat="45.8238291" lon="11.4760766"><ele>1181.25</ele><time>2026-04-26T13:16:10.39Z</time></trkpt><trkpt lat="45.8238056" lon="11.4759433"><ele>1182.0</ele><time>2026-04-26T13:16:11.391Z</time></trkpt><trkpt lat="45.8237331" lon="11.4757221"><ele>1182.0</ele><time>2026-04-26T13:16:13.389Z</time></trkpt><trkpt lat="45.8236881" lon="11.475617"><ele>1182.0</ele><time>2026-04-26T13:16:14.39Z</time></trkpt><trkpt lat="45.8236556" lon="11.4755213"><ele>1182.0</ele><time>2026-04-26T13:16:15.394Z</time></trkpt><trkpt lat="45.8236028" lon="11.4754052"><ele>1182.0</ele><time>2026-04-26T13:16:16.394Z</time></trkpt><trkpt lat="45.8235433" lon="11.4753021"><ele>1182.0</ele><time>2026-04-26T13:16:17.395Z</time></trkpt><trkpt lat="45.823486" lon="11.4752277"><ele>1182.0</ele><time>2026-04-26T13:16:18.394Z</time></trkpt><trkpt lat="45.8233894" lon="11.4751531"><ele>1185.8</ele><time>2026-04-26T13:16:20.394Z</time></trkpt><trkpt lat="45.8232854" lon="11.4751708"><ele>1189.6</ele><time>2026-04-26T13:16:22.392Z</time></trkpt><trkpt lat="45.8232009" lon="11.4752438"><ele>1193.3999999999999</ele><time>2026-04-26T13:16:24.393Z</time></trkpt><trkpt lat="45.8231162" lon="11.475253"><ele>1197.2</ele><time>2026-04-26T13:16:26.393Z</time></trkpt><trkpt lat="45.8230039" lon="11.4752206"><ele>1201.0</ele><time>2026-04-26T13:16:28.392Z</time></trkpt><trkpt lat="45.8228964" lon="11.4751834"><ele>1201.0</ele><time>2026-04-26T13:16:30.393Z</time></trkpt><trkpt lat="45.8228236" lon="11.4751664"><ele>1201.0</ele><time>2026-04-26T13:16:31.392Z</time></trkpt><trkpt lat="45.8226892" lon="11.4751705"><ele>1201.0</ele><time>2026-04-26T13:16:33.392Z</time></trkpt><trkpt lat="45.8225333" lon="11.4751434"><ele>1201.0</ele><time>2026-04-26T13:16:35.393Z</time></trkpt><trkpt lat="45.8224638" lon="11.4751116"><ele>1201.0</ele><time>2026-04-26T13:16:36.39Z</time></trkpt><trkpt lat="45.822403" lon="11.4750656"><ele>1202.8333333333333</ele><time>2026-04-26T13:16:37.392Z</time></trkpt><trkpt lat="45.8223424" lon="11.4750136"><ele>1204.6666666666665</ele><time>2026-04-26T13:16:38.394Z</time></trkpt><trkpt lat="45.8222722" lon="11.4749372"><ele>1206.5</ele><time>2026-04-26T13:16:39.391Z</time></trkpt><trkpt lat="45.8221964" lon="11.4748767"><ele>1208.3333333333333</ele><time>2026-04-26T13:16:40.39Z</time></trkpt><trkpt lat="45.8221225" lon="11.4748325"><ele>1210.1666666666667</ele><time>2026-04-26T13:16:41.392Z</time></trkpt><trkpt lat="45.8220398" lon="11.4748091"><ele>1212.0</ele><time>2026-04-26T13:16:42.39Z</time></trkpt><trkpt lat="45.8219665" lon="11.4747889"><ele>1212.0</ele><time>2026-04-26T13:16:43.391Z</time></trkpt><trkpt lat="45.8218389" lon="11.4747401"><ele>1212.0</ele><time>2026-04-26T13:16:45.393Z</time></trkpt><trkpt lat="45.8217566" lon="11.4746981"><ele>1212.0</ele><time>2026-04-26T13:16:46.391Z</time></trkpt><trkpt lat="45.8216082" lon="11.4746519"><ele>1212.0</ele><time>2026-04-26T13:16:48.39Z</time></trkpt><trkpt lat="45.8215115" lon="11.47463"><ele>1212.8333333333333</ele><time>2026-04-26T13:16:49.393Z</time></trkpt><trkpt lat="45.8214316" lon="11.4746141"><ele>1213.6666666666667</ele><time>2026-04-26T13:16:50.394Z</time></trkpt><trkpt lat="45.8213419" lon="11.47459"><ele>1214.5</ele><time>2026-04-26T13:16:51.394Z</time></trkpt><trkpt lat="45.8212468" lon="11.4745489"><ele>1215.3333333333335</ele><time>2026-04-26T13:16:52.392Z</time></trkpt><trkpt lat="45.8211573" lon="11.4745017"><ele>1216.1666666666667</ele><time>2026-04-26T13:16:53.392Z</time></trkpt><trkpt lat="45.8210971" lon="11.4744579"><ele>1217.0</ele><time>2026-04-26T13:16:54.394Z</time></trkpt><trkpt lat="45.8209572" lon="11.4742955"><ele>1219.2</ele><time>2026-04-26T13:16:56.392Z</time></trkpt><trkpt lat="45.8208945" lon="11.474205"><ele>1221.4</ele><time>2026-04-26T13:16:57.392Z</time></trkpt><trkpt lat="45.8208426" lon="11.4740973"><ele>1223.6</ele><time>2026-04-26T13:16:58.392Z</time></trkpt><trkpt lat="45.820794" lon="11.4739585"><ele>1225.8</ele><time>2026-04-26T13:16:59.393Z</time></trkpt><trkpt lat="45.8207588" lon="11.4738259"><ele>1228.0</ele><time>2026-04-26T13:17:00.392Z</time></trkpt><trkpt lat="45.8207291" lon="11.4736968"><ele>1228.0</ele><time>2026-04-26T13:17:01.391Z</time></trkpt><trkpt lat="45.8207078" lon="11.4735666"><ele>1228.0</ele><time>2026-04-26T13:17:02.39Z</time></trkpt><trkpt lat="45.8207043" lon="11.4734435"><ele>1228.0</ele><time>2026-04-26T13:17:03.39Z</time></trkpt><trkpt lat="45.8207139" lon="11.4733085"><ele>1228.0</ele><time>2026-04-26T13:17:04.392Z</time></trkpt><trkpt lat="45.8207037" lon="11.4731846"><ele>1228.0</ele><time>2026-04-26T13:17:05.393Z</time></trkpt><trkpt lat="45.8206913" lon="11.4730775"><ele>1228.0</ele><time>2026-04-26T13:17:06.394Z</time></trkpt><trkpt lat="45.8206577" lon="11.4729678"><ele>1228.0</ele><time>2026-04-26T13:17:07.393Z</time></trkpt><trkpt lat="45.8206063" lon="11.4728426"><ele>1228.0</ele><time>2026-04-26T13:17:08.391Z</time></trkpt><trkpt lat="45.8205554" lon="11.4727191"><ele>1228.0</ele><time>2026-04-26T13:17:09.394Z</time></trkpt><trkpt lat="45.8205073" lon="11.4725862"><ele>1228.0</ele><time>2026-04-26T13:17:10.393Z</time></trkpt><trkpt lat="45.8204632" lon="11.4724506"><ele>1228.0</ele><time>2026-04-26T13:17:11.394Z</time></trkpt><trkpt lat="45.8204166" lon="11.4723336"><ele>1228.0</ele><time>2026-04-26T13:17:12.393Z</time></trkpt><trkpt lat="45.8203781" lon="11.4722229"><ele>1228.0</ele><time>2026-04-26T13:17:13.394Z</time></trkpt><trkpt lat="45.8203619" lon="11.4721049"><ele>1228.0</ele><time>2026-04-26T13:17:14.393Z</time></trkpt><trkpt lat="45.8203283" lon="11.471999"><ele>1228.0</ele><time>2026-04-26T13:17:15.395Z</time></trkpt><trkpt lat="45.8202288" lon="11.4718529"><ele>1228.0</ele><time>2026-04-26T13:17:17.393Z</time></trkpt><trkpt lat="45.8201503" lon="11.4717899"><ele>1229.3333333333333</ele><time>2026-04-26T13:17:18.392Z</time></trkpt><trkpt lat="45.8200591" lon="11.471751"><ele>1230.6666666666665</ele><time>2026-04-26T13:17:19.392Z</time></trkpt><trkpt lat="45.8199641" lon="11.4717051"><ele>1232.0</ele><time>2026-04-26T13:17:20.393Z</time></trkpt><trkpt lat="45.8198706" lon="11.471674"><ele>1233.3333333333333</ele><time>2026-04-26T13:17:21.394Z</time></trkpt><trkpt lat="45.8197891" lon="11.4716688"><ele>1234.6666666666667</ele><time>2026-04-26T13:17:22.393Z</time></trkpt><trkpt lat="45.8197176" lon="11.4716698"><ele>1236.0</ele><time>2026-04-26T13:17:23.392Z</time></trkpt><trkpt lat="45.8196489" lon="11.4716693"><ele>1236.0</ele><time>2026-04-26T13:17:24.394Z</time></trkpt><trkpt lat="45.8195867" lon="11.471652"><ele>1236.0</ele><time>2026-04-26T13:17:25.391Z</time></trkpt><trkpt lat="45.8195206" lon="11.4716192"><ele>1236.0</ele><time>2026-04-26T13:17:26.391Z</time></trkpt><trkpt lat="45.8194505" lon="11.4715584"><ele>1236.0</ele><time>2026-04-26T13:17:27.39Z</time></trkpt><trkpt lat="45.8193726" lon="11.4714741"><ele>1236.0</ele><time>2026-04-26T13:17:28.393Z</time></trkpt><trkpt lat="45.8192934" lon="11.4713988"><ele>1236.0</ele><time>2026-04-26T13:17:29.391Z</time></trkpt><trkpt lat="45.819214" lon="11.4713563"><ele>1236.1666666666667</ele><time>2026-04-26T13:17:30.393Z</time></trkpt><trkpt lat="45.8191302" lon="11.471333"><ele>1236.3333333333333</ele><time>2026-04-26T13:17:31.394Z</time></trkpt><trkpt lat="45.8190421" lon="11.471333"><ele>1236.5</ele><time>2026-04-26T13:17:32.392Z</time></trkpt><trkpt lat="45.8189538" lon="11.4713457"><ele>1236.6666666666665</ele><time>2026-04-26T13:17:33.393Z</time></trkpt><trkpt lat="45.8188717" lon="11.4713673"><ele>1236.8333333333333</ele><time>2026-04-26T13:17:34.394Z</time></trkpt><trkpt lat="45.8187983" lon="11.4713971"><ele>1237.0</ele><time>2026-04-26T13:17:35.393Z</time></trkpt><trkpt lat="45.8186726" lon="11.4714091"><ele>1239.25</ele><time>2026-04-26T13:17:37.393Z</time></trkpt><trkpt lat="45.8185072" lon="11.4712102"><ele>1241.5</ele><time>2026-04-26T13:17:41.393Z</time></trkpt><trkpt lat="45.8184815" lon="11.4710387"><ele>1243.75</ele><time>2026-04-26T13:17:43.393Z</time></trkpt><trkpt lat="45.818471" lon="11.4709463"><ele>1246.0</ele><time>2026-04-26T13:17:44.391Z</time></trkpt><trkpt lat="45.8184438" lon="11.4708487"><ele>1246.0</ele><time>2026-04-26T13:17:45.393Z</time></trkpt><trkpt lat="45.8184079" lon="11.4707574"><ele>1246.0</ele><time>2026-04-26T13:17:46.394Z</time></trkpt><trkpt lat="45.8183659" lon="11.4706764"><ele>1246.0</ele><time>2026-04-26T13:17:47.395Z</time></trkpt><trkpt lat="45.8183103" lon="11.4706063"><ele>1246.0</ele><time>2026-04-26T13:17:48.394Z</time></trkpt><trkpt lat="45.8182429" lon="11.4705479"><ele>1246.0</ele><time>2026-04-26T13:17:49.394Z</time></trkpt><trkpt lat="45.8181792" lon="11.4705066"><ele>1246.0</ele><time>2026-04-26T13:17:50.389Z</time></trkpt><trkpt lat="45.8181045" lon="11.4704936"><ele>1246.0</ele><time>2026-04-26T13:17:51.39Z</time></trkpt><trkpt lat="45.8180298" lon="11.4704936"><ele>1246.0</ele><time>2026-04-26T13:17:52.39Z</time></trkpt><trkpt lat="45.8179559" lon="11.4704964"><ele>1246.0</ele><time>2026-04-26T13:17:53.391Z</time></trkpt><trkpt lat="45.8178814" lon="11.4704949"><ele>1246.0</ele><time>2026-04-26T13:17:54.394Z</time></trkpt><trkpt lat="45.8177929" lon="11.4705045"><ele>1246.0</ele><time>2026-04-26T13:17:55.391Z</time></trkpt><trkpt lat="45.8177006" lon="11.4705198"><ele>1246.0</ele><time>2026-04-26T13:17:56.392Z</time></trkpt><trkpt lat="45.8176096" lon="11.4705453"><ele>1246.0</ele><time>2026-04-26T13:17:57.395Z</time></trkpt><trkpt lat="45.8175148" lon="11.4705701"><ele>1248.5</ele><time>2026-04-26T13:17:58.392Z</time></trkpt><trkpt lat="45.8173168" lon="11.4706054"><ele>1251.0</ele><time>2026-04-26T13:18:00.392Z</time></trkpt><trkpt lat="45.8172258" lon="11.4706177"><ele>1253.5</ele><time>2026-04-26T13:18:01.393Z</time></trkpt><trkpt lat="45.8171348" lon="11.4706343"><ele>1256.0</ele><time>2026-04-26T13:18:02.394Z</time></trkpt><trkpt lat="45.8170413" lon="11.4706509"><ele>1256.0</ele><time>2026-04-26T13:18:03.392Z</time></trkpt><trkpt lat="45.8169474" lon="11.470678"><ele>1256.0</ele><time>2026-04-26T13:18:04.391Z</time></trkpt><trkpt lat="45.8168542" lon="11.4707087"><ele>1256.0</ele><time>2026-04-26T13:18:05.394Z</time></trkpt><trkpt lat="45.8167626" lon="11.4707264"><ele>1256.0</ele><time>2026-04-26T13:18:06.394Z</time></trkpt><trkpt lat="45.8166712" lon="11.470728"><ele>1256.0</ele><time>2026-04-26T13:18:07.393Z</time></trkpt><trkpt lat="45.8165822" lon="11.4707196"><ele>1257.0</ele><time>2026-04-26T13:18:08.393Z</time></trkpt><trkpt lat="45.8164976" lon="11.4707001"><ele>1258.0</ele><time>2026-04-26T13:18:09.394Z</time></trkpt><trkpt lat="45.8164147" lon="11.4706765"><ele>1259.0</ele><time>2026-04-26T13:18:10.392Z</time></trkpt><trkpt lat="45.8163323" lon="11.4706509"><ele>1260.0</ele><time>2026-04-26T13:18:11.394Z</time></trkpt><trkpt lat="45.8162463" lon="11.4706257"><ele>1261.0</ele><time>2026-04-26T13:18:12.394Z</time></trkpt><trkpt lat="45.8161598" lon="11.47061"><ele>1262.0</ele><time>2026-04-26T13:18:13.392Z</time></trkpt><trkpt lat="45.8160772" lon="11.4705987"><ele>1262.0</ele><time>2026-04-26T13:18:14.393Z</time></trkpt><trkpt lat="45.8159913" lon="11.470581"><ele>1262.0</ele><time>2026-04-26T13:18:15.392Z</time></trkpt><trkpt lat="45.8159042" lon="11.4705693"><ele>1262.0</ele><time>2026-04-26T13:18:16.392Z</time></trkpt><trkpt lat="45.815813" lon="11.4705733"><ele>1262.0</ele><time>2026-04-26T13:18:17.392Z</time></trkpt><trkpt lat="45.8157238" lon="11.470574"><ele>1262.0</ele><time>2026-04-26T13:18:18.394Z</time></trkpt><trkpt lat="45.8156457" lon="11.4705863"><ele>1262.0</ele><time>2026-04-26T13:18:19.393Z</time></trkpt><trkpt lat="45.8154985" lon="11.4705464"><ele>1263.2</ele><time>2026-04-26T13:18:21.392Z</time></trkpt><trkpt lat="45.8154239" lon="11.4705127"><ele>1264.4</ele><time>2026-04-26T13:18:22.393Z</time></trkpt><trkpt lat="45.8153463" lon="11.47045"><ele>1265.6</ele><time>2026-04-26T13:18:23.392Z</time></trkpt><trkpt lat="45.8152669" lon="11.4703728"><ele>1266.8</ele><time>2026-04-26T13:18:24.188Z</time></trkpt><trkpt lat="45.8151412" lon="11.470254"><ele>1268.0</ele><time>2026-04-26T13:18:25.392Z</time></trkpt><trkpt lat="45.8150448" lon="11.470154"><ele>1271.25</ele><time>2026-04-26T13:18:26.392Z</time></trkpt><trkpt lat="45.8149407" lon="11.4700659"><ele>1274.5</ele><time>2026-04-26T13:18:27.394Z</time></trkpt><trkpt lat="45.8148329" lon="11.4699892"><ele>1277.75</ele><time>2026-04-26T13:18:28.392Z</time></trkpt><trkpt lat="45.8147282" lon="11.4699302"><ele>1281.0</ele><time>2026-04-26T13:18:29.39Z</time></trkpt><trkpt lat="45.8146284" lon="11.4698858"><ele>1281.0</ele><time>2026-04-26T13:18:30.391Z</time></trkpt><trkpt lat="45.8145386" lon="11.469855"><ele>1281.0</ele><time>2026-04-26T13:18:31.393Z</time></trkpt><trkpt lat="45.8144582" lon="11.4698299"><ele>1281.0</ele><time>2026-04-26T13:18:32.392Z</time></trkpt><trkpt lat="45.8143783" lon="11.4697951"><ele>1281.0</ele><time>2026-04-26T13:18:33.391Z</time></trkpt><trkpt lat="45.8142933" lon="11.4697571"><ele>1281.0</ele><time>2026-04-26T13:18:34.391Z</time></trkpt><trkpt lat="45.8142046" lon="11.4697112"><ele>1281.0</ele><time>2026-04-26T13:18:35.391Z</time></trkpt><trkpt lat="45.814113" lon="11.469661"><ele>1279.5</ele><time>2026-04-26T13:18:36.391Z</time></trkpt><trkpt lat="45.8140319" lon="11.4696169"><ele>1278.0</ele><time>2026-04-26T13:18:37.392Z</time></trkpt><trkpt lat="45.8139635" lon="11.4695796"><ele>1276.5</ele><time>2026-04-26T13:18:38.395Z</time></trkpt><trkpt lat="45.8138514" lon="11.4695295"><ele>1275.0</ele><time>2026-04-26T13:18:40.391Z</time></trkpt><trkpt lat="45.8136684" lon="11.4694319"><ele>1274.4</ele><time>2026-04-26T13:18:44.393Z</time></trkpt><trkpt lat="45.8135934" lon="11.4693436"><ele>1273.8</ele><time>2026-04-26T13:18:46.394Z</time></trkpt><trkpt lat="45.8135325" lon="11.4692476"><ele>1273.2</ele><time>2026-04-26T13:18:48.393Z</time></trkpt><trkpt lat="45.8134691" lon="11.4691551"><ele>1272.6</ele><time>2026-04-26T13:18:50.394Z</time></trkpt><trkpt lat="45.8134146" lon="11.4690555"><ele>1272.0</ele><time>2026-04-26T13:18:52.395Z</time></trkpt><trkpt lat="45.8133526" lon="11.4689627"><ele>1272.0</ele><time>2026-04-26T13:18:54.394Z</time></trkpt><trkpt lat="45.8132858" lon="11.4688803"><ele>1272.0</ele><time>2026-04-26T13:18:56.393Z</time></trkpt><trkpt lat="45.8132258" lon="11.4687863"><ele>1272.0</ele><time>2026-04-26T13:18:58.393Z</time></trkpt><trkpt lat="45.8131479" lon="11.4686664"><ele>1272.0</ele><time>2026-04-26T13:19:00.396Z</time></trkpt><trkpt lat="45.8131003" lon="11.4685974"><ele>1272.0</ele><time>2026-04-26T13:19:01.394Z</time></trkpt><trkpt lat="45.8129905" lon="11.4684769"><ele>1271.6</ele><time>2026-04-26T13:19:03.395Z</time></trkpt><trkpt lat="45.8129228" lon="11.4684605"><ele>1271.2</ele><time>2026-04-26T13:19:04.392Z</time></trkpt><trkpt lat="45.812849" lon="11.4684626"><ele>1270.8</ele><time>2026-04-26T13:19:05.393Z</time></trkpt><trkpt lat="45.812784" lon="11.4684772"><ele>1270.4</ele><time>2026-04-26T13:19:06.392Z</time></trkpt><trkpt lat="45.8126651" lon="11.4684948"><ele>1270.0</ele><time>2026-04-26T13:19:08.393Z</time></trkpt><trkpt lat="45.812552" lon="11.4684243"><ele>1270.0</ele><time>2026-04-26T13:19:10.395Z</time></trkpt><trkpt lat="45.8124974" lon="11.4683777"><ele>1270.0</ele><time>2026-04-26T13:19:11.393Z</time></trkpt><trkpt lat="45.8124464" lon="11.4683207"><ele>1270.0</ele><time>2026-04-26T13:19:12.394Z</time></trkpt><trkpt lat="45.8123702" lon="11.4682003"><ele>1270.0</ele><time>2026-04-26T13:19:14.397Z</time></trkpt><trkpt lat="45.8122889" lon="11.4681701"><ele>1270.0</ele><time>2026-04-26T13:19:16.395Z</time></trkpt><trkpt lat="45.8122753" lon="11.4682931"><ele>1270.0</ele><time>2026-04-26T13:19:18.394Z</time></trkpt><trkpt lat="45.8123005" lon="11.4683884"><ele>1270.0</ele><time>2026-04-26T13:19:19.395Z</time></trkpt><trkpt lat="45.8123084" lon="11.4684898"><ele>1270.0</ele><time>2026-04-26T13:19:20.395Z</time></trkpt><trkpt lat="45.8122827" lon="11.4685798"><ele>1270.0</ele><time>2026-04-26T13:19:21.393Z</time></trkpt><trkpt lat="45.8122309" lon="11.4686396"><ele>1270.0</ele><time>2026-04-26T13:19:22.393Z</time></trkpt><trkpt lat="45.812008" lon="11.4685477"><ele>1270.0</ele><time>2026-04-26T13:19:25.394Z</time></trkpt><trkpt lat="45.8119399" lon="11.4684357"><ele>1270.0</ele><time>2026-04-26T13:19:26.393Z</time></trkpt><trkpt lat="45.8118863" lon="11.4683072"><ele>1270.0</ele><time>2026-04-26T13:19:27.394Z</time></trkpt><trkpt lat="45.8118575" lon="11.4681689"><ele>1270.0</ele><time>2026-04-26T13:19:28.393Z</time></trkpt><trkpt lat="45.8118481" lon="11.4680286"><ele>1270.0</ele><time>2026-04-26T13:19:29.392Z</time></trkpt><trkpt lat="45.8118434" lon="11.4678884"><ele>1270.0</ele><time>2026-04-26T13:19:30.392Z</time></trkpt><trkpt lat="45.811839" lon="11.4677495"><ele>1269.0</ele><time>2026-04-26T13:19:31.393Z</time></trkpt><trkpt lat="45.8118522" lon="11.467621"><ele>1268.0</ele><time>2026-04-26T13:19:32.395Z</time></trkpt><trkpt lat="45.8118816" lon="11.4675141"><ele>1267.0</ele><time>2026-04-26T13:19:33.397Z</time></trkpt><trkpt lat="45.8119166" lon="11.4674384"><ele>1266.0</ele><time>2026-04-26T13:19:34.394Z</time></trkpt><trkpt lat="45.8119789" lon="11.4673404"><ele>1265.0</ele><time>2026-04-26T13:19:36.395Z</time></trkpt><trkpt lat="45.8120279" lon="11.4672771"><ele>1264.0</ele><time>2026-04-26T13:19:38.391Z</time></trkpt><trkpt lat="45.8121176" lon="11.4672135"><ele>1264.0</ele><time>2026-04-26T13:19:40.392Z</time></trkpt><trkpt lat="45.8121823" lon="11.4671773"><ele>1264.0</ele><time>2026-04-26T13:19:41.392Z</time></trkpt><trkpt lat="45.8122615" lon="11.4671284"><ele>1264.0</ele><time>2026-04-26T13:19:42.392Z</time></trkpt><trkpt lat="45.8123399" lon="11.4670817"><ele>1264.0</ele><time>2026-04-26T13:19:43.396Z</time></trkpt><trkpt lat="45.8125128" lon="11.4670036"><ele>1264.0</ele><time>2026-04-26T13:19:45.393Z</time></trkpt><trkpt lat="45.8126215" lon="11.4669721"><ele>1265.0</ele><time>2026-04-26T13:19:46.393Z</time></trkpt><trkpt lat="45.8127139" lon="11.4669358"><ele>1266.0</ele><time>2026-04-26T13:19:47.393Z</time></trkpt><trkpt lat="45.8128005" lon="11.4668977"><ele>1267.0</ele><time>2026-04-26T13:19:48.392Z</time></trkpt><trkpt lat="45.8128873" lon="11.4668682"><ele>1268.0</ele><time>2026-04-26T13:19:49.395Z</time></trkpt><trkpt lat="45.8129685" lon="11.466811"><ele>1269.0</ele><time>2026-04-26T13:19:50.393Z</time></trkpt><trkpt lat="45.8130377" lon="11.4667306"><ele>1269.0</ele><time>2026-04-26T13:19:51.394Z</time></trkpt><trkpt lat="45.8131026" lon="11.4666298"><ele>1269.0</ele><time>2026-04-26T13:19:52.395Z</time></trkpt><trkpt lat="45.8131683" lon="11.4665162"><ele>1269.0</ele><time>2026-04-26T13:19:53.394Z</time></trkpt><trkpt lat="45.8132238" lon="11.4664154"><ele>1269.0</ele><time>2026-04-26T13:19:54.393Z</time></trkpt><trkpt lat="45.8132641" lon="11.4663242"><ele>1269.0</ele><time>2026-04-26T13:19:55.392Z</time></trkpt><trkpt lat="45.8133477" lon="11.4661688"><ele>1269.3333333333333</ele><time>2026-04-26T13:19:57.393Z</time></trkpt><trkpt lat="45.813387" lon="11.4660864"><ele>1269.6666666666667</ele><time>2026-04-26T13:19:58.394Z</time></trkpt><trkpt lat="45.8134419" lon="11.4660103"><ele>1270.0</ele><time>2026-04-26T13:19:59.393Z</time></trkpt><trkpt lat="45.8135084" lon="11.4659288"><ele>1270.3333333333335</ele><time>2026-04-26T13:20:00.393Z</time></trkpt><trkpt lat="45.8135703" lon="11.465848"><ele>1270.6666666666667</ele><time>2026-04-26T13:20:01.393Z</time></trkpt><trkpt lat="45.8136397" lon="11.4657655"><ele>1271.0</ele><time>2026-04-26T13:20:02.393Z</time></trkpt><trkpt lat="45.8137149" lon="11.4656904"><ele>1271.0</ele><time>2026-04-26T13:20:03.392Z</time></trkpt><trkpt lat="45.8137951" lon="11.4656151"><ele>1271.0</ele><time>2026-04-26T13:20:04.393Z</time></trkpt><trkpt lat="45.8139487" lon="11.4654372"><ele>1271.0</ele><time>2026-04-26T13:20:06.394Z</time></trkpt><trkpt lat="45.8140239" lon="11.4653422"><ele>1271.0</ele><time>2026-04-26T13:20:07.396Z</time></trkpt><trkpt lat="45.8140951" lon="11.4652429"><ele>1267.3999999999999</ele><time>2026-04-26T13:20:08.394Z</time></trkpt><trkpt lat="45.8141591" lon="11.4651424"><ele>1263.8</ele><time>2026-04-26T13:20:09.394Z</time></trkpt><trkpt lat="45.814207" lon="11.4650728"><ele>1260.1999999999998</ele><time>2026-04-26T13:20:10.396Z</time></trkpt><trkpt lat="45.8143156" lon="11.4650016"><ele>1256.6</ele><time>2026-04-26T13:20:12.396Z</time></trkpt><trkpt lat="45.8144155" lon="11.4649713"><ele>1253.0</ele><time>2026-04-26T13:20:14.394Z</time></trkpt><trkpt lat="45.8145437" lon="11.4649268"><ele>1253.0</ele><time>2026-04-26T13:20:16.392Z</time></trkpt><trkpt lat="45.8146117" lon="11.4649028"><ele>1253.0</ele><time>2026-04-26T13:20:17.392Z</time></trkpt><trkpt lat="45.8146742" lon="11.46489"><ele>1253.0</ele><time>2026-04-26T13:20:19.392Z</time></trkpt><trkpt lat="45.8147326" lon="11.4648385"><ele>1253.0</ele><time>2026-04-26T13:20:27.395Z</time></trkpt><trkpt lat="45.8149314" lon="11.4647188"><ele>1253.0</ele><time>2026-04-26T13:20:31.394Z</time></trkpt><trkpt lat="45.8149967" lon="11.4646937"><ele>1253.0</ele><time>2026-04-26T13:20:32.394Z</time></trkpt><trkpt lat="45.8150569" lon="11.4646617"><ele>1253.0</ele><time>2026-04-26T13:20:33.393Z</time></trkpt><trkpt lat="45.8151697" lon="11.4646091"><ele>1253.0</ele><time>2026-04-26T13:20:35.394Z</time></trkpt><trkpt lat="45.8152371" lon="11.4645946"><ele>1253.0</ele><time>2026-04-26T13:20:36.393Z</time></trkpt><trkpt lat="45.8153117" lon="11.4645886"><ele>1253.0</ele><time>2026-04-26T13:20:37.394Z</time></trkpt><trkpt lat="45.8153875" lon="11.464585"><ele>1253.0</ele><time>2026-04-26T13:20:38.392Z</time></trkpt><trkpt lat="45.8154793" lon="11.4645859"><ele>1248.6666666666667</ele><time>2026-04-26T13:20:39.395Z</time></trkpt><trkpt lat="45.8155665" lon="11.4645736"><ele>1244.3333333333335</ele><time>2026-04-26T13:20:40.394Z</time></trkpt><trkpt lat="45.8156565" lon="11.4645572"><ele>1240.0</ele><time>2026-04-26T13:20:41.392Z</time></trkpt><trkpt lat="45.8157461" lon="11.4645389"><ele>1235.6666666666667</ele><time>2026-04-26T13:20:42.393Z</time></trkpt><trkpt lat="45.8158282" lon="11.4645259"><ele>1231.3333333333333</ele><time>2026-04-26T13:20:43.392Z</time></trkpt><trkpt lat="45.8158903" lon="11.4645088"><ele>1227.0</ele><time>2026-04-26T13:20:44.391Z</time></trkpt><trkpt lat="45.8159616" lon="11.4644827"><ele>1227.4</ele><time>2026-04-26T13:20:45.392Z</time></trkpt><trkpt lat="45.8160367" lon="11.4644682"><ele>1227.8000000000002</ele><time>2026-04-26T13:20:46.392Z</time></trkpt><trkpt lat="45.8161177" lon="11.4644698"><ele>1228.2</ele><time>2026-04-26T13:20:47.392Z</time></trkpt><trkpt lat="45.8161949" lon="11.4644932"><ele>1228.6000000000001</ele><time>2026-04-26T13:20:48.394Z</time></trkpt><trkpt lat="45.816348" lon="11.4645225"><ele>1229.0</ele><time>2026-04-26T13:20:50.394Z</time></trkpt><trkpt lat="45.8164308" lon="11.4645423"><ele>1229.0000000000002</ele><time>2026-04-26T13:20:51.394Z</time></trkpt><trkpt lat="45.8165085" lon="11.464532"><ele>1229.0</ele><time>2026-04-26T13:20:52.395Z</time></trkpt><trkpt lat="45.8165755" lon="11.4644915"><ele>1229.0</ele><time>2026-04-26T13:20:53.391Z</time></trkpt><trkpt lat="45.8166292" lon="11.4644382"><ele>1229.0</ele><time>2026-04-26T13:20:54.393Z</time></trkpt><trkpt lat="45.8166852" lon="11.4643697"><ele>1229.0</ele><time>2026-04-26T13:20:55.395Z</time></trkpt><trkpt lat="45.8167365" lon="11.4642973"><ele>1229.0000000000002</ele><time>2026-04-26T13:20:56.394Z</time></trkpt><trkpt lat="45.8167688" lon="11.4641927"><ele>1229.0</ele><time>2026-04-26T13:20:57.393Z</time></trkpt><trkpt lat="45.8168051" lon="11.4640528"><ele>1229.75</ele><time>2026-04-26T13:20:58.391Z</time></trkpt><trkpt lat="45.8168442" lon="11.4639007"><ele>1230.5</ele><time>2026-04-26T13:20:59.394Z</time></trkpt><trkpt lat="45.8168875" lon="11.4637393"><ele>1231.25</ele><time>2026-04-26T13:21:00.392Z</time></trkpt><trkpt lat="45.8169299" lon="11.4635898"><ele>1232.0</ele><time>2026-04-26T13:21:01.392Z</time></trkpt><trkpt lat="45.8169673" lon="11.4634509"><ele>1232.0</ele><time>2026-04-26T13:21:02.392Z</time></trkpt><trkpt lat="45.8169933" lon="11.4633245"><ele>1232.0</ele><time>2026-04-26T13:21:03.393Z</time></trkpt><trkpt lat="45.8169993" lon="11.4632167"><ele>1232.0</ele><time>2026-04-26T13:21:04.394Z</time></trkpt><trkpt lat="45.8169759" lon="11.4630701"><ele>1232.0</ele><time>2026-04-26T13:21:06.389Z</time></trkpt><trkpt lat="45.8169631" lon="11.4629618"><ele>1232.0</ele><time>2026-04-26T13:21:08.39Z</time></trkpt><trkpt lat="45.8170338" lon="11.4628975"><ele>1232.0</ele><time>2026-04-26T13:21:10.394Z</time></trkpt><trkpt lat="45.8172223" lon="11.4630418"><ele>1232.0</ele><time>2026-04-26T13:21:14.391Z</time></trkpt><trkpt lat="45.8172801" lon="11.4631162"><ele>1232.0</ele><time>2026-04-26T13:21:15.394Z</time></trkpt><trkpt lat="45.8173388" lon="11.4631885"><ele>1232.0</ele><time>2026-04-26T13:21:16.396Z</time></trkpt><trkpt lat="45.8174041" lon="11.46325"><ele>1232.0</ele><time>2026-04-26T13:21:17.393Z</time></trkpt><trkpt lat="45.8174788" lon="11.4632948"><ele>1232.0</ele><time>2026-04-26T13:21:18.395Z</time></trkpt><trkpt lat="45.8175494" lon="11.4632993"><ele>1232.0</ele><time>2026-04-26T13:21:19.394Z</time></trkpt><trkpt lat="45.8176147" lon="11.4632934"><ele>1231.5</ele><time>2026-04-26T13:21:20.395Z</time></trkpt><trkpt lat="45.8177119" lon="11.4633198"><ele>1231.0</ele><time>2026-04-26T13:21:22.395Z</time></trkpt><trkpt lat="45.8177582" lon="11.4633869"><ele>1230.5</ele><time>2026-04-26T13:21:23.395Z</time></trkpt><trkpt lat="45.8177999" lon="11.4634741"><ele>1230.0</ele><time>2026-04-26T13:21:24.393Z</time></trkpt><trkpt lat="45.8178851" lon="11.463572"><ele>1229.5</ele><time>2026-04-26T13:21:26.394Z</time></trkpt><trkpt lat="45.8179516" lon="11.4635912"><ele>1229.0</ele><time>2026-04-26T13:21:27.395Z</time></trkpt><trkpt lat="45.818028" lon="11.4635708"><ele>1229.0</ele><time>2026-04-26T13:21:28.394Z</time></trkpt><trkpt lat="45.8181571" lon="11.4635139"><ele>1229.0</ele><time>2026-04-26T13:21:30.394Z</time></trkpt><trkpt lat="45.8182377" lon="11.4634826"><ele>1229.0</ele><time>2026-04-26T13:21:31.392Z</time></trkpt><trkpt lat="45.8184545" lon="11.4634046"><ele>1229.0</ele><time>2026-04-26T13:21:34.393Z</time></trkpt><trkpt lat="45.8185204" lon="11.4633971"><ele>1226.857142857143</ele><time>2026-04-26T13:21:35.392Z</time></trkpt><trkpt lat="45.8185862" lon="11.4634046"><ele>1224.7142857142858</ele><time>2026-04-26T13:21:36.393Z</time></trkpt><trkpt lat="45.8186588" lon="11.4634262"><ele>1222.5714285714284</ele><time>2026-04-26T13:21:37.397Z</time></trkpt><trkpt lat="45.8187308" lon="11.4634416"><ele>1220.4285714285716</ele><time>2026-04-26T13:21:38.395Z</time></trkpt><trkpt lat="45.8188122" lon="11.4634584"><ele>1218.2857142857142</ele><time>2026-04-26T13:21:39.395Z</time></trkpt><trkpt lat="45.818884" lon="11.4634866"><ele>1216.142857142857</ele><time>2026-04-26T13:21:40.394Z</time></trkpt><trkpt lat="45.8189474" lon="11.4635258"><ele>1214.0</ele><time>2026-04-26T13:21:41.393Z</time></trkpt><trkpt lat="45.8190241" lon="11.4635713"><ele>1214.0</ele><time>2026-04-26T13:21:42.394Z</time></trkpt><trkpt lat="45.8190931" lon="11.4636026"><ele>1214.0</ele><time>2026-04-26T13:21:43.395Z</time></trkpt><trkpt lat="45.8191607" lon="11.4636173"><ele>1214.0</ele><time>2026-04-26T13:21:44.393Z</time></trkpt><trkpt lat="45.819248" lon="11.4636329"><ele>1214.0</ele><time>2026-04-26T13:21:45.396Z</time></trkpt><trkpt lat="45.8193348" lon="11.4636511"><ele>1214.0</ele><time>2026-04-26T13:21:46.394Z</time></trkpt><trkpt lat="45.8194112" lon="11.4636617"><ele>1214.0</ele><time>2026-04-26T13:21:47.394Z</time></trkpt><trkpt lat="45.8195187" lon="11.4637029"><ele>1211.5</ele><time>2026-04-26T13:21:49.394Z</time></trkpt><trkpt lat="45.8195927" lon="11.4637595"><ele>1209.0</ele><time>2026-04-26T13:21:51.392Z</time></trkpt><trkpt lat="45.819676" lon="11.4637774"><ele>1206.5</ele><time>2026-04-26T13:21:54.393Z</time></trkpt><trkpt lat="45.8196485" lon="11.463617"><ele>1204.0</ele><time>2026-04-26T13:21:59.396Z</time></trkpt><trkpt lat="45.819588" lon="11.4635803"><ele>1201.5</ele><time>2026-04-26T13:22:00.395Z</time></trkpt><trkpt lat="45.819531" lon="11.4635308"><ele>1199.0</ele><time>2026-04-26T13:22:01.396Z</time></trkpt><trkpt lat="45.819475" lon="11.4634854"><ele>1199.0</ele><time>2026-04-26T13:22:02.394Z</time></trkpt><trkpt lat="45.8194179" lon="11.463444"><ele>1199.0</ele><time>2026-04-26T13:22:03.396Z</time></trkpt><trkpt lat="45.8193113" lon="11.4633752"><ele>1199.0</ele><time>2026-04-26T13:22:05.395Z</time></trkpt><trkpt lat="45.8192631" lon="11.4633148"><ele>1199.0</ele><time>2026-04-26T13:22:06.395Z</time></trkpt><trkpt lat="45.8192071" lon="11.4632275"><ele>1199.0</ele><time>2026-04-26T13:22:07.395Z</time></trkpt><trkpt lat="45.8191597" lon="11.4631449"><ele>1199.0</ele><time>2026-04-26T13:22:08.395Z</time></trkpt><trkpt lat="45.8191096" lon="11.4630695"><ele>1200.6000000000001</ele><time>2026-04-26T13:22:09.395Z</time></trkpt><trkpt lat="45.8190549" lon="11.4630162"><ele>1202.2</ele><time>2026-04-26T13:22:10.395Z</time></trkpt><trkpt lat="45.8190016" lon="11.462963"><ele>1203.8000000000002</ele><time>2026-04-26T13:22:11.393Z</time></trkpt><trkpt lat="45.818928" lon="11.4628379"><ele>1205.4</ele><time>2026-04-26T13:22:13.395Z</time></trkpt><trkpt lat="45.8189603" lon="11.4626816"><ele>1207.0</ele><time>2026-04-26T13:22:15.395Z</time></trkpt><trkpt lat="45.819058" lon="11.4624451"><ele>1207.0</ele><time>2026-04-26T13:22:18.395Z</time></trkpt><trkpt lat="45.8191158" lon="11.4623411"><ele>1207.0</ele><time>2026-04-26T13:22:19.396Z</time></trkpt><trkpt lat="45.819155" lon="11.4622429"><ele>1207.0</ele><time>2026-04-26T13:22:20.394Z</time></trkpt><trkpt lat="45.8192001" lon="11.4621544"><ele>1207.0</ele><time>2026-04-26T13:22:21.393Z</time></trkpt><trkpt lat="45.8192466" lon="11.4620735"><ele>1207.0</ele><time>2026-04-26T13:22:22.393Z</time></trkpt><trkpt lat="45.8192832" lon="11.4619866"><ele>1207.0</ele><time>2026-04-26T13:22:23.395Z</time></trkpt><trkpt lat="45.8193081" lon="11.4618904"><ele>1203.0</ele><time>2026-04-26T13:22:24.397Z</time></trkpt><trkpt lat="45.8193347" lon="11.4617831"><ele>1199.0</ele><time>2026-04-26T13:22:25.395Z</time></trkpt><trkpt lat="45.8193637" lon="11.4616725"><ele>1195.0</ele><time>2026-04-26T13:22:26.396Z</time></trkpt><trkpt lat="45.8193997" lon="11.4615656"><ele>1191.0</ele><time>2026-04-26T13:22:27.396Z</time></trkpt><trkpt lat="45.8194463" lon="11.4614737"><ele>1187.0</ele><time>2026-04-26T13:22:28.396Z</time></trkpt><trkpt lat="45.8195058" lon="11.4613885"><ele>1183.0</ele><time>2026-04-26T13:22:29.397Z</time></trkpt><trkpt lat="45.8195559" lon="11.4613054"><ele>1183.5</ele><time>2026-04-26T13:22:30.395Z</time></trkpt><trkpt lat="45.8196076" lon="11.4612229"><ele>1184.0</ele><time>2026-04-26T13:22:31.395Z</time></trkpt><trkpt lat="45.8196581" lon="11.4611418"><ele>1184.5</ele><time>2026-04-26T13:22:32.397Z</time></trkpt><trkpt lat="45.8196974" lon="11.4610616"><ele>1185.0</ele><time>2026-04-26T13:22:33.395Z</time></trkpt><trkpt lat="45.8197571" lon="11.4609288"><ele>1185.5</ele><time>2026-04-26T13:22:35.396Z</time></trkpt><trkpt lat="45.8197916" lon="11.4608269"><ele>1186.0</ele><time>2026-04-26T13:22:37.394Z</time></trkpt><trkpt lat="45.8199444" lon="11.4608013"><ele>1186.0</ele><time>2026-04-26T13:22:41.396Z</time></trkpt><trkpt lat="45.8200367" lon="11.4608937"><ele>1186.0</ele><time>2026-04-26T13:22:43.393Z</time></trkpt><trkpt lat="45.8200679" lon="11.4610162"><ele>1186.0</ele><time>2026-04-26T13:22:45.393Z</time></trkpt><trkpt lat="45.8200554" lon="11.4611647"><ele>1186.0</ele><time>2026-04-26T13:22:47.394Z</time></trkpt><trkpt lat="45.8200144" lon="11.4612825"><ele>1186.0</ele><time>2026-04-26T13:22:49.394Z</time></trkpt><trkpt lat="45.8199769" lon="11.4613975"><ele>1185.5</ele><time>2026-04-26T13:22:51.396Z</time></trkpt><trkpt lat="45.8199651" lon="11.4615429"><ele>1185.0</ele><time>2026-04-26T13:22:53.394Z</time></trkpt><trkpt lat="45.8199835" lon="11.4616339"><ele>1184.5</ele><time>2026-04-26T13:22:54.395Z</time></trkpt><trkpt lat="45.8200344" lon="11.4617888"><ele>1184.0</ele><time>2026-04-26T13:22:56.394Z</time></trkpt><trkpt lat="45.8200641" lon="11.4618767"><ele>1183.5</ele><time>2026-04-26T13:22:57.395Z</time></trkpt><trkpt lat="45.8201063" lon="11.4619625"><ele>1183.0</ele><time>2026-04-26T13:22:58.394Z</time></trkpt><trkpt lat="45.8202486" lon="11.4621097"><ele>1180.3333333333333</ele><time>2026-04-26T13:23:00.394Z</time></trkpt><trkpt lat="45.8203329" lon="11.4621483"><ele>1177.6666666666665</ele><time>2026-04-26T13:23:01.393Z</time></trkpt><trkpt lat="45.8204259" lon="11.4621754"><ele>1175.0</ele><time>2026-04-26T13:23:02.392Z</time></trkpt><trkpt lat="45.820512" lon="11.4621996"><ele>1172.3333333333333</ele><time>2026-04-26T13:23:03.394Z</time></trkpt><trkpt lat="45.8206024" lon="11.4622115"><ele>1169.6666666666667</ele><time>2026-04-26T13:23:04.393Z</time></trkpt><trkpt lat="45.8206831" lon="11.4622377"><ele>1167.0</ele><time>2026-04-26T13:23:05.394Z</time></trkpt><trkpt lat="45.8207655" lon="11.462269"><ele>1167.0</ele><time>2026-04-26T13:23:06.394Z</time></trkpt><trkpt lat="45.8208432" lon="11.4622999"><ele>1167.0</ele><time>2026-04-26T13:23:07.395Z</time></trkpt><trkpt lat="45.8209094" lon="11.4623299"><ele>1167.0</ele><time>2026-04-26T13:23:08.393Z</time></trkpt><trkpt lat="45.8209783" lon="11.4623645"><ele>1167.0</ele><time>2026-04-26T13:23:09.391Z</time></trkpt><trkpt lat="45.8210521" lon="11.4623981"><ele>1167.0</ele><time>2026-04-26T13:23:10.393Z</time></trkpt><trkpt lat="45.8211214" lon="11.4624178"><ele>1167.0</ele><time>2026-04-26T13:23:11.391Z</time></trkpt><trkpt lat="45.8212429" lon="11.4624368"><ele>1165.2</ele><time>2026-04-26T13:23:13.395Z</time></trkpt><trkpt lat="45.8213365" lon="11.4624278"><ele>1163.4</ele><time>2026-04-26T13:23:15.395Z</time></trkpt><trkpt lat="45.8214024" lon="11.4624152"><ele>1161.6</ele><time>2026-04-26T13:23:16.394Z</time></trkpt><trkpt lat="45.8215436" lon="11.4624174"><ele>1159.8</ele><time>2026-04-26T13:23:18.393Z</time></trkpt><trkpt lat="45.8216074" lon="11.4624391"><ele>1158.0</ele><time>2026-04-26T13:23:19.393Z</time></trkpt><trkpt lat="45.8217505" lon="11.4624472"><ele>1156.6666666666667</ele><time>2026-04-26T13:23:21.394Z</time></trkpt><trkpt lat="45.821833" lon="11.4624605"><ele>1155.3333333333333</ele><time>2026-04-26T13:23:22.397Z</time></trkpt><trkpt lat="45.8219184" lon="11.462467"><ele>1154.0</ele><time>2026-04-26T13:23:23.394Z</time></trkpt><trkpt lat="45.8220154" lon="11.4624737"><ele>1152.6666666666665</ele><time>2026-04-26T13:23:24.394Z</time></trkpt><trkpt lat="45.8220955" lon="11.462477"><ele>1151.3333333333333</ele><time>2026-04-26T13:23:25.394Z</time></trkpt><trkpt lat="45.8221895" lon="11.4624788"><ele>1150.0</ele><time>2026-04-26T13:23:26.395Z</time></trkpt><trkpt lat="45.8222715" lon="11.4624913"><ele>1150.0</ele><time>2026-04-26T13:23:27.395Z</time></trkpt><trkpt lat="45.822354" lon="11.4625257"><ele>1150.0</ele><time>2026-04-26T13:23:28.395Z</time></trkpt><trkpt lat="45.8224492" lon="11.462552"><ele>1150.0</ele><time>2026-04-26T13:23:29.394Z</time></trkpt><trkpt lat="45.8225441" lon="11.4625812"><ele>1150.0</ele><time>2026-04-26T13:23:30.394Z</time></trkpt><trkpt lat="45.8226414" lon="11.4626028"><ele>1150.0</ele><time>2026-04-26T13:23:31.396Z</time></trkpt><trkpt lat="45.8227331" lon="11.4626126"><ele>1148.8</ele><time>2026-04-26T13:23:32.393Z</time></trkpt><trkpt lat="45.8229041" lon="11.4626314"><ele>1147.6</ele><time>2026-04-26T13:23:34.392Z</time></trkpt><trkpt lat="45.8229833" lon="11.4626365"><ele>1146.4</ele><time>2026-04-26T13:23:35.393Z</time></trkpt><trkpt lat="45.823066" lon="11.4626569"><ele>1145.2</ele><time>2026-04-26T13:23:36.392Z</time></trkpt><trkpt lat="45.8231546" lon="11.4626851"><ele>1144.0</ele><time>2026-04-26T13:23:37.395Z</time></trkpt><trkpt lat="45.8232455" lon="11.462705"><ele>1144.0</ele><time>2026-04-26T13:23:38.394Z</time></trkpt><trkpt lat="45.8233326" lon="11.4627171"><ele>1144.0</ele><time>2026-04-26T13:23:39.395Z</time></trkpt><trkpt lat="45.8234228" lon="11.4627326"><ele>1144.0</ele><time>2026-04-26T13:23:40.395Z</time></trkpt><trkpt lat="45.8235994" lon="11.4627331"><ele>1144.0</ele><time>2026-04-26T13:23:42.394Z</time></trkpt><trkpt lat="45.8236848" lon="11.4627336"><ele>1144.0</ele><time>2026-04-26T13:23:43.394Z</time></trkpt><trkpt lat="45.8237674" lon="11.4627329"><ele>1141.4</ele><time>2026-04-26T13:23:44.394Z</time></trkpt><trkpt lat="45.8238433" lon="11.4627389"><ele>1138.8000000000002</ele><time>2026-04-26T13:23:45.394Z</time></trkpt><trkpt lat="45.8239388" lon="11.4627516"><ele>1136.1999999999998</ele><time>2026-04-26T13:23:46.394Z</time></trkpt><trkpt lat="45.8240341" lon="11.4627561"><ele>1133.6</ele><time>2026-04-26T13:23:47.393Z</time></trkpt><trkpt lat="45.8241285" lon="11.4627825"><ele>1131.0</ele><time>2026-04-26T13:23:48.395Z</time></trkpt><trkpt lat="45.8242211" lon="11.4628103"><ele>1131.0</ele><time>2026-04-26T13:23:49.396Z</time></trkpt><trkpt lat="45.8243118" lon="11.4628252"><ele>1131.0</ele><time>2026-04-26T13:23:50.393Z</time></trkpt><trkpt lat="45.8244136" lon="11.462839"><ele>1131.0</ele><time>2026-04-26T13:23:51.394Z</time></trkpt><trkpt lat="45.824504" lon="11.4628424"><ele>1131.0</ele><time>2026-04-26T13:23:52.393Z</time></trkpt><trkpt lat="45.8246065" lon="11.4628213"><ele>1131.0</ele><time>2026-04-26T13:23:53.394Z</time></trkpt><trkpt lat="45.8247169" lon="11.4628136"><ele>1129.8</ele><time>2026-04-26T13:23:54.393Z</time></trkpt><trkpt lat="45.8248223" lon="11.4628017"><ele>1128.6</ele><time>2026-04-26T13:23:55.394Z</time></trkpt><trkpt lat="45.8249277" lon="11.4627954"><ele>1127.4</ele><time>2026-04-26T13:23:56.393Z</time></trkpt><trkpt lat="45.8250247" lon="11.462804"><ele>1126.2</ele><time>2026-04-26T13:23:57.394Z</time></trkpt><trkpt lat="45.8251159" lon="11.4628165"><ele>1125.0</ele><time>2026-04-26T13:23:58.391Z</time></trkpt><trkpt lat="45.8252041" lon="11.462832"><ele>1124.4</ele><time>2026-04-26T13:23:59.392Z</time></trkpt><trkpt lat="45.8252911" lon="11.4628489"><ele>1123.8</ele><time>2026-04-26T13:24:00.391Z</time></trkpt><trkpt lat="45.8253743" lon="11.4628573"><ele>1123.2</ele><time>2026-04-26T13:24:01.393Z</time></trkpt><trkpt lat="45.8255392" lon="11.4628635"><ele>1122.6</ele><time>2026-04-26T13:24:03.397Z</time></trkpt><trkpt lat="45.8256288" lon="11.4628436"><ele>1122.0</ele><time>2026-04-26T13:24:04.395Z</time></trkpt><trkpt lat="45.82571" lon="11.4628112"><ele>1122.0</ele><time>2026-04-26T13:24:05.397Z</time></trkpt><trkpt lat="45.8257895" lon="11.4627653"><ele>1122.0</ele><time>2026-04-26T13:24:06.394Z</time></trkpt><trkpt lat="45.8258714" lon="11.4627257"><ele>1122.0</ele><time>2026-04-26T13:24:07.395Z</time></trkpt><trkpt lat="45.8259536" lon="11.4627004"><ele>1122.0</ele><time>2026-04-26T13:24:08.394Z</time></trkpt><trkpt lat="45.8260509" lon="11.4626768"><ele>1122.0</ele><time>2026-04-26T13:24:09.397Z</time></trkpt><trkpt lat="45.8261547" lon="11.4626615"><ele>1121.0</ele><time>2026-04-26T13:24:10.395Z</time></trkpt><trkpt lat="45.826257" lon="11.4626554"><ele>1120.0</ele><time>2026-04-26T13:24:11.398Z</time></trkpt><trkpt lat="45.826353" lon="11.4626425"><ele>1119.0</ele><time>2026-04-26T13:24:12.398Z</time></trkpt><trkpt lat="45.8264446" lon="11.4626186"><ele>1118.0</ele><time>2026-04-26T13:24:13.398Z</time></trkpt><trkpt lat="45.8265288" lon="11.4625761"><ele>1117.0</ele><time>2026-04-26T13:24:14.396Z</time></trkpt><trkpt lat="45.8266105" lon="11.462521"><ele>1117.0</ele><time>2026-04-26T13:24:15.397Z</time></trkpt><trkpt lat="45.8266919" lon="11.4624705"><ele>1117.0</ele><time>2026-04-26T13:24:16.396Z</time></trkpt><trkpt lat="45.8267737" lon="11.4624364"><ele>1117.0</ele><time>2026-04-26T13:24:17.398Z</time></trkpt><trkpt lat="45.8268381" lon="11.4624215"><ele>1117.0</ele><time>2026-04-26T13:24:18.194Z</time></trkpt><trkpt lat="45.8269409" lon="11.4624192"><ele>1117.0</ele><time>2026-04-26T13:24:19.398Z</time></trkpt><trkpt lat="45.8270208" lon="11.4624303"><ele>1117.0</ele><time>2026-04-26T13:24:20.395Z</time></trkpt><trkpt lat="45.8271015" lon="11.4624582"><ele>1114.8</ele><time>2026-04-26T13:24:21.396Z</time></trkpt><trkpt lat="45.8271783" lon="11.4624926"><ele>1112.6</ele><time>2026-04-26T13:24:22.396Z</time></trkpt><trkpt lat="45.8273295" lon="11.4625778"><ele>1110.3999999999999</ele><time>2026-04-26T13:24:24.395Z</time></trkpt><trkpt lat="45.8273915" lon="11.462618"><ele>1108.2</ele><time>2026-04-26T13:24:25.396Z</time></trkpt><trkpt lat="45.8274672" lon="11.4626592"><ele>1106.0</ele><time>2026-04-26T13:24:27.395Z</time></trkpt><trkpt lat="45.8275318" lon="11.4625934"><ele>1106.0</ele><time>2026-04-26T13:24:30.398Z</time></trkpt><trkpt lat="45.8274855" lon="11.4624595"><ele>1106.0</ele><time>2026-04-26T13:24:33.396Z</time></trkpt><trkpt lat="45.827434" lon="11.4623888"><ele>1106.0</ele><time>2026-04-26T13:24:34.396Z</time></trkpt><trkpt lat="45.8273726" lon="11.4623057"><ele>1106.0</ele><time>2026-04-26T13:24:35.397Z</time></trkpt><trkpt lat="45.8273161" lon="11.4622261"><ele>1106.0</ele><time>2026-04-26T13:24:36.396Z</time></trkpt><trkpt lat="45.8272729" lon="11.4621574"><ele>1106.0</ele><time>2026-04-26T13:24:37.395Z</time></trkpt><trkpt lat="45.827226" lon="11.4620395"><ele>1102.25</ele><time>2026-04-26T13:24:39.396Z</time></trkpt><trkpt lat="45.827217" lon="11.4619387"><ele>1098.5</ele><time>2026-04-26T13:24:41.395Z</time></trkpt><trkpt lat="45.8272969" lon="11.4618614"><ele>1094.75</ele><time>2026-04-26T13:24:43.396Z</time></trkpt><trkpt lat="45.8274693" lon="11.4619017"><ele>1091.0</ele><time>2026-04-26T13:24:45.395Z</time></trkpt><trkpt lat="45.8275789" lon="11.461943"><ele>1090.5</ele><time>2026-04-26T13:24:46.396Z</time></trkpt><trkpt lat="45.8277057" lon="11.4619838"><ele>1090.0</ele><time>2026-04-26T13:24:47.392Z</time></trkpt><trkpt lat="45.8278543" lon="11.4620318"><ele>1089.5</ele><time>2026-04-26T13:24:48.395Z</time></trkpt><trkpt lat="45.8280058" lon="11.4620843"><ele>1089.0</ele><time>2026-04-26T13:24:49.394Z</time></trkpt><trkpt lat="45.8281498" lon="11.4621378"><ele>1089.0</ele><time>2026-04-26T13:24:50.396Z</time></trkpt><trkpt lat="45.8282836" lon="11.4621902"><ele>1089.0</ele><time>2026-04-26T13:24:51.398Z</time></trkpt><trkpt lat="45.8284097" lon="11.4622434"><ele>1089.0</ele><time>2026-04-26T13:24:52.398Z</time></trkpt><trkpt lat="45.8285319" lon="11.4623046"><ele>1089.0</ele><time>2026-04-26T13:24:53.397Z</time></trkpt><trkpt lat="45.8286583" lon="11.4623912"><ele>1090.0</ele><time>2026-04-26T13:24:54.395Z</time></trkpt><trkpt lat="45.828783" lon="11.462498"><ele>1091.0</ele><time>2026-04-26T13:24:55.395Z</time></trkpt><trkpt lat="45.8288763" lon="11.4625796"><ele>1092.0</ele><time>2026-04-26T13:24:56.193Z</time></trkpt><trkpt lat="45.8290167" lon="11.4626728"><ele>1093.0</ele><time>2026-04-26T13:24:57.395Z</time></trkpt><trkpt lat="45.8291523" lon="11.4627022"><ele>1093.0</ele><time>2026-04-26T13:24:58.395Z</time></trkpt><trkpt lat="45.8293088" lon="11.4627057"><ele>1093.0</ele><time>2026-04-26T13:24:59.396Z</time></trkpt><trkpt lat="45.8294698" lon="11.4627008"><ele>1093.0</ele><time>2026-04-26T13:25:00.397Z</time></trkpt><trkpt lat="45.8296195" lon="11.4626932"><ele>1092.75</ele><time>2026-04-26T13:25:01.396Z</time></trkpt><trkpt lat="45.8297601" lon="11.4626873"><ele>1092.5</ele><time>2026-04-26T13:25:02.395Z</time></trkpt><trkpt lat="45.8298953" lon="11.462685"><ele>1092.25</ele><time>2026-04-26T13:25:03.397Z</time></trkpt><trkpt lat="45.8300252" lon="11.4626845"><ele>1092.0</ele><time>2026-04-26T13:25:04.396Z</time></trkpt><trkpt lat="45.8302651" lon="11.4626577"><ele>1090.2</ele><time>2026-04-26T13:25:06.398Z</time></trkpt><trkpt lat="45.8303763" lon="11.4626322"><ele>1088.4</ele><time>2026-04-26T13:25:07.395Z</time></trkpt><trkpt lat="45.8304823" lon="11.4626145"><ele>1086.6</ele><time>2026-04-26T13:25:08.397Z</time></trkpt><trkpt lat="45.8305835" lon="11.4626041"><ele>1084.8</ele><time>2026-04-26T13:25:09.396Z</time></trkpt><trkpt lat="45.8306793" lon="11.4625902"><ele>1083.0</ele><time>2026-04-26T13:25:10.397Z</time></trkpt><trkpt lat="45.8307738" lon="11.4625727"><ele>1083.0</ele><time>2026-04-26T13:25:11.395Z</time></trkpt><trkpt lat="45.8308789" lon="11.46255"><ele>1083.0</ele><time>2026-04-26T13:25:12.394Z</time></trkpt><trkpt lat="45.830999" lon="11.4625229"><ele>1083.0</ele><time>2026-04-26T13:25:13.395Z</time></trkpt><trkpt lat="45.8311353" lon="11.4624884"><ele>1083.0</ele><time>2026-04-26T13:25:14.394Z</time></trkpt><trkpt lat="45.831286" lon="11.4624412"><ele>1086.3333333333333</ele><time>2026-04-26T13:25:15.394Z</time></trkpt><trkpt lat="45.8314472" lon="11.462373"><ele>1089.6666666666665</ele><time>2026-04-26T13:25:16.396Z</time></trkpt><trkpt lat="45.8315814" lon="11.4623024"><ele>1093.0</ele><time>2026-04-26T13:25:17.193Z</time></trkpt><trkpt lat="45.8317978" lon="11.4621815"><ele>1091.3333333333333</ele><time>2026-04-26T13:25:18.398Z</time></trkpt><trkpt lat="45.8319853" lon="11.4620792"><ele>1089.6666666666667</ele><time>2026-04-26T13:25:19.395Z</time></trkpt><trkpt lat="45.8321686" lon="11.4619947"><ele>1088.0</ele><time>2026-04-26T13:25:20.397Z</time></trkpt><trkpt lat="45.8323457" lon="11.4619137"><ele>1088.0</ele><time>2026-04-26T13:25:21.396Z</time></trkpt><trkpt lat="45.8325191" lon="11.4618424"><ele>1088.0</ele><time>2026-04-26T13:25:22.4Z</time></trkpt><trkpt lat="45.8326768" lon="11.4617721"><ele>1088.0</ele><time>2026-04-26T13:25:23.394Z</time></trkpt><trkpt lat="45.8328263" lon="11.4617071"><ele>1085.0</ele><time>2026-04-26T13:25:24.394Z</time></trkpt><trkpt lat="45.8329704" lon="11.4616341"><ele>1082.0</ele><time>2026-04-26T13:25:25.396Z</time></trkpt><trkpt lat="45.8332306" lon="11.4613898"><ele>1084.3333333333335</ele><time>2026-04-26T13:25:27.395Z</time></trkpt><trkpt lat="45.8333631" lon="11.4612179"><ele>1086.6666666666667</ele><time>2026-04-26T13:25:28.397Z</time></trkpt><trkpt lat="45.8334965" lon="11.4610419"><ele>1089.0</ele><time>2026-04-26T13:25:29.394Z</time></trkpt><trkpt lat="45.8336255" lon="11.4608746"><ele>1081.6666666666667</ele><time>2026-04-26T13:25:30.399Z</time></trkpt><trkpt lat="45.833748" lon="11.460712"><ele>1074.3333333333335</ele><time>2026-04-26T13:25:31.396Z</time></trkpt><trkpt lat="45.8338649" lon="11.4605587"><ele>1067.0</ele><time>2026-04-26T13:25:32.394Z</time></trkpt><trkpt lat="45.8339708" lon="11.4604152"><ele>1066.5</ele><time>2026-04-26T13:25:33.395Z</time></trkpt><trkpt lat="45.8340569" lon="11.4602748"><ele>1066.0</ele><time>2026-04-26T13:25:34.393Z</time></trkpt><trkpt lat="45.8341184" lon="11.4601364"><ele>1065.5</ele><time>2026-04-26T13:25:35.394Z</time></trkpt><trkpt lat="45.8341513" lon="11.459996"><ele>1065.0</ele><time>2026-04-26T13:25:36.393Z</time></trkpt><trkpt lat="45.8341618" lon="11.4598508"><ele>1065.0</ele><time>2026-04-26T13:25:37.393Z</time></trkpt><trkpt lat="45.8341477" lon="11.4596937"><ele>1065.0</ele><time>2026-04-26T13:25:38.395Z</time></trkpt><trkpt lat="45.8341117" lon="11.4595251"><ele>1065.0</ele><time>2026-04-26T13:25:39.395Z</time></trkpt><trkpt lat="45.8340665" lon="11.4593367"><ele>1065.0</ele><time>2026-04-26T13:25:40.397Z</time></trkpt><trkpt lat="45.8340199" lon="11.4591469"><ele>1063.25</ele><time>2026-04-26T13:25:41.395Z</time></trkpt><trkpt lat="45.8339781" lon="11.4589692"><ele>1061.5</ele><time>2026-04-26T13:25:42.396Z</time></trkpt><trkpt lat="45.8339385" lon="11.4588479"><ele>1059.75</ele><time>2026-04-26T13:25:43.192Z</time></trkpt><trkpt lat="45.8338524" lon="11.4587036"><ele>1058.0</ele><time>2026-04-26T13:25:44.394Z</time></trkpt><trkpt lat="45.8337684" lon="11.4585978"><ele>1056.75</ele><time>2026-04-26T13:25:45.394Z</time></trkpt><trkpt lat="45.8336915" lon="11.4584828"><ele>1055.5</ele><time>2026-04-26T13:25:46.394Z</time></trkpt><trkpt lat="45.8336191" lon="11.4582117"><ele>1054.25</ele><time>2026-04-26T13:25:48.396Z</time></trkpt><trkpt lat="45.8336396" lon="11.4580766"><ele>1053.0</ele><time>2026-04-26T13:25:49.394Z</time></trkpt><trkpt lat="45.8337053" lon="11.4579835"><ele>1053.4</ele><time>2026-04-26T13:25:50.395Z</time></trkpt><trkpt lat="45.8338009" lon="11.4579103"><ele>1053.8</ele><time>2026-04-26T13:25:51.396Z</time></trkpt><trkpt lat="45.8338951" lon="11.4578261"><ele>1054.2</ele><time>2026-04-26T13:25:52.397Z</time></trkpt><trkpt lat="45.8339834" lon="11.4577203"><ele>1054.6</ele><time>2026-04-26T13:25:53.397Z</time></trkpt><trkpt lat="45.8340669" lon="11.457611"><ele>1055.0</ele><time>2026-04-26T13:25:54.394Z</time></trkpt><trkpt lat="45.8341537" lon="11.4575074"><ele>1055.0</ele><time>2026-04-26T13:25:55.396Z</time></trkpt><trkpt lat="45.8342471" lon="11.4573949"><ele>1055.0</ele><time>2026-04-26T13:25:56.397Z</time></trkpt><trkpt lat="45.834347" lon="11.457276"><ele>1055.0</ele><time>2026-04-26T13:25:57.397Z</time></trkpt><trkpt lat="45.8344625" lon="11.457162"><ele>1055.0</ele><time>2026-04-26T13:25:58.396Z</time></trkpt><trkpt lat="45.8345939" lon="11.457057"><ele>1051.75</ele><time>2026-04-26T13:25:59.397Z</time></trkpt><trkpt lat="45.8347275" lon="11.4569599"><ele>1048.5</ele><time>2026-04-26T13:26:00.394Z</time></trkpt><trkpt lat="45.8348551" lon="11.4568668"><ele>1045.25</ele><time>2026-04-26T13:26:01.393Z</time></trkpt><trkpt lat="45.8349689" lon="11.4567926"><ele>1042.0</ele><time>2026-04-26T13:26:02.392Z</time></trkpt><trkpt lat="45.8350731" lon="11.4567585"><ele>1040.6</ele><time>2026-04-26T13:26:03.395Z</time></trkpt><trkpt lat="45.8351748" lon="11.4567771"><ele>1039.2</ele><time>2026-04-26T13:26:04.393Z</time></trkpt><trkpt lat="45.8352763" lon="11.4568444"><ele>1037.8</ele><time>2026-04-26T13:26:05.395Z</time></trkpt><trkpt lat="45.8353804" lon="11.4569353"><ele>1036.4</ele><time>2026-04-26T13:26:06.396Z</time></trkpt><trkpt lat="45.8354748" lon="11.4570083"><ele>1035.0</ele><time>2026-04-26T13:26:07.396Z</time></trkpt><trkpt lat="45.8356551" lon="11.4570118"><ele>1035.0</ele><time>2026-04-26T13:26:09.394Z</time></trkpt><trkpt lat="45.8357571" lon="11.4569365"><ele>1035.0</ele><time>2026-04-26T13:26:10.397Z</time></trkpt><trkpt lat="45.8358645" lon="11.45684"><ele>1035.0</ele><time>2026-04-26T13:26:11.394Z</time></trkpt><trkpt lat="45.835971" lon="11.4567482"><ele>1035.0</ele><time>2026-04-26T13:26:12.395Z</time></trkpt><trkpt lat="45.8360713" lon="11.4566521"><ele>1033.2</ele><time>2026-04-26T13:26:13.396Z</time></trkpt><trkpt lat="45.8361424" lon="11.4565652"><ele>1031.4</ele><time>2026-04-26T13:26:14.193Z</time></trkpt><trkpt lat="45.8362268" lon="11.4564242"><ele>1029.6</ele><time>2026-04-26T13:26:15.395Z</time></trkpt><trkpt lat="45.8362797" lon="11.4563001"><ele>1027.8</ele><time>2026-04-26T13:26:16.396Z</time></trkpt><trkpt lat="45.836327" lon="11.4561735"><ele>1026.0</ele><time>2026-04-26T13:26:17.395Z</time></trkpt><trkpt lat="45.836377" lon="11.4560498"><ele>1026.0</ele><time>2026-04-26T13:26:18.396Z</time></trkpt><trkpt lat="45.8364319" lon="11.4559376"><ele>1026.0</ele><time>2026-04-26T13:26:19.396Z</time></trkpt><trkpt lat="45.8364927" lon="11.4558342"><ele>1026.0</ele><time>2026-04-26T13:26:20.398Z</time></trkpt><trkpt lat="45.8365615" lon="11.4557475"><ele>1026.0</ele><time>2026-04-26T13:26:21.397Z</time></trkpt><trkpt lat="45.8366374" lon="11.4556795"><ele>1026.0</ele><time>2026-04-26T13:26:22.4Z</time></trkpt><trkpt lat="45.8367197" lon="11.4556278"><ele>1025.3999999999999</ele><time>2026-04-26T13:26:23.397Z</time></trkpt><trkpt lat="45.83681" lon="11.4555911"><ele>1024.8</ele><time>2026-04-26T13:26:24.396Z</time></trkpt><trkpt lat="45.8369077" lon="11.4555621"><ele>1024.1999999999998</ele><time>2026-04-26T13:26:25.393Z</time></trkpt><trkpt lat="45.8370107" lon="11.4555349"><ele>1023.5999999999999</ele><time>2026-04-26T13:26:26.394Z</time></trkpt><trkpt lat="45.8371164" lon="11.4555068"><ele>1023.0</ele><time>2026-04-26T13:26:27.393Z</time></trkpt><trkpt lat="45.8372248" lon="11.4554839"><ele>1024.0</ele><time>2026-04-26T13:26:28.396Z</time></trkpt><trkpt lat="45.8374452" lon="11.4554381"><ele>1025.0</ele><time>2026-04-26T13:26:30.396Z</time></trkpt><trkpt lat="45.837556" lon="11.4554147"><ele>1026.0</ele><time>2026-04-26T13:26:31.398Z</time></trkpt><trkpt lat="45.8376633" lon="11.4553931"><ele>1027.0</ele><time>2026-04-26T13:26:32.394Z</time></trkpt><trkpt lat="45.8377727" lon="11.4553702"><ele>1027.6</ele><time>2026-04-26T13:26:33.396Z</time></trkpt><trkpt lat="45.8378797" lon="11.4553499"><ele>1028.2</ele><time>2026-04-26T13:26:34.395Z</time></trkpt><trkpt lat="45.837983" lon="11.455333"><ele>1028.8</ele><time>2026-04-26T13:26:35.395Z</time></trkpt><trkpt lat="45.8380768" lon="11.4553207"><ele>1029.4</ele><time>2026-04-26T13:26:36.394Z</time></trkpt><trkpt lat="45.8381597" lon="11.4553092"><ele>1030.0</ele><time>2026-04-26T13:26:37.395Z</time></trkpt><trkpt lat="45.8382277" lon="11.4552988"><ele>1030.0</ele><time>2026-04-26T13:26:38.397Z</time></trkpt><trkpt lat="45.838325" lon="11.4552889"><ele>1030.0</ele><time>2026-04-26T13:26:40.397Z</time></trkpt><trkpt lat="45.8384054" lon="11.4553434"><ele>1030.0</ele><time>2026-04-26T13:26:43.396Z</time></trkpt><trkpt lat="45.8384415" lon="11.4555383"><ele>1030.0</ele><time>2026-04-26T13:26:45.395Z</time></trkpt><trkpt lat="45.8384439" lon="11.4557106"><ele>1030.0</ele><time>2026-04-26T13:26:46.396Z</time></trkpt><trkpt lat="45.838449" lon="11.4559121"><ele>1029.0</ele><time>2026-04-26T13:26:47.396Z</time></trkpt><trkpt lat="45.8384508" lon="11.4561066"><ele>1028.0</ele><time>2026-04-26T13:26:48.399Z</time></trkpt><trkpt lat="45.8384514" lon="11.4562877"><ele>1027.0</ele><time>2026-04-26T13:26:49.394Z</time></trkpt><trkpt lat="45.8384565" lon="11.456641"><ele>1026.75</ele><time>2026-04-26T13:26:51.392Z</time></trkpt><trkpt lat="45.8384563" lon="11.4568364"><ele>1026.5</ele><time>2026-04-26T13:26:52.394Z</time></trkpt><trkpt lat="45.8384565" lon="11.4570317"><ele>1026.25</ele><time>2026-04-26T13:26:53.396Z</time></trkpt><trkpt lat="45.8384545" lon="11.4572182"><ele>1026.0</ele><time>2026-04-26T13:26:54.396Z</time></trkpt><trkpt lat="45.8384506" lon="11.4574125"><ele>1025.75</ele><time>2026-04-26T13:26:55.399Z</time></trkpt><trkpt lat="45.8384458" lon="11.4576174"><ele>1025.5</ele><time>2026-04-26T13:26:56.397Z</time></trkpt><trkpt lat="45.8384373" lon="11.4578125"><ele>1025.25</ele><time>2026-04-26T13:26:57.397Z</time></trkpt><trkpt lat="45.8384289" lon="11.4580036"><ele>1025.0</ele><time>2026-04-26T13:26:58.396Z</time></trkpt><trkpt lat="45.8384225" lon="11.4582146"><ele>1023.6666666666667</ele><time>2026-04-26T13:26:59.395Z</time></trkpt><trkpt lat="45.8384212" lon="11.4584558"><ele>1022.3333333333333</ele><time>2026-04-26T13:27:00.395Z</time></trkpt><trkpt lat="45.8384172" lon="11.4586447"><ele>1021.0</ele><time>2026-04-26T13:27:01.192Z</time></trkpt><trkpt lat="45.8384063" lon="11.4588989"><ele>1020.8</ele><time>2026-04-26T13:27:02.396Z</time></trkpt><trkpt lat="45.8383987" lon="11.459082"><ele>1020.5999999999999</ele><time>2026-04-26T13:27:03.396Z</time></trkpt><trkpt lat="45.8383907" lon="11.4592455"><ele>1020.4</ele><time>2026-04-26T13:27:04.397Z</time></trkpt><trkpt lat="45.8383847" lon="11.459393"><ele>1020.2</ele><time>2026-04-26T13:27:05.396Z</time></trkpt><trkpt lat="45.8383789" lon="11.4595319"><ele>1020.0</ele><time>2026-04-26T13:27:06.397Z</time></trkpt><trkpt lat="45.838372" lon="11.4596631"><ele>1020.0</ele><time>2026-04-26T13:27:07.398Z</time></trkpt><trkpt lat="45.8383621" lon="11.4597965"><ele>1020.0</ele><time>2026-04-26T13:27:08.396Z</time></trkpt><trkpt lat="45.8383471" lon="11.4599443"><ele>1020.0</ele><time>2026-04-26T13:27:09.399Z</time></trkpt><trkpt lat="45.8383245" lon="11.4601024"><ele>1020.0</ele><time>2026-04-26T13:27:10.396Z</time></trkpt><trkpt lat="45.8382617" lon="11.4603891"><ele>1019.6</ele><time>2026-04-26T13:27:12.397Z</time></trkpt><trkpt lat="45.8382253" lon="11.4605167"><ele>1019.2</ele><time>2026-04-26T13:27:13.4Z</time></trkpt><trkpt lat="45.8381894" lon="11.4606365"><ele>1018.8</ele><time>2026-04-26T13:27:14.396Z</time></trkpt><trkpt lat="45.8381551" lon="11.4607534"><ele>1018.4</ele><time>2026-04-26T13:27:15.397Z</time></trkpt><trkpt lat="45.8381187" lon="11.4608751"><ele>1018.0</ele><time>2026-04-26T13:27:16.396Z</time></trkpt><trkpt lat="45.8380818" lon="11.4610032"><ele>1017.9999999999999</ele><time>2026-04-26T13:27:17.395Z</time></trkpt><trkpt lat="45.8380514" lon="11.4611261"><ele>1018.0</ele><time>2026-04-26T13:27:18.398Z</time></trkpt><trkpt lat="45.8380387" lon="11.4612447"><ele>1018.0</ele><time>2026-04-26T13:27:19.399Z</time></trkpt><trkpt lat="45.8380559" lon="11.4613631"><ele>1018.0</ele><time>2026-04-26T13:27:20.396Z</time></trkpt><trkpt lat="45.8380975" lon="11.4614666"><ele>1017.9999999999999</ele><time>2026-04-26T13:27:21.399Z</time></trkpt><trkpt lat="45.8381607" lon="11.4615384"><ele>1018.0</ele><time>2026-04-26T13:27:22.397Z</time></trkpt><trkpt lat="45.8382432" lon="11.4615783"><ele>1017.6666666666666</ele><time>2026-04-26T13:27:23.398Z</time></trkpt><trkpt lat="45.8383323" lon="11.4615854"><ele>1017.3333333333333</ele><time>2026-04-26T13:27:24.398Z</time></trkpt><trkpt lat="45.8384182" lon="11.4615811"><ele>1017.0</ele><time>2026-04-26T13:27:25.399Z</time></trkpt><trkpt lat="45.8385015" lon="11.4615794"><ele>1016.6666666666667</ele><time>2026-04-26T13:27:26.398Z</time></trkpt><trkpt lat="45.8385824" lon="11.4615954"><ele>1016.3333333333334</ele><time>2026-04-26T13:27:27.397Z</time></trkpt><trkpt lat="45.8386621" lon="11.4616333"><ele>1016.0</ele><time>2026-04-26T13:27:28.397Z</time></trkpt><trkpt lat="45.8387434" lon="11.4616923"><ele>1016.0</ele><time>2026-04-26T13:27:29.399Z</time></trkpt><trkpt lat="45.8388259" lon="11.4617845"><ele>1016.0</ele><time>2026-04-26T13:27:30.397Z</time></trkpt><trkpt lat="45.8389051" lon="11.4619097"><ele>1016.0</ele><time>2026-04-26T13:27:31.398Z</time></trkpt><trkpt lat="45.8390568" lon="11.4622036"><ele>1016.0</ele><time>2026-04-26T13:27:33.397Z</time></trkpt><trkpt lat="45.8391339" lon="11.4623547"><ele>1016.0</ele><time>2026-04-26T13:27:34.401Z</time></trkpt><trkpt lat="45.8392093" lon="11.4625011"><ele>1016.0</ele><time>2026-04-26T13:27:35.396Z</time></trkpt><trkpt lat="45.8392835" lon="11.4626437"><ele>1016.0</ele><time>2026-04-26T13:27:36.398Z</time></trkpt><trkpt lat="45.8393574" lon="11.4627826"><ele>1016.0</ele><time>2026-04-26T13:27:37.397Z</time></trkpt><trkpt lat="45.8394329" lon="11.4629175"><ele>1016.0</ele><time>2026-04-26T13:27:38.396Z</time></trkpt><trkpt lat="45.8395086" lon="11.4630485"><ele>1016.0</ele><time>2026-04-26T13:27:39.396Z</time></trkpt><trkpt lat="45.8395856" lon="11.4631745"><ele>1016.0</ele><time>2026-04-26T13:27:40.394Z</time></trkpt><trkpt lat="45.8396637" lon="11.463299"><ele>1013.0</ele><time>2026-04-26T13:27:41.395Z</time></trkpt><trkpt lat="45.8397448" lon="11.4634256"><ele>1010.0</ele><time>2026-04-26T13:27:42.396Z</time></trkpt><trkpt lat="45.8398272" lon="11.4635568"><ele>1007.0</ele><time>2026-04-26T13:27:43.397Z</time></trkpt><trkpt lat="45.8399132" lon="11.4636934"><ele>1004.0</ele><time>2026-04-26T13:27:44.396Z</time></trkpt><trkpt lat="45.8400026" lon="11.4638365"><ele>1004.0</ele><time>2026-04-26T13:27:45.395Z</time></trkpt><trkpt lat="45.8400904" lon="11.4639738"><ele>1004.0</ele><time>2026-04-26T13:27:46.395Z</time></trkpt><trkpt lat="45.8401762" lon="11.464106"><ele>1004.0</ele><time>2026-04-26T13:27:47.395Z</time></trkpt><trkpt lat="45.840258" lon="11.4642346"><ele>1004.0</ele><time>2026-04-26T13:27:48.397Z</time></trkpt><trkpt lat="45.840337" lon="11.4643609"><ele>1004.0</ele><time>2026-04-26T13:27:49.395Z</time></trkpt><trkpt lat="45.8404152" lon="11.4644853"><ele>1004.0</ele><time>2026-04-26T13:27:50.393Z</time></trkpt><trkpt lat="45.8404912" lon="11.4646119"><ele>1004.0</ele><time>2026-04-26T13:27:51.397Z</time></trkpt><trkpt lat="45.8405628" lon="11.4647448"><ele>1004.0</ele><time>2026-04-26T13:27:52.395Z</time></trkpt><trkpt lat="45.8406982" lon="11.4650146"><ele>1004.2</ele><time>2026-04-26T13:27:54.398Z</time></trkpt><trkpt lat="45.8407593" lon="11.4651465"><ele>1004.4000000000001</ele><time>2026-04-26T13:27:55.394Z</time></trkpt><trkpt lat="45.8408196" lon="11.4652729"><ele>1004.6</ele><time>2026-04-26T13:27:56.395Z</time></trkpt><trkpt lat="45.8408807" lon="11.4653925"><ele>1004.8</ele><time>2026-04-26T13:27:57.397Z</time></trkpt><trkpt lat="45.8409422" lon="11.4655079"><ele>1005.0</ele><time>2026-04-26T13:27:58.395Z</time></trkpt><trkpt lat="45.841011" lon="11.4656279"><ele>1005.25</ele><time>2026-04-26T13:27:59.397Z</time></trkpt><trkpt lat="45.8410939" lon="11.4657488"><ele>1005.5</ele><time>2026-04-26T13:28:00.397Z</time></trkpt><trkpt lat="45.8411958" lon="11.4658517"><ele>1005.75</ele><time>2026-04-26T13:28:01.397Z</time></trkpt><trkpt lat="45.8413055" lon="11.4659379"><ele>1006.0</ele><time>2026-04-26T13:28:02.395Z</time></trkpt><trkpt lat="45.8414164" lon="11.4660115"><ele>1006.0</ele><time>2026-04-26T13:28:03.396Z</time></trkpt><trkpt lat="45.841536" lon="11.4660843"><ele>1006.0</ele><time>2026-04-26T13:28:04.395Z</time></trkpt><trkpt lat="45.8416573" lon="11.4661589"><ele>1006.0</ele><time>2026-04-26T13:28:05.395Z</time></trkpt><trkpt lat="45.8417861" lon="11.4662343"><ele>1006.0</ele><time>2026-04-26T13:28:06.395Z</time></trkpt><trkpt lat="45.8419126" lon="11.4663148"><ele>1005.75</ele><time>2026-04-26T13:28:07.395Z</time></trkpt><trkpt lat="45.8420329" lon="11.4663911"><ele>1005.5</ele><time>2026-04-26T13:28:08.396Z</time></trkpt><trkpt lat="45.8421489" lon="11.4664611"><ele>1005.25</ele><time>2026-04-26T13:28:09.396Z</time></trkpt><trkpt lat="45.8422585" lon="11.4665272"><ele>1005.0</ele><time>2026-04-26T13:28:10.394Z</time></trkpt><trkpt lat="45.8423668" lon="11.4665889"><ele>1005.0</ele><time>2026-04-26T13:28:11.395Z</time></trkpt><trkpt lat="45.8424765" lon="11.4666433"><ele>1005.0</ele><time>2026-04-26T13:28:12.394Z</time></trkpt><trkpt lat="45.8425961" lon="11.4666744"><ele>1005.0</ele><time>2026-04-26T13:28:13.396Z</time></trkpt><trkpt lat="45.842865" lon="11.4666046"><ele>1005.0</ele><time>2026-04-26T13:28:15.397Z</time></trkpt><trkpt lat="45.8430324" lon="11.4665082"><ele>1005.0</ele><time>2026-04-26T13:28:16.397Z</time></trkpt><trkpt lat="45.84323" lon="11.466407"><ele>1005.0</ele><time>2026-04-26T13:28:17.393Z</time></trkpt><trkpt lat="45.8434543" lon="11.4663025"><ele>998.5</ele><time>2026-04-26T13:28:18.394Z</time></trkpt><trkpt lat="45.8436968" lon="11.4662041"><ele>992.0</ele><time>2026-04-26T13:28:19.394Z</time></trkpt><trkpt lat="45.8439278" lon="11.4661067"><ele>992.0</ele><time>2026-04-26T13:28:20.394Z</time></trkpt><trkpt lat="45.8441514" lon="11.4660138"><ele>992.0</ele><time>2026-04-26T13:28:21.396Z</time></trkpt><trkpt lat="45.8443627" lon="11.4659163"><ele>993.0</ele><time>2026-04-26T13:28:22.395Z</time></trkpt><trkpt lat="45.8445622" lon="11.465807"><ele>994.0</ele><time>2026-04-26T13:28:23.397Z</time></trkpt><trkpt lat="45.8447461" lon="11.4656751"><ele>995.0</ele><time>2026-04-26T13:28:24.395Z</time></trkpt><trkpt lat="45.8449147" lon="11.4655326"><ele>992.0</ele><time>2026-04-26T13:28:25.396Z</time></trkpt><trkpt lat="45.8450772" lon="11.4653952"><ele>989.0</ele><time>2026-04-26T13:28:26.393Z</time></trkpt><trkpt lat="45.8452327" lon="11.4652694"><ele>986.0</ele><time>2026-04-26T13:28:27.393Z</time></trkpt><trkpt lat="45.8453758" lon="11.4651606"><ele>986.0</ele><time>2026-04-26T13:28:28.393Z</time></trkpt><trkpt lat="45.8455026" lon="11.4650861"><ele>986.0</ele><time>2026-04-26T13:28:29.391Z</time></trkpt><trkpt lat="45.8456295" lon="11.4650519"><ele>986.0</ele><time>2026-04-26T13:28:30.392Z</time></trkpt><trkpt lat="45.8457712" lon="11.4650773"><ele>986.0</ele><time>2026-04-26T13:28:31.393Z</time></trkpt><trkpt lat="45.845928" lon="11.4651616"><ele>986.6666666666667</ele><time>2026-04-26T13:28:32.395Z</time></trkpt><trkpt lat="45.8460933" lon="11.4652831"><ele>987.3333333333333</ele><time>2026-04-26T13:28:33.394Z</time></trkpt><trkpt lat="45.8462626" lon="11.4654239"><ele>988.0</ele><time>2026-04-26T13:28:34.394Z</time></trkpt><trkpt lat="45.8465375" lon="11.4656856"><ele>989.3333333333333</ele><time>2026-04-26T13:28:36.394Z</time></trkpt><trkpt lat="45.846671" lon="11.4658362"><ele>990.6666666666667</ele><time>2026-04-26T13:28:37.398Z</time></trkpt><trkpt lat="45.8468129" lon="11.4660176"><ele>992.0</ele><time>2026-04-26T13:28:38.396Z</time></trkpt><trkpt lat="45.8469616" lon="11.4662265"><ele>991.3333333333334</ele><time>2026-04-26T13:28:39.396Z</time></trkpt><trkpt lat="45.8470992" lon="11.4664277"><ele>990.6666666666667</ele><time>2026-04-26T13:28:40.395Z</time></trkpt><trkpt lat="45.8472061" lon="11.4665859"><ele>990.0</ele><time>2026-04-26T13:28:41.394Z</time></trkpt><trkpt lat="45.8473041" lon="11.4667272"><ele>990.0</ele><time>2026-04-26T13:28:42.395Z</time></trkpt><trkpt lat="45.8474111" lon="11.4668877"><ele>990.0</ele><time>2026-04-26T13:28:43.393Z</time></trkpt><trkpt lat="45.8475277" lon="11.4670832"><ele>990.0</ele><time>2026-04-26T13:28:44.393Z</time></trkpt><trkpt lat="45.8476533" lon="11.4673122"><ele>988.0</ele><time>2026-04-26T13:28:45.397Z</time></trkpt><trkpt lat="45.8477923" lon="11.4675635"><ele>986.0</ele><time>2026-04-26T13:28:46.396Z</time></trkpt><trkpt lat="45.8479333" lon="11.4678146"><ele>984.0</ele><time>2026-04-26T13:28:47.394Z</time></trkpt><trkpt lat="45.8480504" lon="11.4680249"><ele>981.3333333333333</ele><time>2026-04-26T13:28:48.397Z</time></trkpt><trkpt lat="45.8481525" lon="11.4682096"><ele>978.6666666666666</ele><time>2026-04-26T13:28:49.395Z</time></trkpt><trkpt lat="45.8482583" lon="11.4684065"><ele>976.0</ele><time>2026-04-26T13:28:50.397Z</time></trkpt><trkpt lat="45.8483767" lon="11.4686248"><ele>976.6666666666666</ele><time>2026-04-26T13:28:51.395Z</time></trkpt><trkpt lat="45.848498" lon="11.4688456"><ele>977.3333333333333</ele><time>2026-04-26T13:28:52.395Z</time></trkpt><trkpt lat="45.8485954" lon="11.469026"><ele>978.0</ele><time>2026-04-26T13:28:53.393Z</time></trkpt><trkpt lat="45.8486818" lon="11.4691984"><ele>978.0</ele><time>2026-04-26T13:28:54.395Z</time></trkpt><trkpt lat="45.8487671" lon="11.4693975"><ele>978.0</ele><time>2026-04-26T13:28:55.395Z</time></trkpt><trkpt lat="45.8489353" lon="11.4698956"><ele>978.6666666666667</ele><time>2026-04-26T13:28:57.396Z</time></trkpt><trkpt lat="45.8490269" lon="11.4701703"><ele>979.3333333333334</ele><time>2026-04-26T13:28:58.396Z</time></trkpt><trkpt lat="45.8491244" lon="11.4704286"><ele>980.0</ele><time>2026-04-26T13:28:59.396Z</time></trkpt><trkpt lat="45.8492261" lon="11.4706705"><ele>979.0</ele><time>2026-04-26T13:29:00.397Z</time></trkpt><trkpt lat="45.8493269" lon="11.4709053"><ele>978.0</ele><time>2026-04-26T13:29:01.395Z</time></trkpt><trkpt lat="45.849422" lon="11.4711356"><ele>977.0</ele><time>2026-04-26T13:29:02.396Z</time></trkpt><trkpt lat="45.8495145" lon="11.4713599"><ele>973.6666666666667</ele><time>2026-04-26T13:29:03.397Z</time></trkpt><trkpt lat="45.8496027" lon="11.471581"><ele>970.3333333333333</ele><time>2026-04-26T13:29:04.396Z</time></trkpt><trkpt lat="45.8496791" lon="11.471801"><ele>967.0</ele><time>2026-04-26T13:29:05.396Z</time></trkpt><trkpt lat="45.8497491" lon="11.4720174"><ele>966.0</ele><time>2026-04-26T13:29:06.397Z</time></trkpt><trkpt lat="45.8498164" lon="11.4722263"><ele>965.0</ele><time>2026-04-26T13:29:07.398Z</time></trkpt><trkpt lat="45.8498812" lon="11.4724238"><ele>964.0</ele><time>2026-04-26T13:29:08.397Z</time></trkpt><trkpt lat="45.8499393" lon="11.472594"><ele>963.0</ele><time>2026-04-26T13:29:09.397Z</time></trkpt><trkpt lat="45.8500043" lon="11.4727473"><ele>963.0</ele><time>2026-04-26T13:29:10.397Z</time></trkpt><trkpt lat="45.8500889" lon="11.4728682"><ele>963.0</ele><time>2026-04-26T13:29:11.394Z</time></trkpt><trkpt lat="45.850202" lon="11.4729537"><ele>963.0</ele><time>2026-04-26T13:29:12.396Z</time></trkpt><trkpt lat="45.8503402" lon="11.4730034"><ele>963.0</ele><time>2026-04-26T13:29:13.398Z</time></trkpt><trkpt lat="45.8504984" lon="11.4730328"><ele>962.3333333333333</ele><time>2026-04-26T13:29:14.395Z</time></trkpt><trkpt lat="45.8506493" lon="11.4730562"><ele>961.6666666666666</ele><time>2026-04-26T13:29:15.396Z</time></trkpt><trkpt lat="45.8507884" lon="11.4730844"><ele>961.0</ele><time>2026-04-26T13:29:16.396Z</time></trkpt><trkpt lat="45.8510765" lon="11.4731454"><ele>961.0</ele><time>2026-04-26T13:29:18.393Z</time></trkpt><trkpt lat="45.8512372" lon="11.4731772"><ele>961.0</ele><time>2026-04-26T13:29:19.398Z</time></trkpt><trkpt lat="45.8513964" lon="11.4732038"><ele>961.0</ele><time>2026-04-26T13:29:20.397Z</time></trkpt><trkpt lat="45.8515395" lon="11.4732285"><ele>961.0</ele><time>2026-04-26T13:29:21.394Z</time></trkpt><trkpt lat="45.8516752" lon="11.473263"><ele>961.0</ele><time>2026-04-26T13:29:22.394Z</time></trkpt><trkpt lat="45.8518018" lon="11.4733285"><ele>961.0</ele><time>2026-04-26T13:29:23.396Z</time></trkpt><trkpt lat="45.8519131" lon="11.4734433"><ele>961.0</ele><time>2026-04-26T13:29:24.396Z</time></trkpt><trkpt lat="45.8520088" lon="11.4736046"><ele>963.6666666666666</ele><time>2026-04-26T13:29:25.396Z</time></trkpt><trkpt lat="45.8520876" lon="11.4738095"><ele>966.3333333333333</ele><time>2026-04-26T13:29:26.394Z</time></trkpt><trkpt lat="45.8521581" lon="11.474051"><ele>969.0</ele><time>2026-04-26T13:29:27.394Z</time></trkpt><trkpt lat="45.8522336" lon="11.4743195"><ele>969.0</ele><time>2026-04-26T13:29:28.397Z</time></trkpt><trkpt lat="45.852315" lon="11.4745913"><ele>969.0</ele><time>2026-04-26T13:29:29.395Z</time></trkpt><trkpt lat="45.8524" lon="11.4748455"><ele>969.0</ele><time>2026-04-26T13:29:30.395Z</time></trkpt><trkpt lat="45.8524594" lon="11.4749959"><ele>973.0</ele><time>2026-04-26T13:29:30.993Z</time></trkpt><trkpt lat="45.8526263" lon="11.4753565"><ele>977.0</ele><time>2026-04-26T13:29:32.395Z</time></trkpt><trkpt lat="45.8527563" lon="11.4756151"><ele>977.3333333333334</ele><time>2026-04-26T13:29:33.396Z</time></trkpt><trkpt lat="45.8528847" lon="11.4758535"><ele>977.6666666666667</ele><time>2026-04-26T13:29:34.393Z</time></trkpt><trkpt lat="45.8530083" lon="11.4760704"><ele>978.0</ele><time>2026-04-26T13:29:35.396Z</time></trkpt><trkpt lat="45.8531164" lon="11.476254"><ele>974.3333333333333</ele><time>2026-04-26T13:29:36.398Z</time></trkpt><trkpt lat="45.8532088" lon="11.4763959"><ele>970.6666666666666</ele><time>2026-04-26T13:29:37.395Z</time></trkpt><trkpt lat="45.853422" lon="11.4765526"><ele>967.0</ele><time>2026-04-26T13:29:39.395Z</time></trkpt><trkpt lat="45.8535352" lon="11.4765634"><ele>966.75</ele><time>2026-04-26T13:29:40.398Z</time></trkpt><trkpt lat="45.8536396" lon="11.4765227"><ele>966.5</ele><time>2026-04-26T13:29:41.393Z</time></trkpt><trkpt lat="45.853737" lon="11.4764302"><ele>966.25</ele><time>2026-04-26T13:29:42.395Z</time></trkpt><trkpt lat="45.8538249" lon="11.4762941"><ele>966.0</ele><time>2026-04-26T13:29:43.392Z</time></trkpt><trkpt lat="45.853903" lon="11.4761197"><ele>966.0</ele><time>2026-04-26T13:29:44.395Z</time></trkpt><trkpt lat="45.8539817" lon="11.4759194"><ele>966.0</ele><time>2026-04-26T13:29:45.395Z</time></trkpt><trkpt lat="45.854065" lon="11.475711"><ele>966.0</ele><time>2026-04-26T13:29:46.395Z</time></trkpt><trkpt lat="45.8541527" lon="11.4754863"><ele>968.3333333333333</ele><time>2026-04-26T13:29:47.394Z</time></trkpt><trkpt lat="45.8542466" lon="11.4752521"><ele>970.6666666666666</ele><time>2026-04-26T13:29:48.395Z</time></trkpt><trkpt lat="45.854337" lon="11.475033"><ele>973.0</ele><time>2026-04-26T13:29:49.395Z</time></trkpt><trkpt lat="45.8544227" lon="11.4748283"><ele>971.0</ele><time>2026-04-26T13:29:50.396Z</time></trkpt><trkpt lat="45.8545042" lon="11.474635"><ele>969.0</ele><time>2026-04-26T13:29:51.395Z</time></trkpt><trkpt lat="45.8545838" lon="11.474454"><ele>967.0</ele><time>2026-04-26T13:29:52.395Z</time></trkpt><trkpt lat="45.8546633" lon="11.4742833"><ele>965.0</ele><time>2026-04-26T13:29:53.396Z</time></trkpt><trkpt lat="45.8547414" lon="11.4741198"><ele>965.0</ele><time>2026-04-26T13:29:54.395Z</time></trkpt><trkpt lat="45.8548183" lon="11.4739507"><ele>965.0</ele><time>2026-04-26T13:29:55.395Z</time></trkpt><trkpt lat="45.8548935" lon="11.4737872"><ele>965.0</ele><time>2026-04-26T13:29:56.395Z</time></trkpt><trkpt lat="45.8549655" lon="11.4736322"><ele>965.0</ele><time>2026-04-26T13:29:57.397Z</time></trkpt><trkpt lat="45.8550349" lon="11.4734838"><ele>965.0</ele><time>2026-04-26T13:29:58.395Z</time></trkpt><trkpt lat="45.8551804" lon="11.4731772"><ele>965.0</ele><time>2026-04-26T13:30:00.398Z</time></trkpt><trkpt lat="45.8552583" lon="11.4730135"><ele>965.0</ele><time>2026-04-26T13:30:01.397Z</time></trkpt><trkpt lat="45.8553351" lon="11.472844"><ele>965.0</ele><time>2026-04-26T13:30:02.396Z</time></trkpt><trkpt lat="45.8554106" lon="11.4726834"><ele>965.0</ele><time>2026-04-26T13:30:03.396Z</time></trkpt><trkpt lat="45.8554808" lon="11.4725312"><ele>965.0</ele><time>2026-04-26T13:30:04.396Z</time></trkpt><trkpt lat="45.85555" lon="11.4723821"><ele>965.0</ele><time>2026-04-26T13:30:05.394Z</time></trkpt><trkpt lat="45.85562" lon="11.4722256"><ele>965.25</ele><time>2026-04-26T13:30:06.394Z</time></trkpt><trkpt lat="45.8556983" lon="11.4720681"><ele>965.5</ele><time>2026-04-26T13:30:07.395Z</time></trkpt><trkpt lat="45.8557881" lon="11.471915"><ele>965.75</ele><time>2026-04-26T13:30:08.399Z</time></trkpt><trkpt lat="45.8558674" lon="11.4718034"><ele>966.0</ele><time>2026-04-26T13:30:09.196Z</time></trkpt><trkpt lat="45.8559953" lon="11.4716621"><ele>967.0</ele><time>2026-04-26T13:30:10.398Z</time></trkpt><trkpt lat="45.8561177" lon="11.4715729"><ele>968.0</ele><time>2026-04-26T13:30:11.395Z</time></trkpt><trkpt lat="45.8562522" lon="11.4715216"><ele>969.0</ele><time>2026-04-26T13:30:12.396Z</time></trkpt><trkpt lat="45.8563942" lon="11.4715087"><ele>970.0</ele><time>2026-04-26T13:30:13.395Z</time></trkpt><trkpt lat="45.8565439" lon="11.4715312"><ele>970.0</ele><time>2026-04-26T13:30:14.394Z</time></trkpt><trkpt lat="45.8566994" lon="11.4715792"><ele>970.0</ele><time>2026-04-26T13:30:15.393Z</time></trkpt><trkpt lat="45.8568502" lon="11.4716355"><ele>970.0</ele><time>2026-04-26T13:30:16.395Z</time></trkpt><trkpt lat="45.8569881" lon="11.4716848"><ele>971.0</ele><time>2026-04-26T13:30:17.397Z</time></trkpt><trkpt lat="45.8571174" lon="11.4717317"><ele>972.0</ele><time>2026-04-26T13:30:18.394Z</time></trkpt><trkpt lat="45.8572393" lon="11.4717763"><ele>973.0</ele><time>2026-04-26T13:30:19.398Z</time></trkpt><trkpt lat="45.8574712" lon="11.471864"><ele>973.0</ele><time>2026-04-26T13:30:21.399Z</time></trkpt><trkpt lat="45.8575905" lon="11.4719044"><ele>973.0</ele><time>2026-04-26T13:30:22.4Z</time></trkpt><trkpt lat="45.8577124" lon="11.4719453"><ele>973.0</ele><time>2026-04-26T13:30:23.396Z</time></trkpt><trkpt lat="45.8578292" lon="11.471989"><ele>973.0</ele><time>2026-04-26T13:30:24.398Z</time></trkpt><trkpt lat="45.8579443" lon="11.4720381"><ele>974.0</ele><time>2026-04-26T13:30:25.399Z</time></trkpt><trkpt lat="45.858063" lon="11.4720895"><ele>975.0</ele><time>2026-04-26T13:30:26.397Z</time></trkpt><trkpt lat="45.8581881" lon="11.4721392"><ele>976.0</ele><time>2026-04-26T13:30:27.397Z</time></trkpt><trkpt lat="45.8583133" lon="11.4721852"><ele>977.0</ele><time>2026-04-26T13:30:28.395Z</time></trkpt><trkpt lat="45.8584307" lon="11.472228"><ele>977.8</ele><time>2026-04-26T13:30:29.396Z</time></trkpt><trkpt lat="45.8585392" lon="11.4722701"><ele>978.6</ele><time>2026-04-26T13:30:30.395Z</time></trkpt><trkpt lat="45.8586429" lon="11.4723082"><ele>979.3999999999999</ele><time>2026-04-26T13:30:31.396Z</time></trkpt><trkpt lat="45.8587521" lon="11.472337"><ele>980.1999999999999</ele><time>2026-04-26T13:30:32.396Z</time></trkpt><trkpt lat="45.8588689" lon="11.4723467"><ele>981.0</ele><time>2026-04-26T13:30:33.398Z</time></trkpt><trkpt lat="45.8589917" lon="11.4723329"><ele>981.0</ele><time>2026-04-26T13:30:34.398Z</time></trkpt><trkpt lat="45.859121" lon="11.4722991"><ele>981.0</ele><time>2026-04-26T13:30:35.4Z</time></trkpt><trkpt lat="45.859255" lon="11.4722555"><ele>981.0</ele><time>2026-04-26T13:30:36.398Z</time></trkpt><trkpt lat="45.8593863" lon="11.4722128"><ele>981.0</ele><time>2026-04-26T13:30:37.398Z</time></trkpt><trkpt lat="45.8595092" lon="11.4721729"><ele>981.0</ele><time>2026-04-26T13:30:38.397Z</time></trkpt><trkpt lat="45.8596257" lon="11.4721415"><ele>981.0</ele><time>2026-04-26T13:30:39.398Z</time></trkpt><trkpt lat="45.8597403" lon="11.4721235"><ele>981.0</ele><time>2026-04-26T13:30:40.396Z</time></trkpt><trkpt lat="45.8599913" lon="11.4721464"><ele>982.0</ele><time>2026-04-26T13:30:42.396Z</time></trkpt><trkpt lat="45.8601264" lon="11.4721732"><ele>983.0</ele><time>2026-04-26T13:30:43.398Z</time></trkpt><trkpt lat="45.860263" lon="11.4721976"><ele>984.0</ele><time>2026-04-26T13:30:44.396Z</time></trkpt><trkpt lat="45.8603976" lon="11.4722224"><ele>985.0</ele><time>2026-04-26T13:30:45.397Z</time></trkpt><trkpt lat="45.8605237" lon="11.4722532"><ele>985.0</ele><time>2026-04-26T13:30:46.396Z</time></trkpt><trkpt lat="45.8605961" lon="11.4722732"><ele>985.0</ele><time>2026-04-26T13:30:46.993Z</time></trkpt><trkpt lat="45.8607646" lon="11.4723188"><ele>985.0</ele><time>2026-04-26T13:30:48.398Z</time></trkpt><trkpt lat="45.8608842" lon="11.4723485"><ele>985.0</ele><time>2026-04-26T13:30:49.398Z</time></trkpt><trkpt lat="45.8610022" lon="11.4723803"><ele>985.5</ele><time>2026-04-26T13:30:50.398Z</time></trkpt><trkpt lat="45.8611227" lon="11.4724108"><ele>986.0</ele><time>2026-04-26T13:30:51.396Z</time></trkpt><trkpt lat="45.8612478" lon="11.4724415"><ele>986.5</ele><time>2026-04-26T13:30:52.398Z</time></trkpt><trkpt lat="45.8613737" lon="11.472475"><ele>987.0</ele><time>2026-04-26T13:30:53.398Z</time></trkpt><trkpt lat="45.8614962" lon="11.4725054"><ele>987.0</ele><time>2026-04-26T13:30:54.396Z</time></trkpt><trkpt lat="45.861611" lon="11.4725301"><ele>987.0</ele><time>2026-04-26T13:30:55.394Z</time></trkpt><trkpt lat="45.8617184" lon="11.4725493"><ele>987.0</ele><time>2026-04-26T13:30:56.395Z</time></trkpt><trkpt lat="45.8618162" lon="11.4725658"><ele>987.0</ele><time>2026-04-26T13:30:57.394Z</time></trkpt><trkpt lat="45.861908" lon="11.4725696"><ele>987.0</ele><time>2026-04-26T13:30:58.397Z</time></trkpt><trkpt lat="45.8619981" lon="11.4725589"><ele>987.2</ele><time>2026-04-26T13:30:59.396Z</time></trkpt><trkpt lat="45.8620856" lon="11.4725426"><ele>987.4000000000001</ele><time>2026-04-26T13:31:00.396Z</time></trkpt><trkpt lat="45.8621661" lon="11.4725253"><ele>987.5999999999999</ele><time>2026-04-26T13:31:01.398Z</time></trkpt><trkpt lat="45.8623022" lon="11.4724836"><ele>987.8</ele><time>2026-04-26T13:31:03.397Z</time></trkpt><trkpt lat="45.8624061" lon="11.4724373"><ele>988.0</ele><time>2026-04-26T13:31:05.396Z</time></trkpt><trkpt lat="45.862488" lon="11.4724078"><ele>988.0</ele><time>2026-04-26T13:31:07.397Z</time></trkpt><trkpt lat="45.8625698" lon="11.4724213"><ele>988.0</ele><time>2026-04-26T13:31:09.396Z</time></trkpt><trkpt lat="45.8626725" lon="11.4724461"><ele>988.0</ele><time>2026-04-26T13:31:11.402Z</time></trkpt><trkpt lat="45.8627383" lon="11.472439"><ele>988.0</ele><time>2026-04-26T13:31:12.397Z</time></trkpt><trkpt lat="45.8628004" lon="11.4724227"><ele>988.0</ele><time>2026-04-26T13:31:13.397Z</time></trkpt><trkpt lat="45.862864" lon="11.4724069"><ele>988.0</ele><time>2026-04-26T13:31:14.397Z</time></trkpt><trkpt lat="45.8629321" lon="11.4723994"><ele>988.0</ele><time>2026-04-26T13:31:15.392Z</time></trkpt><trkpt lat="45.862999" lon="11.472399"><ele>988.4999999999999</ele><time>2026-04-26T13:31:16.393Z</time></trkpt><trkpt lat="45.8630701" lon="11.4724433"><ele>989.0</ele><time>2026-04-26T13:31:17.394Z</time></trkpt><trkpt lat="45.8631413" lon="11.4724885"><ele>989.5</ele><time>2026-04-26T13:31:18.393Z</time></trkpt><trkpt lat="45.863214" lon="11.4725309"><ele>990.0</ele><time>2026-04-26T13:31:19.392Z</time></trkpt><trkpt lat="45.8632878" lon="11.4725702"><ele>990.4999999999999</ele><time>2026-04-26T13:31:20.39Z</time></trkpt><trkpt lat="45.8633593" lon="11.4726156"><ele>991.0</ele><time>2026-04-26T13:31:21.39Z</time></trkpt><trkpt lat="45.863432" lon="11.472669"><ele>991.1999999999999</ele><time>2026-04-26T13:31:22.391Z</time></trkpt><trkpt lat="45.8635897" lon="11.4727889"><ele>991.3999999999999</ele><time>2026-04-26T13:31:24.395Z</time></trkpt><trkpt lat="45.8636689" lon="11.4728466"><ele>991.6</ele><time>2026-04-26T13:31:25.398Z</time></trkpt><trkpt lat="45.8637454" lon="11.4729064"><ele>991.8</ele><time>2026-04-26T13:31:26.394Z</time></trkpt><trkpt lat="45.8638137" lon="11.4729743"><ele>992.0</ele><time>2026-04-26T13:31:27.394Z</time></trkpt><trkpt lat="45.8638747" lon="11.4730477"><ele>992.5000000000001</ele><time>2026-04-26T13:31:28.394Z</time></trkpt><trkpt lat="45.863929" lon="11.4731276"><ele>993.0</ele><time>2026-04-26T13:31:29.394Z</time></trkpt><trkpt lat="45.8639744" lon="11.4732177"><ele>993.5</ele><time>2026-04-26T13:31:30.393Z</time></trkpt><trkpt lat="45.8640243" lon="11.4733167"><ele>994.0</ele><time>2026-04-26T13:31:31.393Z</time></trkpt><trkpt lat="45.8640683" lon="11.4734283"><ele>994.5000000000001</ele><time>2026-04-26T13:31:32.392Z</time></trkpt><trkpt lat="45.864121" lon="11.4735432"><ele>995.0</ele><time>2026-04-26T13:31:33.395Z</time></trkpt><trkpt lat="45.8641819" lon="11.4736461"><ele>995.0000000000001</ele><time>2026-04-26T13:31:34.392Z</time></trkpt><trkpt lat="45.8642401" lon="11.4737402"><ele>995.0</ele><time>2026-04-26T13:31:35.395Z</time></trkpt><trkpt lat="45.864295" lon="11.4738239"><ele>995.0</ele><time>2026-04-26T13:31:36.393Z</time></trkpt><trkpt lat="45.8643492" lon="11.4739007"><ele>995.0</ele><time>2026-04-26T13:31:37.393Z</time></trkpt><trkpt lat="45.8644085" lon="11.4739737"><ele>995.0000000000001</ele><time>2026-04-26T13:31:38.392Z</time></trkpt><trkpt lat="45.8644771" lon="11.4740559"><ele>995.0</ele><time>2026-04-26T13:31:39.392Z</time></trkpt><trkpt lat="45.8645579" lon="11.4741372"><ele>995.25</ele><time>2026-04-26T13:31:40.39Z</time></trkpt><trkpt lat="45.8646477" lon="11.4742319"><ele>995.5</ele><time>2026-04-26T13:31:41.391Z</time></trkpt><trkpt lat="45.864745" lon="11.4743407"><ele>995.75</ele><time>2026-04-26T13:31:42.391Z</time></trkpt><trkpt lat="45.8648393" lon="11.4744494"><ele>996.0</ele><time>2026-04-26T13:31:43.39Z</time></trkpt><trkpt lat="45.865005" lon="11.4746286"><ele>996.0</ele><time>2026-04-26T13:31:45.392Z</time></trkpt><trkpt lat="45.8650766" lon="11.4747091"><ele>995.9999999999999</ele><time>2026-04-26T13:31:46.396Z</time></trkpt><trkpt lat="45.8651445" lon="11.4747888"><ele>995.9999999999999</ele><time>2026-04-26T13:31:47.394Z</time></trkpt><trkpt lat="45.8652244" lon="11.4748694"><ele>996.0</ele><time>2026-04-26T13:31:48.394Z</time></trkpt><trkpt lat="45.865312" lon="11.474964"><ele>996.0</ele><time>2026-04-26T13:31:49.394Z</time></trkpt><trkpt lat="45.865409" lon="11.4750644"><ele>995.75</ele><time>2026-04-26T13:31:50.392Z</time></trkpt><trkpt lat="45.8655106" lon="11.4751695"><ele>995.5</ele><time>2026-04-26T13:31:51.392Z</time></trkpt><trkpt lat="45.8656039" lon="11.4752673"><ele>995.25</ele><time>2026-04-26T13:31:52.392Z</time></trkpt><trkpt lat="45.8656897" lon="11.4753578"><ele>995.0</ele><time>2026-04-26T13:31:53.395Z</time></trkpt><trkpt lat="45.8657712" lon="11.4754469"><ele>995.5</ele><time>2026-04-26T13:31:54.394Z</time></trkpt><trkpt lat="45.8658577" lon="11.475543"><ele>996.0</ele><time>2026-04-26T13:31:55.394Z</time></trkpt><trkpt lat="45.8659517" lon="11.475645"><ele>996.5</ele><time>2026-04-26T13:31:56.397Z</time></trkpt><trkpt lat="45.8660528" lon="11.4757525"><ele>997.0</ele><time>2026-04-26T13:31:57.394Z</time></trkpt><trkpt lat="45.8661617" lon="11.4758685"><ele>997.25</ele><time>2026-04-26T13:31:58.393Z</time></trkpt><trkpt lat="45.866274" lon="11.4759842"><ele>997.5</ele><time>2026-04-26T13:31:59.395Z</time></trkpt><trkpt lat="45.8663796" lon="11.4760947"><ele>997.75</ele><time>2026-04-26T13:32:00.393Z</time></trkpt><trkpt lat="45.866473" lon="11.4761956"><ele>998.0</ele><time>2026-04-26T13:32:01.396Z</time></trkpt><trkpt lat="45.8665537" lon="11.4762823"><ele>998.4</ele><time>2026-04-26T13:32:02.392Z</time></trkpt><trkpt lat="45.8666235" lon="11.4763537"><ele>998.8</ele><time>2026-04-26T13:32:03.395Z</time></trkpt><trkpt lat="45.866687" lon="11.4764165"><ele>999.2</ele><time>2026-04-26T13:32:04.394Z</time></trkpt><trkpt lat="45.8667955" lon="11.476529"><ele>999.6</ele><time>2026-04-26T13:32:06.393Z</time></trkpt><trkpt lat="45.8668694" lon="11.4766071"><ele>1000.0</ele><time>2026-04-26T13:32:08.392Z</time></trkpt><trkpt lat="45.8669441" lon="11.4766449"><ele>999.2</ele><time>2026-04-26T13:32:18.393Z</time></trkpt><trkpt lat="45.8669875" lon="11.4765693"><ele>998.4</ele><time>2026-04-26T13:32:41.395Z</time></trkpt><trkpt lat="45.8669829" lon="11.4767113"><ele>997.5999999999999</ele><time>2026-04-26T13:40:39.394Z</time></trkpt><trkpt lat="45.8670716" lon="11.4768063"><ele>996.8</ele><time>2026-04-26T13:40:40.393Z</time></trkpt><trkpt lat="45.867173" lon="11.4769158"><ele>996.0</ele><time>2026-04-26T13:40:41.393Z</time></trkpt><trkpt lat="45.8672711" lon="11.4770186"><ele>996.5999999999999</ele><time>2026-04-26T13:40:42.392Z</time></trkpt><trkpt lat="45.8673599" lon="11.4771177"><ele>997.1999999999999</ele><time>2026-04-26T13:40:43.393Z</time></trkpt><trkpt lat="45.8674412" lon="11.4772097"><ele>997.8000000000001</ele><time>2026-04-26T13:40:44.391Z</time></trkpt><trkpt lat="45.8675151" lon="11.4772905"><ele>998.4000000000001</ele><time>2026-04-26T13:40:45.391Z</time></trkpt><trkpt lat="45.8675845" lon="11.4773665"><ele>999.0</ele><time>2026-04-26T13:40:46.394Z</time></trkpt><trkpt lat="45.8677334" lon="11.4775236"><ele>999.25</ele><time>2026-04-26T13:40:48.394Z</time></trkpt><trkpt lat="45.8678217" lon="11.4776139"><ele>999.5</ele><time>2026-04-26T13:40:49.396Z</time></trkpt><trkpt lat="45.8679201" lon="11.4777153"><ele>999.75</ele><time>2026-04-26T13:40:50.393Z</time></trkpt><trkpt lat="45.8680295" lon="11.4778318"><ele>1000.0</ele><time>2026-04-26T13:40:51.396Z</time></trkpt><trkpt lat="45.8681488" lon="11.4779524"><ele>1000.0</ele><time>2026-04-26T13:40:52.395Z</time></trkpt><trkpt lat="45.8682722" lon="11.4780861"><ele>1000.0</ele><time>2026-04-26T13:40:53.397Z</time></trkpt><trkpt lat="45.868389" lon="11.4782113"><ele>1000.0</ele><time>2026-04-26T13:40:54.395Z</time></trkpt><trkpt lat="45.8684951" lon="11.4783227"><ele>1000.0</ele><time>2026-04-26T13:40:55.394Z</time></trkpt><trkpt lat="45.868586" lon="11.4784173"><ele>1000.5</ele><time>2026-04-26T13:40:56.394Z</time></trkpt><trkpt lat="45.8686567" lon="11.4784937"><ele>1001.0</ele><time>2026-04-26T13:40:57.196Z</time></trkpt><trkpt lat="45.8687746" lon="11.4786235"><ele>1001.5</ele><time>2026-04-26T13:40:58.392Z</time></trkpt><trkpt lat="45.8688913" lon="11.4787427"><ele>1002.0</ele><time>2026-04-26T13:40:59.393Z</time></trkpt><trkpt lat="45.8690143" lon="11.4788697"><ele>1002.0</ele><time>2026-04-26T13:41:00.393Z</time></trkpt><trkpt lat="45.8691263" lon="11.478991"><ele>1002.0</ele><time>2026-04-26T13:41:01.393Z</time></trkpt><trkpt lat="45.8692264" lon="11.4790992"><ele>1002.0</ele><time>2026-04-26T13:41:02.392Z</time></trkpt><trkpt lat="45.8693128" lon="11.4791939"><ele>1002.0</ele><time>2026-04-26T13:41:03.395Z</time></trkpt><trkpt lat="45.8693837" lon="11.4792839"><ele>1002.8</ele><time>2026-04-26T13:41:04.395Z</time></trkpt><trkpt lat="45.8694369" lon="11.47937"><ele>1003.6</ele><time>2026-04-26T13:41:05.394Z</time></trkpt><trkpt lat="45.8694737" lon="11.4794476"><ele>1004.3999999999999</ele><time>2026-04-26T13:41:06.393Z</time></trkpt><trkpt lat="45.8695142" lon="11.4795554"><ele>1005.1999999999999</ele><time>2026-04-26T13:41:08.39Z</time></trkpt><trkpt lat="45.8695222" lon="11.4798626"><ele>1006.0</ele><time>2026-04-26T13:41:12.393Z</time></trkpt><trkpt lat="45.8695177" lon="11.4799893"><ele>1005.9999999999999</ele><time>2026-04-26T13:41:13.396Z</time></trkpt><trkpt lat="45.869514" lon="11.4801128"><ele>1006.0</ele><time>2026-04-26T13:41:14.394Z</time></trkpt><trkpt lat="45.8695044" lon="11.4802248"><ele>1006.0</ele><time>2026-04-26T13:41:15.393Z</time></trkpt><trkpt lat="45.8694797" lon="11.4803336"><ele>1006.0</ele><time>2026-04-26T13:41:16.396Z</time></trkpt><trkpt lat="45.8694368" lon="11.4804477"><ele>1005.9999999999999</ele><time>2026-04-26T13:41:17.396Z</time></trkpt><trkpt lat="45.8693855" lon="11.4805562"><ele>1006.0</ele><time>2026-04-26T13:41:18.394Z</time></trkpt><trkpt lat="45.8693349" lon="11.4806487"><ele>1006.1999999999999</ele><time>2026-04-26T13:41:19.392Z</time></trkpt><trkpt lat="45.8692866" lon="11.4807352"><ele>1006.3999999999999</ele><time>2026-04-26T13:41:20.392Z</time></trkpt><trkpt lat="45.8692309" lon="11.4808288"><ele>1006.6</ele><time>2026-04-26T13:41:21.395Z</time></trkpt><trkpt lat="45.8691688" lon="11.4809329"><ele>1006.8</ele><time>2026-04-26T13:41:22.395Z</time></trkpt><trkpt lat="45.8690975" lon="11.4810514"><ele>1007.0</ele><time>2026-04-26T13:41:23.395Z</time></trkpt><trkpt lat="45.8690191" lon="11.4811824"><ele>1008.4000000000001</ele><time>2026-04-26T13:41:24.395Z</time></trkpt><trkpt lat="45.8689428" lon="11.4813103"><ele>1009.8000000000001</ele><time>2026-04-26T13:41:25.393Z</time></trkpt><trkpt lat="45.8688769" lon="11.4814253"><ele>1011.2</ele><time>2026-04-26T13:41:26.395Z</time></trkpt><trkpt lat="45.8688181" lon="11.4815301"><ele>1012.6</ele><time>2026-04-26T13:41:27.397Z</time></trkpt><trkpt lat="45.8687663" lon="11.4816311"><ele>1014.0</ele><time>2026-04-26T13:41:28.395Z</time></trkpt><trkpt lat="45.8687231" lon="11.481741"><ele>1014.0</ele><time>2026-04-26T13:41:29.391Z</time></trkpt><trkpt lat="45.8686814" lon="11.4820076"><ele>1014.0</ele><time>2026-04-26T13:41:31.393Z</time></trkpt><trkpt lat="45.8686955" lon="11.482154"><ele>1014.0</ele><time>2026-04-26T13:41:32.391Z</time></trkpt><trkpt lat="45.8687295" lon="11.482296"><ele>1014.0</ele><time>2026-04-26T13:41:33.393Z</time></trkpt><trkpt lat="45.8688388" lon="11.4825627"><ele>1014.0</ele><time>2026-04-26T13:41:35.392Z</time></trkpt><trkpt lat="45.8689057" lon="11.4826984"><ele>1014.0</ele><time>2026-04-26T13:41:36.394Z</time></trkpt><trkpt lat="45.8689769" lon="11.4828429"><ele>1014.0</ele><time>2026-04-26T13:41:37.392Z</time></trkpt><trkpt lat="45.8690458" lon="11.4829917"><ele>1014.0</ele><time>2026-04-26T13:41:38.392Z</time></trkpt><trkpt lat="45.8691025" lon="11.4831487"><ele>1014.0</ele><time>2026-04-26T13:41:39.392Z</time></trkpt><trkpt lat="45.8691466" lon="11.4833093"><ele>1014.0</ele><time>2026-04-26T13:41:40.393Z</time></trkpt><trkpt lat="45.8691767" lon="11.4834823"><ele>1014.0</ele><time>2026-04-26T13:41:41.393Z</time></trkpt><trkpt lat="45.869189" lon="11.4836665"><ele>1014.0</ele><time>2026-04-26T13:41:42.394Z</time></trkpt><trkpt lat="45.8691896" lon="11.4838438"><ele>1014.0</ele><time>2026-04-26T13:41:43.396Z</time></trkpt><trkpt lat="45.869187" lon="11.4840064"><ele>1014.0000000000001</ele><time>2026-04-26T13:41:44.397Z</time></trkpt><trkpt lat="45.8691795" lon="11.4841579"><ele>1014.0000000000001</ele><time>2026-04-26T13:41:45.394Z</time></trkpt><trkpt lat="45.8691614" lon="11.4843071"><ele>1014.0</ele><time>2026-04-26T13:41:46.394Z</time></trkpt><trkpt lat="45.8691216" lon="11.484449"><ele>1014.0</ele><time>2026-04-26T13:41:47.393Z</time></trkpt><trkpt lat="45.8690682" lon="11.4845682"><ele>1014.5</ele><time>2026-04-26T13:41:48.393Z</time></trkpt><trkpt lat="45.8690081" lon="11.4846781"><ele>1015.0</ele><time>2026-04-26T13:41:49.392Z</time></trkpt><trkpt lat="45.86894" lon="11.4847863"><ele>1015.5</ele><time>2026-04-26T13:41:50.393Z</time></trkpt><trkpt lat="45.8687827" lon="11.4850084"><ele>1016.0</ele><time>2026-04-26T13:41:52.395Z</time></trkpt><trkpt lat="45.8686939" lon="11.4851243"><ele>1016.0</ele><time>2026-04-26T13:41:53.396Z</time></trkpt><trkpt lat="45.8686001" lon="11.4852476"><ele>1016.0</ele><time>2026-04-26T13:41:54.394Z</time></trkpt><trkpt lat="45.8685064" lon="11.4853724"><ele>1016.0</ele><time>2026-04-26T13:41:55.392Z</time></trkpt><trkpt lat="45.8684196" lon="11.4854849"><ele>1016.0</ele><time>2026-04-26T13:41:56.39Z</time></trkpt><trkpt lat="45.8683458" lon="11.4855896"><ele>1016.5999999999999</ele><time>2026-04-26T13:41:57.391Z</time></trkpt><trkpt lat="45.8682901" lon="11.4856924"><ele>1017.1999999999999</ele><time>2026-04-26T13:41:58.391Z</time></trkpt><trkpt lat="45.86825" lon="11.4858016"><ele>1017.8000000000001</ele><time>2026-04-26T13:41:59.392Z</time></trkpt><trkpt lat="45.8682318" lon="11.4859256"><ele>1018.4000000000001</ele><time>2026-04-26T13:42:00.392Z</time></trkpt><trkpt lat="45.8682388" lon="11.4860625"><ele>1019.0</ele><time>2026-04-26T13:42:01.393Z</time></trkpt><trkpt lat="45.8682711" lon="11.4862116"><ele>1018.25</ele><time>2026-04-26T13:42:02.394Z</time></trkpt><trkpt lat="45.868324" lon="11.4863634"><ele>1017.5</ele><time>2026-04-26T13:42:03.396Z</time></trkpt><trkpt lat="45.8683879" lon="11.4865112"><ele>1016.75</ele><time>2026-04-26T13:42:04.394Z</time></trkpt><trkpt lat="45.8684536" lon="11.4866524"><ele>1016.0</ele><time>2026-04-26T13:42:05.395Z</time></trkpt><trkpt lat="45.8685227" lon="11.4867863"><ele>1017.5</ele><time>2026-04-26T13:42:06.393Z</time></trkpt><trkpt lat="45.868591" lon="11.4869186"><ele>1019.0</ele><time>2026-04-26T13:42:07.394Z</time></trkpt><trkpt lat="45.8686564" lon="11.4870474"><ele>1020.5</ele><time>2026-04-26T13:42:08.394Z</time></trkpt><trkpt lat="45.8687178" lon="11.4871809"><ele>1022.0</ele><time>2026-04-26T13:42:09.392Z</time></trkpt><trkpt lat="45.8687797" lon="11.4873232"><ele>1022.3333333333334</ele><time>2026-04-26T13:42:10.393Z</time></trkpt><trkpt lat="45.8688447" lon="11.4874693"><ele>1022.6666666666667</ele><time>2026-04-26T13:42:11.393Z</time></trkpt><trkpt lat="45.8689708" lon="11.4877476"><ele>1023.0</ele><time>2026-04-26T13:42:13.392Z</time></trkpt><trkpt lat="45.8690317" lon="11.4878681"><ele>1022.8</ele><time>2026-04-26T13:42:14.392Z</time></trkpt><trkpt lat="45.8690891" lon="11.4879806"><ele>1022.5999999999999</ele><time>2026-04-26T13:42:15.391Z</time></trkpt><trkpt lat="45.8691418" lon="11.4880909"><ele>1022.4000000000001</ele><time>2026-04-26T13:42:16.394Z</time></trkpt><trkpt lat="45.8691951" lon="11.4882074"><ele>1022.2</ele><time>2026-04-26T13:42:17.393Z</time></trkpt><trkpt lat="45.8692514" lon="11.4883295"><ele>1022.0</ele><time>2026-04-26T13:42:18.393Z</time></trkpt><trkpt lat="45.8693112" lon="11.4884535"><ele>1022.0</ele><time>2026-04-26T13:42:19.392Z</time></trkpt><trkpt lat="45.8693697" lon="11.488576"><ele>1022.0</ele><time>2026-04-26T13:42:20.389Z</time></trkpt><trkpt lat="45.8694235" lon="11.4887008"><ele>1022.0</ele><time>2026-04-26T13:42:21.392Z</time></trkpt><trkpt lat="45.8694792" lon="11.488824"><ele>1022.0</ele><time>2026-04-26T13:42:22.391Z</time></trkpt><trkpt lat="45.8695217" lon="11.4889172"><ele>1022.0</ele><time>2026-04-26T13:42:23.193Z</time></trkpt><trkpt lat="45.8695817" lon="11.4890389"><ele>1022.0000000000001</ele><time>2026-04-26T13:42:24.392Z</time></trkpt><trkpt lat="45.8696223" lon="11.4891224"><ele>1022.0</ele><time>2026-04-26T13:42:25.391Z</time></trkpt><trkpt lat="45.8696576" lon="11.4892054"><ele>1022.0</ele><time>2026-04-26T13:42:26.394Z</time></trkpt><trkpt lat="45.8696828" lon="11.4892992"><ele>1022.0</ele><time>2026-04-26T13:42:27.394Z</time></trkpt><trkpt lat="45.8696965" lon="11.4894094"><ele>1022.0000000000001</ele><time>2026-04-26T13:42:28.393Z</time></trkpt><trkpt lat="45.8696961" lon="11.4895287"><ele>1022.0</ele><time>2026-04-26T13:42:29.393Z</time></trkpt><trkpt lat="45.8696735" lon="11.4896505"><ele>1019.0</ele><time>2026-04-26T13:42:30.396Z</time></trkpt><trkpt lat="45.8696271" lon="11.4897779"><ele>1016.0</ele><time>2026-04-26T13:42:31.395Z</time></trkpt><trkpt lat="45.8695644" lon="11.4899105"><ele>1013.0</ele><time>2026-04-26T13:42:32.393Z</time></trkpt><trkpt lat="45.8694187" lon="11.4902152"><ele>1013.0</ele><time>2026-04-26T13:42:34.395Z</time></trkpt><trkpt lat="45.8693384" lon="11.4903767"><ele>1013.0</ele><time>2026-04-26T13:42:35.396Z</time></trkpt><trkpt lat="45.8692625" lon="11.4905228"><ele>1013.0</ele><time>2026-04-26T13:42:36.396Z</time></trkpt><trkpt lat="45.8691983" lon="11.4906515"><ele>1013.0</ele><time>2026-04-26T13:42:37.394Z</time></trkpt><trkpt lat="45.8691391" lon="11.4907793"><ele>1012.5999999999999</ele><time>2026-04-26T13:42:38.397Z</time></trkpt><trkpt lat="45.8690804" lon="11.4909029"><ele>1012.1999999999999</ele><time>2026-04-26T13:42:39.395Z</time></trkpt><trkpt lat="45.8690207" lon="11.491021"><ele>1011.8</ele><time>2026-04-26T13:42:40.394Z</time></trkpt><trkpt lat="45.8689624" lon="11.4911372"><ele>1011.4</ele><time>2026-04-26T13:42:41.395Z</time></trkpt><trkpt lat="45.8689061" lon="11.4912525"><ele>1011.0</ele><time>2026-04-26T13:42:42.394Z</time></trkpt><trkpt lat="45.8688515" lon="11.4913682"><ele>1009.8</ele><time>2026-04-26T13:42:43.394Z</time></trkpt><trkpt lat="45.8687938" lon="11.4914839"><ele>1008.5999999999999</ele><time>2026-04-26T13:42:44.395Z</time></trkpt><trkpt lat="45.868734" lon="11.4915995"><ele>1007.4</ele><time>2026-04-26T13:42:45.393Z</time></trkpt><trkpt lat="45.8686755" lon="11.4917143"><ele>1006.2</ele><time>2026-04-26T13:42:46.394Z</time></trkpt><trkpt lat="45.8686193" lon="11.491828"><ele>1005.0</ele><time>2026-04-26T13:42:47.393Z</time></trkpt><trkpt lat="45.8685649" lon="11.4919406"><ele>1005.0</ele><time>2026-04-26T13:42:48.395Z</time></trkpt><trkpt lat="45.8685112" lon="11.4920493"><ele>1005.0</ele><time>2026-04-26T13:42:49.395Z</time></trkpt><trkpt lat="45.8684587" lon="11.4921525"><ele>1005.0</ele><time>2026-04-26T13:42:50.394Z</time></trkpt><trkpt lat="45.8684075" lon="11.4922546"><ele>1005.0</ele><time>2026-04-26T13:42:51.396Z</time></trkpt><trkpt lat="45.8683587" lon="11.4923564"><ele>1005.0</ele><time>2026-04-26T13:42:52.395Z</time></trkpt><trkpt lat="45.8683116" lon="11.4924596"><ele>1005.0</ele><time>2026-04-26T13:42:53.396Z</time></trkpt><trkpt lat="45.8682373" lon="11.492671"><ele>1005.5</ele><time>2026-04-26T13:42:55.394Z</time></trkpt><trkpt lat="45.8682127" lon="11.4927789"><ele>1006.0</ele><time>2026-04-26T13:42:56.397Z</time></trkpt><trkpt lat="45.8681907" lon="11.4928894"><ele>1006.5</ele><time>2026-04-26T13:42:57.395Z</time></trkpt><trkpt lat="45.8681703" lon="11.4930049"><ele>1007.0</ele><time>2026-04-26T13:42:58.396Z</time></trkpt><trkpt lat="45.8681528" lon="11.493122"><ele>1007.5</ele><time>2026-04-26T13:42:59.395Z</time></trkpt><trkpt lat="45.8681372" lon="11.4932392"><ele>1008.0</ele><time>2026-04-26T13:43:00.395Z</time></trkpt><trkpt lat="45.8681258" lon="11.4933562"><ele>1007.0</ele><time>2026-04-26T13:43:01.395Z</time></trkpt><trkpt lat="45.8681185" lon="11.4934726"><ele>1006.0</ele><time>2026-04-26T13:43:02.395Z</time></trkpt><trkpt lat="45.868116" lon="11.4935858"><ele>1005.0</ele><time>2026-04-26T13:43:03.397Z</time></trkpt><trkpt lat="45.86812" lon="11.4936955"><ele>1004.0</ele><time>2026-04-26T13:43:04.397Z</time></trkpt><trkpt lat="45.8681282" lon="11.4938052"><ele>1003.0</ele><time>2026-04-26T13:43:05.397Z</time></trkpt><trkpt lat="45.8681412" lon="11.4939143"><ele>1002.0</ele><time>2026-04-26T13:43:06.398Z</time></trkpt><trkpt lat="45.8681577" lon="11.4940219"><ele>1001.0</ele><time>2026-04-26T13:43:07.397Z</time></trkpt><trkpt lat="45.8681796" lon="11.4941279"><ele>1000.0</ele><time>2026-04-26T13:43:08.394Z</time></trkpt><trkpt lat="45.8682068" lon="11.4942362"><ele>999.0</ele><time>2026-04-26T13:43:09.392Z</time></trkpt><trkpt lat="45.8682381" lon="11.4943546"><ele>998.0</ele><time>2026-04-26T13:43:10.392Z</time></trkpt><trkpt lat="45.8683087" lon="11.4946234"><ele>997.0</ele><time>2026-04-26T13:43:12.395Z</time></trkpt><trkpt lat="45.8683514" lon="11.4947606"><ele>995.0</ele><time>2026-04-26T13:43:13.395Z</time></trkpt><trkpt lat="45.8683967" lon="11.4948935"><ele>993.0</ele><time>2026-04-26T13:43:14.398Z</time></trkpt><trkpt lat="45.8684859" lon="11.4951551"><ele>991.0</ele><time>2026-04-26T13:43:16.397Z</time></trkpt><trkpt lat="45.8685293" lon="11.495284"><ele>989.0</ele><time>2026-04-26T13:43:17.397Z</time></trkpt><trkpt lat="45.8685701" lon="11.4954124"><ele>988.4000000000001</ele><time>2026-04-26T13:43:18.394Z</time></trkpt><trkpt lat="45.8686114" lon="11.4955397"><ele>987.8000000000001</ele><time>2026-04-26T13:43:19.395Z</time></trkpt><trkpt lat="45.8686547" lon="11.4956661"><ele>987.1999999999999</ele><time>2026-04-26T13:43:20.395Z</time></trkpt><trkpt lat="45.8687016" lon="11.4957931"><ele>986.5999999999999</ele><time>2026-04-26T13:43:21.395Z</time></trkpt><trkpt lat="45.8687504" lon="11.4959232"><ele>986.0</ele><time>2026-04-26T13:43:22.395Z</time></trkpt><trkpt lat="45.8688003" lon="11.4960555"><ele>986.0</ele><time>2026-04-26T13:43:23.395Z</time></trkpt><trkpt lat="45.8688532" lon="11.496189"><ele>985.9999999999999</ele><time>2026-04-26T13:43:24.399Z</time></trkpt><trkpt lat="45.8689116" lon="11.4963212"><ele>985.9999999999999</ele><time>2026-04-26T13:43:25.397Z</time></trkpt><trkpt lat="45.8689745" lon="11.4964517"><ele>986.0</ele><time>2026-04-26T13:43:26.397Z</time></trkpt><trkpt lat="45.8690421" lon="11.4965796"><ele>986.0</ele><time>2026-04-26T13:43:27.395Z</time></trkpt><trkpt lat="45.8691134" lon="11.4967044"><ele>985.25</ele><time>2026-04-26T13:43:28.396Z</time></trkpt><trkpt lat="45.8691857" lon="11.4968302"><ele>984.5</ele><time>2026-04-26T13:43:29.394Z</time></trkpt><trkpt lat="45.8692626" lon="11.4969609"><ele>983.75</ele><time>2026-04-26T13:43:30.395Z</time></trkpt><trkpt lat="45.8693474" lon="11.4970987"><ele>983.0</ele><time>2026-04-26T13:43:31.396Z</time></trkpt><trkpt lat="45.8694393" lon="11.4972465"><ele>983.0</ele><time>2026-04-26T13:43:32.392Z</time></trkpt><trkpt lat="45.8695385" lon="11.4974036"><ele>983.0</ele><time>2026-04-26T13:43:33.394Z</time></trkpt><trkpt lat="45.8696441" lon="11.4975684"><ele>983.0</ele><time>2026-04-26T13:43:34.392Z</time></trkpt><trkpt lat="45.8697487" lon="11.4977308"><ele>984.0</ele><time>2026-04-26T13:43:35.393Z</time></trkpt><trkpt lat="45.8699333" lon="11.4980224"><ele>985.0</ele><time>2026-04-26T13:43:37.396Z</time></trkpt><trkpt lat="45.8700166" lon="11.4981557"><ele>986.0</ele><time>2026-04-26T13:43:38.395Z</time></trkpt><trkpt lat="45.870098" lon="11.4982883"><ele>987.0</ele><time>2026-04-26T13:43:39.396Z</time></trkpt><trkpt lat="45.8701826" lon="11.498423"><ele>988.0</ele><time>2026-04-26T13:43:40.395Z</time></trkpt><trkpt lat="45.8702712" lon="11.4985625"><ele>989.0</ele><time>2026-04-26T13:43:41.395Z</time></trkpt><trkpt lat="45.8703642" lon="11.4987092"><ele>990.0</ele><time>2026-04-26T13:43:42.393Z</time></trkpt><trkpt lat="45.8704608" lon="11.4988627"><ele>990.0</ele><time>2026-04-26T13:43:43.394Z</time></trkpt><trkpt lat="45.8705569" lon="11.4990182"><ele>990.0</ele><time>2026-04-26T13:43:44.393Z</time></trkpt><trkpt lat="45.8706487" lon="11.4991648"><ele>990.0</ele><time>2026-04-26T13:43:45.393Z</time></trkpt><trkpt lat="45.8707347" lon="11.4993016"><ele>990.0</ele><time>2026-04-26T13:43:46.396Z</time></trkpt><trkpt lat="45.8708143" lon="11.4994273"><ele>990.0</ele><time>2026-04-26T13:43:47.395Z</time></trkpt><trkpt lat="45.8708863" lon="11.499543"><ele>990.0</ele><time>2026-04-26T13:43:48.396Z</time></trkpt><trkpt lat="45.8709515" lon="11.4996487"><ele>990.0</ele><time>2026-04-26T13:43:49.395Z</time></trkpt><trkpt lat="45.8710144" lon="11.4997524"><ele>990.0</ele><time>2026-04-26T13:43:50.395Z</time></trkpt><trkpt lat="45.8710673" lon="11.4998392"><ele>990.0</ele><time>2026-04-26T13:43:51.196Z</time></trkpt><trkpt lat="45.8711526" lon="11.4999767"><ele>991.5</ele><time>2026-04-26T13:43:52.395Z</time></trkpt><trkpt lat="45.8712291" lon="11.5000987"><ele>993.0</ele><time>2026-04-26T13:43:53.395Z</time></trkpt><trkpt lat="45.8713113" lon="11.500227"><ele>994.5</ele><time>2026-04-26T13:43:54.394Z</time></trkpt><trkpt lat="45.871397" lon="11.5003582"><ele>996.0</ele><time>2026-04-26T13:43:55.395Z</time></trkpt><trkpt lat="45.8714812" lon="11.5004863"><ele>996.3333333333333</ele><time>2026-04-26T13:43:56.393Z</time></trkpt><trkpt lat="45.8716447" lon="11.5007317"><ele>996.6666666666666</ele><time>2026-04-26T13:43:58.392Z</time></trkpt><trkpt lat="45.8717278" lon="11.5008549"><ele>997.0</ele><time>2026-04-26T13:43:59.394Z</time></trkpt><trkpt lat="45.8718123" lon="11.5009784"><ele>999.0</ele><time>2026-04-26T13:44:00.393Z</time></trkpt><trkpt lat="45.8718977" lon="11.5011033"><ele>1001.0</ele><time>2026-04-26T13:44:01.392Z</time></trkpt><trkpt lat="45.8719841" lon="11.5012292"><ele>1003.0</ele><time>2026-04-26T13:44:02.394Z</time></trkpt><trkpt lat="45.8720683" lon="11.5013548"><ele>1005.0</ele><time>2026-04-26T13:44:03.394Z</time></trkpt><trkpt lat="45.8721454" lon="11.5014781"><ele>1005.0</ele><time>2026-04-26T13:44:04.391Z</time></trkpt><trkpt lat="45.8722155" lon="11.5015993"><ele>1005.0</ele><time>2026-04-26T13:44:05.395Z</time></trkpt><trkpt lat="45.8722808" lon="11.5017212"><ele>1005.0</ele><time>2026-04-26T13:44:06.392Z</time></trkpt><trkpt lat="45.8723425" lon="11.501851"><ele>1005.0</ele><time>2026-04-26T13:44:07.393Z</time></trkpt><trkpt lat="45.8723989" lon="11.5019879"><ele>1005.0</ele><time>2026-04-26T13:44:08.392Z</time></trkpt><trkpt lat="45.8724533" lon="11.502124"><ele>1005.2</ele><time>2026-04-26T13:44:09.394Z</time></trkpt><trkpt lat="45.8725033" lon="11.5022577"><ele>1005.4</ele><time>2026-04-26T13:44:10.395Z</time></trkpt><trkpt lat="45.8725512" lon="11.5023867"><ele>1005.5999999999999</ele><time>2026-04-26T13:44:11.395Z</time></trkpt><trkpt lat="45.8725989" lon="11.5025121"><ele>1005.8</ele><time>2026-04-26T13:44:12.395Z</time></trkpt><trkpt lat="45.8726457" lon="11.5026351"><ele>1006.0</ele><time>2026-04-26T13:44:13.394Z</time></trkpt><trkpt lat="45.8726925" lon="11.502757"><ele>1007.5</ele><time>2026-04-26T13:44:14.392Z</time></trkpt><trkpt lat="45.8727405" lon="11.5028793"><ele>1009.0</ele><time>2026-04-26T13:44:15.392Z</time></trkpt><trkpt lat="45.8727884" lon="11.5030028"><ele>1010.5</ele><time>2026-04-26T13:44:16.395Z</time></trkpt><trkpt lat="45.872837" lon="11.5031271"><ele>1012.0</ele><time>2026-04-26T13:44:17.396Z</time></trkpt><trkpt lat="45.8729356" lon="11.5033869"><ele>1012.0</ele><time>2026-04-26T13:44:19.396Z</time></trkpt><trkpt lat="45.8729827" lon="11.5035279"><ele>1012.0</ele><time>2026-04-26T13:44:20.396Z</time></trkpt><trkpt lat="45.8730289" lon="11.5036755"><ele>1012.0</ele><time>2026-04-26T13:44:21.395Z</time></trkpt><trkpt lat="45.873073" lon="11.5038153"><ele>1012.0</ele><time>2026-04-26T13:44:22.393Z</time></trkpt><trkpt lat="45.8731153" lon="11.503945"><ele>1012.0</ele><time>2026-04-26T13:44:23.393Z</time></trkpt><trkpt lat="45.8731567" lon="11.5040759"><ele>1011.8</ele><time>2026-04-26T13:44:24.393Z</time></trkpt><trkpt lat="45.8731991" lon="11.5042153"><ele>1011.6</ele><time>2026-04-26T13:44:25.391Z</time></trkpt><trkpt lat="45.8732409" lon="11.5043612"><ele>1011.3999999999999</ele><time>2026-04-26T13:44:26.393Z</time></trkpt><trkpt lat="45.8732823" lon="11.5045008"><ele>1011.1999999999999</ele><time>2026-04-26T13:44:27.393Z</time></trkpt><trkpt lat="45.8733215" lon="11.5046359"><ele>1011.0</ele><time>2026-04-26T13:44:28.396Z</time></trkpt><trkpt lat="45.8733582" lon="11.5047646"><ele>1011.0</ele><time>2026-04-26T13:44:29.394Z</time></trkpt><trkpt lat="45.8733936" lon="11.5048844"><ele>1011.0</ele><time>2026-04-26T13:44:30.395Z</time></trkpt><trkpt lat="45.8734252" lon="11.5049969"><ele>1011.0</ele><time>2026-04-26T13:44:31.394Z</time></trkpt><trkpt lat="45.8734502" lon="11.5051037"><ele>1011.0</ele><time>2026-04-26T13:44:32.394Z</time></trkpt><trkpt lat="45.8734648" lon="11.505205"><ele>1011.0</ele><time>2026-04-26T13:44:33.392Z</time></trkpt><trkpt lat="45.8734668" lon="11.5053052"><ele>1011.0</ele><time>2026-04-26T13:44:34.393Z</time></trkpt><trkpt lat="45.8734583" lon="11.505409"><ele>1011.8</ele><time>2026-04-26T13:44:35.391Z</time></trkpt><trkpt lat="45.8734424" lon="11.5055143"><ele>1012.5999999999999</ele><time>2026-04-26T13:44:36.393Z</time></trkpt><trkpt lat="45.8734246" lon="11.5056122"><ele>1013.4</ele><time>2026-04-26T13:44:37.392Z</time></trkpt><trkpt lat="45.8734071" lon="11.5057"><ele>1014.2</ele><time>2026-04-26T13:44:38.392Z</time></trkpt><trkpt lat="45.8733369" lon="11.5059852"><ele>1015.0</ele><time>2026-04-26T13:44:41.389Z</time></trkpt><trkpt lat="45.8733069" lon="11.5060879"><ele>1013.0</ele><time>2026-04-26T13:44:42.393Z</time></trkpt><trkpt lat="45.8732786" lon="11.5061722"><ele>1011.0</ele><time>2026-04-26T13:44:43.391Z</time></trkpt><trkpt lat="45.8732409" lon="11.5062603"><ele>1009.0</ele><time>2026-04-26T13:44:46.392Z</time></trkpt><trkpt lat="45.8731865" lon="11.5063341"><ele>1007.0</ele><time>2026-04-26T13:44:56.39Z</time></trkpt><trkpt lat="45.8731358" lon="11.5064212"><ele>1005.0</ele><time>2026-04-26T13:45:00.392Z</time></trkpt><trkpt lat="45.8729912" lon="11.5065787"><ele>1005.1666666666666</ele><time>2026-04-26T13:45:06.395Z</time></trkpt><trkpt lat="45.8729195" lon="11.5066531"><ele>1005.3333333333333</ele><time>2026-04-26T13:45:09.394Z</time></trkpt><trkpt lat="45.8728625" lon="11.5067145"><ele>1005.5</ele><time>2026-04-26T13:45:12.39Z</time></trkpt><trkpt lat="45.8728061" lon="11.5067651"><ele>1005.6666666666666</ele><time>2026-04-26T13:45:16.391Z</time></trkpt><trkpt lat="45.8727293" lon="11.5068396"><ele>1005.8333333333333</ele><time>2026-04-26T13:45:19.393Z</time></trkpt><trkpt lat="45.8726763" lon="11.5068933"><ele>1006.0</ele><time>2026-04-26T13:45:21.393Z</time></trkpt><trkpt lat="45.8725764" lon="11.5070265"><ele>1005.1999999999999</ele><time>2026-04-26T13:45:26.389Z</time></trkpt><trkpt lat="45.8725416" lon="11.5071354"><ele>1004.3999999999999</ele><time>2026-04-26T13:45:29.392Z</time></trkpt><trkpt lat="45.8725237" lon="11.507247"><ele>1003.6</ele><time>2026-04-26T13:45:32.391Z</time></trkpt><trkpt lat="45.8725279" lon="11.5073557"><ele>1002.8</ele><time>2026-04-26T13:46:03.39Z</time></trkpt><trkpt lat="45.8725098" lon="11.5076094"><ele>1002.0</ele><time>2026-04-26T13:46:06.393Z</time></trkpt><trkpt lat="45.8724897" lon="11.5077517"><ele>1001.5</ele><time>2026-04-26T13:46:07.392Z</time></trkpt><trkpt lat="45.8724569" lon="11.5079137"><ele>1001.0</ele><time>2026-04-26T13:46:08.394Z</time></trkpt><trkpt lat="45.8724256" lon="11.5080778"><ele>1000.5</ele><time>2026-04-26T13:46:09.393Z</time></trkpt><trkpt lat="45.8724021" lon="11.5082371"><ele>1000.0</ele><time>2026-04-26T13:46:10.394Z</time></trkpt><trkpt lat="45.8723815" lon="11.5083918"><ele>1000.0</ele><time>2026-04-26T13:46:11.392Z</time></trkpt><trkpt lat="45.8723594" lon="11.5085419"><ele>1000.0</ele><time>2026-04-26T13:46:12.395Z</time></trkpt><trkpt lat="45.872337" lon="11.5086871"><ele>1000.0</ele><time>2026-04-26T13:46:13.394Z</time></trkpt><trkpt lat="45.8723152" lon="11.5088288"><ele>1000.0</ele><time>2026-04-26T13:46:14.391Z</time></trkpt><trkpt lat="45.8722954" lon="11.5089664"><ele>1000.0</ele><time>2026-04-26T13:46:15.389Z</time></trkpt><trkpt lat="45.8722768" lon="11.5091051"><ele>999.2</ele><time>2026-04-26T13:46:16.394Z</time></trkpt><trkpt lat="45.8722554" lon="11.5092514"><ele>998.4</ele><time>2026-04-26T13:46:17.393Z</time></trkpt><trkpt lat="45.8722334" lon="11.5093924"><ele>997.5999999999999</ele><time>2026-04-26T13:46:18.393Z</time></trkpt><trkpt lat="45.8722179" lon="11.5095288"><ele>996.8</ele><time>2026-04-26T13:46:19.391Z</time></trkpt><trkpt lat="45.8722033" lon="11.5096566"><ele>996.0</ele><time>2026-04-26T13:46:20.391Z</time></trkpt><trkpt lat="45.8721863" lon="11.5097706"><ele>996.0</ele><time>2026-04-26T13:46:21.393Z</time></trkpt><trkpt lat="45.8721638" lon="11.5098716"><ele>995.9999999999999</ele><time>2026-04-26T13:46:22.393Z</time></trkpt><trkpt lat="45.8721245" lon="11.5099503"><ele>995.9999999999999</ele><time>2026-04-26T13:46:23.39Z</time></trkpt><trkpt lat="45.8720812" lon="11.5100209"><ele>996.0</ele><time>2026-04-26T13:46:24.391Z</time></trkpt><trkpt lat="45.8719795" lon="11.5101367"><ele>996.0</ele><time>2026-04-26T13:46:26.39Z</time></trkpt><trkpt lat="45.8718659" lon="11.510197"><ele>996.0</ele><time>2026-04-26T13:46:28.392Z</time></trkpt><trkpt lat="45.8717674" lon="11.5102506"><ele>995.9999999999999</ele><time>2026-04-26T13:46:30.394Z</time></trkpt><trkpt lat="45.8716731" lon="11.5103193"><ele>995.9999999999999</ele><time>2026-04-26T13:46:32.394Z</time></trkpt><trkpt lat="45.8715725" lon="11.5103797"><ele>996.0</ele><time>2026-04-26T13:46:34.393Z</time></trkpt><trkpt lat="45.8714862" lon="11.5104423"><ele>996.0</ele><time>2026-04-26T13:46:36.394Z</time></trkpt><trkpt lat="45.8713952" lon="11.5105114"><ele>996.0</ele><time>2026-04-26T13:46:38.393Z</time></trkpt><trkpt lat="45.8713108" lon="11.5106315"><ele>996.0</ele><time>2026-04-26T13:46:40.394Z</time></trkpt><trkpt lat="45.871299" lon="11.5107296"><ele>996.0</ele><time>2026-04-26T13:46:41.391Z</time></trkpt><trkpt lat="45.8713084" lon="11.5108446"><ele>996.0</ele><time>2026-04-26T13:46:42.392Z</time></trkpt><trkpt lat="45.8713347" lon="11.5109608"><ele>996.0</ele><time>2026-04-26T13:46:43.39Z</time></trkpt><trkpt lat="45.8713623" lon="11.511073"><ele>996.0</ele><time>2026-04-26T13:46:44.391Z</time></trkpt><trkpt lat="45.8713867" lon="11.5111904"><ele>996.1999999999999</ele><time>2026-04-26T13:46:45.391Z</time></trkpt><trkpt lat="45.8714321" lon="11.511403"><ele>996.3999999999999</ele><time>2026-04-26T13:46:47.392Z</time></trkpt><trkpt lat="45.871448" lon="11.5114911"><ele>996.6</ele><time>2026-04-26T13:46:48.394Z</time></trkpt><trkpt lat="45.8714833" lon="11.5116532"><ele>996.8</ele><time>2026-04-26T13:46:50.393Z</time></trkpt><trkpt lat="45.871552" lon="11.5117509"><ele>997.0</ele><time>2026-04-26T13:46:52.391Z</time></trkpt><trkpt lat="45.8716807" lon="11.5117413"><ele>996.9999999999999</ele><time>2026-04-26T13:46:54.394Z</time></trkpt><trkpt lat="45.8717491" lon="11.5117056"><ele>997.0</ele><time>2026-04-26T13:46:55.393Z</time></trkpt><trkpt lat="45.8718183" lon="11.5116744"><ele>997.0</ele><time>2026-04-26T13:46:56.394Z</time></trkpt><trkpt lat="45.871889" lon="11.5116506"><ele>997.0</ele><time>2026-04-26T13:46:57.394Z</time></trkpt><trkpt lat="45.87196" lon="11.5116288"><ele>996.9999999999999</ele><time>2026-04-26T13:46:58.393Z</time></trkpt><trkpt lat="45.8720371" lon="11.511609"><ele>997.0</ele><time>2026-04-26T13:46:59.392Z</time></trkpt><trkpt lat="45.8721178" lon="11.5115903"><ele>996.9999999999999</ele><time>2026-04-26T13:47:00.395Z</time></trkpt><trkpt lat="45.8721987" lon="11.5115692"><ele>997.0</ele><time>2026-04-26T13:47:01.395Z</time></trkpt><trkpt lat="45.8722713" lon="11.5115452"><ele>997.0</ele><time>2026-04-26T13:47:02.392Z</time></trkpt><trkpt lat="45.8723432" lon="11.5115258"><ele>997.0</ele><time>2026-04-26T13:47:03.394Z</time></trkpt><trkpt lat="45.8724142" lon="11.5115106"><ele>996.9999999999999</ele><time>2026-04-26T13:47:04.393Z</time></trkpt><trkpt lat="45.87249" lon="11.5114915"><ele>997.0</ele><time>2026-04-26T13:47:05.391Z</time></trkpt><trkpt lat="45.8725717" lon="11.5114703"><ele>997.4000000000001</ele><time>2026-04-26T13:47:06.394Z</time></trkpt><trkpt lat="45.8727219" lon="11.5114387"><ele>997.8000000000001</ele><time>2026-04-26T13:47:08.395Z</time></trkpt><trkpt lat="45.8727919" lon="11.5114188"><ele>998.2</ele><time>2026-04-26T13:47:09.394Z</time></trkpt><trkpt lat="45.8728593" lon="11.5114001"><ele>998.6</ele><time>2026-04-26T13:47:10.393Z</time></trkpt><trkpt lat="45.8729773" lon="11.5113769"><ele>999.0</ele><time>2026-04-26T13:47:12.393Z</time></trkpt><trkpt lat="45.8730816" lon="11.5113493"><ele>999.0</ele><time>2026-04-26T13:47:14.391Z</time></trkpt><trkpt lat="45.8732125" lon="11.5113175"><ele>999.0000000000001</ele><time>2026-04-26T13:47:16.391Z</time></trkpt><trkpt lat="45.8732902" lon="11.5113031"><ele>999.0000000000001</ele><time>2026-04-26T13:47:17.393Z</time></trkpt><trkpt lat="45.8733738" lon="11.5112826"><ele>999.0</ele><time>2026-04-26T13:47:18.394Z</time></trkpt><trkpt lat="45.8734625" lon="11.5112577"><ele>999.0</ele><time>2026-04-26T13:47:19.395Z</time></trkpt><trkpt lat="45.8735562" lon="11.5112306"><ele>999.4000000000001</ele><time>2026-04-26T13:47:20.392Z</time></trkpt><trkpt lat="45.8736586" lon="11.5112034"><ele>999.8000000000001</ele><time>2026-04-26T13:47:21.394Z</time></trkpt><trkpt lat="45.8737708" lon="11.5111759"><ele>1000.1999999999999</ele><time>2026-04-26T13:47:22.394Z</time></trkpt><trkpt lat="45.8738859" lon="11.5111501"><ele>1000.5999999999999</ele><time>2026-04-26T13:47:23.395Z</time></trkpt><trkpt lat="45.8739888" lon="11.5111261"><ele>1001.0</ele><time>2026-04-26T13:47:24.392Z</time></trkpt><trkpt lat="45.8740813" lon="11.5111022"><ele>1001.0</ele><time>2026-04-26T13:47:25.396Z</time></trkpt><trkpt lat="45.8741602" lon="11.5110801"><ele>1001.0</ele><time>2026-04-26T13:47:26.396Z</time></trkpt><trkpt lat="45.8742266" lon="11.5110563"><ele>1001.0</ele><time>2026-04-26T13:47:27.395Z</time></trkpt><trkpt lat="45.8745031" lon="11.5109819"><ele>1001.0</ele><time>2026-04-26T13:47:30.396Z</time></trkpt><trkpt lat="45.87462" lon="11.5109528"><ele>1001.5</ele><time>2026-04-26T13:47:31.396Z</time></trkpt><trkpt lat="45.8747265" lon="11.5109215"><ele>1002.0</ele><time>2026-04-26T13:47:32.393Z</time></trkpt><trkpt lat="45.8748352" lon="11.5108939"><ele>1002.5</ele><time>2026-04-26T13:47:33.395Z</time></trkpt><trkpt lat="45.8749477" lon="11.5108602"><ele>1003.0</ele><time>2026-04-26T13:47:34.393Z</time></trkpt><trkpt lat="45.8750638" lon="11.5108251"><ele>1002.8333333333333</ele><time>2026-04-26T13:47:35.391Z</time></trkpt><trkpt lat="45.8751669" lon="11.5107963"><ele>1002.6666666666666</ele><time>2026-04-26T13:47:36.394Z</time></trkpt><trkpt lat="45.8752614" lon="11.5107729"><ele>1002.5</ele><time>2026-04-26T13:47:37.392Z</time></trkpt><trkpt lat="45.8753442" lon="11.5107497"><ele>1002.3333333333333</ele><time>2026-04-26T13:47:38.391Z</time></trkpt><trkpt lat="45.8754194" lon="11.5107304"><ele>1002.1666666666666</ele><time>2026-04-26T13:47:39.392Z</time></trkpt><trkpt lat="45.8754947" lon="11.5107176"><ele>1002.0</ele><time>2026-04-26T13:47:40.391Z</time></trkpt><trkpt lat="45.8755781" lon="11.5107191"><ele>1002.0</ele><time>2026-04-26T13:47:41.389Z</time></trkpt><trkpt lat="45.8756506" lon="11.5107365"><ele>1002.0</ele><time>2026-04-26T13:47:42.391Z</time></trkpt><trkpt lat="45.8757149" lon="11.5107647"><ele>1002.0</ele><time>2026-04-26T13:47:43.393Z</time></trkpt><trkpt lat="45.8757775" lon="11.5108029"><ele>1002.0</ele><time>2026-04-26T13:47:44.393Z</time></trkpt><trkpt lat="45.875839" lon="11.5108493"><ele>1002.0</ele><time>2026-04-26T13:47:45.391Z</time></trkpt><trkpt lat="45.8759444" lon="11.5109482"><ele>1002.0</ele><time>2026-04-26T13:47:47.392Z</time></trkpt><trkpt lat="45.876005" lon="11.5110108"><ele>1002.75</ele><time>2026-04-26T13:47:48.391Z</time></trkpt><trkpt lat="45.8761508" lon="11.5111725"><ele>1003.5</ele><time>2026-04-26T13:47:50.392Z</time></trkpt><trkpt lat="45.8762284" lon="11.5112565"><ele>1004.25</ele><time>2026-04-26T13:47:51.393Z</time></trkpt><trkpt lat="45.8762853" lon="11.5113223"><ele>1005.0</ele><time>2026-04-26T13:47:52.192Z</time></trkpt><trkpt lat="45.876377" lon="11.5114146"><ele>1005.2</ele><time>2026-04-26T13:47:53.394Z</time></trkpt><trkpt lat="45.8764627" lon="11.5115072"><ele>1005.4</ele><time>2026-04-26T13:47:54.393Z</time></trkpt><trkpt lat="45.8765482" lon="11.5116096"><ele>1005.5999999999999</ele><time>2026-04-26T13:47:55.394Z</time></trkpt><trkpt lat="45.8766263" lon="11.5117038"><ele>1005.8</ele><time>2026-04-26T13:47:56.392Z</time></trkpt><trkpt lat="45.8767026" lon="11.5117916"><ele>1006.0</ele><time>2026-04-26T13:47:57.396Z</time></trkpt><trkpt lat="45.8767772" lon="11.5118781"><ele>1006.1999999999999</ele><time>2026-04-26T13:47:58.393Z</time></trkpt><trkpt lat="45.8768535" lon="11.5119689"><ele>1006.3999999999999</ele><time>2026-04-26T13:47:59.394Z</time></trkpt><trkpt lat="45.8769364" lon="11.5120637"><ele>1006.6</ele><time>2026-04-26T13:48:00.394Z</time></trkpt><trkpt lat="45.8770271" lon="11.5121697"><ele>1006.8</ele><time>2026-04-26T13:48:01.395Z</time></trkpt><trkpt lat="45.8771118" lon="11.5122723"><ele>1007.0</ele><time>2026-04-26T13:48:02.395Z</time></trkpt><trkpt lat="45.8771854" lon="11.5123662"><ele>1006.6666666666667</ele><time>2026-04-26T13:48:03.391Z</time></trkpt><trkpt lat="45.8772538" lon="11.5124577"><ele>1006.3333333333334</ele><time>2026-04-26T13:48:04.392Z</time></trkpt><trkpt lat="45.877319" lon="11.5125375"><ele>1006.0</ele><time>2026-04-26T13:48:05.391Z</time></trkpt><trkpt lat="45.8773739" lon="11.5126142"><ele>1005.6666666666667</ele><time>2026-04-26T13:48:06.393Z</time></trkpt><trkpt lat="45.8774209" lon="11.512697"><ele>1005.3333333333334</ele><time>2026-04-26T13:48:07.394Z</time></trkpt><trkpt lat="45.8774618" lon="11.5127957"><ele>1005.0</ele><time>2026-04-26T13:48:08.394Z</time></trkpt><trkpt lat="45.8775061" lon="11.512905"><ele>1005.5</ele><time>2026-04-26T13:48:09.392Z</time></trkpt><trkpt lat="45.877628" lon="11.5131092"><ele>1006.0</ele><time>2026-04-26T13:48:11.393Z</time></trkpt><trkpt lat="45.877683" lon="11.5132047"><ele>1006.5</ele><time>2026-04-26T13:48:12.394Z</time></trkpt><trkpt lat="45.877734" lon="11.5133074"><ele>1007.0</ele><time>2026-04-26T13:48:13.393Z</time></trkpt><trkpt lat="45.8777855" lon="11.5134205"><ele>1007.0</ele><time>2026-04-26T13:48:14.393Z</time></trkpt><trkpt lat="45.8778377" lon="11.5135423"><ele>1007.0</ele><time>2026-04-26T13:48:15.392Z</time></trkpt><trkpt lat="45.8778894" lon="11.5136732"><ele>1007.0</ele><time>2026-04-26T13:48:16.394Z</time></trkpt><trkpt lat="45.8779449" lon="11.513812"><ele>1007.0</ele><time>2026-04-26T13:48:17.391Z</time></trkpt><trkpt lat="45.8780051" lon="11.513955"><ele>1007.0</ele><time>2026-04-26T13:48:18.392Z</time></trkpt><trkpt lat="45.8780637" lon="11.5140908"><ele>1007.25</ele><time>2026-04-26T13:48:19.394Z</time></trkpt><trkpt lat="45.8781202" lon="11.5142244"><ele>1007.5</ele><time>2026-04-26T13:48:20.394Z</time></trkpt><trkpt lat="45.8781805" lon="11.5143641"><ele>1007.75</ele><time>2026-04-26T13:48:21.394Z</time></trkpt><trkpt lat="45.8782444" lon="11.5145109"><ele>1008.0</ele><time>2026-04-26T13:48:22.393Z</time></trkpt><trkpt lat="45.8783048" lon="11.5146629"><ele>1008.0</ele><time>2026-04-26T13:48:23.394Z</time></trkpt><trkpt lat="45.8783662" lon="11.5148145"><ele>1008.0</ele><time>2026-04-26T13:48:24.396Z</time></trkpt><trkpt lat="45.8784329" lon="11.5149709"><ele>1008.0</ele><time>2026-04-26T13:48:25.395Z</time></trkpt><trkpt lat="45.8785037" lon="11.5151299"><ele>1008.0</ele><time>2026-04-26T13:48:26.393Z</time></trkpt><trkpt lat="45.8785678" lon="11.5152897"><ele>1010.0</ele><time>2026-04-26T13:48:27.391Z</time></trkpt><trkpt lat="45.8786252" lon="11.5154643"><ele>1012.0</ele><time>2026-04-26T13:48:28.392Z</time></trkpt><trkpt lat="45.8786738" lon="11.5156526"><ele>1014.0</ele><time>2026-04-26T13:48:29.389Z</time></trkpt><trkpt lat="45.8787572" lon="11.5159993"><ele>1014.0</ele><time>2026-04-26T13:48:31.394Z</time></trkpt><trkpt lat="45.8787938" lon="11.5161564"><ele>1014.0</ele><time>2026-04-26T13:48:32.393Z</time></trkpt><trkpt lat="45.8788333" lon="11.5163084"><ele>1014.0</ele><time>2026-04-26T13:48:33.393Z</time></trkpt><trkpt lat="45.878873" lon="11.516464"><ele>1014.0</ele><time>2026-04-26T13:48:34.396Z</time></trkpt><trkpt lat="45.8789165" lon="11.5166237"><ele>1013.75</ele><time>2026-04-26T13:48:35.392Z</time></trkpt><trkpt lat="45.8789659" lon="11.5167923"><ele>1013.5</ele><time>2026-04-26T13:48:36.395Z</time></trkpt><trkpt lat="45.8790152" lon="11.5169731"><ele>1013.25</ele><time>2026-04-26T13:48:37.392Z</time></trkpt><trkpt lat="45.8790681" lon="11.5171644"><ele>1013.0</ele><time>2026-04-26T13:48:38.396Z</time></trkpt><trkpt lat="45.8791205" lon="11.5173625"><ele>1013.0</ele><time>2026-04-26T13:48:39.394Z</time></trkpt><trkpt lat="45.8791703" lon="11.5175618"><ele>1013.0</ele><time>2026-04-26T13:48:40.392Z</time></trkpt><trkpt lat="45.8792181" lon="11.5177588"><ele>1013.0</ele><time>2026-04-26T13:48:41.406Z</time></trkpt><trkpt lat="45.8792641" lon="11.5179395"><ele>1013.0</ele><time>2026-04-26T13:48:42.394Z</time></trkpt><trkpt lat="45.8793104" lon="11.5181092"><ele>1013.2</ele><time>2026-04-26T13:48:43.397Z</time></trkpt><trkpt lat="45.879352" lon="11.5182682"><ele>1013.4</ele><time>2026-04-26T13:48:44.395Z</time></trkpt><trkpt lat="45.8793884" lon="11.5184176"><ele>1013.6000000000001</ele><time>2026-04-26T13:48:45.396Z</time></trkpt><trkpt lat="45.8794226" lon="11.5185538"><ele>1013.8000000000001</ele><time>2026-04-26T13:48:46.394Z</time></trkpt><trkpt lat="45.8794527" lon="11.5186723"><ele>1014.0</ele><time>2026-04-26T13:48:47.393Z</time></trkpt><trkpt lat="45.8794809" lon="11.5187681"><ele>1014.0</ele><time>2026-04-26T13:48:48.394Z</time></trkpt><trkpt lat="45.8795744" lon="11.518879"><ele>1014.0</ele><time>2026-04-26T13:48:50.394Z</time></trkpt><trkpt lat="45.8797497" lon="11.5188988"><ele>1014.0</ele><time>2026-04-26T13:48:52.393Z</time></trkpt><trkpt lat="45.8798696" lon="11.5189146"><ele>1014.0</ele><time>2026-04-26T13:48:53.394Z</time></trkpt><trkpt lat="45.8800116" lon="11.5189365"><ele>1015.0</ele><time>2026-04-26T13:48:54.391Z</time></trkpt><trkpt lat="45.8801728" lon="11.5189619"><ele>1016.0</ele><time>2026-04-26T13:48:55.394Z</time></trkpt><trkpt lat="45.8803485" lon="11.5189877"><ele>1017.0</ele><time>2026-04-26T13:48:56.395Z</time></trkpt><trkpt lat="45.8805227" lon="11.5190157"><ele>1017.0</ele><time>2026-04-26T13:48:57.395Z</time></trkpt><trkpt lat="45.8806847" lon="11.5190429"><ele>1017.0</ele><time>2026-04-26T13:48:58.395Z</time></trkpt><trkpt lat="45.8808409" lon="11.5190677"><ele>1017.0</ele><time>2026-04-26T13:48:59.396Z</time></trkpt><trkpt lat="45.8810032" lon="11.5190889"><ele>1017.3333333333333</ele><time>2026-04-26T13:49:00.395Z</time></trkpt><trkpt lat="45.8811734" lon="11.51911"><ele>1017.6666666666666</ele><time>2026-04-26T13:49:01.394Z</time></trkpt><trkpt lat="45.8813435" lon="11.5191319"><ele>1018.0</ele><time>2026-04-26T13:49:02.396Z</time></trkpt><trkpt lat="45.8815047" lon="11.5191573"><ele>1018.0</ele><time>2026-04-26T13:49:03.397Z</time></trkpt><trkpt lat="45.8816545" lon="11.5191959"><ele>1018.0</ele><time>2026-04-26T13:49:04.396Z</time></trkpt><trkpt lat="45.8817988" lon="11.5192502"><ele>1018.0</ele><time>2026-04-26T13:49:05.395Z</time></trkpt><trkpt lat="45.8819443" lon="11.5193255"><ele>1019.0</ele><time>2026-04-26T13:49:06.396Z</time></trkpt><trkpt lat="45.8820956" lon="11.5194096"><ele>1020.0</ele><time>2026-04-26T13:49:07.396Z</time></trkpt><trkpt lat="45.8822564" lon="11.519496"><ele>1021.0</ele><time>2026-04-26T13:49:08.394Z</time></trkpt><trkpt lat="45.8824161" lon="11.5195759"><ele>1021.6666666666666</ele><time>2026-04-26T13:49:09.396Z</time></trkpt><trkpt lat="45.8825692" lon="11.5196419"><ele>1022.3333333333333</ele><time>2026-04-26T13:49:10.394Z</time></trkpt><trkpt lat="45.8827133" lon="11.5196928"><ele>1023.0</ele><time>2026-04-26T13:49:11.396Z</time></trkpt><trkpt lat="45.8829875" lon="11.5197544"><ele>1024.0</ele><time>2026-04-26T13:49:13.396Z</time></trkpt><trkpt lat="45.8831274" lon="11.5197603"><ele>1025.0</ele><time>2026-04-26T13:49:14.396Z</time></trkpt><trkpt lat="45.8832721" lon="11.5197392"><ele>1026.0</ele><time>2026-04-26T13:49:15.396Z</time></trkpt><trkpt lat="45.8834156" lon="11.5196908"><ele>1027.0</ele><time>2026-04-26T13:49:16.396Z</time></trkpt><trkpt lat="45.8835488" lon="11.5196365"><ele>1027.0</ele><time>2026-04-26T13:49:17.394Z</time></trkpt><trkpt lat="45.883674" lon="11.5195887"><ele>1027.0</ele><time>2026-04-26T13:49:18.394Z</time></trkpt><trkpt lat="45.8837469" lon="11.5195645"><ele>1027.0</ele><time>2026-04-26T13:49:18.996Z</time></trkpt><trkpt lat="45.8839188" lon="11.5195263"><ele>1027.0</ele><time>2026-04-26T13:49:20.395Z</time></trkpt><trkpt lat="45.8840373" lon="11.5195342"><ele>1027.0</ele><time>2026-04-26T13:49:21.393Z</time></trkpt><trkpt lat="45.8841526" lon="11.5195682"><ele>1027.0</ele><time>2026-04-26T13:49:22.395Z</time></trkpt><trkpt lat="45.8842669" lon="11.5196336"><ele>1027.0</ele><time>2026-04-26T13:49:23.396Z</time></trkpt><trkpt lat="45.8843819" lon="11.5197277"><ele>1027.0</ele><time>2026-04-26T13:49:24.398Z</time></trkpt><trkpt lat="45.8844923" lon="11.5198292"><ele>1027.2</ele><time>2026-04-26T13:49:25.395Z</time></trkpt><trkpt lat="45.8845942" lon="11.5199269"><ele>1027.4</ele><time>2026-04-26T13:49:26.396Z</time></trkpt><trkpt lat="45.8846827" lon="11.5200204"><ele>1027.6</ele><time>2026-04-26T13:49:27.395Z</time></trkpt><trkpt lat="45.8847557" lon="11.5201202"><ele>1027.8</ele><time>2026-04-26T13:49:28.394Z</time></trkpt><trkpt lat="45.8847898" lon="11.5202645"><ele>1028.0</ele><time>2026-04-26T13:49:29.396Z</time></trkpt><trkpt lat="45.8848182" lon="11.5204266"><ele>1028.6666666666667</ele><time>2026-04-26T13:49:30.395Z</time></trkpt><trkpt lat="45.8848503" lon="11.5206091"><ele>1029.3333333333333</ele><time>2026-04-26T13:49:31.395Z</time></trkpt><trkpt lat="45.8848844" lon="11.5208083"><ele>1030.0</ele><time>2026-04-26T13:49:32.394Z</time></trkpt><trkpt lat="45.8849595" lon="11.5212407"><ele>1030.0</ele><time>2026-04-26T13:49:34.396Z</time></trkpt><trkpt lat="45.8849974" lon="11.5214716"><ele>1030.0</ele><time>2026-04-26T13:49:35.395Z</time></trkpt><trkpt lat="45.8850376" lon="11.5217151"><ele>1030.0</ele><time>2026-04-26T13:49:36.396Z</time></trkpt><trkpt lat="45.8850803" lon="11.5219627"><ele>1031.3333333333333</ele><time>2026-04-26T13:49:37.396Z</time></trkpt><trkpt lat="45.8851241" lon="11.5222122"><ele>1032.6666666666667</ele><time>2026-04-26T13:49:38.396Z</time></trkpt><trkpt lat="45.8851649" lon="11.5224568"><ele>1034.0</ele><time>2026-04-26T13:49:39.396Z</time></trkpt><trkpt lat="45.8852025" lon="11.5226858"><ele>1034.0</ele><time>2026-04-26T13:49:40.394Z</time></trkpt><trkpt lat="45.8852224" lon="11.5228134"><ele>1034.0</ele><time>2026-04-26T13:49:40.995Z</time></trkpt><trkpt lat="45.8852634" lon="11.5230676"><ele>1034.0</ele><time>2026-04-26T13:49:42.392Z</time></trkpt><trkpt lat="45.8852902" lon="11.5232068"><ele>1034.0</ele><time>2026-04-26T13:49:43.393Z</time></trkpt><trkpt lat="45.8853297" lon="11.5233056"><ele>1034.2</ele><time>2026-04-26T13:49:44.394Z</time></trkpt><trkpt lat="45.8853953" lon="11.5233593"><ele>1034.4</ele><time>2026-04-26T13:49:45.394Z</time></trkpt><trkpt lat="45.8854975" lon="11.5233636"><ele>1034.6</ele><time>2026-04-26T13:49:46.397Z</time></trkpt><trkpt lat="45.8856214" lon="11.5233367"><ele>1034.8</ele><time>2026-04-26T13:49:47.396Z</time></trkpt><trkpt lat="45.8857622" lon="11.5232969"><ele>1035.0</ele><time>2026-04-26T13:49:48.395Z</time></trkpt><trkpt lat="45.8859071" lon="11.523264"><ele>1036.3333333333333</ele><time>2026-04-26T13:49:49.396Z</time></trkpt><trkpt lat="45.8860549" lon="11.5232333"><ele>1037.6666666666665</ele><time>2026-04-26T13:49:50.396Z</time></trkpt><trkpt lat="45.886212" lon="11.5231992"><ele>1039.0</ele><time>2026-04-26T13:49:51.397Z</time></trkpt><trkpt lat="45.8863729" lon="11.5231613"><ele>1039.0</ele><time>2026-04-26T13:49:52.395Z</time></trkpt><trkpt lat="45.8865319" lon="11.5231247"><ele>1039.0</ele><time>2026-04-26T13:49:53.397Z</time></trkpt><trkpt lat="45.8868208" lon="11.5230583"><ele>1039.5</ele><time>2026-04-26T13:49:55.398Z</time></trkpt><trkpt lat="45.8869513" lon="11.523032"><ele>1040.0</ele><time>2026-04-26T13:49:56.395Z</time></trkpt><trkpt lat="45.8870744" lon="11.5230094"><ele>1040.5</ele><time>2026-04-26T13:49:57.399Z</time></trkpt><trkpt lat="45.8871974" lon="11.5229825"><ele>1041.0</ele><time>2026-04-26T13:49:58.395Z</time></trkpt><trkpt lat="45.8873259" lon="11.5229525"><ele>1041.0</ele><time>2026-04-26T13:49:59.395Z</time></trkpt><trkpt lat="45.8874587" lon="11.5229245"><ele>1041.0</ele><time>2026-04-26T13:50:00.396Z</time></trkpt><trkpt lat="45.8875952" lon="11.5228972"><ele>1041.0</ele><time>2026-04-26T13:50:01.397Z</time></trkpt><trkpt lat="45.8877367" lon="11.5228688"><ele>1041.0</ele><time>2026-04-26T13:50:02.396Z</time></trkpt><trkpt lat="45.8878882" lon="11.522836"><ele>1041.25</ele><time>2026-04-26T13:50:03.396Z</time></trkpt><trkpt lat="45.888041" lon="11.522803"><ele>1041.5</ele><time>2026-04-26T13:50:04.396Z</time></trkpt><trkpt lat="45.8881837" lon="11.5227757"><ele>1041.75</ele><time>2026-04-26T13:50:05.396Z</time></trkpt><trkpt lat="45.8883163" lon="11.5227513"><ele>1042.0</ele><time>2026-04-26T13:50:06.391Z</time></trkpt><trkpt lat="45.8884404" lon="11.5227257"><ele>1042.8</ele><time>2026-04-26T13:50:07.394Z</time></trkpt><trkpt lat="45.8885547" lon="11.5227027"><ele>1043.6</ele><time>2026-04-26T13:50:08.393Z</time></trkpt><trkpt lat="45.8886586" lon="11.5226816"><ele>1044.3999999999999</ele><time>2026-04-26T13:50:09.396Z</time></trkpt><trkpt lat="45.8887404" lon="11.5226571"><ele>1045.2</ele><time>2026-04-26T13:50:10.395Z</time></trkpt><trkpt lat="45.8888419" lon="11.5226144"><ele>1046.0</ele><time>2026-04-26T13:50:12.397Z</time></trkpt><trkpt lat="45.8889336" lon="11.5225074"><ele>1046.0</ele><time>2026-04-26T13:50:14.396Z</time></trkpt><trkpt lat="45.8890238" lon="11.5222366"><ele>1046.0</ele><time>2026-04-26T13:50:16.396Z</time></trkpt><trkpt lat="45.8890817" lon="11.5220432"><ele>1046.0</ele><time>2026-04-26T13:50:17.398Z</time></trkpt><trkpt lat="45.8891453" lon="11.5218447"><ele>1046.0</ele><time>2026-04-26T13:50:18.395Z</time></trkpt><trkpt lat="45.889199" lon="11.5216712"><ele>1046.0</ele><time>2026-04-26T13:50:19.398Z</time></trkpt><trkpt lat="45.8892411" lon="11.5215363"><ele>1046.0</ele><time>2026-04-26T13:50:20.396Z</time></trkpt><trkpt lat="45.8892813" lon="11.5214315"><ele>1046.0</ele><time>2026-04-26T13:50:21.399Z</time></trkpt><trkpt lat="45.889331" lon="11.5213555"><ele>1046.0</ele><time>2026-04-26T13:50:22.396Z</time></trkpt><trkpt lat="45.8894446" lon="11.5213467"><ele>1046.3999999999999</ele><time>2026-04-26T13:50:24.394Z</time></trkpt><trkpt lat="45.8895014" lon="11.5214134"><ele>1046.8</ele><time>2026-04-26T13:50:25.396Z</time></trkpt><trkpt lat="45.8895681" lon="11.5215136"><ele>1047.1999999999998</ele><time>2026-04-26T13:50:26.398Z</time></trkpt><trkpt lat="45.8896542" lon="11.5216348"><ele>1047.6</ele><time>2026-04-26T13:50:27.395Z</time></trkpt><trkpt lat="45.8897576" lon="11.521774"><ele>1048.0</ele><time>2026-04-26T13:50:28.398Z</time></trkpt><trkpt lat="45.8898637" lon="11.5219252"><ele>1048.6666666666665</ele><time>2026-04-26T13:50:29.395Z</time></trkpt><trkpt lat="45.889975" lon="11.5220792"><ele>1049.3333333333333</ele><time>2026-04-26T13:50:30.395Z</time></trkpt><trkpt lat="45.8900955" lon="11.5222216"><ele>1050.0</ele><time>2026-04-26T13:50:31.392Z</time></trkpt><trkpt lat="45.8902176" lon="11.5223546"><ele>1050.5</ele><time>2026-04-26T13:50:32.392Z</time></trkpt><trkpt lat="45.8903355" lon="11.5224626"><ele>1051.0</ele><time>2026-04-26T13:50:33.395Z</time></trkpt><trkpt lat="45.8904432" lon="11.5225471"><ele>1051.5</ele><time>2026-04-26T13:50:34.396Z</time></trkpt><trkpt lat="45.8905378" lon="11.5226184"><ele>1052.0</ele><time>2026-04-26T13:50:35.397Z</time></trkpt><trkpt lat="45.890723" lon="11.5227213"><ele>1052.0</ele><time>2026-04-26T13:50:37.396Z</time></trkpt><trkpt lat="45.8908317" lon="11.5227634"><ele>1052.0</ele><time>2026-04-26T13:50:38.396Z</time></trkpt><trkpt lat="45.8909581" lon="11.5227975"><ele>1052.0</ele><time>2026-04-26T13:50:39.398Z</time></trkpt><trkpt lat="45.8911003" lon="11.522824"><ele>1052.0</ele><time>2026-04-26T13:50:40.396Z</time></trkpt><trkpt lat="45.8912509" lon="11.5228487"><ele>1053.25</ele><time>2026-04-26T13:50:41.397Z</time></trkpt><trkpt lat="45.8913976" lon="11.5228754"><ele>1054.5</ele><time>2026-04-26T13:50:42.395Z</time></trkpt><trkpt lat="45.891537" lon="11.5229017"><ele>1055.75</ele><time>2026-04-26T13:50:43.396Z</time></trkpt><trkpt lat="45.8916713" lon="11.5229266"><ele>1057.0</ele><time>2026-04-26T13:50:44.395Z</time></trkpt><trkpt lat="45.8918101" lon="11.5229562"><ele>1058.3333333333333</ele><time>2026-04-26T13:50:45.395Z</time></trkpt><trkpt lat="45.8919558" lon="11.5229959"><ele>1059.6666666666667</ele><time>2026-04-26T13:50:46.398Z</time></trkpt><trkpt lat="45.892109" lon="11.5230456"><ele>1061.0</ele><time>2026-04-26T13:50:47.397Z</time></trkpt><trkpt lat="45.8922705" lon="11.5230986"><ele>1061.0</ele><time>2026-04-26T13:50:48.396Z</time></trkpt><trkpt lat="45.8924267" lon="11.5231453"><ele>1061.0</ele><time>2026-04-26T13:50:49.395Z</time></trkpt><trkpt lat="45.8925783" lon="11.5231829"><ele>1061.0</ele><time>2026-04-26T13:50:50.394Z</time></trkpt><trkpt lat="45.8926691" lon="11.5232039"><ele>1061.0</ele><time>2026-04-26T13:50:50.993Z</time></trkpt><trkpt lat="45.892888" lon="11.5232372"><ele>1062.6666666666667</ele><time>2026-04-26T13:50:52.397Z</time></trkpt><trkpt lat="45.8930525" lon="11.5232376"><ele>1064.3333333333333</ele><time>2026-04-26T13:50:53.396Z</time></trkpt><trkpt lat="45.8932211" lon="11.5232244"><ele>1066.0</ele><time>2026-04-26T13:50:54.393Z</time></trkpt><trkpt lat="45.8933885" lon="11.5232202"><ele>1070.0</ele><time>2026-04-26T13:50:55.394Z</time></trkpt><trkpt lat="45.8935459" lon="11.5232271"><ele>1074.0</ele><time>2026-04-26T13:50:56.393Z</time></trkpt><trkpt lat="45.8938313" lon="11.5231947"><ele>1078.0</ele><time>2026-04-26T13:50:58.397Z</time></trkpt><trkpt lat="45.893964" lon="11.5231461"><ele>1078.0</ele><time>2026-04-26T13:50:59.398Z</time></trkpt><trkpt lat="45.894098" lon="11.5230871"><ele>1078.0</ele><time>2026-04-26T13:51:00.394Z</time></trkpt><trkpt lat="45.8942346" lon="11.523042"><ele>1078.0</ele><time>2026-04-26T13:51:01.397Z</time></trkpt><trkpt lat="45.8943769" lon="11.5230268"><ele>1078.0</ele><time>2026-04-26T13:51:02.394Z</time></trkpt><trkpt lat="45.8945296" lon="11.5230217"><ele>1081.6666666666665</ele><time>2026-04-26T13:51:03.396Z</time></trkpt><trkpt lat="45.8946905" lon="11.5230117"><ele>1085.3333333333333</ele><time>2026-04-26T13:51:04.393Z</time></trkpt><trkpt lat="45.894858" lon="11.5230005"><ele>1089.0</ele><time>2026-04-26T13:51:05.395Z</time></trkpt><trkpt lat="45.8950244" lon="11.5229816"><ele>1091.0</ele><time>2026-04-26T13:51:06.395Z</time></trkpt><trkpt lat="45.8951918" lon="11.5229537"><ele>1093.0</ele><time>2026-04-26T13:51:07.396Z</time></trkpt><trkpt lat="45.8953531" lon="11.5229242"><ele>1095.0</ele><time>2026-04-26T13:51:08.396Z</time></trkpt><trkpt lat="45.895502" lon="11.5229017"><ele>1095.0</ele><time>2026-04-26T13:51:09.397Z</time></trkpt><trkpt lat="45.8956439" lon="11.5228946"><ele>1095.0</ele><time>2026-04-26T13:51:10.397Z</time></trkpt><trkpt lat="45.8957861" lon="11.5229071"><ele>1095.0</ele><time>2026-04-26T13:51:11.396Z</time></trkpt><trkpt lat="45.8959323" lon="11.5229367"><ele>1095.0</ele><time>2026-04-26T13:51:12.395Z</time></trkpt><trkpt lat="45.8960847" lon="11.5229743"><ele>1098.3333333333333</ele><time>2026-04-26T13:51:13.394Z</time></trkpt><trkpt lat="45.8962401" lon="11.5230112"><ele>1101.6666666666665</ele><time>2026-04-26T13:51:14.396Z</time></trkpt><trkpt lat="45.8963951" lon="11.5230422"><ele>1105.0</ele><time>2026-04-26T13:51:15.394Z</time></trkpt><trkpt lat="45.8965482" lon="11.5230622"><ele>1105.0</ele><time>2026-04-26T13:51:16.397Z</time></trkpt><trkpt lat="45.8967021" lon="11.5230682"><ele>1105.0</ele><time>2026-04-26T13:51:17.395Z</time></trkpt><trkpt lat="45.8970182" lon="11.5230457"><ele>1107.0</ele><time>2026-04-26T13:51:19.394Z</time></trkpt><trkpt lat="45.897171" lon="11.5230187"><ele>1109.0</ele><time>2026-04-26T13:51:20.391Z</time></trkpt><trkpt lat="45.8973126" lon="11.5229879"><ele>1111.0</ele><time>2026-04-26T13:51:21.394Z</time></trkpt><trkpt lat="45.8974495" lon="11.5229689"><ele>1113.0</ele><time>2026-04-26T13:51:22.392Z</time></trkpt><trkpt lat="45.8975767" lon="11.5229651"><ele>1114.5</ele><time>2026-04-26T13:51:23.394Z</time></trkpt><trkpt lat="45.8976872" lon="11.5229704"><ele>1116.0</ele><time>2026-04-26T13:51:24.394Z</time></trkpt><trkpt lat="45.8977806" lon="11.5229968"><ele>1117.5</ele><time>2026-04-26T13:51:25.395Z</time></trkpt><trkpt lat="45.8978614" lon="11.5230438"><ele>1119.0</ele><time>2026-04-26T13:51:26.396Z</time></trkpt><trkpt lat="45.8979257" lon="11.5231102"><ele>1120.5</ele><time>2026-04-26T13:51:27.395Z</time></trkpt><trkpt lat="45.8979595" lon="11.5231901"><ele>1122.0</ele><time>2026-04-26T13:51:28.395Z</time></trkpt><trkpt lat="45.8979277" lon="11.5233499"><ele>1122.0</ele><time>2026-04-26T13:51:30.395Z</time></trkpt><trkpt lat="45.8978598" lon="11.5233951"><ele>1122.0</ele><time>2026-04-26T13:51:31.396Z</time></trkpt><trkpt lat="45.897778" lon="11.523427"><ele>1122.0</ele><time>2026-04-26T13:51:32.394Z</time></trkpt><trkpt lat="45.8977158" lon="11.5234625"><ele>1122.0</ele><time>2026-04-26T13:51:33.396Z</time></trkpt><trkpt lat="45.8976851" lon="11.5235804"><ele>1122.0</ele><time>2026-04-26T13:51:35.393Z</time></trkpt><trkpt lat="45.8977786" lon="11.5236562"><ele>1122.0</ele><time>2026-04-26T13:51:37.393Z</time></trkpt><trkpt lat="45.8978614" lon="11.5236857"><ele>1126.0</ele><time>2026-04-26T13:51:38.393Z</time></trkpt><trkpt lat="45.898023" lon="11.5237884"><ele>1130.0</ele><time>2026-04-26T13:51:39.995Z</time></trkpt><trkpt lat="45.8981688" lon="11.5239237"><ele>1134.0</ele><time>2026-04-26T13:51:41.392Z</time></trkpt><trkpt lat="45.8982697" lon="11.5240274"><ele>1134.0</ele><time>2026-04-26T13:51:42.392Z</time></trkpt><trkpt lat="45.8983801" lon="11.5240976"><ele>1134.0</ele><time>2026-04-26T13:51:43.392Z</time></trkpt><trkpt lat="45.8985128" lon="11.5241359"><ele>1134.0</ele><time>2026-04-26T13:51:44.39Z</time></trkpt><trkpt lat="45.8986649" lon="11.5241573"><ele>1134.0</ele><time>2026-04-26T13:51:45.391Z</time></trkpt><trkpt lat="45.8988327" lon="11.5241756"><ele>1137.5</ele><time>2026-04-26T13:51:46.39Z</time></trkpt><trkpt lat="45.8989966" lon="11.524171"><ele>1141.0</ele><time>2026-04-26T13:51:47.392Z</time></trkpt><trkpt lat="45.899142" lon="11.5241372"><ele>1144.5</ele><time>2026-04-26T13:51:48.393Z</time></trkpt><trkpt lat="45.8992691" lon="11.5240719"><ele>1148.0</ele><time>2026-04-26T13:51:49.395Z</time></trkpt><trkpt lat="45.8993925" lon="11.5239696"><ele>1150.25</ele><time>2026-04-26T13:51:50.392Z</time></trkpt><trkpt lat="45.8995117" lon="11.523843"><ele>1152.5</ele><time>2026-04-26T13:51:51.392Z</time></trkpt><trkpt lat="45.8996141" lon="11.5237217"><ele>1154.75</ele><time>2026-04-26T13:51:52.391Z</time></trkpt><trkpt lat="45.899705" lon="11.523616"><ele>1157.0</ele><time>2026-04-26T13:51:53.394Z</time></trkpt><trkpt lat="45.8997957" lon="11.5235221"><ele>1157.0</ele><time>2026-04-26T13:51:54.392Z</time></trkpt><trkpt lat="45.8998909" lon="11.5234311"><ele>1157.0</ele><time>2026-04-26T13:51:55.396Z</time></trkpt><trkpt lat="45.899991" lon="11.5233376"><ele>1157.0</ele><time>2026-04-26T13:51:56.392Z</time></trkpt><trkpt lat="45.9000866" lon="11.5232598"><ele>1157.0</ele><time>2026-04-26T13:51:57.394Z</time></trkpt><trkpt lat="45.9001746" lon="11.5232026"><ele>1157.0</ele><time>2026-04-26T13:51:58.394Z</time></trkpt><trkpt lat="45.900253" lon="11.523169"><ele>1157.0</ele><time>2026-04-26T13:51:59.392Z</time></trkpt><trkpt lat="45.9003934" lon="11.5231874"><ele>1157.0</ele><time>2026-04-26T13:52:01.395Z</time></trkpt><trkpt lat="45.9004644" lon="11.5232268"><ele>1157.0</ele><time>2026-04-26T13:52:02.394Z</time></trkpt><trkpt lat="45.9005388" lon="11.5232845"><ele>1157.0</ele><time>2026-04-26T13:52:03.395Z</time></trkpt><trkpt lat="45.9006142" lon="11.5233522"><ele>1157.0</ele><time>2026-04-26T13:52:04.392Z</time></trkpt><trkpt lat="45.9006796" lon="11.5234174"><ele>1157.0</ele><time>2026-04-26T13:52:05.391Z</time></trkpt><trkpt lat="45.9007822" lon="11.5235259"><ele>1157.0</ele><time>2026-04-26T13:52:07.392Z</time></trkpt><trkpt lat="45.9008661" lon="11.5236132"><ele>1157.0</ele><time>2026-04-26T13:52:09.391Z</time></trkpt><trkpt lat="45.9009636" lon="11.5236921"><ele>1157.0</ele><time>2026-04-26T13:52:11.391Z</time></trkpt><trkpt lat="45.9010237" lon="11.523743"><ele>1157.0</ele><time>2026-04-26T13:52:12.395Z</time></trkpt><trkpt lat="45.9011055" lon="11.5237992"><ele>1159.1666666666667</ele><time>2026-04-26T13:52:13.393Z</time></trkpt><trkpt lat="45.9011885" lon="11.5238692"><ele>1161.3333333333335</ele><time>2026-04-26T13:52:14.392Z</time></trkpt><trkpt lat="45.9012687" lon="11.5239215"><ele>1163.5</ele><time>2026-04-26T13:52:15.393Z</time></trkpt><trkpt lat="45.9013415" lon="11.5239634"><ele>1165.6666666666667</ele><time>2026-04-26T13:52:16.394Z</time></trkpt><trkpt lat="45.9014119" lon="11.5240115"><ele>1167.8333333333333</ele><time>2026-04-26T13:52:17.395Z</time></trkpt><trkpt lat="45.9014771" lon="11.5240638"><ele>1170.0</ele><time>2026-04-26T13:52:18.395Z</time></trkpt><trkpt lat="45.9015361" lon="11.5241038"><ele>1170.0</ele><time>2026-04-26T13:52:19.393Z</time></trkpt><trkpt lat="45.9016311" lon="11.5241621"><ele>1170.0</ele><time>2026-04-26T13:52:21.394Z</time></trkpt><trkpt lat="45.9016973" lon="11.5243393"><ele>1170.0</ele><time>2026-04-26T13:52:25.392Z</time></trkpt><trkpt lat="45.9016009" lon="11.5244091"><ele>1170.0</ele><time>2026-04-26T13:52:27.395Z</time></trkpt><trkpt lat="45.9015243" lon="11.5244225"><ele>1170.0</ele><time>2026-04-26T13:52:28.393Z</time></trkpt><trkpt lat="45.9014392" lon="11.5244413"><ele>1170.0</ele><time>2026-04-26T13:52:29.394Z</time></trkpt><trkpt lat="45.9013509" lon="11.5244512"><ele>1170.0</ele><time>2026-04-26T13:52:30.392Z</time></trkpt><trkpt lat="45.9012734" lon="11.5244279"><ele>1170.0</ele><time>2026-04-26T13:52:31.392Z</time></trkpt><trkpt lat="45.9011983" lon="11.524393"><ele>1170.0</ele><time>2026-04-26T13:52:32.393Z</time></trkpt><trkpt lat="45.901118" lon="11.5243494"><ele>1170.0</ele><time>2026-04-26T13:52:33.393Z</time></trkpt><trkpt lat="45.901027" lon="11.5243025"><ele>1170.0</ele><time>2026-04-26T13:52:34.392Z</time></trkpt><trkpt lat="45.9009291" lon="11.5242748"><ele>1171.0</ele><time>2026-04-26T13:52:35.392Z</time></trkpt><trkpt lat="45.9008453" lon="11.5242513"><ele>1172.0</ele><time>2026-04-26T13:52:36.394Z</time></trkpt><trkpt lat="45.900776" lon="11.5242377"><ele>1173.0</ele><time>2026-04-26T13:52:37.393Z</time></trkpt><trkpt lat="45.9006599" lon="11.5242821"><ele>1174.0</ele><time>2026-04-26T13:52:39.394Z</time></trkpt><trkpt lat="45.9006079" lon="11.5244377"><ele>1175.0</ele><time>2026-04-26T13:52:41.395Z</time></trkpt><trkpt lat="45.900606" lon="11.524542"><ele>1177.6</ele><time>2026-04-26T13:52:42.393Z</time></trkpt><trkpt lat="45.9006315" lon="11.5247591"><ele>1180.2</ele><time>2026-04-26T13:52:44.394Z</time></trkpt><trkpt lat="45.9006526" lon="11.5248688"><ele>1182.8</ele><time>2026-04-26T13:52:45.391Z</time></trkpt><trkpt lat="45.9006608" lon="11.5249677"><ele>1185.4</ele><time>2026-04-26T13:52:46.394Z</time></trkpt><trkpt lat="45.9006528" lon="11.5250673"><ele>1188.0</ele><time>2026-04-26T13:52:47.394Z</time></trkpt><trkpt lat="45.9006227" lon="11.5251761"><ele>1188.0</ele><time>2026-04-26T13:52:48.393Z</time></trkpt><trkpt lat="45.9005709" lon="11.5252775"><ele>1188.0</ele><time>2026-04-26T13:52:49.395Z</time></trkpt><trkpt lat="45.9005026" lon="11.5253796"><ele>1188.0</ele><time>2026-04-26T13:52:50.393Z</time></trkpt><trkpt lat="45.9004385" lon="11.5254999"><ele>1188.0</ele><time>2026-04-26T13:52:51.396Z</time></trkpt><trkpt lat="45.9003883" lon="11.5256287"><ele>1188.0</ele><time>2026-04-26T13:52:52.393Z</time></trkpt><trkpt lat="45.9003548" lon="11.5257465"><ele>1189.2857142857142</ele><time>2026-04-26T13:52:53.394Z</time></trkpt><trkpt lat="45.9003361" lon="11.525849"><ele>1190.5714285714287</ele><time>2026-04-26T13:52:54.394Z</time></trkpt><trkpt lat="45.9003327" lon="11.5259501"><ele>1191.857142857143</ele><time>2026-04-26T13:52:55.394Z</time></trkpt><trkpt lat="45.9003549" lon="11.5260507"><ele>1193.142857142857</ele><time>2026-04-26T13:52:56.395Z</time></trkpt><trkpt lat="45.9003935" lon="11.5261434"><ele>1194.4285714285716</ele><time>2026-04-26T13:52:57.391Z</time></trkpt><trkpt lat="45.9004425" lon="11.5262308"><ele>1195.7142857142858</ele><time>2026-04-26T13:52:58.393Z</time></trkpt><trkpt lat="45.9004954" lon="11.5263121"><ele>1197.0</ele><time>2026-04-26T13:52:59.391Z</time></trkpt><trkpt lat="45.9005459" lon="11.5263693"><ele>1197.0</ele><time>2026-04-26T13:53:00.394Z</time></trkpt><trkpt lat="45.9006617" lon="11.5264106"><ele>1197.0</ele><time>2026-04-26T13:53:02.394Z</time></trkpt><trkpt lat="45.9007351" lon="11.5263865"><ele>1197.0</ele><time>2026-04-26T13:53:03.395Z</time></trkpt><trkpt lat="45.900896" lon="11.5262955"><ele>1197.0</ele><time>2026-04-26T13:53:05.391Z</time></trkpt><trkpt lat="45.900973" lon="11.5262691"><ele>1197.0</ele><time>2026-04-26T13:53:06.394Z</time></trkpt><trkpt lat="45.9010569" lon="11.5262519"><ele>1197.6</ele><time>2026-04-26T13:53:07.39Z</time></trkpt><trkpt lat="45.9011606" lon="11.5262416"><ele>1198.2</ele><time>2026-04-26T13:53:08.394Z</time></trkpt><trkpt lat="45.9012604" lon="11.526222"><ele>1198.8</ele><time>2026-04-26T13:53:09.394Z</time></trkpt><trkpt lat="45.9013668" lon="11.5261841"><ele>1199.4</ele><time>2026-04-26T13:53:10.395Z</time></trkpt><trkpt lat="45.9014772" lon="11.5261313"><ele>1200.0</ele><time>2026-04-26T13:53:11.394Z</time></trkpt><trkpt lat="45.9015935" lon="11.526089"><ele>1200.6</ele><time>2026-04-26T13:53:12.394Z</time></trkpt><trkpt lat="45.9017065" lon="11.5260516"><ele>1201.2</ele><time>2026-04-26T13:53:13.393Z</time></trkpt><trkpt lat="45.9018037" lon="11.5260016"><ele>1201.8</ele><time>2026-04-26T13:53:14.392Z</time></trkpt><trkpt lat="45.901904" lon="11.5259577"><ele>1202.4</ele><time>2026-04-26T13:53:15.391Z</time></trkpt><trkpt lat="45.9020178" lon="11.5259264"><ele>1203.0</ele><time>2026-04-26T13:53:16.394Z</time></trkpt><trkpt lat="45.9021385" lon="11.5259092"><ele>1205.0</ele><time>2026-04-26T13:53:17.392Z</time></trkpt><trkpt lat="45.902262" lon="11.5258853"><ele>1207.0</ele><time>2026-04-26T13:53:18.394Z</time></trkpt><trkpt lat="45.9023826" lon="11.5258534"><ele>1209.0</ele><time>2026-04-26T13:53:19.393Z</time></trkpt><trkpt lat="45.9025027" lon="11.5258118"><ele>1211.0</ele><time>2026-04-26T13:53:20.394Z</time></trkpt><trkpt lat="45.9026282" lon="11.5257726"><ele>1212.0</ele><time>2026-04-26T13:53:21.394Z</time></trkpt><trkpt lat="45.9027603" lon="11.5257414"><ele>1213.0</ele><time>2026-04-26T13:53:22.394Z</time></trkpt><trkpt lat="45.9028974" lon="11.5257049"><ele>1214.0</ele><time>2026-04-26T13:53:23.394Z</time></trkpt><trkpt lat="45.9030365" lon="11.5256577"><ele>1215.0</ele><time>2026-04-26T13:53:24.393Z</time></trkpt><trkpt lat="45.9033127" lon="11.5255667"><ele>1216.25</ele><time>2026-04-26T13:53:26.393Z</time></trkpt><trkpt lat="45.9034453" lon="11.5255335"><ele>1217.5</ele><time>2026-04-26T13:53:27.393Z</time></trkpt><trkpt lat="45.9035768" lon="11.5254967"><ele>1218.75</ele><time>2026-04-26T13:53:28.395Z</time></trkpt><trkpt lat="45.9037087" lon="11.525454"><ele>1220.0</ele><time>2026-04-26T13:53:29.392Z</time></trkpt><trkpt lat="45.9038421" lon="11.5254013"><ele>1220.25</ele><time>2026-04-26T13:53:30.394Z</time></trkpt><trkpt lat="45.903979" lon="11.5253582"><ele>1220.5</ele><time>2026-04-26T13:53:31.391Z</time></trkpt><trkpt lat="45.9041204" lon="11.525319"><ele>1220.75</ele><time>2026-04-26T13:53:32.393Z</time></trkpt><trkpt lat="45.9042732" lon="11.525272"><ele>1221.0</ele><time>2026-04-26T13:53:33.394Z</time></trkpt><trkpt lat="45.9044248" lon="11.5252239"><ele>1224.0</ele><time>2026-04-26T13:53:34.393Z</time></trkpt><trkpt lat="45.904574" lon="11.5251822"><ele>1227.0</ele><time>2026-04-26T13:53:35.393Z</time></trkpt><trkpt lat="45.9047182" lon="11.5251442"><ele>1230.0</ele><time>2026-04-26T13:53:36.393Z</time></trkpt><trkpt lat="45.9048555" lon="11.5251087"><ele>1233.0</ele><time>2026-04-26T13:53:37.393Z</time></trkpt><trkpt lat="45.904983" lon="11.5250779"><ele>1235.0</ele><time>2026-04-26T13:53:38.394Z</time></trkpt><trkpt lat="45.9050972" lon="11.5250463"><ele>1237.0</ele><time>2026-04-26T13:53:39.393Z</time></trkpt><trkpt lat="45.9051894" lon="11.5250228"><ele>1239.0</ele><time>2026-04-26T13:53:40.193Z</time></trkpt><trkpt lat="45.9053304" lon="11.5249978"><ele>1241.0</ele><time>2026-04-26T13:53:41.393Z</time></trkpt><trkpt lat="45.9054548" lon="11.5249782"><ele>1241.0</ele><time>2026-04-26T13:53:42.394Z</time></trkpt><trkpt lat="45.9055818" lon="11.5249506"><ele>1241.0</ele><time>2026-04-26T13:53:43.393Z</time></trkpt><trkpt lat="45.9057028" lon="11.5249064"><ele>1241.0</ele><time>2026-04-26T13:53:44.393Z</time></trkpt><trkpt lat="45.9058147" lon="11.5248504"><ele>1241.0</ele><time>2026-04-26T13:53:45.392Z</time></trkpt><trkpt lat="45.9060292" lon="11.5247663"><ele>1243.0</ele><time>2026-04-26T13:53:47.389Z</time></trkpt><trkpt lat="45.9061342" lon="11.5247384"><ele>1245.0</ele><time>2026-04-26T13:53:48.391Z</time></trkpt><trkpt lat="45.9062465" lon="11.524726"><ele>1247.0</ele><time>2026-04-26T13:53:49.391Z</time></trkpt><trkpt lat="45.9063582" lon="11.524709"><ele>1249.0</ele><time>2026-04-26T13:53:50.392Z</time></trkpt><trkpt lat="45.9064709" lon="11.524676"><ele>1251.0</ele><time>2026-04-26T13:53:51.392Z</time></trkpt><trkpt lat="45.9065759" lon="11.524647"><ele>1251.0</ele><time>2026-04-26T13:53:52.394Z</time></trkpt><trkpt lat="45.906689" lon="11.524624"><ele>1251.0</ele><time>2026-04-26T13:53:53.393Z</time></trkpt><trkpt lat="45.9068149" lon="11.5246038"><ele>1251.0</ele><time>2026-04-26T13:53:54.392Z</time></trkpt><trkpt lat="45.906938" lon="11.5245786"><ele>1251.0</ele><time>2026-04-26T13:53:55.393Z</time></trkpt><trkpt lat="45.9070534" lon="11.5245446"><ele>1253.0</ele><time>2026-04-26T13:53:56.392Z</time></trkpt><trkpt lat="45.9071647" lon="11.5245214"><ele>1255.0</ele><time>2026-04-26T13:53:57.393Z</time></trkpt><trkpt lat="45.9072675" lon="11.5245082"><ele>1257.0</ele><time>2026-04-26T13:53:58.393Z</time></trkpt><trkpt lat="45.9073557" lon="11.5245036"><ele>1259.0</ele><time>2026-04-26T13:53:59.392Z</time></trkpt><trkpt lat="45.9074441" lon="11.5245044"><ele>1261.0</ele><time>2026-04-26T13:54:00.391Z</time></trkpt><trkpt lat="45.9075387" lon="11.5245193"><ele>1263.8</ele><time>2026-04-26T13:54:01.393Z</time></trkpt><trkpt lat="45.907648" lon="11.5245292"><ele>1266.6</ele><time>2026-04-26T13:54:02.391Z</time></trkpt><trkpt lat="45.9077624" lon="11.5245252"><ele>1269.4</ele><time>2026-04-26T13:54:03.395Z</time></trkpt><trkpt lat="45.9078747" lon="11.5244974"><ele>1272.2</ele><time>2026-04-26T13:54:04.394Z</time></trkpt><trkpt lat="45.9079848" lon="11.5244777"><ele>1275.0</ele><time>2026-04-26T13:54:05.391Z</time></trkpt><trkpt lat="45.9080991" lon="11.5244633"><ele>1275.0</ele><time>2026-04-26T13:54:06.392Z</time></trkpt><trkpt lat="45.908344" lon="11.5244399"><ele>1275.0</ele><time>2026-04-26T13:54:08.39Z</time></trkpt><trkpt lat="45.9084596" lon="11.5244293"><ele>1275.0</ele><time>2026-04-26T13:54:09.391Z</time></trkpt><trkpt lat="45.9085685" lon="11.5244185"><ele>1277.6</ele><time>2026-04-26T13:54:10.391Z</time></trkpt><trkpt lat="45.9086726" lon="11.5244022"><ele>1280.2</ele><time>2026-04-26T13:54:11.39Z</time></trkpt><trkpt lat="45.908776" lon="11.5243803"><ele>1282.8000000000002</ele><time>2026-04-26T13:54:12.39Z</time></trkpt><trkpt lat="45.9088819" lon="11.5243611"><ele>1285.4</ele><time>2026-04-26T13:54:13.389Z</time></trkpt><trkpt lat="45.9089905" lon="11.5243491"><ele>1288.0</ele><time>2026-04-26T13:54:14.391Z</time></trkpt><trkpt lat="45.9091062" lon="11.5243464"><ele>1288.0</ele><time>2026-04-26T13:54:15.394Z</time></trkpt><trkpt lat="45.9092254" lon="11.5243449"><ele>1288.0</ele><time>2026-04-26T13:54:16.393Z</time></trkpt><trkpt lat="45.909347" lon="11.5243347"><ele>1288.0</ele><time>2026-04-26T13:54:17.392Z</time></trkpt><trkpt lat="45.9094692" lon="11.5243129"><ele>1288.0</ele><time>2026-04-26T13:54:18.394Z</time></trkpt><trkpt lat="45.909593" lon="11.5242882"><ele>1289.8000000000002</ele><time>2026-04-26T13:54:19.391Z</time></trkpt><trkpt lat="45.9097129" lon="11.5242519"><ele>1291.6</ele><time>2026-04-26T13:54:20.394Z</time></trkpt><trkpt lat="45.9098294" lon="11.5242148"><ele>1293.4</ele><time>2026-04-26T13:54:21.394Z</time></trkpt><trkpt lat="45.909929" lon="11.5241874"><ele>1295.1999999999998</ele><time>2026-04-26T13:54:22.396Z</time></trkpt><trkpt lat="45.9100264" lon="11.5241715"><ele>1297.0</ele><time>2026-04-26T13:54:23.391Z</time></trkpt><trkpt lat="45.9101274" lon="11.5241708"><ele>1301.0</ele><time>2026-04-26T13:54:24.393Z</time></trkpt><trkpt lat="45.9102385" lon="11.5241766"><ele>1305.0</ele><time>2026-04-26T13:54:25.392Z</time></trkpt><trkpt lat="45.9103537" lon="11.5241909"><ele>1309.0</ele><time>2026-04-26T13:54:26.393Z</time></trkpt><trkpt lat="45.9104755" lon="11.5242055"><ele>1313.0</ele><time>2026-04-26T13:54:27.39Z</time></trkpt><trkpt lat="45.9107209" lon="11.5242392"><ele>1313.0</ele><time>2026-04-26T13:54:29.39Z</time></trkpt><trkpt lat="45.9108391" lon="11.5242651"><ele>1313.0</ele><time>2026-04-26T13:54:30.392Z</time></trkpt><trkpt lat="45.9109505" lon="11.5242982"><ele>1313.0</ele><time>2026-04-26T13:54:31.392Z</time></trkpt><trkpt lat="45.9110693" lon="11.5243309"><ele>1313.0</ele><time>2026-04-26T13:54:32.393Z</time></trkpt><trkpt lat="45.9111938" lon="11.5243541"><ele>1317.25</ele><time>2026-04-26T13:54:33.394Z</time></trkpt><trkpt lat="45.9113214" lon="11.5243564"><ele>1321.5</ele><time>2026-04-26T13:54:34.391Z</time></trkpt><trkpt lat="45.9114461" lon="11.5243379"><ele>1325.75</ele><time>2026-04-26T13:54:35.39Z</time></trkpt><trkpt lat="45.9115692" lon="11.5243185"><ele>1330.0</ele><time>2026-04-26T13:54:36.389Z</time></trkpt><trkpt lat="45.9117034" lon="11.5243056"><ele>1334.75</ele><time>2026-04-26T13:54:37.39Z</time></trkpt><trkpt lat="45.9118407" lon="11.5242905"><ele>1339.5</ele><time>2026-04-26T13:54:38.387Z</time></trkpt><trkpt lat="45.9119781" lon="11.5242762"><ele>1344.25</ele><time>2026-04-26T13:54:39.389Z</time></trkpt><trkpt lat="45.9121199" lon="11.5242639"><ele>1349.0</ele><time>2026-04-26T13:54:40.391Z</time></trkpt><trkpt lat="45.9122611" lon="11.5242618"><ele>1349.0</ele><time>2026-04-26T13:54:41.39Z</time></trkpt><trkpt lat="45.9123863" lon="11.5242622"><ele>1349.0</ele><time>2026-04-26T13:54:42.389Z</time></trkpt><trkpt lat="45.9124989" lon="11.5242532"><ele>1349.0</ele><time>2026-04-26T13:54:43.389Z</time></trkpt><trkpt lat="45.9126103" lon="11.5242224"><ele>1349.0</ele><time>2026-04-26T13:54:44.39Z</time></trkpt><trkpt lat="45.9127124" lon="11.5241512"><ele>1352.25</ele><time>2026-04-26T13:54:45.391Z</time></trkpt><trkpt lat="45.9128093" lon="11.5240926"><ele>1355.5</ele><time>2026-04-26T13:54:46.39Z</time></trkpt><trkpt lat="45.9129162" lon="11.5240642"><ele>1358.75</ele><time>2026-04-26T13:54:47.392Z</time></trkpt><trkpt lat="45.9130306" lon="11.5240514"><ele>1362.0</ele><time>2026-04-26T13:54:48.39Z</time></trkpt><trkpt lat="45.9132314" lon="11.5240005"><ele>1362.0</ele><time>2026-04-26T13:54:50.39Z</time></trkpt><trkpt lat="45.9133327" lon="11.5239839"><ele>1362.0</ele><time>2026-04-26T13:54:51.39Z</time></trkpt><trkpt lat="45.9134424" lon="11.5239804"><ele>1362.0</ele><time>2026-04-26T13:54:52.39Z</time></trkpt><trkpt lat="45.9135333" lon="11.5240051"><ele>1362.0</ele><time>2026-04-26T13:54:53.39Z</time></trkpt><trkpt lat="45.9136119" lon="11.524054"><ele>1362.0</ele><time>2026-04-26T13:54:54.39Z</time></trkpt><trkpt lat="45.9136857" lon="11.5240761"><ele>1364.1999999999998</ele><time>2026-04-26T13:54:55.391Z</time></trkpt><trkpt lat="45.9137645" lon="11.5240688"><ele>1366.4</ele><time>2026-04-26T13:54:56.389Z</time></trkpt><trkpt lat="45.9138657" lon="11.5240509"><ele>1368.6</ele><time>2026-04-26T13:54:57.391Z</time></trkpt><trkpt lat="45.9139702" lon="11.524033"><ele>1370.8000000000002</ele><time>2026-04-26T13:54:58.389Z</time></trkpt><trkpt lat="45.9140792" lon="11.5240323"><ele>1373.0</ele><time>2026-04-26T13:54:59.39Z</time></trkpt><trkpt lat="45.9141977" lon="11.5240219"><ele>1376.0</ele><time>2026-04-26T13:55:00.388Z</time></trkpt><trkpt lat="45.914317" lon="11.5240202"><ele>1379.0</ele><time>2026-04-26T13:55:01.389Z</time></trkpt><trkpt lat="45.9144249" lon="11.5240165"><ele>1382.0</ele><time>2026-04-26T13:55:02.388Z</time></trkpt><trkpt lat="45.9145351" lon="11.5240107"><ele>1385.0</ele><time>2026-04-26T13:55:03.392Z</time></trkpt><trkpt lat="45.9146521" lon="11.5240081"><ele>1385.0</ele><time>2026-04-26T13:55:04.389Z</time></trkpt><trkpt lat="45.9147699" lon="11.5239985"><ele>1385.0</ele><time>2026-04-26T13:55:05.405Z</time></trkpt><trkpt lat="45.9148752" lon="11.5239999"><ele>1385.0</ele><time>2026-04-26T13:55:06.389Z</time></trkpt><trkpt lat="45.9149722" lon="11.5240252"><ele>1385.0</ele><time>2026-04-26T13:55:07.39Z</time></trkpt><trkpt lat="45.9150679" lon="11.5240575"><ele>1385.0</ele><time>2026-04-26T13:55:08.391Z</time></trkpt><trkpt lat="45.915173" lon="11.52409"><ele>1388.6666666666667</ele><time>2026-04-26T13:55:09.393Z</time></trkpt><trkpt lat="45.9154094" lon="11.5241427"><ele>1392.3333333333333</ele><time>2026-04-26T13:55:11.39Z</time></trkpt><trkpt lat="45.9155331" lon="11.5241636"><ele>1396.0</ele><time>2026-04-26T13:55:12.391Z</time></trkpt><trkpt lat="45.9156558" lon="11.5241843"><ele>1396.0</ele><time>2026-04-26T13:55:13.39Z</time></trkpt><trkpt lat="45.9157791" lon="11.5242065"><ele>1396.0</ele><time>2026-04-26T13:55:14.391Z</time></trkpt><trkpt lat="45.9158918" lon="11.5242354"><ele>1396.0</ele><time>2026-04-26T13:55:15.393Z</time></trkpt><trkpt lat="45.9159892" lon="11.5242804"><ele>1396.0</ele><time>2026-04-26T13:55:16.389Z</time></trkpt><trkpt lat="45.9160841" lon="11.5243341"><ele>1396.0</ele><time>2026-04-26T13:55:17.39Z</time></trkpt><trkpt lat="45.9161837" lon="11.5243773"><ele>1396.4</ele><time>2026-04-26T13:55:18.392Z</time></trkpt><trkpt lat="45.9162866" lon="11.5244303"><ele>1396.8</ele><time>2026-04-26T13:55:19.393Z</time></trkpt><trkpt lat="45.9163815" lon="11.5245132"><ele>1397.2</ele><time>2026-04-26T13:55:20.391Z</time></trkpt><trkpt lat="45.9164671" lon="11.5246011"><ele>1397.6000000000001</ele><time>2026-04-26T13:55:21.391Z</time></trkpt><trkpt lat="45.9165493" lon="11.5246749"><ele>1398.0</ele><time>2026-04-26T13:55:22.39Z</time></trkpt><trkpt lat="45.9166362" lon="11.5247258"><ele>1398.0</ele><time>2026-04-26T13:55:23.39Z</time></trkpt><trkpt lat="45.9167184" lon="11.5247693"><ele>1398.0</ele><time>2026-04-26T13:55:24.388Z</time></trkpt><trkpt lat="45.9167878" lon="11.5248107"><ele>1398.0</ele><time>2026-04-26T13:55:25.389Z</time></trkpt><trkpt lat="45.9168504" lon="11.5248395"><ele>1398.0</ele><time>2026-04-26T13:55:26.39Z</time></trkpt><trkpt lat="45.9169251" lon="11.5248659"><ele>1398.0</ele><time>2026-04-26T13:55:27.388Z</time></trkpt><trkpt lat="45.9170081" lon="11.5249038"><ele>1398.0</ele><time>2026-04-26T13:55:28.39Z</time></trkpt><trkpt lat="45.9170997" lon="11.5249592"><ele>1403.75</ele><time>2026-04-26T13:55:29.389Z</time></trkpt><trkpt lat="45.9171888" lon="11.5250286"><ele>1409.5</ele><time>2026-04-26T13:55:30.393Z</time></trkpt><trkpt lat="45.9173763" lon="11.5251416"><ele>1415.25</ele><time>2026-04-26T13:55:32.392Z</time></trkpt><trkpt lat="45.9174863" lon="11.525176"><ele>1421.0</ele><time>2026-04-26T13:55:33.391Z</time></trkpt><trkpt lat="45.9176011" lon="11.5252118"><ele>1424.75</ele><time>2026-04-26T13:55:34.391Z</time></trkpt><trkpt lat="45.9177174" lon="11.5252453"><ele>1428.5</ele><time>2026-04-26T13:55:35.392Z</time></trkpt><trkpt lat="45.917835" lon="11.5252819"><ele>1432.25</ele><time>2026-04-26T13:55:36.391Z</time></trkpt><trkpt lat="45.9179045" lon="11.5253069"><ele>1436.0</ele><time>2026-04-26T13:55:36.993Z</time></trkpt><trkpt lat="45.9180561" lon="11.5253796"><ele>1435.0</ele><time>2026-04-26T13:55:38.39Z</time></trkpt><trkpt lat="45.9181524" lon="11.5254389"><ele>1434.0</ele><time>2026-04-26T13:55:39.393Z</time></trkpt><trkpt lat="45.9182528" lon="11.5254932"><ele>1433.0</ele><time>2026-04-26T13:55:40.39Z</time></trkpt><trkpt lat="45.918357" lon="11.5255345"><ele>1432.0</ele><time>2026-04-26T13:55:41.392Z</time></trkpt><trkpt lat="45.9184577" lon="11.5255597"><ele>1431.0</ele><time>2026-04-26T13:55:42.391Z</time></trkpt><trkpt lat="45.9185605" lon="11.5255771"><ele>1431.0</ele><time>2026-04-26T13:55:43.389Z</time></trkpt><trkpt lat="45.9186545" lon="11.5255932"><ele>1431.0</ele><time>2026-04-26T13:55:44.391Z</time></trkpt><trkpt lat="45.9187311" lon="11.5256162"><ele>1431.0</ele><time>2026-04-26T13:55:45.39Z</time></trkpt><trkpt lat="45.9187944" lon="11.5256491"><ele>1431.0</ele><time>2026-04-26T13:55:46.393Z</time></trkpt><trkpt lat="45.9188976" lon="11.5257345"><ele>1431.0</ele><time>2026-04-26T13:55:48.39Z</time></trkpt><trkpt lat="45.919006" lon="11.5258341"><ele>1431.0</ele><time>2026-04-26T13:55:50.389Z</time></trkpt><trkpt lat="45.9190737" lon="11.5258974"><ele>1431.0</ele><time>2026-04-26T13:55:51.388Z</time></trkpt><trkpt lat="45.9192458" lon="11.5260438"><ele>1431.0</ele><time>2026-04-26T13:55:53.389Z</time></trkpt><trkpt lat="45.9193541" lon="11.5261086"><ele>1431.0</ele><time>2026-04-26T13:55:54.391Z</time></trkpt><trkpt lat="45.9194752" lon="11.5261681"><ele>1432.8</ele><time>2026-04-26T13:55:55.389Z</time></trkpt><trkpt lat="45.9195847" lon="11.5262208"><ele>1434.6</ele><time>2026-04-26T13:55:56.391Z</time></trkpt><trkpt lat="45.9196881" lon="11.5262609"><ele>1436.4</ele><time>2026-04-26T13:55:57.391Z</time></trkpt><trkpt lat="45.9197922" lon="11.5262928"><ele>1438.2</ele><time>2026-04-26T13:55:58.391Z</time></trkpt><trkpt lat="45.9198953" lon="11.5263207"><ele>1440.0</ele><time>2026-04-26T13:55:59.392Z</time></trkpt><trkpt lat="45.9199882" lon="11.5263248"><ele>1439.6</ele><time>2026-04-26T13:56:00.393Z</time></trkpt><trkpt lat="45.9200732" lon="11.526302"><ele>1439.2</ele><time>2026-04-26T13:56:01.392Z</time></trkpt><trkpt lat="45.9201556" lon="11.5262474"><ele>1438.8000000000002</ele><time>2026-04-26T13:56:02.393Z</time></trkpt><trkpt lat="45.9202469" lon="11.5261679"><ele>1438.4</ele><time>2026-04-26T13:56:03.393Z</time></trkpt><trkpt lat="45.9203327" lon="11.5260855"><ele>1438.0</ele><time>2026-04-26T13:56:04.393Z</time></trkpt><trkpt lat="45.9204064" lon="11.5259928"><ele>1438.0</ele><time>2026-04-26T13:56:05.391Z</time></trkpt><trkpt lat="45.9204759" lon="11.5258732"><ele>1438.0</ele><time>2026-04-26T13:56:06.393Z</time></trkpt><trkpt lat="45.920545" lon="11.5257422"><ele>1438.0</ele><time>2026-04-26T13:56:07.392Z</time></trkpt><trkpt lat="45.9205981" lon="11.5256493"><ele>1438.0</ele><time>2026-04-26T13:56:08.195Z</time></trkpt><trkpt lat="45.9206778" lon="11.5255315"><ele>1438.0</ele><time>2026-04-26T13:56:09.392Z</time></trkpt><trkpt lat="45.9207497" lon="11.525444"><ele>1439.5</ele><time>2026-04-26T13:56:10.394Z</time></trkpt><trkpt lat="45.9208249" lon="11.5253829"><ele>1441.0</ele><time>2026-04-26T13:56:11.392Z</time></trkpt><trkpt lat="45.9209059" lon="11.5253401"><ele>1442.5</ele><time>2026-04-26T13:56:12.393Z</time></trkpt><trkpt lat="45.9210857" lon="11.5252172"><ele>1444.0</ele><time>2026-04-26T13:56:14.391Z</time></trkpt><trkpt lat="45.9211799" lon="11.5251412"><ele>1444.0</ele><time>2026-04-26T13:56:15.387Z</time></trkpt><trkpt lat="45.9212755" lon="11.5250779"><ele>1444.0</ele><time>2026-04-26T13:56:16.389Z</time></trkpt><trkpt lat="45.9213537" lon="11.5250236"><ele>1444.0</ele><time>2026-04-26T13:56:17.39Z</time></trkpt><trkpt lat="45.9214212" lon="11.5249806"><ele>1444.0</ele><time>2026-04-26T13:56:18.39Z</time></trkpt><trkpt lat="45.9214819" lon="11.524934"><ele>1444.0</ele><time>2026-04-26T13:56:19.389Z</time></trkpt><trkpt lat="45.9215509" lon="11.5248769"><ele>1444.0</ele><time>2026-04-26T13:56:20.389Z</time></trkpt><trkpt lat="45.9216342" lon="11.524816"><ele>1444.0</ele><time>2026-04-26T13:56:21.391Z</time></trkpt><trkpt lat="45.9217192" lon="11.5247532"><ele>1444.0</ele><time>2026-04-26T13:56:22.39Z</time></trkpt><trkpt lat="45.9217997" lon="11.524696"><ele>1444.0</ele><time>2026-04-26T13:56:23.391Z</time></trkpt><trkpt lat="45.9218655" lon="11.5246179"><ele>1444.0</ele><time>2026-04-26T13:56:24.391Z</time></trkpt><trkpt lat="45.9219351" lon="11.5245287"><ele>1444.0</ele><time>2026-04-26T13:56:25.391Z</time></trkpt><trkpt lat="45.9219985" lon="11.5244355"><ele>1444.8000000000002</ele><time>2026-04-26T13:56:26.388Z</time></trkpt><trkpt lat="45.9220624" lon="11.5243476"><ele>1445.6000000000001</ele><time>2026-04-26T13:56:27.39Z</time></trkpt><trkpt lat="45.9221227" lon="11.524259"><ele>1446.4</ele><time>2026-04-26T13:56:28.388Z</time></trkpt><trkpt lat="45.9221938" lon="11.5241765"><ele>1447.2</ele><time>2026-04-26T13:56:29.39Z</time></trkpt><trkpt lat="45.9222682" lon="11.5241282"><ele>1448.0</ele><time>2026-04-26T13:56:30.389Z</time></trkpt><trkpt lat="45.9223909" lon="11.5240496"><ele>1448.0</ele><time>2026-04-26T13:56:32.389Z</time></trkpt><trkpt lat="45.9224861" lon="11.52396"><ele>1448.0</ele><time>2026-04-26T13:56:34.389Z</time></trkpt><trkpt lat="45.9226219" lon="11.5238176"><ele>1448.0</ele><time>2026-04-26T13:56:36.389Z</time></trkpt><trkpt lat="45.9227063" lon="11.5237344"><ele>1448.0</ele><time>2026-04-26T13:56:37.388Z</time></trkpt><trkpt lat="45.9227946" lon="11.5236542"><ele>1449.0</ele><time>2026-04-26T13:56:38.386Z</time></trkpt><trkpt lat="45.9228872" lon="11.5235797"><ele>1450.0</ele><time>2026-04-26T13:56:39.387Z</time></trkpt><trkpt lat="45.9229918" lon="11.5235272"><ele>1451.0</ele><time>2026-04-26T13:56:40.386Z</time></trkpt><trkpt lat="45.9230914" lon="11.5234876"><ele>1452.0</ele><time>2026-04-26T13:56:41.388Z</time></trkpt><trkpt lat="45.9231991" lon="11.5234761"><ele>1453.0</ele><time>2026-04-26T13:56:42.389Z</time></trkpt><trkpt lat="45.9233034" lon="11.5234586"><ele>1453.0</ele><time>2026-04-26T13:56:43.392Z</time></trkpt><trkpt lat="45.923395" lon="11.5234189"><ele>1453.0</ele><time>2026-04-26T13:56:44.389Z</time></trkpt><trkpt lat="45.92349" lon="11.5233712"><ele>1453.0</ele><time>2026-04-26T13:56:45.387Z</time></trkpt><trkpt lat="45.9235776" lon="11.5233091"><ele>1453.0</ele><time>2026-04-26T13:56:46.389Z</time></trkpt><trkpt lat="45.9236619" lon="11.5232519"><ele>1453.0</ele><time>2026-04-26T13:56:47.389Z</time></trkpt><trkpt lat="45.9237526" lon="11.5231901"><ele>1451.8000000000002</ele><time>2026-04-26T13:56:48.388Z</time></trkpt><trkpt lat="45.9238562" lon="11.5231439"><ele>1450.6</ele><time>2026-04-26T13:56:49.388Z</time></trkpt><trkpt lat="45.9239637" lon="11.5231098"><ele>1449.4</ele><time>2026-04-26T13:56:50.389Z</time></trkpt><trkpt lat="45.9240701" lon="11.5231112"><ele>1448.1999999999998</ele><time>2026-04-26T13:56:51.388Z</time></trkpt><trkpt lat="45.924167" lon="11.5231101"><ele>1447.0</ele><time>2026-04-26T13:56:52.388Z</time></trkpt><trkpt lat="45.9242382" lon="11.5231006"><ele>1447.0</ele><time>2026-04-26T13:56:53.19Z</time></trkpt><trkpt lat="45.9243429" lon="11.5230733"><ele>1447.0</ele><time>2026-04-26T13:56:54.388Z</time></trkpt><trkpt lat="45.9244289" lon="11.5230344"><ele>1447.0</ele><time>2026-04-26T13:56:55.39Z</time></trkpt><trkpt lat="45.9246037" lon="11.5229303"><ele>1447.0</ele><time>2026-04-26T13:56:57.393Z</time></trkpt><trkpt lat="45.9246945" lon="11.5228865"><ele>1452.0</ele><time>2026-04-26T13:56:58.39Z</time></trkpt><trkpt lat="45.9247945" lon="11.5228377"><ele>1457.0</ele><time>2026-04-26T13:56:59.39Z</time></trkpt><trkpt lat="45.9248938" lon="11.5227923"><ele>1462.0</ele><time>2026-04-26T13:57:00.389Z</time></trkpt><trkpt lat="45.9249822" lon="11.5227742"><ele>1467.0</ele><time>2026-04-26T13:57:01.39Z</time></trkpt><trkpt lat="45.9250755" lon="11.5227723"><ele>1472.0</ele><time>2026-04-26T13:57:02.388Z</time></trkpt><trkpt lat="45.9251684" lon="11.5227882"><ele>1472.8</ele><time>2026-04-26T13:57:03.388Z</time></trkpt><trkpt lat="45.9252645" lon="11.5228119"><ele>1473.6</ele><time>2026-04-26T13:57:04.388Z</time></trkpt><trkpt lat="45.9253673" lon="11.5228365"><ele>1474.3999999999999</ele><time>2026-04-26T13:57:05.389Z</time></trkpt><trkpt lat="45.9254598" lon="11.5228486"><ele>1475.1999999999998</ele><time>2026-04-26T13:57:06.391Z</time></trkpt><trkpt lat="45.9255527" lon="11.5228396"><ele>1476.0</ele><time>2026-04-26T13:57:07.391Z</time></trkpt><trkpt lat="45.9256469" lon="11.5228239"><ele>1476.0</ele><time>2026-04-26T13:57:08.39Z</time></trkpt><trkpt lat="45.9257455" lon="11.5227978"><ele>1476.0</ele><time>2026-04-26T13:57:09.391Z</time></trkpt><trkpt lat="45.9258458" lon="11.5227574"><ele>1476.0</ele><time>2026-04-26T13:57:10.392Z</time></trkpt><trkpt lat="45.9259526" lon="11.5227183"><ele>1476.0</ele><time>2026-04-26T13:57:11.392Z</time></trkpt><trkpt lat="45.9260634" lon="11.5226778"><ele>1476.0</ele><time>2026-04-26T13:57:12.391Z</time></trkpt><trkpt lat="45.9261752" lon="11.5226529"><ele>1477.5</ele><time>2026-04-26T13:57:13.393Z</time></trkpt><trkpt lat="45.9262406" lon="11.522636"><ele>1479.0</ele><time>2026-04-26T13:57:13.994Z</time></trkpt><trkpt lat="45.9263761" lon="11.5225896"><ele>1480.5</ele><time>2026-04-26T13:57:15.392Z</time></trkpt><trkpt lat="45.9264591" lon="11.5225729"><ele>1482.0</ele><time>2026-04-26T13:57:16.393Z</time></trkpt><trkpt lat="45.9266184" lon="11.5225992"><ele>1482.0</ele><time>2026-04-26T13:57:18.392Z</time></trkpt><trkpt lat="45.9267084" lon="11.522641"><ele>1482.0</ele><time>2026-04-26T13:57:19.394Z</time></trkpt><trkpt lat="45.9268115" lon="11.5226858"><ele>1482.0</ele><time>2026-04-26T13:57:20.391Z</time></trkpt><trkpt lat="45.9269231" lon="11.5227283"><ele>1482.0</ele><time>2026-04-26T13:57:21.391Z</time></trkpt><trkpt lat="45.9270165" lon="11.5227803"><ele>1482.0</ele><time>2026-04-26T13:57:22.391Z</time></trkpt><trkpt lat="45.9270908" lon="11.5228395"><ele>1484.0</ele><time>2026-04-26T13:57:23.394Z</time></trkpt><trkpt lat="45.9271692" lon="11.5228951"><ele>1486.0</ele><time>2026-04-26T13:57:24.392Z</time></trkpt><trkpt lat="45.9272584" lon="11.5229366"><ele>1488.0</ele><time>2026-04-26T13:57:25.394Z</time></trkpt><trkpt lat="45.9273572" lon="11.5229558"><ele>1490.0</ele><time>2026-04-26T13:57:26.389Z</time></trkpt><trkpt lat="45.9274631" lon="11.5229582"><ele>1492.0</ele><time>2026-04-26T13:57:27.391Z</time></trkpt><trkpt lat="45.9275609" lon="11.5229554"><ele>1492.1999999999998</ele><time>2026-04-26T13:57:28.391Z</time></trkpt><trkpt lat="45.9276557" lon="11.5229429"><ele>1492.4</ele><time>2026-04-26T13:57:29.391Z</time></trkpt><trkpt lat="45.9277574" lon="11.5229166"><ele>1492.6</ele><time>2026-04-26T13:57:30.395Z</time></trkpt><trkpt lat="45.9278648" lon="11.5228815"><ele>1492.8000000000002</ele><time>2026-04-26T13:57:31.393Z</time></trkpt><trkpt lat="45.9279595" lon="11.5228559"><ele>1493.0</ele><time>2026-04-26T13:57:32.391Z</time></trkpt><trkpt lat="45.9280498" lon="11.522849"><ele>1493.0</ele><time>2026-04-26T13:57:33.392Z</time></trkpt><trkpt lat="45.9281407" lon="11.5228574"><ele>1493.0</ele><time>2026-04-26T13:57:34.392Z</time></trkpt><trkpt lat="45.9282416" lon="11.5228674"><ele>1493.0</ele><time>2026-04-26T13:57:35.391Z</time></trkpt><trkpt lat="45.9283452" lon="11.5228741"><ele>1493.0</ele><time>2026-04-26T13:57:36.393Z</time></trkpt><trkpt lat="45.9284377" lon="11.5228715"><ele>1493.0</ele><time>2026-04-26T13:57:37.393Z</time></trkpt><trkpt lat="45.9285987" lon="11.5228083"><ele>1492.6000000000001</ele><time>2026-04-26T13:57:39.394Z</time></trkpt><trkpt lat="45.9286717" lon="11.5227456"><ele>1492.2</ele><time>2026-04-26T13:57:40.394Z</time></trkpt><trkpt lat="45.9287484" lon="11.5226647"><ele>1491.8</ele><time>2026-04-26T13:57:41.394Z</time></trkpt><trkpt lat="45.9288334" lon="11.522595"><ele>1491.4</ele><time>2026-04-26T13:57:42.395Z</time></trkpt><trkpt lat="45.9289313" lon="11.522539"><ele>1491.0</ele><time>2026-04-26T13:57:43.396Z</time></trkpt><trkpt lat="45.9290352" lon="11.5224937"><ele>1491.0</ele><time>2026-04-26T13:57:44.395Z</time></trkpt><trkpt lat="45.9291469" lon="11.5224367"><ele>1491.0</ele><time>2026-04-26T13:57:45.394Z</time></trkpt><trkpt lat="45.9292709" lon="11.5223743"><ele>1491.0</ele><time>2026-04-26T13:57:46.394Z</time></trkpt><trkpt lat="45.9294007" lon="11.5223109"><ele>1491.0</ele><time>2026-04-26T13:57:47.392Z</time></trkpt><trkpt lat="45.9295297" lon="11.5222476"><ele>1491.5</ele><time>2026-04-26T13:57:48.394Z</time></trkpt><trkpt lat="45.9296553" lon="11.5221947"><ele>1492.0</ele><time>2026-04-26T13:57:49.394Z</time></trkpt><trkpt lat="45.9297762" lon="11.5221549"><ele>1492.5</ele><time>2026-04-26T13:57:50.394Z</time></trkpt><trkpt lat="45.9298908" lon="11.5221232"><ele>1493.0</ele><time>2026-04-26T13:57:51.39Z</time></trkpt><trkpt lat="45.9299907" lon="11.5221044"><ele>1494.0</ele><time>2026-04-26T13:57:52.392Z</time></trkpt><trkpt lat="45.9300738" lon="11.5221046"><ele>1495.0</ele><time>2026-04-26T13:57:53.391Z</time></trkpt><trkpt lat="45.9301367" lon="11.5221146"><ele>1496.0</ele><time>2026-04-26T13:57:54.391Z</time></trkpt><trkpt lat="45.9302181" lon="11.5220838"><ele>1497.0</ele><time>2026-04-26T13:57:55.993Z</time></trkpt><trkpt lat="45.9302898" lon="11.5219892"><ele>1498.0</ele><time>2026-04-26T13:57:57.393Z</time></trkpt><trkpt lat="45.9303533" lon="11.5219076"><ele>1499.0</ele><time>2026-04-26T13:57:58.395Z</time></trkpt><trkpt lat="45.9305181" lon="11.5217821"><ele>1502.8000000000002</ele><time>2026-04-26T13:58:00.393Z</time></trkpt><trkpt lat="45.9306068" lon="11.521755"><ele>1506.6000000000001</ele><time>2026-04-26T13:58:01.393Z</time></trkpt><trkpt lat="45.9306997" lon="11.5217322"><ele>1510.4</ele><time>2026-04-26T13:58:02.395Z</time></trkpt><trkpt lat="45.9308" lon="11.5217075"><ele>1514.2</ele><time>2026-04-26T13:58:03.392Z</time></trkpt><trkpt lat="45.9309076" lon="11.5216936"><ele>1518.0</ele><time>2026-04-26T13:58:04.392Z</time></trkpt><trkpt lat="45.9310207" lon="11.5216804"><ele>1522.25</ele><time>2026-04-26T13:58:05.392Z</time></trkpt><trkpt lat="45.9311421" lon="11.5216518"><ele>1526.5</ele><time>2026-04-26T13:58:06.394Z</time></trkpt><trkpt lat="45.9312742" lon="11.5216202"><ele>1530.75</ele><time>2026-04-26T13:58:07.39Z</time></trkpt><trkpt lat="45.9314037" lon="11.5216224"><ele>1535.0</ele><time>2026-04-26T13:58:08.39Z</time></trkpt><trkpt lat="45.9315114" lon="11.5216539"><ele>1535.0</ele><time>2026-04-26T13:58:09.393Z</time></trkpt><trkpt lat="45.931606" lon="11.5217048"><ele>1535.0</ele><time>2026-04-26T13:58:10.391Z</time></trkpt><trkpt lat="45.9317003" lon="11.5217681"><ele>1535.0</ele><time>2026-04-26T13:58:11.391Z</time></trkpt><trkpt lat="45.9317934" lon="11.5218551"><ele>1535.0</ele><time>2026-04-26T13:58:12.392Z</time></trkpt><trkpt lat="45.931894" lon="11.521945"><ele>1535.0</ele><time>2026-04-26T13:58:13.39Z</time></trkpt><trkpt lat="45.9319869" lon="11.52202"><ele>1533.4</ele><time>2026-04-26T13:58:14.392Z</time></trkpt><trkpt lat="45.9320691" lon="11.5220883"><ele>1531.8</ele><time>2026-04-26T13:58:15.389Z</time></trkpt><trkpt lat="45.9321584" lon="11.5221464"><ele>1530.1999999999998</ele><time>2026-04-26T13:58:16.391Z</time></trkpt><trkpt lat="45.932244" lon="11.5221795"><ele>1528.6</ele><time>2026-04-26T13:58:17.392Z</time></trkpt><trkpt lat="45.9323299" lon="11.522181"><ele>1527.0</ele><time>2026-04-26T13:58:18.39Z</time></trkpt><trkpt lat="45.9324166" lon="11.5221641"><ele>1529.8</ele><time>2026-04-26T13:58:19.392Z</time></trkpt><trkpt lat="45.9326059" lon="11.522116"><ele>1532.6</ele><time>2026-04-26T13:58:21.393Z</time></trkpt><trkpt lat="45.9326885" lon="11.5220921"><ele>1535.3999999999999</ele><time>2026-04-26T13:58:22.394Z</time></trkpt><trkpt lat="45.9327643" lon="11.5220704"><ele>1538.1999999999998</ele><time>2026-04-26T13:58:23.393Z</time></trkpt><trkpt lat="45.9328416" lon="11.5220625"><ele>1541.0</ele><time>2026-04-26T13:58:24.394Z</time></trkpt><trkpt lat="45.9329191" lon="11.5220714"><ele>1540.9999999999998</ele><time>2026-04-26T13:58:25.392Z</time></trkpt><trkpt lat="45.9329938" lon="11.5220972"><ele>1541.0</ele><time>2026-04-26T13:58:26.393Z</time></trkpt><trkpt lat="45.9330591" lon="11.5221316"><ele>1541.0</ele><time>2026-04-26T13:58:27.393Z</time></trkpt><trkpt lat="45.9331273" lon="11.5221629"><ele>1541.0</ele><time>2026-04-26T13:58:28.394Z</time></trkpt><trkpt lat="45.933233" lon="11.5221788"><ele>1540.9999999999998</ele><time>2026-04-26T13:58:30.394Z</time></trkpt><trkpt lat="45.9332977" lon="11.5221186"><ele>1541.0</ele><time>2026-04-26T13:58:32.393Z</time></trkpt><trkpt lat="45.9332911" lon="11.5220126"><ele>1544.1666666666665</ele><time>2026-04-26T13:58:34.392Z</time></trkpt><trkpt lat="45.9332165" lon="11.521929"><ele>1547.3333333333333</ele><time>2026-04-26T13:58:36.394Z</time></trkpt><trkpt lat="45.9331588" lon="11.5218798"><ele>1550.5</ele><time>2026-04-26T13:58:37.394Z</time></trkpt><trkpt lat="45.9330933" lon="11.521823"><ele>1553.6666666666665</ele><time>2026-04-26T13:58:38.392Z</time></trkpt><trkpt lat="45.9330217" lon="11.5217689"><ele>1556.8333333333333</ele><time>2026-04-26T13:58:39.394Z</time></trkpt><trkpt lat="45.9329536" lon="11.5217284"><ele>1560.0</ele><time>2026-04-26T13:58:40.388Z</time></trkpt><trkpt lat="45.9328282" lon="11.521652"><ele>1560.0</ele><time>2026-04-26T13:58:42.39Z</time></trkpt><trkpt lat="45.9327691" lon="11.521615"><ele>1560.0</ele><time>2026-04-26T13:58:43.39Z</time></trkpt><trkpt lat="45.9327116" lon="11.5215768"><ele>1560.0</ele><time>2026-04-26T13:58:44.389Z</time></trkpt><trkpt lat="45.9325992" lon="11.5215057"><ele>1560.0</ele><time>2026-04-26T13:58:46.391Z</time></trkpt><trkpt lat="45.9325409" lon="11.5214681"><ele>1560.0</ele><time>2026-04-26T13:58:47.392Z</time></trkpt><trkpt lat="45.9324856" lon="11.5214238"><ele>1560.0</ele><time>2026-04-26T13:58:48.392Z</time></trkpt><trkpt lat="45.9324236" lon="11.5213736"><ele>1560.0</ele><time>2026-04-26T13:58:49.391Z</time></trkpt><trkpt lat="45.9323541" lon="11.5213135"><ele>1558.2</ele><time>2026-04-26T13:58:50.392Z</time></trkpt><trkpt lat="45.9322834" lon="11.5212444"><ele>1556.4</ele><time>2026-04-26T13:58:51.391Z</time></trkpt><trkpt lat="45.9322166" lon="11.5211579"><ele>1554.6</ele><time>2026-04-26T13:58:52.392Z</time></trkpt><trkpt lat="45.9321498" lon="11.5210548"><ele>1552.8</ele><time>2026-04-26T13:58:53.393Z</time></trkpt><trkpt lat="45.9320778" lon="11.5209509"><ele>1551.0</ele><time>2026-04-26T13:58:54.392Z</time></trkpt><trkpt lat="45.9320043" lon="11.5208506"><ele>1552.6666666666667</ele><time>2026-04-26T13:58:55.392Z</time></trkpt><trkpt lat="45.9319321" lon="11.5207649"><ele>1554.3333333333335</ele><time>2026-04-26T13:58:56.392Z</time></trkpt><trkpt lat="45.9318624" lon="11.5206849"><ele>1556.0</ele><time>2026-04-26T13:58:57.39Z</time></trkpt><trkpt lat="45.9317932" lon="11.5206293"><ele>1557.6666666666667</ele><time>2026-04-26T13:58:58.39Z</time></trkpt><trkpt lat="45.9317269" lon="11.5205873"><ele>1559.3333333333335</ele><time>2026-04-26T13:58:59.391Z</time></trkpt><trkpt lat="45.9316638" lon="11.5205219"><ele>1561.0</ele><time>2026-04-26T13:59:00.393Z</time></trkpt><trkpt lat="45.9316088" lon="11.5204271"><ele>1567.0</ele><time>2026-04-26T13:59:01.393Z</time></trkpt><trkpt lat="45.9315021" lon="11.5202551"><ele>1573.0</ele><time>2026-04-26T13:59:03.391Z</time></trkpt><trkpt lat="45.9314535" lon="11.5201756"><ele>1579.0</ele><time>2026-04-26T13:59:04.389Z</time></trkpt><trkpt lat="45.9313792" lon="11.5200556"><ele>1585.0</ele><time>2026-04-26T13:59:06.391Z</time></trkpt><trkpt lat="45.9313464" lon="11.5199064"><ele>1585.0000000000002</ele><time>2026-04-26T13:59:08.39Z</time></trkpt><trkpt lat="45.9313468" lon="11.5198114"><ele>1585.0</ele><time>2026-04-26T13:59:09.392Z</time></trkpt><trkpt lat="45.9313597" lon="11.5196887"><ele>1585.0</ele><time>2026-04-26T13:59:10.393Z</time></trkpt><trkpt lat="45.9313733" lon="11.5195604"><ele>1585.0</ele><time>2026-04-26T13:59:11.391Z</time></trkpt><trkpt lat="45.9313711" lon="11.5194359"><ele>1585.0000000000002</ele><time>2026-04-26T13:59:12.393Z</time></trkpt><trkpt lat="45.9313653" lon="11.5193082"><ele>1585.0</ele><time>2026-04-26T13:59:13.392Z</time></trkpt><trkpt lat="45.9313505" lon="11.5191794"><ele>1586.8</ele><time>2026-04-26T13:59:14.393Z</time></trkpt><trkpt lat="45.9313356" lon="11.5190428"><ele>1588.6</ele><time>2026-04-26T13:59:15.391Z</time></trkpt><trkpt lat="45.9313309" lon="11.5189026"><ele>1590.4</ele><time>2026-04-26T13:59:16.394Z</time></trkpt><trkpt lat="45.9313304" lon="11.5187643"><ele>1592.2</ele><time>2026-04-26T13:59:17.393Z</time></trkpt><trkpt lat="45.9313273" lon="11.5186318"><ele>1594.0</ele><time>2026-04-26T13:59:18.392Z</time></trkpt><trkpt lat="45.931319" lon="11.5185222"><ele>1595.6</ele><time>2026-04-26T13:59:19.391Z</time></trkpt><trkpt lat="45.9313026" lon="11.5184264"><ele>1597.2</ele><time>2026-04-26T13:59:20.391Z</time></trkpt><trkpt lat="45.9312742" lon="11.5183208"><ele>1598.8</ele><time>2026-04-26T13:59:21.392Z</time></trkpt><trkpt lat="45.9312388" lon="11.518216"><ele>1600.3999999999999</ele><time>2026-04-26T13:59:22.393Z</time></trkpt><trkpt lat="45.9311056" lon="11.5180262"><ele>1602.0</ele><time>2026-04-26T13:59:25.393Z</time></trkpt><trkpt lat="45.9310526" lon="11.5179546"><ele>1602.0</ele><time>2026-04-26T13:59:26.393Z</time></trkpt><trkpt lat="45.9310021" lon="11.5178814"><ele>1602.0</ele><time>2026-04-26T13:59:27.393Z</time></trkpt><trkpt lat="45.9309618" lon="11.5177932"><ele>1602.0</ele><time>2026-04-26T13:59:28.393Z</time></trkpt><trkpt lat="45.9309218" lon="11.5177026"><ele>1602.0</ele><time>2026-04-26T13:59:29.391Z</time></trkpt><trkpt lat="45.930889" lon="11.517608"><ele>1602.0</ele><time>2026-04-26T13:59:30.39Z</time></trkpt><trkpt lat="45.9308628" lon="11.5175038"><ele>1602.0</ele><time>2026-04-26T13:59:31.39Z</time></trkpt><trkpt lat="45.9308301" lon="11.5173791"><ele>1602.0</ele><time>2026-04-26T13:59:32.391Z</time></trkpt><trkpt lat="45.9308029" lon="11.5172463"><ele>1602.0</ele><time>2026-04-26T13:59:33.393Z</time></trkpt><trkpt lat="45.9307577" lon="11.5171232"><ele>1602.0</ele><time>2026-04-26T13:59:34.395Z</time></trkpt><trkpt lat="45.9307147" lon="11.5170194"><ele>1602.0</ele><time>2026-04-26T13:59:35.392Z</time></trkpt><trkpt lat="45.9306786" lon="11.516935"><ele>1602.0</ele><time>2026-04-26T13:59:36.392Z</time></trkpt><trkpt lat="45.9306408" lon="11.5168527"><ele>1602.0</ele><time>2026-04-26T13:59:37.392Z</time></trkpt><trkpt lat="45.9305836" lon="11.5167013"><ele>1604.3999999999999</ele><time>2026-04-26T13:59:39.392Z</time></trkpt><trkpt lat="45.930562" lon="11.5166131"><ele>1606.8</ele><time>2026-04-26T13:59:40.392Z</time></trkpt><trkpt lat="45.9305601" lon="11.5165214"><ele>1609.2</ele><time>2026-04-26T13:59:41.393Z</time></trkpt><trkpt lat="45.9305985" lon="11.5163568"><ele>1611.6</ele><time>2026-04-26T13:59:43.393Z</time></trkpt><trkpt lat="45.9306862" lon="11.5161739"><ele>1614.0</ele><time>2026-04-26T13:59:45.393Z</time></trkpt><trkpt lat="45.9307469" lon="11.5160793"><ele>1614.6</ele><time>2026-04-26T13:59:46.395Z</time></trkpt><trkpt lat="45.9308093" lon="11.5159774"><ele>1615.2</ele><time>2026-04-26T13:59:47.392Z</time></trkpt><trkpt lat="45.9308705" lon="11.5158694"><ele>1615.8</ele><time>2026-04-26T13:59:48.395Z</time></trkpt><trkpt lat="45.9309323" lon="11.5157465"><ele>1616.3999999999999</ele><time>2026-04-26T13:59:49.392Z</time></trkpt><trkpt lat="45.9309888" lon="11.5156106"><ele>1617.0</ele><time>2026-04-26T13:59:50.394Z</time></trkpt><trkpt lat="45.9310342" lon="11.5154678"><ele>1620.1999999999998</ele><time>2026-04-26T13:59:51.395Z</time></trkpt><trkpt lat="45.9310691" lon="11.5153303"><ele>1623.4</ele><time>2026-04-26T13:59:52.393Z</time></trkpt><trkpt lat="45.9310979" lon="11.5151997"><ele>1626.6</ele><time>2026-04-26T13:59:53.39Z</time></trkpt><trkpt lat="45.9311259" lon="11.5150684"><ele>1629.8000000000002</ele><time>2026-04-26T13:59:54.391Z</time></trkpt><trkpt lat="45.9311523" lon="11.5149353"><ele>1633.0</ele><time>2026-04-26T13:59:55.389Z</time></trkpt><trkpt lat="45.9311821" lon="11.514804"><ele>1633.0000000000002</ele><time>2026-04-26T13:59:56.392Z</time></trkpt><trkpt lat="45.9312045" lon="11.5146849"><ele>1633.0</ele><time>2026-04-26T13:59:57.393Z</time></trkpt><trkpt lat="45.9312147" lon="11.5145762"><ele>1633.0</ele><time>2026-04-26T13:59:58.394Z</time></trkpt><trkpt lat="45.9312067" lon="11.5144675"><ele>1633.0</ele><time>2026-04-26T13:59:59.394Z</time></trkpt><trkpt lat="45.9311951" lon="11.5143473"><ele>1633.0000000000002</ele><time>2026-04-26T14:00:00.395Z</time></trkpt><trkpt lat="45.9311931" lon="11.5142282"><ele>1633.0</ele><time>2026-04-26T14:00:01.393Z</time></trkpt><trkpt lat="45.9311981" lon="11.5141239"><ele>1633.2</ele><time>2026-04-26T14:00:02.394Z</time></trkpt><trkpt lat="45.9312144" lon="11.5140126"><ele>1633.4</ele><time>2026-04-26T14:00:03.396Z</time></trkpt><trkpt lat="45.9312403" lon="11.5139123"><ele>1633.6000000000001</ele><time>2026-04-26T14:00:04.395Z</time></trkpt><trkpt lat="45.9313222" lon="11.5137134"><ele>1633.8000000000002</ele><time>2026-04-26T14:00:08.395Z</time></trkpt><trkpt lat="45.9313687" lon="11.5136143"><ele>1634.0</ele><time>2026-04-26T14:00:10.395Z</time></trkpt><trkpt lat="45.9314305" lon="11.5134731"><ele>1633.2</ele><time>2026-04-26T14:00:12.397Z</time></trkpt><trkpt lat="45.9314613" lon="11.5133691"><ele>1632.4</ele><time>2026-04-26T14:00:13.395Z</time></trkpt><trkpt lat="45.931497" lon="11.5132451"><ele>1631.6</ele><time>2026-04-26T14:00:14.395Z</time></trkpt><trkpt lat="45.9315408" lon="11.5131069"><ele>1630.8</ele><time>2026-04-26T14:00:15.393Z</time></trkpt><trkpt lat="45.9315805" lon="11.5129771"><ele>1630.0</ele><time>2026-04-26T14:00:16.393Z</time></trkpt><trkpt lat="45.9316108" lon="11.5128653"><ele>1629.4</ele><time>2026-04-26T14:00:17.394Z</time></trkpt><trkpt lat="45.9316247" lon="11.512773"><ele>1628.8</ele><time>2026-04-26T14:00:18.391Z</time></trkpt><trkpt lat="45.9316346" lon="11.5126502"><ele>1628.1999999999998</ele><time>2026-04-26T14:00:20.393Z</time></trkpt><trkpt lat="45.9316496" lon="11.5125524"><ele>1627.6</ele><time>2026-04-26T14:00:29.395Z</time></trkpt><trkpt lat="45.9316655" lon="11.5122442"><ele>1627.0</ele><time>2026-04-26T14:00:32.396Z</time></trkpt><trkpt lat="45.9316646" lon="11.5121197"><ele>1627.8333333333335</ele><time>2026-04-26T14:00:33.394Z</time></trkpt><trkpt lat="45.9316613" lon="11.5120067"><ele>1628.6666666666667</ele><time>2026-04-26T14:00:34.394Z</time></trkpt><trkpt lat="45.9316525" lon="11.5119074"><ele>1629.5</ele><time>2026-04-26T14:00:35.394Z</time></trkpt><trkpt lat="45.9316138" lon="11.5117538"><ele>1630.3333333333335</ele><time>2026-04-26T14:00:37.392Z</time></trkpt><trkpt lat="45.9315458" lon="11.5116269"><ele>1631.1666666666667</ele><time>2026-04-26T14:00:39.393Z</time></trkpt><trkpt lat="45.9315001" lon="11.5115617"><ele>1632.0</ele><time>2026-04-26T14:00:40.393Z</time></trkpt><trkpt lat="45.9314512" lon="11.5114995"><ele>1632.0</ele><time>2026-04-26T14:00:41.391Z</time></trkpt><trkpt lat="45.9313954" lon="11.5114328"><ele>1632.0</ele><time>2026-04-26T14:00:42.392Z</time></trkpt><trkpt lat="45.9313408" lon="11.5113629"><ele>1632.0</ele><time>2026-04-26T14:00:43.391Z</time></trkpt><trkpt lat="45.9312911" lon="11.5112742"><ele>1632.0</ele><time>2026-04-26T14:00:44.391Z</time></trkpt><trkpt lat="45.9312498" lon="11.5111703"><ele>1632.0</ele><time>2026-04-26T14:00:45.391Z</time></trkpt><trkpt lat="45.9312182" lon="11.5110528"><ele>1632.0</ele><time>2026-04-26T14:00:46.393Z</time></trkpt><trkpt lat="45.9311935" lon="11.5109297"><ele>1634.1666666666667</ele><time>2026-04-26T14:00:47.394Z</time></trkpt><trkpt lat="45.9311827" lon="11.5108143"><ele>1636.3333333333335</ele><time>2026-04-26T14:00:48.394Z</time></trkpt><trkpt lat="45.9311661" lon="11.5106997"><ele>1638.5</ele><time>2026-04-26T14:00:49.393Z</time></trkpt><trkpt lat="45.9311356" lon="11.5105989"><ele>1640.6666666666667</ele><time>2026-04-26T14:00:50.394Z</time></trkpt><trkpt lat="45.9310428" lon="11.5104711"><ele>1642.8333333333335</ele><time>2026-04-26T14:00:52.394Z</time></trkpt><trkpt lat="45.93099" lon="11.5104171"><ele>1645.0</ele><time>2026-04-26T14:00:53.392Z</time></trkpt><trkpt lat="45.9309214" lon="11.5102693"><ele>1644.1666666666667</ele><time>2026-04-26T14:00:55.394Z</time></trkpt><trkpt lat="45.930905" lon="11.5101797"><ele>1643.3333333333335</ele><time>2026-04-26T14:00:56.391Z</time></trkpt><trkpt lat="45.9308974" lon="11.510077"><ele>1642.5</ele><time>2026-04-26T14:00:57.394Z</time></trkpt><trkpt lat="45.9308922" lon="11.509959"><ele>1641.6666666666665</ele><time>2026-04-26T14:00:58.392Z</time></trkpt><trkpt lat="45.9308829" lon="11.5098429"><ele>1640.8333333333333</ele><time>2026-04-26T14:00:59.392Z</time></trkpt><trkpt lat="45.9308636" lon="11.5097387"><ele>1640.0</ele><time>2026-04-26T14:01:00.393Z</time></trkpt><trkpt lat="45.9307831" lon="11.5096109"><ele>1641.8333333333333</ele><time>2026-04-26T14:01:02.393Z</time></trkpt><trkpt lat="45.9307288" lon="11.5095578"><ele>1643.6666666666665</ele><time>2026-04-26T14:01:03.394Z</time></trkpt><trkpt lat="45.9306655" lon="11.5094978"><ele>1645.5</ele><time>2026-04-26T14:01:04.391Z</time></trkpt><trkpt lat="45.9306111" lon="11.5094451"><ele>1647.3333333333335</ele><time>2026-04-26T14:01:05.394Z</time></trkpt><trkpt lat="45.930555" lon="11.5093929"><ele>1649.1666666666667</ele><time>2026-04-26T14:01:06.393Z</time></trkpt><trkpt lat="45.9304928" lon="11.5093487"><ele>1651.0</ele><time>2026-04-26T14:01:07.39Z</time></trkpt><trkpt lat="45.9303824" lon="11.5093319"><ele>1651.0</ele><time>2026-04-26T14:01:09.39Z</time></trkpt><trkpt lat="45.9302616" lon="11.5094269"><ele>1651.0</ele><time>2026-04-26T14:01:11.395Z</time></trkpt><trkpt lat="45.9301238" lon="11.5095791"><ele>1651.0</ele><time>2026-04-26T14:01:13.395Z</time></trkpt><trkpt lat="45.9300607" lon="11.5096344"><ele>1651.0</ele><time>2026-04-26T14:01:14.391Z</time></trkpt><trkpt lat="45.9299902" lon="11.509681"><ele>1649.1999999999998</ele><time>2026-04-26T14:01:15.393Z</time></trkpt><trkpt lat="45.9299134" lon="11.5097022"><ele>1647.3999999999999</ele><time>2026-04-26T14:01:16.395Z</time></trkpt><trkpt lat="45.929825" lon="11.5097164"><ele>1645.6</ele><time>2026-04-26T14:01:17.393Z</time></trkpt><trkpt lat="45.9297357" lon="11.5097166"><ele>1643.8</ele><time>2026-04-26T14:01:18.395Z</time></trkpt><trkpt lat="45.9296351" lon="11.5097034"><ele>1642.0</ele><time>2026-04-26T14:01:19.396Z</time></trkpt><trkpt lat="45.9295271" lon="11.5096893"><ele>1642.0</ele><time>2026-04-26T14:01:20.393Z</time></trkpt><trkpt lat="45.9294117" lon="11.509686"><ele>1642.0</ele><time>2026-04-26T14:01:21.397Z</time></trkpt><trkpt lat="45.9292966" lon="11.5096919"><ele>1642.0</ele><time>2026-04-26T14:01:22.394Z</time></trkpt><trkpt lat="45.9291823" lon="11.5097025"><ele>1642.0</ele><time>2026-04-26T14:01:23.399Z</time></trkpt><trkpt lat="45.9290695" lon="11.5097135"><ele>1643.8333333333335</ele><time>2026-04-26T14:01:24.398Z</time></trkpt><trkpt lat="45.9289707" lon="11.5097321"><ele>1645.6666666666667</ele><time>2026-04-26T14:01:25.399Z</time></trkpt><trkpt lat="45.9288947" lon="11.5097741"><ele>1647.5</ele><time>2026-04-26T14:01:26.396Z</time></trkpt><trkpt lat="45.9288272" lon="11.5098437"><ele>1649.3333333333335</ele><time>2026-04-26T14:01:27.398Z</time></trkpt><trkpt lat="45.9287541" lon="11.5099086"><ele>1651.1666666666667</ele><time>2026-04-26T14:01:28.4Z</time></trkpt><trkpt lat="45.9286677" lon="11.5099611"><ele>1653.0</ele><time>2026-04-26T14:01:29.397Z</time></trkpt><trkpt lat="45.9285669" lon="11.5100096"><ele>1653.0</ele><time>2026-04-26T14:01:30.397Z</time></trkpt><trkpt lat="45.9284748" lon="11.5100436"><ele>1653.0</ele><time>2026-04-26T14:01:31.398Z</time></trkpt><trkpt lat="45.9283847" lon="11.510082"><ele>1653.0</ele><time>2026-04-26T14:01:32.396Z</time></trkpt><trkpt lat="45.928227" lon="11.5101366"><ele>1653.0</ele><time>2026-04-26T14:01:34.395Z</time></trkpt><trkpt lat="45.9281455" lon="11.5101448"><ele>1653.0</ele><time>2026-04-26T14:01:35.398Z</time></trkpt><trkpt lat="45.9280652" lon="11.5101502"><ele>1654.3333333333333</ele><time>2026-04-26T14:01:36.4Z</time></trkpt><trkpt lat="45.9279968" lon="11.5101529"><ele>1655.6666666666665</ele><time>2026-04-26T14:01:37.399Z</time></trkpt><trkpt lat="45.927927" lon="11.51016"><ele>1657.0</ele><time>2026-04-26T14:01:38.396Z</time></trkpt><trkpt lat="45.9278137" lon="11.5101613"><ele>1658.3333333333333</ele><time>2026-04-26T14:01:40.395Z</time></trkpt><trkpt lat="45.9277287" lon="11.5101533"><ele>1659.6666666666665</ele><time>2026-04-26T14:01:42.397Z</time></trkpt><trkpt lat="45.9276593" lon="11.5101599"><ele>1661.0</ele><time>2026-04-26T14:01:44.396Z</time></trkpt><trkpt lat="45.9276436" lon="11.510257"><ele>1661.0</ele><time>2026-04-26T14:01:47.397Z</time></trkpt><trkpt lat="45.9277332" lon="11.5102348"><ele>1661.0</ele><time>2026-04-26T14:17:24.401Z</time></trkpt><trkpt lat="45.9278988" lon="11.5101774"><ele>1661.0</ele><time>2026-04-26T14:17:28.396Z</time></trkpt><trkpt lat="45.9280045" lon="11.5101708"><ele>1661.0</ele><time>2026-04-26T14:17:30.397Z</time></trkpt><trkpt lat="45.9281043" lon="11.5101575"><ele>1661.0</ele><time>2026-04-26T14:17:32.398Z</time></trkpt><trkpt lat="45.9282079" lon="11.5101537"><ele>1661.0</ele><time>2026-04-26T14:17:34.398Z</time></trkpt><trkpt lat="45.9283138" lon="11.5101373"><ele>1661.0</ele><time>2026-04-26T14:17:36.397Z</time></trkpt><trkpt lat="45.9284199" lon="11.5100882"><ele>1661.0</ele><time>2026-04-26T14:17:38.397Z</time></trkpt><trkpt lat="45.9285258" lon="11.5100383"><ele>1661.0</ele><time>2026-04-26T14:17:40.397Z</time></trkpt><trkpt lat="45.9286097" lon="11.5099973"><ele>1659.0</ele><time>2026-04-26T14:17:42.397Z</time></trkpt><trkpt lat="45.928691" lon="11.509958"><ele>1657.0</ele><time>2026-04-26T14:17:44.398Z</time></trkpt><trkpt lat="45.9287867" lon="11.5098897"><ele>1655.0</ele><time>2026-04-26T14:17:46.399Z</time></trkpt><trkpt lat="45.928992" lon="11.5097258"><ele>1653.0</ele><time>2026-04-26T14:17:50.399Z</time></trkpt><trkpt lat="45.9291285" lon="11.5097157"><ele>1653.0</ele><time>2026-04-26T14:17:52.397Z</time></trkpt><trkpt lat="45.9291953" lon="11.5097099"><ele>1653.0</ele><time>2026-04-26T14:17:53.396Z</time></trkpt><trkpt lat="45.9292627" lon="11.5097027"><ele>1653.0</ele><time>2026-04-26T14:17:54.398Z</time></trkpt><trkpt lat="45.929337" lon="11.5096942"><ele>1653.0</ele><time>2026-04-26T14:17:55.398Z</time></trkpt><trkpt lat="45.9294125" lon="11.5096924"><ele>1653.0</ele><time>2026-04-26T14:17:56.397Z</time></trkpt><trkpt lat="45.9294833" lon="11.5096931"><ele>1653.0</ele><time>2026-04-26T14:17:57.398Z</time></trkpt><trkpt lat="45.929548" lon="11.5096943"><ele>1653.0</ele><time>2026-04-26T14:17:58.398Z</time></trkpt><trkpt lat="45.9296127" lon="11.5097004"><ele>1652.6000000000001</ele><time>2026-04-26T14:17:59.396Z</time></trkpt><trkpt lat="45.9297328" lon="11.5097229"><ele>1652.2</ele><time>2026-04-26T14:18:01.396Z</time></trkpt><trkpt lat="45.9298498" lon="11.5097008"><ele>1651.8</ele><time>2026-04-26T14:18:03.396Z</time></trkpt><trkpt lat="45.9299541" lon="11.5096733"><ele>1651.4</ele><time>2026-04-26T14:18:05.397Z</time></trkpt><trkpt lat="45.930046" lon="11.5096285"><ele>1651.0</ele><time>2026-04-26T14:18:07.396Z</time></trkpt><trkpt lat="45.9302007" lon="11.5094581"><ele>1651.0000000000002</ele><time>2026-04-26T14:18:11.397Z</time></trkpt><trkpt lat="45.9302479" lon="11.5093869"><ele>1651.0</ele><time>2026-04-26T14:18:12.397Z</time></trkpt><trkpt lat="45.9303017" lon="11.5093369"><ele>1651.0</ele><time>2026-04-26T14:18:13.398Z</time></trkpt><trkpt lat="45.9303766" lon="11.509321"><ele>1651.0</ele><time>2026-04-26T14:18:15.395Z</time></trkpt><trkpt lat="45.930462" lon="11.5093575"><ele>1651.0000000000002</ele><time>2026-04-26T14:18:17.395Z</time></trkpt><trkpt lat="45.9305338" lon="11.5094263"><ele>1651.0</ele><time>2026-04-26T14:18:19.396Z</time></trkpt><trkpt lat="45.9306473" lon="11.5095395"><ele>1649.1666666666667</ele><time>2026-04-26T14:18:21.398Z</time></trkpt><trkpt lat="45.9307062" lon="11.5096046"><ele>1647.3333333333335</ele><time>2026-04-26T14:18:22.398Z</time></trkpt><trkpt lat="45.9307593" lon="11.5096655"><ele>1645.5</ele><time>2026-04-26T14:18:23.399Z</time></trkpt><trkpt lat="45.9308287" lon="11.5098213"><ele>1643.6666666666665</ele><time>2026-04-26T14:18:25.398Z</time></trkpt><trkpt lat="45.9308467" lon="11.509912"><ele>1641.8333333333333</ele><time>2026-04-26T14:18:26.399Z</time></trkpt><trkpt lat="45.930849" lon="11.5100051"><ele>1640.0</ele><time>2026-04-26T14:18:27.398Z</time></trkpt><trkpt lat="45.9308612" lon="11.5101797"><ele>1641.25</ele><time>2026-04-26T14:18:29.398Z</time></trkpt><trkpt lat="45.9310034" lon="11.5104195"><ele>1642.5</ele><time>2026-04-26T14:18:33.398Z</time></trkpt><trkpt lat="45.931087" lon="11.5105048"><ele>1643.75</ele><time>2026-04-26T14:18:35.398Z</time></trkpt><trkpt lat="45.9311387" lon="11.510647"><ele>1645.0</ele><time>2026-04-26T14:18:37.398Z</time></trkpt><trkpt lat="45.931155" lon="11.5107374"><ele>1645.0000000000002</ele><time>2026-04-26T14:18:38.399Z</time></trkpt><trkpt lat="45.9311695" lon="11.5108282"><ele>1645.0</ele><time>2026-04-26T14:18:39.4Z</time></trkpt><trkpt lat="45.9311873" lon="11.5109302"><ele>1645.0</ele><time>2026-04-26T14:18:40.398Z</time></trkpt><trkpt lat="45.9312116" lon="11.511043"><ele>1645.0</ele><time>2026-04-26T14:18:41.397Z</time></trkpt><trkpt lat="45.9312469" lon="11.5111475"><ele>1645.0000000000002</ele><time>2026-04-26T14:18:42.397Z</time></trkpt><trkpt lat="45.9312948" lon="11.5112385"><ele>1645.0</ele><time>2026-04-26T14:18:43.395Z</time></trkpt><trkpt lat="45.9313513" lon="11.5113221"><ele>1642.8333333333335</ele><time>2026-04-26T14:18:44.396Z</time></trkpt><trkpt lat="45.9314114" lon="11.5113951"><ele>1640.6666666666667</ele><time>2026-04-26T14:18:45.4Z</time></trkpt><trkpt lat="45.931464" lon="11.5114552"><ele>1638.5</ele><time>2026-04-26T14:18:46.397Z</time></trkpt><trkpt lat="45.9315133" lon="11.5115143"><ele>1636.3333333333335</ele><time>2026-04-26T14:18:47.397Z</time></trkpt><trkpt lat="45.9315557" lon="11.5115814"><ele>1634.1666666666667</ele><time>2026-04-26T14:18:48.398Z</time></trkpt><trkpt lat="45.9316343" lon="11.5117291"><ele>1632.0</ele><time>2026-04-26T14:18:50.397Z</time></trkpt><trkpt lat="45.9316606" lon="11.5119813"><ele>1631.0</ele><time>2026-04-26T14:18:53.396Z</time></trkpt><trkpt lat="45.9316692" lon="11.5121754"><ele>1630.0</ele><time>2026-04-26T14:18:55.396Z</time></trkpt><trkpt lat="45.9316626" lon="11.5123007"><ele>1629.0</ele><time>2026-04-26T14:18:56.399Z</time></trkpt><trkpt lat="45.9316486" lon="11.5124181"><ele>1628.0</ele><time>2026-04-26T14:18:57.397Z</time></trkpt><trkpt lat="45.9316398" lon="11.5125251"><ele>1627.0</ele><time>2026-04-26T14:18:58.396Z</time></trkpt><trkpt lat="45.9316286" lon="11.51263"><ele>1627.0000000000002</ele><time>2026-04-26T14:18:59.396Z</time></trkpt><trkpt lat="45.931614" lon="11.5127422"><ele>1627.0</ele><time>2026-04-26T14:19:00.397Z</time></trkpt><trkpt lat="45.9315953" lon="11.5128514"><ele>1627.0</ele><time>2026-04-26T14:19:01.396Z</time></trkpt><trkpt lat="45.9315634" lon="11.5129591"><ele>1627.0</ele><time>2026-04-26T14:19:02.396Z</time></trkpt><trkpt lat="45.931531" lon="11.5130722"><ele>1627.0000000000002</ele><time>2026-04-26T14:19:03.396Z</time></trkpt><trkpt lat="45.931495" lon="11.5131968"><ele>1627.0</ele><time>2026-04-26T14:19:04.396Z</time></trkpt><trkpt lat="45.9314547" lon="11.5133169"><ele>1627.6</ele><time>2026-04-26T14:19:05.393Z</time></trkpt><trkpt lat="45.931415" lon="11.5134289"><ele>1628.1999999999998</ele><time>2026-04-26T14:19:06.395Z</time></trkpt><trkpt lat="45.9313715" lon="11.5135295"><ele>1628.8</ele><time>2026-04-26T14:19:07.394Z</time></trkpt><trkpt lat="45.9313271" lon="11.5136088"><ele>1629.4</ele><time>2026-04-26T14:19:08.394Z</time></trkpt><trkpt lat="45.9312592" lon="11.51375"><ele>1630.0</ele><time>2026-04-26T14:19:10.396Z</time></trkpt><trkpt lat="45.9312222" lon="11.5139081"><ele>1630.6</ele><time>2026-04-26T14:19:12.396Z</time></trkpt><trkpt lat="45.9312036" lon="11.5141699"><ele>1631.2</ele><time>2026-04-26T14:19:15.396Z</time></trkpt><trkpt lat="45.931215" lon="11.5142616"><ele>1631.8000000000002</ele><time>2026-04-26T14:19:16.397Z</time></trkpt><trkpt lat="45.9312288" lon="11.5143537"><ele>1632.4</ele><time>2026-04-26T14:19:17.395Z</time></trkpt><trkpt lat="45.9312434" lon="11.5145308"><ele>1633.0</ele><time>2026-04-26T14:19:19.398Z</time></trkpt><trkpt lat="45.9312226" lon="11.5146326"><ele>1633.0000000000002</ele><time>2026-04-26T14:19:20.396Z</time></trkpt><trkpt lat="45.9311969" lon="11.5147352"><ele>1633.0</ele><time>2026-04-26T14:19:21.397Z</time></trkpt><trkpt lat="45.9311734" lon="11.5148319"><ele>1633.0</ele><time>2026-04-26T14:19:22.395Z</time></trkpt><trkpt lat="45.9311515" lon="11.5149297"><ele>1633.0</ele><time>2026-04-26T14:19:23.397Z</time></trkpt><trkpt lat="45.9311244" lon="11.5150366"><ele>1633.0000000000002</ele><time>2026-04-26T14:19:24.398Z</time></trkpt><trkpt lat="45.9310932" lon="11.5151542"><ele>1633.0</ele><time>2026-04-26T14:19:25.394Z</time></trkpt><trkpt lat="45.931058" lon="11.515266"><ele>1633.0000000000002</ele><time>2026-04-26T14:19:26.396Z</time></trkpt><trkpt lat="45.9310257" lon="11.5153783"><ele>1633.0</ele><time>2026-04-26T14:19:27.397Z</time></trkpt><trkpt lat="45.9309936" lon="11.5154832"><ele>1633.0</ele><time>2026-04-26T14:19:28.397Z</time></trkpt><trkpt lat="45.9309503" lon="11.5155836"><ele>1633.0</ele><time>2026-04-26T14:19:29.395Z</time></trkpt><trkpt lat="45.9309009" lon="11.5156741"><ele>1633.0000000000002</ele><time>2026-04-26T14:19:30.395Z</time></trkpt><trkpt lat="45.930844" lon="11.5157529"><ele>1633.0</ele><time>2026-04-26T14:19:31.395Z</time></trkpt><trkpt lat="45.9307841" lon="11.5158369"><ele>1629.8000000000002</ele><time>2026-04-26T14:19:32.394Z</time></trkpt><trkpt lat="45.9307259" lon="11.5159123"><ele>1626.6</ele><time>2026-04-26T14:19:33.398Z</time></trkpt><trkpt lat="45.9306237" lon="11.5160557"><ele>1623.4</ele><time>2026-04-26T14:19:35.397Z</time></trkpt><trkpt lat="45.9305803" lon="11.516131"><ele>1620.1999999999998</ele><time>2026-04-26T14:19:36.397Z</time></trkpt><trkpt lat="45.9305558" lon="11.5162146"><ele>1617.0</ele><time>2026-04-26T14:19:37.397Z</time></trkpt><trkpt lat="45.9305498" lon="11.5163916"><ele>1616.5</ele><time>2026-04-26T14:19:39.396Z</time></trkpt><trkpt lat="45.9305611" lon="11.5164851"><ele>1616.0</ele><time>2026-04-26T14:19:40.396Z</time></trkpt><trkpt lat="45.9305881" lon="11.5165687"><ele>1615.5</ele><time>2026-04-26T14:19:41.396Z</time></trkpt><trkpt lat="45.9306228" lon="11.516645"><ele>1615.0</ele><time>2026-04-26T14:19:42.395Z</time></trkpt><trkpt lat="45.9306928" lon="11.5167872"><ele>1614.5</ele><time>2026-04-26T14:19:44.396Z</time></trkpt><trkpt lat="45.9307574" lon="11.5169385"><ele>1614.0</ele><time>2026-04-26T14:19:46.395Z</time></trkpt><trkpt lat="45.9308127" lon="11.517094"><ele>1616.25</ele><time>2026-04-26T14:19:48.396Z</time></trkpt><trkpt lat="45.9308582" lon="11.5172436"><ele>1618.5</ele><time>2026-04-26T14:19:50.396Z</time></trkpt><trkpt lat="45.9308964" lon="11.5173789"><ele>1620.75</ele><time>2026-04-26T14:19:52.395Z</time></trkpt><trkpt lat="45.9309366" lon="11.5174977"><ele>1623.0</ele><time>2026-04-26T14:19:54.395Z</time></trkpt><trkpt lat="45.9310399" lon="11.5176871"><ele>1623.0</ele><time>2026-04-26T14:19:58.397Z</time></trkpt><trkpt lat="45.9310853" lon="11.5177574"><ele>1623.0</ele><time>2026-04-26T14:20:00.395Z</time></trkpt><trkpt lat="45.9311441" lon="11.5178277"><ele>1623.0</ele><time>2026-04-26T14:20:02.395Z</time></trkpt><trkpt lat="45.9311983" lon="11.5178922"><ele>1623.0</ele><time>2026-04-26T14:20:04.395Z</time></trkpt><trkpt lat="45.9312553" lon="11.5179971"><ele>1623.0</ele><time>2026-04-26T14:20:07.398Z</time></trkpt><trkpt lat="45.9312863" lon="11.5181146"><ele>1623.0</ele><time>2026-04-26T14:20:09.396Z</time></trkpt><trkpt lat="45.931316" lon="11.5183091"><ele>1618.8000000000002</ele><time>2026-04-26T14:20:11.396Z</time></trkpt><trkpt lat="45.9313192" lon="11.5184248"><ele>1614.6</ele><time>2026-04-26T14:20:12.397Z</time></trkpt><trkpt lat="45.9313201" lon="11.5185436"><ele>1610.4</ele><time>2026-04-26T14:20:13.397Z</time></trkpt><trkpt lat="45.9313193" lon="11.5186583"><ele>1606.1999999999998</ele><time>2026-04-26T14:20:14.395Z</time></trkpt><trkpt lat="45.9313158" lon="11.5187749"><ele>1602.0</ele><time>2026-04-26T14:20:15.397Z</time></trkpt><trkpt lat="45.9313314" lon="11.51902"><ele>1600.6666666666667</ele><time>2026-04-26T14:20:17.396Z</time></trkpt><trkpt lat="45.9313392" lon="11.5191358"><ele>1599.3333333333335</ele><time>2026-04-26T14:20:18.397Z</time></trkpt><trkpt lat="45.9313465" lon="11.5192443"><ele>1598.0</ele><time>2026-04-26T14:20:19.395Z</time></trkpt><trkpt lat="45.9313488" lon="11.5193483"><ele>1596.6666666666667</ele><time>2026-04-26T14:20:20.394Z</time></trkpt><trkpt lat="45.9313408" lon="11.5194456"><ele>1595.3333333333335</ele><time>2026-04-26T14:20:21.394Z</time></trkpt><trkpt lat="45.9313126" lon="11.5196193"><ele>1594.0</ele><time>2026-04-26T14:20:23.398Z</time></trkpt><trkpt lat="45.931305" lon="11.5197612"><ele>1592.5000000000002</ele><time>2026-04-26T14:20:25.196Z</time></trkpt><trkpt lat="45.931324" lon="11.519851"><ele>1591.0</ele><time>2026-04-26T14:20:26.396Z</time></trkpt><trkpt lat="45.9313831" lon="11.5199841"><ele>1589.5</ele><time>2026-04-26T14:20:28.396Z</time></trkpt><trkpt lat="45.9314703" lon="11.5201041"><ele>1588.0</ele><time>2026-04-26T14:20:30.398Z</time></trkpt><trkpt lat="45.9315153" lon="11.5201721"><ele>1586.5000000000002</ele><time>2026-04-26T14:20:31.399Z</time></trkpt><trkpt lat="45.9315573" lon="11.5202482"><ele>1585.0</ele><time>2026-04-26T14:20:32.397Z</time></trkpt><trkpt lat="45.9316009" lon="11.5203228"><ele>1585.0000000000002</ele><time>2026-04-26T14:20:33.397Z</time></trkpt><trkpt lat="45.9316446" lon="11.5203947"><ele>1585.0</ele><time>2026-04-26T14:20:34.397Z</time></trkpt><trkpt lat="45.9316936" lon="11.5204558"><ele>1585.0</ele><time>2026-04-26T14:20:35.398Z</time></trkpt><trkpt lat="45.9317467" lon="11.5205079"><ele>1585.0</ele><time>2026-04-26T14:20:36.398Z</time></trkpt><trkpt lat="45.9318796" lon="11.5206323"><ele>1585.0000000000002</ele><time>2026-04-26T14:20:38.397Z</time></trkpt><trkpt lat="45.9319476" lon="11.5207012"><ele>1585.0</ele><time>2026-04-26T14:20:39.395Z</time></trkpt><trkpt lat="45.9320088" lon="11.5207805"><ele>1584.3333333333335</ele><time>2026-04-26T14:20:40.396Z</time></trkpt><trkpt lat="45.9320612" lon="11.5208704"><ele>1583.6666666666667</ele><time>2026-04-26T14:20:41.394Z</time></trkpt><trkpt lat="45.9321178" lon="11.5209552"><ele>1583.0</ele><time>2026-04-26T14:20:42.397Z</time></trkpt><trkpt lat="45.9321732" lon="11.5210431"><ele>1582.3333333333335</ele><time>2026-04-26T14:20:43.394Z</time></trkpt><trkpt lat="45.9322304" lon="11.5211294"><ele>1581.6666666666667</ele><time>2026-04-26T14:20:44.395Z</time></trkpt><trkpt lat="45.9322866" lon="11.5211987"><ele>1581.0</ele><time>2026-04-26T14:20:45.396Z</time></trkpt><trkpt lat="45.9323443" lon="11.5212628"><ele>1577.5</ele><time>2026-04-26T14:20:46.394Z</time></trkpt><trkpt lat="45.9324077" lon="11.5213176"><ele>1574.0</ele><time>2026-04-26T14:20:47.395Z</time></trkpt><trkpt lat="45.9324771" lon="11.5213742"><ele>1570.5</ele><time>2026-04-26T14:20:48.397Z</time></trkpt><trkpt lat="45.932547" lon="11.5214272"><ele>1567.0</ele><time>2026-04-26T14:20:49.397Z</time></trkpt><trkpt lat="45.9326197" lon="11.5214722"><ele>1563.5</ele><time>2026-04-26T14:20:50.397Z</time></trkpt><trkpt lat="45.9326915" lon="11.5215168"><ele>1560.0</ele><time>2026-04-26T14:20:51.397Z</time></trkpt><trkpt lat="45.9327646" lon="11.5215516"><ele>1560.0</ele><time>2026-04-26T14:20:52.394Z</time></trkpt><trkpt lat="45.9328338" lon="11.5215892"><ele>1560.0</ele><time>2026-04-26T14:20:53.394Z</time></trkpt><trkpt lat="45.9329036" lon="11.5216309"><ele>1560.0</ele><time>2026-04-26T14:20:54.395Z</time></trkpt><trkpt lat="45.9329684" lon="11.5216758"><ele>1560.0</ele><time>2026-04-26T14:20:55.395Z</time></trkpt><trkpt lat="45.9330315" lon="11.5217271"><ele>1560.0</ele><time>2026-04-26T14:20:56.397Z</time></trkpt><trkpt lat="45.9330961" lon="11.5217787"><ele>1560.0</ele><time>2026-04-26T14:20:57.395Z</time></trkpt><trkpt lat="45.9332193" lon="11.5218732"><ele>1560.0</ele><time>2026-04-26T14:20:59.393Z</time></trkpt><trkpt lat="45.9333025" lon="11.521963"><ele>1560.0</ele><time>2026-04-26T14:21:01.394Z</time></trkpt><trkpt lat="45.9332966" lon="11.522073"><ele>1560.0</ele><time>2026-04-26T14:21:04.395Z</time></trkpt><trkpt lat="45.9331789" lon="11.5220914"><ele>1560.0</ele><time>2026-04-26T14:21:06.394Z</time></trkpt><trkpt lat="45.9330942" lon="11.5220779"><ele>1560.0</ele><time>2026-04-26T14:21:07.395Z</time></trkpt><trkpt lat="45.9330114" lon="11.5220443"><ele>1560.0</ele><time>2026-04-26T14:21:08.394Z</time></trkpt><trkpt lat="45.9329353" lon="11.5220117"><ele>1560.0</ele><time>2026-04-26T14:21:09.394Z</time></trkpt><trkpt lat="45.932864" lon="11.5219959"><ele>1560.0</ele><time>2026-04-26T14:21:10.393Z</time></trkpt><trkpt lat="45.9327903" lon="11.5220002"><ele>1560.0</ele><time>2026-04-26T14:21:11.393Z</time></trkpt><trkpt lat="45.9327194" lon="11.5220208"><ele>1560.0</ele><time>2026-04-26T14:21:12.396Z</time></trkpt><trkpt lat="45.9326484" lon="11.5220372"><ele>1560.0</ele><time>2026-04-26T14:21:13.396Z</time></trkpt><trkpt lat="45.9325779" lon="11.5220566"><ele>1560.0</ele><time>2026-04-26T14:21:14.395Z</time></trkpt><trkpt lat="45.9325085" lon="11.5220791"><ele>1558.5</ele><time>2026-04-26T14:21:15.396Z</time></trkpt><trkpt lat="45.9324414" lon="11.5220964"><ele>1557.0</ele><time>2026-04-26T14:21:16.395Z</time></trkpt><trkpt lat="45.9323776" lon="11.5221057"><ele>1555.5</ele><time>2026-04-26T14:21:17.397Z</time></trkpt><trkpt lat="45.9323117" lon="11.5221042"><ele>1554.0</ele><time>2026-04-26T14:21:18.395Z</time></trkpt><trkpt lat="45.9321714" lon="11.5220629"><ele>1552.5</ele><time>2026-04-26T14:21:20.393Z</time></trkpt><trkpt lat="45.9321016" lon="11.5220213"><ele>1551.0</ele><time>2026-04-26T14:21:21.395Z</time></trkpt><trkpt lat="45.9320337" lon="11.5219656"><ele>1551.0</ele><time>2026-04-26T14:21:22.395Z</time></trkpt><trkpt lat="45.931962" lon="11.5219083"><ele>1551.0</ele><time>2026-04-26T14:21:23.393Z</time></trkpt><trkpt lat="45.931891" lon="11.5218534"><ele>1551.0</ele><time>2026-04-26T14:21:24.393Z</time></trkpt><trkpt lat="45.9318293" lon="11.5217912"><ele>1551.0</ele><time>2026-04-26T14:21:25.396Z</time></trkpt><trkpt lat="45.931764" lon="11.5217189"><ele>1551.0</ele><time>2026-04-26T14:21:26.393Z</time></trkpt><trkpt lat="45.9316933" lon="11.5216731"><ele>1551.0</ele><time>2026-04-26T14:21:27.394Z</time></trkpt><trkpt lat="45.9316087" lon="11.5216507"><ele>1548.3333333333333</ele><time>2026-04-26T14:21:28.396Z</time></trkpt><trkpt lat="45.931525" lon="11.521634"><ele>1545.6666666666667</ele><time>2026-04-26T14:21:29.393Z</time></trkpt><trkpt lat="45.9314399" lon="11.5216177"><ele>1543.0</ele><time>2026-04-26T14:21:30.394Z</time></trkpt><trkpt lat="45.9313524" lon="11.5216079"><ele>1540.3333333333335</ele><time>2026-04-26T14:21:31.393Z</time></trkpt><trkpt lat="45.9312621" lon="11.5216333"><ele>1537.6666666666667</ele><time>2026-04-26T14:21:32.392Z</time></trkpt><trkpt lat="45.9311744" lon="11.5216519"><ele>1535.0</ele><time>2026-04-26T14:21:33.392Z</time></trkpt><trkpt lat="45.9310815" lon="11.5216634"><ele>1535.0</ele><time>2026-04-26T14:21:34.393Z</time></trkpt><trkpt lat="45.9309849" lon="11.5216618"><ele>1535.0</ele><time>2026-04-26T14:21:35.393Z</time></trkpt><trkpt lat="45.9308844" lon="11.5216787"><ele>1535.0</ele><time>2026-04-26T14:21:36.395Z</time></trkpt><trkpt lat="45.9307881" lon="11.5216964"><ele>1535.0</ele><time>2026-04-26T14:21:37.395Z</time></trkpt><trkpt lat="45.9306923" lon="11.5217193"><ele>1535.0</ele><time>2026-04-26T14:21:38.395Z</time></trkpt><trkpt lat="45.9305962" lon="11.5217488"><ele>1531.6</ele><time>2026-04-26T14:21:39.397Z</time></trkpt><trkpt lat="45.9304322" lon="11.5218606"><ele>1528.2</ele><time>2026-04-26T14:21:41.393Z</time></trkpt><trkpt lat="45.930372" lon="11.5219398"><ele>1524.8000000000002</ele><time>2026-04-26T14:21:42.393Z</time></trkpt><trkpt lat="45.9303229" lon="11.5220056"><ele>1521.4</ele><time>2026-04-26T14:21:43.395Z</time></trkpt><trkpt lat="45.9302223" lon="11.5220766"><ele>1518.0</ele><time>2026-04-26T14:21:45.394Z</time></trkpt><trkpt lat="45.9301401" lon="11.5220843"><ele>1513.0</ele><time>2026-04-26T14:21:46.395Z</time></trkpt><trkpt lat="45.9300403" lon="11.5220891"><ele>1508.0</ele><time>2026-04-26T14:21:47.394Z</time></trkpt><trkpt lat="45.9299412" lon="11.5221109"><ele>1503.0</ele><time>2026-04-26T14:21:48.394Z</time></trkpt><trkpt lat="45.9298325" lon="11.5221481"><ele>1498.0</ele><time>2026-04-26T14:21:49.395Z</time></trkpt><trkpt lat="45.9297046" lon="11.5221908"><ele>1493.0</ele><time>2026-04-26T14:21:50.396Z</time></trkpt><trkpt lat="45.9295717" lon="11.5222369"><ele>1493.0</ele><time>2026-04-26T14:21:51.396Z</time></trkpt><trkpt lat="45.9294402" lon="11.5222921"><ele>1493.0</ele><time>2026-04-26T14:21:52.396Z</time></trkpt><trkpt lat="45.9293214" lon="11.5223576"><ele>1493.0</ele><time>2026-04-26T14:21:53.395Z</time></trkpt><trkpt lat="45.9292118" lon="11.5224128"><ele>1493.0</ele><time>2026-04-26T14:21:54.395Z</time></trkpt><trkpt lat="45.9291106" lon="11.5224601"><ele>1492.6000000000001</ele><time>2026-04-26T14:21:55.394Z</time></trkpt><trkpt lat="45.9290157" lon="11.5225026"><ele>1492.2</ele><time>2026-04-26T14:21:56.393Z</time></trkpt><trkpt lat="45.9289234" lon="11.5225519"><ele>1491.8</ele><time>2026-04-26T14:21:57.392Z</time></trkpt><trkpt lat="45.928839" lon="11.5226094"><ele>1491.4</ele><time>2026-04-26T14:21:58.392Z</time></trkpt><trkpt lat="45.9287612" lon="11.5226815"><ele>1491.0</ele><time>2026-04-26T14:21:59.391Z</time></trkpt><trkpt lat="45.928687" lon="11.5227448"><ele>1491.0</ele><time>2026-04-26T14:22:00.394Z</time></trkpt><trkpt lat="45.9285382" lon="11.5228259"><ele>1491.0</ele><time>2026-04-26T14:22:02.395Z</time></trkpt><trkpt lat="45.9284462" lon="11.5228397"><ele>1491.0</ele><time>2026-04-26T14:22:03.394Z</time></trkpt><trkpt lat="45.928344" lon="11.5228419"><ele>1491.0</ele><time>2026-04-26T14:22:04.396Z</time></trkpt><trkpt lat="45.9282409" lon="11.5228336"><ele>1491.3333333333333</ele><time>2026-04-26T14:22:05.396Z</time></trkpt><trkpt lat="45.9281469" lon="11.5228254"><ele>1491.6666666666667</ele><time>2026-04-26T14:22:06.395Z</time></trkpt><trkpt lat="45.928065" lon="11.5228202"><ele>1492.0</ele><time>2026-04-26T14:22:07.393Z</time></trkpt><trkpt lat="45.9279841" lon="11.5228246"><ele>1492.3333333333335</ele><time>2026-04-26T14:22:08.396Z</time></trkpt><trkpt lat="45.9278988" lon="11.5228465"><ele>1492.6666666666667</ele><time>2026-04-26T14:22:09.396Z</time></trkpt><trkpt lat="45.9278028" lon="11.5228799"><ele>1493.0</ele><time>2026-04-26T14:22:10.396Z</time></trkpt><trkpt lat="45.9277053" lon="11.5229002"><ele>1492.8000000000002</ele><time>2026-04-26T14:22:11.394Z</time></trkpt><trkpt lat="45.9275983" lon="11.5229069"><ele>1492.6</ele><time>2026-04-26T14:22:12.396Z</time></trkpt><trkpt lat="45.9274968" lon="11.5229061"><ele>1492.4</ele><time>2026-04-26T14:22:13.397Z</time></trkpt><trkpt lat="45.9274048" lon="11.5229028"><ele>1492.1999999999998</ele><time>2026-04-26T14:22:14.393Z</time></trkpt><trkpt lat="45.9273235" lon="11.5228874"><ele>1492.0</ele><time>2026-04-26T14:22:15.394Z</time></trkpt><trkpt lat="45.9272479" lon="11.5228565"><ele>1492.0</ele><time>2026-04-26T14:22:16.395Z</time></trkpt><trkpt lat="45.9271726" lon="11.5228167"><ele>1492.0</ele><time>2026-04-26T14:22:17.397Z</time></trkpt><trkpt lat="45.9270919" lon="11.5227688"><ele>1492.0</ele><time>2026-04-26T14:22:18.398Z</time></trkpt><trkpt lat="45.9270081" lon="11.5227186"><ele>1492.0</ele><time>2026-04-26T14:22:19.398Z</time></trkpt><trkpt lat="45.9269244" lon="11.5226769"><ele>1492.0</ele><time>2026-04-26T14:22:20.396Z</time></trkpt><trkpt lat="45.9268421" lon="11.5226436"><ele>1492.0</ele><time>2026-04-26T14:22:21.395Z</time></trkpt><trkpt lat="45.926677" lon="11.5225555"><ele>1490.3333333333333</ele><time>2026-04-26T14:22:23.392Z</time></trkpt><trkpt lat="45.9265948" lon="11.5225391"><ele>1488.6666666666665</ele><time>2026-04-26T14:22:24.393Z</time></trkpt><trkpt lat="45.9265133" lon="11.5225448"><ele>1487.0</ele><time>2026-04-26T14:22:25.397Z</time></trkpt><trkpt lat="45.926431" lon="11.5225634"><ele>1485.3333333333333</ele><time>2026-04-26T14:22:26.393Z</time></trkpt><trkpt lat="45.9263408" lon="11.5225939"><ele>1483.6666666666667</ele><time>2026-04-26T14:22:27.396Z</time></trkpt><trkpt lat="45.9262439" lon="11.5226277"><ele>1482.0</ele><time>2026-04-26T14:22:28.394Z</time></trkpt><trkpt lat="45.9261439" lon="11.5226559"><ele>1482.0</ele><time>2026-04-26T14:22:29.393Z</time></trkpt><trkpt lat="45.9260481" lon="11.5226841"><ele>1482.0</ele><time>2026-04-26T14:22:30.395Z</time></trkpt><trkpt lat="45.9259571" lon="11.5227136"><ele>1482.0</ele><time>2026-04-26T14:22:31.396Z</time></trkpt><trkpt lat="45.9258685" lon="11.5227381"><ele>1482.0</ele><time>2026-04-26T14:22:32.395Z</time></trkpt><trkpt lat="45.9257851" lon="11.5227624"><ele>1482.0</ele><time>2026-04-26T14:22:33.396Z</time></trkpt><trkpt lat="45.9257082" lon="11.5227846"><ele>1482.0</ele><time>2026-04-26T14:22:34.393Z</time></trkpt><trkpt lat="45.9256268" lon="11.522801"><ele>1481.0</ele><time>2026-04-26T14:22:35.395Z</time></trkpt><trkpt lat="45.9255423" lon="11.5228044"><ele>1480.0</ele><time>2026-04-26T14:22:36.395Z</time></trkpt><trkpt lat="45.9254585" lon="11.5227955"><ele>1479.0</ele><time>2026-04-26T14:22:37.396Z</time></trkpt><trkpt lat="45.9253726" lon="11.522776"><ele>1478.0</ele><time>2026-04-26T14:22:38.395Z</time></trkpt><trkpt lat="45.9252857" lon="11.5227549"><ele>1477.0</ele><time>2026-04-26T14:22:39.396Z</time></trkpt><trkpt lat="45.9252005" lon="11.5227526"><ele>1476.0</ele><time>2026-04-26T14:22:40.396Z</time></trkpt><trkpt lat="45.925112" lon="11.5227639"><ele>1475.0</ele><time>2026-04-26T14:22:41.396Z</time></trkpt><trkpt lat="45.9250222" lon="11.5227891"><ele>1474.0</ele><time>2026-04-26T14:22:42.396Z</time></trkpt><trkpt lat="45.9248212" lon="11.5229014"><ele>1473.0</ele><time>2026-04-26T14:22:44.393Z</time></trkpt><trkpt lat="45.924726" lon="11.5229536"><ele>1472.0</ele><time>2026-04-26T14:22:45.393Z</time></trkpt><trkpt lat="45.92463" lon="11.5230045"><ele>1467.0</ele><time>2026-04-26T14:22:46.391Z</time></trkpt><trkpt lat="45.9245344" lon="11.5230394"><ele>1462.0</ele><time>2026-04-26T14:22:47.393Z</time></trkpt><trkpt lat="45.9244415" lon="11.523063"><ele>1457.0</ele><time>2026-04-26T14:22:48.394Z</time></trkpt><trkpt lat="45.924343" lon="11.5230833"><ele>1452.0</ele><time>2026-04-26T14:22:49.396Z</time></trkpt><trkpt lat="45.9242413" lon="11.5231011"><ele>1447.0</ele><time>2026-04-26T14:22:50.395Z</time></trkpt><trkpt lat="45.9241437" lon="11.5231175"><ele>1446.8</ele><time>2026-04-26T14:22:51.397Z</time></trkpt><trkpt lat="45.9240404" lon="11.5231445"><ele>1446.6</ele><time>2026-04-26T14:22:52.395Z</time></trkpt><trkpt lat="45.9239468" lon="11.5231841"><ele>1446.3999999999999</ele><time>2026-04-26T14:22:53.396Z</time></trkpt><trkpt lat="45.9238644" lon="11.5232327"><ele>1446.1999999999998</ele><time>2026-04-26T14:22:54.395Z</time></trkpt><trkpt lat="45.9237813" lon="11.5232907"><ele>1446.0</ele><time>2026-04-26T14:22:55.393Z</time></trkpt><trkpt lat="45.9237031" lon="11.523349"><ele>1446.0</ele><time>2026-04-26T14:22:56.393Z</time></trkpt><trkpt lat="45.9236247" lon="11.5233755"><ele>1446.0</ele><time>2026-04-26T14:22:57.395Z</time></trkpt><trkpt lat="45.9235493" lon="11.5234046"><ele>1446.0</ele><time>2026-04-26T14:22:58.394Z</time></trkpt><trkpt lat="45.923466" lon="11.5234107"><ele>1446.0</ele><time>2026-04-26T14:22:59.393Z</time></trkpt><trkpt lat="45.9233698" lon="11.52342"><ele>1446.0</ele><time>2026-04-26T14:23:00.394Z</time></trkpt><trkpt lat="45.9232764" lon="11.5234476"><ele>1446.0</ele><time>2026-04-26T14:23:01.394Z</time></trkpt><trkpt lat="45.9231755" lon="11.5235018"><ele>1447.75</ele><time>2026-04-26T14:23:02.395Z</time></trkpt><trkpt lat="45.9230743" lon="11.5235667"><ele>1449.5</ele><time>2026-04-26T14:23:03.396Z</time></trkpt><trkpt lat="45.9228861" lon="11.5237446"><ele>1451.25</ele><time>2026-04-26T14:23:05.394Z</time></trkpt><trkpt lat="45.9228005" lon="11.5238196"><ele>1453.0</ele><time>2026-04-26T14:23:06.395Z</time></trkpt><trkpt lat="45.9227184" lon="11.5238858"><ele>1452.0</ele><time>2026-04-26T14:23:07.393Z</time></trkpt><trkpt lat="45.9226265" lon="11.5239462"><ele>1451.0</ele><time>2026-04-26T14:23:08.394Z</time></trkpt><trkpt lat="45.9225283" lon="11.5240016"><ele>1450.0</ele><time>2026-04-26T14:23:09.394Z</time></trkpt><trkpt lat="45.922432" lon="11.5240757"><ele>1449.0</ele><time>2026-04-26T14:23:10.393Z</time></trkpt><trkpt lat="45.9223272" lon="11.5241737"><ele>1448.0</ele><time>2026-04-26T14:23:11.392Z</time></trkpt><trkpt lat="45.9222329" lon="11.5242823"><ele>1448.0</ele><time>2026-04-26T14:23:12.391Z</time></trkpt><trkpt lat="45.9221553" lon="11.5243828"><ele>1448.0</ele><time>2026-04-26T14:23:13.393Z</time></trkpt><trkpt lat="45.9220752" lon="11.5244693"><ele>1448.0</ele><time>2026-04-26T14:23:14.394Z</time></trkpt><trkpt lat="45.9220066" lon="11.5245348"><ele>1448.0</ele><time>2026-04-26T14:23:15.394Z</time></trkpt><trkpt lat="45.9219337" lon="11.5245996"><ele>1448.0</ele><time>2026-04-26T14:23:16.395Z</time></trkpt><trkpt lat="45.9218591" lon="11.5246694"><ele>1447.3333333333335</ele><time>2026-04-26T14:23:17.394Z</time></trkpt><trkpt lat="45.9217859" lon="11.524716"><ele>1446.6666666666667</ele><time>2026-04-26T14:23:18.394Z</time></trkpt><trkpt lat="45.9217135" lon="11.524754"><ele>1446.0</ele><time>2026-04-26T14:23:19.394Z</time></trkpt><trkpt lat="45.9216523" lon="11.5247792"><ele>1445.3333333333333</ele><time>2026-04-26T14:23:20.394Z</time></trkpt><trkpt lat="45.9215859" lon="11.5248168"><ele>1444.6666666666665</ele><time>2026-04-26T14:23:21.396Z</time></trkpt><trkpt lat="45.9214962" lon="11.5248714"><ele>1444.0</ele><time>2026-04-26T14:23:22.395Z</time></trkpt><trkpt lat="45.9213959" lon="11.5249394"><ele>1444.0</ele><time>2026-04-26T14:23:23.395Z</time></trkpt><trkpt lat="45.9212979" lon="11.5250115"><ele>1444.0</ele><time>2026-04-26T14:23:24.394Z</time></trkpt><trkpt lat="45.9210927" lon="11.5251417"><ele>1444.0</ele><time>2026-04-26T14:23:26.396Z</time></trkpt><trkpt lat="45.9209952" lon="11.5252101"><ele>1444.0</ele><time>2026-04-26T14:23:27.396Z</time></trkpt><trkpt lat="45.9209057" lon="11.5252822"><ele>1442.5</ele><time>2026-04-26T14:23:28.396Z</time></trkpt><trkpt lat="45.9208264" lon="11.5253677"><ele>1441.0</ele><time>2026-04-26T14:23:29.396Z</time></trkpt><trkpt lat="45.9207489" lon="11.5254996"><ele>1439.5</ele><time>2026-04-26T14:23:30.397Z</time></trkpt><trkpt lat="45.9206722" lon="11.5256431"><ele>1438.0</ele><time>2026-04-26T14:23:31.397Z</time></trkpt><trkpt lat="45.9206032" lon="11.5257646"><ele>1438.0</ele><time>2026-04-26T14:23:32.396Z</time></trkpt><trkpt lat="45.9205426" lon="11.5258645"><ele>1438.0</ele><time>2026-04-26T14:23:33.397Z</time></trkpt><trkpt lat="45.9204779" lon="11.5259519"><ele>1438.0</ele><time>2026-04-26T14:23:34.395Z</time></trkpt><trkpt lat="45.9204039" lon="11.5260378"><ele>1438.0</ele><time>2026-04-26T14:23:35.395Z</time></trkpt><trkpt lat="45.9203281" lon="11.5261164"><ele>1438.0</ele><time>2026-04-26T14:23:36.396Z</time></trkpt><trkpt lat="45.9202494" lon="11.5261823"><ele>1435.3333333333333</ele><time>2026-04-26T14:23:37.394Z</time></trkpt><trkpt lat="45.9201785" lon="11.5262341"><ele>1432.6666666666665</ele><time>2026-04-26T14:23:38.394Z</time></trkpt><trkpt lat="45.9201096" lon="11.5262658"><ele>1430.0</ele><time>2026-04-26T14:23:39.396Z</time></trkpt><trkpt lat="45.9200414" lon="11.5262808"><ele>1427.3333333333333</ele><time>2026-04-26T14:23:40.396Z</time></trkpt><trkpt lat="45.9199617" lon="11.5262763"><ele>1424.6666666666667</ele><time>2026-04-26T14:23:41.398Z</time></trkpt><trkpt lat="45.9198695" lon="11.5262571"><ele>1422.0</ele><time>2026-04-26T14:23:42.397Z</time></trkpt><trkpt lat="45.9197692" lon="11.5262304"><ele>1425.6</ele><time>2026-04-26T14:23:43.399Z</time></trkpt><trkpt lat="45.9196753" lon="11.5261978"><ele>1429.1999999999998</ele><time>2026-04-26T14:23:44.397Z</time></trkpt><trkpt lat="45.9195891" lon="11.5261482"><ele>1432.8</ele><time>2026-04-26T14:23:45.397Z</time></trkpt><trkpt lat="45.9194266" lon="11.5260724"><ele>1436.4</ele><time>2026-04-26T14:23:47.396Z</time></trkpt><trkpt lat="45.9193528" lon="11.5260409"><ele>1440.0</ele><time>2026-04-26T14:23:48.397Z</time></trkpt><trkpt lat="45.919289" lon="11.5259989"><ele>1438.2</ele><time>2026-04-26T14:23:49.397Z</time></trkpt><trkpt lat="45.9191914" lon="11.5259185"><ele>1436.4</ele><time>2026-04-26T14:23:51.397Z</time></trkpt><trkpt lat="45.9191103" lon="11.5258434"><ele>1434.6</ele><time>2026-04-26T14:23:53.397Z</time></trkpt><trkpt lat="45.9190322" lon="11.5257701"><ele>1432.8</ele><time>2026-04-26T14:23:55.396Z</time></trkpt><trkpt lat="45.9189408" lon="11.5256921"><ele>1431.0</ele><time>2026-04-26T14:23:57.399Z</time></trkpt><trkpt lat="45.9188763" lon="11.525639"><ele>1431.0</ele><time>2026-04-26T14:23:58.396Z</time></trkpt><trkpt lat="45.9187907" lon="11.5255994"><ele>1431.0</ele><time>2026-04-26T14:23:59.396Z</time></trkpt><trkpt lat="45.9186894" lon="11.5255772"><ele>1431.0</ele><time>2026-04-26T14:24:00.395Z</time></trkpt><trkpt lat="45.918578" lon="11.525568"><ele>1431.0</ele><time>2026-04-26T14:24:01.396Z</time></trkpt><trkpt lat="45.9184708" lon="11.5255586"><ele>1431.0</ele><time>2026-04-26T14:24:02.396Z</time></trkpt><trkpt lat="45.9183677" lon="11.525532"><ele>1432.25</ele><time>2026-04-26T14:24:03.398Z</time></trkpt><trkpt lat="45.9182618" lon="11.525489"><ele>1433.5</ele><time>2026-04-26T14:24:04.397Z</time></trkpt><trkpt lat="45.9181657" lon="11.5254383"><ele>1434.75</ele><time>2026-04-26T14:24:05.397Z</time></trkpt><trkpt lat="45.9180692" lon="11.5253817"><ele>1436.0</ele><time>2026-04-26T14:24:06.398Z</time></trkpt><trkpt lat="45.9178667" lon="11.5253002"><ele>1436.0</ele><time>2026-04-26T14:24:08.397Z</time></trkpt><trkpt lat="45.9177608" lon="11.5252651"><ele>1436.0</ele><time>2026-04-26T14:24:09.398Z</time></trkpt><trkpt lat="45.9176554" lon="11.5252206"><ele>1436.0</ele><time>2026-04-26T14:24:10.397Z</time></trkpt><trkpt lat="45.9175585" lon="11.5251821"><ele>1436.0</ele><time>2026-04-26T14:24:11.396Z</time></trkpt><trkpt lat="45.9174674" lon="11.5251526"><ele>1436.0</ele><time>2026-04-26T14:24:12.397Z</time></trkpt><trkpt lat="45.9173731" lon="11.5251176"><ele>1433.5</ele><time>2026-04-26T14:24:13.398Z</time></trkpt><trkpt lat="45.9172804" lon="11.5250712"><ele>1431.0</ele><time>2026-04-26T14:24:14.398Z</time></trkpt><trkpt lat="45.9171903" lon="11.525014"><ele>1428.5</ele><time>2026-04-26T14:24:15.399Z</time></trkpt><trkpt lat="45.9171085" lon="11.5249528"><ele>1426.0</ele><time>2026-04-26T14:24:16.397Z</time></trkpt><trkpt lat="45.9170359" lon="11.5248991"><ele>1423.5</ele><time>2026-04-26T14:24:17.396Z</time></trkpt><trkpt lat="45.9169698" lon="11.5248645"><ele>1421.0</ele><time>2026-04-26T14:24:18.397Z</time></trkpt><trkpt lat="45.9168694" lon="11.5248257"><ele>1421.0</ele><time>2026-04-26T14:24:20.397Z</time></trkpt><trkpt lat="45.9167631" lon="11.5247852"><ele>1421.0</ele><time>2026-04-26T14:24:22.396Z</time></trkpt><trkpt lat="45.916676" lon="11.5247347"><ele>1421.0</ele><time>2026-04-26T14:24:24.394Z</time></trkpt><trkpt lat="45.9165926" lon="11.5246765"><ele>1421.0</ele><time>2026-04-26T14:24:26.394Z</time></trkpt><trkpt lat="45.9164939" lon="11.5245686"><ele>1421.0</ele><time>2026-04-26T14:24:28.398Z</time></trkpt><trkpt lat="45.9163707" lon="11.5244603"><ele>1420.1999999999998</ele><time>2026-04-26T14:24:30.397Z</time></trkpt><trkpt lat="45.9162932" lon="11.5244221"><ele>1419.3999999999999</ele><time>2026-04-26T14:24:31.397Z</time></trkpt><trkpt lat="45.916194" lon="11.5243856"><ele>1418.6</ele><time>2026-04-26T14:24:32.397Z</time></trkpt><trkpt lat="45.9160755" lon="11.5243265"><ele>1417.8</ele><time>2026-04-26T14:24:33.396Z</time></trkpt><trkpt lat="45.9159598" lon="11.5242686"><ele>1417.0</ele><time>2026-04-26T14:24:34.397Z</time></trkpt><trkpt lat="45.9158355" lon="11.5242336"><ele>1411.75</ele><time>2026-04-26T14:24:35.396Z</time></trkpt><trkpt lat="45.9157018" lon="11.5242101"><ele>1406.5</ele><time>2026-04-26T14:24:36.396Z</time></trkpt><trkpt lat="45.9155817" lon="11.5241816"><ele>1401.25</ele><time>2026-04-26T14:24:37.398Z</time></trkpt><trkpt lat="45.9154641" lon="11.5241455"><ele>1396.0</ele><time>2026-04-26T14:24:38.398Z</time></trkpt><trkpt lat="45.9153495" lon="11.5241134"><ele>1396.0</ele><time>2026-04-26T14:24:39.397Z</time></trkpt><trkpt lat="45.9152279" lon="11.5240838"><ele>1396.0</ele><time>2026-04-26T14:24:40.396Z</time></trkpt><trkpt lat="45.9151105" lon="11.5240415"><ele>1396.0</ele><time>2026-04-26T14:24:41.397Z</time></trkpt><trkpt lat="45.9149982" lon="11.5240186"><ele>1396.0</ele><time>2026-04-26T14:24:42.399Z</time></trkpt><trkpt lat="45.9148729" lon="11.5240196"><ele>1393.25</ele><time>2026-04-26T14:24:43.398Z</time></trkpt><trkpt lat="45.9147513" lon="11.5240224"><ele>1390.5</ele><time>2026-04-26T14:24:44.398Z</time></trkpt><trkpt lat="45.9146324" lon="11.5240235"><ele>1387.75</ele><time>2026-04-26T14:24:45.396Z</time></trkpt><trkpt lat="45.9145046" lon="11.5240345"><ele>1385.0</ele><time>2026-04-26T14:24:46.396Z</time></trkpt><trkpt lat="45.9143783" lon="11.5240446"><ele>1385.0</ele><time>2026-04-26T14:24:47.395Z</time></trkpt><trkpt lat="45.9142674" lon="11.5240585"><ele>1385.0</ele><time>2026-04-26T14:24:48.394Z</time></trkpt><trkpt lat="45.9141605" lon="11.5240684"><ele>1385.0</ele><time>2026-04-26T14:24:49.393Z</time></trkpt><trkpt lat="45.9139614" lon="11.5240709"><ele>1385.0</ele><time>2026-04-26T14:24:51.394Z</time></trkpt><trkpt lat="45.9138661" lon="11.5240927"><ele>1382.6</ele><time>2026-04-26T14:24:52.395Z</time></trkpt><trkpt lat="45.9137813" lon="11.5240992"><ele>1380.2</ele><time>2026-04-26T14:24:53.395Z</time></trkpt><trkpt lat="45.9137012" lon="11.5240861"><ele>1377.8000000000002</ele><time>2026-04-26T14:24:54.395Z</time></trkpt><trkpt lat="45.913611" lon="11.5240399"><ele>1375.4</ele><time>2026-04-26T14:24:55.396Z</time></trkpt><trkpt lat="45.9134994" lon="11.5240197"><ele>1373.0</ele><time>2026-04-26T14:24:56.397Z</time></trkpt><trkpt lat="45.9133806" lon="11.5240328"><ele>1370.25</ele><time>2026-04-26T14:24:57.395Z</time></trkpt><trkpt lat="45.9132608" lon="11.5240562"><ele>1367.5</ele><time>2026-04-26T14:24:58.396Z</time></trkpt><trkpt lat="45.9131499" lon="11.5240866"><ele>1364.75</ele><time>2026-04-26T14:24:59.395Z</time></trkpt><trkpt lat="45.9130357" lon="11.5241026"><ele>1362.0</ele><time>2026-04-26T14:25:00.394Z</time></trkpt><trkpt lat="45.9129151" lon="11.524134"><ele>1362.0</ele><time>2026-04-26T14:25:01.395Z</time></trkpt><trkpt lat="45.9128044" lon="11.5241942"><ele>1362.0</ele><time>2026-04-26T14:25:02.396Z</time></trkpt><trkpt lat="45.9127032" lon="11.5242543"><ele>1362.0</ele><time>2026-04-26T14:25:03.397Z</time></trkpt><trkpt lat="45.9126024" lon="11.5243028"><ele>1362.0</ele><time>2026-04-26T14:25:04.396Z</time></trkpt><trkpt lat="45.9124761" lon="11.5243227"><ele>1358.75</ele><time>2026-04-26T14:25:05.395Z</time></trkpt><trkpt lat="45.9123349" lon="11.5243144"><ele>1355.5</ele><time>2026-04-26T14:25:06.396Z</time></trkpt><trkpt lat="45.9121874" lon="11.5243196"><ele>1352.25</ele><time>2026-04-26T14:25:07.394Z</time></trkpt><trkpt lat="45.9120426" lon="11.5243266"><ele>1349.0</ele><time>2026-04-26T14:25:08.395Z</time></trkpt><trkpt lat="45.9118949" lon="11.5243363"><ele>1349.0</ele><time>2026-04-26T14:25:09.395Z</time></trkpt><trkpt lat="45.9117426" lon="11.5243535"><ele>1349.0</ele><time>2026-04-26T14:25:10.394Z</time></trkpt><trkpt lat="45.9114578" lon="11.5243875"><ele>1349.0</ele><time>2026-04-26T14:25:12.394Z</time></trkpt><trkpt lat="45.9113424" lon="11.5243826"><ele>1344.25</ele><time>2026-04-26T14:25:13.395Z</time></trkpt><trkpt lat="45.9112197" lon="11.5243661"><ele>1339.5</ele><time>2026-04-26T14:25:14.395Z</time></trkpt><trkpt lat="45.9110825" lon="11.5243364"><ele>1334.75</ele><time>2026-04-26T14:25:15.397Z</time></trkpt><trkpt lat="45.9109329" lon="11.5243006"><ele>1330.0</ele><time>2026-04-26T14:25:16.396Z</time></trkpt><trkpt lat="45.9107855" lon="11.524258"><ele>1325.75</ele><time>2026-04-26T14:25:17.397Z</time></trkpt><trkpt lat="45.9106688" lon="11.5242394"><ele>1321.5</ele><time>2026-04-26T14:25:18.198Z</time></trkpt><trkpt lat="45.9104921" lon="11.5242188"><ele>1317.25</ele><time>2026-04-26T14:25:19.397Z</time></trkpt><trkpt lat="45.910345" lon="11.5242104"><ele>1313.0</ele><time>2026-04-26T14:25:20.398Z</time></trkpt><trkpt lat="45.9101942" lon="11.5242079"><ele>1307.6666666666667</ele><time>2026-04-26T14:25:21.4Z</time></trkpt><trkpt lat="45.9100383" lon="11.5242205"><ele>1302.3333333333333</ele><time>2026-04-26T14:25:22.399Z</time></trkpt><trkpt lat="45.9098847" lon="11.5242485"><ele>1297.0</ele><time>2026-04-26T14:25:23.397Z</time></trkpt><trkpt lat="45.9097399" lon="11.5242872"><ele>1297.0</ele><time>2026-04-26T14:25:24.398Z</time></trkpt><trkpt lat="45.9096031" lon="11.5243281"><ele>1297.0</ele><time>2026-04-26T14:25:25.397Z</time></trkpt><trkpt lat="45.9094604" lon="11.5243622"><ele>1297.0</ele><time>2026-04-26T14:25:26.396Z</time></trkpt><trkpt lat="45.9093188" lon="11.5243751"><ele>1297.0</ele><time>2026-04-26T14:25:27.397Z</time></trkpt><trkpt lat="45.9091848" lon="11.5243798"><ele>1294.75</ele><time>2026-04-26T14:25:28.397Z</time></trkpt><trkpt lat="45.909054" lon="11.52438"><ele>1292.5</ele><time>2026-04-26T14:25:29.396Z</time></trkpt><trkpt lat="45.9089283" lon="11.5243933"><ele>1290.25</ele><time>2026-04-26T14:25:30.399Z</time></trkpt><trkpt lat="45.9088032" lon="11.5244182"><ele>1288.0</ele><time>2026-04-26T14:25:31.396Z</time></trkpt><trkpt lat="45.9085369" lon="11.5244512"><ele>1284.75</ele><time>2026-04-26T14:25:33.398Z</time></trkpt><trkpt lat="45.9083896" lon="11.5244532"><ele>1281.5</ele><time>2026-04-26T14:25:34.395Z</time></trkpt><trkpt lat="45.9082528" lon="11.5244638"><ele>1278.25</ele><time>2026-04-26T14:25:35.398Z</time></trkpt><trkpt lat="45.9081192" lon="11.5244814"><ele>1275.0</ele><time>2026-04-26T14:25:36.397Z</time></trkpt><trkpt lat="45.9079915" lon="11.5245119"><ele>1275.0</ele><time>2026-04-26T14:25:37.395Z</time></trkpt><trkpt lat="45.9078602" lon="11.5245374"><ele>1275.0</ele><time>2026-04-26T14:25:38.395Z</time></trkpt><trkpt lat="45.9077223" lon="11.5245428"><ele>1275.0</ele><time>2026-04-26T14:25:39.395Z</time></trkpt><trkpt lat="45.9075889" lon="11.5245428"><ele>1275.0</ele><time>2026-04-26T14:25:40.395Z</time></trkpt><trkpt lat="45.9074578" lon="11.5245414"><ele>1271.5</ele><time>2026-04-26T14:25:41.398Z</time></trkpt><trkpt lat="45.9073247" lon="11.5245448"><ele>1268.0</ele><time>2026-04-26T14:25:42.396Z</time></trkpt><trkpt lat="45.9071843" lon="11.5245634"><ele>1264.5</ele><time>2026-04-26T14:25:43.397Z</time></trkpt><trkpt lat="45.9070341" lon="11.5245966"><ele>1261.0</ele><time>2026-04-26T14:25:44.397Z</time></trkpt><trkpt lat="45.906889" lon="11.524626"><ele>1260.75</ele><time>2026-04-26T14:25:45.397Z</time></trkpt><trkpt lat="45.9067469" lon="11.5246569"><ele>1260.5</ele><time>2026-04-26T14:25:46.398Z</time></trkpt><trkpt lat="45.9066032" lon="11.5246919"><ele>1260.25</ele><time>2026-04-26T14:25:47.397Z</time></trkpt><trkpt lat="45.9064563" lon="11.5247278"><ele>1260.0</ele><time>2026-04-26T14:25:48.396Z</time></trkpt><trkpt lat="45.9063166" lon="11.5247664"><ele>1257.75</ele><time>2026-04-26T14:25:49.397Z</time></trkpt><trkpt lat="45.906181" lon="11.5248017"><ele>1255.5</ele><time>2026-04-26T14:25:50.395Z</time></trkpt><trkpt lat="45.9060499" lon="11.5248359"><ele>1253.25</ele><time>2026-04-26T14:25:51.397Z</time></trkpt><trkpt lat="45.905921" lon="11.5248822"><ele>1251.0</ele><time>2026-04-26T14:25:52.397Z</time></trkpt><trkpt lat="45.9056531" lon="11.5249741"><ele>1248.5</ele><time>2026-04-26T14:25:54.4Z</time></trkpt><trkpt lat="45.9055171" lon="11.5250152"><ele>1246.0</ele><time>2026-04-26T14:25:55.398Z</time></trkpt><trkpt lat="45.9053737" lon="11.5250423"><ele>1243.5</ele><time>2026-04-26T14:25:56.398Z</time></trkpt><trkpt lat="45.9052809" lon="11.5250582"><ele>1241.0</ele><time>2026-04-26T14:25:56.996Z</time></trkpt><trkpt lat="45.9050625" lon="11.5251029"><ele>1238.3333333333335</ele><time>2026-04-26T14:25:58.398Z</time></trkpt><trkpt lat="45.9049109" lon="11.5251451"><ele>1235.6666666666667</ele><time>2026-04-26T14:25:59.398Z</time></trkpt><trkpt lat="45.9047654" lon="11.5251839"><ele>1233.0</ele><time>2026-04-26T14:26:00.398Z</time></trkpt><trkpt lat="45.9046162" lon="11.5252238"><ele>1233.0</ele><time>2026-04-26T14:26:01.396Z</time></trkpt><trkpt lat="45.9044643" lon="11.5252682"><ele>1233.0</ele><time>2026-04-26T14:26:02.398Z</time></trkpt><trkpt lat="45.9043041" lon="11.5253252"><ele>1233.0</ele><time>2026-04-26T14:26:03.398Z</time></trkpt><trkpt lat="45.9041311" lon="11.5253782"><ele>1228.6666666666667</ele><time>2026-04-26T14:26:04.396Z</time></trkpt><trkpt lat="45.9039524" lon="11.5254197"><ele>1224.3333333333335</ele><time>2026-04-26T14:26:05.397Z</time></trkpt><trkpt lat="45.9037906" lon="11.525471"><ele>1220.0</ele><time>2026-04-26T14:26:06.398Z</time></trkpt><trkpt lat="45.9036395" lon="11.5255232"><ele>1220.0</ele><time>2026-04-26T14:26:07.398Z</time></trkpt><trkpt lat="45.9034911" lon="11.5255734"><ele>1220.0</ele><time>2026-04-26T14:26:08.398Z</time></trkpt><trkpt lat="45.9033298" lon="11.525619"><ele>1220.0</ele><time>2026-04-26T14:26:09.399Z</time></trkpt><trkpt lat="45.9031688" lon="11.5256651"><ele>1218.3333333333335</ele><time>2026-04-26T14:26:10.399Z</time></trkpt><trkpt lat="45.9030124" lon="11.5257138"><ele>1216.6666666666667</ele><time>2026-04-26T14:26:11.398Z</time></trkpt><trkpt lat="45.9028651" lon="11.5257557"><ele>1215.0</ele><time>2026-04-26T14:26:12.399Z</time></trkpt><trkpt lat="45.9027275" lon="11.5257958"><ele>1213.6666666666667</ele><time>2026-04-26T14:26:13.4Z</time></trkpt><trkpt lat="45.9024966" lon="11.5258704"><ele>1212.3333333333335</ele><time>2026-04-26T14:26:15.401Z</time></trkpt><trkpt lat="45.902391" lon="11.5259085"><ele>1211.0</ele><time>2026-04-26T14:26:16.397Z</time></trkpt><trkpt lat="45.9022818" lon="11.5259312"><ele>1211.0</ele><time>2026-04-26T14:26:17.4Z</time></trkpt><trkpt lat="45.9021653" lon="11.5259421"><ele>1211.0</ele><time>2026-04-26T14:26:18.397Z</time></trkpt><trkpt lat="45.9020555" lon="11.525956"><ele>1211.0</ele><time>2026-04-26T14:26:19.398Z</time></trkpt><trkpt lat="45.9019463" lon="11.5259951"><ele>1211.0</ele><time>2026-04-26T14:26:20.399Z</time></trkpt><trkpt lat="45.9018282" lon="11.5260519"><ele>1209.0</ele><time>2026-04-26T14:26:21.398Z</time></trkpt><trkpt lat="45.9017169" lon="11.5261062"><ele>1207.0</ele><time>2026-04-26T14:26:22.398Z</time></trkpt><trkpt lat="45.9016031" lon="11.5261591"><ele>1205.0</ele><time>2026-04-26T14:26:23.397Z</time></trkpt><trkpt lat="45.901491" lon="11.5262076"><ele>1203.0</ele><time>2026-04-26T14:26:24.398Z</time></trkpt><trkpt lat="45.9013785" lon="11.5262582"><ele>1202.25</ele><time>2026-04-26T14:26:25.397Z</time></trkpt><trkpt lat="45.9012677" lon="11.5262935"><ele>1201.5</ele><time>2026-04-26T14:26:26.396Z</time></trkpt><trkpt lat="45.9011535" lon="11.5263227"><ele>1200.75</ele><time>2026-04-26T14:26:27.396Z</time></trkpt><trkpt lat="45.9010417" lon="11.5263474"><ele>1200.0</ele><time>2026-04-26T14:26:28.395Z</time></trkpt><trkpt lat="45.9009366" lon="11.5263811"><ele>1199.4</ele><time>2026-04-26T14:26:29.397Z</time></trkpt><trkpt lat="45.9008372" lon="11.5264155"><ele>1198.8</ele><time>2026-04-26T14:26:30.398Z</time></trkpt><trkpt lat="45.9007529" lon="11.5264432"><ele>1198.2</ele><time>2026-04-26T14:26:31.4Z</time></trkpt><trkpt lat="45.9006891" lon="11.526465"><ele>1197.6</ele><time>2026-04-26T14:26:32.397Z</time></trkpt><trkpt lat="45.9006166" lon="11.5264676"><ele>1197.0</ele><time>2026-04-26T14:26:34.399Z</time></trkpt><trkpt lat="45.9005076" lon="11.5263475"><ele>1197.0</ele><time>2026-04-26T14:26:40.398Z</time></trkpt><trkpt lat="45.9004562" lon="11.5262679"><ele>1197.0</ele><time>2026-04-26T14:27:02.397Z</time></trkpt><trkpt lat="45.9003611" lon="11.5260925"><ele>1197.0</ele><time>2026-04-26T14:27:06.397Z</time></trkpt><trkpt lat="45.9003187" lon="11.5260242"><ele>1197.0</ele><time>2026-04-26T14:27:09.396Z</time></trkpt><trkpt lat="45.9003505" lon="11.5261241"><ele>1197.0</ele><time>2026-04-26T14:27:19.397Z</time></trkpt><trkpt lat="45.9004399" lon="11.5262869"><ele>1197.0</ele><time>2026-04-26T14:27:21.395Z</time></trkpt><trkpt lat="45.9004829" lon="11.5263537"><ele>1197.0</ele><time>2026-04-26T14:27:22.397Z</time></trkpt><trkpt lat="45.9005467" lon="11.5264286"><ele>1197.0</ele><time>2026-04-26T14:27:24.397Z</time></trkpt><trkpt lat="45.9006192" lon="11.5266404"><ele>1197.0</ele><time>2026-04-26T14:27:30.397Z</time></trkpt><trkpt lat="45.900713" lon="11.5266735"><ele>1197.0</ele><time>2026-04-26T14:27:33.399Z</time></trkpt><trkpt lat="45.9008022" lon="11.526744"><ele>1197.0</ele><time>2026-04-26T14:27:35.397Z</time></trkpt><trkpt lat="45.9009093" lon="11.5268425"><ele>1197.0</ele><time>2026-04-26T14:27:37.397Z</time></trkpt><trkpt lat="45.9009724" lon="11.5268885"><ele>1197.0</ele><time>2026-04-26T14:27:38.398Z</time></trkpt><trkpt lat="45.9010497" lon="11.5269236"><ele>1197.0</ele><time>2026-04-26T14:27:39.395Z</time></trkpt><trkpt lat="45.9011269" lon="11.5269553"><ele>1197.0</ele><time>2026-04-26T14:27:40.396Z</time></trkpt><trkpt lat="45.90121" lon="11.52698"><ele>1197.0</ele><time>2026-04-26T14:27:41.394Z</time></trkpt><trkpt lat="45.9013003" lon="11.5269958"><ele>1197.6</ele><time>2026-04-26T14:27:42.396Z</time></trkpt><trkpt lat="45.9013882" lon="11.5270025"><ele>1198.2</ele><time>2026-04-26T14:27:43.395Z</time></trkpt><trkpt lat="45.9014825" lon="11.5269937"><ele>1198.8</ele><time>2026-04-26T14:27:44.398Z</time></trkpt><trkpt lat="45.9015582" lon="11.5269873"><ele>1199.4</ele><time>2026-04-26T14:27:45.396Z</time></trkpt><trkpt lat="45.9017297" lon="11.5270781"><ele>1200.0</ele><time>2026-04-26T14:27:48.396Z</time></trkpt><trkpt lat="45.9017548" lon="11.5272193"><ele>1196.8</ele><time>2026-04-26T14:27:50.396Z</time></trkpt><trkpt lat="45.901676" lon="11.527389"><ele>1193.6</ele><time>2026-04-26T14:27:52.397Z</time></trkpt><trkpt lat="45.9016122" lon="11.527478"><ele>1190.4</ele><time>2026-04-26T14:27:53.396Z</time></trkpt><trkpt lat="45.9015592" lon="11.527579"><ele>1187.2</ele><time>2026-04-26T14:27:54.395Z</time></trkpt><trkpt lat="45.9015033" lon="11.5276838"><ele>1184.0</ele><time>2026-04-26T14:27:55.395Z</time></trkpt><trkpt lat="45.9014407" lon="11.5277951"><ele>1184.0</ele><time>2026-04-26T14:27:56.396Z</time></trkpt><trkpt lat="45.9013756" lon="11.5278812"><ele>1184.0</ele><time>2026-04-26T14:27:57.395Z</time></trkpt><trkpt lat="45.9013067" lon="11.5279429"><ele>1184.0</ele><time>2026-04-26T14:27:58.394Z</time></trkpt><trkpt lat="45.9012239" lon="11.5279972"><ele>1184.0</ele><time>2026-04-26T14:27:59.396Z</time></trkpt><trkpt lat="45.9011325" lon="11.5280423"><ele>1184.0</ele><time>2026-04-26T14:28:00.394Z</time></trkpt><trkpt lat="45.9010456" lon="11.5280892"><ele>1183.5</ele><time>2026-04-26T14:28:01.396Z</time></trkpt><trkpt lat="45.9009691" lon="11.5281511"><ele>1183.0</ele><time>2026-04-26T14:28:02.397Z</time></trkpt><trkpt lat="45.9009033" lon="11.5282399"><ele>1182.5</ele><time>2026-04-26T14:28:03.396Z</time></trkpt><trkpt lat="45.9008446" lon="11.5283285"><ele>1182.0</ele><time>2026-04-26T14:28:04.395Z</time></trkpt><trkpt lat="45.9008047" lon="11.5284011"><ele>1181.5</ele><time>2026-04-26T14:28:05.396Z</time></trkpt><trkpt lat="45.9007886" lon="11.5285659"><ele>1181.0</ele><time>2026-04-26T14:28:07.396Z</time></trkpt><trkpt lat="45.9008266" lon="11.528816"><ele>1179.2</ele><time>2026-04-26T14:28:09.397Z</time></trkpt><trkpt lat="45.9008443" lon="11.5289292"><ele>1177.3999999999999</ele><time>2026-04-26T14:28:10.397Z</time></trkpt><trkpt lat="45.9008395" lon="11.5290888"><ele>1175.6</ele><time>2026-04-26T14:28:12.398Z</time></trkpt><trkpt lat="45.9008011" lon="11.5291853"><ele>1173.8</ele><time>2026-04-26T14:28:13.397Z</time></trkpt><trkpt lat="45.9007315" lon="11.5293044"><ele>1172.0</ele><time>2026-04-26T14:28:14.397Z</time></trkpt><trkpt lat="45.9006673" lon="11.529425"><ele>1172.0</ele><time>2026-04-26T14:28:15.397Z</time></trkpt><trkpt lat="45.9006115" lon="11.5295355"><ele>1172.0</ele><time>2026-04-26T14:28:16.397Z</time></trkpt><trkpt lat="45.9005681" lon="11.5296394"><ele>1172.0</ele><time>2026-04-26T14:28:17.396Z</time></trkpt><trkpt lat="45.9005279" lon="11.5297424"><ele>1172.0</ele><time>2026-04-26T14:28:18.398Z</time></trkpt><trkpt lat="45.9004876" lon="11.5298559"><ele>1172.0</ele><time>2026-04-26T14:28:19.397Z</time></trkpt><trkpt lat="45.9004453" lon="11.5299833"><ele>1172.0</ele><time>2026-04-26T14:28:20.396Z</time></trkpt><trkpt lat="45.900407" lon="11.5301106"><ele>1171.8333333333335</ele><time>2026-04-26T14:28:21.398Z</time></trkpt><trkpt lat="45.900375" lon="11.5302312"><ele>1171.6666666666667</ele><time>2026-04-26T14:28:22.399Z</time></trkpt><trkpt lat="45.9003453" lon="11.5303461"><ele>1171.5</ele><time>2026-04-26T14:28:23.398Z</time></trkpt><trkpt lat="45.9003157" lon="11.5304608"><ele>1171.3333333333333</ele><time>2026-04-26T14:28:24.396Z</time></trkpt><trkpt lat="45.900286" lon="11.5305751"><ele>1171.1666666666665</ele><time>2026-04-26T14:28:25.398Z</time></trkpt><trkpt lat="45.9002508" lon="11.5306712"><ele>1171.0</ele><time>2026-04-26T14:28:26.396Z</time></trkpt><trkpt lat="45.9002007" lon="11.5307471"><ele>1168.5</ele><time>2026-04-26T14:28:27.397Z</time></trkpt><trkpt lat="45.9001298" lon="11.5308666"><ele>1166.0</ele><time>2026-04-26T14:28:29.394Z</time></trkpt><trkpt lat="45.9001779" lon="11.5311746"><ele>1163.5</ele><time>2026-04-26T14:28:33.399Z</time></trkpt><trkpt lat="45.9002023" lon="11.531285"><ele>1161.0</ele><time>2026-04-26T14:28:35.397Z</time></trkpt><trkpt lat="45.900197" lon="11.5314015"><ele>1159.3999999999999</ele><time>2026-04-26T14:28:38.398Z</time></trkpt><trkpt lat="45.9001445" lon="11.5314688"><ele>1157.8</ele><time>2026-04-26T14:28:40.398Z</time></trkpt><trkpt lat="45.9000163" lon="11.5315516"><ele>1156.1999999999998</ele><time>2026-04-26T14:28:42.399Z</time></trkpt><trkpt lat="45.899927" lon="11.5315857"><ele>1154.6</ele><time>2026-04-26T14:28:43.399Z</time></trkpt><trkpt lat="45.8998242" lon="11.531614"><ele>1153.0</ele><time>2026-04-26T14:28:44.4Z</time></trkpt><trkpt lat="45.8997375" lon="11.5316423"><ele>1150.5</ele><time>2026-04-26T14:28:45.399Z</time></trkpt><trkpt lat="45.8996468" lon="11.5316852"><ele>1148.0</ele><time>2026-04-26T14:28:46.397Z</time></trkpt><trkpt lat="45.8995283" lon="11.5317293"><ele>1145.5</ele><time>2026-04-26T14:28:47.397Z</time></trkpt><trkpt lat="45.8994036" lon="11.5317597"><ele>1143.0</ele><time>2026-04-26T14:28:48.399Z</time></trkpt><trkpt lat="45.8992878" lon="11.5317789"><ele>1140.3333333333333</ele><time>2026-04-26T14:28:49.397Z</time></trkpt><trkpt lat="45.899181" lon="11.5318041"><ele>1137.6666666666665</ele><time>2026-04-26T14:28:50.398Z</time></trkpt><trkpt lat="45.898958" lon="11.531899"><ele>1135.0</ele><time>2026-04-26T14:28:52.398Z</time></trkpt><trkpt lat="45.8988536" lon="11.5319706"><ele>1134.8</ele><time>2026-04-26T14:28:53.397Z</time></trkpt><trkpt lat="45.8987526" lon="11.5320618"><ele>1134.6</ele><time>2026-04-26T14:28:54.397Z</time></trkpt><trkpt lat="45.8986681" lon="11.5321662"><ele>1134.4</ele><time>2026-04-26T14:28:55.398Z</time></trkpt><trkpt lat="45.8985986" lon="11.5322769"><ele>1134.2</ele><time>2026-04-26T14:28:56.397Z</time></trkpt><trkpt lat="45.8985366" lon="11.532396"><ele>1134.0</ele><time>2026-04-26T14:28:57.398Z</time></trkpt><trkpt lat="45.8984814" lon="11.5325174"><ele>1134.0</ele><time>2026-04-26T14:28:58.397Z</time></trkpt><trkpt lat="45.8984205" lon="11.5326225"><ele>1134.0</ele><time>2026-04-26T14:28:59.399Z</time></trkpt><trkpt lat="45.8983404" lon="11.5327152"><ele>1134.0</ele><time>2026-04-26T14:29:00.397Z</time></trkpt><trkpt lat="45.8982541" lon="11.5327916"><ele>1134.0</ele><time>2026-04-26T14:29:01.397Z</time></trkpt><trkpt lat="45.8981452" lon="11.5328596"><ele>1134.0</ele><time>2026-04-26T14:29:02.396Z</time></trkpt><trkpt lat="45.8980236" lon="11.532938"><ele>1135.75</ele><time>2026-04-26T14:29:03.398Z</time></trkpt><trkpt lat="45.8979105" lon="11.5330401"><ele>1137.5</ele><time>2026-04-26T14:29:04.398Z</time></trkpt><trkpt lat="45.8978002" lon="11.5331756"><ele>1139.25</ele><time>2026-04-26T14:29:05.397Z</time></trkpt><trkpt lat="45.897701" lon="11.5333267"><ele>1141.0</ele><time>2026-04-26T14:29:06.399Z</time></trkpt><trkpt lat="45.8976105" lon="11.5334683"><ele>1141.25</ele><time>2026-04-26T14:29:07.4Z</time></trkpt><trkpt lat="45.8975173" lon="11.5336125"><ele>1141.5</ele><time>2026-04-26T14:29:08.398Z</time></trkpt><trkpt lat="45.8974206" lon="11.533761"><ele>1141.75</ele><time>2026-04-26T14:29:09.4Z</time></trkpt><trkpt lat="45.89732" lon="11.5338918"><ele>1142.0</ele><time>2026-04-26T14:29:10.398Z</time></trkpt><trkpt lat="45.8972153" lon="11.533989"><ele>1142.0</ele><time>2026-04-26T14:29:11.398Z</time></trkpt><trkpt lat="45.8970058" lon="11.5341201"><ele>1142.0</ele><time>2026-04-26T14:29:13.398Z</time></trkpt><trkpt lat="45.8969103" lon="11.5342077"><ele>1142.0</ele><time>2026-04-26T14:29:14.397Z</time></trkpt><trkpt lat="45.8968199" lon="11.5343334"><ele>1140.75</ele><time>2026-04-26T14:29:15.399Z</time></trkpt><trkpt lat="45.8967471" lon="11.5344379"><ele>1139.5</ele><time>2026-04-26T14:29:16.198Z</time></trkpt><trkpt lat="45.8966395" lon="11.5345688"><ele>1138.25</ele><time>2026-04-26T14:29:17.395Z</time></trkpt><trkpt lat="45.8965531" lon="11.5346729"><ele>1137.0</ele><time>2026-04-26T14:29:18.395Z</time></trkpt><trkpt lat="45.8964737" lon="11.534793"><ele>1137.0</ele><time>2026-04-26T14:29:19.394Z</time></trkpt><trkpt lat="45.8964086" lon="11.5349117"><ele>1137.0</ele><time>2026-04-26T14:29:20.394Z</time></trkpt><trkpt lat="45.8963371" lon="11.5350023"><ele>1137.0</ele><time>2026-04-26T14:29:21.397Z</time></trkpt><trkpt lat="45.8962479" lon="11.535079"><ele>1137.0</ele><time>2026-04-26T14:29:22.398Z</time></trkpt><trkpt lat="45.8961446" lon="11.5351601"><ele>1137.0</ele><time>2026-04-26T14:29:23.397Z</time></trkpt><trkpt lat="45.89604" lon="11.5352391"><ele>1137.0</ele><time>2026-04-26T14:29:24.398Z</time></trkpt><trkpt lat="45.8959397" lon="11.5353176"><ele>1137.0</ele><time>2026-04-26T14:29:25.398Z</time></trkpt><trkpt lat="45.8958312" lon="11.5353868"><ele>1137.0</ele><time>2026-04-26T14:29:26.401Z</time></trkpt><trkpt lat="45.8957156" lon="11.5354559"><ele>1137.0</ele><time>2026-04-26T14:29:27.399Z</time></trkpt><trkpt lat="45.8955951" lon="11.5355251"><ele>1139.6666666666667</ele><time>2026-04-26T14:29:28.398Z</time></trkpt><trkpt lat="45.8953614" lon="11.5356195"><ele>1142.3333333333335</ele><time>2026-04-26T14:29:30.399Z</time></trkpt><trkpt lat="45.8952434" lon="11.5356679"><ele>1145.0</ele><time>2026-04-26T14:29:31.397Z</time></trkpt><trkpt lat="45.8951319" lon="11.535715"><ele>1143.75</ele><time>2026-04-26T14:29:32.397Z</time></trkpt><trkpt lat="45.8949306" lon="11.5357831"><ele>1142.5</ele><time>2026-04-26T14:29:34.397Z</time></trkpt><trkpt lat="45.8948379" lon="11.5358379"><ele>1141.25</ele><time>2026-04-26T14:29:35.397Z</time></trkpt><trkpt lat="45.8947576" lon="11.535916"><ele>1140.0</ele><time>2026-04-26T14:29:36.397Z</time></trkpt><trkpt lat="45.8946861" lon="11.5360015"><ele>1140.0</ele><time>2026-04-26T14:29:37.399Z</time></trkpt><trkpt lat="45.8946154" lon="11.5360839"><ele>1140.0</ele><time>2026-04-26T14:29:38.397Z</time></trkpt><trkpt lat="45.8945597" lon="11.536157"><ele>1140.0</ele><time>2026-04-26T14:29:39.399Z</time></trkpt><trkpt lat="45.8945088" lon="11.5362318"><ele>1140.0</ele><time>2026-04-26T14:29:40.401Z</time></trkpt><trkpt lat="45.8944423" lon="11.536314"><ele>1140.0</ele><time>2026-04-26T14:29:41.399Z</time></trkpt><trkpt lat="45.894272" lon="11.5365127"><ele>1140.0</ele><time>2026-04-26T14:29:43.397Z</time></trkpt><trkpt lat="45.8941668" lon="11.5366214"><ele>1140.0</ele><time>2026-04-26T14:29:44.396Z</time></trkpt><trkpt lat="45.8940397" lon="11.5367445"><ele>1140.0</ele><time>2026-04-26T14:29:45.401Z</time></trkpt><trkpt lat="45.8939114" lon="11.5368756"><ele>1140.0</ele><time>2026-04-26T14:29:46.402Z</time></trkpt><trkpt lat="45.8937882" lon="11.537002"><ele>1140.25</ele><time>2026-04-26T14:29:47.401Z</time></trkpt><trkpt lat="45.8936661" lon="11.5371103"><ele>1140.5</ele><time>2026-04-26T14:29:48.401Z</time></trkpt><trkpt lat="45.8935408" lon="11.5371912"><ele>1140.75</ele><time>2026-04-26T14:29:49.398Z</time></trkpt><trkpt lat="45.8934139" lon="11.5372429"><ele>1141.0</ele><time>2026-04-26T14:29:50.399Z</time></trkpt><trkpt lat="45.8932851" lon="11.537269"><ele>1141.0</ele><time>2026-04-26T14:29:51.401Z</time></trkpt><trkpt lat="45.8931483" lon="11.537309"><ele>1141.0</ele><time>2026-04-26T14:29:52.4Z</time></trkpt><trkpt lat="45.8930008" lon="11.5373817"><ele>1141.0</ele><time>2026-04-26T14:29:53.399Z</time></trkpt><trkpt lat="45.8927108" lon="11.537527"><ele>1138.5</ele><time>2026-04-26T14:29:55.399Z</time></trkpt><trkpt lat="45.8925725" lon="11.5375785"><ele>1136.0</ele><time>2026-04-26T14:29:56.397Z</time></trkpt><trkpt lat="45.8924388" lon="11.5376023"><ele>1133.5</ele><time>2026-04-26T14:29:57.399Z</time></trkpt><trkpt lat="45.8923128" lon="11.537609"><ele>1131.0</ele><time>2026-04-26T14:29:58.399Z</time></trkpt><trkpt lat="45.8921968" lon="11.5376145"><ele>1131.0</ele><time>2026-04-26T14:29:59.397Z</time></trkpt><trkpt lat="45.8920906" lon="11.5376322"><ele>1131.0</ele><time>2026-04-26T14:30:00.4Z</time></trkpt><trkpt lat="45.8919932" lon="11.53767"><ele>1131.0</ele><time>2026-04-26T14:30:01.401Z</time></trkpt><trkpt lat="45.8919049" lon="11.5377356"><ele>1131.0</ele><time>2026-04-26T14:30:02.398Z</time></trkpt><trkpt lat="45.8918126" lon="11.5378253"><ele>1131.0</ele><time>2026-04-26T14:30:03.4Z</time></trkpt><trkpt lat="45.8917209" lon="11.5379453"><ele>1130.75</ele><time>2026-04-26T14:30:04.402Z</time></trkpt><trkpt lat="45.891644" lon="11.5380842"><ele>1130.5</ele><time>2026-04-26T14:30:05.402Z</time></trkpt><trkpt lat="45.8915758" lon="11.5382214"><ele>1130.25</ele><time>2026-04-26T14:30:06.399Z</time></trkpt><trkpt lat="45.8915043" lon="11.5383423"><ele>1130.0</ele><time>2026-04-26T14:30:07.399Z</time></trkpt><trkpt lat="45.8914224" lon="11.5384424"><ele>1130.0</ele><time>2026-04-26T14:30:08.395Z</time></trkpt><trkpt lat="45.8913231" lon="11.5385241"><ele>1130.0</ele><time>2026-04-26T14:30:09.398Z</time></trkpt><trkpt lat="45.8912108" lon="11.5385942"><ele>1130.0</ele><time>2026-04-26T14:30:10.399Z</time></trkpt><trkpt lat="45.8910865" lon="11.5386516"><ele>1130.0</ele><time>2026-04-26T14:30:11.4Z</time></trkpt><trkpt lat="45.8909574" lon="11.5386908"><ele>1128.0</ele><time>2026-04-26T14:30:12.4Z</time></trkpt><trkpt lat="45.8908265" lon="11.5387172"><ele>1126.0</ele><time>2026-04-26T14:30:13.4Z</time></trkpt><trkpt lat="45.8906979" lon="11.5387353"><ele>1124.0</ele><time>2026-04-26T14:30:14.4Z</time></trkpt><trkpt lat="45.8904839" lon="11.5387211"><ele>1124.0</ele><time>2026-04-26T14:30:16.398Z</time></trkpt><trkpt lat="45.8904004" lon="11.5386898"><ele>1124.0</ele><time>2026-04-26T14:30:17.4Z</time></trkpt><trkpt lat="45.890329" lon="11.5386798"><ele>1124.0</ele><time>2026-04-26T14:30:18.403Z</time></trkpt><trkpt lat="45.8902491" lon="11.5387713"><ele>1124.0</ele><time>2026-04-26T14:30:20.397Z</time></trkpt><trkpt lat="45.890311" lon="11.5389143"><ele>1124.0</ele><time>2026-04-26T14:30:22.398Z</time></trkpt><trkpt lat="45.8903958" lon="11.5389758"><ele>1121.25</ele><time>2026-04-26T14:30:23.397Z</time></trkpt><trkpt lat="45.8905105" lon="11.539048"><ele>1118.5</ele><time>2026-04-26T14:30:24.398Z</time></trkpt><trkpt lat="45.890643" lon="11.5391254"><ele>1115.75</ele><time>2026-04-26T14:30:25.398Z</time></trkpt><trkpt lat="45.8907747" lon="11.5391989"><ele>1113.0</ele><time>2026-04-26T14:30:26.396Z</time></trkpt><trkpt lat="45.8909027" lon="11.5392778"><ele>1115.25</ele><time>2026-04-26T14:30:27.4Z</time></trkpt><trkpt lat="45.8910197" lon="11.5393804"><ele>1117.5</ele><time>2026-04-26T14:30:28.398Z</time></trkpt><trkpt lat="45.8911218" lon="11.539509"><ele>1119.75</ele><time>2026-04-26T14:30:29.396Z</time></trkpt><trkpt lat="45.8912147" lon="11.5396493"><ele>1122.0</ele><time>2026-04-26T14:30:30.396Z</time></trkpt><trkpt lat="45.8913038" lon="11.5397868"><ele>1117.0</ele><time>2026-04-26T14:30:31.396Z</time></trkpt><trkpt lat="45.8913885" lon="11.5399137"><ele>1112.0</ele><time>2026-04-26T14:30:32.395Z</time></trkpt><trkpt lat="45.8914806" lon="11.5400234"><ele>1107.0</ele><time>2026-04-26T14:30:33.395Z</time></trkpt><trkpt lat="45.8915935" lon="11.5401125"><ele>1102.0</ele><time>2026-04-26T14:30:34.396Z</time></trkpt><trkpt lat="45.8917344" lon="11.5401888"><ele>1098.0</ele><time>2026-04-26T14:30:35.401Z</time></trkpt><trkpt lat="45.892021" lon="11.5403648"><ele>1094.0</ele><time>2026-04-26T14:30:37.398Z</time></trkpt><trkpt lat="45.8921546" lon="11.5404925"><ele>1094.0</ele><time>2026-04-26T14:30:38.397Z</time></trkpt><trkpt lat="45.8922873" lon="11.5406428"><ele>1094.0</ele><time>2026-04-26T14:30:39.396Z</time></trkpt><trkpt lat="45.8924119" lon="11.5408015"><ele>1094.0</ele><time>2026-04-26T14:30:40.398Z</time></trkpt><trkpt lat="45.8925234" lon="11.5409563"><ele>1093.0</ele><time>2026-04-26T14:30:41.399Z</time></trkpt><trkpt lat="45.8926163" lon="11.5411006"><ele>1092.0</ele><time>2026-04-26T14:30:42.4Z</time></trkpt><trkpt lat="45.892696" lon="11.5412274"><ele>1091.0</ele><time>2026-04-26T14:30:43.397Z</time></trkpt><trkpt lat="45.8927712" lon="11.541345"><ele>1090.0</ele><time>2026-04-26T14:30:44.397Z</time></trkpt><trkpt lat="45.8928512" lon="11.54144"><ele>1088.5</ele><time>2026-04-26T14:30:45.399Z</time></trkpt><trkpt lat="45.8929471" lon="11.5414909"><ele>1087.0</ele><time>2026-04-26T14:30:46.398Z</time></trkpt><trkpt lat="45.8930678" lon="11.5414958"><ele>1085.5</ele><time>2026-04-26T14:30:47.398Z</time></trkpt><trkpt lat="45.8931927" lon="11.5414775"><ele>1084.0</ele><time>2026-04-26T14:30:48.398Z</time></trkpt><trkpt lat="45.8932952" lon="11.5414771"><ele>1084.0</ele><time>2026-04-26T14:30:49.397Z</time></trkpt><trkpt lat="45.8933799" lon="11.5415087"><ele>1084.0</ele><time>2026-04-26T14:30:50.397Z</time></trkpt><trkpt lat="45.8934403" lon="11.5415832"><ele>1084.0</ele><time>2026-04-26T14:30:51.397Z</time></trkpt><trkpt lat="45.8934644" lon="11.5416885"><ele>1084.0</ele><time>2026-04-26T14:30:52.398Z</time></trkpt><trkpt lat="45.8934483" lon="11.5417995"><ele>1084.0</ele><time>2026-04-26T14:30:53.397Z</time></trkpt><trkpt lat="45.8933906" lon="11.5418999"><ele>1084.0</ele><time>2026-04-26T14:30:54.397Z</time></trkpt><trkpt lat="45.8933116" lon="11.5419847"><ele>1082.75</ele><time>2026-04-26T14:30:55.397Z</time></trkpt><trkpt lat="45.893246" lon="11.5420766"><ele>1081.5</ele><time>2026-04-26T14:30:56.396Z</time></trkpt><trkpt lat="45.8931828" lon="11.5423588"><ele>1080.25</ele><time>2026-04-26T14:30:58.393Z</time></trkpt><trkpt lat="45.8931576" lon="11.542552"><ele>1079.0</ele><time>2026-04-26T14:30:59.395Z</time></trkpt><trkpt lat="45.8931197" lon="11.5427689"><ele>1078.0</ele><time>2026-04-26T14:31:00.398Z</time></trkpt><trkpt lat="45.8930724" lon="11.5429803"><ele>1077.0</ele><time>2026-04-26T14:31:01.399Z</time></trkpt><trkpt lat="45.8930242" lon="11.5431756"><ele>1076.0</ele><time>2026-04-26T14:31:02.396Z</time></trkpt><trkpt lat="45.892977" lon="11.5433585"><ele>1075.0</ele><time>2026-04-26T14:31:03.398Z</time></trkpt><trkpt lat="45.8929342" lon="11.5435318"><ele>1075.0</ele><time>2026-04-26T14:31:04.397Z</time></trkpt><trkpt lat="45.8928932" lon="11.5436873"><ele>1075.0</ele><time>2026-04-26T14:31:05.4Z</time></trkpt><trkpt lat="45.8928485" lon="11.5438194"><ele>1075.0</ele><time>2026-04-26T14:31:06.399Z</time></trkpt><trkpt lat="45.8927998" lon="11.5439264"><ele>1075.0</ele><time>2026-04-26T14:31:07.397Z</time></trkpt><trkpt lat="45.8927452" lon="11.5440052"><ele>1075.0</ele><time>2026-04-26T14:31:08.396Z</time></trkpt><trkpt lat="45.8926853" lon="11.5440549"><ele>1075.0</ele><time>2026-04-26T14:31:09.397Z</time></trkpt><trkpt lat="45.8926173" lon="11.5440807"><ele>1075.0</ele><time>2026-04-26T14:31:10.396Z</time></trkpt><trkpt lat="45.8925481" lon="11.544062"><ele>1075.0</ele><time>2026-04-26T14:31:11.398Z</time></trkpt><trkpt lat="45.8924833" lon="11.5439777"><ele>1075.0</ele><time>2026-04-26T14:31:12.396Z</time></trkpt><trkpt lat="45.8924173" lon="11.5438373"><ele>1075.0</ele><time>2026-04-26T14:31:13.399Z</time></trkpt><trkpt lat="45.8923355" lon="11.5436548"><ele>1074.3333333333333</ele><time>2026-04-26T14:31:14.397Z</time></trkpt><trkpt lat="45.8922322" lon="11.5434439"><ele>1073.6666666666667</ele><time>2026-04-26T14:31:15.398Z</time></trkpt><trkpt lat="45.8921173" lon="11.5432369"><ele>1073.0</ele><time>2026-04-26T14:31:16.399Z</time></trkpt><trkpt lat="45.8919985" lon="11.5430462"><ele>1074.0</ele><time>2026-04-26T14:31:17.399Z</time></trkpt><trkpt lat="45.8917474" lon="11.5427141"><ele>1075.0</ele><time>2026-04-26T14:31:19.396Z</time></trkpt><trkpt lat="45.8916183" lon="11.5425695"><ele>1075.0</ele><time>2026-04-26T14:31:20.394Z</time></trkpt><trkpt lat="45.8914929" lon="11.5424416"><ele>1075.0</ele><time>2026-04-26T14:31:21.396Z</time></trkpt><trkpt lat="45.8913941" lon="11.5423362"><ele>1075.0</ele><time>2026-04-26T14:31:22.396Z</time></trkpt><trkpt lat="45.8913239" lon="11.5422435"><ele>1075.0</ele><time>2026-04-26T14:31:23.395Z</time></trkpt><trkpt lat="45.8912692" lon="11.5421616"><ele>1075.0</ele><time>2026-04-26T14:31:24.399Z</time></trkpt><trkpt lat="45.8912207" lon="11.5420874"><ele>1075.0</ele><time>2026-04-26T14:31:25.396Z</time></trkpt><trkpt lat="45.8911679" lon="11.5420164"><ele>1075.0</ele><time>2026-04-26T14:31:26.396Z</time></trkpt><trkpt lat="45.8911138" lon="11.5419594"><ele>1075.0</ele><time>2026-04-26T14:31:27.396Z</time></trkpt><trkpt lat="45.8910031" lon="11.5419027"><ele>1075.0</ele><time>2026-04-26T14:31:29.396Z</time></trkpt><trkpt lat="45.8909004" lon="11.5418623"><ele>1075.0</ele><time>2026-04-26T14:31:31.397Z</time></trkpt><trkpt lat="45.8908422" lon="11.5418112"><ele>1075.0</ele><time>2026-04-26T14:31:33.396Z</time></trkpt><trkpt lat="45.8907866" lon="11.541736"><ele>1075.0</ele><time>2026-04-26T14:31:36.397Z</time></trkpt><trkpt lat="45.8908597" lon="11.5417768"><ele>1075.0</ele><time>2026-04-26T15:08:33.395Z</time></trkpt><trkpt lat="45.8909552" lon="11.5419965"><ele>1075.0</ele><time>2026-04-26T15:08:37.398Z</time></trkpt><trkpt lat="45.8910264" lon="11.5420825"><ele>1075.0</ele><time>2026-04-26T15:08:38.397Z</time></trkpt><trkpt lat="45.891139" lon="11.5421871"><ele>1075.0</ele><time>2026-04-26T15:08:39.395Z</time></trkpt><trkpt lat="45.8912796" lon="11.5423043"><ele>1075.0</ele><time>2026-04-26T15:08:40.396Z</time></trkpt><trkpt lat="45.8914052" lon="11.54242"><ele>1075.0</ele><time>2026-04-26T15:08:41.395Z</time></trkpt><trkpt lat="45.8915167" lon="11.5425328"><ele>1075.0</ele><time>2026-04-26T15:08:42.396Z</time></trkpt><trkpt lat="45.8916188" lon="11.542642"><ele>1075.0</ele><time>2026-04-26T15:08:43.397Z</time></trkpt><trkpt lat="45.8917141" lon="11.5427436"><ele>1075.0</ele><time>2026-04-26T15:08:44.397Z</time></trkpt><trkpt lat="45.8918049" lon="11.5428548"><ele>1075.0</ele><time>2026-04-26T15:08:45.396Z</time></trkpt><trkpt lat="45.8918972" lon="11.5429816"><ele>1075.0</ele><time>2026-04-26T15:08:46.396Z</time></trkpt><trkpt lat="45.891981" lon="11.5431072"><ele>1075.0</ele><time>2026-04-26T15:08:47.395Z</time></trkpt><trkpt lat="45.8920556" lon="11.5432291"><ele>1075.0</ele><time>2026-04-26T15:08:48.398Z</time></trkpt><trkpt lat="45.8921236" lon="11.5433485"><ele>1075.0</ele><time>2026-04-26T15:08:49.395Z</time></trkpt><trkpt lat="45.8921899" lon="11.543472"><ele>1075.0</ele><time>2026-04-26T15:08:50.394Z</time></trkpt><trkpt lat="45.8922534" lon="11.5436015"><ele>1075.0</ele><time>2026-04-26T15:08:51.396Z</time></trkpt><trkpt lat="45.8923195" lon="11.5437446"><ele>1075.0</ele><time>2026-04-26T15:08:52.396Z</time></trkpt><trkpt lat="45.8923791" lon="11.5438821"><ele>1075.0</ele><time>2026-04-26T15:08:53.395Z</time></trkpt><trkpt lat="45.8924281" lon="11.5440064"><ele>1075.0</ele><time>2026-04-26T15:08:54.394Z</time></trkpt><trkpt lat="45.8924932" lon="11.5442385"><ele>1075.0</ele><time>2026-04-26T15:08:56.393Z</time></trkpt><trkpt lat="45.8925096" lon="11.5443542"><ele>1075.0</ele><time>2026-04-26T15:08:57.393Z</time></trkpt><trkpt lat="45.8925238" lon="11.5444692"><ele>1075.0</ele><time>2026-04-26T15:08:58.396Z</time></trkpt><trkpt lat="45.8925507" lon="11.5445828"><ele>1075.0</ele><time>2026-04-26T15:08:59.396Z</time></trkpt><trkpt lat="45.8925923" lon="11.5447037"><ele>1075.0</ele><time>2026-04-26T15:09:00.399Z</time></trkpt><trkpt lat="45.892645" lon="11.5448448"><ele>1075.0</ele><time>2026-04-26T15:09:01.397Z</time></trkpt><trkpt lat="45.8927093" lon="11.5450105"><ele>1076.3333333333333</ele><time>2026-04-26T15:09:02.396Z</time></trkpt><trkpt lat="45.8927771" lon="11.5452022"><ele>1077.6666666666667</ele><time>2026-04-26T15:09:03.398Z</time></trkpt><trkpt lat="45.8928425" lon="11.5454141"><ele>1079.0</ele><time>2026-04-26T15:09:04.396Z</time></trkpt><trkpt lat="45.8929018" lon="11.545614"><ele>1079.0</ele><time>2026-04-26T15:09:05.398Z</time></trkpt><trkpt lat="45.8929517" lon="11.5457938"><ele>1079.0</ele><time>2026-04-26T15:09:06.397Z</time></trkpt><trkpt lat="45.8929874" lon="11.5459622"><ele>1079.0</ele><time>2026-04-26T15:09:07.398Z</time></trkpt><trkpt lat="45.8930042" lon="11.5461384"><ele>1079.0</ele><time>2026-04-26T15:09:08.397Z</time></trkpt><trkpt lat="45.8929995" lon="11.5463289"><ele>1079.25</ele><time>2026-04-26T15:09:09.397Z</time></trkpt><trkpt lat="45.8929752" lon="11.5465105"><ele>1079.5</ele><time>2026-04-26T15:09:10.396Z</time></trkpt><trkpt lat="45.8929309" lon="11.5466644"><ele>1079.75</ele><time>2026-04-26T15:09:11.393Z</time></trkpt><trkpt lat="45.892856" lon="11.5467992"><ele>1080.0</ele><time>2026-04-26T15:09:12.397Z</time></trkpt><trkpt lat="45.8927584" lon="11.5469362"><ele>1080.6666666666667</ele><time>2026-04-26T15:09:13.397Z</time></trkpt><trkpt lat="45.8926719" lon="11.5470891"><ele>1081.3333333333335</ele><time>2026-04-26T15:09:14.394Z</time></trkpt><trkpt lat="45.8926088" lon="11.5472511"><ele>1082.0</ele><time>2026-04-26T15:09:15.397Z</time></trkpt><trkpt lat="45.8925242" lon="11.5476077"><ele>1083.0</ele><time>2026-04-26T15:09:17.395Z</time></trkpt><trkpt lat="45.8925018" lon="11.5478028"><ele>1084.0</ele><time>2026-04-26T15:09:18.395Z</time></trkpt><trkpt lat="45.8924867" lon="11.5480004"><ele>1085.0</ele><time>2026-04-26T15:09:19.394Z</time></trkpt><trkpt lat="45.892467" lon="11.5482049"><ele>1086.0</ele><time>2026-04-26T15:09:20.395Z</time></trkpt><trkpt lat="45.8924475" lon="11.548407"><ele>1086.0</ele><time>2026-04-26T15:09:21.393Z</time></trkpt><trkpt lat="45.892424" lon="11.5485936"><ele>1086.0</ele><time>2026-04-26T15:09:22.395Z</time></trkpt><trkpt lat="45.8923992" lon="11.5487825"><ele>1086.0</ele><time>2026-04-26T15:09:23.397Z</time></trkpt><trkpt lat="45.8923719" lon="11.5489811"><ele>1086.0</ele><time>2026-04-26T15:09:24.397Z</time></trkpt><trkpt lat="45.8923445" lon="11.5491929"><ele>1086.0</ele><time>2026-04-26T15:09:25.398Z</time></trkpt><trkpt lat="45.8923157" lon="11.549417"><ele>1086.0</ele><time>2026-04-26T15:09:26.398Z</time></trkpt><trkpt lat="45.8922856" lon="11.5496453"><ele>1086.0</ele><time>2026-04-26T15:09:27.397Z</time></trkpt><trkpt lat="45.8922601" lon="11.5498597"><ele>1087.3333333333333</ele><time>2026-04-26T15:09:28.397Z</time></trkpt><trkpt lat="45.8922355" lon="11.5500578"><ele>1088.6666666666665</ele><time>2026-04-26T15:09:29.395Z</time></trkpt><trkpt lat="45.8922123" lon="11.5502593"><ele>1090.0</ele><time>2026-04-26T15:09:30.396Z</time></trkpt><trkpt lat="45.8921591" lon="11.5506889"><ele>1092.0</ele><time>2026-04-26T15:09:32.399Z</time></trkpt><trkpt lat="45.8921302" lon="11.5509133"><ele>1094.0</ele><time>2026-04-26T15:09:33.398Z</time></trkpt><trkpt lat="45.8921001" lon="11.551136"><ele>1096.0</ele><time>2026-04-26T15:09:34.398Z</time></trkpt><trkpt lat="45.8920706" lon="11.5513517"><ele>1096.6666666666665</ele><time>2026-04-26T15:09:35.397Z</time></trkpt><trkpt lat="45.8920422" lon="11.5515594"><ele>1097.3333333333333</ele><time>2026-04-26T15:09:36.398Z</time></trkpt><trkpt lat="45.8919864" lon="11.5519681"><ele>1098.0</ele><time>2026-04-26T15:09:38.396Z</time></trkpt><trkpt lat="45.891961" lon="11.5521715"><ele>1098.5</ele><time>2026-04-26T15:09:39.398Z</time></trkpt><trkpt lat="45.8919341" lon="11.5523772"><ele>1099.0</ele><time>2026-04-26T15:09:40.397Z</time></trkpt><trkpt lat="45.8919018" lon="11.5525866"><ele>1099.5</ele><time>2026-04-26T15:09:41.398Z</time></trkpt><trkpt lat="45.891864" lon="11.5527988"><ele>1100.0</ele><time>2026-04-26T15:09:42.396Z</time></trkpt><trkpt lat="45.8918166" lon="11.5530087"><ele>1100.6666666666667</ele><time>2026-04-26T15:09:43.396Z</time></trkpt><trkpt lat="45.8917697" lon="11.5532205"><ele>1101.3333333333333</ele><time>2026-04-26T15:09:44.395Z</time></trkpt><trkpt lat="45.8917225" lon="11.553432"><ele>1102.0</ele><time>2026-04-26T15:09:45.395Z</time></trkpt><trkpt lat="45.8916809" lon="11.5536438"><ele>1099.6666666666665</ele><time>2026-04-26T15:09:46.395Z</time></trkpt><trkpt lat="45.8916448" lon="11.5538608"><ele>1097.3333333333333</ele><time>2026-04-26T15:09:47.398Z</time></trkpt><trkpt lat="45.8916132" lon="11.5540871"><ele>1095.0</ele><time>2026-04-26T15:09:48.398Z</time></trkpt><trkpt lat="45.8915838" lon="11.5543227"><ele>1095.0</ele><time>2026-04-26T15:09:49.397Z</time></trkpt><trkpt lat="45.8915549" lon="11.5545569"><ele>1095.0</ele><time>2026-04-26T15:09:50.397Z</time></trkpt><trkpt lat="45.8915227" lon="11.5547908"><ele>1095.0</ele><time>2026-04-26T15:09:51.397Z</time></trkpt><trkpt lat="45.8914901" lon="11.5550255"><ele>1095.0</ele><time>2026-04-26T15:09:52.397Z</time></trkpt><trkpt lat="45.8914598" lon="11.5552622"><ele>1095.0</ele><time>2026-04-26T15:09:53.398Z</time></trkpt><trkpt lat="45.8914305" lon="11.5554903"><ele>1095.0</ele><time>2026-04-26T15:09:54.397Z</time></trkpt><trkpt lat="45.8914027" lon="11.5557056"><ele>1096.6666666666667</ele><time>2026-04-26T15:09:55.398Z</time></trkpt><trkpt lat="45.8913767" lon="11.5559087"><ele>1098.3333333333335</ele><time>2026-04-26T15:09:56.397Z</time></trkpt><trkpt lat="45.8913523" lon="11.5561008"><ele>1100.0</ele><time>2026-04-26T15:09:57.398Z</time></trkpt><trkpt lat="45.8913383" lon="11.5564567"><ele>1100.25</ele><time>2026-04-26T15:09:59.397Z</time></trkpt><trkpt lat="45.891375" lon="11.5566294"><ele>1100.5</ele><time>2026-04-26T15:10:00.399Z</time></trkpt><trkpt lat="45.8914499" lon="11.5567916"><ele>1100.75</ele><time>2026-04-26T15:10:01.396Z</time></trkpt><trkpt lat="45.8915569" lon="11.5569474"><ele>1101.0</ele><time>2026-04-26T15:10:02.397Z</time></trkpt><trkpt lat="45.8916809" lon="11.5571135"><ele>1103.0</ele><time>2026-04-26T15:10:03.398Z</time></trkpt><trkpt lat="45.8918075" lon="11.5572821"><ele>1105.0</ele><time>2026-04-26T15:10:04.398Z</time></trkpt><trkpt lat="45.8919305" lon="11.5574409"><ele>1107.0</ele><time>2026-04-26T15:10:05.397Z</time></trkpt><trkpt lat="45.8920452" lon="11.5575897"><ele>1107.0</ele><time>2026-04-26T15:10:06.396Z</time></trkpt><trkpt lat="45.892135" lon="11.55774"><ele>1107.0</ele><time>2026-04-26T15:10:07.395Z</time></trkpt><trkpt lat="45.892188" lon="11.5579118"><ele>1107.0</ele><time>2026-04-26T15:10:08.396Z</time></trkpt><trkpt lat="45.8921979" lon="11.5581053"><ele>1107.0</ele><time>2026-04-26T15:10:09.394Z</time></trkpt><trkpt lat="45.8921944" lon="11.5583013"><ele>1104.75</ele><time>2026-04-26T15:10:10.394Z</time></trkpt><trkpt lat="45.8922099" lon="11.5584783"><ele>1102.5</ele><time>2026-04-26T15:10:11.395Z</time></trkpt><trkpt lat="45.8922563" lon="11.5586383"><ele>1100.25</ele><time>2026-04-26T15:10:12.396Z</time></trkpt><trkpt lat="45.8923412" lon="11.5587712"><ele>1098.0</ele><time>2026-04-26T15:10:13.397Z</time></trkpt><trkpt lat="45.8924552" lon="11.5588929"><ele>1100.3333333333333</ele><time>2026-04-26T15:10:14.395Z</time></trkpt><trkpt lat="45.8925896" lon="11.5590033"><ele>1102.6666666666665</ele><time>2026-04-26T15:10:15.397Z</time></trkpt><trkpt lat="45.89273" lon="11.5591194"><ele>1105.0</ele><time>2026-04-26T15:10:16.396Z</time></trkpt><trkpt lat="45.8928739" lon="11.5592522"><ele>1105.0</ele><time>2026-04-26T15:10:17.398Z</time></trkpt><trkpt lat="45.8930186" lon="11.5594042"><ele>1105.0</ele><time>2026-04-26T15:10:18.395Z</time></trkpt><trkpt lat="45.8933087" lon="11.5597291"><ele>1108.0</ele><time>2026-04-26T15:10:20.394Z</time></trkpt><trkpt lat="45.893431" lon="11.5599033"><ele>1111.0</ele><time>2026-04-26T15:10:21.395Z</time></trkpt><trkpt lat="45.8935326" lon="11.5600893"><ele>1114.0</ele><time>2026-04-26T15:10:22.394Z</time></trkpt><trkpt lat="45.8936151" lon="11.5602799"><ele>1107.3333333333333</ele><time>2026-04-26T15:10:23.396Z</time></trkpt><trkpt lat="45.8936863" lon="11.5604778"><ele>1100.6666666666667</ele><time>2026-04-26T15:10:24.397Z</time></trkpt><trkpt lat="45.8937619" lon="11.560681"><ele>1094.0</ele><time>2026-04-26T15:10:25.393Z</time></trkpt><trkpt lat="45.8938391" lon="11.5608783"><ele>1094.0</ele><time>2026-04-26T15:10:26.396Z</time></trkpt><trkpt lat="45.8939152" lon="11.5610642"><ele>1094.0</ele><time>2026-04-26T15:10:27.397Z</time></trkpt><trkpt lat="45.8939924" lon="11.5612398"><ele>1094.0</ele><time>2026-04-26T15:10:28.395Z</time></trkpt><trkpt lat="45.8940797" lon="11.561392"><ele>1094.0</ele><time>2026-04-26T15:10:29.397Z</time></trkpt><trkpt lat="45.8941807" lon="11.5615186"><ele>1097.0</ele><time>2026-04-26T15:10:30.396Z</time></trkpt><trkpt lat="45.8942819" lon="11.5616071"><ele>1100.0</ele><time>2026-04-26T15:10:31.195Z</time></trkpt><trkpt lat="45.8944537" lon="11.5617443"><ele>1103.0</ele><time>2026-04-26T15:10:32.391Z</time></trkpt><trkpt lat="45.8945945" lon="11.5618688"><ele>1103.0</ele><time>2026-04-26T15:10:33.394Z</time></trkpt><trkpt lat="45.8947285" lon="11.5619832"><ele>1103.0</ele><time>2026-04-26T15:10:34.394Z</time></trkpt><trkpt lat="45.8948587" lon="11.5620845"><ele>1103.0</ele><time>2026-04-26T15:10:35.393Z</time></trkpt><trkpt lat="45.8949952" lon="11.5621556"><ele>1103.0</ele><time>2026-04-26T15:10:36.393Z</time></trkpt><trkpt lat="45.8951507" lon="11.5621897"><ele>1094.3333333333335</ele><time>2026-04-26T15:10:37.396Z</time></trkpt><trkpt lat="45.89532" lon="11.5622006"><ele>1085.6666666666667</ele><time>2026-04-26T15:10:38.394Z</time></trkpt><trkpt lat="45.8954943" lon="11.5622065"><ele>1077.0</ele><time>2026-04-26T15:10:39.393Z</time></trkpt><trkpt lat="45.8957965" lon="11.5621967"><ele>1077.75</ele><time>2026-04-26T15:10:41.394Z</time></trkpt><trkpt lat="45.8959212" lon="11.5621411"><ele>1078.5</ele><time>2026-04-26T15:10:42.393Z</time></trkpt><trkpt lat="45.8960311" lon="11.5620306"><ele>1079.25</ele><time>2026-04-26T15:10:43.393Z</time></trkpt><trkpt lat="45.8961253" lon="11.5618752"><ele>1080.0</ele><time>2026-04-26T15:10:44.393Z</time></trkpt><trkpt lat="45.8962188" lon="11.5616961"><ele>1080.0</ele><time>2026-04-26T15:10:45.393Z</time></trkpt><trkpt lat="45.8963149" lon="11.5615264"><ele>1080.0</ele><time>2026-04-26T15:10:46.393Z</time></trkpt><trkpt lat="45.8964169" lon="11.5613964"><ele>1080.0</ele><time>2026-04-26T15:10:47.391Z</time></trkpt><trkpt lat="45.8965078" lon="11.5612928"><ele>1080.0</ele><time>2026-04-26T15:10:48.393Z</time></trkpt><trkpt lat="45.8966066" lon="11.5612332"><ele>1080.0</ele><time>2026-04-26T15:10:49.393Z</time></trkpt><trkpt lat="45.8967172" lon="11.5612214"><ele>1080.0</ele><time>2026-04-26T15:10:50.394Z</time></trkpt><trkpt lat="45.8968282" lon="11.5612683"><ele>1080.0</ele><time>2026-04-26T15:10:51.393Z</time></trkpt><trkpt lat="45.8969316" lon="11.5613741"><ele>1080.0</ele><time>2026-04-26T15:10:52.392Z</time></trkpt><trkpt lat="45.8969913" lon="11.5614639"><ele>1080.0</ele><time>2026-04-26T15:10:52.994Z</time></trkpt><trkpt lat="45.8971337" lon="11.5617171"><ele>1076.6666666666667</ele><time>2026-04-26T15:10:54.392Z</time></trkpt><trkpt lat="45.8972445" lon="11.5619053"><ele>1073.3333333333335</ele><time>2026-04-26T15:10:55.394Z</time></trkpt><trkpt lat="45.8973624" lon="11.5620835"><ele>1070.0</ele><time>2026-04-26T15:10:56.39Z</time></trkpt><trkpt lat="45.8975001" lon="11.5622371"><ele>1079.6666666666667</ele><time>2026-04-26T15:10:57.391Z</time></trkpt><trkpt lat="45.8976596" lon="11.5623704"><ele>1089.3333333333333</ele><time>2026-04-26T15:10:58.39Z</time></trkpt><trkpt lat="45.8978292" lon="11.5625046"><ele>1099.0</ele><time>2026-04-26T15:10:59.39Z</time></trkpt><trkpt lat="45.8979881" lon="11.562655"><ele>1085.5</ele><time>2026-04-26T15:11:00.391Z</time></trkpt><trkpt lat="45.8982664" lon="11.5629678"><ele>1072.0</ele><time>2026-04-26T15:11:02.394Z</time></trkpt><trkpt lat="45.8983914" lon="11.5631329"><ele>1078.6666666666665</ele><time>2026-04-26T15:11:03.392Z</time></trkpt><trkpt lat="45.8985014" lon="11.5633264"><ele>1085.3333333333333</ele><time>2026-04-26T15:11:04.393Z</time></trkpt><trkpt lat="45.8986002" lon="11.5635534"><ele>1092.0</ele><time>2026-04-26T15:11:05.393Z</time></trkpt><trkpt lat="45.8987038" lon="11.5637916"><ele>1092.0</ele><time>2026-04-26T15:11:06.392Z</time></trkpt><trkpt lat="45.8988173" lon="11.5640009"><ele>1092.0</ele><time>2026-04-26T15:11:07.393Z</time></trkpt><trkpt lat="45.8989244" lon="11.5641798"><ele>1092.0</ele><time>2026-04-26T15:11:08.393Z</time></trkpt><trkpt lat="45.8990121" lon="11.564342"><ele>1092.0</ele><time>2026-04-26T15:11:09.391Z</time></trkpt><trkpt lat="45.8990673" lon="11.5645145"><ele>1092.0</ele><time>2026-04-26T15:11:10.392Z</time></trkpt><trkpt lat="45.89908" lon="11.5647007"><ele>1092.0</ele><time>2026-04-26T15:11:11.39Z</time></trkpt><trkpt lat="45.8990511" lon="11.5648856"><ele>1092.0</ele><time>2026-04-26T15:11:12.392Z</time></trkpt><trkpt lat="45.8989816" lon="11.5650433"><ele>1090.6666666666667</ele><time>2026-04-26T15:11:13.391Z</time></trkpt><trkpt lat="45.8988725" lon="11.565164"><ele>1089.3333333333335</ele><time>2026-04-26T15:11:14.39Z</time></trkpt><trkpt lat="45.8987305" lon="11.5652542"><ele>1088.0</ele><time>2026-04-26T15:11:15.391Z</time></trkpt><trkpt lat="45.898564" lon="11.5653327"><ele>1088.0</ele><time>2026-04-26T15:11:16.393Z</time></trkpt><trkpt lat="45.8983874" lon="11.565403"><ele>1088.0</ele><time>2026-04-26T15:11:17.394Z</time></trkpt><trkpt lat="45.8982177" lon="11.5654428"><ele>1088.0</ele><time>2026-04-26T15:11:18.392Z</time></trkpt><trkpt lat="45.8980614" lon="11.5654611"><ele>1088.0</ele><time>2026-04-26T15:11:19.392Z</time></trkpt><trkpt lat="45.8979135" lon="11.5654981"><ele>1088.0</ele><time>2026-04-26T15:11:20.391Z</time></trkpt><trkpt lat="45.8977648" lon="11.5655838"><ele>1088.0</ele><time>2026-04-26T15:11:21.389Z</time></trkpt><trkpt lat="45.8974917" lon="11.5658098"><ele>1082.8</ele><time>2026-04-26T15:11:23.39Z</time></trkpt><trkpt lat="45.89739" lon="11.5659187"><ele>1077.6</ele><time>2026-04-26T15:11:24.393Z</time></trkpt><trkpt lat="45.8973289" lon="11.5660476"><ele>1072.4</ele><time>2026-04-26T15:11:25.395Z</time></trkpt><trkpt lat="45.8973104" lon="11.5661905"><ele>1067.2</ele><time>2026-04-26T15:11:26.393Z</time></trkpt><trkpt lat="45.8973343" lon="11.5663389"><ele>1062.0</ele><time>2026-04-26T15:11:27.395Z</time></trkpt><trkpt lat="45.8974017" lon="11.5664909"><ele>1062.0</ele><time>2026-04-26T15:11:28.394Z</time></trkpt><trkpt lat="45.8975053" lon="11.5666243"><ele>1062.0</ele><time>2026-04-26T15:11:29.394Z</time></trkpt><trkpt lat="45.8975967" lon="11.5667255"><ele>1062.0</ele><time>2026-04-26T15:11:30.391Z</time></trkpt><trkpt lat="45.8976503" lon="11.5668178"><ele>1062.0</ele><time>2026-04-26T15:11:31.392Z</time></trkpt><trkpt lat="45.8976777" lon="11.5669375"><ele>1062.0</ele><time>2026-04-26T15:11:32.391Z</time></trkpt><trkpt lat="45.8976666" lon="11.5670661"><ele>1067.5</ele><time>2026-04-26T15:11:33.393Z</time></trkpt><trkpt lat="45.8976099" lon="11.567164"><ele>1073.0</ele><time>2026-04-26T15:11:34.394Z</time></trkpt><trkpt lat="45.8975156" lon="11.5672324"><ele>1078.5</ele><time>2026-04-26T15:11:35.393Z</time></trkpt><trkpt lat="45.8973816" lon="11.5672822"><ele>1084.0</ele><time>2026-04-26T15:11:36.393Z</time></trkpt><trkpt lat="45.8972218" lon="11.5673328"><ele>1084.0</ele><time>2026-04-26T15:11:37.393Z</time></trkpt><trkpt lat="45.8970479" lon="11.5673895"><ele>1084.0</ele><time>2026-04-26T15:11:38.394Z</time></trkpt><trkpt lat="45.8968803" lon="11.5674335"><ele>1084.0</ele><time>2026-04-26T15:11:39.391Z</time></trkpt><trkpt lat="45.8967182" lon="11.5674415"><ele>1079.3333333333333</ele><time>2026-04-26T15:11:40.393Z</time></trkpt><trkpt lat="45.896566" lon="11.5674077"><ele>1074.6666666666667</ele><time>2026-04-26T15:11:41.393Z</time></trkpt><trkpt lat="45.8964245" lon="11.5673598"><ele>1070.0</ele><time>2026-04-26T15:11:42.393Z</time></trkpt><trkpt lat="45.8961521" lon="11.5673663"><ele>1070.0</ele><time>2026-04-26T15:11:44.394Z</time></trkpt><trkpt lat="45.8960027" lon="11.5674435"><ele>1070.0</ele><time>2026-04-26T15:11:45.391Z</time></trkpt><trkpt lat="45.8958379" lon="11.5675319"><ele>1070.0</ele><time>2026-04-26T15:11:46.394Z</time></trkpt><trkpt lat="45.8956733" lon="11.5676158"><ele>1067.6666666666667</ele><time>2026-04-26T15:11:47.391Z</time></trkpt><trkpt lat="45.8955194" lon="11.567695"><ele>1065.3333333333333</ele><time>2026-04-26T15:11:48.39Z</time></trkpt><trkpt lat="45.895369" lon="11.5677486"><ele>1063.0</ele><time>2026-04-26T15:11:49.393Z</time></trkpt><trkpt lat="45.8952151" lon="11.5677577"><ele>1064.3333333333333</ele><time>2026-04-26T15:11:50.392Z</time></trkpt><trkpt lat="45.8950633" lon="11.5676869"><ele>1065.6666666666667</ele><time>2026-04-26T15:11:51.394Z</time></trkpt><trkpt lat="45.8949044" lon="11.5675808"><ele>1067.0</ele><time>2026-04-26T15:11:52.392Z</time></trkpt><trkpt lat="45.8947507" lon="11.5674597"><ele>1067.0</ele><time>2026-04-26T15:11:53.393Z</time></trkpt><trkpt lat="45.8946038" lon="11.5673605"><ele>1067.0</ele><time>2026-04-26T15:11:54.393Z</time></trkpt><trkpt lat="45.8944568" lon="11.5672825"><ele>1067.0</ele><time>2026-04-26T15:11:55.394Z</time></trkpt><trkpt lat="45.8942841" lon="11.5672629"><ele>1068.3333333333335</ele><time>2026-04-26T15:11:56.394Z</time></trkpt><trkpt lat="45.8941064" lon="11.5672743"><ele>1069.6666666666667</ele><time>2026-04-26T15:11:57.393Z</time></trkpt><trkpt lat="45.8939444" lon="11.5673007"><ele>1071.0</ele><time>2026-04-26T15:11:58.392Z</time></trkpt><trkpt lat="45.8937985" lon="11.567352"><ele>1071.0</ele><time>2026-04-26T15:11:59.394Z</time></trkpt><trkpt lat="45.8936641" lon="11.5674378"><ele>1071.0</ele><time>2026-04-26T15:12:00.394Z</time></trkpt><trkpt lat="45.8935459" lon="11.5675605"><ele>1071.0</ele><time>2026-04-26T15:12:01.394Z</time></trkpt><trkpt lat="45.8934535" lon="11.5677065"><ele>1071.0</ele><time>2026-04-26T15:12:02.394Z</time></trkpt><trkpt lat="45.8933827" lon="11.567883"><ele>1059.5</ele><time>2026-04-26T15:12:03.396Z</time></trkpt><trkpt lat="45.8932465" lon="11.5682772"><ele>1048.0</ele><time>2026-04-26T15:12:05.395Z</time></trkpt><trkpt lat="45.8931717" lon="11.5684719"><ele>1048.0</ele><time>2026-04-26T15:12:06.399Z</time></trkpt><trkpt lat="45.8930925" lon="11.5686595"><ele>1048.0</ele><time>2026-04-26T15:12:07.395Z</time></trkpt><trkpt lat="45.8930108" lon="11.5688362"><ele>1048.0</ele><time>2026-04-26T15:12:08.396Z</time></trkpt><trkpt lat="45.8929293" lon="11.5690153"><ele>1048.0</ele><time>2026-04-26T15:12:09.395Z</time></trkpt><trkpt lat="45.8928516" lon="11.5692061"><ele>1052.0</ele><time>2026-04-26T15:12:10.393Z</time></trkpt><trkpt lat="45.8927786" lon="11.5694106"><ele>1056.0</ele><time>2026-04-26T15:12:11.393Z</time></trkpt><trkpt lat="45.8927153" lon="11.569626"><ele>1060.0</ele><time>2026-04-26T15:12:12.393Z</time></trkpt><trkpt lat="45.8926589" lon="11.5698377"><ele>1062.75</ele><time>2026-04-26T15:12:13.394Z</time></trkpt><trkpt lat="45.8926081" lon="11.5700408"><ele>1065.5</ele><time>2026-04-26T15:12:14.394Z</time></trkpt><trkpt lat="45.8925639" lon="11.570239"><ele>1068.25</ele><time>2026-04-26T15:12:15.394Z</time></trkpt><trkpt lat="45.8925296" lon="11.5704422"><ele>1071.0</ele><time>2026-04-26T15:12:16.396Z</time></trkpt><trkpt lat="45.892512" lon="11.5706531"><ele>1073.5</ele><time>2026-04-26T15:12:17.394Z</time></trkpt><trkpt lat="45.8925133" lon="11.5708634"><ele>1076.0</ele><time>2026-04-26T15:12:18.397Z</time></trkpt><trkpt lat="45.8925357" lon="11.5710729"><ele>1078.5</ele><time>2026-04-26T15:12:19.395Z</time></trkpt><trkpt lat="45.8925731" lon="11.5712847"><ele>1081.0</ele><time>2026-04-26T15:12:20.395Z</time></trkpt><trkpt lat="45.8926162" lon="11.5714969"><ele>1081.0</ele><time>2026-04-26T15:12:21.396Z</time></trkpt><trkpt lat="45.8926547" lon="11.5717019"><ele>1081.0</ele><time>2026-04-26T15:12:22.396Z</time></trkpt><trkpt lat="45.8926758" lon="11.5719019"><ele>1081.0</ele><time>2026-04-26T15:12:23.394Z</time></trkpt><trkpt lat="45.892665" lon="11.5720968"><ele>1081.0</ele><time>2026-04-26T15:12:24.395Z</time></trkpt><trkpt lat="45.8925309" lon="11.5724595"><ele>1073.3333333333333</ele><time>2026-04-26T15:12:26.394Z</time></trkpt><trkpt lat="45.8924219" lon="11.5726301"><ele>1065.6666666666667</ele><time>2026-04-26T15:12:27.394Z</time></trkpt><trkpt lat="45.8923175" lon="11.5728106"><ele>1058.0</ele><time>2026-04-26T15:12:28.395Z</time></trkpt><trkpt lat="45.8922351" lon="11.5730205"><ele>1058.0</ele><time>2026-04-26T15:12:29.397Z</time></trkpt><trkpt lat="45.892173" lon="11.5732368"><ele>1058.0</ele><time>2026-04-26T15:12:30.393Z</time></trkpt><trkpt lat="45.8921197" lon="11.5734322"><ele>1058.0</ele><time>2026-04-26T15:12:31.396Z</time></trkpt><trkpt lat="45.8920789" lon="11.5736031"><ele>1058.0</ele><time>2026-04-26T15:12:32.393Z</time></trkpt><trkpt lat="45.8920644" lon="11.5737729"><ele>1058.0</ele><time>2026-04-26T15:12:33.399Z</time></trkpt><trkpt lat="45.8920813" lon="11.5739497"><ele>1058.0</ele><time>2026-04-26T15:12:34.394Z</time></trkpt><trkpt lat="45.8921331" lon="11.5741324"><ele>1058.0</ele><time>2026-04-26T15:12:35.392Z</time></trkpt><trkpt lat="45.8922061" lon="11.5743365"><ele>1058.0</ele><time>2026-04-26T15:12:36.394Z</time></trkpt><trkpt lat="45.8922779" lon="11.574544"><ele>1058.0</ele><time>2026-04-26T15:12:37.393Z</time></trkpt><trkpt lat="45.8923278" lon="11.5747495"><ele>1058.0</ele><time>2026-04-26T15:12:38.394Z</time></trkpt><trkpt lat="45.8923483" lon="11.5749619"><ele>1058.0</ele><time>2026-04-26T15:12:39.394Z</time></trkpt><trkpt lat="45.8923342" lon="11.5751855"><ele>1058.3333333333335</ele><time>2026-04-26T15:12:40.395Z</time></trkpt><trkpt lat="45.8922878" lon="11.5754146"><ele>1058.6666666666667</ele><time>2026-04-26T15:12:41.395Z</time></trkpt><trkpt lat="45.892228" lon="11.575635"><ele>1059.0</ele><time>2026-04-26T15:12:42.396Z</time></trkpt><trkpt lat="45.8921828" lon="11.5758386"><ele>1059.0</ele><time>2026-04-26T15:12:43.397Z</time></trkpt><trkpt lat="45.8921677" lon="11.576041"><ele>1059.0</ele><time>2026-04-26T15:12:44.395Z</time></trkpt><trkpt lat="45.8921903" lon="11.5762334"><ele>1059.0</ele><time>2026-04-26T15:12:45.394Z</time></trkpt><trkpt lat="45.8923366" lon="11.576566"><ele>1057.25</ele><time>2026-04-26T15:12:47.395Z</time></trkpt><trkpt lat="45.8924308" lon="11.5766987"><ele>1055.5</ele><time>2026-04-26T15:12:48.393Z</time></trkpt><trkpt lat="45.8925126" lon="11.5768435"><ele>1053.75</ele><time>2026-04-26T15:12:49.395Z</time></trkpt><trkpt lat="45.8925742" lon="11.5770232"><ele>1052.0</ele><time>2026-04-26T15:12:50.393Z</time></trkpt><trkpt lat="45.892608" lon="11.5772379"><ele>1061.75</ele><time>2026-04-26T15:12:51.394Z</time></trkpt><trkpt lat="45.8926313" lon="11.5774641"><ele>1071.5</ele><time>2026-04-26T15:12:52.393Z</time></trkpt><trkpt lat="45.8926534" lon="11.5776714"><ele>1081.25</ele><time>2026-04-26T15:12:53.391Z</time></trkpt><trkpt lat="45.8926678" lon="11.5778524"><ele>1091.0</ele><time>2026-04-26T15:12:54.394Z</time></trkpt><trkpt lat="45.89265" lon="11.5780066"><ele>1093.5</ele><time>2026-04-26T15:12:55.394Z</time></trkpt><trkpt lat="45.8925898" lon="11.5781256"><ele>1096.0</ele><time>2026-04-26T15:12:56.393Z</time></trkpt><trkpt lat="45.8924948" lon="11.5782119"><ele>1098.5</ele><time>2026-04-26T15:12:57.392Z</time></trkpt><trkpt lat="45.892372" lon="11.5782673"><ele>1101.0</ele><time>2026-04-26T15:12:58.391Z</time></trkpt><trkpt lat="45.8922478" lon="11.5783101"><ele>1095.8</ele><time>2026-04-26T15:12:59.39Z</time></trkpt><trkpt lat="45.8921337" lon="11.5783562"><ele>1090.6</ele><time>2026-04-26T15:13:00.39Z</time></trkpt><trkpt lat="45.8920376" lon="11.5784366"><ele>1085.4</ele><time>2026-04-26T15:13:01.392Z</time></trkpt><trkpt lat="45.8919698" lon="11.578556"><ele>1080.2</ele><time>2026-04-26T15:13:02.393Z</time></trkpt><trkpt lat="45.8919359" lon="11.5786793"><ele>1075.0</ele><time>2026-04-26T15:13:03.193Z</time></trkpt><trkpt lat="45.891903" lon="11.5788936"><ele>1075.0</ele><time>2026-04-26T15:13:04.393Z</time></trkpt><trkpt lat="45.8918753" lon="11.5790645"><ele>1075.0</ele><time>2026-04-26T15:13:05.392Z</time></trkpt><trkpt lat="45.8918411" lon="11.5792235"><ele>1075.0</ele><time>2026-04-26T15:13:06.395Z</time></trkpt><trkpt lat="45.8917428" lon="11.5794955"><ele>1069.5</ele><time>2026-04-26T15:13:08.395Z</time></trkpt><trkpt lat="45.8916825" lon="11.5796058"><ele>1064.0</ele><time>2026-04-26T15:13:09.393Z</time></trkpt><trkpt lat="45.8916264" lon="11.5797087"><ele>1058.5</ele><time>2026-04-26T15:13:10.393Z</time></trkpt><trkpt lat="45.8915848" lon="11.5798122"><ele>1053.0</ele><time>2026-04-26T15:13:11.393Z</time></trkpt><trkpt lat="45.8915618" lon="11.5799297"><ele>1047.5</ele><time>2026-04-26T15:13:12.394Z</time></trkpt><trkpt lat="45.8915582" lon="11.5800499"><ele>1042.0</ele><time>2026-04-26T15:13:13.394Z</time></trkpt><trkpt lat="45.8915672" lon="11.5801669"><ele>1042.0</ele><time>2026-04-26T15:13:14.394Z</time></trkpt><trkpt lat="45.8915936" lon="11.5802651"><ele>1042.0</ele><time>2026-04-26T15:13:15.395Z</time></trkpt><trkpt lat="45.8916267" lon="11.5803485"><ele>1042.0</ele><time>2026-04-26T15:13:16.392Z</time></trkpt><trkpt lat="45.8916935" lon="11.5804773"><ele>1042.0</ele><time>2026-04-26T15:13:18.394Z</time></trkpt><trkpt lat="45.8917355" lon="11.5805722"><ele>1042.0</ele><time>2026-04-26T15:13:21.394Z</time></trkpt><trkpt lat="45.8917533" lon="11.5806612"><ele>1042.0</ele><time>2026-04-26T15:13:27.395Z</time></trkpt><trkpt lat="45.8919356" lon="11.5810467"><ele>1046.3333333333333</ele><time>2026-04-26T15:13:35.397Z</time></trkpt><trkpt lat="45.8919938" lon="11.5812391"><ele>1050.6666666666667</ele><time>2026-04-26T15:13:36.396Z</time></trkpt><trkpt lat="45.8920595" lon="11.5814486"><ele>1055.0</ele><time>2026-04-26T15:13:37.396Z</time></trkpt><trkpt lat="45.8921261" lon="11.5816563"><ele>1055.0</ele><time>2026-04-26T15:13:38.395Z</time></trkpt><trkpt lat="45.89219" lon="11.5818516"><ele>1055.0</ele><time>2026-04-26T15:13:39.395Z</time></trkpt><trkpt lat="45.892252" lon="11.5820381"><ele>1055.0</ele><time>2026-04-26T15:13:40.394Z</time></trkpt><trkpt lat="45.8923137" lon="11.5822252"><ele>1055.0</ele><time>2026-04-26T15:13:41.395Z</time></trkpt><trkpt lat="45.8923791" lon="11.5824213"><ele>1052.5</ele><time>2026-04-26T15:13:42.393Z</time></trkpt><trkpt lat="45.8924452" lon="11.5826252"><ele>1050.0</ele><time>2026-04-26T15:13:43.395Z</time></trkpt><trkpt lat="45.8925048" lon="11.5828198"><ele>1047.5</ele><time>2026-04-26T15:13:44.394Z</time></trkpt><trkpt lat="45.8925595" lon="11.5830033"><ele>1045.0</ele><time>2026-04-26T15:13:45.394Z</time></trkpt><trkpt lat="45.8926117" lon="11.5831773"><ele>1045.0</ele><time>2026-04-26T15:13:46.397Z</time></trkpt><trkpt lat="45.8926638" lon="11.5833406"><ele>1045.0</ele><time>2026-04-26T15:13:47.393Z</time></trkpt><trkpt lat="45.8927277" lon="11.5834892"><ele>1045.0</ele><time>2026-04-26T15:13:48.395Z</time></trkpt><trkpt lat="45.8929357" lon="11.5836964"><ele>1041.75</ele><time>2026-04-26T15:13:50.393Z</time></trkpt><trkpt lat="45.8930795" lon="11.5837476"><ele>1038.5</ele><time>2026-04-26T15:13:51.394Z</time></trkpt><trkpt lat="45.8932286" lon="11.5837819"><ele>1035.25</ele><time>2026-04-26T15:13:52.396Z</time></trkpt><trkpt lat="45.893364" lon="11.5838321"><ele>1032.0</ele><time>2026-04-26T15:13:53.394Z</time></trkpt><trkpt lat="45.8934817" lon="11.5839186"><ele>1038.75</ele><time>2026-04-26T15:13:54.395Z</time></trkpt><trkpt lat="45.8935772" lon="11.5840471"><ele>1045.5</ele><time>2026-04-26T15:13:55.395Z</time></trkpt><trkpt lat="45.8936497" lon="11.5842178"><ele>1052.25</ele><time>2026-04-26T15:13:56.395Z</time></trkpt><trkpt lat="45.8936955" lon="11.5844251"><ele>1059.0</ele><time>2026-04-26T15:13:57.395Z</time></trkpt><trkpt lat="45.8937287" lon="11.584665"><ele>1059.0</ele><time>2026-04-26T15:13:58.394Z</time></trkpt><trkpt lat="45.893765" lon="11.5849368"><ele>1059.0</ele><time>2026-04-26T15:13:59.394Z</time></trkpt><trkpt lat="45.893807" lon="11.5852317"><ele>1059.0</ele><time>2026-04-26T15:14:00.394Z</time></trkpt><trkpt lat="45.8938483" lon="11.5855227"><ele>1055.0</ele><time>2026-04-26T15:14:01.395Z</time></trkpt><trkpt lat="45.893887" lon="11.5857954"><ele>1051.0</ele><time>2026-04-26T15:14:02.395Z</time></trkpt><trkpt lat="45.8939253" lon="11.5860536"><ele>1047.0</ele><time>2026-04-26T15:14:03.396Z</time></trkpt><trkpt lat="45.8939712" lon="11.5863045"><ele>1042.0</ele><time>2026-04-26T15:14:04.397Z</time></trkpt><trkpt lat="45.8940327" lon="11.586555"><ele>1037.0</ele><time>2026-04-26T15:14:05.395Z</time></trkpt><trkpt lat="45.894113" lon="11.5867999"><ele>1032.0</ele><time>2026-04-26T15:14:06.397Z</time></trkpt><trkpt lat="45.8942119" lon="11.5870277"><ele>1036.0</ele><time>2026-04-26T15:14:07.395Z</time></trkpt><trkpt lat="45.894322" lon="11.5872331"><ele>1040.0</ele><time>2026-04-26T15:14:08.394Z</time></trkpt><trkpt lat="45.8944293" lon="11.5874251"><ele>1044.0</ele><time>2026-04-26T15:14:09.396Z</time></trkpt><trkpt lat="45.8945948" lon="11.587843"><ele>1041.3333333333333</ele><time>2026-04-26T15:14:11.396Z</time></trkpt><trkpt lat="45.8946501" lon="11.5880844"><ele>1038.6666666666665</ele><time>2026-04-26T15:14:12.394Z</time></trkpt><trkpt lat="45.8946913" lon="11.5883458"><ele>1036.0</ele><time>2026-04-26T15:14:13.394Z</time></trkpt><trkpt lat="45.8947238" lon="11.5886124"><ele>1036.6666666666665</ele><time>2026-04-26T15:14:14.392Z</time></trkpt><trkpt lat="45.8947379" lon="11.5888773"><ele>1037.3333333333333</ele><time>2026-04-26T15:14:15.393Z</time></trkpt><trkpt lat="45.8947293" lon="11.5891465"><ele>1038.0</ele><time>2026-04-26T15:14:16.395Z</time></trkpt><trkpt lat="45.8947038" lon="11.5894271"><ele>1038.3333333333333</ele><time>2026-04-26T15:14:17.396Z</time></trkpt><trkpt lat="45.8946879" lon="11.5897263"><ele>1038.6666666666665</ele><time>2026-04-26T15:14:18.397Z</time></trkpt><trkpt lat="45.8946868" lon="11.5900453"><ele>1039.0</ele><time>2026-04-26T15:14:19.395Z</time></trkpt><trkpt lat="45.8946905" lon="11.5903795"><ele>1039.0</ele><time>2026-04-26T15:14:20.395Z</time></trkpt><trkpt lat="45.8946924" lon="11.5907143"><ele>1039.0</ele><time>2026-04-26T15:14:21.394Z</time></trkpt><trkpt lat="45.8946922" lon="11.5910355"><ele>1037.6666666666665</ele><time>2026-04-26T15:14:22.394Z</time></trkpt><trkpt lat="45.8946917" lon="11.5913383"><ele>1036.3333333333333</ele><time>2026-04-26T15:14:23.395Z</time></trkpt><trkpt lat="45.8946939" lon="11.5916248"><ele>1035.0</ele><time>2026-04-26T15:14:24.394Z</time></trkpt><trkpt lat="45.8946981" lon="11.5918949"><ele>1034.3333333333333</ele><time>2026-04-26T15:14:25.394Z</time></trkpt><trkpt lat="45.8947052" lon="11.5921481"><ele>1033.6666666666665</ele><time>2026-04-26T15:14:26.393Z</time></trkpt><trkpt lat="45.8947249" lon="11.5923984"><ele>1033.0</ele><time>2026-04-26T15:14:27.394Z</time></trkpt><trkpt lat="45.8947614" lon="11.59265"><ele>1029.6666666666665</ele><time>2026-04-26T15:14:28.396Z</time></trkpt><trkpt lat="45.8948198" lon="11.5929018"><ele>1026.3333333333333</ele><time>2026-04-26T15:14:29.395Z</time></trkpt><trkpt lat="45.894896" lon="11.5931537"><ele>1023.0</ele><time>2026-04-26T15:14:30.396Z</time></trkpt><trkpt lat="45.8950368" lon="11.5936341"><ele>1021.0</ele><time>2026-04-26T15:14:32.394Z</time></trkpt><trkpt lat="45.8950751" lon="11.5938691"><ele>1019.0</ele><time>2026-04-26T15:14:33.393Z</time></trkpt><trkpt lat="45.8950775" lon="11.5941173"><ele>1017.0</ele><time>2026-04-26T15:14:34.393Z</time></trkpt><trkpt lat="45.8950548" lon="11.5943695"><ele>1016.6666666666667</ele><time>2026-04-26T15:14:35.394Z</time></trkpt><trkpt lat="45.8950243" lon="11.594622"><ele>1016.3333333333334</ele><time>2026-04-26T15:14:36.394Z</time></trkpt><trkpt lat="45.8950141" lon="11.5948801"><ele>1016.0</ele><time>2026-04-26T15:14:37.394Z</time></trkpt><trkpt lat="45.8950383" lon="11.595148"><ele>1027.3333333333335</ele><time>2026-04-26T15:14:38.394Z</time></trkpt><trkpt lat="45.8950982" lon="11.5954216"><ele>1038.6666666666667</ele><time>2026-04-26T15:14:39.394Z</time></trkpt><trkpt lat="45.8951799" lon="11.5956967"><ele>1050.0</ele><time>2026-04-26T15:14:40.394Z</time></trkpt><trkpt lat="45.8952586" lon="11.5959661"><ele>1045.6666666666667</ele><time>2026-04-26T15:14:41.394Z</time></trkpt><trkpt lat="45.895335" lon="11.5962115"><ele>1041.3333333333335</ele><time>2026-04-26T15:14:42.394Z</time></trkpt><trkpt lat="45.8953993" lon="11.596449"><ele>1037.0</ele><time>2026-04-26T15:14:43.393Z</time></trkpt><trkpt lat="45.8954439" lon="11.5966941"><ele>1037.0</ele><time>2026-04-26T15:14:44.392Z</time></trkpt><trkpt lat="45.8954678" lon="11.5969609"><ele>1037.0</ele><time>2026-04-26T15:14:45.392Z</time></trkpt><trkpt lat="45.8954765" lon="11.5972473"><ele>1037.0</ele><time>2026-04-26T15:14:46.393Z</time></trkpt><trkpt lat="45.8954768" lon="11.5975517"><ele>1036.3333333333335</ele><time>2026-04-26T15:14:47.393Z</time></trkpt><trkpt lat="45.8954747" lon="11.5978631"><ele>1035.6666666666667</ele><time>2026-04-26T15:14:48.392Z</time></trkpt><trkpt lat="45.8954675" lon="11.598165"><ele>1035.0</ele><time>2026-04-26T15:14:49.393Z</time></trkpt><trkpt lat="45.895451" lon="11.5984525"><ele>1035.5</ele><time>2026-04-26T15:14:50.393Z</time></trkpt><trkpt lat="45.8954231" lon="11.5987267"><ele>1036.0</ele><time>2026-04-26T15:14:51.392Z</time></trkpt><trkpt lat="45.895336" lon="11.5992575"><ele>1035.0</ele><time>2026-04-26T15:14:53.392Z</time></trkpt><trkpt lat="45.8952739" lon="11.599525"><ele>1034.0</ele><time>2026-04-26T15:14:54.393Z</time></trkpt><trkpt lat="45.8952147" lon="11.5997759"><ele>1033.0</ele><time>2026-04-26T15:14:55.395Z</time></trkpt><trkpt lat="45.8951589" lon="11.600005"><ele>1033.0</ele><time>2026-04-26T15:14:56.393Z</time></trkpt><trkpt lat="45.8951091" lon="11.6002078"><ele>1033.0</ele><time>2026-04-26T15:14:57.394Z</time></trkpt><trkpt lat="45.8950823" lon="11.6003876"><ele>1033.0</ele><time>2026-04-26T15:14:58.393Z</time></trkpt><trkpt lat="45.8950881" lon="11.6005566"><ele>1033.0</ele><time>2026-04-26T15:14:59.392Z</time></trkpt><trkpt lat="45.8951302" lon="11.6007065"><ele>1027.5</ele><time>2026-04-26T15:15:00.395Z</time></trkpt><trkpt lat="45.8952108" lon="11.6008299"><ele>1022.0</ele><time>2026-04-26T15:15:01.392Z</time></trkpt><trkpt lat="45.8953253" lon="11.6009167"><ele>1016.5</ele><time>2026-04-26T15:15:02.392Z</time></trkpt><trkpt lat="45.8954699" lon="11.6009624"><ele>1011.0</ele><time>2026-04-26T15:15:03.392Z</time></trkpt><trkpt lat="45.8956369" lon="11.6009788"><ele>1011.0</ele><time>2026-04-26T15:15:04.39Z</time></trkpt><trkpt lat="45.8957935" lon="11.6009909"><ele>1011.0</ele><time>2026-04-26T15:15:05.392Z</time></trkpt><trkpt lat="45.8959312" lon="11.6010236"><ele>1011.0</ele><time>2026-04-26T15:15:06.393Z</time></trkpt><trkpt lat="45.8960458" lon="11.6010977"><ele>1011.0</ele><time>2026-04-26T15:15:07.394Z</time></trkpt><trkpt lat="45.8961367" lon="11.6012245"><ele>1013.0</ele><time>2026-04-26T15:15:08.394Z</time></trkpt><trkpt lat="45.8961959" lon="11.6013898"><ele>1015.0</ele><time>2026-04-26T15:15:09.391Z</time></trkpt><trkpt lat="45.8962108" lon="11.6015765"><ele>1017.0</ele><time>2026-04-26T15:15:10.392Z</time></trkpt><trkpt lat="45.8961825" lon="11.6017803"><ele>1019.0</ele><time>2026-04-26T15:15:11.391Z</time></trkpt><trkpt lat="45.8961212" lon="11.6020062"><ele>1031.0</ele><time>2026-04-26T15:15:12.395Z</time></trkpt><trkpt lat="45.8959443" lon="11.6025241"><ele>1043.0</ele><time>2026-04-26T15:15:14.392Z</time></trkpt><trkpt lat="45.8958532" lon="11.6028092"><ele>1032.0</ele><time>2026-04-26T15:15:15.395Z</time></trkpt><trkpt lat="45.8957649" lon="11.6030979"><ele>1021.0</ele><time>2026-04-26T15:15:16.393Z</time></trkpt><trkpt lat="45.8956799" lon="11.6033762"><ele>1010.0</ele><time>2026-04-26T15:15:17.393Z</time></trkpt><trkpt lat="45.8955992" lon="11.6036323"><ele>1020.6666666666667</ele><time>2026-04-26T15:15:18.392Z</time></trkpt><trkpt lat="45.8955197" lon="11.603869"><ele>1031.3333333333333</ele><time>2026-04-26T15:15:19.391Z</time></trkpt><trkpt lat="45.8954267" lon="11.6040807"><ele>1042.0</ele><time>2026-04-26T15:15:20.391Z</time></trkpt><trkpt lat="45.8953053" lon="11.6042659"><ele>1042.0</ele><time>2026-04-26T15:15:21.392Z</time></trkpt><trkpt lat="45.8951621" lon="11.6044367"><ele>1042.0</ele><time>2026-04-26T15:15:22.39Z</time></trkpt><trkpt lat="45.8950108" lon="11.6046079"><ele>1042.0</ele><time>2026-04-26T15:15:23.392Z</time></trkpt><trkpt lat="45.8948672" lon="11.6047854"><ele>1040.0</ele><time>2026-04-26T15:15:24.392Z</time></trkpt><trkpt lat="45.8947466" lon="11.6049744"><ele>1038.0</ele><time>2026-04-26T15:15:25.392Z</time></trkpt><trkpt lat="45.8946579" lon="11.6051902"><ele>1036.0</ele><time>2026-04-26T15:15:26.391Z</time></trkpt><trkpt lat="45.8945994" lon="11.6054226"><ele>1036.0</ele><time>2026-04-26T15:15:27.39Z</time></trkpt><trkpt lat="45.8945679" lon="11.6056674"><ele>1036.0</ele><time>2026-04-26T15:15:28.39Z</time></trkpt><trkpt lat="45.894575" lon="11.6059301"><ele>1036.0</ele><time>2026-04-26T15:15:29.392Z</time></trkpt><trkpt lat="45.8945963" lon="11.6062082"><ele>1036.0</ele><time>2026-04-26T15:15:30.393Z</time></trkpt><trkpt lat="45.8946147" lon="11.6064846"><ele>1036.0</ele><time>2026-04-26T15:15:31.393Z</time></trkpt><trkpt lat="45.8946303" lon="11.6067464"><ele>1036.0</ele><time>2026-04-26T15:15:32.394Z</time></trkpt><trkpt lat="45.894646" lon="11.6069938"><ele>1035.0</ele><time>2026-04-26T15:15:33.393Z</time></trkpt><trkpt lat="45.8946021" lon="11.6074877"><ele>1034.0</ele><time>2026-04-26T15:15:35.394Z</time></trkpt><trkpt lat="45.8945523" lon="11.6077363"><ele>1034.6666666666667</ele><time>2026-04-26T15:15:36.393Z</time></trkpt><trkpt lat="45.8945242" lon="11.6080042"><ele>1035.3333333333333</ele><time>2026-04-26T15:15:37.393Z</time></trkpt><trkpt lat="45.8945136" lon="11.6082949"><ele>1036.0</ele><time>2026-04-26T15:15:38.394Z</time></trkpt><trkpt lat="45.8945092" lon="11.6085859"><ele>1037.3333333333333</ele><time>2026-04-26T15:15:39.395Z</time></trkpt><trkpt lat="45.8945036" lon="11.6088625"><ele>1038.6666666666667</ele><time>2026-04-26T15:15:40.393Z</time></trkpt><trkpt lat="45.8944887" lon="11.6091286"><ele>1040.0</ele><time>2026-04-26T15:15:41.392Z</time></trkpt><trkpt lat="45.8944399" lon="11.6093831"><ele>1045.6666666666667</ele><time>2026-04-26T15:15:42.393Z</time></trkpt><trkpt lat="45.894361" lon="11.6096231"><ele>1051.3333333333333</ele><time>2026-04-26T15:15:43.394Z</time></trkpt><trkpt lat="45.894253" lon="11.60985"><ele>1057.0</ele><time>2026-04-26T15:15:44.394Z</time></trkpt><trkpt lat="45.8941261" lon="11.6100645"><ele>1054.0</ele><time>2026-04-26T15:15:45.393Z</time></trkpt><trkpt lat="45.8939932" lon="11.6102628"><ele>1051.0</ele><time>2026-04-26T15:15:46.392Z</time></trkpt><trkpt lat="45.8938505" lon="11.6104356"><ele>1048.0</ele><time>2026-04-26T15:15:47.391Z</time></trkpt><trkpt lat="45.8936915" lon="11.610575"><ele>1048.0</ele><time>2026-04-26T15:15:48.392Z</time></trkpt><trkpt lat="45.8935239" lon="11.6106981"><ele>1048.0</ele><time>2026-04-26T15:15:49.393Z</time></trkpt><trkpt lat="45.8933548" lon="11.6108209"><ele>1048.0</ele><time>2026-04-26T15:15:50.391Z</time></trkpt><trkpt lat="45.8931839" lon="11.6109262"><ele>1038.3333333333333</ele><time>2026-04-26T15:15:51.39Z</time></trkpt><trkpt lat="45.8930133" lon="11.6110018"><ele>1028.6666666666667</ele><time>2026-04-26T15:15:52.392Z</time></trkpt><trkpt lat="45.8928474" lon="11.6110528"><ele>1019.0</ele><time>2026-04-26T15:15:53.39Z</time></trkpt><trkpt lat="45.89269" lon="11.6111057"><ele>1019.0</ele><time>2026-04-26T15:15:54.392Z</time></trkpt><trkpt lat="45.8924052" lon="11.6112713"><ele>1019.0</ele><time>2026-04-26T15:15:56.392Z</time></trkpt><trkpt lat="45.8922762" lon="11.6113928"><ele>1019.0</ele><time>2026-04-26T15:15:57.393Z</time></trkpt><trkpt lat="45.8921685" lon="11.6115392"><ele>1019.0</ele><time>2026-04-26T15:15:58.394Z</time></trkpt><trkpt lat="45.8920797" lon="11.6117075"><ele>1019.0</ele><time>2026-04-26T15:15:59.394Z</time></trkpt><trkpt lat="45.892008" lon="11.6118954"><ele>1019.0</ele><time>2026-04-26T15:16:00.394Z</time></trkpt><trkpt lat="45.8919613" lon="11.6120882"><ele>1022.0</ele><time>2026-04-26T15:16:01.396Z</time></trkpt><trkpt lat="45.8919506" lon="11.6122893"><ele>1025.0</ele><time>2026-04-26T15:16:02.394Z</time></trkpt><trkpt lat="45.8919731" lon="11.6125002"><ele>1028.0</ele><time>2026-04-26T15:16:03.396Z</time></trkpt><trkpt lat="45.8920149" lon="11.6127155"><ele>1031.0</ele><time>2026-04-26T15:16:04.395Z</time></trkpt><trkpt lat="45.8920611" lon="11.6128924"><ele>1031.6666666666667</ele><time>2026-04-26T15:16:05.194Z</time></trkpt><trkpt lat="45.8921362" lon="11.6131652"><ele>1032.3333333333333</ele><time>2026-04-26T15:16:06.395Z</time></trkpt><trkpt lat="45.8921842" lon="11.6134069"><ele>1033.0</ele><time>2026-04-26T15:16:07.393Z</time></trkpt><trkpt lat="45.8922185" lon="11.6136521"><ele>1030.3333333333333</ele><time>2026-04-26T15:16:08.394Z</time></trkpt><trkpt lat="45.8922398" lon="11.6138906"><ele>1027.6666666666667</ele><time>2026-04-26T15:16:09.395Z</time></trkpt><trkpt lat="45.8922423" lon="11.6141176"><ele>1025.0</ele><time>2026-04-26T15:16:10.395Z</time></trkpt><trkpt lat="45.892222" lon="11.6143318"><ele>1027.3333333333335</ele><time>2026-04-26T15:16:11.393Z</time></trkpt><trkpt lat="45.8921792" lon="11.6145361"><ele>1029.6666666666667</ele><time>2026-04-26T15:16:12.395Z</time></trkpt><trkpt lat="45.8921171" lon="11.6147317"><ele>1032.0</ele><time>2026-04-26T15:16:13.396Z</time></trkpt><trkpt lat="45.8920378" lon="11.6149188"><ele>1032.0</ele><time>2026-04-26T15:16:14.392Z</time></trkpt><trkpt lat="45.8919428" lon="11.6150991"><ele>1032.0</ele><time>2026-04-26T15:16:15.394Z</time></trkpt><trkpt lat="45.8916983" lon="11.6154218"><ele>1029.0</ele><time>2026-04-26T15:16:17.394Z</time></trkpt><trkpt lat="45.8915541" lon="11.6155581"><ele>1026.0</ele><time>2026-04-26T15:16:18.395Z</time></trkpt><trkpt lat="45.8914059" lon="11.6156751"><ele>1023.0</ele><time>2026-04-26T15:16:19.394Z</time></trkpt><trkpt lat="45.8912591" lon="11.6157682"><ele>1023.0</ele><time>2026-04-26T15:16:20.396Z</time></trkpt><trkpt lat="45.8911215" lon="11.6158467"><ele>1023.0</ele><time>2026-04-26T15:16:21.398Z</time></trkpt><trkpt lat="45.8909995" lon="11.6159199"><ele>1023.0</ele><time>2026-04-26T15:16:22.396Z</time></trkpt><trkpt lat="45.890897" lon="11.6159984"><ele>1023.0</ele><time>2026-04-26T15:16:23.395Z</time></trkpt><trkpt lat="45.8908208" lon="11.6160942"><ele>1021.5</ele><time>2026-04-26T15:16:24.397Z</time></trkpt><trkpt lat="45.8907689" lon="11.6162059"><ele>1020.0</ele><time>2026-04-26T15:16:25.396Z</time></trkpt><trkpt lat="45.8907381" lon="11.6163251"><ele>1018.5</ele><time>2026-04-26T15:16:26.395Z</time></trkpt><trkpt lat="45.8907299" lon="11.6164432"><ele>1017.0</ele><time>2026-04-26T15:16:27.396Z</time></trkpt><trkpt lat="45.8907488" lon="11.6165567"><ele>1015.5</ele><time>2026-04-26T15:16:28.396Z</time></trkpt><trkpt lat="45.8907913" lon="11.6166656"><ele>1014.0</ele><time>2026-04-26T15:16:29.395Z</time></trkpt><trkpt lat="45.8908604" lon="11.6167601"><ele>1015.5</ele><time>2026-04-26T15:16:30.4Z</time></trkpt><trkpt lat="45.8909478" lon="11.6168165"><ele>1017.0</ele><time>2026-04-26T15:16:31.397Z</time></trkpt><trkpt lat="45.8910546" lon="11.6168192"><ele>1018.5</ele><time>2026-04-26T15:16:32.397Z</time></trkpt><trkpt lat="45.8911791" lon="11.6167865"><ele>1020.0</ele><time>2026-04-26T15:16:33.396Z</time></trkpt><trkpt lat="45.8913206" lon="11.6167419"><ele>1020.0</ele><time>2026-04-26T15:16:34.397Z</time></trkpt><trkpt lat="45.8914833" lon="11.6166988"><ele>1020.0</ele><time>2026-04-26T15:16:35.396Z</time></trkpt><trkpt lat="45.8916643" lon="11.6166428"><ele>1020.0</ele><time>2026-04-26T15:16:36.394Z</time></trkpt><trkpt lat="45.8920541" lon="11.616458"><ele>1022.6666666666667</ele><time>2026-04-26T15:16:38.394Z</time></trkpt><trkpt lat="45.8922398" lon="11.6163555"><ele>1025.3333333333335</ele><time>2026-04-26T15:16:39.393Z</time></trkpt><trkpt lat="45.8924143" lon="11.6162423"><ele>1028.0</ele><time>2026-04-26T15:16:40.393Z</time></trkpt><trkpt lat="45.8925801" lon="11.6161054"><ele>1022.0</ele><time>2026-04-26T15:16:41.393Z</time></trkpt><trkpt lat="45.8927411" lon="11.6159478"><ele>1016.0</ele><time>2026-04-26T15:16:42.393Z</time></trkpt><trkpt lat="45.8929002" lon="11.6157814"><ele>1010.0</ele><time>2026-04-26T15:16:43.395Z</time></trkpt><trkpt lat="45.8930527" lon="11.6156199"><ele>1010.0</ele><time>2026-04-26T15:16:44.395Z</time></trkpt><trkpt lat="45.8931982" lon="11.6154651"><ele>1010.0</ele><time>2026-04-26T15:16:45.395Z</time></trkpt><trkpt lat="45.8933361" lon="11.6153178"><ele>1010.0</ele><time>2026-04-26T15:16:46.396Z</time></trkpt><trkpt lat="45.893468" lon="11.6151814"><ele>1015.3333333333334</ele><time>2026-04-26T15:16:47.397Z</time></trkpt><trkpt lat="45.8936" lon="11.615068"><ele>1020.6666666666667</ele><time>2026-04-26T15:16:48.395Z</time></trkpt><trkpt lat="45.8937427" lon="11.6149899"><ele>1026.0</ele><time>2026-04-26T15:16:49.396Z</time></trkpt><trkpt lat="45.8938968" lon="11.6149625"><ele>1026.0</ele><time>2026-04-26T15:16:50.397Z</time></trkpt><trkpt lat="45.89406" lon="11.6149899"><ele>1026.0</ele><time>2026-04-26T15:16:51.397Z</time></trkpt><trkpt lat="45.8942298" lon="11.6150639"><ele>1026.0</ele><time>2026-04-26T15:16:52.397Z</time></trkpt><trkpt lat="45.8944091" lon="11.6151565"><ele>1021.6666666666667</ele><time>2026-04-26T15:16:53.396Z</time></trkpt><trkpt lat="45.8946028" lon="11.6152522"><ele>1017.3333333333334</ele><time>2026-04-26T15:16:54.397Z</time></trkpt><trkpt lat="45.8948064" lon="11.6153547"><ele>1013.0</ele><time>2026-04-26T15:16:55.399Z</time></trkpt><trkpt lat="45.8949701" lon="11.6154434"><ele>1026.0</ele><time>2026-04-26T15:16:56.196Z</time></trkpt><trkpt lat="45.8952108" lon="11.615598"><ele>1039.0</ele><time>2026-04-26T15:16:57.397Z</time></trkpt><trkpt lat="45.8955917" lon="11.615922"><ele>1039.0</ele><time>2026-04-26T15:16:59.397Z</time></trkpt><trkpt lat="45.8957836" lon="11.6161107"><ele>1039.0</ele><time>2026-04-26T15:17:00.397Z</time></trkpt><trkpt lat="45.8959787" lon="11.616313"><ele>1038.5</ele><time>2026-04-26T15:17:01.401Z</time></trkpt><trkpt lat="45.8961757" lon="11.6165169"><ele>1038.0</ele><time>2026-04-26T15:17:02.397Z</time></trkpt><trkpt lat="45.8963683" lon="11.6167214"><ele>1038.0</ele><time>2026-04-26T15:17:03.396Z</time></trkpt><trkpt lat="45.8965518" lon="11.6169141"><ele>1038.0</ele><time>2026-04-26T15:17:04.394Z</time></trkpt><trkpt lat="45.8967265" lon="11.6170936"><ele>1038.0</ele><time>2026-04-26T15:17:05.393Z</time></trkpt><trkpt lat="45.8968947" lon="11.6172508"><ele>1036.6666666666667</ele><time>2026-04-26T15:17:06.393Z</time></trkpt><trkpt lat="45.897066" lon="11.6173768"><ele>1035.3333333333335</ele><time>2026-04-26T15:17:07.395Z</time></trkpt><trkpt lat="45.8972442" lon="11.617463"><ele>1034.0</ele><time>2026-04-26T15:17:08.395Z</time></trkpt><trkpt lat="45.8974184" lon="11.6175158"><ele>1034.0</ele><time>2026-04-26T15:17:09.396Z</time></trkpt><trkpt lat="45.8975781" lon="11.6175517"><ele>1034.0</ele><time>2026-04-26T15:17:10.395Z</time></trkpt><trkpt lat="45.8977231" lon="11.6176003"><ele>1034.0</ele><time>2026-04-26T15:17:11.396Z</time></trkpt><trkpt lat="45.8978558" lon="11.6176972"><ele>1035.0</ele><time>2026-04-26T15:17:12.397Z</time></trkpt><trkpt lat="45.8979671" lon="11.6178494"><ele>1036.0</ele><time>2026-04-26T15:17:13.397Z</time></trkpt><trkpt lat="45.8980637" lon="11.6180461"><ele>1037.0</ele><time>2026-04-26T15:17:14.397Z</time></trkpt><trkpt lat="45.8981639" lon="11.6182706"><ele>1037.0</ele><time>2026-04-26T15:17:15.397Z</time></trkpt><trkpt lat="45.8982818" lon="11.6185025"><ele>1037.0</ele><time>2026-04-26T15:17:16.395Z</time></trkpt><trkpt lat="45.8983614" lon="11.6186415"><ele>1037.0</ele><time>2026-04-26T15:17:16.993Z</time></trkpt><trkpt lat="45.898572" lon="11.6189693"><ele>1044.0</ele><time>2026-04-26T15:17:18.395Z</time></trkpt><trkpt lat="45.898893" lon="11.6194382"><ele>1034.0</ele><time>2026-04-26T15:17:20.395Z</time></trkpt><trkpt lat="45.8990547" lon="11.6196724"><ele>1024.0</ele><time>2026-04-26T15:17:21.397Z</time></trkpt><trkpt lat="45.8992155" lon="11.6199054"><ele>1027.6666666666665</ele><time>2026-04-26T15:17:22.397Z</time></trkpt><trkpt lat="45.8993702" lon="11.6201297"><ele>1031.3333333333333</ele><time>2026-04-26T15:17:23.397Z</time></trkpt><trkpt lat="45.8995171" lon="11.6203403"><ele>1035.0</ele><time>2026-04-26T15:17:24.397Z</time></trkpt><trkpt lat="45.8996562" lon="11.6205407"><ele>1035.0</ele><time>2026-04-26T15:17:25.397Z</time></trkpt><trkpt lat="45.8997913" lon="11.6207336"><ele>1035.0</ele><time>2026-04-26T15:17:26.397Z</time></trkpt><trkpt lat="45.8999265" lon="11.6209258"><ele>1035.0</ele><time>2026-04-26T15:17:27.396Z</time></trkpt><trkpt lat="45.9000583" lon="11.6211119"><ele>1043.3333333333333</ele><time>2026-04-26T15:17:28.394Z</time></trkpt><trkpt lat="45.9001823" lon="11.6212882"><ele>1051.6666666666665</ele><time>2026-04-26T15:17:29.394Z</time></trkpt><trkpt lat="45.9002976" lon="11.6214543"><ele>1060.0</ele><time>2026-04-26T15:17:30.395Z</time></trkpt><trkpt lat="45.9004011" lon="11.6216144"><ele>1060.0</ele><time>2026-04-26T15:17:31.395Z</time></trkpt><trkpt lat="45.900494" lon="11.6217734"><ele>1060.0</ele><time>2026-04-26T15:17:32.396Z</time></trkpt><trkpt lat="45.9005764" lon="11.6219469"><ele>1060.0</ele><time>2026-04-26T15:17:33.396Z</time></trkpt><trkpt lat="45.9006389" lon="11.6221465"><ele>1060.0</ele><time>2026-04-26T15:17:34.395Z</time></trkpt><trkpt lat="45.9006794" lon="11.6223675"><ele>1057.5</ele><time>2026-04-26T15:17:35.396Z</time></trkpt><trkpt lat="45.900697" lon="11.6225992"><ele>1055.0</ele><time>2026-04-26T15:17:36.396Z</time></trkpt><trkpt lat="45.9006611" lon="11.623082"><ele>1053.0</ele><time>2026-04-26T15:17:38.397Z</time></trkpt><trkpt lat="45.9006305" lon="11.6233352"><ele>1051.0</ele><time>2026-04-26T15:17:39.397Z</time></trkpt><trkpt lat="45.9006409" lon="11.6238564"><ele>1051.0</ele><time>2026-04-26T15:17:41.395Z</time></trkpt><trkpt lat="45.9006648" lon="11.624107"><ele>1051.0</ele><time>2026-04-26T15:17:42.397Z</time></trkpt><trkpt lat="45.9006866" lon="11.6243299"><ele>1051.0</ele><time>2026-04-26T15:17:43.397Z</time></trkpt><trkpt lat="45.9007037" lon="11.6245242"><ele>1051.8</ele><time>2026-04-26T15:17:44.394Z</time></trkpt><trkpt lat="45.9006994" lon="11.6246904"><ele>1052.6</ele><time>2026-04-26T15:17:45.397Z</time></trkpt><trkpt lat="45.9006603" lon="11.6248277"><ele>1053.4</ele><time>2026-04-26T15:17:46.395Z</time></trkpt><trkpt lat="45.900584" lon="11.6249334"><ele>1054.2</ele><time>2026-04-26T15:17:47.393Z</time></trkpt><trkpt lat="45.9004762" lon="11.6249911"><ele>1055.0</ele><time>2026-04-26T15:17:48.393Z</time></trkpt><trkpt lat="45.9003472" lon="11.6250037"><ele>1055.0</ele><time>2026-04-26T15:17:49.394Z</time></trkpt><trkpt lat="45.900199" lon="11.624996"><ele>1055.0</ele><time>2026-04-26T15:17:50.394Z</time></trkpt><trkpt lat="45.9000421" lon="11.6249988"><ele>1055.0</ele><time>2026-04-26T15:17:51.395Z</time></trkpt><trkpt lat="45.8998989" lon="11.6250373"><ele>1052.5</ele><time>2026-04-26T15:17:52.394Z</time></trkpt><trkpt lat="45.8997778" lon="11.625122"><ele>1050.0</ele><time>2026-04-26T15:17:53.393Z</time></trkpt><trkpt lat="45.899676" lon="11.6252452"><ele>1047.5</ele><time>2026-04-26T15:17:54.394Z</time></trkpt><trkpt lat="45.8996013" lon="11.6254044"><ele>1045.0</ele><time>2026-04-26T15:17:55.395Z</time></trkpt><trkpt lat="45.8995576" lon="11.625593"><ele>1050.25</ele><time>2026-04-26T15:17:56.394Z</time></trkpt><trkpt lat="45.8995362" lon="11.6257933"><ele>1055.5</ele><time>2026-04-26T15:17:57.398Z</time></trkpt><trkpt lat="45.8995178" lon="11.625987"><ele>1060.75</ele><time>2026-04-26T15:17:58.397Z</time></trkpt><trkpt lat="45.8994939" lon="11.6261641"><ele>1066.0</ele><time>2026-04-26T15:17:59.396Z</time></trkpt><trkpt lat="45.89946" lon="11.6263337"><ele>1067.0</ele><time>2026-04-26T15:18:00.396Z</time></trkpt><trkpt lat="45.8993498" lon="11.6266733"><ele>1068.0</ele><time>2026-04-26T15:18:02.397Z</time></trkpt><trkpt lat="45.8992991" lon="11.6268343"><ele>1069.0</ele><time>2026-04-26T15:18:03.401Z</time></trkpt><trkpt lat="45.8992777" lon="11.6269924"><ele>1069.0</ele><time>2026-04-26T15:18:04.397Z</time></trkpt><trkpt lat="45.8992947" lon="11.6271538"><ele>1069.0</ele><time>2026-04-26T15:18:05.397Z</time></trkpt><trkpt lat="45.8993394" lon="11.6273119"><ele>1069.0</ele><time>2026-04-26T15:18:06.398Z</time></trkpt><trkpt lat="45.8993716" lon="11.627471"><ele>1069.0</ele><time>2026-04-26T15:18:07.397Z</time></trkpt><trkpt lat="45.89936" lon="11.6276267"><ele>1069.0</ele><time>2026-04-26T15:18:08.397Z</time></trkpt><trkpt lat="45.8993028" lon="11.6277598"><ele>1069.0</ele><time>2026-04-26T15:18:09.398Z</time></trkpt><trkpt lat="45.8992092" lon="11.6278638"><ele>1069.0</ele><time>2026-04-26T15:18:10.401Z</time></trkpt><trkpt lat="45.8990891" lon="11.6279548"><ele>1069.0</ele><time>2026-04-26T15:18:11.397Z</time></trkpt><trkpt lat="45.8989513" lon="11.6280551"><ele>1068.0</ele><time>2026-04-26T15:18:12.397Z</time></trkpt><trkpt lat="45.8987994" lon="11.6281721"><ele>1067.0</ele><time>2026-04-26T15:18:13.398Z</time></trkpt><trkpt lat="45.8986337" lon="11.6282936"><ele>1066.0</ele><time>2026-04-26T15:18:14.398Z</time></trkpt><trkpt lat="45.8984522" lon="11.6284021"><ele>1064.0</ele><time>2026-04-26T15:18:15.396Z</time></trkpt><trkpt lat="45.8982643" lon="11.6285004"><ele>1062.0</ele><time>2026-04-26T15:18:16.398Z</time></trkpt><trkpt lat="45.898085" lon="11.6285967"><ele>1060.0</ele><time>2026-04-26T15:18:17.394Z</time></trkpt><trkpt lat="45.8979224" lon="11.6287058"><ele>1064.6666666666665</ele><time>2026-04-26T15:18:18.395Z</time></trkpt><trkpt lat="45.8977769" lon="11.6288333"><ele>1069.3333333333333</ele><time>2026-04-26T15:18:19.395Z</time></trkpt><trkpt lat="45.8976385" lon="11.6289693"><ele>1074.0</ele><time>2026-04-26T15:18:20.394Z</time></trkpt><trkpt lat="45.8975038" lon="11.629109"><ele>1074.0</ele><time>2026-04-26T15:18:21.395Z</time></trkpt><trkpt lat="45.8972339" lon="11.629393"><ele>1074.0</ele><time>2026-04-26T15:18:23.398Z</time></trkpt><trkpt lat="45.897105" lon="11.6295459"><ele>1079.0</ele><time>2026-04-26T15:18:24.398Z</time></trkpt><trkpt lat="45.8969849" lon="11.6297025"><ele>1084.0</ele><time>2026-04-26T15:18:25.396Z</time></trkpt><trkpt lat="45.8968736" lon="11.6298511"><ele>1089.0</ele><time>2026-04-26T15:18:26.396Z</time></trkpt><trkpt lat="45.8967705" lon="11.629988"><ele>1088.0</ele><time>2026-04-26T15:18:27.396Z</time></trkpt><trkpt lat="45.8966767" lon="11.6301126"><ele>1087.0</ele><time>2026-04-26T15:18:28.398Z</time></trkpt><trkpt lat="45.8965996" lon="11.6302233"><ele>1086.0</ele><time>2026-04-26T15:18:29.396Z</time></trkpt><trkpt lat="45.8965404" lon="11.6303199"><ele>1085.0</ele><time>2026-04-26T15:18:30.399Z</time></trkpt><trkpt lat="45.8965007" lon="11.6304069"><ele>1084.0</ele><time>2026-04-26T15:18:31.395Z</time></trkpt><trkpt lat="45.8964759" lon="11.6305772"><ele>1084.0</ele><time>2026-04-26T15:18:33.398Z</time></trkpt><trkpt lat="45.896545" lon="11.6307095"><ele>1084.0</ele><time>2026-04-26T15:18:35.396Z</time></trkpt><trkpt lat="45.8966102" lon="11.6307275"><ele>1084.0</ele><time>2026-04-26T15:18:36.397Z</time></trkpt><trkpt lat="45.8966909" lon="11.6307253"><ele>1084.0</ele><time>2026-04-26T15:18:37.397Z</time></trkpt><trkpt lat="45.8967928" lon="11.630719"><ele>1084.0</ele><time>2026-04-26T15:18:38.397Z</time></trkpt><trkpt lat="45.8969168" lon="11.6307072"><ele>1085.75</ele><time>2026-04-26T15:18:39.396Z</time></trkpt><trkpt lat="45.897057" lon="11.6306947"><ele>1087.5</ele><time>2026-04-26T15:18:40.395Z</time></trkpt><trkpt lat="45.8971923" lon="11.6306863"><ele>1089.25</ele><time>2026-04-26T15:18:41.394Z</time></trkpt><trkpt lat="45.8973149" lon="11.630678"><ele>1091.0</ele><time>2026-04-26T15:18:42.393Z</time></trkpt><trkpt lat="45.8975203" lon="11.6306031"><ele>1091.25</ele><time>2026-04-26T15:18:44.393Z</time></trkpt><trkpt lat="45.8976208" lon="11.6305343"><ele>1091.5</ele><time>2026-04-26T15:18:45.396Z</time></trkpt><trkpt lat="45.8977369" lon="11.6304763"><ele>1091.75</ele><time>2026-04-26T15:18:46.397Z</time></trkpt><trkpt lat="45.8978691" lon="11.6304294"><ele>1092.0</ele><time>2026-04-26T15:18:47.395Z</time></trkpt><trkpt lat="45.8980126" lon="11.6303917"><ele>1092.0</ele><time>2026-04-26T15:18:48.396Z</time></trkpt><trkpt lat="45.8981629" lon="11.6303559"><ele>1092.0</ele><time>2026-04-26T15:18:49.395Z</time></trkpt><trkpt lat="45.8983218" lon="11.6303169"><ele>1092.0</ele><time>2026-04-26T15:18:50.395Z</time></trkpt><trkpt lat="45.8984918" lon="11.6302752"><ele>1090.3333333333333</ele><time>2026-04-26T15:18:51.397Z</time></trkpt><trkpt lat="45.8986648" lon="11.6302331"><ele>1088.6666666666665</ele><time>2026-04-26T15:18:52.395Z</time></trkpt><trkpt lat="45.8988301" lon="11.6301943"><ele>1087.0</ele><time>2026-04-26T15:18:53.398Z</time></trkpt><trkpt lat="45.898986" lon="11.6301571"><ele>1087.0</ele><time>2026-04-26T15:18:54.397Z</time></trkpt><trkpt lat="45.8991339" lon="11.6301212"><ele>1087.0</ele><time>2026-04-26T15:18:55.396Z</time></trkpt><trkpt lat="45.8992745" lon="11.6300849"><ele>1087.0</ele><time>2026-04-26T15:18:56.395Z</time></trkpt><trkpt lat="45.8994105" lon="11.6300509"><ele>1087.0</ele><time>2026-04-26T15:18:57.397Z</time></trkpt><trkpt lat="45.8995412" lon="11.630018"><ele>1085.4</ele><time>2026-04-26T15:18:58.394Z</time></trkpt><trkpt lat="45.8996617" lon="11.6299851"><ele>1083.8000000000002</ele><time>2026-04-26T15:18:59.394Z</time></trkpt><trkpt lat="45.8997694" lon="11.6299554"><ele>1082.2</ele><time>2026-04-26T15:19:00.394Z</time></trkpt><trkpt lat="45.8998624" lon="11.6299287"><ele>1080.6000000000001</ele><time>2026-04-26T15:19:01.398Z</time></trkpt><trkpt lat="45.8999458" lon="11.6299075"><ele>1079.0</ele><time>2026-04-26T15:19:02.396Z</time></trkpt><trkpt lat="45.9000218" lon="11.6298905"><ele>1079.0</ele><time>2026-04-26T15:19:03.397Z</time></trkpt><trkpt lat="45.900173" lon="11.6298681"><ele>1079.0</ele><time>2026-04-26T15:19:06.395Z</time></trkpt><trkpt lat="45.9001429" lon="11.629997"><ele>1079.0</ele><time>2026-04-26T15:19:09.394Z</time></trkpt><trkpt lat="45.9000629" lon="11.6300377"><ele>1079.0</ele><time>2026-04-26T15:19:10.397Z</time></trkpt><trkpt lat="45.8999515" lon="11.6300906"><ele>1079.0</ele><time>2026-04-26T15:19:11.396Z</time></trkpt><trkpt lat="45.8998175" lon="11.6301803"><ele>1079.0</ele><time>2026-04-26T15:19:12.397Z</time></trkpt><trkpt lat="45.8996661" lon="11.6302954"><ele>1079.0</ele><time>2026-04-26T15:19:13.397Z</time></trkpt><trkpt lat="45.8995204" lon="11.6304226"><ele>1079.0</ele><time>2026-04-26T15:19:14.397Z</time></trkpt><trkpt lat="45.8993873" lon="11.630554"><ele>1078.5</ele><time>2026-04-26T15:19:15.398Z</time></trkpt><trkpt lat="45.8992654" lon="11.6306896"><ele>1078.0</ele><time>2026-04-26T15:19:16.396Z</time></trkpt><trkpt lat="45.8991585" lon="11.6308312"><ele>1077.5</ele><time>2026-04-26T15:19:17.398Z</time></trkpt><trkpt lat="45.899067" lon="11.6309777"><ele>1077.0</ele><time>2026-04-26T15:19:18.397Z</time></trkpt><trkpt lat="45.8989917" lon="11.631128"><ele>1077.25</ele><time>2026-04-26T15:19:19.397Z</time></trkpt><trkpt lat="45.8989456" lon="11.6312872"><ele>1077.5</ele><time>2026-04-26T15:19:20.394Z</time></trkpt><trkpt lat="45.8989396" lon="11.6314599"><ele>1077.75</ele><time>2026-04-26T15:19:21.398Z</time></trkpt><trkpt lat="45.8989731" lon="11.6316464"><ele>1078.0</ele><time>2026-04-26T15:19:22.393Z</time></trkpt><trkpt lat="45.8990402" lon="11.6318387"><ele>1080.5</ele><time>2026-04-26T15:19:23.393Z</time></trkpt><trkpt lat="45.8991352" lon="11.6320284"><ele>1083.0</ele><time>2026-04-26T15:19:24.392Z</time></trkpt><trkpt lat="45.8993792" lon="11.6324016"><ele>1077.0</ele><time>2026-04-26T15:19:26.394Z</time></trkpt><trkpt lat="45.8994944" lon="11.6325788"><ele>1071.0</ele><time>2026-04-26T15:19:27.395Z</time></trkpt><trkpt lat="45.8996004" lon="11.6327556"><ele>1065.0</ele><time>2026-04-26T15:19:28.396Z</time></trkpt><trkpt lat="45.8997004" lon="11.6329305"><ele>1065.0</ele><time>2026-04-26T15:19:29.394Z</time></trkpt><trkpt lat="45.8997979" lon="11.633108"><ele>1065.0</ele><time>2026-04-26T15:19:30.395Z</time></trkpt><trkpt lat="45.8998956" lon="11.6332908"><ele>1065.0</ele><time>2026-04-26T15:19:31.393Z</time></trkpt><trkpt lat="45.8999899" lon="11.6334802"><ele>1066.0</ele><time>2026-04-26T15:19:32.394Z</time></trkpt><trkpt lat="45.9000812" lon="11.633671"><ele>1067.0</ele><time>2026-04-26T15:19:33.393Z</time></trkpt><trkpt lat="45.9001509" lon="11.6338216"><ele>1068.0</ele><time>2026-04-26T15:19:34.194Z</time></trkpt><trkpt lat="45.900249" lon="11.6340416"><ele>1060.5</ele><time>2026-04-26T15:19:35.397Z</time></trkpt><trkpt lat="45.9003248" lon="11.6342201"><ele>1053.0</ele><time>2026-04-26T15:19:36.395Z</time></trkpt><trkpt lat="45.9003918" lon="11.6344021"><ele>1045.5</ele><time>2026-04-26T15:19:37.397Z</time></trkpt><trkpt lat="45.9004512" lon="11.6345932"><ele>1038.0</ele><time>2026-04-26T15:19:38.395Z</time></trkpt><trkpt lat="45.9005024" lon="11.6347904"><ele>1038.0</ele><time>2026-04-26T15:19:39.395Z</time></trkpt><trkpt lat="45.9005509" lon="11.6349811"><ele>1038.0</ele><time>2026-04-26T15:19:40.395Z</time></trkpt><trkpt lat="45.9005961" lon="11.6351636"><ele>1038.0</ele><time>2026-04-26T15:19:41.394Z</time></trkpt><trkpt lat="45.9006317" lon="11.6353443"><ele>1038.0</ele><time>2026-04-26T15:19:42.394Z</time></trkpt><trkpt lat="45.900646" lon="11.6355285"><ele>1039.3333333333333</ele><time>2026-04-26T15:19:43.395Z</time></trkpt><trkpt lat="45.9006366" lon="11.6357131"><ele>1040.6666666666665</ele><time>2026-04-26T15:19:44.396Z</time></trkpt><trkpt lat="45.9006019" lon="11.6358886"><ele>1042.0</ele><time>2026-04-26T15:19:45.396Z</time></trkpt><trkpt lat="45.9004587" lon="11.6362101"><ele>1041.5</ele><time>2026-04-26T15:19:47.396Z</time></trkpt><trkpt lat="45.9003593" lon="11.6363478"><ele>1041.0</ele><time>2026-04-26T15:19:48.396Z</time></trkpt><trkpt lat="45.9002519" lon="11.6364648"><ele>1040.5</ele><time>2026-04-26T15:19:49.397Z</time></trkpt><trkpt lat="45.9001291" lon="11.6365696"><ele>1040.0</ele><time>2026-04-26T15:19:50.396Z</time></trkpt><trkpt lat="45.8999875" lon="11.636664"><ele>1040.0</ele><time>2026-04-26T15:19:51.397Z</time></trkpt><trkpt lat="45.8998301" lon="11.636759"><ele>1040.0</ele><time>2026-04-26T15:19:52.398Z</time></trkpt><trkpt lat="45.8996719" lon="11.6368606"><ele>1040.0</ele><time>2026-04-26T15:19:53.395Z</time></trkpt><trkpt lat="45.8995205" lon="11.6369625"><ele>1034.3333333333335</ele><time>2026-04-26T15:19:54.396Z</time></trkpt><trkpt lat="45.899375" lon="11.6370589"><ele>1028.6666666666667</ele><time>2026-04-26T15:19:55.395Z</time></trkpt><trkpt lat="45.8992254" lon="11.6371508"><ele>1023.0</ele><time>2026-04-26T15:19:56.395Z</time></trkpt><trkpt lat="45.899054" lon="11.6372576"><ele>1023.0</ele><time>2026-04-26T15:19:57.395Z</time></trkpt><trkpt lat="45.8988571" lon="11.6373663"><ele>1023.0</ele><time>2026-04-26T15:19:58.392Z</time></trkpt><trkpt lat="45.898646" lon="11.637459"><ele>1023.0</ele><time>2026-04-26T15:19:59.396Z</time></trkpt><trkpt lat="45.8984396" lon="11.6375416"><ele>1025.0</ele><time>2026-04-26T15:20:00.396Z</time></trkpt><trkpt lat="45.8982415" lon="11.6376257"><ele>1027.0</ele><time>2026-04-26T15:20:01.396Z</time></trkpt><trkpt lat="45.8980475" lon="11.6376996"><ele>1029.0</ele><time>2026-04-26T15:20:02.395Z</time></trkpt><trkpt lat="45.8978571" lon="11.6377498"><ele>1029.0</ele><time>2026-04-26T15:20:03.395Z</time></trkpt><trkpt lat="45.8976733" lon="11.6377801"><ele>1029.0</ele><time>2026-04-26T15:20:04.396Z</time></trkpt><trkpt lat="45.8975034" lon="11.6377844"><ele>1029.0</ele><time>2026-04-26T15:20:05.395Z</time></trkpt><trkpt lat="45.8973555" lon="11.6377576"><ele>1026.3333333333333</ele><time>2026-04-26T15:20:06.397Z</time></trkpt><trkpt lat="45.8971104" lon="11.6375664"><ele>1023.6666666666666</ele><time>2026-04-26T15:20:08.397Z</time></trkpt><trkpt lat="45.8969911" lon="11.6374079"><ele>1021.0</ele><time>2026-04-26T15:20:09.399Z</time></trkpt><trkpt lat="45.8968851" lon="11.637257"><ele>1021.0</ele><time>2026-04-26T15:20:10.396Z</time></trkpt><trkpt lat="45.8968013" lon="11.6371017"><ele>1021.0</ele><time>2026-04-26T15:20:11.395Z</time></trkpt><trkpt lat="45.8967428" lon="11.6369071"><ele>1021.0</ele><time>2026-04-26T15:20:12.395Z</time></trkpt><trkpt lat="45.8966844" lon="11.6366789"><ele>1018.0</ele><time>2026-04-26T15:20:13.396Z</time></trkpt><trkpt lat="45.8966053" lon="11.6364554"><ele>1015.0</ele><time>2026-04-26T15:20:14.396Z</time></trkpt><trkpt lat="45.8965314" lon="11.6362449"><ele>1012.0</ele><time>2026-04-26T15:20:15.395Z</time></trkpt><trkpt lat="45.8964842" lon="11.6360226"><ele>1012.0</ele><time>2026-04-26T15:20:16.396Z</time></trkpt><trkpt lat="45.8964538" lon="11.6357725"><ele>1012.0</ele><time>2026-04-26T15:20:17.396Z</time></trkpt><trkpt lat="45.8964319" lon="11.6354942"><ele>1012.0</ele><time>2026-04-26T15:20:18.395Z</time></trkpt><trkpt lat="45.8964181" lon="11.6351976"><ele>1011.6666666666666</ele><time>2026-04-26T15:20:19.394Z</time></trkpt><trkpt lat="45.8964238" lon="11.6349143"><ele>1011.3333333333333</ele><time>2026-04-26T15:20:20.391Z</time></trkpt><trkpt lat="45.8964303" lon="11.6346477"><ele>1011.0</ele><time>2026-04-26T15:20:21.392Z</time></trkpt><trkpt lat="45.8964389" lon="11.634393"><ele>1010.75</ele><time>2026-04-26T15:20:22.392Z</time></trkpt><trkpt lat="45.8964387" lon="11.634174"><ele>1010.5</ele><time>2026-04-26T15:20:23.392Z</time></trkpt><trkpt lat="45.8964326" lon="11.633996"><ele>1010.25</ele><time>2026-04-26T15:20:24.393Z</time></trkpt><trkpt lat="45.8964105" lon="11.6338551"><ele>1010.0</ele><time>2026-04-26T15:20:25.395Z</time></trkpt><trkpt lat="45.8963598" lon="11.6337483"><ele>1010.0</ele><time>2026-04-26T15:20:26.393Z</time></trkpt><trkpt lat="45.896293" lon="11.6336836"><ele>1010.0</ele><time>2026-04-26T15:20:27.394Z</time></trkpt><trkpt lat="45.8961362" lon="11.633719"><ele>1010.0</ele><time>2026-04-26T15:20:29.393Z</time></trkpt><trkpt lat="45.896021" lon="11.6338036"><ele>1010.0</ele><time>2026-04-26T15:20:30.393Z</time></trkpt><trkpt lat="45.8958741" lon="11.6339087"><ele>1002.0</ele><time>2026-04-26T15:20:31.394Z</time></trkpt><trkpt lat="45.8957232" lon="11.6340173"><ele>994.0</ele><time>2026-04-26T15:20:32.392Z</time></trkpt><trkpt lat="45.8955788" lon="11.6341148"><ele>986.0</ele><time>2026-04-26T15:20:33.395Z</time></trkpt><trkpt lat="45.8954442" lon="11.6342122"><ele>986.0</ele><time>2026-04-26T15:20:34.393Z</time></trkpt><trkpt lat="45.8953173" lon="11.6343028"><ele>986.0</ele><time>2026-04-26T15:20:35.394Z</time></trkpt><trkpt lat="45.8952022" lon="11.6343966"><ele>986.0</ele><time>2026-04-26T15:20:36.395Z</time></trkpt><trkpt lat="45.895108" lon="11.6345159"><ele>986.0</ele><time>2026-04-26T15:20:37.394Z</time></trkpt><trkpt lat="45.8950378" lon="11.634661"><ele>986.8</ele><time>2026-04-26T15:20:38.393Z</time></trkpt><trkpt lat="45.8949776" lon="11.6348066"><ele>987.5999999999999</ele><time>2026-04-26T15:20:39.394Z</time></trkpt><trkpt lat="45.8949139" lon="11.634941"><ele>988.4</ele><time>2026-04-26T15:20:40.392Z</time></trkpt><trkpt lat="45.8948566" lon="11.6350705"><ele>989.2</ele><time>2026-04-26T15:20:41.393Z</time></trkpt><trkpt lat="45.8948225" lon="11.6352086"><ele>990.0</ele><time>2026-04-26T15:20:42.392Z</time></trkpt><trkpt lat="45.8948216" lon="11.6353702"><ele>987.3333333333333</ele><time>2026-04-26T15:20:43.392Z</time></trkpt><trkpt lat="45.8948564" lon="11.6355646"><ele>984.6666666666666</ele><time>2026-04-26T15:20:44.391Z</time></trkpt><trkpt lat="45.8948904" lon="11.6358134"><ele>982.0</ele><time>2026-04-26T15:20:45.39Z</time></trkpt><trkpt lat="45.894911" lon="11.6361112"><ele>980.5</ele><time>2026-04-26T15:20:46.39Z</time></trkpt><trkpt lat="45.8949193" lon="11.6364574"><ele>979.0</ele><time>2026-04-26T15:20:47.39Z</time></trkpt><trkpt lat="45.8949302" lon="11.6368207"><ele>976.0</ele><time>2026-04-26T15:20:48.393Z</time></trkpt><trkpt lat="45.8949976" lon="11.637485"><ele>976.0</ele><time>2026-04-26T15:20:50.391Z</time></trkpt><trkpt lat="45.8950351" lon="11.6377716"><ele>976.0</ele><time>2026-04-26T15:20:51.394Z</time></trkpt><trkpt lat="45.8950636" lon="11.6380317"><ele>976.0</ele><time>2026-04-26T15:20:52.393Z</time></trkpt><trkpt lat="45.8950816" lon="11.6382634"><ele>974.25</ele><time>2026-04-26T15:20:53.392Z</time></trkpt><trkpt lat="45.8950861" lon="11.6384845"><ele>972.5</ele><time>2026-04-26T15:20:54.392Z</time></trkpt><trkpt lat="45.8950758" lon="11.6386879"><ele>970.75</ele><time>2026-04-26T15:20:55.392Z</time></trkpt><trkpt lat="45.8950545" lon="11.6388721"><ele>969.0</ele><time>2026-04-26T15:20:56.393Z</time></trkpt><trkpt lat="45.8950075" lon="11.6390549"><ele>965.75</ele><time>2026-04-26T15:20:57.395Z</time></trkpt><trkpt lat="45.8949235" lon="11.6392162"><ele>962.5</ele><time>2026-04-26T15:20:58.395Z</time></trkpt><trkpt lat="45.894802" lon="11.6393349"><ele>959.25</ele><time>2026-04-26T15:20:59.396Z</time></trkpt><trkpt lat="45.89466" lon="11.6394057"><ele>956.0</ele><time>2026-04-26T15:21:00.393Z</time></trkpt><trkpt lat="45.8944979" lon="11.6394375"><ele>956.0</ele><time>2026-04-26T15:21:01.394Z</time></trkpt><trkpt lat="45.8943176" lon="11.6394385"><ele>956.0</ele><time>2026-04-26T15:21:02.392Z</time></trkpt><trkpt lat="45.8941153" lon="11.6394198"><ele>956.0</ele><time>2026-04-26T15:21:03.393Z</time></trkpt><trkpt lat="45.8939212" lon="11.6394014"><ele>959.0</ele><time>2026-04-26T15:21:04.393Z</time></trkpt><trkpt lat="45.8937393" lon="11.6393806"><ele>962.0</ele><time>2026-04-26T15:21:05.395Z</time></trkpt><trkpt lat="45.893577" lon="11.6393466"><ele>965.0</ele><time>2026-04-26T15:21:06.393Z</time></trkpt><trkpt lat="45.8934375" lon="11.6393065"><ele>964.6666666666667</ele><time>2026-04-26T15:21:07.395Z</time></trkpt><trkpt lat="45.8933134" lon="11.6392914"><ele>964.3333333333333</ele><time>2026-04-26T15:21:08.394Z</time></trkpt><trkpt lat="45.8931988" lon="11.6393292"><ele>964.0</ele><time>2026-04-26T15:21:09.392Z</time></trkpt><trkpt lat="45.8929805" lon="11.639587"><ele>954.3333333333333</ele><time>2026-04-26T15:21:11.392Z</time></trkpt><trkpt lat="45.8928823" lon="11.6397696"><ele>944.6666666666667</ele><time>2026-04-26T15:21:12.391Z</time></trkpt><trkpt lat="45.892772" lon="11.6399425"><ele>935.0</ele><time>2026-04-26T15:21:13.394Z</time></trkpt><trkpt lat="45.8926364" lon="11.6401126"><ele>932.3333333333334</ele><time>2026-04-26T15:21:14.392Z</time></trkpt><trkpt lat="45.8924899" lon="11.640271"><ele>929.6666666666667</ele><time>2026-04-26T15:21:15.393Z</time></trkpt><trkpt lat="45.8923444" lon="11.6404108"><ele>927.0</ele><time>2026-04-26T15:21:16.394Z</time></trkpt><trkpt lat="45.8922003" lon="11.6405331"><ele>927.0</ele><time>2026-04-26T15:21:17.395Z</time></trkpt><trkpt lat="45.8920528" lon="11.6406293"><ele>927.0</ele><time>2026-04-26T15:21:18.394Z</time></trkpt><trkpt lat="45.8918995" lon="11.6406925"><ele>927.0</ele><time>2026-04-26T15:21:19.393Z</time></trkpt><trkpt lat="45.8917403" lon="11.6407227"><ele>926.0</ele><time>2026-04-26T15:21:20.392Z</time></trkpt><trkpt lat="45.8915724" lon="11.6407206"><ele>925.0</ele><time>2026-04-26T15:21:21.394Z</time></trkpt><trkpt lat="45.8914077" lon="11.6406933"><ele>924.0</ele><time>2026-04-26T15:21:22.394Z</time></trkpt><trkpt lat="45.8912534" lon="11.6406476"><ele>924.0</ele><time>2026-04-26T15:21:23.394Z</time></trkpt><trkpt lat="45.8911034" lon="11.6406268"><ele>924.0</ele><time>2026-04-26T15:21:24.393Z</time></trkpt><trkpt lat="45.8909457" lon="11.6406547"><ele>924.0</ele><time>2026-04-26T15:21:25.393Z</time></trkpt><trkpt lat="45.8907737" lon="11.6407143"><ele>923.3333333333333</ele><time>2026-04-26T15:21:26.393Z</time></trkpt><trkpt lat="45.890581" lon="11.6407753"><ele>922.6666666666666</ele><time>2026-04-26T15:21:27.391Z</time></trkpt><trkpt lat="45.8903666" lon="11.6408305"><ele>922.0</ele><time>2026-04-26T15:21:28.394Z</time></trkpt><trkpt lat="45.890138" lon="11.6408838"><ele>920.0</ele><time>2026-04-26T15:21:29.394Z</time></trkpt><trkpt lat="45.8898958" lon="11.6409446"><ele>918.0</ele><time>2026-04-26T15:21:30.393Z</time></trkpt><trkpt lat="45.8894201" lon="11.6410823"><ele>911.0</ele><time>2026-04-26T15:21:32.394Z</time></trkpt><trkpt lat="45.8891957" lon="11.6411536"><ele>904.0</ele><time>2026-04-26T15:21:33.394Z</time></trkpt><trkpt lat="45.8889814" lon="11.6412289"><ele>904.0</ele><time>2026-04-26T15:21:34.394Z</time></trkpt><trkpt lat="45.8887752" lon="11.6413024"><ele>904.0</ele><time>2026-04-26T15:21:35.392Z</time></trkpt><trkpt lat="45.8885768" lon="11.6413709"><ele>904.0</ele><time>2026-04-26T15:21:36.392Z</time></trkpt><trkpt lat="45.8883819" lon="11.6414289"><ele>905.5</ele><time>2026-04-26T15:21:37.394Z</time></trkpt><trkpt lat="45.8881941" lon="11.6414772"><ele>907.0</ele><time>2026-04-26T15:21:38.392Z</time></trkpt><trkpt lat="45.8878634" lon="11.6415815"><ele>907.0</ele><time>2026-04-26T15:21:40.396Z</time></trkpt><trkpt lat="45.88772" lon="11.6416868"><ele>907.0</ele><time>2026-04-26T15:21:41.396Z</time></trkpt><trkpt lat="45.8875891" lon="11.6418162"><ele>907.0</ele><time>2026-04-26T15:21:42.394Z</time></trkpt><trkpt lat="45.88747" lon="11.6419471"><ele>905.25</ele><time>2026-04-26T15:21:43.395Z</time></trkpt><trkpt lat="45.8873574" lon="11.6420583"><ele>903.5</ele><time>2026-04-26T15:21:44.395Z</time></trkpt><trkpt lat="45.8872411" lon="11.6421572"><ele>901.75</ele><time>2026-04-26T15:21:45.395Z</time></trkpt><trkpt lat="45.8870978" lon="11.6422216"><ele>900.0</ele><time>2026-04-26T15:21:46.397Z</time></trkpt><trkpt lat="45.8869254" lon="11.6422603"><ele>899.6666666666667</ele><time>2026-04-26T15:21:47.393Z</time></trkpt><trkpt lat="45.8867427" lon="11.6423207"><ele>899.3333333333334</ele><time>2026-04-26T15:21:48.393Z</time></trkpt><trkpt lat="45.8865703" lon="11.6424115"><ele>899.0</ele><time>2026-04-26T15:21:49.396Z</time></trkpt><trkpt lat="45.8864086" lon="11.6424932"><ele>899.0</ele><time>2026-04-26T15:21:50.393Z</time></trkpt><trkpt lat="45.8862482" lon="11.6425391"><ele>899.0</ele><time>2026-04-26T15:21:51.394Z</time></trkpt><trkpt lat="45.8859066" lon="11.642511"><ele>897.6666666666667</ele><time>2026-04-26T15:21:53.395Z</time></trkpt><trkpt lat="45.8857219" lon="11.6424512"><ele>896.3333333333333</ele><time>2026-04-26T15:21:54.395Z</time></trkpt><trkpt lat="45.8855354" lon="11.6424304"><ele>895.0</ele><time>2026-04-26T15:21:55.393Z</time></trkpt><trkpt lat="45.8853572" lon="11.6424468"><ele>895.0</ele><time>2026-04-26T15:21:56.393Z</time></trkpt><trkpt lat="45.8851875" lon="11.642486"><ele>895.0</ele><time>2026-04-26T15:21:57.393Z</time></trkpt><trkpt lat="45.8850283" lon="11.6425492"><ele>895.0</ele><time>2026-04-26T15:21:58.391Z</time></trkpt><trkpt lat="45.8848765" lon="11.6426277"><ele>895.5</ele><time>2026-04-26T15:21:59.391Z</time></trkpt><trkpt lat="45.8847386" lon="11.642702"><ele>896.0</ele><time>2026-04-26T15:22:00.392Z</time></trkpt><trkpt lat="45.8846104" lon="11.6427699"><ele>896.5</ele><time>2026-04-26T15:22:01.392Z</time></trkpt><trkpt lat="45.8844813" lon="11.6428085"><ele>897.0</ele><time>2026-04-26T15:22:02.394Z</time></trkpt><trkpt lat="45.884336" lon="11.6428152"><ele>899.0</ele><time>2026-04-26T15:22:03.393Z</time></trkpt><trkpt lat="45.884169" lon="11.642806"><ele>901.0</ele><time>2026-04-26T15:22:04.393Z</time></trkpt><trkpt lat="45.8839814" lon="11.6427962"><ele>903.0</ele><time>2026-04-26T15:22:05.391Z</time></trkpt><trkpt lat="45.8837954" lon="11.6427791"><ele>903.0</ele><time>2026-04-26T15:22:06.392Z</time></trkpt><trkpt lat="45.8836157" lon="11.6427683"><ele>903.0</ele><time>2026-04-26T15:22:07.391Z</time></trkpt><trkpt lat="45.8834528" lon="11.6427581"><ele>903.0</ele><time>2026-04-26T15:22:08.392Z</time></trkpt><trkpt lat="45.8833111" lon="11.6427432"><ele>899.25</ele><time>2026-04-26T15:22:09.39Z</time></trkpt><trkpt lat="45.8831925" lon="11.642734"><ele>895.5</ele><time>2026-04-26T15:22:10.394Z</time></trkpt><trkpt lat="45.8830978" lon="11.6427149"><ele>891.75</ele><time>2026-04-26T15:22:11.389Z</time></trkpt><trkpt lat="45.8830203" lon="11.6426676"><ele>888.0</ele><time>2026-04-26T15:22:12.391Z</time></trkpt><trkpt lat="45.8829341" lon="11.6424808"><ele>888.0</ele><time>2026-04-26T15:22:14.39Z</time></trkpt><trkpt lat="45.882926" lon="11.6423765"><ele>888.0</ele><time>2026-04-26T15:22:15.39Z</time></trkpt><trkpt lat="45.8829165" lon="11.642258"><ele>888.0</ele><time>2026-04-26T15:22:16.388Z</time></trkpt><trkpt lat="45.882881" lon="11.6421481"><ele>888.0</ele><time>2026-04-26T15:22:17.391Z</time></trkpt><trkpt lat="45.8828282" lon="11.6420826"><ele>888.0</ele><time>2026-04-26T15:22:18.39Z</time></trkpt><trkpt lat="45.882745" lon="11.6421484"><ele>888.0</ele><time>2026-04-26T15:22:19.385Z</time></trkpt><trkpt lat="45.8826365" lon="11.6422695"><ele>882.0</ele><time>2026-04-26T15:22:20.39Z</time></trkpt><trkpt lat="45.8825197" lon="11.6423634"><ele>876.0</ele><time>2026-04-26T15:22:21.392Z</time></trkpt><trkpt lat="45.8823914" lon="11.642448"><ele>870.0</ele><time>2026-04-26T15:22:22.389Z</time></trkpt><trkpt lat="45.8822482" lon="11.6424845"><ele>864.0</ele><time>2026-04-26T15:22:23.388Z</time></trkpt><trkpt lat="45.8820939" lon="11.642482"><ele>864.0</ele><time>2026-04-26T15:22:24.39Z</time></trkpt><trkpt lat="45.8819448" lon="11.6424621"><ele>864.0</ele><time>2026-04-26T15:22:25.39Z</time></trkpt><trkpt lat="45.8817948" lon="11.642428"><ele>864.0</ele><time>2026-04-26T15:22:26.392Z</time></trkpt><trkpt lat="45.8816408" lon="11.6423619"><ele>858.3333333333333</ele><time>2026-04-26T15:22:27.391Z</time></trkpt><trkpt lat="45.8814762" lon="11.6422704"><ele>852.6666666666666</ele><time>2026-04-26T15:22:28.392Z</time></trkpt><trkpt lat="45.8812981" lon="11.6421719"><ele>847.0</ele><time>2026-04-26T15:22:29.392Z</time></trkpt><trkpt lat="45.8811267" lon="11.6420811"><ele>847.0</ele><time>2026-04-26T15:22:30.391Z</time></trkpt><trkpt lat="45.8809713" lon="11.6419912"><ele>847.0</ele><time>2026-04-26T15:22:31.392Z</time></trkpt><trkpt lat="45.8808288" lon="11.641921"><ele>847.0</ele><time>2026-04-26T15:22:32.39Z</time></trkpt><trkpt lat="45.8806852" lon="11.6418921"><ele>851.5</ele><time>2026-04-26T15:22:33.391Z</time></trkpt><trkpt lat="45.8804335" lon="11.6419144"><ele>856.0</ele><time>2026-04-26T15:22:35.393Z</time></trkpt><trkpt lat="45.8803365" lon="11.6419047"><ele>860.5</ele><time>2026-04-26T15:22:36.392Z</time></trkpt><trkpt lat="45.8802448" lon="11.6418588"><ele>865.0</ele><time>2026-04-26T15:22:37.393Z</time></trkpt><trkpt lat="45.8801562" lon="11.641778"><ele>858.5</ele><time>2026-04-26T15:22:38.392Z</time></trkpt><trkpt lat="45.8800632" lon="11.6416604"><ele>852.0</ele><time>2026-04-26T15:22:39.393Z</time></trkpt><trkpt lat="45.8799523" lon="11.6415732"><ele>845.5</ele><time>2026-04-26T15:22:40.393Z</time></trkpt><trkpt lat="45.8798306" lon="11.6415318"><ele>839.0</ele><time>2026-04-26T15:22:41.393Z</time></trkpt><trkpt lat="45.8797111" lon="11.6415375"><ele>839.0</ele><time>2026-04-26T15:22:42.394Z</time></trkpt><trkpt lat="45.8795988" lon="11.6415755"><ele>839.0</ele><time>2026-04-26T15:22:43.393Z</time></trkpt><trkpt lat="45.8794865" lon="11.6416092"><ele>839.0</ele><time>2026-04-26T15:22:44.393Z</time></trkpt><trkpt lat="45.8793769" lon="11.6416199"><ele>839.0</ele><time>2026-04-26T15:22:45.393Z</time></trkpt><trkpt lat="45.8792842" lon="11.6416161"><ele>839.0</ele><time>2026-04-26T15:22:46.39Z</time></trkpt><trkpt lat="45.8792135" lon="11.6416264"><ele>839.0</ele><time>2026-04-26T15:22:47.39Z</time></trkpt><trkpt lat="45.8791677" lon="11.6417653"><ele>839.0</ele><time>2026-04-26T15:22:49.39Z</time></trkpt><trkpt lat="45.879279" lon="11.6418352"><ele>839.0</ele><time>2026-04-26T15:22:51.395Z</time></trkpt><trkpt lat="45.8793834" lon="11.6418087"><ele>839.0</ele><time>2026-04-26T15:22:52.394Z</time></trkpt><trkpt lat="45.8795171" lon="11.6417786"><ele>839.0</ele><time>2026-04-26T15:22:53.393Z</time></trkpt><trkpt lat="45.8796605" lon="11.6417753"><ele>839.0</ele><time>2026-04-26T15:22:54.394Z</time></trkpt><trkpt lat="45.8799165" lon="11.6418812"><ele>839.0</ele><time>2026-04-26T15:22:56.394Z</time></trkpt><trkpt lat="45.8800142" lon="11.6419901"><ele>835.2</ele><time>2026-04-26T15:22:57.394Z</time></trkpt><trkpt lat="45.8800811" lon="11.6421235"><ele>831.4000000000001</ele><time>2026-04-26T15:22:58.392Z</time></trkpt><trkpt lat="45.8801281" lon="11.6422623"><ele>827.6</ele><time>2026-04-26T15:22:59.393Z</time></trkpt><trkpt lat="45.8801904" lon="11.6423656"><ele>823.8</ele><time>2026-04-26T15:23:00.393Z</time></trkpt><trkpt lat="45.8802756" lon="11.6424265"><ele>820.0</ele><time>2026-04-26T15:23:01.394Z</time></trkpt><trkpt lat="45.8803742" lon="11.6424332"><ele>820.0</ele><time>2026-04-26T15:23:02.393Z</time></trkpt><trkpt lat="45.8804883" lon="11.6424049"><ele>820.0</ele><time>2026-04-26T15:23:03.393Z</time></trkpt><trkpt lat="45.8806197" lon="11.6423878"><ele>820.0</ele><time>2026-04-26T15:23:04.394Z</time></trkpt><trkpt lat="45.8807548" lon="11.6424193"><ele>820.0</ele><time>2026-04-26T15:23:05.392Z</time></trkpt><trkpt lat="45.8808658" lon="11.6424874"><ele>814.5</ele><time>2026-04-26T15:23:06.39Z</time></trkpt><trkpt lat="45.8809557" lon="11.6426052"><ele>809.0</ele><time>2026-04-26T15:23:07.391Z</time></trkpt><trkpt lat="45.8810471" lon="11.642739"><ele>803.5</ele><time>2026-04-26T15:23:08.39Z</time></trkpt><trkpt lat="45.8811657" lon="11.6428514"><ele>798.0</ele><time>2026-04-26T15:23:09.39Z</time></trkpt><trkpt lat="45.8813223" lon="11.6429237"><ele>798.0</ele><time>2026-04-26T15:23:10.393Z</time></trkpt><trkpt lat="45.8814864" lon="11.642978"><ele>798.0</ele><time>2026-04-26T15:23:11.388Z</time></trkpt><trkpt lat="45.8816379" lon="11.6430237"><ele>798.0</ele><time>2026-04-26T15:23:12.388Z</time></trkpt><trkpt lat="45.8817763" lon="11.6430406"><ele>802.25</ele><time>2026-04-26T15:23:13.39Z</time></trkpt><trkpt lat="45.8818971" lon="11.6430194"><ele>806.5</ele><time>2026-04-26T15:23:14.389Z</time></trkpt><trkpt lat="45.8820046" lon="11.6429876"><ele>810.75</ele><time>2026-04-26T15:23:15.391Z</time></trkpt><trkpt lat="45.8822103" lon="11.6430395"><ele>815.0</ele><time>2026-04-26T15:23:17.391Z</time></trkpt><trkpt lat="45.8822906" lon="11.6431365"><ele>815.0</ele><time>2026-04-26T15:23:18.39Z</time></trkpt><trkpt lat="45.8823418" lon="11.643258"><ele>815.0</ele><time>2026-04-26T15:23:19.391Z</time></trkpt><trkpt lat="45.8823566" lon="11.643392"><ele>815.0</ele><time>2026-04-26T15:23:20.39Z</time></trkpt><trkpt lat="45.8823265" lon="11.6435261"><ele>815.0</ele><time>2026-04-26T15:23:21.391Z</time></trkpt><trkpt lat="45.8822493" lon="11.6436571"><ele>815.0</ele><time>2026-04-26T15:23:22.39Z</time></trkpt><trkpt lat="45.8821323" lon="11.643784"><ele>821.3333333333334</ele><time>2026-04-26T15:23:23.391Z</time></trkpt><trkpt lat="45.8819868" lon="11.6439099"><ele>827.6666666666667</ele><time>2026-04-26T15:23:24.391Z</time></trkpt><trkpt lat="45.8818177" lon="11.644032"><ele>834.0</ele><time>2026-04-26T15:23:25.391Z</time></trkpt><trkpt lat="45.8816475" lon="11.6441349"><ele>819.3333333333333</ele><time>2026-04-26T15:23:26.392Z</time></trkpt><trkpt lat="45.881481" lon="11.6442284"><ele>804.6666666666666</ele><time>2026-04-26T15:23:27.392Z</time></trkpt><trkpt lat="45.881313" lon="11.6442866"><ele>790.0</ele><time>2026-04-26T15:23:28.39Z</time></trkpt><trkpt lat="45.8811455" lon="11.6443096"><ele>790.0</ele><time>2026-04-26T15:23:29.39Z</time></trkpt><trkpt lat="45.8809798" lon="11.6443376"><ele>790.0</ele><time>2026-04-26T15:23:30.391Z</time></trkpt><trkpt lat="45.8808127" lon="11.644403"><ele>790.0</ele><time>2026-04-26T15:23:31.391Z</time></trkpt><trkpt lat="45.8806399" lon="11.6444992"><ele>796.0</ele><time>2026-04-26T15:23:32.391Z</time></trkpt><trkpt lat="45.8804708" lon="11.6446011"><ele>802.0</ele><time>2026-04-26T15:23:33.392Z</time></trkpt><trkpt lat="45.8803107" lon="11.6447066"><ele>808.0</ele><time>2026-04-26T15:23:34.393Z</time></trkpt><trkpt lat="45.8801676" lon="11.6448098"><ele>807.0</ele><time>2026-04-26T15:23:35.39Z</time></trkpt><trkpt lat="45.8800525" lon="11.6449146"><ele>806.0</ele><time>2026-04-26T15:23:36.39Z</time></trkpt><trkpt lat="45.8798879" lon="11.6451947"><ele>805.0</ele><time>2026-04-26T15:23:38.389Z</time></trkpt><trkpt lat="45.8798073" lon="11.6453476"><ele>805.0</ele><time>2026-04-26T15:23:39.391Z</time></trkpt><trkpt lat="45.8797063" lon="11.6454647"><ele>805.0</ele><time>2026-04-26T15:23:40.391Z</time></trkpt><trkpt lat="45.8796003" lon="11.6455628"><ele>805.0</ele><time>2026-04-26T15:23:41.394Z</time></trkpt><trkpt lat="45.879511" lon="11.6456716"><ele>805.0</ele><time>2026-04-26T15:23:42.39Z</time></trkpt><trkpt lat="45.8794517" lon="11.6458016"><ele>805.0</ele><time>2026-04-26T15:23:43.394Z</time></trkpt><trkpt lat="45.8794208" lon="11.6459461"><ele>805.0</ele><time>2026-04-26T15:23:44.391Z</time></trkpt><trkpt lat="45.8793902" lon="11.6460861"><ele>805.0</ele><time>2026-04-26T15:23:45.391Z</time></trkpt><trkpt lat="45.8793276" lon="11.6461987"><ele>805.0</ele><time>2026-04-26T15:23:46.392Z</time></trkpt><trkpt lat="45.8792273" lon="11.6462756"><ele>805.0</ele><time>2026-04-26T15:23:47.391Z</time></trkpt><trkpt lat="45.8790969" lon="11.6463217"><ele>801.75</ele><time>2026-04-26T15:23:48.392Z</time></trkpt><trkpt lat="45.8789554" lon="11.6463574"><ele>798.5</ele><time>2026-04-26T15:23:49.393Z</time></trkpt><trkpt lat="45.8788226" lon="11.6464108"><ele>795.25</ele><time>2026-04-26T15:23:50.391Z</time></trkpt><trkpt lat="45.8787029" lon="11.6464979"><ele>792.0</ele><time>2026-04-26T15:23:51.391Z</time></trkpt><trkpt lat="45.878601" lon="11.6466174"><ele>792.0</ele><time>2026-04-26T15:23:52.393Z</time></trkpt><trkpt lat="45.8785071" lon="11.6467401"><ele>792.0</ele><time>2026-04-26T15:23:53.392Z</time></trkpt><trkpt lat="45.878404" lon="11.6468265"><ele>792.0</ele><time>2026-04-26T15:23:54.392Z</time></trkpt><trkpt lat="45.8782893" lon="11.6468614"><ele>792.0</ele><time>2026-04-26T15:23:55.39Z</time></trkpt><trkpt lat="45.8781663" lon="11.6468442"><ele>779.0</ele><time>2026-04-26T15:23:56.391Z</time></trkpt><trkpt lat="45.8780392" lon="11.6467723"><ele>766.0</ele><time>2026-04-26T15:23:57.391Z</time></trkpt><trkpt lat="45.8777997" lon="11.6466288"><ele>753.0</ele><time>2026-04-26T15:23:59.39Z</time></trkpt><trkpt lat="45.8776732" lon="11.646631"><ele>746.75</ele><time>2026-04-26T15:24:00.39Z</time></trkpt><trkpt lat="45.8775306" lon="11.6466808"><ele>740.5</ele><time>2026-04-26T15:24:01.389Z</time></trkpt><trkpt lat="45.877388" lon="11.6467491"><ele>734.25</ele><time>2026-04-26T15:24:02.389Z</time></trkpt><trkpt lat="45.8772613" lon="11.6468306"><ele>728.0</ele><time>2026-04-26T15:24:03.39Z</time></trkpt><trkpt lat="45.8771591" lon="11.6469254"><ele>735.0</ele><time>2026-04-26T15:24:04.392Z</time></trkpt><trkpt lat="45.8770931" lon="11.6470328"><ele>742.0</ele><time>2026-04-26T15:24:05.392Z</time></trkpt><trkpt lat="45.8770636" lon="11.6471605"><ele>749.0</ele><time>2026-04-26T15:24:06.391Z</time></trkpt><trkpt lat="45.877054" lon="11.6473157"><ele>756.0</ele><time>2026-04-26T15:24:07.391Z</time></trkpt><trkpt lat="45.8770235" lon="11.6474862"><ele>763.0</ele><time>2026-04-26T15:24:08.391Z</time></trkpt><trkpt lat="45.8769587" lon="11.6476468"><ele>762.5</ele><time>2026-04-26T15:24:09.39Z</time></trkpt><trkpt lat="45.8768806" lon="11.6478205"><ele>762.0</ele><time>2026-04-26T15:24:10.39Z</time></trkpt><trkpt lat="45.8767778" lon="11.6479486"><ele>761.5</ele><time>2026-04-26T15:24:11.391Z</time></trkpt><trkpt lat="45.8766649" lon="11.6480279"><ele>761.0</ele><time>2026-04-26T15:24:12.391Z</time></trkpt><trkpt lat="45.8765531" lon="11.6480558"><ele>761.0</ele><time>2026-04-26T15:24:13.391Z</time></trkpt><trkpt lat="45.8764585" lon="11.6480332"><ele>761.0</ele><time>2026-04-26T15:24:14.39Z</time></trkpt><trkpt lat="45.876362" lon="11.6479872"><ele>761.0</ele><time>2026-04-26T15:24:15.391Z</time></trkpt><trkpt lat="45.8762668" lon="11.6479596"><ele>761.0</ele><time>2026-04-26T15:24:16.394Z</time></trkpt><trkpt lat="45.8761725" lon="11.6479751"><ele>761.0</ele><time>2026-04-26T15:24:17.392Z</time></trkpt><trkpt lat="45.8760877" lon="11.6480401"><ele>761.0</ele><time>2026-04-26T15:24:18.391Z</time></trkpt><trkpt lat="45.8759745" lon="11.6482953"><ele>761.0</ele><time>2026-04-26T15:24:20.392Z</time></trkpt><trkpt lat="45.8759436" lon="11.6484514"><ele>761.0</ele><time>2026-04-26T15:24:21.393Z</time></trkpt><trkpt lat="45.8759027" lon="11.6485793"><ele>761.0</ele><time>2026-04-26T15:24:22.391Z</time></trkpt><trkpt lat="45.8758383" lon="11.6486606"><ele>759.25</ele><time>2026-04-26T15:24:23.392Z</time></trkpt><trkpt lat="45.8757327" lon="11.6486938"><ele>757.5</ele><time>2026-04-26T15:24:24.39Z</time></trkpt><trkpt lat="45.8756139" lon="11.6487075"><ele>755.75</ele><time>2026-04-26T15:24:25.389Z</time></trkpt><trkpt lat="45.8754989" lon="11.6487557"><ele>754.0</ele><time>2026-04-26T15:24:26.389Z</time></trkpt><trkpt lat="45.8753902" lon="11.6488328"><ele>754.0</ele><time>2026-04-26T15:24:27.388Z</time></trkpt><trkpt lat="45.8752955" lon="11.6489"><ele>754.0</ele><time>2026-04-26T15:24:28.391Z</time></trkpt><trkpt lat="45.8752183" lon="11.648958"><ele>754.0</ele><time>2026-04-26T15:24:29.391Z</time></trkpt><trkpt lat="45.8751367" lon="11.6491415"><ele>754.0</ele><time>2026-04-26T15:24:31.391Z</time></trkpt><trkpt lat="45.8751171" lon="11.6492483"><ele>754.0</ele><time>2026-04-26T15:24:32.392Z</time></trkpt><trkpt lat="45.8750952" lon="11.6493476"><ele>752.8000000000001</ele><time>2026-04-26T15:24:33.392Z</time></trkpt><trkpt lat="45.8750422" lon="11.6495036"><ele>751.6</ele><time>2026-04-26T15:24:35.391Z</time></trkpt><trkpt lat="45.875002" lon="11.6496612"><ele>750.4</ele><time>2026-04-26T15:24:37.394Z</time></trkpt><trkpt lat="45.8749649" lon="11.6497533"><ele>749.2</ele><time>2026-04-26T15:24:39.391Z</time></trkpt><trkpt lat="45.8749463" lon="11.6495852"><ele>748.0</ele><time>2026-04-26T15:24:43.393Z</time></trkpt><trkpt lat="45.8750224" lon="11.6494424"><ele>749.2</ele><time>2026-04-26T15:24:45.392Z</time></trkpt><trkpt lat="45.8750543" lon="11.6492726"><ele>750.4</ele><time>2026-04-26T15:24:47.392Z</time></trkpt><trkpt lat="45.8750574" lon="11.6490937"><ele>751.6</ele><time>2026-04-26T15:24:49.392Z</time></trkpt><trkpt lat="45.8750699" lon="11.6490035"><ele>752.8000000000001</ele><time>2026-04-26T15:24:50.39Z</time></trkpt><trkpt lat="45.8751025" lon="11.6489074"><ele>754.0</ele><time>2026-04-26T15:24:51.39Z</time></trkpt><trkpt lat="45.8751544" lon="11.6488096"><ele>754.0</ele><time>2026-04-26T15:24:52.389Z</time></trkpt><trkpt lat="45.8752201" lon="11.6487183"><ele>754.0</ele><time>2026-04-26T15:24:53.391Z</time></trkpt><trkpt lat="45.8752882" lon="11.648638"><ele>754.0</ele><time>2026-04-26T15:24:54.392Z</time></trkpt><trkpt lat="45.8753584" lon="11.6485696"><ele>754.0</ele><time>2026-04-26T15:24:55.393Z</time></trkpt><trkpt lat="45.8754274" lon="11.6485044"><ele>754.0</ele><time>2026-04-26T15:24:56.393Z</time></trkpt><trkpt lat="45.8754971" lon="11.6484518"><ele>754.0</ele><time>2026-04-26T15:24:57.391Z</time></trkpt><trkpt lat="45.8755714" lon="11.6484223"><ele>755.1666666666667</ele><time>2026-04-26T15:24:58.391Z</time></trkpt><trkpt lat="45.8756432" lon="11.6483981"><ele>756.3333333333334</ele><time>2026-04-26T15:24:59.391Z</time></trkpt><trkpt lat="45.8757104" lon="11.6483663"><ele>757.5</ele><time>2026-04-26T15:25:00.391Z</time></trkpt><trkpt lat="45.8758194" lon="11.6482282"><ele>758.6666666666666</ele><time>2026-04-26T15:25:02.391Z</time></trkpt><trkpt lat="45.8758583" lon="11.6481451"><ele>759.8333333333333</ele><time>2026-04-26T15:25:03.391Z</time></trkpt><trkpt lat="45.875891" lon="11.648063"><ele>761.0</ele><time>2026-04-26T15:25:04.392Z</time></trkpt><trkpt lat="45.8759424" lon="11.647912"><ele>754.0</ele><time>2026-04-26T15:25:06.392Z</time></trkpt><trkpt lat="45.8759558" lon="11.6477747"><ele>747.0</ele><time>2026-04-26T15:25:08.393Z</time></trkpt><trkpt lat="45.8758826" lon="11.6477434"><ele>740.0</ele><time>2026-04-26T15:25:10.392Z</time></trkpt><trkpt lat="45.8758348" lon="11.6478641"><ele>733.0</ele><time>2026-04-26T15:25:12.392Z</time></trkpt><trkpt lat="45.8757893" lon="11.6480253"><ele>726.0</ele><time>2026-04-26T15:25:14.389Z</time></trkpt><trkpt lat="45.8757596" lon="11.6481051"><ele>725.7142857142857</ele><time>2026-04-26T15:25:15.392Z</time></trkpt><trkpt lat="45.8757202" lon="11.6481796"><ele>725.4285714285714</ele><time>2026-04-26T15:25:16.39Z</time></trkpt><trkpt lat="45.8756642" lon="11.6482357"><ele>725.1428571428571</ele><time>2026-04-26T15:25:17.39Z</time></trkpt><trkpt lat="45.8755993" lon="11.648257"><ele>724.8571428571429</ele><time>2026-04-26T15:25:18.391Z</time></trkpt><trkpt lat="45.8755284" lon="11.6482499"><ele>724.5714285714286</ele><time>2026-04-26T15:25:19.392Z</time></trkpt><trkpt lat="45.8754499" lon="11.6482495"><ele>724.2857142857142</ele><time>2026-04-26T15:25:20.391Z</time></trkpt><trkpt lat="45.8753605" lon="11.6482979"><ele>724.0</ele><time>2026-04-26T15:25:21.392Z</time></trkpt><trkpt lat="45.8751018" lon="11.6484607"><ele>720.25</ele><time>2026-04-26T15:25:23.392Z</time></trkpt><trkpt lat="45.8749783" lon="11.6485314"><ele>716.5</ele><time>2026-04-26T15:25:24.392Z</time></trkpt><trkpt lat="45.8748766" lon="11.6486227"><ele>712.75</ele><time>2026-04-26T15:25:25.392Z</time></trkpt><trkpt lat="45.8747996" lon="11.6487488"><ele>709.0</ele><time>2026-04-26T15:25:26.392Z</time></trkpt><trkpt lat="45.8747499" lon="11.6489175"><ele>709.0</ele><time>2026-04-26T15:25:27.392Z</time></trkpt><trkpt lat="45.8747121" lon="11.6490836"><ele>709.0</ele><time>2026-04-26T15:25:28.39Z</time></trkpt><trkpt lat="45.8746529" lon="11.6492114"><ele>709.0</ele><time>2026-04-26T15:25:29.391Z</time></trkpt><trkpt lat="45.8745599" lon="11.6492958"><ele>709.0</ele><time>2026-04-26T15:25:30.393Z</time></trkpt><trkpt lat="45.8744204" lon="11.6493393"><ele>706.6666666666667</ele><time>2026-04-26T15:25:31.393Z</time></trkpt><trkpt lat="45.8742607" lon="11.6494048"><ele>704.3333333333334</ele><time>2026-04-26T15:25:32.392Z</time></trkpt><trkpt lat="45.8741075" lon="11.649516"><ele>702.0</ele><time>2026-04-26T15:25:33.395Z</time></trkpt><trkpt lat="45.8739701" lon="11.6496501"><ele>702.0</ele><time>2026-04-26T15:25:34.392Z</time></trkpt><trkpt lat="45.8738514" lon="11.6498009"><ele>702.0</ele><time>2026-04-26T15:25:35.393Z</time></trkpt><trkpt lat="45.8737238" lon="11.6499261"><ele>702.0</ele><time>2026-04-26T15:25:36.391Z</time></trkpt><trkpt lat="45.8735741" lon="11.6500109"><ele>702.0</ele><time>2026-04-26T15:25:37.394Z</time></trkpt><trkpt lat="45.8734452" lon="11.6500903"><ele>702.0</ele><time>2026-04-26T15:25:38.39Z</time></trkpt><trkpt lat="45.8733506" lon="11.6501873"><ele>702.0</ele><time>2026-04-26T15:25:39.392Z</time></trkpt><trkpt lat="45.8732723" lon="11.6504706"><ele>702.0</ele><time>2026-04-26T15:25:41.392Z</time></trkpt><trkpt lat="45.873281" lon="11.6506624"><ele>702.0</ele><time>2026-04-26T15:25:42.393Z</time></trkpt><trkpt lat="45.8732514" lon="11.6510075"><ele>702.0</ele><time>2026-04-26T15:25:44.393Z</time></trkpt><trkpt lat="45.8731871" lon="11.6511345"><ele>702.0</ele><time>2026-04-26T15:25:45.392Z</time></trkpt><trkpt lat="45.8730814" lon="11.6512014"><ele>702.0</ele><time>2026-04-26T15:25:46.392Z</time></trkpt><trkpt lat="45.872951" lon="11.6512231"><ele>702.0</ele><time>2026-04-26T15:25:47.391Z</time></trkpt><trkpt lat="45.8728085" lon="11.6512231"><ele>702.0</ele><time>2026-04-26T15:25:48.393Z</time></trkpt><trkpt lat="45.8726772" lon="11.6512291"><ele>691.5</ele><time>2026-04-26T15:25:49.392Z</time></trkpt><trkpt lat="45.8725591" lon="11.6512835"><ele>681.0</ele><time>2026-04-26T15:25:50.392Z</time></trkpt><trkpt lat="45.8724404" lon="11.6513998"><ele>670.5</ele><time>2026-04-26T15:25:51.394Z</time></trkpt><trkpt lat="45.8723128" lon="11.6515707"><ele>660.0</ele><time>2026-04-26T15:25:52.393Z</time></trkpt><trkpt lat="45.8721692" lon="11.6517693"><ele>662.3333333333334</ele><time>2026-04-26T15:25:53.391Z</time></trkpt><trkpt lat="45.8720194" lon="11.6519701"><ele>664.6666666666667</ele><time>2026-04-26T15:25:54.393Z</time></trkpt><trkpt lat="45.8718763" lon="11.6521584"><ele>667.0</ele><time>2026-04-26T15:25:55.393Z</time></trkpt><trkpt lat="45.8717453" lon="11.6523112"><ele>660.6</ele><time>2026-04-26T15:25:56.393Z</time></trkpt><trkpt lat="45.8716284" lon="11.652428"><ele>654.2</ele><time>2026-04-26T15:25:57.395Z</time></trkpt><trkpt lat="45.8715403" lon="11.6525138"><ele>647.8</ele><time>2026-04-26T15:25:58.395Z</time></trkpt><trkpt lat="45.8714793" lon="11.6525644"><ele>641.4</ele><time>2026-04-26T15:25:59.394Z</time></trkpt><trkpt lat="45.8714124" lon="11.6525292"><ele>635.0</ele><time>2026-04-26T15:26:01.394Z</time></trkpt><trkpt lat="45.8714661" lon="11.652421"><ele>635.0</ele><time>2026-04-26T15:26:03.392Z</time></trkpt><trkpt lat="45.8716585" lon="11.6522117"><ele>635.0</ele><time>2026-04-26T15:26:05.392Z</time></trkpt><trkpt lat="45.8717591" lon="11.6520209"><ele>635.0</ele><time>2026-04-26T15:26:06.393Z</time></trkpt><trkpt lat="45.8718587" lon="11.6517918"><ele>643.3333333333333</ele><time>2026-04-26T15:26:07.396Z</time></trkpt><trkpt lat="45.8719584" lon="11.6515639"><ele>651.6666666666666</ele><time>2026-04-26T15:26:08.394Z</time></trkpt><trkpt lat="45.8720541" lon="11.6513389"><ele>660.0</ele><time>2026-04-26T15:26:09.394Z</time></trkpt><trkpt lat="45.8721489" lon="11.6511337"><ele>654.4</ele><time>2026-04-26T15:26:10.393Z</time></trkpt><trkpt lat="45.872232" lon="11.6509625"><ele>648.8</ele><time>2026-04-26T15:26:11.393Z</time></trkpt><trkpt lat="45.8723031" lon="11.6508333"><ele>643.2</ele><time>2026-04-26T15:26:12.391Z</time></trkpt><trkpt lat="45.8723781" lon="11.6507587"><ele>637.6</ele><time>2026-04-26T15:26:13.393Z</time></trkpt><trkpt lat="45.8724714" lon="11.6507381"><ele>632.0</ele><time>2026-04-26T15:26:14.392Z</time></trkpt><trkpt lat="45.8725715" lon="11.6507208"><ele>637.2</ele><time>2026-04-26T15:26:15.393Z</time></trkpt><trkpt lat="45.8726561" lon="11.6506532"><ele>642.4000000000001</ele><time>2026-04-26T15:26:16.393Z</time></trkpt><trkpt lat="45.8727064" lon="11.6505286"><ele>647.5999999999999</ele><time>2026-04-26T15:26:17.391Z</time></trkpt><trkpt lat="45.8727133" lon="11.6503606"><ele>652.8</ele><time>2026-04-26T15:26:18.393Z</time></trkpt><trkpt lat="45.8726871" lon="11.6501725"><ele>658.0</ele><time>2026-04-26T15:26:19.391Z</time></trkpt><trkpt lat="45.8726558" lon="11.6499869"><ele>658.0</ele><time>2026-04-26T15:26:20.393Z</time></trkpt><trkpt lat="45.8726404" lon="11.6498055"><ele>658.0</ele><time>2026-04-26T15:26:21.393Z</time></trkpt><trkpt lat="45.8726661" lon="11.6496304"><ele>658.0</ele><time>2026-04-26T15:26:22.393Z</time></trkpt><trkpt lat="45.872719" lon="11.6494691"><ele>658.0</ele><time>2026-04-26T15:26:23.393Z</time></trkpt><trkpt lat="45.8727941" lon="11.6493396"><ele>649.6666666666667</ele><time>2026-04-26T15:26:24.393Z</time></trkpt><trkpt lat="45.8730257" lon="11.6491612"><ele>641.3333333333334</ele><time>2026-04-26T15:26:26.394Z</time></trkpt><trkpt lat="45.8731731" lon="11.649079"><ele>633.0</ele><time>2026-04-26T15:26:27.392Z</time></trkpt><trkpt lat="45.8733167" lon="11.6489808"><ele>633.0</ele><time>2026-04-26T15:26:28.392Z</time></trkpt><trkpt lat="45.8734317" lon="11.6488423"><ele>633.0</ele><time>2026-04-26T15:26:29.39Z</time></trkpt><trkpt lat="45.8735316" lon="11.6486948"><ele>633.0</ele><time>2026-04-26T15:26:30.391Z</time></trkpt><trkpt lat="45.873636" lon="11.6485701"><ele>633.0</ele><time>2026-04-26T15:26:31.392Z</time></trkpt><trkpt lat="45.8737517" lon="11.6484825"><ele>633.4</ele><time>2026-04-26T15:26:32.392Z</time></trkpt><trkpt lat="45.8738704" lon="11.6484242"><ele>633.8</ele><time>2026-04-26T15:26:33.393Z</time></trkpt><trkpt lat="45.873931" lon="11.6483805"><ele>634.2</ele><time>2026-04-26T15:26:33.992Z</time></trkpt><trkpt lat="45.8740265" lon="11.6482286"><ele>634.6</ele><time>2026-04-26T15:26:35.391Z</time></trkpt><trkpt lat="45.8740592" lon="11.6481151"><ele>635.0</ele><time>2026-04-26T15:26:36.393Z</time></trkpt><trkpt lat="45.8740819" lon="11.6480285"><ele>635.0</ele><time>2026-04-26T15:26:37.394Z</time></trkpt><trkpt lat="45.8740374" lon="11.6479178"><ele>635.0</ele><time>2026-04-26T15:26:39.396Z</time></trkpt><trkpt lat="45.873972" lon="11.6480364"><ele>635.0</ele><time>2026-04-26T15:26:41.393Z</time></trkpt><trkpt lat="45.8739532" lon="11.6481523"><ele>635.0</ele><time>2026-04-26T15:26:42.393Z</time></trkpt><trkpt lat="45.8739067" lon="11.6482561"><ele>635.0</ele><time>2026-04-26T15:26:43.393Z</time></trkpt><trkpt lat="45.8738273" lon="11.6483356"><ele>635.0</ele><time>2026-04-26T15:26:44.394Z</time></trkpt><trkpt lat="45.8737151" lon="11.6483769"><ele>635.0</ele><time>2026-04-26T15:26:45.394Z</time></trkpt><trkpt lat="45.8734778" lon="11.6485339"><ele>635.0</ele><time>2026-04-26T15:26:47.392Z</time></trkpt><trkpt lat="45.8733672" lon="11.6486621"><ele>634.5</ele><time>2026-04-26T15:26:48.393Z</time></trkpt><trkpt lat="45.8732476" lon="11.6487537"><ele>634.0</ele><time>2026-04-26T15:26:49.392Z</time></trkpt><trkpt lat="45.8731073" lon="11.648803"><ele>633.5</ele><time>2026-04-26T15:26:50.391Z</time></trkpt><trkpt lat="45.8729537" lon="11.6488288"><ele>633.0</ele><time>2026-04-26T15:26:51.392Z</time></trkpt><trkpt lat="45.8728074" lon="11.6488546"><ele>633.0</ele><time>2026-04-26T15:26:52.39Z</time></trkpt><trkpt lat="45.8726721" lon="11.6488924"><ele>633.0</ele><time>2026-04-26T15:26:53.389Z</time></trkpt><trkpt lat="45.8725504" lon="11.6489615"><ele>633.0</ele><time>2026-04-26T15:26:54.391Z</time></trkpt><trkpt lat="45.8724446" lon="11.6490762"><ele>633.0</ele><time>2026-04-26T15:26:55.39Z</time></trkpt><trkpt lat="45.8723448" lon="11.6492267"><ele>627.75</ele><time>2026-04-26T15:26:56.394Z</time></trkpt><trkpt lat="45.8722593" lon="11.6493909"><ele>622.5</ele><time>2026-04-26T15:26:57.394Z</time></trkpt><trkpt lat="45.8722018" lon="11.649554"><ele>617.25</ele><time>2026-04-26T15:26:58.395Z</time></trkpt><trkpt lat="45.8721823" lon="11.649718"><ele>612.0</ele><time>2026-04-26T15:26:59.393Z</time></trkpt><trkpt lat="45.8721739" lon="11.6498372"><ele>612.0</ele><time>2026-04-26T15:27:00.192Z</time></trkpt><trkpt lat="45.8721269" lon="11.6499674"><ele>612.0</ele><time>2026-04-26T15:27:01.394Z</time></trkpt><trkpt lat="45.8720536" lon="11.6500318"><ele>612.0</ele><time>2026-04-26T15:27:02.395Z</time></trkpt><trkpt lat="45.8719544" lon="11.6500886"><ele>612.0</ele><time>2026-04-26T15:27:03.396Z</time></trkpt><trkpt lat="45.8718412" lon="11.6501833"><ele>612.0</ele><time>2026-04-26T15:27:04.393Z</time></trkpt><trkpt lat="45.8717225" lon="11.6503361"><ele>605.0</ele><time>2026-04-26T15:27:05.394Z</time></trkpt><trkpt lat="45.8716032" lon="11.6505214"><ele>598.0</ele><time>2026-04-26T15:27:06.394Z</time></trkpt><trkpt lat="45.8713673" lon="11.6508489"><ele>598.0</ele><time>2026-04-26T15:27:08.393Z</time></trkpt><trkpt lat="45.8712369" lon="11.6509643"><ele>598.0</ele><time>2026-04-26T15:27:09.394Z</time></trkpt><trkpt lat="45.8711038" lon="11.651065"><ele>598.0</ele><time>2026-04-26T15:27:10.393Z</time></trkpt><trkpt lat="45.8709649" lon="11.6511606"><ele>598.0</ele><time>2026-04-26T15:27:11.394Z</time></trkpt><trkpt lat="45.8708237" lon="11.6512398"><ele>598.0</ele><time>2026-04-26T15:27:12.393Z</time></trkpt><trkpt lat="45.8706872" lon="11.6513003"><ele>598.0</ele><time>2026-04-26T15:27:13.394Z</time></trkpt><trkpt lat="45.8705594" lon="11.6513497"><ele>598.0</ele><time>2026-04-26T15:27:14.393Z</time></trkpt><trkpt lat="45.870445" lon="11.6513922"><ele>598.0</ele><time>2026-04-26T15:27:15.393Z</time></trkpt><trkpt lat="45.8703481" lon="11.6514293"><ele>598.0</ele><time>2026-04-26T15:27:16.392Z</time></trkpt><trkpt lat="45.870276" lon="11.6514422"><ele>598.0</ele><time>2026-04-26T15:27:17.391Z</time></trkpt><trkpt lat="45.8702161" lon="11.6513729"><ele>598.0</ele><time>2026-04-26T15:27:19.391Z</time></trkpt><trkpt lat="45.8703109" lon="11.6512842"><ele>598.0</ele><time>2026-04-26T15:27:21.395Z</time></trkpt><trkpt lat="45.8704175" lon="11.6512662"><ele>598.0</ele><time>2026-04-26T15:27:22.392Z</time></trkpt><trkpt lat="45.8705528" lon="11.6512229"><ele>598.0</ele><time>2026-04-26T15:27:23.392Z</time></trkpt><trkpt lat="45.8707025" lon="11.6511274"><ele>598.0</ele><time>2026-04-26T15:27:24.393Z</time></trkpt><trkpt lat="45.8708569" lon="11.6509867"><ele>598.0</ele><time>2026-04-26T15:27:25.393Z</time></trkpt><trkpt lat="45.8710011" lon="11.6508282"><ele>598.0</ele><time>2026-04-26T15:27:26.394Z</time></trkpt><trkpt lat="45.8711289" lon="11.6506608"><ele>598.0</ele><time>2026-04-26T15:27:27.393Z</time></trkpt><trkpt lat="45.8713143" lon="11.6502695"><ele>591.25</ele><time>2026-04-26T15:27:29.393Z</time></trkpt><trkpt lat="45.8714056" lon="11.6500844"><ele>584.5</ele><time>2026-04-26T15:27:30.392Z</time></trkpt><trkpt lat="45.8715043" lon="11.649929"><ele>577.75</ele><time>2026-04-26T15:27:31.392Z</time></trkpt><trkpt lat="45.8715986" lon="11.6498164"><ele>571.0</ele><time>2026-04-26T15:27:32.392Z</time></trkpt><trkpt lat="45.8716607" lon="11.649707"><ele>571.0</ele><time>2026-04-26T15:27:33.394Z</time></trkpt><trkpt lat="45.8716745" lon="11.6495731"><ele>571.0</ele><time>2026-04-26T15:27:34.393Z</time></trkpt><trkpt lat="45.8716614" lon="11.6494153"><ele>571.0</ele><time>2026-04-26T15:27:35.393Z</time></trkpt><trkpt lat="45.8716651" lon="11.6492417"><ele>571.0</ele><time>2026-04-26T15:27:36.392Z</time></trkpt><trkpt lat="45.8717026" lon="11.6490763"><ele>571.0</ele><time>2026-04-26T15:27:37.393Z</time></trkpt><trkpt lat="45.8717588" lon="11.6489311"><ele>570.6</ele><time>2026-04-26T15:27:38.392Z</time></trkpt><trkpt lat="45.8718144" lon="11.6488187"><ele>570.2</ele><time>2026-04-26T15:27:39.393Z</time></trkpt><trkpt lat="45.871856" lon="11.6487276"><ele>569.8</ele><time>2026-04-26T15:27:40.392Z</time></trkpt><trkpt lat="45.8718112" lon="11.6486102"><ele>569.4</ele><time>2026-04-26T15:27:42.392Z</time></trkpt><trkpt lat="45.8717119" lon="11.6487082"><ele>569.0</ele><time>2026-04-26T15:27:44.393Z</time></trkpt><trkpt lat="45.8716652" lon="11.6488399"><ele>569.5</ele><time>2026-04-26T15:27:45.395Z</time></trkpt><trkpt lat="45.8716097" lon="11.6490065"><ele>570.0</ele><time>2026-04-26T15:27:46.393Z</time></trkpt><trkpt lat="45.8715603" lon="11.6491677"><ele>570.5</ele><time>2026-04-26T15:27:47.393Z</time></trkpt><trkpt lat="45.8715355" lon="11.6493254"><ele>571.0</ele><time>2026-04-26T15:27:48.395Z</time></trkpt><trkpt lat="45.871486" lon="11.6495938"><ele>571.0</ele><time>2026-04-26T15:27:50.393Z</time></trkpt><trkpt lat="45.8714126" lon="11.6496908"><ele>571.0</ele><time>2026-04-26T15:27:51.394Z</time></trkpt><trkpt lat="45.8712984" lon="11.6497668"><ele>571.0</ele><time>2026-04-26T15:27:52.391Z</time></trkpt><trkpt lat="45.8711589" lon="11.6498629"><ele>571.0</ele><time>2026-04-26T15:27:53.394Z</time></trkpt><trkpt lat="45.8710132" lon="11.6500057"><ele>569.25</ele><time>2026-04-26T15:27:54.393Z</time></trkpt><trkpt lat="45.870881" lon="11.6501551"><ele>567.5</ele><time>2026-04-26T15:27:55.394Z</time></trkpt><trkpt lat="45.8707633" lon="11.6502898"><ele>565.75</ele><time>2026-04-26T15:27:56.393Z</time></trkpt><trkpt lat="45.8706639" lon="11.6504055"><ele>564.0</ele><time>2026-04-26T15:27:57.393Z</time></trkpt><trkpt lat="45.8705867" lon="11.6505047"><ele>564.0</ele><time>2026-04-26T15:27:58.394Z</time></trkpt><trkpt lat="45.8705294" lon="11.6505776"><ele>564.0</ele><time>2026-04-26T15:27:59.394Z</time></trkpt><trkpt lat="45.8704551" lon="11.6505803"><ele>564.0</ele><time>2026-04-26T15:28:01.392Z</time></trkpt><trkpt lat="45.8704968" lon="11.6504475"><ele>564.0</ele><time>2026-04-26T15:28:03.394Z</time></trkpt><trkpt lat="45.8705802" lon="11.650354"><ele>564.0</ele><time>2026-04-26T15:28:04.393Z</time></trkpt><trkpt lat="45.8706828" lon="11.6502152"><ele>566.3333333333334</ele><time>2026-04-26T15:28:05.39Z</time></trkpt><trkpt lat="45.870802" lon="11.6500376"><ele>568.6666666666667</ele><time>2026-04-26T15:28:06.393Z</time></trkpt><trkpt lat="45.8709297" lon="11.649863"><ele>571.0</ele><time>2026-04-26T15:28:07.393Z</time></trkpt><trkpt lat="45.8710578" lon="11.6497154"><ele>571.0</ele><time>2026-04-26T15:28:08.393Z</time></trkpt><trkpt lat="45.8711749" lon="11.6495963"><ele>571.0</ele><time>2026-04-26T15:28:09.395Z</time></trkpt><trkpt lat="45.8713046" lon="11.6493269"><ele>571.0</ele><time>2026-04-26T15:28:11.393Z</time></trkpt><trkpt lat="45.8713206" lon="11.6491522"><ele>567.2</ele><time>2026-04-26T15:28:12.393Z</time></trkpt><trkpt lat="45.8713444" lon="11.6489753"><ele>563.4000000000001</ele><time>2026-04-26T15:28:13.393Z</time></trkpt><trkpt lat="45.8713879" lon="11.6488211"><ele>559.6</ele><time>2026-04-26T15:28:14.395Z</time></trkpt><trkpt lat="45.8714373" lon="11.6487107"><ele>555.8000000000001</ele><time>2026-04-26T15:28:15.395Z</time></trkpt><trkpt lat="45.8714398" lon="11.6485662"><ele>552.0</ele><time>2026-04-26T15:28:17.393Z</time></trkpt><trkpt lat="45.8713489" lon="11.6486235"><ele>552.0</ele><time>2026-04-26T15:28:19.395Z</time></trkpt><trkpt lat="45.8713169" lon="11.648727"><ele>552.0</ele><time>2026-04-26T15:28:20.393Z</time></trkpt><trkpt lat="45.871281" lon="11.648882"><ele>552.0</ele><time>2026-04-26T15:28:21.394Z</time></trkpt><trkpt lat="45.8712342" lon="11.6490554"><ele>552.0</ele><time>2026-04-26T15:28:22.393Z</time></trkpt><trkpt lat="45.8711721" lon="11.6492074"><ele>552.0</ele><time>2026-04-26T15:28:23.393Z</time></trkpt><trkpt lat="45.8710811" lon="11.6493255"><ele>552.0</ele><time>2026-04-26T15:28:24.395Z</time></trkpt><trkpt lat="45.870956" lon="11.6494264"><ele>552.0</ele><time>2026-04-26T15:28:25.395Z</time></trkpt><trkpt lat="45.870806" lon="11.6495377"><ele>552.0</ele><time>2026-04-26T15:28:26.394Z</time></trkpt><trkpt lat="45.8706397" lon="11.6496665"><ele>547.3333333333334</ele><time>2026-04-26T15:28:27.395Z</time></trkpt><trkpt lat="45.8704742" lon="11.6497931"><ele>542.6666666666667</ele><time>2026-04-26T15:28:28.394Z</time></trkpt><trkpt lat="45.870319" lon="11.6499101"><ele>538.0</ele><time>2026-04-26T15:28:29.391Z</time></trkpt><trkpt lat="45.8701589" lon="11.6499857"><ele>525.0</ele><time>2026-04-26T15:28:30.39Z</time></trkpt><trkpt lat="45.8698435" lon="11.6500536"><ele>512.0</ele><time>2026-04-26T15:28:32.393Z</time></trkpt><trkpt lat="45.8696949" lon="11.6500816"><ele>512.0</ele><time>2026-04-26T15:28:33.394Z</time></trkpt><trkpt lat="45.8695543" lon="11.6501052"><ele>512.0</ele><time>2026-04-26T15:28:34.394Z</time></trkpt><trkpt lat="45.8694357" lon="11.6501389"><ele>512.0</ele><time>2026-04-26T15:28:35.393Z</time></trkpt><trkpt lat="45.8693404" lon="11.6501878"><ele>512.0</ele><time>2026-04-26T15:28:36.394Z</time></trkpt><trkpt lat="45.869271" lon="11.6502446"><ele>512.0</ele><time>2026-04-26T15:28:37.394Z</time></trkpt><trkpt lat="45.8691803" lon="11.6502763"><ele>512.0</ele><time>2026-04-26T15:28:39.394Z</time></trkpt><trkpt lat="45.8691904" lon="11.6501759"><ele>512.0</ele><time>2026-04-26T15:28:41.395Z</time></trkpt><trkpt lat="45.8692569" lon="11.65012"><ele>512.0</ele><time>2026-04-26T15:28:42.396Z</time></trkpt><trkpt lat="45.8693658" lon="11.650058"><ele>512.0</ele><time>2026-04-26T15:28:43.396Z</time></trkpt><trkpt lat="45.8695082" lon="11.6499786"><ele>512.0</ele><time>2026-04-26T15:28:44.397Z</time></trkpt><trkpt lat="45.8696763" lon="11.6498714"><ele>512.0</ele><time>2026-04-26T15:28:45.394Z</time></trkpt><trkpt lat="45.8698579" lon="11.6497358"><ele>512.0</ele><time>2026-04-26T15:28:46.395Z</time></trkpt><trkpt lat="45.8700314" lon="11.6495871"><ele>512.0</ele><time>2026-04-26T15:28:47.394Z</time></trkpt><trkpt lat="45.8701965" lon="11.6494387"><ele>512.0</ele><time>2026-04-26T15:28:48.393Z</time></trkpt><trkpt lat="45.8703535" lon="11.6492993"><ele>512.0</ele><time>2026-04-26T15:28:49.393Z</time></trkpt><trkpt lat="45.8705008" lon="11.6491913"><ele>512.0</ele><time>2026-04-26T15:28:50.395Z</time></trkpt><trkpt lat="45.8706345" lon="11.6491171"><ele>512.0</ele><time>2026-04-26T15:28:51.393Z</time></trkpt><trkpt lat="45.8708069" lon="11.6489243"><ele>512.0</ele><time>2026-04-26T15:28:53.393Z</time></trkpt><trkpt lat="45.870823" lon="11.6487914"><ele>512.0</ele><time>2026-04-26T15:28:54.392Z</time></trkpt><trkpt lat="45.8708045" lon="11.6486351"><ele>512.0</ele><time>2026-04-26T15:28:55.391Z</time></trkpt><trkpt lat="45.8707879" lon="11.6484732"><ele>507.40000000000003</ele><time>2026-04-26T15:28:56.39Z</time></trkpt><trkpt lat="45.8707968" lon="11.648303"><ele>502.80000000000007</ele><time>2026-04-26T15:28:57.393Z</time></trkpt><trkpt lat="45.8708339" lon="11.6481586"><ele>498.2</ele><time>2026-04-26T15:28:58.392Z</time></trkpt><trkpt lat="45.8708914" lon="11.6480622"><ele>493.6</ele><time>2026-04-26T15:28:59.393Z</time></trkpt><trkpt lat="45.8709812" lon="11.6480015"><ele>489.0</ele><time>2026-04-26T15:29:00.392Z</time></trkpt><trkpt lat="45.871099" lon="11.6479479"><ele>491.66666666666663</ele><time>2026-04-26T15:29:01.392Z</time></trkpt><trkpt lat="45.8712268" lon="11.6478546"><ele>494.3333333333333</ele><time>2026-04-26T15:29:02.394Z</time></trkpt><trkpt lat="45.8713227" lon="11.6477323"><ele>497.0</ele><time>2026-04-26T15:29:03.191Z</time></trkpt><trkpt lat="45.8714505" lon="11.6475298"><ele>497.0</ele><time>2026-04-26T15:29:04.391Z</time></trkpt><trkpt lat="45.8715277" lon="11.647353"><ele>497.0</ele><time>2026-04-26T15:29:05.391Z</time></trkpt><trkpt lat="45.8715839" lon="11.6471944"><ele>497.0</ele><time>2026-04-26T15:29:06.394Z</time></trkpt><trkpt lat="45.8716412" lon="11.6470716"><ele>497.0</ele><time>2026-04-26T15:29:07.394Z</time></trkpt><trkpt lat="45.871724" lon="11.6469963"><ele>491.75</ele><time>2026-04-26T15:29:08.392Z</time></trkpt><trkpt lat="45.8718376" lon="11.6469595"><ele>486.5</ele><time>2026-04-26T15:29:09.393Z</time></trkpt><trkpt lat="45.8719768" lon="11.6469507"><ele>481.25</ele><time>2026-04-26T15:29:10.393Z</time></trkpt><trkpt lat="45.8721181" lon="11.6469575"><ele>476.0</ele><time>2026-04-26T15:29:11.391Z</time></trkpt><trkpt lat="45.872247" lon="11.6469848"><ele>476.0</ele><time>2026-04-26T15:29:12.393Z</time></trkpt><trkpt lat="45.8724263" lon="11.6470374"><ele>476.0</ele><time>2026-04-26T15:29:14.392Z</time></trkpt><trkpt lat="45.8724804" lon="11.6469556"><ele>476.0</ele><time>2026-04-26T15:29:16.39Z</time></trkpt><trkpt lat="45.8723493" lon="11.646873"><ele>476.0</ele><time>2026-04-26T15:29:18.391Z</time></trkpt><trkpt lat="45.8722214" lon="11.6468673"><ele>476.0</ele><time>2026-04-26T15:29:19.389Z</time></trkpt><trkpt lat="45.8720689" lon="11.6468578"><ele>476.0</ele><time>2026-04-26T15:29:20.39Z</time></trkpt><trkpt lat="45.8719217" lon="11.6468366"><ele>476.0</ele><time>2026-04-26T15:29:21.39Z</time></trkpt><trkpt lat="45.8717815" lon="11.6468248"><ele>476.0</ele><time>2026-04-26T15:29:22.389Z</time></trkpt><trkpt lat="45.8716585" lon="11.6468358"><ele>480.20000000000005</ele><time>2026-04-26T15:29:23.392Z</time></trkpt><trkpt lat="45.8715597" lon="11.6468798"><ele>484.40000000000003</ele><time>2026-04-26T15:29:24.392Z</time></trkpt><trkpt lat="45.8714892" lon="11.6469627"><ele>488.6</ele><time>2026-04-26T15:29:25.394Z</time></trkpt><trkpt lat="45.8714397" lon="11.6470818"><ele>492.8</ele><time>2026-04-26T15:29:26.391Z</time></trkpt><trkpt lat="45.8713832" lon="11.647224"><ele>497.0</ele><time>2026-04-26T15:29:27.391Z</time></trkpt><trkpt lat="45.8712963" lon="11.6473571"><ele>497.0</ele><time>2026-04-26T15:29:28.394Z</time></trkpt><trkpt lat="45.8711904" lon="11.6474756"><ele>497.0</ele><time>2026-04-26T15:29:29.392Z</time></trkpt><trkpt lat="45.8710838" lon="11.6475802"><ele>497.0</ele><time>2026-04-26T15:29:30.395Z</time></trkpt><trkpt lat="45.8709734" lon="11.6476436"><ele>497.0</ele><time>2026-04-26T15:29:31.394Z</time></trkpt><trkpt lat="45.8708568" lon="11.6476492"><ele>495.0</ele><time>2026-04-26T15:29:32.394Z</time></trkpt><trkpt lat="45.8707434" lon="11.647652"><ele>493.0</ele><time>2026-04-26T15:29:33.393Z</time></trkpt><trkpt lat="45.8705514" lon="11.6477576"><ele>491.0</ele><time>2026-04-26T15:29:35.394Z</time></trkpt><trkpt lat="45.8704869" lon="11.6478642"><ele>489.0</ele><time>2026-04-26T15:29:36.394Z</time></trkpt><trkpt lat="45.8704375" lon="11.6480098"><ele>489.0</ele><time>2026-04-26T15:29:37.393Z</time></trkpt><trkpt lat="45.8703949" lon="11.6481812"><ele>489.0</ele><time>2026-04-26T15:29:38.392Z</time></trkpt><trkpt lat="45.8703499" lon="11.6483417"><ele>489.0</ele><time>2026-04-26T15:29:39.393Z</time></trkpt><trkpt lat="45.870293" lon="11.6484775"><ele>489.0</ele><time>2026-04-26T15:29:40.393Z</time></trkpt><trkpt lat="45.8702109" lon="11.6485808"><ele>487.33333333333337</ele><time>2026-04-26T15:29:41.393Z</time></trkpt><trkpt lat="45.8701036" lon="11.6486511"><ele>485.6666666666667</ele><time>2026-04-26T15:29:42.393Z</time></trkpt><trkpt lat="45.8698618" lon="11.648702"><ele>484.0</ele><time>2026-04-26T15:29:44.39Z</time></trkpt><trkpt lat="45.8697305" lon="11.648699"><ele>484.0</ele><time>2026-04-26T15:29:45.392Z</time></trkpt><trkpt lat="45.8696023" lon="11.6486992"><ele>484.0</ele><time>2026-04-26T15:29:46.391Z</time></trkpt><trkpt lat="45.8694784" lon="11.6487122"><ele>484.0</ele><time>2026-04-26T15:29:47.394Z</time></trkpt><trkpt lat="45.8693585" lon="11.6487483"><ele>484.0</ele><time>2026-04-26T15:29:48.393Z</time></trkpt><trkpt lat="45.869239" lon="11.648822"><ele>478.5</ele><time>2026-04-26T15:29:49.395Z</time></trkpt><trkpt lat="45.8691195" lon="11.6489213"><ele>473.0</ele><time>2026-04-26T15:29:50.393Z</time></trkpt><trkpt lat="45.8690087" lon="11.6490329"><ele>467.5</ele><time>2026-04-26T15:29:51.393Z</time></trkpt><trkpt lat="45.8688973" lon="11.6491295"><ele>462.0</ele><time>2026-04-26T15:29:52.395Z</time></trkpt><trkpt lat="45.8687817" lon="11.6491858"><ele>462.0</ele><time>2026-04-26T15:29:53.392Z</time></trkpt><trkpt lat="45.8686749" lon="11.6492252"><ele>462.0</ele><time>2026-04-26T15:29:54.392Z</time></trkpt><trkpt lat="45.8685182" lon="11.6494179"><ele>462.0</ele><time>2026-04-26T15:29:56.392Z</time></trkpt><trkpt lat="45.8684486" lon="11.6495578"><ele>462.0</ele><time>2026-04-26T15:29:57.392Z</time></trkpt><trkpt lat="45.8683761" lon="11.6496778"><ele>458.8333333333333</ele><time>2026-04-26T15:29:58.393Z</time></trkpt><trkpt lat="45.8683238" lon="11.6497969"><ele>455.66666666666663</ele><time>2026-04-26T15:29:59.393Z</time></trkpt><trkpt lat="45.8683062" lon="11.6499148"><ele>452.5</ele><time>2026-04-26T15:30:00.393Z</time></trkpt><trkpt lat="45.8683126" lon="11.6500154"><ele>449.3333333333333</ele><time>2026-04-26T15:30:01.393Z</time></trkpt><trkpt lat="45.8682876" lon="11.6501254"><ele>446.16666666666663</ele><time>2026-04-26T15:30:03.392Z</time></trkpt><trkpt lat="45.8682426" lon="11.6500514"><ele>443.0</ele><time>2026-04-26T15:30:05.394Z</time></trkpt><trkpt lat="45.8682557" lon="11.6499459"><ele>443.0</ele><time>2026-04-26T15:30:06.392Z</time></trkpt><trkpt lat="45.8682839" lon="11.6498052"><ele>443.0</ele><time>2026-04-26T15:30:07.394Z</time></trkpt><trkpt lat="45.8683411" lon="11.6496521"><ele>443.0</ele><time>2026-04-26T15:30:08.39Z</time></trkpt><trkpt lat="45.8684167" lon="11.6494897"><ele>443.0</ele><time>2026-04-26T15:30:09.39Z</time></trkpt><trkpt lat="45.868486" lon="11.6493285"><ele>447.75</ele><time>2026-04-26T15:30:10.39Z</time></trkpt><trkpt lat="45.8685525" lon="11.6491837"><ele>452.5</ele><time>2026-04-26T15:30:11.391Z</time></trkpt><trkpt lat="45.8686399" lon="11.6490773"><ele>457.25</ele><time>2026-04-26T15:30:12.394Z</time></trkpt><trkpt lat="45.8687427" lon="11.6489822"><ele>462.0</ele><time>2026-04-26T15:30:13.392Z</time></trkpt><trkpt lat="45.8688392" lon="11.6488429"><ele>462.0</ele><time>2026-04-26T15:30:14.391Z</time></trkpt><trkpt lat="45.8689398" lon="11.6486888"><ele>462.0</ele><time>2026-04-26T15:30:15.392Z</time></trkpt><trkpt lat="45.8691537" lon="11.6484315"><ele>462.0</ele><time>2026-04-26T15:30:17.392Z</time></trkpt><trkpt lat="45.8692625" lon="11.6483405"><ele>458.8</ele><time>2026-04-26T15:30:18.391Z</time></trkpt><trkpt lat="45.8693743" lon="11.6482861"><ele>455.6</ele><time>2026-04-26T15:30:19.393Z</time></trkpt><trkpt lat="45.8694837" lon="11.648271"><ele>452.40000000000003</ele><time>2026-04-26T15:30:20.39Z</time></trkpt><trkpt lat="45.8695837" lon="11.6482774"><ele>449.20000000000005</ele><time>2026-04-26T15:30:21.39Z</time></trkpt><trkpt lat="45.869668" lon="11.6482963"><ele>446.0</ele><time>2026-04-26T15:30:22.389Z</time></trkpt><trkpt lat="45.8697344" lon="11.6483098"><ele>446.0</ele><time>2026-04-26T15:30:23.39Z</time></trkpt><trkpt lat="45.869793" lon="11.6482503"><ele>446.0</ele><time>2026-04-26T15:30:25.393Z</time></trkpt><trkpt lat="45.8696862" lon="11.6481763"><ele>446.0</ele><time>2026-04-26T15:30:27.392Z</time></trkpt><trkpt lat="45.8695786" lon="11.648162"><ele>446.0</ele><time>2026-04-26T15:30:28.392Z</time></trkpt><trkpt lat="45.8694424" lon="11.6481532"><ele>446.0</ele><time>2026-04-26T15:30:29.393Z</time></trkpt><trkpt lat="45.8692966" lon="11.6481537"><ele>440.5</ele><time>2026-04-26T15:30:30.391Z</time></trkpt><trkpt lat="45.8691559" lon="11.6481895"><ele>435.0</ele><time>2026-04-26T15:30:31.392Z</time></trkpt><trkpt lat="45.8690228" lon="11.6482644"><ele>429.5</ele><time>2026-04-26T15:30:32.39Z</time></trkpt><trkpt lat="45.8688867" lon="11.6483789"><ele>424.0</ele><time>2026-04-26T15:30:33.391Z</time></trkpt><trkpt lat="45.8687404" lon="11.6485244"><ele>421.33333333333337</ele><time>2026-04-26T15:30:34.393Z</time></trkpt><trkpt lat="45.8685877" lon="11.6486743"><ele>418.66666666666663</ele><time>2026-04-26T15:30:35.39Z</time></trkpt><trkpt lat="45.8684378" lon="11.6488094"><ele>416.0</ele><time>2026-04-26T15:30:36.394Z</time></trkpt><trkpt lat="45.8681732" lon="11.6490971"><ele>416.0</ele><time>2026-04-26T15:30:38.392Z</time></trkpt><trkpt lat="45.8680578" lon="11.6492375"><ele>416.0</ele><time>2026-04-26T15:30:39.392Z</time></trkpt><trkpt lat="45.867965" lon="11.649362"><ele>416.0</ele><time>2026-04-26T15:30:40.392Z</time></trkpt><trkpt lat="45.8679059" lon="11.6494914"><ele>416.0</ele><time>2026-04-26T15:30:41.391Z</time></trkpt><trkpt lat="45.8678792" lon="11.6496289"><ele>420.49999999999994</ele><time>2026-04-26T15:30:42.391Z</time></trkpt><trkpt lat="45.8678685" lon="11.6497616"><ele>425.0</ele><time>2026-04-26T15:30:43.395Z</time></trkpt><trkpt lat="45.8678406" lon="11.6498779"><ele>429.5</ele><time>2026-04-26T15:30:44.392Z</time></trkpt><trkpt lat="45.8677939" lon="11.6499703"><ele>434.0</ele><time>2026-04-26T15:30:45.391Z</time></trkpt><trkpt lat="45.8677413" lon="11.6500336"><ele>438.49999999999994</ele><time>2026-04-26T15:30:46.393Z</time></trkpt><trkpt lat="45.8676552" lon="11.6500363"><ele>443.0</ele><time>2026-04-26T15:30:48.392Z</time></trkpt><trkpt lat="45.8676882" lon="11.649928"><ele>443.0</ele><time>2026-04-26T15:30:50.392Z</time></trkpt><trkpt lat="45.8677516" lon="11.6498618"><ele>442.99999999999994</ele><time>2026-04-26T15:30:51.394Z</time></trkpt><trkpt lat="45.8678059" lon="11.6497535"><ele>442.99999999999994</ele><time>2026-04-26T15:30:52.392Z</time></trkpt><trkpt lat="45.8678294" lon="11.6496029"><ele>443.0</ele><time>2026-04-26T15:30:53.393Z</time></trkpt><trkpt lat="45.8678469" lon="11.649445"><ele>443.0</ele><time>2026-04-26T15:30:54.394Z</time></trkpt><trkpt lat="45.8678828" lon="11.6493033"><ele>434.0</ele><time>2026-04-26T15:30:55.391Z</time></trkpt><trkpt lat="45.8679491" lon="11.6491714"><ele>425.0</ele><time>2026-04-26T15:30:56.391Z</time></trkpt><trkpt lat="45.8680372" lon="11.6490187"><ele>416.0</ele><time>2026-04-26T15:30:57.39Z</time></trkpt><trkpt lat="45.8682382" lon="11.6486527"><ele>418.0</ele><time>2026-04-26T15:30:59.39Z</time></trkpt><trkpt lat="45.8683383" lon="11.64848"><ele>420.0</ele><time>2026-04-26T15:31:00.39Z</time></trkpt><trkpt lat="45.8684342" lon="11.6483152"><ele>422.0</ele><time>2026-04-26T15:31:01.392Z</time></trkpt><trkpt lat="45.8685137" lon="11.6481464"><ele>424.0</ele><time>2026-04-26T15:31:02.391Z</time></trkpt><trkpt lat="45.8685763" lon="11.6479818"><ele>424.0</ele><time>2026-04-26T15:31:03.395Z</time></trkpt><trkpt lat="45.8686295" lon="11.6478389"><ele>424.0</ele><time>2026-04-26T15:31:04.392Z</time></trkpt><trkpt lat="45.8686801" lon="11.6477168"><ele>424.0</ele><time>2026-04-26T15:31:05.391Z</time></trkpt><trkpt lat="45.8687438" lon="11.6476206"><ele>424.0</ele><time>2026-04-26T15:31:06.393Z</time></trkpt><trkpt lat="45.8688328" lon="11.6475623"><ele>424.0</ele><time>2026-04-26T15:31:07.396Z</time></trkpt><trkpt lat="45.8689467" lon="11.6475276"><ele>419.25</ele><time>2026-04-26T15:31:08.392Z</time></trkpt><trkpt lat="45.8690757" lon="11.6474943"><ele>414.5</ele><time>2026-04-26T15:31:09.393Z</time></trkpt><trkpt lat="45.869205" lon="11.6474773"><ele>409.75</ele><time>2026-04-26T15:31:10.392Z</time></trkpt><trkpt lat="45.8693266" lon="11.6474844"><ele>405.0</ele><time>2026-04-26T15:31:11.39Z</time></trkpt><trkpt lat="45.8694363" lon="11.6475151"><ele>405.0</ele><time>2026-04-26T15:31:12.392Z</time></trkpt><trkpt lat="45.8695168" lon="11.6475452"><ele>405.0</ele><time>2026-04-26T15:31:13.391Z</time></trkpt><trkpt lat="45.8695935" lon="11.6474874"><ele>405.0</ele><time>2026-04-26T15:31:15.388Z</time></trkpt><trkpt lat="45.8695323" lon="11.6473854"><ele>405.0</ele><time>2026-04-26T15:31:17.389Z</time></trkpt><trkpt lat="45.8694502" lon="11.6473827"><ele>405.0</ele><time>2026-04-26T15:31:18.392Z</time></trkpt><trkpt lat="45.8692049" lon="11.6474054"><ele>399.25</ele><time>2026-04-26T15:31:20.394Z</time></trkpt><trkpt lat="45.869051" lon="11.6474016"><ele>393.5</ele><time>2026-04-26T15:31:21.388Z</time></trkpt><trkpt lat="45.8688992" lon="11.6473942"><ele>387.75</ele><time>2026-04-26T15:31:22.388Z</time></trkpt><trkpt lat="45.8687576" lon="11.647385"><ele>382.0</ele><time>2026-04-26T15:31:23.389Z</time></trkpt><trkpt lat="45.8686339" lon="11.6473902"><ele>382.0</ele><time>2026-04-26T15:31:24.389Z</time></trkpt><trkpt lat="45.8685362" lon="11.6474314"><ele>382.0</ele><time>2026-04-26T15:31:25.392Z</time></trkpt><trkpt lat="45.8684704" lon="11.6475067"><ele>382.0</ele><time>2026-04-26T15:31:26.392Z</time></trkpt><trkpt lat="45.8684188" lon="11.6476263"><ele>382.0</ele><time>2026-04-26T15:31:27.391Z</time></trkpt><trkpt lat="45.8683497" lon="11.6477774"><ele>382.0</ele><time>2026-04-26T15:31:28.389Z</time></trkpt><trkpt lat="45.868249" lon="11.6479418"><ele>380.3333333333333</ele><time>2026-04-26T15:31:29.391Z</time></trkpt><trkpt lat="45.86812" lon="11.648117"><ele>378.6666666666667</ele><time>2026-04-26T15:31:30.392Z</time></trkpt><trkpt lat="45.8679893" lon="11.6482946"><ele>377.0</ele><time>2026-04-26T15:31:31.391Z</time></trkpt><trkpt lat="45.8678652" lon="11.6484691"><ele>366.6666666666667</ele><time>2026-04-26T15:31:32.39Z</time></trkpt><trkpt lat="45.8677477" lon="11.6486406"><ele>356.3333333333333</ele><time>2026-04-26T15:31:33.393Z</time></trkpt><trkpt lat="45.8676375" lon="11.6488023"><ele>346.0</ele><time>2026-04-26T15:31:34.391Z</time></trkpt><trkpt lat="45.8675476" lon="11.6489518"><ele>346.0</ele><time>2026-04-26T15:31:35.393Z</time></trkpt><trkpt lat="45.8674893" lon="11.6491081"><ele>346.0</ele><time>2026-04-26T15:31:36.39Z</time></trkpt><trkpt lat="45.8674517" lon="11.6492509"><ele>346.0</ele><time>2026-04-26T15:31:37.392Z</time></trkpt><trkpt lat="45.867402" lon="11.6493472"><ele>346.0</ele><time>2026-04-26T15:31:38.389Z</time></trkpt><trkpt lat="45.8673327" lon="11.6494066"><ele>346.0</ele><time>2026-04-26T15:31:39.391Z</time></trkpt><trkpt lat="45.8671877" lon="11.6494849"><ele>352.8</ele><time>2026-04-26T15:31:41.392Z</time></trkpt><trkpt lat="45.867149" lon="11.6495713"><ele>359.6</ele><time>2026-04-26T15:31:42.391Z</time></trkpt><trkpt lat="45.8671345" lon="11.649701"><ele>366.4</ele><time>2026-04-26T15:31:43.391Z</time></trkpt><trkpt lat="45.8671248" lon="11.6498731"><ele>373.2</ele><time>2026-04-26T15:31:44.391Z</time></trkpt><trkpt lat="45.8671165" lon="11.6500352"><ele>380.0</ele><time>2026-04-26T15:31:45.39Z</time></trkpt><trkpt lat="45.8671003" lon="11.650166"><ele>380.0</ele><time>2026-04-26T15:31:46.391Z</time></trkpt><trkpt lat="45.8670549" lon="11.6502473"><ele>380.0</ele><time>2026-04-26T15:31:47.389Z</time></trkpt><trkpt lat="45.8669903" lon="11.6502943"><ele>380.0</ele><time>2026-04-26T15:31:48.388Z</time></trkpt><trkpt lat="45.8668955" lon="11.6503094"><ele>380.0</ele><time>2026-04-26T15:31:49.389Z</time></trkpt><trkpt lat="45.8667809" lon="11.6503222"><ele>380.0</ele><time>2026-04-26T15:31:50.39Z</time></trkpt><trkpt lat="45.8666739" lon="11.6503332"><ele>376.25</ele><time>2026-04-26T15:31:51.393Z</time></trkpt><trkpt lat="45.8665759" lon="11.6503679"><ele>372.5</ele><time>2026-04-26T15:31:52.392Z</time></trkpt><trkpt lat="45.8664832" lon="11.6504605"><ele>368.75</ele><time>2026-04-26T15:31:53.391Z</time></trkpt><trkpt lat="45.8663847" lon="11.6505955"><ele>365.0</ele><time>2026-04-26T15:31:54.392Z</time></trkpt><trkpt lat="45.8662949" lon="11.6507314"><ele>365.0</ele><time>2026-04-26T15:31:55.391Z</time></trkpt><trkpt lat="45.8662111" lon="11.6508357"><ele>365.0</ele><time>2026-04-26T15:31:56.391Z</time></trkpt><trkpt lat="45.8661118" lon="11.6509006"><ele>365.0</ele><time>2026-04-26T15:31:57.391Z</time></trkpt><trkpt lat="45.8659886" lon="11.6509514"><ele>365.0</ele><time>2026-04-26T15:31:58.391Z</time></trkpt><trkpt lat="45.865846" lon="11.6510123"><ele>365.0</ele><time>2026-04-26T15:31:59.392Z</time></trkpt><trkpt lat="45.8657078" lon="11.651075"><ele>365.0</ele><time>2026-04-26T15:32:00.391Z</time></trkpt><trkpt lat="45.8654846" lon="11.6511675"><ele>365.0</ele><time>2026-04-26T15:32:02.391Z</time></trkpt><trkpt lat="45.8654214" lon="11.6512383"><ele>365.0</ele><time>2026-04-26T15:32:03.39Z</time></trkpt><trkpt lat="45.8653968" lon="11.6513332"><ele>365.0</ele><time>2026-04-26T15:32:04.392Z</time></trkpt><trkpt lat="45.8653909" lon="11.6514403"><ele>365.0</ele><time>2026-04-26T15:32:05.391Z</time></trkpt><trkpt lat="45.8653645" lon="11.651523"><ele>365.0</ele><time>2026-04-26T15:32:06.39Z</time></trkpt><trkpt lat="45.8653072" lon="11.6515674"><ele>365.0</ele><time>2026-04-26T15:32:07.391Z</time></trkpt><trkpt lat="45.865213" lon="11.6515772"><ele>365.0</ele><time>2026-04-26T15:32:08.39Z</time></trkpt><trkpt lat="45.8651082" lon="11.6515694"><ele>358.8</ele><time>2026-04-26T15:32:09.393Z</time></trkpt><trkpt lat="45.865003" lon="11.6515959"><ele>352.6</ele><time>2026-04-26T15:32:10.388Z</time></trkpt><trkpt lat="45.8649084" lon="11.6516675"><ele>346.4</ele><time>2026-04-26T15:32:11.388Z</time></trkpt><trkpt lat="45.8648155" lon="11.6517233"><ele>340.2</ele><time>2026-04-26T15:32:12.389Z</time></trkpt><trkpt lat="45.8647181" lon="11.6517189"><ele>334.0</ele><time>2026-04-26T15:32:13.388Z</time></trkpt><trkpt lat="45.8646272" lon="11.6517281"><ele>334.0</ele><time>2026-04-26T15:32:14.39Z</time></trkpt><trkpt lat="45.8645441" lon="11.651798"><ele>334.0</ele><time>2026-04-26T15:32:15.39Z</time></trkpt><trkpt lat="45.8644833" lon="11.6519167"><ele>334.0</ele><time>2026-04-26T15:32:16.39Z</time></trkpt><trkpt lat="45.8644338" lon="11.6520485"><ele>334.0</ele><time>2026-04-26T15:32:17.389Z</time></trkpt><trkpt lat="45.8643762" lon="11.6521431"><ele>334.0</ele><time>2026-04-26T15:32:18.392Z</time></trkpt><trkpt lat="45.8643033" lon="11.6521785"><ele>332.4</ele><time>2026-04-26T15:32:19.391Z</time></trkpt><trkpt lat="45.8642155" lon="11.6521948"><ele>330.79999999999995</ele><time>2026-04-26T15:32:20.391Z</time></trkpt><trkpt lat="45.8641443" lon="11.6522485"><ele>329.20000000000005</ele><time>2026-04-26T15:32:21.391Z</time></trkpt><trkpt lat="45.8640174" lon="11.652339"><ele>327.6</ele><time>2026-04-26T15:32:24.391Z</time></trkpt><trkpt lat="45.8640449" lon="11.6522206"><ele>326.0</ele><time>2026-04-26T15:32:26.389Z</time></trkpt><trkpt lat="45.8641116" lon="11.6521454"><ele>326.0</ele><time>2026-04-26T15:32:27.391Z</time></trkpt><trkpt lat="45.8642072" lon="11.6520846"><ele>326.0</ele><time>2026-04-26T15:32:28.39Z</time></trkpt><trkpt lat="45.8643064" lon="11.6520353"><ele>326.0</ele><time>2026-04-26T15:32:29.391Z</time></trkpt><trkpt lat="45.8643762" lon="11.6519549"><ele>326.0</ele><time>2026-04-26T15:32:30.39Z</time></trkpt><trkpt lat="45.8644126" lon="11.6518425"><ele>326.0</ele><time>2026-04-26T15:32:31.391Z</time></trkpt><trkpt lat="45.8644512" lon="11.6517224"><ele>328.0</ele><time>2026-04-26T15:32:32.389Z</time></trkpt><trkpt lat="45.8645135" lon="11.6516256"><ele>330.0</ele><time>2026-04-26T15:32:33.389Z</time></trkpt><trkpt lat="45.8646069" lon="11.6515462"><ele>332.0</ele><time>2026-04-26T15:32:34.389Z</time></trkpt><trkpt lat="45.8647277" lon="11.651476"><ele>334.0</ele><time>2026-04-26T15:32:35.387Z</time></trkpt><trkpt lat="45.8648572" lon="11.6514159"><ele>334.0</ele><time>2026-04-26T15:32:36.389Z</time></trkpt><trkpt lat="45.8649799" lon="11.6513702"><ele>334.0</ele><time>2026-04-26T15:32:37.387Z</time></trkpt><trkpt lat="45.8650877" lon="11.6513318"><ele>334.0</ele><time>2026-04-26T15:32:38.388Z</time></trkpt><trkpt lat="45.865166" lon="11.6512583"><ele>334.0</ele><time>2026-04-26T15:32:39.388Z</time></trkpt><trkpt lat="45.8652073" lon="11.651137"><ele>334.0</ele><time>2026-04-26T15:32:40.392Z</time></trkpt><trkpt lat="45.8652455" lon="11.6510124"><ele>330.25</ele><time>2026-04-26T15:32:41.389Z</time></trkpt><trkpt lat="45.8653093" lon="11.6509198"><ele>326.5</ele><time>2026-04-26T15:32:42.388Z</time></trkpt><trkpt lat="45.8655056" lon="11.6508332"><ele>322.75</ele><time>2026-04-26T15:32:44.389Z</time></trkpt><trkpt lat="45.8656395" lon="11.6507816"><ele>319.0</ele><time>2026-04-26T15:32:45.39Z</time></trkpt><trkpt lat="45.8657743" lon="11.6507046"><ele>319.0</ele><time>2026-04-26T15:32:46.388Z</time></trkpt><trkpt lat="45.8659028" lon="11.6506236"><ele>319.0</ele><time>2026-04-26T15:32:47.387Z</time></trkpt><trkpt lat="45.8660114" lon="11.6505095"><ele>319.0</ele><time>2026-04-26T15:32:48.388Z</time></trkpt><trkpt lat="45.866101" lon="11.6503751"><ele>319.0</ele><time>2026-04-26T15:32:49.387Z</time></trkpt><trkpt lat="45.8661888" lon="11.6502446"><ele>319.2</ele><time>2026-04-26T15:32:50.388Z</time></trkpt><trkpt lat="45.8662706" lon="11.6501188"><ele>319.4</ele><time>2026-04-26T15:32:51.39Z</time></trkpt><trkpt lat="45.8663413" lon="11.6500092"><ele>319.6</ele><time>2026-04-26T15:32:52.389Z</time></trkpt><trkpt lat="45.8664146" lon="11.6499253"><ele>319.8</ele><time>2026-04-26T15:32:53.39Z</time></trkpt><trkpt lat="45.8664956" lon="11.6498831"><ele>320.0</ele><time>2026-04-26T15:32:54.389Z</time></trkpt><trkpt lat="45.8665742" lon="11.649845"><ele>320.0</ele><time>2026-04-26T15:32:55.388Z</time></trkpt><trkpt lat="45.8666378" lon="11.6497954"><ele>320.0</ele><time>2026-04-26T15:32:56.389Z</time></trkpt><trkpt lat="45.8666587" lon="11.6496974"><ele>320.0</ele><time>2026-04-26T15:32:57.388Z</time></trkpt><trkpt lat="45.8666361" lon="11.6495718"><ele>320.0</ele><time>2026-04-26T15:32:58.388Z</time></trkpt><trkpt lat="45.8666195" lon="11.6494426"><ele>320.0</ele><time>2026-04-26T15:32:59.388Z</time></trkpt><trkpt lat="45.8666249" lon="11.64933"><ele>320.0</ele><time>2026-04-26T15:33:00.388Z</time></trkpt><trkpt lat="45.8666664" lon="11.649238"><ele>326.5</ele><time>2026-04-26T15:33:01.388Z</time></trkpt><trkpt lat="45.8667499" lon="11.6491588"><ele>333.0</ele><time>2026-04-26T15:33:02.386Z</time></trkpt><trkpt lat="45.8668427" lon="11.6490543"><ele>339.5</ele><time>2026-04-26T15:33:03.389Z</time></trkpt><trkpt lat="45.8670342" lon="11.6488911"><ele>346.0</ele><time>2026-04-26T15:33:05.388Z</time></trkpt><trkpt lat="45.867101" lon="11.6488032"><ele>346.0</ele><time>2026-04-26T15:33:06.389Z</time></trkpt><trkpt lat="45.8671304" lon="11.6486819"><ele>346.0</ele><time>2026-04-26T15:33:07.391Z</time></trkpt><trkpt lat="45.867141" lon="11.6485474"><ele>346.0</ele><time>2026-04-26T15:33:08.391Z</time></trkpt><trkpt lat="45.8671712" lon="11.6484205"><ele>346.0</ele><time>2026-04-26T15:33:09.39Z</time></trkpt><trkpt lat="45.8672381" lon="11.6482952"><ele>346.0</ele><time>2026-04-26T15:33:10.39Z</time></trkpt><trkpt lat="45.8673041" lon="11.6481653"><ele>337.5</ele><time>2026-04-26T15:33:11.391Z</time></trkpt><trkpt lat="45.8673406" lon="11.6480159"><ele>329.0</ele><time>2026-04-26T15:33:12.391Z</time></trkpt><trkpt lat="45.8673592" lon="11.6478389"><ele>320.5</ele><time>2026-04-26T15:33:13.39Z</time></trkpt><trkpt lat="45.8673876" lon="11.6476703"><ele>312.0</ele><time>2026-04-26T15:33:14.392Z</time></trkpt><trkpt lat="45.8673989" lon="11.6475023"><ele>305.4</ele><time>2026-04-26T15:33:15.39Z</time></trkpt><trkpt lat="45.8673864" lon="11.6473371"><ele>298.79999999999995</ele><time>2026-04-26T15:33:16.39Z</time></trkpt><trkpt lat="45.8673913" lon="11.6471984"><ele>292.2</ele><time>2026-04-26T15:33:17.387Z</time></trkpt><trkpt lat="45.8674129" lon="11.6470955"><ele>285.59999999999997</ele><time>2026-04-26T15:33:18.389Z</time></trkpt><trkpt lat="45.867384" lon="11.646993"><ele>279.0</ele><time>2026-04-26T15:33:20.389Z</time></trkpt><trkpt lat="45.867293" lon="11.6470897"><ele>279.0</ele><time>2026-04-26T15:33:22.39Z</time></trkpt><trkpt lat="45.8672715" lon="11.6472078"><ele>279.0</ele><time>2026-04-26T15:33:23.389Z</time></trkpt><trkpt lat="45.8672814" lon="11.6473373"><ele>279.0</ele><time>2026-04-26T15:33:24.389Z</time></trkpt><trkpt lat="45.8672893" lon="11.647565"><ele>279.0</ele><time>2026-04-26T15:33:26.387Z</time></trkpt><trkpt lat="45.8672452" lon="11.6476714"><ele>279.0</ele><time>2026-04-26T15:33:27.387Z</time></trkpt><trkpt lat="45.8672001" lon="11.6478092"><ele>287.25</ele><time>2026-04-26T15:33:28.391Z</time></trkpt><trkpt lat="45.8671718" lon="11.6479754"><ele>295.5</ele><time>2026-04-26T15:33:29.389Z</time></trkpt><trkpt lat="45.8671357" lon="11.6481393"><ele>303.75</ele><time>2026-04-26T15:33:30.39Z</time></trkpt><trkpt lat="45.8670645" lon="11.6482914"><ele>312.0</ele><time>2026-04-26T15:33:31.389Z</time></trkpt><trkpt lat="45.8669808" lon="11.6484542"><ele>312.0</ele><time>2026-04-26T15:33:32.39Z</time></trkpt><trkpt lat="45.8669068" lon="11.6486154"><ele>312.0</ele><time>2026-04-26T15:33:33.391Z</time></trkpt><trkpt lat="45.8668257" lon="11.648742"><ele>312.0</ele><time>2026-04-26T15:33:34.389Z</time></trkpt><trkpt lat="45.8667283" lon="11.6488165"><ele>312.0</ele><time>2026-04-26T15:33:35.39Z</time></trkpt><trkpt lat="45.8666287" lon="11.6488644"><ele>304.2</ele><time>2026-04-26T15:33:36.391Z</time></trkpt><trkpt lat="45.866532" lon="11.6489072"><ele>296.4</ele><time>2026-04-26T15:33:37.389Z</time></trkpt><trkpt lat="45.8664501" lon="11.6489759"><ele>288.6</ele><time>2026-04-26T15:33:38.389Z</time></trkpt><trkpt lat="45.8663934" lon="11.6490807"><ele>280.8</ele><time>2026-04-26T15:33:39.39Z</time></trkpt><trkpt lat="45.8663679" lon="11.6492081"><ele>273.0</ele><time>2026-04-26T15:33:40.39Z</time></trkpt><trkpt lat="45.8663522" lon="11.649352"><ele>284.75</ele><time>2026-04-26T15:33:41.388Z</time></trkpt><trkpt lat="45.8663045" lon="11.6494598"><ele>296.5</ele><time>2026-04-26T15:33:42.394Z</time></trkpt><trkpt lat="45.8662329" lon="11.6495127"><ele>308.25</ele><time>2026-04-26T15:33:43.391Z</time></trkpt><trkpt lat="45.866147" lon="11.6495392"><ele>320.0</ele><time>2026-04-26T15:33:44.389Z</time></trkpt><trkpt lat="45.8659512" lon="11.6498501"><ele>320.0</ele><time>2026-04-26T15:33:47.391Z</time></trkpt><trkpt lat="45.8659127" lon="11.64996"><ele>320.0</ele><time>2026-04-26T15:33:48.388Z</time></trkpt><trkpt lat="45.8658378" lon="11.6500445"><ele>320.0</ele><time>2026-04-26T15:33:50.388Z</time></trkpt><trkpt lat="45.8658213" lon="11.6499271"><ele>320.0</ele><time>2026-04-26T15:33:52.39Z</time></trkpt><trkpt lat="45.8658712" lon="11.6498159"><ele>320.0</ele><time>2026-04-26T15:33:53.39Z</time></trkpt><trkpt lat="45.8659453" lon="11.6496668"><ele>320.0</ele><time>2026-04-26T15:33:54.391Z</time></trkpt><trkpt lat="45.8660392" lon="11.6494877"><ele>320.0</ele><time>2026-04-26T15:33:55.389Z</time></trkpt><trkpt lat="45.8661379" lon="11.6493166"><ele>320.0</ele><time>2026-04-26T15:33:56.39Z</time></trkpt><trkpt lat="45.8662193" lon="11.6491398"><ele>308.25</ele><time>2026-04-26T15:33:57.389Z</time></trkpt><trkpt lat="45.8662857" lon="11.6489581"><ele>296.5</ele><time>2026-04-26T15:33:58.39Z</time></trkpt><trkpt lat="45.8663655" lon="11.6488039"><ele>284.75</ele><time>2026-04-26T15:33:59.389Z</time></trkpt><trkpt lat="45.8664683" lon="11.6486781"><ele>273.0</ele><time>2026-04-26T15:34:00.389Z</time></trkpt><trkpt lat="45.8665788" lon="11.6485373"><ele>262.3333333333333</ele><time>2026-04-26T15:34:01.39Z</time></trkpt><trkpt lat="45.8666712" lon="11.6483568"><ele>251.66666666666666</ele><time>2026-04-26T15:34:02.388Z</time></trkpt><trkpt lat="45.8667497" lon="11.6481664"><ele>241.0</ele><time>2026-04-26T15:34:03.391Z</time></trkpt><trkpt lat="45.8668092" lon="11.6479704"><ele>253.66666666666666</ele><time>2026-04-26T15:34:04.389Z</time></trkpt><trkpt lat="45.8668477" lon="11.6477616"><ele>266.3333333333333</ele><time>2026-04-26T15:34:05.388Z</time></trkpt><trkpt lat="45.8668722" lon="11.6475398"><ele>279.0</ele><time>2026-04-26T15:34:06.39Z</time></trkpt><trkpt lat="45.8669099" lon="11.647101"><ele>272.59999999999997</ele><time>2026-04-26T15:34:08.389Z</time></trkpt><trkpt lat="45.8669188" lon="11.6469145"><ele>266.2</ele><time>2026-04-26T15:34:09.389Z</time></trkpt><trkpt lat="45.8669293" lon="11.646763"><ele>259.79999999999995</ele><time>2026-04-26T15:34:10.389Z</time></trkpt><trkpt lat="45.8669285" lon="11.6466397"><ele>253.39999999999998</ele><time>2026-04-26T15:34:11.389Z</time></trkpt><trkpt lat="45.8668968" lon="11.6465566"><ele>247.0</ele><time>2026-04-26T15:34:12.388Z</time></trkpt><trkpt lat="45.8667952" lon="11.6465721"><ele>244.2</ele><time>2026-04-26T15:34:14.389Z</time></trkpt><trkpt lat="45.8667497" lon="11.646667"><ele>241.39999999999998</ele><time>2026-04-26T15:34:15.39Z</time></trkpt><trkpt lat="45.8667036" lon="11.6468011"><ele>238.60000000000002</ele><time>2026-04-26T15:34:16.389Z</time></trkpt><trkpt lat="45.8666376" lon="11.6469361"><ele>235.8</ele><time>2026-04-26T15:34:17.389Z</time></trkpt><trkpt lat="45.8665452" lon="11.6470684"><ele>233.0</ele><time>2026-04-26T15:34:18.388Z</time></trkpt><trkpt lat="45.8664529" lon="11.6472053"><ele>232.5</ele><time>2026-04-26T15:34:19.389Z</time></trkpt><trkpt lat="45.8663825" lon="11.6473506"><ele>232.0</ele><time>2026-04-26T15:34:20.389Z</time></trkpt><trkpt lat="45.866331" lon="11.6475131"><ele>231.5</ele><time>2026-04-26T15:34:21.389Z</time></trkpt><trkpt lat="45.8662879" lon="11.6476813"><ele>231.0</ele><time>2026-04-26T15:34:22.389Z</time></trkpt><trkpt lat="45.8662327" lon="11.647839"><ele>232.5</ele><time>2026-04-26T15:34:23.39Z</time></trkpt><trkpt lat="45.8661499" lon="11.6479699"><ele>234.0</ele><time>2026-04-26T15:34:24.39Z</time></trkpt><trkpt lat="45.8660482" lon="11.6481018"><ele>235.5</ele><time>2026-04-26T15:34:25.388Z</time></trkpt><trkpt lat="45.8659499" lon="11.6482697"><ele>237.0</ele><time>2026-04-26T15:34:26.389Z</time></trkpt><trkpt lat="45.8658625" lon="11.648468"><ele>233.0</ele><time>2026-04-26T15:34:27.388Z</time></trkpt><trkpt lat="45.8656866" lon="11.6488281"><ele>229.0</ele><time>2026-04-26T15:34:29.389Z</time></trkpt><trkpt lat="45.8655959" lon="11.6489783"><ele>225.0</ele><time>2026-04-26T15:34:30.388Z</time></trkpt><trkpt lat="45.8655077" lon="11.6491091"><ele>225.0</ele><time>2026-04-26T15:34:31.388Z</time></trkpt><trkpt lat="45.8654283" lon="11.6492217"><ele>225.0</ele><time>2026-04-26T15:34:32.39Z</time></trkpt><trkpt lat="45.8653457" lon="11.6492977"><ele>225.0</ele><time>2026-04-26T15:34:33.388Z</time></trkpt><trkpt lat="45.8652302" lon="11.6493402"><ele>225.0</ele><time>2026-04-26T15:34:34.388Z</time></trkpt><trkpt lat="45.8650827" lon="11.6493676"><ele>228.33333333333331</ele><time>2026-04-26T15:34:35.388Z</time></trkpt><trkpt lat="45.8649093" lon="11.649384"><ele>231.66666666666666</ele><time>2026-04-26T15:34:36.388Z</time></trkpt><trkpt lat="45.8647259" lon="11.6494191"><ele>235.0</ele><time>2026-04-26T15:34:37.388Z</time></trkpt><trkpt lat="45.8645597" lon="11.6494626"><ele>235.0</ele><time>2026-04-26T15:34:38.388Z</time></trkpt><trkpt lat="45.8644103" lon="11.6495138"><ele>235.0</ele><time>2026-04-26T15:34:39.387Z</time></trkpt><trkpt lat="45.864271" lon="11.6495972"><ele>235.0</ele><time>2026-04-26T15:34:40.388Z</time></trkpt><trkpt lat="45.8641888" lon="11.6496713"><ele>235.0</ele><time>2026-04-26T15:34:40.988Z</time></trkpt><trkpt lat="45.8639948" lon="11.6499174"><ele>236.66666666666666</ele><time>2026-04-26T15:34:42.389Z</time></trkpt><trkpt lat="45.8638658" lon="11.6501082"><ele>238.33333333333331</ele><time>2026-04-26T15:34:43.388Z</time></trkpt><trkpt lat="45.8637596" lon="11.6502697"><ele>240.0</ele><time>2026-04-26T15:34:44.388Z</time></trkpt><trkpt lat="45.8636654" lon="11.6503972"><ele>240.0</ele><time>2026-04-26T15:34:45.388Z</time></trkpt><trkpt lat="45.8635894" lon="11.6504889"><ele>240.0</ele><time>2026-04-26T15:34:46.39Z</time></trkpt><trkpt lat="45.8635191" lon="11.6506003"><ele>240.0</ele><time>2026-04-26T15:34:47.39Z</time></trkpt><trkpt lat="45.8634247" lon="11.6507244"><ele>240.0</ele><time>2026-04-26T15:34:48.389Z</time></trkpt><trkpt lat="45.8631514" lon="11.6509892"><ele>235.33333333333331</ele><time>2026-04-26T15:34:50.388Z</time></trkpt><trkpt lat="45.8629927" lon="11.6511555"><ele>230.66666666666666</ele><time>2026-04-26T15:34:51.389Z</time></trkpt><trkpt lat="45.8628335" lon="11.6513296"><ele>226.0</ele><time>2026-04-26T15:34:52.388Z</time></trkpt><trkpt lat="45.8626866" lon="11.6515063"><ele>222.33333333333331</ele><time>2026-04-26T15:34:53.388Z</time></trkpt><trkpt lat="45.862541" lon="11.6516755"><ele>218.66666666666669</ele><time>2026-04-26T15:34:54.39Z</time></trkpt><trkpt lat="45.8623948" lon="11.6518276"><ele>215.0</ele><time>2026-04-26T15:34:55.39Z</time></trkpt><trkpt lat="45.8622522" lon="11.6519499"><ele>213.66666666666669</ele><time>2026-04-26T15:34:56.39Z</time></trkpt><trkpt lat="45.8621169" lon="11.6520769"><ele>212.33333333333331</ele><time>2026-04-26T15:34:57.391Z</time></trkpt><trkpt lat="45.8619971" lon="11.6522314"><ele>211.0</ele><time>2026-04-26T15:34:58.39Z</time></trkpt><trkpt lat="45.8618965" lon="11.6524251"><ele>211.0</ele><time>2026-04-26T15:34:59.393Z</time></trkpt><trkpt lat="45.8618202" lon="11.6526545"><ele>211.0</ele><time>2026-04-26T15:35:00.391Z</time></trkpt><trkpt lat="45.8617602" lon="11.6528969"><ele>211.0</ele><time>2026-04-26T15:35:01.39Z</time></trkpt><trkpt lat="45.8617078" lon="11.6531345"><ele>205.33333333333331</ele><time>2026-04-26T15:35:02.389Z</time></trkpt><trkpt lat="45.861661" lon="11.6533658"><ele>199.66666666666669</ele><time>2026-04-26T15:35:03.39Z</time></trkpt><trkpt lat="45.8616234" lon="11.6535896"><ele>194.0</ele><time>2026-04-26T15:35:04.389Z</time></trkpt><trkpt lat="45.8615935" lon="11.6538055"><ele>194.0</ele><time>2026-04-26T15:35:05.389Z</time></trkpt><trkpt lat="45.861564" lon="11.6540044"><ele>194.0</ele><time>2026-04-26T15:35:06.391Z</time></trkpt><trkpt lat="45.8615392" lon="11.6541797"><ele>194.0</ele><time>2026-04-26T15:35:07.39Z</time></trkpt><trkpt lat="45.8615136" lon="11.654332"><ele>194.0</ele><time>2026-04-26T15:35:08.393Z</time></trkpt><trkpt lat="45.8614766" lon="11.6544654"><ele>194.0</ele><time>2026-04-26T15:35:09.389Z</time></trkpt><trkpt lat="45.8613428" lon="11.6546855"><ele>194.0</ele><time>2026-04-26T15:35:11.39Z</time></trkpt><trkpt lat="45.861276" lon="11.6547945"><ele>194.0</ele><time>2026-04-26T15:35:12.392Z</time></trkpt><trkpt lat="45.8612216" lon="11.6549309"><ele>194.0</ele><time>2026-04-26T15:35:13.392Z</time></trkpt><trkpt lat="45.8611858" lon="11.6550928"><ele>193.79999999999998</ele><time>2026-04-26T15:35:14.391Z</time></trkpt><trkpt lat="45.8611604" lon="11.6552627"><ele>193.6</ele><time>2026-04-26T15:35:15.393Z</time></trkpt><trkpt lat="45.8611338" lon="11.6554218"><ele>193.4</ele><time>2026-04-26T15:35:16.391Z</time></trkpt><trkpt lat="45.8610995" lon="11.6555703"><ele>193.2</ele><time>2026-04-26T15:35:17.39Z</time></trkpt><trkpt lat="45.8610409" lon="11.6556939"><ele>193.0</ele><time>2026-04-26T15:35:18.391Z</time></trkpt><trkpt lat="45.8609655" lon="11.6557908"><ele>190.75</ele><time>2026-04-26T15:35:19.39Z</time></trkpt><trkpt lat="45.8608744" lon="11.6558806"><ele>188.5</ele><time>2026-04-26T15:35:20.39Z</time></trkpt><trkpt lat="45.8607717" lon="11.6559744"><ele>186.25</ele><time>2026-04-26T15:35:21.391Z</time></trkpt><trkpt lat="45.860659" lon="11.656074"><ele>184.0</ele><time>2026-04-26T15:35:22.392Z</time></trkpt><trkpt lat="45.8605379" lon="11.6561825"><ele>181.0</ele><time>2026-04-26T15:35:23.391Z</time></trkpt><trkpt lat="45.8604127" lon="11.6562925"><ele>178.0</ele><time>2026-04-26T15:35:24.392Z</time></trkpt><trkpt lat="45.860283" lon="11.6563895"><ele>175.0</ele><time>2026-04-26T15:35:25.392Z</time></trkpt><trkpt lat="45.8601538" lon="11.6564662"><ele>172.0</ele><time>2026-04-26T15:35:26.389Z</time></trkpt><trkpt lat="45.8600248" lon="11.6565274"><ele>171.75</ele><time>2026-04-26T15:35:27.39Z</time></trkpt><trkpt lat="45.8598998" lon="11.6565891"><ele>171.5</ele><time>2026-04-26T15:35:28.39Z</time></trkpt><trkpt lat="45.8597802" lon="11.6566617"><ele>171.25</ele><time>2026-04-26T15:35:29.39Z</time></trkpt><trkpt lat="45.8596693" lon="11.656769"><ele>171.0</ele><time>2026-04-26T15:35:30.392Z</time></trkpt><trkpt lat="45.859491" lon="11.6570995"><ele>172.25</ele><time>2026-04-26T15:35:32.39Z</time></trkpt><trkpt lat="45.8594129" lon="11.6572795"><ele>173.5</ele><time>2026-04-26T15:35:33.393Z</time></trkpt><trkpt lat="45.8593362" lon="11.6574472"><ele>174.75</ele><time>2026-04-26T15:35:34.391Z</time></trkpt><trkpt lat="45.8592553" lon="11.6575906"><ele>176.0</ele><time>2026-04-26T15:35:35.391Z</time></trkpt><trkpt lat="45.8591625" lon="11.6576974"><ele>176.0</ele><time>2026-04-26T15:35:36.391Z</time></trkpt><trkpt lat="45.8590664" lon="11.6577767"><ele>176.0</ele><time>2026-04-26T15:35:37.391Z</time></trkpt><trkpt lat="45.8589688" lon="11.6578275"><ele>176.0</ele><time>2026-04-26T15:35:38.392Z</time></trkpt><trkpt lat="45.8588718" lon="11.657857"><ele>176.0</ele><time>2026-04-26T15:35:39.393Z</time></trkpt><trkpt lat="45.8587776" lon="11.6578741"><ele>176.0</ele><time>2026-04-26T15:35:40.392Z</time></trkpt><trkpt lat="45.8586875" lon="11.6578897"><ele>173.20000000000002</ele><time>2026-04-26T15:35:41.392Z</time></trkpt><trkpt lat="45.8586012" lon="11.6579124"><ele>170.4</ele><time>2026-04-26T15:35:42.392Z</time></trkpt><trkpt lat="45.8585191" lon="11.6579413"><ele>167.6</ele><time>2026-04-26T15:35:43.392Z</time></trkpt><trkpt lat="45.858435" lon="11.657971"><ele>164.8</ele><time>2026-04-26T15:35:44.392Z</time></trkpt><trkpt lat="45.8583408" lon="11.6579916"><ele>162.0</ele><time>2026-04-26T15:35:45.393Z</time></trkpt><trkpt lat="45.8582368" lon="11.6580165"><ele>162.0</ele><time>2026-04-26T15:35:46.392Z</time></trkpt><trkpt lat="45.8581208" lon="11.658049"><ele>162.0</ele><time>2026-04-26T15:35:47.392Z</time></trkpt><trkpt lat="45.8579922" lon="11.6580928"><ele>162.0</ele><time>2026-04-26T15:35:48.393Z</time></trkpt><trkpt lat="45.8578593" lon="11.6581476"><ele>162.0</ele><time>2026-04-26T15:35:49.394Z</time></trkpt><trkpt lat="45.8577346" lon="11.6582147"><ele>162.0</ele><time>2026-04-26T15:35:50.39Z</time></trkpt><trkpt lat="45.857619" lon="11.6582851"><ele>162.0</ele><time>2026-04-26T15:35:51.389Z</time></trkpt><trkpt lat="45.8574065" lon="11.6584059"><ele>162.0</ele><time>2026-04-26T15:35:53.391Z</time></trkpt><trkpt lat="45.8573034" lon="11.6584566"><ele>159.5</ele><time>2026-04-26T15:35:54.39Z</time></trkpt><trkpt lat="45.8572192" lon="11.6584973"><ele>157.0</ele><time>2026-04-26T15:35:55.194Z</time></trkpt><trkpt lat="45.8570852" lon="11.6585673"><ele>154.5</ele><time>2026-04-26T15:35:56.391Z</time></trkpt><trkpt lat="45.8569717" lon="11.6586469"><ele>152.0</ele><time>2026-04-26T15:35:57.392Z</time></trkpt><trkpt lat="45.8568645" lon="11.6587663"><ele>157.5</ele><time>2026-04-26T15:35:58.391Z</time></trkpt><trkpt lat="45.8567582" lon="11.6589166"><ele>163.0</ele><time>2026-04-26T15:35:59.392Z</time></trkpt><trkpt lat="45.8566599" lon="11.659074"><ele>168.5</ele><time>2026-04-26T15:36:00.39Z</time></trkpt><trkpt lat="45.8565742" lon="11.6592324"><ele>174.0</ele><time>2026-04-26T15:36:01.392Z</time></trkpt><trkpt lat="45.8565093" lon="11.659401"><ele>169.25</ele><time>2026-04-26T15:36:02.39Z</time></trkpt><trkpt lat="45.8564613" lon="11.6595853"><ele>164.5</ele><time>2026-04-26T15:36:03.39Z</time></trkpt><trkpt lat="45.8564264" lon="11.659771"><ele>159.75</ele><time>2026-04-26T15:36:04.389Z</time></trkpt><trkpt lat="45.8563881" lon="11.6599484"><ele>155.0</ele><time>2026-04-26T15:36:05.391Z</time></trkpt><trkpt lat="45.8563419" lon="11.6601114"><ele>155.0</ele><time>2026-04-26T15:36:06.389Z</time></trkpt><trkpt lat="45.8562837" lon="11.6602584"><ele>155.0</ele><time>2026-04-26T15:36:07.39Z</time></trkpt><trkpt lat="45.8562159" lon="11.6604044"><ele>155.0</ele><time>2026-04-26T15:36:08.39Z</time></trkpt><trkpt lat="45.8561372" lon="11.6605468"><ele>155.0</ele><time>2026-04-26T15:36:09.39Z</time></trkpt><trkpt lat="45.8560616" lon="11.6606821"><ele>154.25</ele><time>2026-04-26T15:36:10.388Z</time></trkpt><trkpt lat="45.8559904" lon="11.6608119"><ele>153.5</ele><time>2026-04-26T15:36:11.388Z</time></trkpt><trkpt lat="45.8559216" lon="11.6609281"><ele>152.75</ele><time>2026-04-26T15:36:12.389Z</time></trkpt><trkpt lat="45.8557827" lon="11.6610772"><ele>152.0</ele><time>2026-04-26T15:36:14.389Z</time></trkpt><trkpt lat="45.8556833" lon="11.6611221"><ele>152.0</ele><time>2026-04-26T15:36:15.388Z</time></trkpt><trkpt lat="45.8555604" lon="11.6611708"><ele>152.0</ele><time>2026-04-26T15:36:16.389Z</time></trkpt><trkpt lat="45.8554195" lon="11.6612251"><ele>152.0</ele><time>2026-04-26T15:36:17.389Z</time></trkpt><trkpt lat="45.8553336" lon="11.6612615"><ele>152.0</ele><time>2026-04-26T15:36:17.991Z</time></trkpt><trkpt lat="45.8551483" lon="11.6613653"><ele>154.25</ele><time>2026-04-26T15:36:19.39Z</time></trkpt><trkpt lat="45.8550321" lon="11.6614534"><ele>156.5</ele><time>2026-04-26T15:36:20.391Z</time></trkpt><trkpt lat="45.8549252" lon="11.6615482"><ele>158.75</ele><time>2026-04-26T15:36:21.389Z</time></trkpt><trkpt lat="45.854823" lon="11.6616432"><ele>161.0</ele><time>2026-04-26T15:36:22.389Z</time></trkpt><trkpt lat="45.8547316" lon="11.6617352"><ele>161.0</ele><time>2026-04-26T15:36:23.389Z</time></trkpt><trkpt lat="45.8546602" lon="11.6618277"><ele>161.0</ele><time>2026-04-26T15:36:24.388Z</time></trkpt><trkpt lat="45.8546276" lon="11.661937"><ele>161.0</ele><time>2026-04-26T15:36:25.39Z</time></trkpt><trkpt lat="45.8546286" lon="11.6620502"><ele>161.0</ele><time>2026-04-26T15:36:26.39Z</time></trkpt><trkpt lat="45.8546615" lon="11.6621642"><ele>161.0</ele><time>2026-04-26T15:36:27.389Z</time></trkpt><trkpt lat="45.8547245" lon="11.6622539"><ele>161.0</ele><time>2026-04-26T15:36:28.389Z</time></trkpt><trkpt lat="45.8548136" lon="11.6623051"><ele>158.60000000000002</ele><time>2026-04-26T15:36:29.39Z</time></trkpt><trkpt lat="45.854912" lon="11.6623191"><ele>156.20000000000002</ele><time>2026-04-26T15:36:30.39Z</time></trkpt><trkpt lat="45.8549969" lon="11.6623147"><ele>153.8</ele><time>2026-04-26T15:36:31.39Z</time></trkpt><trkpt lat="45.8550669" lon="11.6623131"><ele>151.4</ele><time>2026-04-26T15:36:32.391Z</time></trkpt><trkpt lat="45.8551673" lon="11.6623081"><ele>149.0</ele><time>2026-04-26T15:36:34.389Z</time></trkpt><trkpt lat="45.8553168" lon="11.6623107"><ele>149.0</ele><time>2026-04-26T15:36:43.389Z</time></trkpt><trkpt lat="45.8553227" lon="11.6624271"><ele>149.0</ele><time>2026-04-26T15:36:47.389Z</time></trkpt><trkpt lat="45.85526" lon="11.662474"><ele>149.0</ele><time>2026-04-26T15:36:48.389Z</time></trkpt><trkpt lat="45.8551669" lon="11.662543"><ele>149.0</ele><time>2026-04-26T15:36:49.391Z</time></trkpt><trkpt lat="45.855062" lon="11.6626307"><ele>149.0</ele><time>2026-04-26T15:36:50.389Z</time></trkpt><trkpt lat="45.8549482" lon="11.6627225"><ele>148.5</ele><time>2026-04-26T15:36:51.392Z</time></trkpt><trkpt lat="45.8548224" lon="11.6628173"><ele>148.0</ele><time>2026-04-26T15:36:52.391Z</time></trkpt><trkpt lat="45.8546967" lon="11.6629077"><ele>147.5</ele><time>2026-04-26T15:36:53.39Z</time></trkpt><trkpt lat="45.8545823" lon="11.6629893"><ele>147.0</ele><time>2026-04-26T15:36:54.391Z</time></trkpt><trkpt lat="45.8544781" lon="11.6630655"><ele>147.0</ele><time>2026-04-26T15:36:55.389Z</time></trkpt><trkpt lat="45.8542994" lon="11.6632059"><ele>147.0</ele><time>2026-04-26T15:36:57.39Z</time></trkpt><trkpt lat="45.8542169" lon="11.6632669"><ele>147.0</ele><time>2026-04-26T15:36:58.389Z</time></trkpt><trkpt lat="45.8541307" lon="11.6633348"><ele>147.0</ele><time>2026-04-26T15:36:59.391Z</time></trkpt><trkpt lat="45.8540427" lon="11.6634114"><ele>146.6</ele><time>2026-04-26T15:37:00.389Z</time></trkpt><trkpt lat="45.8539496" lon="11.6634809"><ele>146.2</ele><time>2026-04-26T15:37:01.391Z</time></trkpt><trkpt lat="45.8538566" lon="11.663553"><ele>145.8</ele><time>2026-04-26T15:37:02.39Z</time></trkpt><trkpt lat="45.8537651" lon="11.663631"><ele>145.4</ele><time>2026-04-26T15:37:03.391Z</time></trkpt><trkpt lat="45.8536743" lon="11.6637136"><ele>145.0</ele><time>2026-04-26T15:37:04.388Z</time></trkpt><trkpt lat="45.8535799" lon="11.6637951"><ele>145.0</ele><time>2026-04-26T15:37:05.389Z</time></trkpt><trkpt lat="45.8534828" lon="11.6638729"><ele>145.0</ele><time>2026-04-26T15:37:06.39Z</time></trkpt><trkpt lat="45.8533916" lon="11.6639512"><ele>145.0</ele><time>2026-04-26T15:37:07.389Z</time></trkpt><trkpt lat="45.8533034" lon="11.6640438"><ele>145.0</ele><time>2026-04-26T15:37:08.392Z</time></trkpt><trkpt lat="45.8532233" lon="11.6641685"><ele>145.0</ele><time>2026-04-26T15:37:09.391Z</time></trkpt><trkpt lat="45.8531463" lon="11.6643067"><ele>145.6</ele><time>2026-04-26T15:37:10.391Z</time></trkpt><trkpt lat="45.8530698" lon="11.6644395"><ele>146.2</ele><time>2026-04-26T15:37:11.391Z</time></trkpt><trkpt lat="45.8529893" lon="11.6645561"><ele>146.8</ele><time>2026-04-26T15:37:12.391Z</time></trkpt><trkpt lat="45.8529066" lon="11.66465"><ele>147.4</ele><time>2026-04-26T15:37:13.391Z</time></trkpt><trkpt lat="45.8528265" lon="11.6647231"><ele>148.0</ele><time>2026-04-26T15:37:14.391Z</time></trkpt><trkpt lat="45.8527455" lon="11.6647892"><ele>148.0</ele><time>2026-04-26T15:37:15.393Z</time></trkpt><trkpt lat="45.8526681" lon="11.6648479"><ele>148.0</ele><time>2026-04-26T15:37:16.391Z</time></trkpt><trkpt lat="45.8525253" lon="11.6649485"><ele>148.0</ele><time>2026-04-26T15:37:18.393Z</time></trkpt><trkpt lat="45.8524433" lon="11.66499"><ele>148.0</ele><time>2026-04-26T15:37:19.392Z</time></trkpt><trkpt lat="45.8523593" lon="11.6650325"><ele>148.0</ele><time>2026-04-26T15:37:20.39Z</time></trkpt><trkpt lat="45.8522706" lon="11.6650905"><ele>148.20000000000002</ele><time>2026-04-26T15:37:21.389Z</time></trkpt><trkpt lat="45.8521781" lon="11.6651486"><ele>148.4</ele><time>2026-04-26T15:37:22.39Z</time></trkpt><trkpt lat="45.8520814" lon="11.6652124"><ele>148.60000000000002</ele><time>2026-04-26T15:37:23.391Z</time></trkpt><trkpt lat="45.8519792" lon="11.6652776"><ele>148.8</ele><time>2026-04-26T15:37:24.393Z</time></trkpt><trkpt lat="45.851873" lon="11.6653384"><ele>149.0</ele><time>2026-04-26T15:37:25.392Z</time></trkpt><trkpt lat="45.8517632" lon="11.6654018"><ele>149.0</ele><time>2026-04-26T15:37:26.392Z</time></trkpt><trkpt lat="45.8516468" lon="11.6654789"><ele>149.0</ele><time>2026-04-26T15:37:27.393Z</time></trkpt><trkpt lat="45.8515228" lon="11.6655667"><ele>149.0</ele><time>2026-04-26T15:37:28.39Z</time></trkpt><trkpt lat="45.8513972" lon="11.665653"><ele>149.0</ele><time>2026-04-26T15:37:29.39Z</time></trkpt><trkpt lat="45.8512767" lon="11.6657393"><ele>149.0</ele><time>2026-04-26T15:37:30.39Z</time></trkpt><trkpt lat="45.8511536" lon="11.6658283"><ele>149.0</ele><time>2026-04-26T15:37:31.39Z</time></trkpt><trkpt lat="45.8510322" lon="11.6659224"><ele>149.0</ele><time>2026-04-26T15:37:32.391Z</time></trkpt><trkpt lat="45.8509165" lon="11.6660145"><ele>149.0</ele><time>2026-04-26T15:37:33.391Z</time></trkpt><trkpt lat="45.8508085" lon="11.666101"><ele>148.5</ele><time>2026-04-26T15:37:34.392Z</time></trkpt><trkpt lat="45.8507077" lon="11.6661826"><ele>148.0</ele><time>2026-04-26T15:37:35.392Z</time></trkpt><trkpt lat="45.8506112" lon="11.6662624"><ele>147.5</ele><time>2026-04-26T15:37:36.391Z</time></trkpt><trkpt lat="45.8505112" lon="11.6663443"><ele>147.0</ele><time>2026-04-26T15:37:37.393Z</time></trkpt><trkpt lat="45.8503259" lon="11.6664971"><ele>147.0</ele><time>2026-04-26T15:37:39.392Z</time></trkpt><trkpt lat="45.8502321" lon="11.6665779"><ele>147.0</ele><time>2026-04-26T15:37:40.393Z</time></trkpt><trkpt lat="45.8501303" lon="11.6666634"><ele>147.0</ele><time>2026-04-26T15:37:41.392Z</time></trkpt><trkpt lat="45.8500214" lon="11.6667531"><ele>147.0</ele><time>2026-04-26T15:37:42.392Z</time></trkpt><trkpt lat="45.8499194" lon="11.6668341"><ele>147.25</ele><time>2026-04-26T15:37:43.393Z</time></trkpt><trkpt lat="45.8498236" lon="11.6669048"><ele>147.5</ele><time>2026-04-26T15:37:44.392Z</time></trkpt><trkpt lat="45.8497288" lon="11.6669669"><ele>147.75</ele><time>2026-04-26T15:37:45.394Z</time></trkpt><trkpt lat="45.8496332" lon="11.6670201"><ele>148.0</ele><time>2026-04-26T15:37:46.392Z</time></trkpt><trkpt lat="45.8494388" lon="11.6670675"><ele>148.0</ele><time>2026-04-26T15:37:48.393Z</time></trkpt><trkpt lat="45.8493367" lon="11.6670698"><ele>148.0</ele><time>2026-04-26T15:37:49.394Z</time></trkpt><trkpt lat="45.8492389" lon="11.6670597"><ele>148.0</ele><time>2026-04-26T15:37:50.393Z</time></trkpt><trkpt lat="45.8491648" lon="11.6670429"><ele>148.0</ele><time>2026-04-26T15:37:51.195Z</time></trkpt><trkpt lat="45.8490601" lon="11.6670336"><ele>148.0</ele><time>2026-04-26T15:37:52.392Z</time></trkpt><trkpt lat="45.8489774" lon="11.6670277"><ele>149.0</ele><time>2026-04-26T15:37:53.39Z</time></trkpt><trkpt lat="45.8488959" lon="11.6670153"><ele>150.0</ele><time>2026-04-26T15:37:54.391Z</time></trkpt><trkpt lat="45.8488094" lon="11.6670009"><ele>151.0</ele><time>2026-04-26T15:37:55.391Z</time></trkpt><trkpt lat="45.8487183" lon="11.6669917"><ele>152.0</ele><time>2026-04-26T15:37:56.391Z</time></trkpt><trkpt lat="45.8486269" lon="11.6669821"><ele>153.0</ele><time>2026-04-26T15:37:57.392Z</time></trkpt><trkpt lat="45.8485257" lon="11.666996"><ele>152.33333333333334</ele><time>2026-04-26T15:37:58.392Z</time></trkpt><trkpt lat="45.8483201" lon="11.6670873"><ele>151.66666666666669</ele><time>2026-04-26T15:38:00.391Z</time></trkpt><trkpt lat="45.848186" lon="11.6671712"><ele>151.0</ele><time>2026-04-26T15:38:01.391Z</time></trkpt><trkpt lat="45.8480313" lon="11.6672593"><ele>151.0</ele><time>2026-04-26T15:38:02.391Z</time></trkpt><trkpt lat="45.8478855" lon="11.6673491"><ele>151.0</ele><time>2026-04-26T15:38:03.392Z</time></trkpt><trkpt lat="45.8477505" lon="11.6674342"><ele>151.0</ele><time>2026-04-26T15:38:04.391Z</time></trkpt><trkpt lat="45.8476231" lon="11.6675173"><ele>151.0</ele><time>2026-04-26T15:38:05.391Z</time></trkpt><trkpt lat="45.847499" lon="11.6675954"><ele>152.0</ele><time>2026-04-26T15:38:06.393Z</time></trkpt><trkpt lat="45.8473697" lon="11.6676694"><ele>153.0</ele><time>2026-04-26T15:38:07.393Z</time></trkpt><trkpt lat="45.8472456" lon="11.6677353"><ele>154.0</ele><time>2026-04-26T15:38:08.393Z</time></trkpt><trkpt lat="45.8471296" lon="11.6677807"><ele>155.0</ele><time>2026-04-26T15:38:09.392Z</time></trkpt><trkpt lat="45.8470271" lon="11.6677979"><ele>155.0</ele><time>2026-04-26T15:38:10.393Z</time></trkpt><trkpt lat="45.8469223" lon="11.667768"><ele>155.0</ele><time>2026-04-26T15:38:11.392Z</time></trkpt><trkpt lat="45.8468064" lon="11.6677154"><ele>155.0</ele><time>2026-04-26T15:38:12.393Z</time></trkpt><trkpt lat="45.8466916" lon="11.6676781"><ele>155.0</ele><time>2026-04-26T15:38:13.393Z</time></trkpt><trkpt lat="45.8465799" lon="11.6676742"><ele>155.5</ele><time>2026-04-26T15:38:14.392Z</time></trkpt><trkpt lat="45.8464847" lon="11.667701"><ele>156.0</ele><time>2026-04-26T15:38:15.393Z</time></trkpt><trkpt lat="45.8464203" lon="11.6677607"><ele>156.5</ele><time>2026-04-26T15:38:16.393Z</time></trkpt><trkpt lat="45.8463838" lon="11.6678531"><ele>157.0</ele><time>2026-04-26T15:38:17.39Z</time></trkpt><trkpt lat="45.8463758" lon="11.6679693"><ele>157.5</ele><time>2026-04-26T15:38:18.391Z</time></trkpt><trkpt lat="45.846385" lon="11.6681124"><ele>158.0</ele><time>2026-04-26T15:38:19.392Z</time></trkpt><trkpt lat="45.8464121" lon="11.6684661"><ele>155.0</ele><time>2026-04-26T15:38:21.395Z</time></trkpt><trkpt lat="45.8464282" lon="11.668658"><ele>152.0</ele><time>2026-04-26T15:38:22.393Z</time></trkpt><trkpt lat="45.8464414" lon="11.6688395"><ele>149.0</ele><time>2026-04-26T15:38:23.393Z</time></trkpt><trkpt lat="45.8464545" lon="11.6690056"><ele>146.0</ele><time>2026-04-26T15:38:24.392Z</time></trkpt><trkpt lat="45.8464674" lon="11.6691561"><ele>146.0</ele><time>2026-04-26T15:38:25.393Z</time></trkpt><trkpt lat="45.8464817" lon="11.6692838"><ele>146.0</ele><time>2026-04-26T15:38:26.391Z</time></trkpt><trkpt lat="45.8464722" lon="11.6693968"><ele>146.0</ele><time>2026-04-26T15:38:27.393Z</time></trkpt><trkpt lat="45.8464328" lon="11.6694782"><ele>146.0</ele><time>2026-04-26T15:38:28.396Z</time></trkpt><trkpt lat="45.8463701" lon="11.669529"><ele>146.0</ele><time>2026-04-26T15:38:29.393Z</time></trkpt><trkpt lat="45.8462962" lon="11.6695772"><ele>146.0</ele><time>2026-04-26T15:38:30.394Z</time></trkpt><trkpt lat="45.846219" lon="11.6696091"><ele>145.6</ele><time>2026-04-26T15:38:31.391Z</time></trkpt><trkpt lat="45.8461345" lon="11.6696468"><ele>145.2</ele><time>2026-04-26T15:38:32.391Z</time></trkpt><trkpt lat="45.8460417" lon="11.6696829"><ele>144.8</ele><time>2026-04-26T15:38:33.392Z</time></trkpt><trkpt lat="45.8459428" lon="11.6697263"><ele>144.4</ele><time>2026-04-26T15:38:34.391Z</time></trkpt><trkpt lat="45.8458484" lon="11.6697913"><ele>144.0</ele><time>2026-04-26T15:38:35.393Z</time></trkpt><trkpt lat="45.8457624" lon="11.6698756"><ele>144.6</ele><time>2026-04-26T15:38:36.392Z</time></trkpt><trkpt lat="45.8456828" lon="11.6699573"><ele>145.2</ele><time>2026-04-26T15:38:37.391Z</time></trkpt><trkpt lat="45.8456133" lon="11.6700393"><ele>145.79999999999998</ele><time>2026-04-26T15:38:38.393Z</time></trkpt><trkpt lat="45.8455474" lon="11.6701124"><ele>146.4</ele><time>2026-04-26T15:38:39.392Z</time></trkpt><trkpt lat="45.8454866" lon="11.6701783"><ele>147.0</ele><time>2026-04-26T15:38:40.394Z</time></trkpt><trkpt lat="45.8453821" lon="11.6703156"><ele>147.0</ele><time>2026-04-26T15:38:42.389Z</time></trkpt><trkpt lat="45.8453241" lon="11.670384"><ele>147.0</ele><time>2026-04-26T15:38:43.39Z</time></trkpt><trkpt lat="45.8452599" lon="11.6704602"><ele>147.0</ele><time>2026-04-26T15:38:44.389Z</time></trkpt><trkpt lat="45.8451864" lon="11.6705399"><ele>147.0</ele><time>2026-04-26T15:38:45.39Z</time></trkpt><trkpt lat="45.8451069" lon="11.6706278"><ele>147.0</ele><time>2026-04-26T15:38:46.392Z</time></trkpt><trkpt lat="45.8450257" lon="11.670731"><ele>147.0</ele><time>2026-04-26T15:38:47.393Z</time></trkpt><trkpt lat="45.8449423" lon="11.6708351"><ele>147.0</ele><time>2026-04-26T15:38:48.392Z</time></trkpt><trkpt lat="45.8448587" lon="11.6709337"><ele>147.0</ele><time>2026-04-26T15:38:49.394Z</time></trkpt><trkpt lat="45.844777" lon="11.6710338"><ele>147.0</ele><time>2026-04-26T15:38:50.391Z</time></trkpt><trkpt lat="45.8446964" lon="11.6711398"><ele>147.0</ele><time>2026-04-26T15:38:51.392Z</time></trkpt><trkpt lat="45.8446147" lon="11.6712479"><ele>147.0</ele><time>2026-04-26T15:38:52.391Z</time></trkpt><trkpt lat="45.8445268" lon="11.6713541"><ele>147.0</ele><time>2026-04-26T15:38:53.391Z</time></trkpt><trkpt lat="45.8444349" lon="11.6714564"><ele>147.0</ele><time>2026-04-26T15:38:54.392Z</time></trkpt><trkpt lat="45.8443439" lon="11.6715648"><ele>147.0</ele><time>2026-04-26T15:38:55.393Z</time></trkpt><trkpt lat="45.8442556" lon="11.671665"><ele>147.0</ele><time>2026-04-26T15:38:56.392Z</time></trkpt><trkpt lat="45.8441718" lon="11.6717558"><ele>147.0</ele><time>2026-04-26T15:38:57.392Z</time></trkpt><trkpt lat="45.844093" lon="11.6718429"><ele>147.0</ele><time>2026-04-26T15:38:58.392Z</time></trkpt><trkpt lat="45.8440191" lon="11.6719315"><ele>147.0</ele><time>2026-04-26T15:38:59.392Z</time></trkpt><trkpt lat="45.8439423" lon="11.6720215"><ele>147.0</ele><time>2026-04-26T15:39:00.392Z</time></trkpt><trkpt lat="45.8438617" lon="11.6721086"><ele>147.0</ele><time>2026-04-26T15:39:01.392Z</time></trkpt><trkpt lat="45.8437028" lon="11.6722939"><ele>147.0</ele><time>2026-04-26T15:39:03.391Z</time></trkpt><trkpt lat="45.84363" lon="11.6723927"><ele>147.0</ele><time>2026-04-26T15:39:04.393Z</time></trkpt><trkpt lat="45.8435541" lon="11.6725006"><ele>147.0</ele><time>2026-04-26T15:39:05.392Z</time></trkpt><trkpt lat="45.8434858" lon="11.6726268"><ele>146.6</ele><time>2026-04-26T15:39:06.39Z</time></trkpt><trkpt lat="45.8434234" lon="11.6727623"><ele>146.2</ele><time>2026-04-26T15:39:07.391Z</time></trkpt><trkpt lat="45.843368" lon="11.672901"><ele>145.8</ele><time>2026-04-26T15:39:08.39Z</time></trkpt><trkpt lat="45.8433165" lon="11.6730384"><ele>145.4</ele><time>2026-04-26T15:39:09.391Z</time></trkpt><trkpt lat="45.8432659" lon="11.6731744"><ele>145.0</ele><time>2026-04-26T15:39:10.391Z</time></trkpt><trkpt lat="45.8432135" lon="11.6733149"><ele>145.0</ele><time>2026-04-26T15:39:11.392Z</time></trkpt><trkpt lat="45.8431546" lon="11.6734587"><ele>145.0</ele><time>2026-04-26T15:39:12.392Z</time></trkpt><trkpt lat="45.8430939" lon="11.6735985"><ele>145.0</ele><time>2026-04-26T15:39:13.395Z</time></trkpt><trkpt lat="45.8430383" lon="11.6737403"><ele>145.0</ele><time>2026-04-26T15:39:14.391Z</time></trkpt><trkpt lat="45.8429878" lon="11.6738986"><ele>144.5</ele><time>2026-04-26T15:39:15.392Z</time></trkpt><trkpt lat="45.8429417" lon="11.6740674"><ele>144.0</ele><time>2026-04-26T15:39:16.392Z</time></trkpt><trkpt lat="45.8429026" lon="11.674233"><ele>143.5</ele><time>2026-04-26T15:39:17.392Z</time></trkpt><trkpt lat="45.8428651" lon="11.6743902"><ele>143.0</ele><time>2026-04-26T15:39:18.391Z</time></trkpt><trkpt lat="45.8428287" lon="11.6745391"><ele>142.75</ele><time>2026-04-26T15:39:19.394Z</time></trkpt><trkpt lat="45.8427969" lon="11.674687"><ele>142.5</ele><time>2026-04-26T15:39:20.392Z</time></trkpt><trkpt lat="45.8427613" lon="11.674846"><ele>142.25</ele><time>2026-04-26T15:39:21.392Z</time></trkpt><trkpt lat="45.8427072" lon="11.6750038"><ele>142.0</ele><time>2026-04-26T15:39:22.391Z</time></trkpt><trkpt lat="45.8425624" lon="11.6753292"><ele>142.0</ele><time>2026-04-26T15:39:24.392Z</time></trkpt><trkpt lat="45.8424901" lon="11.6755068"><ele>142.0</ele><time>2026-04-26T15:39:25.392Z</time></trkpt><trkpt lat="45.842421" lon="11.6756709"><ele>142.0</ele><time>2026-04-26T15:39:26.391Z</time></trkpt><trkpt lat="45.8423518" lon="11.6758216"><ele>142.0</ele><time>2026-04-26T15:39:27.393Z</time></trkpt><trkpt lat="45.8422875" lon="11.6759624"><ele>142.0</ele><time>2026-04-26T15:39:28.39Z</time></trkpt><trkpt lat="45.8422313" lon="11.6760993"><ele>142.0</ele><time>2026-04-26T15:39:29.391Z</time></trkpt><trkpt lat="45.8421892" lon="11.6762364"><ele>142.0</ele><time>2026-04-26T15:39:30.391Z</time></trkpt><trkpt lat="45.8421577" lon="11.6763823"><ele>142.0</ele><time>2026-04-26T15:39:31.389Z</time></trkpt><trkpt lat="45.8421296" lon="11.6765352"><ele>142.0</ele><time>2026-04-26T15:39:32.389Z</time></trkpt><trkpt lat="45.8421037" lon="11.6766973"><ele>141.75</ele><time>2026-04-26T15:39:33.389Z</time></trkpt><trkpt lat="45.8420797" lon="11.6768677"><ele>141.5</ele><time>2026-04-26T15:39:34.389Z</time></trkpt><trkpt lat="45.8420583" lon="11.677037"><ele>141.25</ele><time>2026-04-26T15:39:35.391Z</time></trkpt><trkpt lat="45.8420389" lon="11.6771953"><ele>141.0</ele><time>2026-04-26T15:39:36.391Z</time></trkpt><trkpt lat="45.8420217" lon="11.6773399"><ele>141.0</ele><time>2026-04-26T15:39:37.39Z</time></trkpt><trkpt lat="45.8420112" lon="11.6774782"><ele>141.0</ele><time>2026-04-26T15:39:38.39Z</time></trkpt><trkpt lat="45.8420011" lon="11.6776146"><ele>141.0</ele><time>2026-04-26T15:39:39.391Z</time></trkpt><trkpt lat="45.8419656" lon="11.6777511"><ele>141.0</ele><time>2026-04-26T15:39:40.394Z</time></trkpt><trkpt lat="45.8419147" lon="11.6778931"><ele>141.0</ele><time>2026-04-26T15:39:41.393Z</time></trkpt><trkpt lat="45.8418643" lon="11.6780511"><ele>141.33333333333334</ele><time>2026-04-26T15:39:42.393Z</time></trkpt><trkpt lat="45.8418177" lon="11.6782229"><ele>141.66666666666669</ele><time>2026-04-26T15:39:43.391Z</time></trkpt><trkpt lat="45.8417284" lon="11.6784935"><ele>142.0</ele><time>2026-04-26T15:39:44.992Z</time></trkpt><trkpt lat="45.841656" lon="11.6787325"><ele>142.0</ele><time>2026-04-26T15:39:46.392Z</time></trkpt><trkpt lat="45.8416089" lon="11.6788974"><ele>142.0</ele><time>2026-04-26T15:39:47.391Z</time></trkpt><trkpt lat="45.8415578" lon="11.6790462"><ele>142.0</ele><time>2026-04-26T15:39:48.392Z</time></trkpt><trkpt lat="45.8415051" lon="11.6791923"><ele>142.0</ele><time>2026-04-26T15:39:49.391Z</time></trkpt><trkpt lat="45.8414527" lon="11.67935"><ele>141.0</ele><time>2026-04-26T15:39:50.393Z</time></trkpt><trkpt lat="45.8413994" lon="11.6795135"><ele>140.0</ele><time>2026-04-26T15:39:51.394Z</time></trkpt><trkpt lat="45.8413461" lon="11.6796751"><ele>139.0</ele><time>2026-04-26T15:39:52.392Z</time></trkpt><trkpt lat="45.8412969" lon="11.6798282"><ele>138.0</ele><time>2026-04-26T15:39:53.393Z</time></trkpt><trkpt lat="45.8412531" lon="11.6799799"><ele>138.0</ele><time>2026-04-26T15:39:54.393Z</time></trkpt><trkpt lat="45.8412143" lon="11.6801399"><ele>138.0</ele><time>2026-04-26T15:39:55.391Z</time></trkpt><trkpt lat="45.8411754" lon="11.6803136"><ele>138.0</ele><time>2026-04-26T15:39:56.39Z</time></trkpt><trkpt lat="45.8411319" lon="11.680501"><ele>138.0</ele><time>2026-04-26T15:39:57.391Z</time></trkpt><trkpt lat="45.8410863" lon="11.6806964"><ele>137.25</ele><time>2026-04-26T15:39:58.391Z</time></trkpt><trkpt lat="45.8410419" lon="11.6808857"><ele>136.5</ele><time>2026-04-26T15:39:59.39Z</time></trkpt><trkpt lat="45.8409999" lon="11.6810658"><ele>135.75</ele><time>2026-04-26T15:40:00.394Z</time></trkpt><trkpt lat="45.8409612" lon="11.6812375"><ele>135.0</ele><time>2026-04-26T15:40:01.392Z</time></trkpt><trkpt lat="45.8409234" lon="11.6814009"><ele>135.66666666666666</ele><time>2026-04-26T15:40:02.393Z</time></trkpt><trkpt lat="45.8408887" lon="11.6815574"><ele>136.33333333333331</ele><time>2026-04-26T15:40:03.394Z</time></trkpt><trkpt lat="45.8408533" lon="11.6817111"><ele>137.0</ele><time>2026-04-26T15:40:04.393Z</time></trkpt><trkpt lat="45.8407736" lon="11.6820192"><ele>137.0</ele><time>2026-04-26T15:40:06.391Z</time></trkpt><trkpt lat="45.8407443" lon="11.6821039"><ele>137.0</ele><time>2026-04-26T15:40:06.993Z</time></trkpt><trkpt lat="45.840662" lon="11.6822836"><ele>137.0</ele><time>2026-04-26T15:40:08.394Z</time></trkpt><trkpt lat="45.8405952" lon="11.6824008"><ele>137.0</ele><time>2026-04-26T15:40:09.393Z</time></trkpt><trkpt lat="45.8405233" lon="11.6825107"><ele>137.0</ele><time>2026-04-26T15:40:10.393Z</time></trkpt><trkpt lat="45.8404479" lon="11.6826223"><ele>137.0</ele><time>2026-04-26T15:40:11.393Z</time></trkpt><trkpt lat="45.8403689" lon="11.6827388"><ele>137.0</ele><time>2026-04-26T15:40:12.394Z</time></trkpt><trkpt lat="45.8402868" lon="11.682858"><ele>137.0</ele><time>2026-04-26T15:40:13.393Z</time></trkpt><trkpt lat="45.8402084" lon="11.6829755"><ele>137.0</ele><time>2026-04-26T15:40:14.394Z</time></trkpt><trkpt lat="45.8401351" lon="11.6830859"><ele>137.6</ele><time>2026-04-26T15:40:15.393Z</time></trkpt><trkpt lat="45.8400674" lon="11.6831856"><ele>138.2</ele><time>2026-04-26T15:40:16.393Z</time></trkpt><trkpt lat="45.8400037" lon="11.6832787"><ele>138.8</ele><time>2026-04-26T15:40:17.394Z</time></trkpt><trkpt lat="45.8399429" lon="11.6833702"><ele>139.4</ele><time>2026-04-26T15:40:18.393Z</time></trkpt><trkpt lat="45.8398783" lon="11.6834638"><ele>140.0</ele><time>2026-04-26T15:40:19.394Z</time></trkpt><trkpt lat="45.8398107" lon="11.6835633"><ele>139.6</ele><time>2026-04-26T15:40:20.392Z</time></trkpt><trkpt lat="45.8397406" lon="11.6836714"><ele>139.2</ele><time>2026-04-26T15:40:21.39Z</time></trkpt><trkpt lat="45.83967" lon="11.6837805"><ele>138.8</ele><time>2026-04-26T15:40:22.392Z</time></trkpt><trkpt lat="45.8395984" lon="11.6838872"><ele>138.4</ele><time>2026-04-26T15:40:23.39Z</time></trkpt><trkpt lat="45.8395266" lon="11.6839942"><ele>138.0</ele><time>2026-04-26T15:40:24.394Z</time></trkpt><trkpt lat="45.8394566" lon="11.6841019"><ele>138.0</ele><time>2026-04-26T15:40:25.394Z</time></trkpt><trkpt lat="45.8393188" lon="11.6843088"><ele>138.0</ele><time>2026-04-26T15:40:27.393Z</time></trkpt><trkpt lat="45.8392503" lon="11.6844115"><ele>138.0</ele><time>2026-04-26T15:40:28.393Z</time></trkpt><trkpt lat="45.8391798" lon="11.6845158"><ele>138.0</ele><time>2026-04-26T15:40:29.393Z</time></trkpt><trkpt lat="45.8391079" lon="11.6846256"><ele>138.20000000000002</ele><time>2026-04-26T15:40:30.394Z</time></trkpt><trkpt lat="45.8390333" lon="11.684736"><ele>138.4</ele><time>2026-04-26T15:40:31.393Z</time></trkpt><trkpt lat="45.8389599" lon="11.6848419"><ele>138.60000000000002</ele><time>2026-04-26T15:40:32.392Z</time></trkpt><trkpt lat="45.8388902" lon="11.6849406"><ele>138.8</ele><time>2026-04-26T15:40:33.392Z</time></trkpt><trkpt lat="45.8388254" lon="11.6850342"><ele>139.0</ele><time>2026-04-26T15:40:34.393Z</time></trkpt><trkpt lat="45.8387631" lon="11.6851257"><ele>139.0</ele><time>2026-04-26T15:40:35.395Z</time></trkpt><trkpt lat="45.8387081" lon="11.6852146"><ele>139.0</ele><time>2026-04-26T15:40:36.394Z</time></trkpt><trkpt lat="45.8386605" lon="11.6853007"><ele>139.0</ele><time>2026-04-26T15:40:37.394Z</time></trkpt><trkpt lat="45.8386191" lon="11.6853908"><ele>139.0</ele><time>2026-04-26T15:40:38.394Z</time></trkpt><trkpt lat="45.8385707" lon="11.6854815"><ele>139.0</ele><time>2026-04-26T15:40:39.393Z</time></trkpt><trkpt lat="45.8385146" lon="11.6855838"><ele>139.0</ele><time>2026-04-26T15:40:40.393Z</time></trkpt><trkpt lat="45.838457" lon="11.6857014"><ele>139.0</ele><time>2026-04-26T15:40:41.395Z</time></trkpt><trkpt lat="45.8384005" lon="11.6858104"><ele>139.0</ele><time>2026-04-26T15:40:42.393Z</time></trkpt><trkpt lat="45.8383484" lon="11.6859098"><ele>139.0</ele><time>2026-04-26T15:40:43.398Z</time></trkpt><trkpt lat="45.8382977" lon="11.6860065"><ele>139.0</ele><time>2026-04-26T15:40:44.392Z</time></trkpt><trkpt lat="45.8382434" lon="11.6861116"><ele>139.0</ele><time>2026-04-26T15:40:45.391Z</time></trkpt><trkpt lat="45.8381846" lon="11.6862237"><ele>139.0</ele><time>2026-04-26T15:40:46.39Z</time></trkpt><trkpt lat="45.8380536" lon="11.6864692"><ele>139.0</ele><time>2026-04-26T15:40:48.391Z</time></trkpt><trkpt lat="45.8379824" lon="11.6866067"><ele>139.0</ele><time>2026-04-26T15:40:49.393Z</time></trkpt><trkpt lat="45.8379136" lon="11.6867395"><ele>139.0</ele><time>2026-04-26T15:40:50.393Z</time></trkpt><trkpt lat="45.8378482" lon="11.6868683"><ele>139.0</ele><time>2026-04-26T15:40:51.393Z</time></trkpt><trkpt lat="45.8377839" lon="11.6869918"><ele>139.0</ele><time>2026-04-26T15:40:52.394Z</time></trkpt><trkpt lat="45.8377213" lon="11.6871113"><ele>139.0</ele><time>2026-04-26T15:40:53.394Z</time></trkpt><trkpt lat="45.8376589" lon="11.6872319"><ele>139.0</ele><time>2026-04-26T15:40:54.395Z</time></trkpt><trkpt lat="45.8375948" lon="11.6873578"><ele>138.25</ele><time>2026-04-26T15:40:55.394Z</time></trkpt><trkpt lat="45.8375281" lon="11.6874902"><ele>137.5</ele><time>2026-04-26T15:40:56.393Z</time></trkpt><trkpt lat="45.8374567" lon="11.6876251"><ele>136.75</ele><time>2026-04-26T15:40:57.394Z</time></trkpt><trkpt lat="45.8373831" lon="11.6877625"><ele>136.0</ele><time>2026-04-26T15:40:58.394Z</time></trkpt><trkpt lat="45.8373094" lon="11.6878987"><ele>136.0</ele><time>2026-04-26T15:40:59.393Z</time></trkpt><trkpt lat="45.8372371" lon="11.6880318"><ele>136.0</ele><time>2026-04-26T15:41:00.393Z</time></trkpt><trkpt lat="45.8371678" lon="11.6881633"><ele>136.0</ele><time>2026-04-26T15:41:01.393Z</time></trkpt><trkpt lat="45.8370982" lon="11.6882933"><ele>136.0</ele><time>2026-04-26T15:41:02.394Z</time></trkpt><trkpt lat="45.8370226" lon="11.6884163"><ele>136.0</ele><time>2026-04-26T15:41:03.393Z</time></trkpt><trkpt lat="45.8369455" lon="11.6885288"><ele>136.0</ele><time>2026-04-26T15:41:04.393Z</time></trkpt><trkpt lat="45.8368701" lon="11.6886323"><ele>136.0</ele><time>2026-04-26T15:41:05.394Z</time></trkpt><trkpt lat="45.8367942" lon="11.6887372"><ele>136.0</ele><time>2026-04-26T15:41:06.393Z</time></trkpt><trkpt lat="45.8367172" lon="11.6888441"><ele>136.0</ele><time>2026-04-26T15:41:07.394Z</time></trkpt><trkpt lat="45.8365548" lon="11.6890732"><ele>136.5</ele><time>2026-04-26T15:41:09.392Z</time></trkpt><trkpt lat="45.8364668" lon="11.6891932"><ele>137.0</ele><time>2026-04-26T15:41:10.39Z</time></trkpt><trkpt lat="45.8363752" lon="11.6893166"><ele>137.5</ele><time>2026-04-26T15:41:11.391Z</time></trkpt><trkpt lat="45.8363001" lon="11.6894186"><ele>138.0</ele><time>2026-04-26T15:41:12.195Z</time></trkpt><trkpt lat="45.8361892" lon="11.6895716"><ele>138.0</ele><time>2026-04-26T15:41:13.395Z</time></trkpt><trkpt lat="45.8361016" lon="11.6896912"><ele>138.0</ele><time>2026-04-26T15:41:14.393Z</time></trkpt><trkpt lat="45.8360191" lon="11.6898047"><ele>138.0</ele><time>2026-04-26T15:41:15.395Z</time></trkpt><trkpt lat="45.8359431" lon="11.689913"><ele>138.0</ele><time>2026-04-26T15:41:16.394Z</time></trkpt><trkpt lat="45.8358688" lon="11.6900141"><ele>138.0</ele><time>2026-04-26T15:41:17.393Z</time></trkpt><trkpt lat="45.8357922" lon="11.6901172"><ele>138.0</ele><time>2026-04-26T15:41:18.393Z</time></trkpt><trkpt lat="45.8357096" lon="11.6902228"><ele>138.0</ele><time>2026-04-26T15:41:19.393Z</time></trkpt><trkpt lat="45.8356282" lon="11.6903421"><ele>138.0</ele><time>2026-04-26T15:41:20.392Z</time></trkpt><trkpt lat="45.8355451" lon="11.6904721"><ele>138.0</ele><time>2026-04-26T15:41:21.394Z</time></trkpt><trkpt lat="45.8354591" lon="11.6906093"><ele>138.0</ele><time>2026-04-26T15:41:22.394Z</time></trkpt><trkpt lat="45.8353681" lon="11.6907518"><ele>138.0</ele><time>2026-04-26T15:41:23.393Z</time></trkpt><trkpt lat="45.8352758" lon="11.6908984"><ele>138.0</ele><time>2026-04-26T15:41:24.393Z</time></trkpt><trkpt lat="45.8351845" lon="11.6910484"><ele>138.0</ele><time>2026-04-26T15:41:25.396Z</time></trkpt><trkpt lat="45.8350961" lon="11.6911922"><ele>137.66666666666666</ele><time>2026-04-26T15:41:26.392Z</time></trkpt><trkpt lat="45.8350125" lon="11.6913278"><ele>137.33333333333331</ele><time>2026-04-26T15:41:27.395Z</time></trkpt><trkpt lat="45.8349352" lon="11.6914611"><ele>137.0</ele><time>2026-04-26T15:41:28.393Z</time></trkpt><trkpt lat="45.8347902" lon="11.691735"><ele>137.0</ele><time>2026-04-26T15:41:30.393Z</time></trkpt><trkpt lat="45.8347195" lon="11.6918765"><ele>137.0</ele><time>2026-04-26T15:41:31.392Z</time></trkpt><trkpt lat="45.8346488" lon="11.6920149"><ele>137.0</ele><time>2026-04-26T15:41:32.392Z</time></trkpt><trkpt lat="45.8345832" lon="11.6921564"><ele>137.0</ele><time>2026-04-26T15:41:33.393Z</time></trkpt><trkpt lat="45.8345191" lon="11.6923049"><ele>136.75</ele><time>2026-04-26T15:41:34.392Z</time></trkpt><trkpt lat="45.8344545" lon="11.6924604"><ele>136.5</ele><time>2026-04-26T15:41:35.391Z</time></trkpt><trkpt lat="45.8343865" lon="11.692622"><ele>136.25</ele><time>2026-04-26T15:41:36.392Z</time></trkpt><trkpt lat="45.8343181" lon="11.6927836"><ele>136.0</ele><time>2026-04-26T15:41:37.393Z</time></trkpt><trkpt lat="45.8342535" lon="11.6929387"><ele>137.25</ele><time>2026-04-26T15:41:38.394Z</time></trkpt><trkpt lat="45.8341912" lon="11.693087"><ele>138.5</ele><time>2026-04-26T15:41:39.392Z</time></trkpt><trkpt lat="45.8341315" lon="11.6932302"><ele>139.75</ele><time>2026-04-26T15:41:40.393Z</time></trkpt><trkpt lat="45.8340729" lon="11.6933684"><ele>141.0</ele><time>2026-04-26T15:41:41.395Z</time></trkpt><trkpt lat="45.834013" lon="11.6934993"><ele>139.8</ele><time>2026-04-26T15:41:42.395Z</time></trkpt><trkpt lat="45.8339568" lon="11.6936252"><ele>138.6</ele><time>2026-04-26T15:41:43.393Z</time></trkpt><trkpt lat="45.833904" lon="11.6937457"><ele>137.4</ele><time>2026-04-26T15:41:44.394Z</time></trkpt><trkpt lat="45.8338482" lon="11.6938658"><ele>136.2</ele><time>2026-04-26T15:41:45.393Z</time></trkpt><trkpt lat="45.8337808" lon="11.6939926"><ele>135.0</ele><time>2026-04-26T15:41:46.393Z</time></trkpt><trkpt lat="45.8337129" lon="11.6941335"><ele>135.0</ele><time>2026-04-26T15:41:47.394Z</time></trkpt><trkpt lat="45.8336492" lon="11.6942877"><ele>135.0</ele><time>2026-04-26T15:41:48.394Z</time></trkpt><trkpt lat="45.8334703" lon="11.6947528"><ele>135.2</ele><time>2026-04-26T15:41:51.395Z</time></trkpt><trkpt lat="45.8334101" lon="11.6948959"><ele>135.4</ele><time>2026-04-26T15:41:52.393Z</time></trkpt><trkpt lat="45.8333533" lon="11.6950309"><ele>135.6</ele><time>2026-04-26T15:41:53.392Z</time></trkpt><trkpt lat="45.8332997" lon="11.6951563"><ele>135.8</ele><time>2026-04-26T15:41:54.395Z</time></trkpt><trkpt lat="45.8332464" lon="11.695278"><ele>136.0</ele><time>2026-04-26T15:41:55.393Z</time></trkpt><trkpt lat="45.83319" lon="11.6954099"><ele>136.0</ele><time>2026-04-26T15:41:56.393Z</time></trkpt><trkpt lat="45.833126" lon="11.6955456"><ele>136.0</ele><time>2026-04-26T15:41:57.392Z</time></trkpt><trkpt lat="45.8330818" lon="11.6956261"><ele>136.0</ele><time>2026-04-26T15:41:57.995Z</time></trkpt><trkpt lat="45.8329632" lon="11.6958096"><ele>136.0</ele><time>2026-04-26T15:41:59.39Z</time></trkpt><trkpt lat="45.8328766" lon="11.6959312"><ele>136.0</ele><time>2026-04-26T15:42:00.39Z</time></trkpt><trkpt lat="45.8327884" lon="11.6960416"><ele>136.0</ele><time>2026-04-26T15:42:01.39Z</time></trkpt><trkpt lat="45.8326995" lon="11.6961455"><ele>136.0</ele><time>2026-04-26T15:42:02.392Z</time></trkpt><trkpt lat="45.8326067" lon="11.6962505"><ele>136.0</ele><time>2026-04-26T15:42:03.394Z</time></trkpt><trkpt lat="45.8325078" lon="11.6963613"><ele>136.25</ele><time>2026-04-26T15:42:04.392Z</time></trkpt><trkpt lat="45.8323992" lon="11.6964709"><ele>136.5</ele><time>2026-04-26T15:42:05.392Z</time></trkpt><trkpt lat="45.8322852" lon="11.6965839"><ele>136.75</ele><time>2026-04-26T15:42:06.394Z</time></trkpt><trkpt lat="45.832168" lon="11.6967046"><ele>137.0</ele><time>2026-04-26T15:42:07.394Z</time></trkpt><trkpt lat="45.8320497" lon="11.6968187"><ele>136.66666666666666</ele><time>2026-04-26T15:42:08.394Z</time></trkpt><trkpt lat="45.8319346" lon="11.6969271"><ele>136.33333333333334</ele><time>2026-04-26T15:42:09.393Z</time></trkpt><trkpt lat="45.8318228" lon="11.6970384"><ele>136.0</ele><time>2026-04-26T15:42:10.395Z</time></trkpt><trkpt lat="45.8316171" lon="11.6972487"><ele>136.0</ele><time>2026-04-26T15:42:12.394Z</time></trkpt><trkpt lat="45.8315193" lon="11.6973429"><ele>136.0</ele><time>2026-04-26T15:42:13.393Z</time></trkpt><trkpt lat="45.831423" lon="11.6974364"><ele>136.0</ele><time>2026-04-26T15:42:14.393Z</time></trkpt><trkpt lat="45.8313284" lon="11.6975322"><ele>136.0</ele><time>2026-04-26T15:42:15.394Z</time></trkpt><trkpt lat="45.8312289" lon="11.6976322"><ele>136.0</ele><time>2026-04-26T15:42:16.396Z</time></trkpt><trkpt lat="45.8311212" lon="11.6977407"><ele>136.0</ele><time>2026-04-26T15:42:17.394Z</time></trkpt><trkpt lat="45.8310141" lon="11.697848"><ele>136.0</ele><time>2026-04-26T15:42:18.395Z</time></trkpt><trkpt lat="45.8309137" lon="11.6979459"><ele>136.0</ele><time>2026-04-26T15:42:19.394Z</time></trkpt><trkpt lat="45.8308196" lon="11.6980377"><ele>136.75</ele><time>2026-04-26T15:42:20.393Z</time></trkpt><trkpt lat="45.8307276" lon="11.6981319"><ele>137.5</ele><time>2026-04-26T15:42:21.395Z</time></trkpt><trkpt lat="45.8306332" lon="11.6982324"><ele>138.25</ele><time>2026-04-26T15:42:22.394Z</time></trkpt><trkpt lat="45.8305344" lon="11.698336"><ele>139.0</ele><time>2026-04-26T15:42:23.39Z</time></trkpt><trkpt lat="45.8304322" lon="11.6984431"><ele>139.0</ele><time>2026-04-26T15:42:24.393Z</time></trkpt><trkpt lat="45.8303319" lon="11.6985438"><ele>139.0</ele><time>2026-04-26T15:42:25.391Z</time></trkpt><trkpt lat="45.8302357" lon="11.6986375"><ele>139.0</ele><time>2026-04-26T15:42:26.392Z</time></trkpt><trkpt lat="45.8301402" lon="11.6987295"><ele>139.0</ele><time>2026-04-26T15:42:27.395Z</time></trkpt><trkpt lat="45.8300409" lon="11.6988282"><ele>140.25</ele><time>2026-04-26T15:42:28.395Z</time></trkpt><trkpt lat="45.8299355" lon="11.6989289"><ele>141.5</ele><time>2026-04-26T15:42:29.394Z</time></trkpt><trkpt lat="45.8298306" lon="11.6990246"><ele>142.75</ele><time>2026-04-26T15:42:30.395Z</time></trkpt><trkpt lat="45.8297324" lon="11.6991142"><ele>144.0</ele><time>2026-04-26T15:42:31.394Z</time></trkpt><trkpt lat="45.8295502" lon="11.6992664"><ele>144.0</ele><time>2026-04-26T15:42:33.395Z</time></trkpt><trkpt lat="45.8294681" lon="11.6993351"><ele>144.0</ele><time>2026-04-26T15:42:34.395Z</time></trkpt><trkpt lat="45.8293954" lon="11.6994081"><ele>144.0</ele><time>2026-04-26T15:42:35.395Z</time></trkpt><trkpt lat="45.8293275" lon="11.6994795"><ele>144.0</ele><time>2026-04-26T15:42:36.395Z</time></trkpt><trkpt lat="45.8292599" lon="11.6995393"><ele>144.0</ele><time>2026-04-26T15:42:37.395Z</time></trkpt><trkpt lat="45.8291959" lon="11.6995937"><ele>144.0</ele><time>2026-04-26T15:42:38.393Z</time></trkpt><trkpt lat="45.8291341" lon="11.6996405"><ele>143.57142857142858</ele><time>2026-04-26T15:42:39.397Z</time></trkpt><trkpt lat="45.8290767" lon="11.6996875"><ele>143.14285714285714</ele><time>2026-04-26T15:42:40.396Z</time></trkpt><trkpt lat="45.8290238" lon="11.6997373"><ele>142.71428571428572</ele><time>2026-04-26T15:42:41.393Z</time></trkpt><trkpt lat="45.8289671" lon="11.6997893"><ele>142.28571428571428</ele><time>2026-04-26T15:42:42.393Z</time></trkpt><trkpt lat="45.8289072" lon="11.6998513"><ele>141.85714285714286</ele><time>2026-04-26T15:42:43.391Z</time></trkpt><trkpt lat="45.8288447" lon="11.6999075"><ele>141.42857142857144</ele><time>2026-04-26T15:42:44.393Z</time></trkpt><trkpt lat="45.8287791" lon="11.6999647"><ele>141.0</ele><time>2026-04-26T15:42:45.393Z</time></trkpt><trkpt lat="45.8287174" lon="11.700034"><ele>141.0</ele><time>2026-04-26T15:42:46.394Z</time></trkpt><trkpt lat="45.8286612" lon="11.7000916"><ele>141.0</ele><time>2026-04-26T15:42:47.196Z</time></trkpt><trkpt lat="45.828568" lon="11.7001744"><ele>141.0</ele><time>2026-04-26T15:42:48.393Z</time></trkpt><trkpt lat="45.8284858" lon="11.7002526"><ele>141.0</ele><time>2026-04-26T15:42:49.391Z</time></trkpt><trkpt lat="45.8283942" lon="11.7003334"><ele>141.0</ele><time>2026-04-26T15:42:50.389Z</time></trkpt><trkpt lat="45.8282953" lon="11.7004215"><ele>140.0</ele><time>2026-04-26T15:42:51.392Z</time></trkpt><trkpt lat="45.8281962" lon="11.7005261"><ele>139.0</ele><time>2026-04-26T15:42:52.394Z</time></trkpt><trkpt lat="45.8280118" lon="11.7007343"><ele>138.0</ele><time>2026-04-26T15:42:54.393Z</time></trkpt><trkpt lat="45.8279297" lon="11.7008345"><ele>138.0</ele><time>2026-04-26T15:42:55.395Z</time></trkpt><trkpt lat="45.827854" lon="11.7009338"><ele>138.0</ele><time>2026-04-26T15:42:56.393Z</time></trkpt><trkpt lat="45.8277818" lon="11.7010323"><ele>138.0</ele><time>2026-04-26T15:42:57.396Z</time></trkpt><trkpt lat="45.827712" lon="11.701129"><ele>138.0</ele><time>2026-04-26T15:42:58.395Z</time></trkpt><trkpt lat="45.8276379" lon="11.7012313"><ele>138.0</ele><time>2026-04-26T15:42:59.393Z</time></trkpt><trkpt lat="45.8275591" lon="11.7013382"><ele>138.20000000000002</ele><time>2026-04-26T15:43:00.394Z</time></trkpt><trkpt lat="45.8274844" lon="11.7014433"><ele>138.4</ele><time>2026-04-26T15:43:01.393Z</time></trkpt><trkpt lat="45.8274165" lon="11.7015488"><ele>138.60000000000002</ele><time>2026-04-26T15:43:02.395Z</time></trkpt><trkpt lat="45.8273542" lon="11.7016512"><ele>138.8</ele><time>2026-04-26T15:43:03.393Z</time></trkpt><trkpt lat="45.8272969" lon="11.7017499"><ele>139.0</ele><time>2026-04-26T15:43:04.395Z</time></trkpt><trkpt lat="45.8272441" lon="11.7018464"><ele>138.0</ele><time>2026-04-26T15:43:05.394Z</time></trkpt><trkpt lat="45.8271929" lon="11.7019455"><ele>137.0</ele><time>2026-04-26T15:43:06.396Z</time></trkpt><trkpt lat="45.8271516" lon="11.7020324"><ele>136.0</ele><time>2026-04-26T15:43:07.197Z</time></trkpt><trkpt lat="45.827086" lon="11.7021753"><ele>135.0</ele><time>2026-04-26T15:43:08.394Z</time></trkpt><trkpt lat="45.8270306" lon="11.7023046"><ele>134.0</ele><time>2026-04-26T15:43:09.395Z</time></trkpt><trkpt lat="45.8269732" lon="11.7024361"><ele>134.0</ele><time>2026-04-26T15:43:10.396Z</time></trkpt><trkpt lat="45.8269113" lon="11.7025608"><ele>134.0</ele><time>2026-04-26T15:43:11.392Z</time></trkpt><trkpt lat="45.8268478" lon="11.7026766"><ele>134.0</ele><time>2026-04-26T15:43:12.393Z</time></trkpt><trkpt lat="45.8267772" lon="11.702781"><ele>134.0</ele><time>2026-04-26T15:43:13.393Z</time></trkpt><trkpt lat="45.826615" lon="11.7029765"><ele>134.25</ele><time>2026-04-26T15:43:15.394Z</time></trkpt><trkpt lat="45.8265293" lon="11.7030733"><ele>134.5</ele><time>2026-04-26T15:43:16.396Z</time></trkpt><trkpt lat="45.8264403" lon="11.7031741"><ele>134.75</ele><time>2026-04-26T15:43:17.394Z</time></trkpt><trkpt lat="45.8263461" lon="11.7032769"><ele>135.0</ele><time>2026-04-26T15:43:18.395Z</time></trkpt><trkpt lat="45.8262495" lon="11.703384"><ele>135.0</ele><time>2026-04-26T15:43:19.394Z</time></trkpt><trkpt lat="45.8261523" lon="11.7035005"><ele>135.0</ele><time>2026-04-26T15:43:20.393Z</time></trkpt><trkpt lat="45.826054" lon="11.7036247"><ele>135.0</ele><time>2026-04-26T15:43:21.396Z</time></trkpt><trkpt lat="45.8259526" lon="11.7037529"><ele>135.0</ele><time>2026-04-26T15:43:22.394Z</time></trkpt><trkpt lat="45.825848" lon="11.7038835"><ele>134.5</ele><time>2026-04-26T15:43:23.395Z</time></trkpt><trkpt lat="45.8257404" lon="11.7040165"><ele>134.0</ele><time>2026-04-26T15:43:24.395Z</time></trkpt><trkpt lat="45.8256333" lon="11.7041549"><ele>133.5</ele><time>2026-04-26T15:43:25.397Z</time></trkpt><trkpt lat="45.825532" lon="11.7042882"><ele>133.0</ele><time>2026-04-26T15:43:26.396Z</time></trkpt><trkpt lat="45.8254352" lon="11.7044107"><ele>133.25</ele><time>2026-04-26T15:43:27.396Z</time></trkpt><trkpt lat="45.8253441" lon="11.7045258"><ele>133.5</ele><time>2026-04-26T15:43:28.394Z</time></trkpt><trkpt lat="45.825258" lon="11.7046333"><ele>133.75</ele><time>2026-04-26T15:43:29.395Z</time></trkpt><trkpt lat="45.8251736" lon="11.7047414"><ele>134.0</ele><time>2026-04-26T15:43:30.396Z</time></trkpt><trkpt lat="45.8250849" lon="11.7048558"><ele>134.0</ele><time>2026-04-26T15:43:31.395Z</time></trkpt><trkpt lat="45.8249913" lon="11.7049784"><ele>134.0</ele><time>2026-04-26T15:43:32.396Z</time></trkpt><trkpt lat="45.8248929" lon="11.7051064"><ele>134.0</ele><time>2026-04-26T15:43:33.398Z</time></trkpt><trkpt lat="45.8247919" lon="11.7052348"><ele>134.0</ele><time>2026-04-26T15:43:34.396Z</time></trkpt><trkpt lat="45.8245916" lon="11.7054869"><ele>134.25</ele><time>2026-04-26T15:43:36.392Z</time></trkpt><trkpt lat="45.8244913" lon="11.7055975"><ele>134.5</ele><time>2026-04-26T15:43:37.394Z</time></trkpt><trkpt lat="45.8243894" lon="11.7057004"><ele>134.75</ele><time>2026-04-26T15:43:38.391Z</time></trkpt><trkpt lat="45.8242859" lon="11.705798"><ele>135.0</ele><time>2026-04-26T15:43:39.393Z</time></trkpt><trkpt lat="45.8241799" lon="11.7058955"><ele>135.0</ele><time>2026-04-26T15:43:40.394Z</time></trkpt><trkpt lat="45.8240741" lon="11.7059977"><ele>135.0</ele><time>2026-04-26T15:43:41.393Z</time></trkpt><trkpt lat="45.8239665" lon="11.7060997"><ele>135.0</ele><time>2026-04-26T15:43:42.394Z</time></trkpt><trkpt lat="45.8238639" lon="11.7062041"><ele>135.0</ele><time>2026-04-26T15:43:43.394Z</time></trkpt><trkpt lat="45.8237626" lon="11.7063086"><ele>134.5</ele><time>2026-04-26T15:43:44.395Z</time></trkpt><trkpt lat="45.8236655" lon="11.7064217"><ele>134.0</ele><time>2026-04-26T15:43:45.395Z</time></trkpt><trkpt lat="45.8235901" lon="11.7065153"><ele>133.5</ele><time>2026-04-26T15:43:46.196Z</time></trkpt><trkpt lat="45.8234755" lon="11.7066503"><ele>133.0</ele><time>2026-04-26T15:43:47.393Z</time></trkpt><trkpt lat="45.8233796" lon="11.7067622"><ele>133.0</ele><time>2026-04-26T15:43:48.395Z</time></trkpt><trkpt lat="45.8232858" lon="11.7068761"><ele>133.0</ele><time>2026-04-26T15:43:49.396Z</time></trkpt><trkpt lat="45.8231937" lon="11.7069881"><ele>133.0</ele><time>2026-04-26T15:43:50.393Z</time></trkpt><trkpt lat="45.823103" lon="11.7070978"><ele>133.0</ele><time>2026-04-26T15:43:51.394Z</time></trkpt><trkpt lat="45.8230124" lon="11.707203"><ele>133.25</ele><time>2026-04-26T15:43:52.393Z</time></trkpt><trkpt lat="45.8229234" lon="11.7073066"><ele>133.5</ele><time>2026-04-26T15:43:53.394Z</time></trkpt><trkpt lat="45.8228352" lon="11.7074084"><ele>133.75</ele><time>2026-04-26T15:43:54.393Z</time></trkpt><trkpt lat="45.8227446" lon="11.7075058"><ele>134.0</ele><time>2026-04-26T15:43:55.395Z</time></trkpt><trkpt lat="45.8225486" lon="11.7077161"><ele>132.25</ele><time>2026-04-26T15:43:57.395Z</time></trkpt><trkpt lat="45.8224487" lon="11.7078251"><ele>130.5</ele><time>2026-04-26T15:43:58.396Z</time></trkpt><trkpt lat="45.8223473" lon="11.7079363"><ele>128.75</ele><time>2026-04-26T15:43:59.394Z</time></trkpt><trkpt lat="45.8222411" lon="11.7080468"><ele>127.0</ele><time>2026-04-26T15:44:00.395Z</time></trkpt><trkpt lat="45.8221353" lon="11.7081596"><ele>127.0</ele><time>2026-04-26T15:44:01.392Z</time></trkpt><trkpt lat="45.8220282" lon="11.7082728"><ele>127.0</ele><time>2026-04-26T15:44:02.391Z</time></trkpt><trkpt lat="45.821921" lon="11.7083878"><ele>127.0</ele><time>2026-04-26T15:44:03.391Z</time></trkpt><trkpt lat="45.8218138" lon="11.7085067"><ele>127.0</ele><time>2026-04-26T15:44:04.392Z</time></trkpt><trkpt lat="45.8217075" lon="11.7086306"><ele>126.5</ele><time>2026-04-26T15:44:05.393Z</time></trkpt><trkpt lat="45.8216016" lon="11.7087588"><ele>126.0</ele><time>2026-04-26T15:44:06.394Z</time></trkpt><trkpt lat="45.8214971" lon="11.7088927"><ele>125.5</ele><time>2026-04-26T15:44:07.397Z</time></trkpt><trkpt lat="45.8213953" lon="11.7090325"><ele>125.0</ele><time>2026-04-26T15:44:08.394Z</time></trkpt><trkpt lat="45.821295" lon="11.7091778"><ele>125.0</ele><time>2026-04-26T15:44:09.393Z</time></trkpt><trkpt lat="45.8211964" lon="11.7093268"><ele>125.0</ele><time>2026-04-26T15:44:10.392Z</time></trkpt><trkpt lat="45.821098" lon="11.7094777"><ele>125.0</ele><time>2026-04-26T15:44:11.391Z</time></trkpt><trkpt lat="45.8209991" lon="11.7096293"><ele>125.0</ele><time>2026-04-26T15:44:12.392Z</time></trkpt><trkpt lat="45.8208996" lon="11.7097832"><ele>124.25</ele><time>2026-04-26T15:44:13.393Z</time></trkpt><trkpt lat="45.820802" lon="11.7099282"><ele>123.5</ele><time>2026-04-26T15:44:14.392Z</time></trkpt><trkpt lat="45.8206988" lon="11.71006"><ele>122.75</ele><time>2026-04-26T15:44:15.393Z</time></trkpt><trkpt lat="45.8205925" lon="11.7101823"><ele>122.0</ele><time>2026-04-26T15:44:16.391Z</time></trkpt><trkpt lat="45.8203778" lon="11.7104151"><ele>122.0</ele><time>2026-04-26T15:44:18.393Z</time></trkpt><trkpt lat="45.8202713" lon="11.7105293"><ele>122.0</ele><time>2026-04-26T15:44:19.393Z</time></trkpt><trkpt lat="45.8201651" lon="11.7106445"><ele>122.0</ele><time>2026-04-26T15:44:20.393Z</time></trkpt><trkpt lat="45.820054" lon="11.7107605"><ele>122.0</ele><time>2026-04-26T15:44:21.393Z</time></trkpt><trkpt lat="45.8199422" lon="11.7108808"><ele>122.5</ele><time>2026-04-26T15:44:22.392Z</time></trkpt><trkpt lat="45.8198309" lon="11.7109985"><ele>123.0</ele><time>2026-04-26T15:44:23.392Z</time></trkpt><trkpt lat="45.8197255" lon="11.7111098"><ele>123.5</ele><time>2026-04-26T15:44:24.393Z</time></trkpt><trkpt lat="45.8196243" lon="11.7112239"><ele>124.0</ele><time>2026-04-26T15:44:25.39Z</time></trkpt><trkpt lat="45.8195242" lon="11.7113319"><ele>124.0</ele><time>2026-04-26T15:44:26.391Z</time></trkpt><trkpt lat="45.8194289" lon="11.7114324"><ele>124.0</ele><time>2026-04-26T15:44:27.389Z</time></trkpt><trkpt lat="45.8193328" lon="11.7115319"><ele>124.0</ele><time>2026-04-26T15:44:28.389Z</time></trkpt><trkpt lat="45.8192371" lon="11.71164"><ele>124.0</ele><time>2026-04-26T15:44:29.392Z</time></trkpt><trkpt lat="45.8191454" lon="11.7117567"><ele>125.5</ele><time>2026-04-26T15:44:30.391Z</time></trkpt><trkpt lat="45.8190677" lon="11.7118807"><ele>127.0</ele><time>2026-04-26T15:44:31.391Z</time></trkpt><trkpt lat="45.8189965" lon="11.7120074"><ele>128.5</ele><time>2026-04-26T15:44:32.392Z</time></trkpt><trkpt lat="45.8189196" lon="11.7121246"><ele>130.0</ele><time>2026-04-26T15:44:33.391Z</time></trkpt><trkpt lat="45.8188409" lon="11.7122408"><ele>130.0</ele><time>2026-04-26T15:44:34.392Z</time></trkpt><trkpt lat="45.8187534" lon="11.7123496"><ele>130.0</ele><time>2026-04-26T15:44:35.394Z</time></trkpt><trkpt lat="45.8186585" lon="11.7124551"><ele>130.0</ele><time>2026-04-26T15:44:36.392Z</time></trkpt><trkpt lat="45.8185601" lon="11.712555"><ele>130.0</ele><time>2026-04-26T15:44:37.394Z</time></trkpt><trkpt lat="45.8183648" lon="11.7127538"><ele>130.0</ele><time>2026-04-26T15:44:39.393Z</time></trkpt><trkpt lat="45.8182641" lon="11.7128512"><ele>130.0</ele><time>2026-04-26T15:44:40.392Z</time></trkpt><trkpt lat="45.818168" lon="11.7129485"><ele>130.0</ele><time>2026-04-26T15:44:41.391Z</time></trkpt><trkpt lat="45.8180783" lon="11.7130422"><ele>130.0</ele><time>2026-04-26T15:44:42.393Z</time></trkpt><trkpt lat="45.8179908" lon="11.7131283"><ele>130.0</ele><time>2026-04-26T15:44:43.392Z</time></trkpt><trkpt lat="45.8179108" lon="11.7132018"><ele>130.0</ele><time>2026-04-26T15:44:44.39Z</time></trkpt><trkpt lat="45.8178338" lon="11.7132853"><ele>130.0</ele><time>2026-04-26T15:44:45.391Z</time></trkpt><trkpt lat="45.817755" lon="11.71337"><ele>130.0</ele><time>2026-04-26T15:44:46.391Z</time></trkpt><trkpt lat="45.8176677" lon="11.7134591"><ele>130.0</ele><time>2026-04-26T15:44:47.39Z</time></trkpt><trkpt lat="45.8175715" lon="11.7135513"><ele>130.25</ele><time>2026-04-26T15:44:48.391Z</time></trkpt><trkpt lat="45.8174593" lon="11.7136388"><ele>130.5</ele><time>2026-04-26T15:44:49.391Z</time></trkpt><trkpt lat="45.8173505" lon="11.7137353"><ele>130.75</ele><time>2026-04-26T15:44:50.39Z</time></trkpt><trkpt lat="45.8172595" lon="11.713803"><ele>131.0</ele><time>2026-04-26T15:44:51.194Z</time></trkpt><trkpt lat="45.8171162" lon="11.7138973"><ele>131.0</ele><time>2026-04-26T15:44:52.389Z</time></trkpt><trkpt lat="45.8169881" lon="11.7139707"><ele>131.0</ele><time>2026-04-26T15:44:53.388Z</time></trkpt><trkpt lat="45.816853" lon="11.7140414"><ele>131.0</ele><time>2026-04-26T15:44:54.393Z</time></trkpt><trkpt lat="45.8167082" lon="11.7141142"><ele>131.0</ele><time>2026-04-26T15:44:55.392Z</time></trkpt><trkpt lat="45.8165555" lon="11.7141714"><ele>137.0</ele><time>2026-04-26T15:44:56.392Z</time></trkpt><trkpt lat="45.8163956" lon="11.7142225"><ele>143.0</ele><time>2026-04-26T15:44:57.393Z</time></trkpt><trkpt lat="45.8162374" lon="11.7142605"><ele>149.0</ele><time>2026-04-26T15:44:58.391Z</time></trkpt><trkpt lat="45.8159447" lon="11.7143049"><ele>151.75</ele><time>2026-04-26T15:45:00.391Z</time></trkpt><trkpt lat="45.8158091" lon="11.7143306"><ele>154.5</ele><time>2026-04-26T15:45:01.393Z</time></trkpt><trkpt lat="45.8156834" lon="11.7143534"><ele>157.25</ele><time>2026-04-26T15:45:02.391Z</time></trkpt><trkpt lat="45.8155668" lon="11.7143644"><ele>160.0</ele><time>2026-04-26T15:45:03.392Z</time></trkpt><trkpt lat="45.8154522" lon="11.7143575"><ele>160.0</ele><time>2026-04-26T15:45:04.393Z</time></trkpt><trkpt lat="45.8153348" lon="11.7143349"><ele>160.0</ele><time>2026-04-26T15:45:05.392Z</time></trkpt><trkpt lat="45.8152112" lon="11.7143032"><ele>160.0</ele><time>2026-04-26T15:45:06.392Z</time></trkpt><trkpt lat="45.8150806" lon="11.714267"><ele>160.0</ele><time>2026-04-26T15:45:07.391Z</time></trkpt><trkpt lat="45.8149453" lon="11.7142303"><ele>158.0</ele><time>2026-04-26T15:45:08.391Z</time></trkpt><trkpt lat="45.8148051" lon="11.7141893"><ele>156.0</ele><time>2026-04-26T15:45:09.393Z</time></trkpt><trkpt lat="45.8146642" lon="11.714147"><ele>154.0</ele><time>2026-04-26T15:45:10.391Z</time></trkpt><trkpt lat="45.814555" lon="11.7141122"><ele>152.0</ele><time>2026-04-26T15:45:11.194Z</time></trkpt><trkpt lat="45.8143963" lon="11.7140667"><ele>149.5</ele><time>2026-04-26T15:45:12.393Z</time></trkpt><trkpt lat="45.8142666" lon="11.7140371"><ele>147.0</ele><time>2026-04-26T15:45:13.393Z</time></trkpt><trkpt lat="45.8141402" lon="11.7140133"><ele>144.5</ele><time>2026-04-26T15:45:14.393Z</time></trkpt><trkpt lat="45.8140188" lon="11.7139879"><ele>142.0</ele><time>2026-04-26T15:45:15.391Z</time></trkpt><trkpt lat="45.8139019" lon="11.7139603"><ele>142.0</ele><time>2026-04-26T15:45:16.392Z</time></trkpt><trkpt lat="45.8137879" lon="11.7139264"><ele>142.0</ele><time>2026-04-26T15:45:17.39Z</time></trkpt><trkpt lat="45.8136735" lon="11.7138901"><ele>142.0</ele><time>2026-04-26T15:45:18.393Z</time></trkpt><trkpt lat="45.8135558" lon="11.7138573"><ele>142.0</ele><time>2026-04-26T15:45:19.394Z</time></trkpt><trkpt lat="45.8133149" lon="11.7137937"><ele>140.5</ele><time>2026-04-26T15:45:21.393Z</time></trkpt><trkpt lat="45.8131943" lon="11.7137605"><ele>139.0</ele><time>2026-04-26T15:45:22.394Z</time></trkpt><trkpt lat="45.8130674" lon="11.7137295"><ele>137.5</ele><time>2026-04-26T15:45:23.392Z</time></trkpt><trkpt lat="45.8129322" lon="11.7136967"><ele>136.0</ele><time>2026-04-26T15:45:24.394Z</time></trkpt><trkpt lat="45.8127897" lon="11.7136584"><ele>135.25</ele><time>2026-04-26T15:45:25.393Z</time></trkpt><trkpt lat="45.8126429" lon="11.7136166"><ele>134.5</ele><time>2026-04-26T15:45:26.394Z</time></trkpt><trkpt lat="45.8124999" lon="11.7135732"><ele>133.75</ele><time>2026-04-26T15:45:27.394Z</time></trkpt><trkpt lat="45.8123638" lon="11.7135306"><ele>133.0</ele><time>2026-04-26T15:45:28.394Z</time></trkpt><trkpt lat="45.8122344" lon="11.7134909"><ele>133.25</ele><time>2026-04-26T15:45:29.395Z</time></trkpt><trkpt lat="45.8121114" lon="11.7134534"><ele>133.5</ele><time>2026-04-26T15:45:30.395Z</time></trkpt><trkpt lat="45.8119922" lon="11.7134163"><ele>133.75</ele><time>2026-04-26T15:45:31.393Z</time></trkpt><trkpt lat="45.8118958" lon="11.713387"><ele>134.0</ele><time>2026-04-26T15:45:32.196Z</time></trkpt><trkpt lat="45.8117466" lon="11.713342"><ele>134.0</ele><time>2026-04-26T15:45:33.397Z</time></trkpt><trkpt lat="45.8116215" lon="11.7133059"><ele>134.0</ele><time>2026-04-26T15:45:34.395Z</time></trkpt><trkpt lat="45.8114985" lon="11.7132701"><ele>134.0</ele><time>2026-04-26T15:45:35.396Z</time></trkpt><trkpt lat="45.8113765" lon="11.7132341"><ele>134.0</ele><time>2026-04-26T15:45:36.394Z</time></trkpt><trkpt lat="45.8112485" lon="11.7132003"><ele>134.0</ele><time>2026-04-26T15:45:37.396Z</time></trkpt><trkpt lat="45.8111123" lon="11.7131624"><ele>134.0</ele><time>2026-04-26T15:45:38.394Z</time></trkpt><trkpt lat="45.8109707" lon="11.7131151"><ele>133.0</ele><time>2026-04-26T15:45:39.394Z</time></trkpt><trkpt lat="45.8108326" lon="11.7130688"><ele>133.0</ele><time>2026-04-26T15:45:40.395Z</time></trkpt></trkseg><trkseg><trkpt lat="45.8056193" lon="11.7110405"><ele>139.0</ele><time>2026-04-26T15:46:24.396Z</time></trkpt><trkpt lat="45.805533" lon="11.7110585"><ele>139.0</ele><time>2026-04-26T15:46:25.395Z</time></trkpt><trkpt lat="45.805452" lon="11.7110853"><ele>139.0</ele><time>2026-04-26T15:46:26.395Z</time></trkpt><trkpt lat="45.8050867" lon="11.7112836"><ele>137.0</ele><time>2026-04-26T15:46:30.392Z</time></trkpt><trkpt lat="45.8049617" lon="11.7113576"><ele>135.0</ele><time>2026-04-26T15:46:31.395Z</time></trkpt><trkpt lat="45.8048341" lon="11.7114357"><ele>133.0</ele><time>2026-04-26T15:46:32.395Z</time></trkpt><trkpt lat="45.8047157" lon="11.7115152"><ele>131.0</ele><time>2026-04-26T15:46:33.395Z</time></trkpt><trkpt lat="45.8046037" lon="11.7115939"><ele>131.0</ele><time>2026-04-26T15:46:34.393Z</time></trkpt><trkpt lat="45.8044955" lon="11.7116649"><ele>131.0</ele><time>2026-04-26T15:46:35.395Z</time></trkpt><trkpt lat="45.8043914" lon="11.7117309"><ele>131.0</ele><time>2026-04-26T15:46:36.395Z</time></trkpt><trkpt lat="45.8042916" lon="11.7118045"><ele>131.0</ele><time>2026-04-26T15:46:37.395Z</time></trkpt><trkpt lat="45.8041868" lon="11.7118723"><ele>131.0</ele><time>2026-04-26T15:46:38.395Z</time></trkpt><trkpt lat="45.8040842" lon="11.7119307"><ele>131.0</ele><time>2026-04-26T15:46:39.396Z</time></trkpt><trkpt lat="45.8039765" lon="11.7119736"><ele>131.0</ele><time>2026-04-26T15:46:40.396Z</time></trkpt><trkpt lat="45.8039064" lon="11.7119846"><ele>131.0</ele><time>2026-04-26T15:46:40.995Z</time></trkpt><trkpt lat="45.8037282" lon="11.7119851"><ele>131.0</ele><time>2026-04-26T15:46:42.396Z</time></trkpt><trkpt lat="45.8035959" lon="11.7119694"><ele>131.0</ele><time>2026-04-26T15:46:43.396Z</time></trkpt><trkpt lat="45.8034693" lon="11.7119413"><ele>131.0</ele><time>2026-04-26T15:46:44.395Z</time></trkpt><trkpt lat="45.8033488" lon="11.711906"><ele>131.0</ele><time>2026-04-26T15:46:45.396Z</time></trkpt><trkpt lat="45.8032356" lon="11.7118597"><ele>131.0</ele><time>2026-04-26T15:46:46.395Z</time></trkpt><trkpt lat="45.8031309" lon="11.7118039"><ele>131.0</ele><time>2026-04-26T15:46:47.394Z</time></trkpt><trkpt lat="45.8030344" lon="11.7117472"><ele>131.0</ele><time>2026-04-26T15:46:48.395Z</time></trkpt><trkpt lat="45.8029449" lon="11.7116936"><ele>131.0</ele><time>2026-04-26T15:46:49.395Z</time></trkpt><trkpt lat="45.8027734" lon="11.7115817"><ele>131.0</ele><time>2026-04-26T15:46:51.393Z</time></trkpt><trkpt lat="45.8026814" lon="11.7115163"><ele>131.0</ele><time>2026-04-26T15:46:52.393Z</time></trkpt><trkpt lat="45.8025887" lon="11.7114518"><ele>131.0</ele><time>2026-04-26T15:46:53.394Z</time></trkpt><trkpt lat="45.8025018" lon="11.7113922"><ele>131.0</ele><time>2026-04-26T15:46:54.393Z</time></trkpt><trkpt lat="45.802419" lon="11.7113354"><ele>131.0</ele><time>2026-04-26T15:46:55.394Z</time></trkpt><trkpt lat="45.8023368" lon="11.7112784"><ele>131.0</ele><time>2026-04-26T15:46:56.396Z</time></trkpt><trkpt lat="45.8022563" lon="11.7112199"><ele>131.0</ele><time>2026-04-26T15:46:57.396Z</time></trkpt><trkpt lat="45.8021745" lon="11.7111599"><ele>131.0</ele><time>2026-04-26T15:46:58.396Z</time></trkpt><trkpt lat="45.8020863" lon="11.7111022"><ele>131.0</ele><time>2026-04-26T15:46:59.395Z</time></trkpt><trkpt lat="45.8019896" lon="11.7110495"><ele>131.0</ele><time>2026-04-26T15:47:00.395Z</time></trkpt><trkpt lat="45.8018841" lon="11.7110103"><ele>130.75</ele><time>2026-04-26T15:47:01.396Z</time></trkpt><trkpt lat="45.8017717" lon="11.710991"><ele>130.5</ele><time>2026-04-26T15:47:02.397Z</time></trkpt><trkpt lat="45.801655" lon="11.7109869"><ele>130.25</ele><time>2026-04-26T15:47:03.398Z</time></trkpt><trkpt lat="45.8015407" lon="11.7109993"><ele>130.0</ele><time>2026-04-26T15:47:04.395Z</time></trkpt><trkpt lat="45.8014281" lon="11.7110209"><ele>130.0</ele><time>2026-04-26T15:47:05.394Z</time></trkpt><trkpt lat="45.8013174" lon="11.7110494"><ele>130.0</ele><time>2026-04-26T15:47:06.396Z</time></trkpt><trkpt lat="45.8012072" lon="11.7110802"><ele>130.0</ele><time>2026-04-26T15:47:07.397Z</time></trkpt><trkpt lat="45.8010972" lon="11.71111"><ele>130.0</ele><time>2026-04-26T15:47:08.395Z</time></trkpt><trkpt lat="45.8009847" lon="11.7111385"><ele>129.33333333333334</ele><time>2026-04-26T15:47:09.396Z</time></trkpt><trkpt lat="45.8008679" lon="11.7111705"><ele>128.66666666666666</ele><time>2026-04-26T15:47:10.396Z</time></trkpt><trkpt lat="45.8006301" lon="11.7112394"><ele>128.0</ele><time>2026-04-26T15:47:12.396Z</time></trkpt><trkpt lat="45.8005146" lon="11.7112735"><ele>128.0</ele><time>2026-04-26T15:47:13.396Z</time></trkpt><trkpt lat="45.8004016" lon="11.7113071"><ele>128.0</ele><time>2026-04-26T15:47:14.395Z</time></trkpt><trkpt lat="45.8002922" lon="11.7113396"><ele>128.0</ele><time>2026-04-26T15:47:15.395Z</time></trkpt><trkpt lat="45.8001877" lon="11.7113671"><ele>128.0</ele><time>2026-04-26T15:47:16.396Z</time></trkpt><trkpt lat="45.8000855" lon="11.7113911"><ele>128.0</ele><time>2026-04-26T15:47:17.392Z</time></trkpt><trkpt lat="45.7999804" lon="11.7114164"><ele>127.5</ele><time>2026-04-26T15:47:18.394Z</time></trkpt><trkpt lat="45.7998687" lon="11.7114455"><ele>127.0</ele><time>2026-04-26T15:47:19.394Z</time></trkpt><trkpt lat="45.7997492" lon="11.7114779"><ele>126.5</ele><time>2026-04-26T15:47:20.394Z</time></trkpt><trkpt lat="45.7996221" lon="11.711514"><ele>126.0</ele><time>2026-04-26T15:47:21.396Z</time></trkpt><trkpt lat="45.799488" lon="11.7115555"><ele>126.0</ele><time>2026-04-26T15:47:22.394Z</time></trkpt><trkpt lat="45.7993505" lon="11.7116065"><ele>126.0</ele><time>2026-04-26T15:47:23.395Z</time></trkpt><trkpt lat="45.7992129" lon="11.7116686"><ele>126.0</ele><time>2026-04-26T15:47:24.395Z</time></trkpt><trkpt lat="45.7990788" lon="11.7117372"><ele>126.0</ele><time>2026-04-26T15:47:25.393Z</time></trkpt><trkpt lat="45.7989464" lon="11.711806"><ele>125.0</ele><time>2026-04-26T15:47:26.394Z</time></trkpt><trkpt lat="45.7988146" lon="11.7118747"><ele>124.0</ele><time>2026-04-26T15:47:27.396Z</time></trkpt><trkpt lat="45.7986822" lon="11.711943"><ele>123.0</ele><time>2026-04-26T15:47:28.395Z</time></trkpt><trkpt lat="45.7985498" lon="11.7120114"><ele>122.0</ele><time>2026-04-26T15:47:29.395Z</time></trkpt><trkpt lat="45.7984179" lon="11.7120804"><ele>121.33333333333333</ele><time>2026-04-26T15:47:30.396Z</time></trkpt><trkpt lat="45.7981535" lon="11.712215"><ele>120.66666666666666</ele><time>2026-04-26T15:47:32.393Z</time></trkpt><trkpt lat="45.7980252" lon="11.7122795"><ele>120.0</ele><time>2026-04-26T15:47:33.394Z</time></trkpt><trkpt lat="45.7979023" lon="11.7123427"><ele>120.0</ele><time>2026-04-26T15:47:34.394Z</time></trkpt><trkpt lat="45.7977851" lon="11.7124097"><ele>120.0</ele><time>2026-04-26T15:47:35.392Z</time></trkpt><trkpt lat="45.7976713" lon="11.7124857"><ele>120.0</ele><time>2026-04-26T15:47:36.394Z</time></trkpt><trkpt lat="45.7975559" lon="11.7125773"><ele>120.0</ele><time>2026-04-26T15:47:37.391Z</time></trkpt><trkpt lat="45.7974555" lon="11.7126791"><ele>120.75</ele><time>2026-04-26T15:47:38.389Z</time></trkpt><trkpt lat="45.7973504" lon="11.7127917"><ele>121.5</ele><time>2026-04-26T15:47:39.39Z</time></trkpt><trkpt lat="45.7972471" lon="11.7129138"><ele>122.25</ele><time>2026-04-26T15:47:40.388Z</time></trkpt><trkpt lat="45.7971398" lon="11.7130364"><ele>123.0</ele><time>2026-04-26T15:47:41.385Z</time></trkpt><trkpt lat="45.7970337" lon="11.713155"><ele>123.0</ele><time>2026-04-26T15:47:42.386Z</time></trkpt><trkpt lat="45.7969288" lon="11.7132583"><ele>123.0</ele><time>2026-04-26T15:47:43.385Z</time></trkpt><trkpt lat="45.7968268" lon="11.7133561"><ele>123.0</ele><time>2026-04-26T15:47:44.387Z</time></trkpt><trkpt lat="45.7967255" lon="11.7134648"><ele>123.0</ele><time>2026-04-26T15:47:45.388Z</time></trkpt><trkpt lat="45.7966245" lon="11.7135774"><ele>120.5</ele><time>2026-04-26T15:47:46.386Z</time></trkpt><trkpt lat="45.7965197" lon="11.713675"><ele>118.0</ele><time>2026-04-26T15:47:47.385Z</time></trkpt><trkpt lat="45.7964121" lon="11.7137291"><ele>115.5</ele><time>2026-04-26T15:47:48.39Z</time></trkpt><trkpt lat="45.7962939" lon="11.7137532"><ele>113.0</ele><time>2026-04-26T15:47:49.391Z</time></trkpt><trkpt lat="45.7961702" lon="11.713791"><ele>113.0</ele><time>2026-04-26T15:47:50.391Z</time></trkpt><trkpt lat="45.7960427" lon="11.7138285"><ele>113.0</ele><time>2026-04-26T15:47:51.392Z</time></trkpt><trkpt lat="45.7957672" lon="11.713896"><ele>113.0</ele><time>2026-04-26T15:47:53.394Z</time></trkpt><trkpt lat="45.7956175" lon="11.7139287"><ele>114.66666666666666</ele><time>2026-04-26T15:47:54.394Z</time></trkpt><trkpt lat="45.7954613" lon="11.7139685"><ele>116.33333333333334</ele><time>2026-04-26T15:47:55.393Z</time></trkpt><trkpt lat="45.7953067" lon="11.7140138"><ele>118.0</ele><time>2026-04-26T15:47:56.394Z</time></trkpt><trkpt lat="45.7951622" lon="11.7140533"><ele>120.25</ele><time>2026-04-26T15:47:57.394Z</time></trkpt><trkpt lat="45.7950271" lon="11.7140896"><ele>122.5</ele><time>2026-04-26T15:47:58.395Z</time></trkpt><trkpt lat="45.7948947" lon="11.7141248"><ele>124.75</ele><time>2026-04-26T15:47:59.394Z</time></trkpt><trkpt lat="45.7947662" lon="11.7141625"><ele>127.0</ele><time>2026-04-26T15:48:00.394Z</time></trkpt><trkpt lat="45.7946408" lon="11.7142042"><ele>127.0</ele><time>2026-04-26T15:48:01.395Z</time></trkpt><trkpt lat="45.7945106" lon="11.7142481"><ele>127.0</ele><time>2026-04-26T15:48:02.393Z</time></trkpt><trkpt lat="45.7943741" lon="11.7142882"><ele>127.0</ele><time>2026-04-26T15:48:03.395Z</time></trkpt><trkpt lat="45.7942312" lon="11.7143273"><ele>127.0</ele><time>2026-04-26T15:48:04.394Z</time></trkpt><trkpt lat="45.794087" lon="11.7143699"><ele>124.5</ele><time>2026-04-26T15:48:05.391Z</time></trkpt><trkpt lat="45.7939452" lon="11.7144131"><ele>122.0</ele><time>2026-04-26T15:48:06.39Z</time></trkpt><trkpt lat="45.7938098" lon="11.7144515"><ele>119.5</ele><time>2026-04-26T15:48:07.391Z</time></trkpt><trkpt lat="45.7936799" lon="11.7144893"><ele>117.0</ele><time>2026-04-26T15:48:08.392Z</time></trkpt><trkpt lat="45.7935557" lon="11.7145211"><ele>117.25</ele><time>2026-04-26T15:48:09.392Z</time></trkpt><trkpt lat="45.793429" lon="11.7145525"><ele>117.5</ele><time>2026-04-26T15:48:10.395Z</time></trkpt><trkpt lat="45.7932996" lon="11.7145886"><ele>117.75</ele><time>2026-04-26T15:48:11.392Z</time></trkpt><trkpt lat="45.7931724" lon="11.7146272"><ele>118.0</ele><time>2026-04-26T15:48:12.393Z</time></trkpt><trkpt lat="45.7929097" lon="11.7147025"><ele>118.0</ele><time>2026-04-26T15:48:14.395Z</time></trkpt><trkpt lat="45.7927713" lon="11.7147397"><ele>118.0</ele><time>2026-04-26T15:48:15.395Z</time></trkpt><trkpt lat="45.7926354" lon="11.7147771"><ele>118.0</ele><time>2026-04-26T15:48:16.394Z</time></trkpt><trkpt lat="45.7925012" lon="11.7148153"><ele>118.0</ele><time>2026-04-26T15:48:17.394Z</time></trkpt><trkpt lat="45.7923652" lon="11.7148579"><ele>118.5</ele><time>2026-04-26T15:48:18.395Z</time></trkpt><trkpt lat="45.792225" lon="11.7149001"><ele>119.0</ele><time>2026-04-26T15:48:19.395Z</time></trkpt><trkpt lat="45.7920842" lon="11.7149482"><ele>119.5</ele><time>2026-04-26T15:48:20.394Z</time></trkpt><trkpt lat="45.7919459" lon="11.7150072"><ele>120.0</ele><time>2026-04-26T15:48:21.397Z</time></trkpt><trkpt lat="45.7918099" lon="11.7150768"><ele>119.0</ele><time>2026-04-26T15:48:22.396Z</time></trkpt><trkpt lat="45.7916769" lon="11.7151564"><ele>118.0</ele><time>2026-04-26T15:48:23.394Z</time></trkpt><trkpt lat="45.7915741" lon="11.715227"><ele>117.0</ele><time>2026-04-26T15:48:24.195Z</time></trkpt><trkpt lat="45.7914272" lon="11.7153367"><ele>116.0</ele><time>2026-04-26T15:48:25.393Z</time></trkpt><trkpt lat="45.7913128" lon="11.7154252"><ele>116.0</ele><time>2026-04-26T15:48:26.394Z</time></trkpt><trkpt lat="45.791206" lon="11.7155051"><ele>116.0</ele><time>2026-04-26T15:48:27.393Z</time></trkpt><trkpt lat="45.7911041" lon="11.7155814"><ele>116.0</ele><time>2026-04-26T15:48:28.394Z</time></trkpt><trkpt lat="45.7910041" lon="11.715658"><ele>116.0</ele><time>2026-04-26T15:48:29.394Z</time></trkpt><trkpt lat="45.7909042" lon="11.7157371"><ele>116.0</ele><time>2026-04-26T15:48:30.392Z</time></trkpt><trkpt lat="45.7908066" lon="11.715817"><ele>116.0</ele><time>2026-04-26T15:48:31.392Z</time></trkpt><trkpt lat="45.7907158" lon="11.715889"><ele>116.0</ele><time>2026-04-26T15:48:32.392Z</time></trkpt><trkpt lat="45.7906313" lon="11.7159617"><ele>116.0</ele><time>2026-04-26T15:48:33.391Z</time></trkpt><trkpt lat="45.7904843" lon="11.716119"><ele>115.99999999999999</ele><time>2026-04-26T15:48:35.392Z</time></trkpt><trkpt lat="45.790425" lon="11.7161976"><ele>116.0</ele><time>2026-04-26T15:48:36.392Z</time></trkpt><trkpt lat="45.7903695" lon="11.7162771"><ele>116.0</ele><time>2026-04-26T15:48:37.393Z</time></trkpt><trkpt lat="45.7903129" lon="11.7163577"><ele>116.0</ele><time>2026-04-26T15:48:38.394Z</time></trkpt><trkpt lat="45.7902556" lon="11.7164458"><ele>115.99999999999999</ele><time>2026-04-26T15:48:39.394Z</time></trkpt><trkpt lat="45.7901965" lon="11.7165447"><ele>116.0</ele><time>2026-04-26T15:48:40.394Z</time></trkpt><trkpt lat="45.790127" lon="11.716652"><ele>116.4</ele><time>2026-04-26T15:48:41.395Z</time></trkpt><trkpt lat="45.7900514" lon="11.7167652"><ele>116.8</ele><time>2026-04-26T15:48:42.395Z</time></trkpt><trkpt lat="45.7899749" lon="11.7168769"><ele>117.20000000000002</ele><time>2026-04-26T15:48:43.396Z</time></trkpt><trkpt lat="45.7898962" lon="11.7169859"><ele>117.60000000000001</ele><time>2026-04-26T15:48:44.394Z</time></trkpt><trkpt lat="45.7898227" lon="11.717089"><ele>118.0</ele><time>2026-04-26T15:48:45.395Z</time></trkpt><trkpt lat="45.7897535" lon="11.7171869"><ele>118.0</ele><time>2026-04-26T15:48:46.395Z</time></trkpt><trkpt lat="45.7896847" lon="11.7172803"><ele>118.00000000000001</ele><time>2026-04-26T15:48:47.394Z</time></trkpt><trkpt lat="45.7896113" lon="11.7173679"><ele>118.00000000000001</ele><time>2026-04-26T15:48:48.396Z</time></trkpt><trkpt lat="45.7895342" lon="11.7174589"><ele>118.0</ele><time>2026-04-26T15:48:49.394Z</time></trkpt><trkpt lat="45.789443" lon="11.7175441"><ele>118.0</ele><time>2026-04-26T15:48:50.394Z</time></trkpt><trkpt lat="45.7893394" lon="11.7176224"><ele>118.5</ele><time>2026-04-26T15:48:51.395Z</time></trkpt><trkpt lat="45.7892433" lon="11.717697"><ele>119.0</ele><time>2026-04-26T15:48:52.394Z</time></trkpt><trkpt lat="45.7891547" lon="11.7177613"><ele>119.5</ele><time>2026-04-26T15:48:53.394Z</time></trkpt><trkpt lat="45.7890695" lon="11.7178173"><ele>120.0</ele><time>2026-04-26T15:48:54.393Z</time></trkpt><trkpt lat="45.7889054" lon="11.717913"><ele>120.0</ele><time>2026-04-26T15:48:56.391Z</time></trkpt><trkpt lat="45.7888234" lon="11.7179564"><ele>120.0</ele><time>2026-04-26T15:48:57.391Z</time></trkpt><trkpt lat="45.7887383" lon="11.7179989"><ele>120.0</ele><time>2026-04-26T15:48:58.392Z</time></trkpt><trkpt lat="45.7886493" lon="11.7180412"><ele>120.0</ele><time>2026-04-26T15:48:59.393Z</time></trkpt><trkpt lat="45.788565" lon="11.7180835"><ele>120.0</ele><time>2026-04-26T15:49:00.395Z</time></trkpt><trkpt lat="45.7884882" lon="11.7181265"><ele>120.0</ele><time>2026-04-26T15:49:01.396Z</time></trkpt><trkpt lat="45.7884157" lon="11.718168"><ele>120.83333333333333</ele><time>2026-04-26T15:49:02.394Z</time></trkpt><trkpt lat="45.7883427" lon="11.7182111"><ele>121.66666666666666</ele><time>2026-04-26T15:49:03.395Z</time></trkpt><trkpt lat="45.7882694" lon="11.7182573"><ele>122.5</ele><time>2026-04-26T15:49:04.394Z</time></trkpt><trkpt lat="45.7881926" lon="11.7183099"><ele>123.33333333333333</ele><time>2026-04-26T15:49:05.394Z</time></trkpt><trkpt lat="45.7881123" lon="11.718371"><ele>124.16666666666666</ele><time>2026-04-26T15:49:06.395Z</time></trkpt><trkpt lat="45.7880285" lon="11.7184399"><ele>125.0</ele><time>2026-04-26T15:49:07.397Z</time></trkpt><trkpt lat="45.7879437" lon="11.7185127"><ele>125.4</ele><time>2026-04-26T15:49:08.393Z</time></trkpt><trkpt lat="45.7878644" lon="11.7185966"><ele>125.8</ele><time>2026-04-26T15:49:09.394Z</time></trkpt><trkpt lat="45.7877916" lon="11.7186897"><ele>126.19999999999999</ele><time>2026-04-26T15:49:10.395Z</time></trkpt><trkpt lat="45.7877257" lon="11.7187819"><ele>126.6</ele><time>2026-04-26T15:49:11.393Z</time></trkpt><trkpt lat="45.78767" lon="11.7188751"><ele>127.0</ele><time>2026-04-26T15:49:12.394Z</time></trkpt><trkpt lat="45.7876241" lon="11.7189743"><ele>127.0</ele><time>2026-04-26T15:49:13.395Z</time></trkpt><trkpt lat="45.7875836" lon="11.7190793"><ele>127.0</ele><time>2026-04-26T15:49:14.396Z</time></trkpt><trkpt lat="45.7875421" lon="11.7191942"><ele>127.0</ele><time>2026-04-26T15:49:15.395Z</time></trkpt><trkpt lat="45.787451" lon="11.7194569"><ele>127.0</ele><time>2026-04-26T15:49:17.393Z</time></trkpt><trkpt lat="45.7874004" lon="11.719607"><ele>125.5</ele><time>2026-04-26T15:49:18.394Z</time></trkpt><trkpt lat="45.7873432" lon="11.7197723"><ele>124.0</ele><time>2026-04-26T15:49:19.393Z</time></trkpt><trkpt lat="45.7872814" lon="11.7199479"><ele>122.5</ele><time>2026-04-26T15:49:20.393Z</time></trkpt><trkpt lat="45.78722" lon="11.7201131"><ele>121.0</ele><time>2026-04-26T15:49:21.393Z</time></trkpt><trkpt lat="45.7871597" lon="11.7202677"><ele>120.25</ele><time>2026-04-26T15:49:22.393Z</time></trkpt><trkpt lat="45.787095" lon="11.7204072"><ele>119.5</ele><time>2026-04-26T15:49:23.393Z</time></trkpt><trkpt lat="45.787019" lon="11.7205219"><ele>118.75</ele><time>2026-04-26T15:49:24.395Z</time></trkpt><trkpt lat="45.7869338" lon="11.7206201"><ele>118.0</ele><time>2026-04-26T15:49:25.396Z</time></trkpt><trkpt lat="45.7868347" lon="11.7207058"><ele>119.75</ele><time>2026-04-26T15:49:26.394Z</time></trkpt><trkpt lat="45.7867239" lon="11.7207717"><ele>121.5</ele><time>2026-04-26T15:49:27.395Z</time></trkpt><trkpt lat="45.7866032" lon="11.7208249"><ele>123.25</ele><time>2026-04-26T15:49:28.394Z</time></trkpt><trkpt lat="45.7864738" lon="11.7208701"><ele>125.0</ele><time>2026-04-26T15:49:29.398Z</time></trkpt><trkpt lat="45.7863387" lon="11.7209044"><ele>125.0</ele><time>2026-04-26T15:49:30.395Z</time></trkpt><trkpt lat="45.7862105" lon="11.7209354"><ele>125.0</ele><time>2026-04-26T15:49:31.394Z</time></trkpt><trkpt lat="45.7860896" lon="11.7209638"><ele>125.0</ele><time>2026-04-26T15:49:32.394Z</time></trkpt><trkpt lat="45.7859741" lon="11.7209936"><ele>125.0</ele><time>2026-04-26T15:49:33.395Z</time></trkpt><trkpt lat="45.7858624" lon="11.7210244"><ele>125.75</ele><time>2026-04-26T15:49:34.394Z</time></trkpt><trkpt lat="45.7857493" lon="11.721057"><ele>126.5</ele><time>2026-04-26T15:49:35.395Z</time></trkpt><trkpt lat="45.7855337" lon="11.7211413"><ele>127.25</ele><time>2026-04-26T15:49:37.395Z</time></trkpt><trkpt lat="45.7854341" lon="11.7211978"><ele>128.0</ele><time>2026-04-26T15:49:38.394Z</time></trkpt><trkpt lat="45.7853387" lon="11.7212588"><ele>127.0</ele><time>2026-04-26T15:49:39.394Z</time></trkpt><trkpt lat="45.7852455" lon="11.7213143"><ele>126.00000000000001</ele><time>2026-04-26T15:49:40.395Z</time></trkpt><trkpt lat="45.7851504" lon="11.7213634"><ele>125.00000000000001</ele><time>2026-04-26T15:49:41.394Z</time></trkpt><trkpt lat="45.7850464" lon="11.7214023"><ele>124.0</ele><time>2026-04-26T15:49:42.397Z</time></trkpt><trkpt lat="45.7849318" lon="11.7214283"><ele>123.0</ele><time>2026-04-26T15:49:43.394Z</time></trkpt><trkpt lat="45.7848059" lon="11.7214362"><ele>123.0</ele><time>2026-04-26T15:49:44.393Z</time></trkpt><trkpt lat="45.7846725" lon="11.7214278"><ele>123.0</ele><time>2026-04-26T15:49:45.393Z</time></trkpt><trkpt lat="45.7845338" lon="11.7214104"><ele>123.0</ele><time>2026-04-26T15:49:46.393Z</time></trkpt><trkpt lat="45.7843953" lon="11.721389"><ele>123.0</ele><time>2026-04-26T15:49:47.393Z</time></trkpt><trkpt lat="45.7842547" lon="11.7213662"><ele>123.25</ele><time>2026-04-26T15:49:48.395Z</time></trkpt><trkpt lat="45.784115" lon="11.7213404"><ele>123.5</ele><time>2026-04-26T15:49:49.397Z</time></trkpt><trkpt lat="45.7839838" lon="11.7213169"><ele>123.75</ele><time>2026-04-26T15:49:50.394Z</time></trkpt><trkpt lat="45.7838606" lon="11.7212936"><ele>124.0</ele><time>2026-04-26T15:49:51.397Z</time></trkpt><trkpt lat="45.7837458" lon="11.7212738"><ele>124.0</ele><time>2026-04-26T15:49:52.397Z</time></trkpt><trkpt lat="45.7836393" lon="11.7212562"><ele>124.0</ele><time>2026-04-26T15:49:53.396Z</time></trkpt><trkpt lat="45.7835376" lon="11.7212357"><ele>124.0</ele><time>2026-04-26T15:49:54.394Z</time></trkpt><trkpt lat="45.783435" lon="11.7212157"><ele>124.0</ele><time>2026-04-26T15:49:55.395Z</time></trkpt><trkpt lat="45.7833296" lon="11.7211978"><ele>124.0</ele><time>2026-04-26T15:49:56.393Z</time></trkpt><trkpt lat="45.7831161" lon="11.7211655"><ele>124.33333333333334</ele><time>2026-04-26T15:49:58.395Z</time></trkpt><trkpt lat="45.7830038" lon="11.7211489"><ele>124.66666666666666</ele><time>2026-04-26T15:49:59.395Z</time></trkpt><trkpt lat="45.782782" lon="11.7211181"><ele>125.0</ele><time>2026-04-26T15:50:01.396Z</time></trkpt><trkpt lat="45.7826644" lon="11.7211031"><ele>125.5</ele><time>2026-04-26T15:50:02.394Z</time></trkpt><trkpt lat="45.78254" lon="11.7210882"><ele>126.0</ele><time>2026-04-26T15:50:03.395Z</time></trkpt><trkpt lat="45.7824052" lon="11.7210731"><ele>126.5</ele><time>2026-04-26T15:50:04.394Z</time></trkpt><trkpt lat="45.7822631" lon="11.7210588"><ele>127.0</ele><time>2026-04-26T15:50:05.395Z</time></trkpt><trkpt lat="45.7821259" lon="11.7210447"><ele>127.39999999999999</ele><time>2026-04-26T15:50:06.395Z</time></trkpt><trkpt lat="45.7820014" lon="11.7210313"><ele>127.79999999999998</ele><time>2026-04-26T15:50:07.398Z</time></trkpt><trkpt lat="45.7818952" lon="11.7210226"><ele>128.2</ele><time>2026-04-26T15:50:08.393Z</time></trkpt><trkpt lat="45.7817995" lon="11.7210146"><ele>128.6</ele><time>2026-04-26T15:50:09.395Z</time></trkpt><trkpt lat="45.7817123" lon="11.721006"><ele>129.0</ele><time>2026-04-26T15:50:10.393Z</time></trkpt><trkpt lat="45.7816323" lon="11.7209988"><ele>129.16666666666666</ele><time>2026-04-26T15:50:11.394Z</time></trkpt><trkpt lat="45.7815562" lon="11.720997"><ele>129.33333333333334</ele><time>2026-04-26T15:50:12.397Z</time></trkpt><trkpt lat="45.7814781" lon="11.7210031"><ele>129.5</ele><time>2026-04-26T15:50:13.396Z</time></trkpt><trkpt lat="45.7813962" lon="11.7210157"><ele>129.66666666666669</ele><time>2026-04-26T15:50:14.396Z</time></trkpt><trkpt lat="45.7813131" lon="11.7210328"><ele>129.83333333333334</ele><time>2026-04-26T15:50:15.395Z</time></trkpt><trkpt lat="45.7812359" lon="11.721055"><ele>130.0</ele><time>2026-04-26T15:50:16.395Z</time></trkpt><trkpt lat="45.7811633" lon="11.7210833"><ele>129.6</ele><time>2026-04-26T15:50:17.395Z</time></trkpt><trkpt lat="45.7810166" lon="11.7211392"><ele>129.2</ele><time>2026-04-26T15:50:19.395Z</time></trkpt><trkpt lat="45.7809332" lon="11.7211714"><ele>128.8</ele><time>2026-04-26T15:50:20.395Z</time></trkpt><trkpt lat="45.7808413" lon="11.7212057"><ele>128.4</ele><time>2026-04-26T15:50:21.394Z</time></trkpt><trkpt lat="45.7807459" lon="11.7212369"><ele>128.0</ele><time>2026-04-26T15:50:22.395Z</time></trkpt><trkpt lat="45.7806502" lon="11.7212725"><ele>128.0</ele><time>2026-04-26T15:50:23.394Z</time></trkpt><trkpt lat="45.7805474" lon="11.7213102"><ele>128.0</ele><time>2026-04-26T15:50:24.396Z</time></trkpt><trkpt lat="45.7804362" lon="11.7213547"><ele>128.0</ele><time>2026-04-26T15:50:25.396Z</time></trkpt><trkpt lat="45.7803152" lon="11.7214062"><ele>128.0</ele><time>2026-04-26T15:50:26.396Z</time></trkpt><trkpt lat="45.7801912" lon="11.7214708"><ele>127.25</ele><time>2026-04-26T15:50:27.395Z</time></trkpt><trkpt lat="45.7800747" lon="11.7215488"><ele>126.5</ele><time>2026-04-26T15:50:28.395Z</time></trkpt><trkpt lat="45.7799674" lon="11.7216363"><ele>125.75</ele><time>2026-04-26T15:50:29.395Z</time></trkpt><trkpt lat="45.7798619" lon="11.7217382"><ele>125.0</ele><time>2026-04-26T15:50:30.397Z</time></trkpt><trkpt lat="45.7797538" lon="11.7218568"><ele>125.33333333333333</ele><time>2026-04-26T15:50:31.395Z</time></trkpt><trkpt lat="45.7796408" lon="11.7219876"><ele>125.66666666666666</ele><time>2026-04-26T15:50:32.394Z</time></trkpt><trkpt lat="45.7795222" lon="11.7221299"><ele>126.0</ele><time>2026-04-26T15:50:33.394Z</time></trkpt><trkpt lat="45.7794009" lon="11.7222795"><ele>125.0</ele><time>2026-04-26T15:50:34.396Z</time></trkpt><trkpt lat="45.7792842" lon="11.722422"><ele>124.0</ele><time>2026-04-26T15:50:35.393Z</time></trkpt><trkpt lat="45.7791707" lon="11.72256"><ele>123.0</ele><time>2026-04-26T15:50:36.394Z</time></trkpt><trkpt lat="45.7790574" lon="11.7227021"><ele>122.66666666666666</ele><time>2026-04-26T15:50:37.397Z</time></trkpt><trkpt lat="45.7789477" lon="11.7228435"><ele>122.33333333333333</ele><time>2026-04-26T15:50:38.395Z</time></trkpt><trkpt lat="45.7787295" lon="11.7231214"><ele>122.0</ele><time>2026-04-26T15:50:40.395Z</time></trkpt><trkpt lat="45.7786196" lon="11.7232596"><ele>122.25</ele><time>2026-04-26T15:50:41.395Z</time></trkpt><trkpt lat="45.7785106" lon="11.7233961"><ele>122.5</ele><time>2026-04-26T15:50:42.396Z</time></trkpt><trkpt lat="45.7784035" lon="11.7235289"><ele>122.75</ele><time>2026-04-26T15:50:43.396Z</time></trkpt><trkpt lat="45.7782997" lon="11.7236583"><ele>123.0</ele><time>2026-04-26T15:50:44.396Z</time></trkpt><trkpt lat="45.7781993" lon="11.723783"><ele>122.25</ele><time>2026-04-26T15:50:45.396Z</time></trkpt><trkpt lat="45.7781026" lon="11.7239065"><ele>121.5</ele><time>2026-04-26T15:50:46.396Z</time></trkpt><trkpt lat="45.7780094" lon="11.7240312"><ele>120.75</ele><time>2026-04-26T15:50:47.395Z</time></trkpt><trkpt lat="45.7779164" lon="11.7241543"><ele>120.0</ele><time>2026-04-26T15:50:48.394Z</time></trkpt><trkpt lat="45.7778214" lon="11.7242734"><ele>120.0</ele><time>2026-04-26T15:50:49.393Z</time></trkpt><trkpt lat="45.7777241" lon="11.7243878"><ele>120.0</ele><time>2026-04-26T15:50:50.395Z</time></trkpt><trkpt lat="45.7776273" lon="11.7245013"><ele>120.0</ele><time>2026-04-26T15:50:51.394Z</time></trkpt><trkpt lat="45.7775319" lon="11.7246179"><ele>120.0</ele><time>2026-04-26T15:50:52.395Z</time></trkpt><trkpt lat="45.7774352" lon="11.7247378"><ele>120.0</ele><time>2026-04-26T15:50:53.394Z</time></trkpt><trkpt lat="45.7773329" lon="11.7248638"><ele>120.0</ele><time>2026-04-26T15:50:54.394Z</time></trkpt><trkpt lat="45.7772279" lon="11.7249955"><ele>120.0</ele><time>2026-04-26T15:50:55.395Z</time></trkpt><trkpt lat="45.7771194" lon="11.7251338"><ele>120.0</ele><time>2026-04-26T15:50:56.394Z</time></trkpt><trkpt lat="45.7770093" lon="11.7252696"><ele>120.0</ele><time>2026-04-26T15:50:57.394Z</time></trkpt><trkpt lat="45.7769247" lon="11.7253763"><ele>120.0</ele><time>2026-04-26T15:50:58.193Z</time></trkpt><trkpt lat="45.7768003" lon="11.7255302"><ele>120.0</ele><time>2026-04-26T15:50:59.393Z</time></trkpt><trkpt lat="45.7766035" lon="11.7257808"><ele>120.0</ele><time>2026-04-26T15:51:01.395Z</time></trkpt><trkpt lat="45.7765036" lon="11.725908"><ele>120.0</ele><time>2026-04-26T15:51:02.395Z</time></trkpt><trkpt lat="45.7763989" lon="11.7260411"><ele>120.0</ele><time>2026-04-26T15:51:03.396Z</time></trkpt><trkpt lat="45.7762877" lon="11.7261788"><ele>120.0</ele><time>2026-04-26T15:51:04.395Z</time></trkpt><trkpt lat="45.7761734" lon="11.7263203"><ele>120.0</ele><time>2026-04-26T15:51:05.394Z</time></trkpt><trkpt lat="45.7760624" lon="11.7264591"><ele>120.0</ele><time>2026-04-26T15:51:06.396Z</time></trkpt><trkpt lat="45.7759562" lon="11.7265917"><ele>120.0</ele><time>2026-04-26T15:51:07.397Z</time></trkpt><trkpt lat="45.775854" lon="11.7267196"><ele>120.0</ele><time>2026-04-26T15:51:08.395Z</time></trkpt><trkpt lat="45.7757521" lon="11.7268486"><ele>119.75</ele><time>2026-04-26T15:51:09.395Z</time></trkpt><trkpt lat="45.775647" lon="11.7269817"><ele>119.5</ele><time>2026-04-26T15:51:10.394Z</time></trkpt><trkpt lat="45.7755366" lon="11.7271155"><ele>119.25</ele><time>2026-04-26T15:51:11.395Z</time></trkpt><trkpt lat="45.7754226" lon="11.7272543"><ele>119.0</ele><time>2026-04-26T15:51:12.396Z</time></trkpt><trkpt lat="45.7753086" lon="11.7273952"><ele>119.0</ele><time>2026-04-26T15:51:13.396Z</time></trkpt><trkpt lat="45.7751995" lon="11.7275316"><ele>119.0</ele><time>2026-04-26T15:51:14.394Z</time></trkpt><trkpt lat="45.7750949" lon="11.7276638"><ele>119.0</ele><time>2026-04-26T15:51:15.396Z</time></trkpt><trkpt lat="45.7749945" lon="11.7277907"><ele>119.0</ele><time>2026-04-26T15:51:16.395Z</time></trkpt><trkpt lat="45.7748966" lon="11.727912"><ele>118.75</ele><time>2026-04-26T15:51:17.393Z</time></trkpt><trkpt lat="45.7748014" lon="11.7280336"><ele>118.5</ele><time>2026-04-26T15:51:18.393Z</time></trkpt><trkpt lat="45.7747054" lon="11.7281551"><ele>118.25</ele><time>2026-04-26T15:51:19.394Z</time></trkpt><trkpt lat="45.7746089" lon="11.7282737"><ele>118.0</ele><time>2026-04-26T15:51:20.394Z</time></trkpt><trkpt lat="45.7744283" lon="11.7285007"><ele>117.4</ele><time>2026-04-26T15:51:22.392Z</time></trkpt><trkpt lat="45.7743387" lon="11.7285984"><ele>116.80000000000001</ele><time>2026-04-26T15:51:23.391Z</time></trkpt><trkpt lat="45.7742439" lon="11.7286735"><ele>116.2</ele><time>2026-04-26T15:51:24.393Z</time></trkpt><trkpt lat="45.7741412" lon="11.7287261"><ele>115.6</ele><time>2026-04-26T15:51:25.393Z</time></trkpt><trkpt lat="45.7740286" lon="11.728758"><ele>115.0</ele><time>2026-04-26T15:51:26.393Z</time></trkpt><trkpt lat="45.7739061" lon="11.7287721"><ele>115.0</ele><time>2026-04-26T15:51:27.396Z</time></trkpt><trkpt lat="45.7737793" lon="11.7287715"><ele>115.0</ele><time>2026-04-26T15:51:28.394Z</time></trkpt><trkpt lat="45.7736558" lon="11.7287685"><ele>115.0</ele><time>2026-04-26T15:51:29.393Z</time></trkpt><trkpt lat="45.7735376" lon="11.7287645"><ele>115.0</ele><time>2026-04-26T15:51:30.395Z</time></trkpt><trkpt lat="45.7734219" lon="11.7287579"><ele>115.2</ele><time>2026-04-26T15:51:31.394Z</time></trkpt><trkpt lat="45.7733076" lon="11.7287489"><ele>115.4</ele><time>2026-04-26T15:51:32.393Z</time></trkpt><trkpt lat="45.7731982" lon="11.7287406"><ele>115.6</ele><time>2026-04-26T15:51:33.394Z</time></trkpt><trkpt lat="45.7730941" lon="11.7287345"><ele>115.8</ele><time>2026-04-26T15:51:34.393Z</time></trkpt><trkpt lat="45.7729944" lon="11.7287369"><ele>116.0</ele><time>2026-04-26T15:51:35.395Z</time></trkpt><trkpt lat="45.7728918" lon="11.7287396"><ele>116.0</ele><time>2026-04-26T15:51:36.393Z</time></trkpt><trkpt lat="45.7727809" lon="11.7287392"><ele>116.0</ele><time>2026-04-26T15:51:37.394Z</time></trkpt><trkpt lat="45.7726596" lon="11.7287391"><ele>116.0</ele><time>2026-04-26T15:51:38.394Z</time></trkpt><trkpt lat="45.7725307" lon="11.728737"><ele>116.0</ele><time>2026-04-26T15:51:39.393Z</time></trkpt><trkpt lat="45.7724046" lon="11.7287316"><ele>115.0</ele><time>2026-04-26T15:51:40.393Z</time></trkpt><trkpt lat="45.7722796" lon="11.7287211"><ele>114.0</ele><time>2026-04-26T15:51:41.394Z</time></trkpt><trkpt lat="45.7720296" lon="11.7286844"><ele>113.0</ele><time>2026-04-26T15:51:43.393Z</time></trkpt><trkpt lat="45.7719145" lon="11.728665"><ele>112.80000000000001</ele><time>2026-04-26T15:51:44.394Z</time></trkpt><trkpt lat="45.7718066" lon="11.7286462"><ele>112.60000000000001</ele><time>2026-04-26T15:51:45.394Z</time></trkpt><trkpt lat="45.7717042" lon="11.7286247"><ele>112.39999999999999</ele><time>2026-04-26T15:51:46.391Z</time></trkpt><trkpt lat="45.7716077" lon="11.7286018"><ele>112.19999999999999</ele><time>2026-04-26T15:51:47.391Z</time></trkpt><trkpt lat="45.7715117" lon="11.7285823"><ele>112.0</ele><time>2026-04-26T15:51:48.394Z</time></trkpt><trkpt lat="45.7714217" lon="11.7285651"><ele>112.00000000000001</ele><time>2026-04-26T15:51:49.391Z</time></trkpt><trkpt lat="45.7713369" lon="11.7285488"><ele>112.0</ele><time>2026-04-26T15:51:50.393Z</time></trkpt><trkpt lat="45.7712545" lon="11.7285299"><ele>112.0</ele><time>2026-04-26T15:51:51.394Z</time></trkpt><trkpt lat="45.7711724" lon="11.7285085"><ele>112.0</ele><time>2026-04-26T15:51:52.393Z</time></trkpt><trkpt lat="45.7710906" lon="11.7284886"><ele>112.00000000000001</ele><time>2026-04-26T15:51:53.394Z</time></trkpt><trkpt lat="45.7710093" lon="11.7284666"><ele>112.0</ele><time>2026-04-26T15:51:54.395Z</time></trkpt><trkpt lat="45.7709269" lon="11.7284448"><ele>112.0</ele><time>2026-04-26T15:51:55.395Z</time></trkpt><trkpt lat="45.7708418" lon="11.7284225"><ele>111.99999999999999</ele><time>2026-04-26T15:51:56.393Z</time></trkpt><trkpt lat="45.77075" lon="11.7284034"><ele>111.99999999999999</ele><time>2026-04-26T15:51:57.393Z</time></trkpt><trkpt lat="45.7706555" lon="11.7283853"><ele>112.0</ele><time>2026-04-26T15:51:58.393Z</time></trkpt><trkpt lat="45.7705654" lon="11.7283665"><ele>112.0</ele><time>2026-04-26T15:51:59.393Z</time></trkpt><trkpt lat="45.7704822" lon="11.7283497"><ele>112.0</ele><time>2026-04-26T15:52:00.394Z</time></trkpt><trkpt lat="45.7704027" lon="11.7283295"><ele>111.99999999999999</ele><time>2026-04-26T15:52:01.393Z</time></trkpt><trkpt lat="45.7703292" lon="11.7283159"><ele>111.99999999999999</ele><time>2026-04-26T15:52:02.393Z</time></trkpt><trkpt lat="45.7701774" lon="11.7282825"><ele>112.0</ele><time>2026-04-26T15:52:04.393Z</time></trkpt><trkpt lat="45.7701006" lon="11.7282692"><ele>112.0</ele><time>2026-04-26T15:52:05.395Z</time></trkpt><trkpt lat="45.7700217" lon="11.7282535"><ele>112.00000000000001</ele><time>2026-04-26T15:52:06.394Z</time></trkpt><trkpt lat="45.7699434" lon="11.7282406"><ele>112.0</ele><time>2026-04-26T15:52:07.396Z</time></trkpt><trkpt lat="45.7698651" lon="11.7282224"><ele>112.0</ele><time>2026-04-26T15:52:08.393Z</time></trkpt><trkpt lat="45.7697942" lon="11.7282016"><ele>112.0</ele><time>2026-04-26T15:52:09.393Z</time></trkpt><trkpt lat="45.769697" lon="11.7281792"><ele>112.00000000000001</ele><time>2026-04-26T15:52:11.391Z</time></trkpt><trkpt lat="45.7696326" lon="11.728165"><ele>112.0</ele><time>2026-04-26T15:52:13.391Z</time></trkpt><trkpt lat="45.7695575" lon="11.7281453"><ele>112.0</ele><time>2026-04-26T15:52:15.193Z</time></trkpt><trkpt lat="45.7694796" lon="11.728131"><ele>111.99999999999999</ele><time>2026-04-26T15:52:16.393Z</time></trkpt><trkpt lat="45.7693978" lon="11.7281157"><ele>111.99999999999999</ele><time>2026-04-26T15:52:17.392Z</time></trkpt><trkpt lat="45.7693046" lon="11.7280971"><ele>112.0</ele><time>2026-04-26T15:52:18.395Z</time></trkpt><trkpt lat="45.7692029" lon="11.7280728"><ele>112.0</ele><time>2026-04-26T15:52:19.392Z</time></trkpt><trkpt lat="45.7691071" lon="11.7280472"><ele>111.75</ele><time>2026-04-26T15:52:20.392Z</time></trkpt><trkpt lat="45.7690138" lon="11.7280239"><ele>111.5</ele><time>2026-04-26T15:52:21.393Z</time></trkpt><trkpt lat="45.768923" lon="11.7280025"><ele>111.25</ele><time>2026-04-26T15:52:22.392Z</time></trkpt><trkpt lat="45.768832" lon="11.7279867"><ele>111.0</ele><time>2026-04-26T15:52:23.393Z</time></trkpt><trkpt lat="45.7686452" lon="11.7279433"><ele>111.0</ele><time>2026-04-26T15:52:25.394Z</time></trkpt><trkpt lat="45.7685481" lon="11.7279195"><ele>111.0</ele><time>2026-04-26T15:52:26.393Z</time></trkpt><trkpt lat="45.7684535" lon="11.7278952"><ele>111.0</ele><time>2026-04-26T15:52:27.392Z</time></trkpt><trkpt lat="45.7683653" lon="11.7278725"><ele>111.0</ele><time>2026-04-26T15:52:28.393Z</time></trkpt><trkpt lat="45.7682828" lon="11.7278532"><ele>111.0</ele><time>2026-04-26T15:52:29.392Z</time></trkpt><trkpt lat="45.7681319" lon="11.7278202"><ele>111.19999999999999</ele><time>2026-04-26T15:52:31.393Z</time></trkpt><trkpt lat="45.76806" lon="11.7278028"><ele>111.39999999999999</ele><time>2026-04-26T15:52:32.392Z</time></trkpt><trkpt lat="45.7679942" lon="11.727786"><ele>111.6</ele><time>2026-04-26T15:52:33.391Z</time></trkpt><trkpt lat="45.7678769" lon="11.72776"><ele>111.8</ele><time>2026-04-26T15:52:35.391Z</time></trkpt><trkpt lat="45.7677503" lon="11.7277326"><ele>112.0</ele><time>2026-04-26T15:52:37.392Z</time></trkpt><trkpt lat="45.7676729" lon="11.7277198"><ele>112.0</ele><time>2026-04-26T15:52:38.391Z</time></trkpt><trkpt lat="45.7675839" lon="11.7276998"><ele>111.99999999999999</ele><time>2026-04-26T15:52:39.391Z</time></trkpt><trkpt lat="45.767484" lon="11.7276768"><ele>111.99999999999999</ele><time>2026-04-26T15:52:40.392Z</time></trkpt><trkpt lat="45.7673764" lon="11.7276541"><ele>112.0</ele><time>2026-04-26T15:52:41.392Z</time></trkpt><trkpt lat="45.7672656" lon="11.727633"><ele>112.0</ele><time>2026-04-26T15:52:42.394Z</time></trkpt><trkpt lat="45.7671624" lon="11.7276115"><ele>112.0</ele><time>2026-04-26T15:52:43.393Z</time></trkpt><trkpt lat="45.7670672" lon="11.7275881"><ele>111.99999999999999</ele><time>2026-04-26T15:52:44.394Z</time></trkpt><trkpt lat="45.7668954" lon="11.7275413"><ele>111.99999999999999</ele><time>2026-04-26T15:52:46.396Z</time></trkpt><trkpt lat="45.7668107" lon="11.7275164"><ele>112.0</ele><time>2026-04-26T15:52:47.393Z</time></trkpt><trkpt lat="45.7667294" lon="11.7274938"><ele>112.0</ele><time>2026-04-26T15:52:48.393Z</time></trkpt><trkpt lat="45.76666" lon="11.7274722"><ele>112.0</ele><time>2026-04-26T15:52:49.394Z</time></trkpt><trkpt lat="45.7665669" lon="11.7274448"><ele>111.99999999999999</ele><time>2026-04-26T15:52:51.395Z</time></trkpt><trkpt lat="45.7664771" lon="11.7274228"><ele>111.99999999999999</ele><time>2026-04-26T15:52:53.395Z</time></trkpt><trkpt lat="45.7663655" lon="11.7273893"><ele>112.0</ele><time>2026-04-26T15:52:55.393Z</time></trkpt><trkpt lat="45.7662772" lon="11.7273654"><ele>112.0</ele><time>2026-04-26T15:52:57.394Z</time></trkpt><trkpt lat="45.7662099" lon="11.727349"><ele>112.0</ele><time>2026-04-26T15:53:00.391Z</time></trkpt><trkpt lat="45.7661302" lon="11.7273324"><ele>111.99999999999999</ele><time>2026-04-26T15:53:03.392Z</time></trkpt><trkpt lat="45.766064" lon="11.7273217"><ele>111.99999999999999</ele><time>2026-04-26T15:53:07.396Z</time></trkpt><trkpt lat="45.7659792" lon="11.7271264"><ele>112.0</ele><time>2026-04-26T15:53:13.395Z</time></trkpt><trkpt lat="45.7659569" lon="11.727033"><ele>112.0</ele><time>2026-04-26T15:53:14.393Z</time></trkpt><trkpt lat="45.7659139" lon="11.7269435"><ele>112.33333333333334</ele><time>2026-04-26T15:53:15.393Z</time></trkpt><trkpt lat="45.7658583" lon="11.7268832"><ele>112.66666666666667</ele><time>2026-04-26T15:53:16.394Z</time></trkpt><trkpt lat="45.7657659" lon="11.7268088"><ele>113.0</ele><time>2026-04-26T15:53:18.393Z</time></trkpt><trkpt lat="45.7657353" lon="11.7267217"><ele>113.33333333333334</ele><time>2026-04-26T15:53:20.394Z</time></trkpt><trkpt lat="45.7657098" lon="11.7265661"><ele>113.66666666666667</ele><time>2026-04-26T15:53:22.395Z</time></trkpt><trkpt lat="45.7656878" lon="11.7264534"><ele>114.0</ele><time>2026-04-26T15:53:23.394Z</time></trkpt><trkpt lat="45.7656681" lon="11.726323"><ele>114.0</ele><time>2026-04-26T15:53:24.393Z</time></trkpt><trkpt lat="45.7656483" lon="11.7261828"><ele>114.0</ele><time>2026-04-26T15:53:25.393Z</time></trkpt><trkpt lat="45.7656298" lon="11.7260512"><ele>114.0</ele><time>2026-04-26T15:53:26.393Z</time></trkpt><trkpt lat="45.7656127" lon="11.7259279"><ele>114.0</ele><time>2026-04-26T15:53:27.394Z</time></trkpt><trkpt lat="45.7655965" lon="11.7258018"><ele>114.0</ele><time>2026-04-26T15:53:28.394Z</time></trkpt><trkpt lat="45.7655641" lon="11.7255464"><ele>113.6</ele><time>2026-04-26T15:53:30.394Z</time></trkpt><trkpt lat="45.7655479" lon="11.7254188"><ele>113.2</ele><time>2026-04-26T15:53:31.396Z</time></trkpt><trkpt lat="45.7655312" lon="11.7252914"><ele>112.79999999999998</ele><time>2026-04-26T15:53:32.395Z</time></trkpt><trkpt lat="45.7655155" lon="11.7251638"><ele>112.39999999999999</ele><time>2026-04-26T15:53:33.396Z</time></trkpt><trkpt lat="45.7654989" lon="11.7250361"><ele>112.0</ele><time>2026-04-26T15:53:34.395Z</time></trkpt><trkpt lat="45.7654808" lon="11.7249085"><ele>112.00000000000001</ele><time>2026-04-26T15:53:35.396Z</time></trkpt><trkpt lat="45.7654633" lon="11.7247799"><ele>112.0</ele><time>2026-04-26T15:53:36.395Z</time></trkpt><trkpt lat="45.7654472" lon="11.7246502"><ele>112.0</ele><time>2026-04-26T15:53:37.394Z</time></trkpt><trkpt lat="45.7654308" lon="11.7245225"><ele>112.0</ele><time>2026-04-26T15:53:38.393Z</time></trkpt><trkpt lat="45.7654156" lon="11.7244013"><ele>112.00000000000001</ele><time>2026-04-26T15:53:39.394Z</time></trkpt><trkpt lat="45.7654007" lon="11.7242756"><ele>112.0</ele><time>2026-04-26T15:53:40.395Z</time></trkpt><trkpt lat="45.7653836" lon="11.7241482"><ele>112.19999999999999</ele><time>2026-04-26T15:53:41.396Z</time></trkpt><trkpt lat="45.7653658" lon="11.7240294"><ele>112.39999999999999</ele><time>2026-04-26T15:53:42.394Z</time></trkpt><trkpt lat="45.7653505" lon="11.7239141"><ele>112.60000000000001</ele><time>2026-04-26T15:53:43.393Z</time></trkpt><trkpt lat="45.765335" lon="11.7237923"><ele>112.80000000000001</ele><time>2026-04-26T15:53:44.393Z</time></trkpt><trkpt lat="45.7653174" lon="11.7236511"><ele>113.0</ele><time>2026-04-26T15:53:45.394Z</time></trkpt><trkpt lat="45.7652918" lon="11.7234907"><ele>113.33333333333333</ele><time>2026-04-26T15:53:46.393Z</time></trkpt><trkpt lat="45.7652576" lon="11.7232999"><ele>113.66666666666666</ele><time>2026-04-26T15:53:47.395Z</time></trkpt><trkpt lat="45.7652313" lon="11.7230763"><ele>114.0</ele><time>2026-04-26T15:53:48.392Z</time></trkpt><trkpt lat="45.7652104" lon="11.7228445"><ele>113.66666666666666</ele><time>2026-04-26T15:53:49.393Z</time></trkpt><trkpt lat="45.7651676" lon="11.7224356"><ele>113.33333333333333</ele><time>2026-04-26T15:53:51.393Z</time></trkpt><trkpt lat="45.7651457" lon="11.7222515"><ele>113.0</ele><time>2026-04-26T15:53:52.393Z</time></trkpt><trkpt lat="45.7651239" lon="11.7220733"><ele>113.0</ele><time>2026-04-26T15:53:53.394Z</time></trkpt><trkpt lat="45.7651037" lon="11.7219016"><ele>113.0</ele><time>2026-04-26T15:53:54.397Z</time></trkpt><trkpt lat="45.7650831" lon="11.7217384"><ele>113.0</ele><time>2026-04-26T15:53:55.394Z</time></trkpt><trkpt lat="45.7650635" lon="11.7215769"><ele>113.0</ele><time>2026-04-26T15:53:56.395Z</time></trkpt><trkpt lat="45.7650451" lon="11.7214112"><ele>113.0</ele><time>2026-04-26T15:53:57.395Z</time></trkpt><trkpt lat="45.7650205" lon="11.7212352"><ele>113.0</ele><time>2026-04-26T15:53:58.396Z</time></trkpt><trkpt lat="45.7649959" lon="11.721048"><ele>113.0</ele><time>2026-04-26T15:53:59.394Z</time></trkpt><trkpt lat="45.7649705" lon="11.7208468"><ele>113.0</ele><time>2026-04-26T15:54:00.395Z</time></trkpt><trkpt lat="45.7649425" lon="11.7206292"><ele>112.5</ele><time>2026-04-26T15:54:01.395Z</time></trkpt><trkpt lat="45.764885" lon="11.7201807"><ele>112.0</ele><time>2026-04-26T15:54:03.395Z</time></trkpt><trkpt lat="45.7648573" lon="11.7199735"><ele>112.0</ele><time>2026-04-26T15:54:04.395Z</time></trkpt><trkpt lat="45.7648335" lon="11.7197764"><ele>112.0</ele><time>2026-04-26T15:54:05.393Z</time></trkpt><trkpt lat="45.764812" lon="11.7195879"><ele>112.0</ele><time>2026-04-26T15:54:06.395Z</time></trkpt><trkpt lat="45.7647907" lon="11.7193973"><ele>112.0</ele><time>2026-04-26T15:54:07.398Z</time></trkpt><trkpt lat="45.7647694" lon="11.7191998"><ele>111.66666666666667</ele><time>2026-04-26T15:54:08.396Z</time></trkpt><trkpt lat="45.7647494" lon="11.719003"><ele>111.33333333333334</ele><time>2026-04-26T15:54:09.395Z</time></trkpt><trkpt lat="45.7647289" lon="11.7188025"><ele>111.0</ele><time>2026-04-26T15:54:10.395Z</time></trkpt><trkpt lat="45.76468" lon="11.7183742"><ele>111.0</ele><time>2026-04-26T15:54:12.394Z</time></trkpt><trkpt lat="45.7646517" lon="11.7181606"><ele>111.0</ele><time>2026-04-26T15:54:13.394Z</time></trkpt><trkpt lat="45.7646182" lon="11.7179597"><ele>111.0</ele><time>2026-04-26T15:54:14.394Z</time></trkpt><trkpt lat="45.7645776" lon="11.7177675"><ele>111.0</ele><time>2026-04-26T15:54:15.392Z</time></trkpt><trkpt lat="45.7645264" lon="11.7175748"><ele>110.75</ele><time>2026-04-26T15:54:16.392Z</time></trkpt><trkpt lat="45.7644632" lon="11.7173902"><ele>110.5</ele><time>2026-04-26T15:54:17.394Z</time></trkpt><trkpt lat="45.7643956" lon="11.7172162"><ele>110.25</ele><time>2026-04-26T15:54:18.395Z</time></trkpt><trkpt lat="45.7643258" lon="11.7170469"><ele>110.0</ele><time>2026-04-26T15:54:19.395Z</time></trkpt><trkpt lat="45.7642527" lon="11.7168774"><ele>110.0</ele><time>2026-04-26T15:54:20.395Z</time></trkpt><trkpt lat="45.7641762" lon="11.7167027"><ele>110.0</ele><time>2026-04-26T15:54:21.397Z</time></trkpt><trkpt lat="45.7640966" lon="11.7165256"><ele>110.0</ele><time>2026-04-26T15:54:22.397Z</time></trkpt><trkpt lat="45.7640194" lon="11.7163582"><ele>110.0</ele><time>2026-04-26T15:54:23.395Z</time></trkpt><trkpt lat="45.7639453" lon="11.7161998"><ele>110.25</ele><time>2026-04-26T15:54:24.396Z</time></trkpt><trkpt lat="45.7638729" lon="11.7160494"><ele>110.5</ele><time>2026-04-26T15:54:25.394Z</time></trkpt><trkpt lat="45.7638031" lon="11.7159017"><ele>110.75</ele><time>2026-04-26T15:54:26.394Z</time></trkpt><trkpt lat="45.7637372" lon="11.7157534"><ele>111.0</ele><time>2026-04-26T15:54:27.395Z</time></trkpt><trkpt lat="45.7636698" lon="11.7155999"><ele>111.0</ele><time>2026-04-26T15:54:28.393Z</time></trkpt><trkpt lat="45.7636011" lon="11.7154474"><ele>111.0</ele><time>2026-04-26T15:54:29.395Z</time></trkpt><trkpt lat="45.7635364" lon="11.7153031"><ele>111.0</ele><time>2026-04-26T15:54:30.394Z</time></trkpt><trkpt lat="45.7634746" lon="11.7151673"><ele>111.0</ele><time>2026-04-26T15:54:31.395Z</time></trkpt><trkpt lat="45.7633589" lon="11.7149197"><ele>111.16666666666667</ele><time>2026-04-26T15:54:33.394Z</time></trkpt><trkpt lat="45.7633088" lon="11.7148092"><ele>111.33333333333334</ele><time>2026-04-26T15:54:34.396Z</time></trkpt><trkpt lat="45.7632732" lon="11.7147264"><ele>111.5</ele><time>2026-04-26T15:54:35.196Z</time></trkpt><trkpt lat="45.763231" lon="11.7146235"><ele>111.66666666666667</ele><time>2026-04-26T15:54:36.394Z</time></trkpt><trkpt lat="45.7631786" lon="11.71449"><ele>111.83333333333334</ele><time>2026-04-26T15:54:38.393Z</time></trkpt><trkpt lat="45.7631409" lon="11.7143808"><ele>112.0</ele><time>2026-04-26T15:54:40.393Z</time></trkpt><trkpt lat="45.7631177" lon="11.7142583"><ele>112.0</ele><time>2026-04-26T15:54:43.394Z</time></trkpt><trkpt lat="45.7631238" lon="11.7140495"><ele>111.99999999999999</ele><time>2026-04-26T15:54:45.397Z</time></trkpt><trkpt lat="45.7631153" lon="11.7139492"><ele>111.99999999999999</ele><time>2026-04-26T15:54:46.395Z</time></trkpt><trkpt lat="45.7630417" lon="11.7138154"><ele>112.0</ele><time>2026-04-26T15:54:48.394Z</time></trkpt><trkpt lat="45.7629824" lon="11.7137712"><ele>112.0</ele><time>2026-04-26T15:54:49.395Z</time></trkpt><trkpt lat="45.7629157" lon="11.7137252"><ele>112.0</ele><time>2026-04-26T15:54:50.394Z</time></trkpt><trkpt lat="45.7628496" lon="11.7136659"><ele>112.0</ele><time>2026-04-26T15:54:51.394Z</time></trkpt><trkpt lat="45.7627877" lon="11.7135855"><ele>112.0</ele><time>2026-04-26T15:54:52.395Z</time></trkpt><trkpt lat="45.762686" lon="11.7133448"><ele>112.0</ele><time>2026-04-26T15:54:54.395Z</time></trkpt><trkpt lat="45.7626301" lon="11.7132052"><ele>111.6</ele><time>2026-04-26T15:54:55.394Z</time></trkpt><trkpt lat="45.7625677" lon="11.7130622"><ele>111.19999999999999</ele><time>2026-04-26T15:54:56.395Z</time></trkpt><trkpt lat="45.7625083" lon="11.7129287"><ele>110.8</ele><time>2026-04-26T15:54:57.395Z</time></trkpt><trkpt lat="45.7624521" lon="11.7128009"><ele>110.4</ele><time>2026-04-26T15:54:58.395Z</time></trkpt><trkpt lat="45.7623942" lon="11.7126729"><ele>110.0</ele><time>2026-04-26T15:54:59.394Z</time></trkpt><trkpt lat="45.7623332" lon="11.7125399"><ele>110.0</ele><time>2026-04-26T15:55:00.393Z</time></trkpt><trkpt lat="45.7622675" lon="11.7123944"><ele>110.0</ele><time>2026-04-26T15:55:01.394Z</time></trkpt><trkpt lat="45.7621962" lon="11.7122354"><ele>110.0</ele><time>2026-04-26T15:55:02.393Z</time></trkpt><trkpt lat="45.7621186" lon="11.712063"><ele>110.0</ele><time>2026-04-26T15:55:03.394Z</time></trkpt><trkpt lat="45.7620397" lon="11.7118853"><ele>110.0</ele><time>2026-04-26T15:55:04.393Z</time></trkpt><trkpt lat="45.7619646" lon="11.7117157"><ele>110.0</ele><time>2026-04-26T15:55:05.393Z</time></trkpt><trkpt lat="45.7618926" lon="11.7115522"><ele>110.0</ele><time>2026-04-26T15:55:06.395Z</time></trkpt><trkpt lat="45.761823" lon="11.7113889"><ele>110.0</ele><time>2026-04-26T15:55:07.396Z</time></trkpt><trkpt lat="45.761752" lon="11.711222"><ele>110.25</ele><time>2026-04-26T15:55:08.395Z</time></trkpt><trkpt lat="45.76168" lon="11.7110578"><ele>110.5</ele><time>2026-04-26T15:55:09.395Z</time></trkpt><trkpt lat="45.7616077" lon="11.7108932"><ele>110.75</ele><time>2026-04-26T15:55:10.394Z</time></trkpt><trkpt lat="45.7615385" lon="11.7107325"><ele>111.0</ele><time>2026-04-26T15:55:11.393Z</time></trkpt><trkpt lat="45.7614729" lon="11.7105797"><ele>111.0</ele><time>2026-04-26T15:55:12.395Z</time></trkpt><trkpt lat="45.7614049" lon="11.7104269"><ele>111.0</ele><time>2026-04-26T15:55:13.395Z</time></trkpt><trkpt lat="45.7612506" lon="11.7100737"><ele>111.0</ele><time>2026-04-26T15:55:15.397Z</time></trkpt><trkpt lat="45.761161" lon="11.7098717"><ele>111.0</ele><time>2026-04-26T15:55:16.393Z</time></trkpt><trkpt lat="45.7610703" lon="11.7096663"><ele>111.0</ele><time>2026-04-26T15:55:17.394Z</time></trkpt><trkpt lat="45.7609857" lon="11.7094709"><ele>111.0</ele><time>2026-04-26T15:55:18.394Z</time></trkpt><trkpt lat="45.7609038" lon="11.7092863"><ele>110.5</ele><time>2026-04-26T15:55:19.396Z</time></trkpt><trkpt lat="45.7608269" lon="11.709111"><ele>110.0</ele><time>2026-04-26T15:55:20.393Z</time></trkpt><trkpt lat="45.7607543" lon="11.708943"><ele>109.5</ele><time>2026-04-26T15:55:21.396Z</time></trkpt><trkpt lat="45.7606869" lon="11.7087821"><ele>109.0</ele><time>2026-04-26T15:55:22.393Z</time></trkpt><trkpt lat="45.7606217" lon="11.7086282"><ele>108.75</ele><time>2026-04-26T15:55:23.393Z</time></trkpt><trkpt lat="45.7605546" lon="11.7084765"><ele>108.5</ele><time>2026-04-26T15:55:24.397Z</time></trkpt><trkpt lat="45.760488" lon="11.7083278"><ele>108.25</ele><time>2026-04-26T15:55:25.396Z</time></trkpt><trkpt lat="45.7604222" lon="11.7081756"><ele>108.0</ele><time>2026-04-26T15:55:26.394Z</time></trkpt><trkpt lat="45.7603583" lon="11.7080217"><ele>108.0</ele><time>2026-04-26T15:55:27.393Z</time></trkpt><trkpt lat="45.7602887" lon="11.7078672"><ele>108.0</ele><time>2026-04-26T15:55:28.392Z</time></trkpt><trkpt lat="45.7602041" lon="11.7077061"><ele>108.0</ele><time>2026-04-26T15:55:29.394Z</time></trkpt><trkpt lat="45.7601169" lon="11.7075308"><ele>108.0</ele><time>2026-04-26T15:55:30.394Z</time></trkpt><trkpt lat="45.7600364" lon="11.7073498"><ele>108.0</ele><time>2026-04-26T15:55:31.394Z</time></trkpt><trkpt lat="45.7599598" lon="11.7071691"><ele>108.0</ele><time>2026-04-26T15:55:32.398Z</time></trkpt><trkpt lat="45.7598838" lon="11.7069856"><ele>108.0</ele><time>2026-04-26T15:55:33.395Z</time></trkpt><trkpt lat="45.7598054" lon="11.7067968"><ele>108.0</ele><time>2026-04-26T15:55:34.396Z</time></trkpt><trkpt lat="45.7596511" lon="11.7064261"><ele>108.0</ele><time>2026-04-26T15:55:36.398Z</time></trkpt><trkpt lat="45.7595798" lon="11.7062551"><ele>108.0</ele><time>2026-04-26T15:55:37.395Z</time></trkpt><trkpt lat="45.7595137" lon="11.7060958"><ele>108.2</ele><time>2026-04-26T15:55:38.393Z</time></trkpt><trkpt lat="45.7594516" lon="11.7059515"><ele>108.4</ele><time>2026-04-26T15:55:39.395Z</time></trkpt><trkpt lat="45.7593918" lon="11.7058176"><ele>108.60000000000001</ele><time>2026-04-26T15:55:40.394Z</time></trkpt><trkpt lat="45.7593365" lon="11.7056918"><ele>108.80000000000001</ele><time>2026-04-26T15:55:41.395Z</time></trkpt><trkpt lat="45.7592836" lon="11.7055771"><ele>109.0</ele><time>2026-04-26T15:55:42.394Z</time></trkpt><trkpt lat="45.7592377" lon="11.7054758"><ele>108.66666666666667</ele><time>2026-04-26T15:55:43.394Z</time></trkpt><trkpt lat="45.7592021" lon="11.705383"><ele>108.33333333333334</ele><time>2026-04-26T15:55:44.394Z</time></trkpt><trkpt lat="45.7591721" lon="11.7052972"><ele>108.0</ele><time>2026-04-26T15:55:45.398Z</time></trkpt><trkpt lat="45.7591422" lon="11.7052151"><ele>107.66666666666666</ele><time>2026-04-26T15:55:46.394Z</time></trkpt><trkpt lat="45.7591146" lon="11.7051146"><ele>107.33333333333333</ele><time>2026-04-26T15:55:47.393Z</time></trkpt><trkpt lat="45.7590794" lon="11.7049962"><ele>107.0</ele><time>2026-04-26T15:55:48.393Z</time></trkpt><trkpt lat="45.759017" lon="11.7048919"><ele>107.0</ele><time>2026-04-26T15:55:49.393Z</time></trkpt><trkpt lat="45.758924" lon="11.7048058"><ele>107.0</ele><time>2026-04-26T15:55:50.392Z</time></trkpt><trkpt lat="45.7588086" lon="11.7047201"><ele>107.0</ele><time>2026-04-26T15:55:51.391Z</time></trkpt><trkpt lat="45.7586784" lon="11.704622"><ele>107.0</ele><time>2026-04-26T15:55:52.395Z</time></trkpt><trkpt lat="45.7585374" lon="11.7045244"><ele>107.0</ele><time>2026-04-26T15:55:53.393Z</time></trkpt><trkpt lat="45.7583887" lon="11.7044342"><ele>107.0</ele><time>2026-04-26T15:55:54.393Z</time></trkpt><trkpt lat="45.7582456" lon="11.7043487"><ele>107.0</ele><time>2026-04-26T15:55:55.397Z</time></trkpt><trkpt lat="45.7579808" lon="11.7041884"><ele>107.0</ele><time>2026-04-26T15:55:57.396Z</time></trkpt><trkpt lat="45.7578382" lon="11.7041117"><ele>107.0</ele><time>2026-04-26T15:55:58.395Z</time></trkpt><trkpt lat="45.7576899" lon="11.7040278"><ele>107.0</ele><time>2026-04-26T15:55:59.395Z</time></trkpt><trkpt lat="45.7575487" lon="11.7039376"><ele>106.75</ele><time>2026-04-26T15:56:00.397Z</time></trkpt><trkpt lat="45.7574128" lon="11.7038555"><ele>106.5</ele><time>2026-04-26T15:56:01.397Z</time></trkpt><trkpt lat="45.7572738" lon="11.7037759"><ele>106.25</ele><time>2026-04-26T15:56:02.396Z</time></trkpt><trkpt lat="45.7571339" lon="11.7036929"><ele>106.0</ele><time>2026-04-26T15:56:03.396Z</time></trkpt><trkpt lat="45.7569872" lon="11.7036085"><ele>106.0</ele><time>2026-04-26T15:56:04.395Z</time></trkpt><trkpt lat="45.756835" lon="11.7035238"><ele>106.0</ele><time>2026-04-26T15:56:05.396Z</time></trkpt><trkpt lat="45.7566849" lon="11.703443"><ele>106.0</ele><time>2026-04-26T15:56:06.396Z</time></trkpt><trkpt lat="45.7565408" lon="11.7033661"><ele>106.0</ele><time>2026-04-26T15:56:07.397Z</time></trkpt><trkpt lat="45.7563978" lon="11.703297"><ele>106.0</ele><time>2026-04-26T15:56:08.396Z</time></trkpt><trkpt lat="45.7562475" lon="11.7032355"><ele>106.0</ele><time>2026-04-26T15:56:09.394Z</time></trkpt><trkpt lat="45.7560862" lon="11.7031879"><ele>105.66666666666667</ele><time>2026-04-26T15:56:10.396Z</time></trkpt><trkpt lat="45.7559146" lon="11.7031505"><ele>105.33333333333334</ele><time>2026-04-26T15:56:11.394Z</time></trkpt><trkpt lat="45.755744" lon="11.7031208"><ele>105.0</ele><time>2026-04-26T15:56:12.396Z</time></trkpt><trkpt lat="45.7555828" lon="11.7030931"><ele>105.0</ele><time>2026-04-26T15:56:13.395Z</time></trkpt><trkpt lat="45.7554347" lon="11.7030677"><ele>105.0</ele><time>2026-04-26T15:56:14.394Z</time></trkpt><trkpt lat="45.755314" lon="11.7030474"><ele>105.0</ele><time>2026-04-26T15:56:15.394Z</time></trkpt><trkpt lat="45.7552221" lon="11.703033"><ele>105.0</ele><time>2026-04-26T15:56:16.395Z</time></trkpt><trkpt lat="45.7550911" lon="11.7030181"><ele>105.0</ele><time>2026-04-26T15:56:19.392Z</time></trkpt><trkpt lat="45.7549771" lon="11.7029896"><ele>105.0</ele><time>2026-04-26T15:56:54.394Z</time></trkpt><trkpt lat="45.7547244" lon="11.7029587"><ele>105.0</ele><time>2026-04-26T15:56:56.393Z</time></trkpt><trkpt lat="45.7545593" lon="11.7029425"><ele>105.0</ele><time>2026-04-26T15:56:57.395Z</time></trkpt><trkpt lat="45.7544092" lon="11.7029273"><ele>105.0</ele><time>2026-04-26T15:56:58.394Z</time></trkpt><trkpt lat="45.7542518" lon="11.7029042"><ele>105.0</ele><time>2026-04-26T15:56:59.393Z</time></trkpt><trkpt lat="45.75408" lon="11.7028774"><ele>104.66666666666666</ele><time>2026-04-26T15:57:00.395Z</time></trkpt><trkpt lat="45.7539001" lon="11.7028535"><ele>104.33333333333333</ele><time>2026-04-26T15:57:01.393Z</time></trkpt><trkpt lat="45.7537181" lon="11.7028317"><ele>104.0</ele><time>2026-04-26T15:57:02.394Z</time></trkpt><trkpt lat="45.7535387" lon="11.7028079"><ele>103.66666666666666</ele><time>2026-04-26T15:57:03.393Z</time></trkpt><trkpt lat="45.7533591" lon="11.702771"><ele>103.33333333333334</ele><time>2026-04-26T15:57:04.392Z</time></trkpt><trkpt lat="45.7531747" lon="11.7027145"><ele>103.0</ele><time>2026-04-26T15:57:05.393Z</time></trkpt><trkpt lat="45.7529868" lon="11.7026373"><ele>102.66666666666667</ele><time>2026-04-26T15:57:06.392Z</time></trkpt><trkpt lat="45.7528129" lon="11.7025581"><ele>102.33333333333334</ele><time>2026-04-26T15:57:07.394Z</time></trkpt><trkpt lat="45.7526494" lon="11.7024826"><ele>102.0</ele><time>2026-04-26T15:57:08.393Z</time></trkpt><trkpt lat="45.7524944" lon="11.7024122"><ele>101.33333333333334</ele><time>2026-04-26T15:57:09.396Z</time></trkpt><trkpt lat="45.7523475" lon="11.7023454"><ele>100.66666666666667</ele><time>2026-04-26T15:57:10.393Z</time></trkpt><trkpt lat="45.7521987" lon="11.7022775"><ele>100.0</ele><time>2026-04-26T15:57:11.395Z</time></trkpt><trkpt lat="45.7520417" lon="11.7022098"><ele>100.0</ele><time>2026-04-26T15:57:12.394Z</time></trkpt><trkpt lat="45.7518849" lon="11.7021428"><ele>100.0</ele><time>2026-04-26T15:57:13.395Z</time></trkpt><trkpt lat="45.7517369" lon="11.7020772"><ele>100.0</ele><time>2026-04-26T15:57:14.396Z</time></trkpt><trkpt lat="45.7515925" lon="11.702014"><ele>100.5</ele><time>2026-04-26T15:57:15.394Z</time></trkpt><trkpt lat="45.7512888" lon="11.7018843"><ele>101.0</ele><time>2026-04-26T15:57:17.396Z</time></trkpt><trkpt lat="45.7511368" lon="11.7018163"><ele>101.0</ele><time>2026-04-26T15:57:18.396Z</time></trkpt><trkpt lat="45.750992" lon="11.7017484"><ele>101.0</ele><time>2026-04-26T15:57:19.394Z</time></trkpt><trkpt lat="45.7508476" lon="11.701673"><ele>101.0</ele><time>2026-04-26T15:57:20.395Z</time></trkpt><trkpt lat="45.7507022" lon="11.7015822"><ele>101.0</ele><time>2026-04-26T15:57:21.393Z</time></trkpt><trkpt lat="45.7505538" lon="11.7014735"><ele>101.0</ele><time>2026-04-26T15:57:22.394Z</time></trkpt><trkpt lat="45.7503995" lon="11.7013479"><ele>101.0</ele><time>2026-04-26T15:57:23.394Z</time></trkpt><trkpt lat="45.7502425" lon="11.7012128"><ele>100.66666666666666</ele><time>2026-04-26T15:57:24.395Z</time></trkpt><trkpt lat="45.7500958" lon="11.7010823"><ele>100.33333333333334</ele><time>2026-04-26T15:57:25.394Z</time></trkpt><trkpt lat="45.7499565" lon="11.7009594"><ele>100.0</ele><time>2026-04-26T15:57:26.394Z</time></trkpt><trkpt lat="45.7498235" lon="11.7008447"><ele>100.0</ele><time>2026-04-26T15:57:27.395Z</time></trkpt><trkpt lat="45.7496961" lon="11.7007341"><ele>100.0</ele><time>2026-04-26T15:57:28.394Z</time></trkpt><trkpt lat="45.7495665" lon="11.7006209"><ele>100.0</ele><time>2026-04-26T15:57:29.392Z</time></trkpt><trkpt lat="45.7494366" lon="11.7005064"><ele>99.66666666666667</ele><time>2026-04-26T15:57:30.392Z</time></trkpt><trkpt lat="45.7493099" lon="11.7003957"><ele>99.33333333333334</ele><time>2026-04-26T15:57:31.394Z</time></trkpt><trkpt lat="45.7491811" lon="11.7002812"><ele>99.0</ele><time>2026-04-26T15:57:32.391Z</time></trkpt><trkpt lat="45.7490505" lon="11.7001568"><ele>99.0</ele><time>2026-04-26T15:57:33.395Z</time></trkpt><trkpt lat="45.7489218" lon="11.7000082"><ele>99.0</ele><time>2026-04-26T15:57:34.394Z</time></trkpt><trkpt lat="45.7487918" lon="11.6998346"><ele>99.0</ele><time>2026-04-26T15:57:35.395Z</time></trkpt><trkpt lat="45.7486635" lon="11.6996459"><ele>98.5</ele><time>2026-04-26T15:57:36.394Z</time></trkpt><trkpt lat="45.7484397" lon="11.6992654"><ele>98.0</ele><time>2026-04-26T15:57:38.395Z</time></trkpt><trkpt lat="45.7483429" lon="11.6990773"><ele>98.0</ele><time>2026-04-26T15:57:39.394Z</time></trkpt><trkpt lat="45.7482543" lon="11.6988865"><ele>98.0</ele><time>2026-04-26T15:57:40.393Z</time></trkpt><trkpt lat="45.7481752" lon="11.6986945"><ele>98.0</ele><time>2026-04-26T15:57:41.393Z</time></trkpt><trkpt lat="45.7481052" lon="11.6985"><ele>97.66666666666666</ele><time>2026-04-26T15:57:42.393Z</time></trkpt><trkpt lat="45.7480427" lon="11.6983039"><ele>97.33333333333334</ele><time>2026-04-26T15:57:43.394Z</time></trkpt><trkpt lat="45.7479885" lon="11.6981025"><ele>97.0</ele><time>2026-04-26T15:57:44.393Z</time></trkpt><trkpt lat="45.7479425" lon="11.6978966"><ele>96.66666666666667</ele><time>2026-04-26T15:57:45.395Z</time></trkpt><trkpt lat="45.7478984" lon="11.6976913"><ele>96.33333333333334</ele><time>2026-04-26T15:57:46.398Z</time></trkpt><trkpt lat="45.747852" lon="11.6974864"><ele>96.0</ele><time>2026-04-26T15:57:47.394Z</time></trkpt><trkpt lat="45.7478067" lon="11.6972814"><ele>96.0</ele><time>2026-04-26T15:57:48.394Z</time></trkpt><trkpt lat="45.747772" lon="11.6971168"><ele>96.0</ele><time>2026-04-26T15:57:49.196Z</time></trkpt><trkpt lat="45.7477172" lon="11.6968634"><ele>96.0</ele><time>2026-04-26T15:57:50.394Z</time></trkpt><trkpt lat="45.7476658" lon="11.6966442"><ele>95.33333333333333</ele><time>2026-04-26T15:57:51.395Z</time></trkpt><trkpt lat="45.7476103" lon="11.6964188"><ele>94.66666666666666</ele><time>2026-04-26T15:57:52.395Z</time></trkpt><trkpt lat="45.7475592" lon="11.6962014"><ele>94.0</ele><time>2026-04-26T15:57:53.394Z</time></trkpt><trkpt lat="45.7475127" lon="11.6959934"><ele>94.0</ele><time>2026-04-26T15:57:54.394Z</time></trkpt><trkpt lat="45.7474685" lon="11.6957899"><ele>94.0</ele><time>2026-04-26T15:57:55.396Z</time></trkpt><trkpt lat="45.7474222" lon="11.695586"><ele>94.0</ele><time>2026-04-26T15:57:56.392Z</time></trkpt><trkpt lat="45.7473727" lon="11.69539"><ele>94.0</ele><time>2026-04-26T15:57:57.398Z</time></trkpt><trkpt lat="45.74726" lon="11.6950153"><ele>94.25</ele><time>2026-04-26T15:57:59.397Z</time></trkpt><trkpt lat="45.7471933" lon="11.694834"><ele>94.5</ele><time>2026-04-26T15:58:00.397Z</time></trkpt><trkpt lat="45.7471132" lon="11.6946551"><ele>94.75</ele><time>2026-04-26T15:58:01.395Z</time></trkpt><trkpt lat="45.7470243" lon="11.694476"><ele>95.0</ele><time>2026-04-26T15:58:02.395Z</time></trkpt><trkpt lat="45.7469282" lon="11.6942929"><ele>94.0</ele><time>2026-04-26T15:58:03.394Z</time></trkpt><trkpt lat="45.7467287" lon="11.6939142"><ele>93.0</ele><time>2026-04-26T15:58:05.395Z</time></trkpt><trkpt lat="45.7466268" lon="11.6937305"><ele>93.0</ele><time>2026-04-26T15:58:06.395Z</time></trkpt><trkpt lat="45.7465674" lon="11.6936232"><ele>93.0</ele><time>2026-04-26T15:58:06.995Z</time></trkpt><trkpt lat="45.7465288" lon="11.6935519"><ele>93.0</ele><time>2026-04-26T15:58:07.396Z</time></trkpt><trkpt lat="45.7464349" lon="11.6933771"><ele>93.0</ele><time>2026-04-26T15:58:08.394Z</time></trkpt><trkpt lat="45.7463385" lon="11.693206"><ele>92.66666666666667</ele><time>2026-04-26T15:58:09.395Z</time></trkpt><trkpt lat="45.7462307" lon="11.6930426"><ele>92.33333333333334</ele><time>2026-04-26T15:58:10.397Z</time></trkpt><trkpt lat="45.7461086" lon="11.6928881"><ele>92.0</ele><time>2026-04-26T15:58:11.396Z</time></trkpt><trkpt lat="45.7459764" lon="11.6927394"><ele>92.0</ele><time>2026-04-26T15:58:12.396Z</time></trkpt><trkpt lat="45.7458395" lon="11.6925893"><ele>92.0</ele><time>2026-04-26T15:58:13.398Z</time></trkpt><trkpt lat="45.7457014" lon="11.6924366"><ele>92.0</ele><time>2026-04-26T15:58:14.395Z</time></trkpt><trkpt lat="45.7455613" lon="11.6922808"><ele>92.0</ele><time>2026-04-26T15:58:15.397Z</time></trkpt><trkpt lat="45.7454189" lon="11.6921215"><ele>92.0</ele><time>2026-04-26T15:58:16.398Z</time></trkpt><trkpt lat="45.745273" lon="11.6919608"><ele>92.0</ele><time>2026-04-26T15:58:17.396Z</time></trkpt><trkpt lat="45.745127" lon="11.6917959"><ele>91.0</ele><time>2026-04-26T15:58:18.395Z</time></trkpt><trkpt lat="45.7448372" lon="11.6914795"><ele>90.0</ele><time>2026-04-26T15:58:20.394Z</time></trkpt><trkpt lat="45.7446982" lon="11.6913271"><ele>90.0</ele><time>2026-04-26T15:58:21.393Z</time></trkpt><trkpt lat="45.74456" lon="11.6911778"><ele>90.0</ele><time>2026-04-26T15:58:22.396Z</time></trkpt><trkpt lat="45.7444231" lon="11.6910308"><ele>90.0</ele><time>2026-04-26T15:58:23.396Z</time></trkpt><trkpt lat="45.7442883" lon="11.6908829"><ele>90.0</ele><time>2026-04-26T15:58:24.396Z</time></trkpt><trkpt lat="45.7441512" lon="11.6907409"><ele>90.0</ele><time>2026-04-26T15:58:25.396Z</time></trkpt><trkpt lat="45.7440103" lon="11.6906053"><ele>90.0</ele><time>2026-04-26T15:58:26.395Z</time></trkpt><trkpt lat="45.7438663" lon="11.690472"><ele>90.0</ele><time>2026-04-26T15:58:27.398Z</time></trkpt><trkpt lat="45.7437243" lon="11.6903394"><ele>90.0</ele><time>2026-04-26T15:58:28.396Z</time></trkpt><trkpt lat="45.7435878" lon="11.6902104"><ele>90.0</ele><time>2026-04-26T15:58:29.396Z</time></trkpt><trkpt lat="45.7434513" lon="11.6900816"><ele>90.0</ele><time>2026-04-26T15:58:30.397Z</time></trkpt><trkpt lat="45.7433111" lon="11.6899543"><ele>90.0</ele><time>2026-04-26T15:58:31.398Z</time></trkpt><trkpt lat="45.7431696" lon="11.6898297"><ele>90.0</ele><time>2026-04-26T15:58:32.396Z</time></trkpt><trkpt lat="45.7430305" lon="11.6897083"><ele>90.0</ele><time>2026-04-26T15:58:33.398Z</time></trkpt><trkpt lat="45.7428963" lon="11.6895978"><ele>90.0</ele><time>2026-04-26T15:58:34.397Z</time></trkpt><trkpt lat="45.7427656" lon="11.6894975"><ele>90.0</ele><time>2026-04-26T15:58:35.399Z</time></trkpt><trkpt lat="45.7426402" lon="11.6894042"><ele>90.0</ele><time>2026-04-26T15:58:36.397Z</time></trkpt><trkpt lat="45.74252" lon="11.6893171"><ele>90.33333333333333</ele><time>2026-04-26T15:58:37.398Z</time></trkpt><trkpt lat="45.7424051" lon="11.689237"><ele>90.66666666666666</ele><time>2026-04-26T15:58:38.395Z</time></trkpt><trkpt lat="45.7422927" lon="11.6891627"><ele>91.0</ele><time>2026-04-26T15:58:39.398Z</time></trkpt><trkpt lat="45.7420614" lon="11.6890152"><ele>91.0</ele><time>2026-04-26T15:58:41.395Z</time></trkpt><trkpt lat="45.7419371" lon="11.6889438"><ele>91.0</ele><time>2026-04-26T15:58:42.397Z</time></trkpt><trkpt lat="45.7418081" lon="11.6888858"><ele>91.0</ele><time>2026-04-26T15:58:43.394Z</time></trkpt><trkpt lat="45.7416703" lon="11.6888437"><ele>91.0</ele><time>2026-04-26T15:58:44.394Z</time></trkpt><trkpt lat="45.74152" lon="11.6888149"><ele>91.0</ele><time>2026-04-26T15:58:45.395Z</time></trkpt><trkpt lat="45.7413587" lon="11.6888061"><ele>91.0</ele><time>2026-04-26T15:58:46.393Z</time></trkpt><trkpt lat="45.7411899" lon="11.68882"><ele>91.0</ele><time>2026-04-26T15:58:47.397Z</time></trkpt><trkpt lat="45.7410162" lon="11.6888518"><ele>91.0</ele><time>2026-04-26T15:58:48.397Z</time></trkpt><trkpt lat="45.7408394" lon="11.6888912"><ele>91.0</ele><time>2026-04-26T15:58:49.397Z</time></trkpt><trkpt lat="45.7406612" lon="11.688935"><ele>91.0</ele><time>2026-04-26T15:58:50.396Z</time></trkpt><trkpt lat="45.7404823" lon="11.688983"><ele>91.0</ele><time>2026-04-26T15:58:51.396Z</time></trkpt><trkpt lat="45.7403023" lon="11.6890324"><ele>91.0</ele><time>2026-04-26T15:58:52.397Z</time></trkpt><trkpt lat="45.7401226" lon="11.6890813"><ele>91.0</ele><time>2026-04-26T15:58:53.396Z</time></trkpt><trkpt lat="45.7399492" lon="11.6891306"><ele>90.66666666666666</ele><time>2026-04-26T15:58:54.399Z</time></trkpt><trkpt lat="45.7397846" lon="11.6891794"><ele>90.33333333333333</ele><time>2026-04-26T15:58:55.397Z</time></trkpt><trkpt lat="45.7396288" lon="11.6892324"><ele>90.0</ele><time>2026-04-26T15:58:56.397Z</time></trkpt><trkpt lat="45.7394818" lon="11.6892928"><ele>90.0</ele><time>2026-04-26T15:58:57.398Z</time></trkpt><trkpt lat="45.7393435" lon="11.6893604"><ele>90.0</ele><time>2026-04-26T15:58:58.398Z</time></trkpt><trkpt lat="45.7392144" lon="11.6894321"><ele>90.0</ele><time>2026-04-26T15:58:59.398Z</time></trkpt><trkpt lat="45.7390908" lon="11.6895017"><ele>90.0</ele><time>2026-04-26T15:59:00.397Z</time></trkpt><trkpt lat="45.7388275" lon="11.6896461"><ele>90.0</ele><time>2026-04-26T15:59:02.396Z</time></trkpt><trkpt lat="45.738688" lon="11.6897214"><ele>90.0</ele><time>2026-04-26T15:59:03.395Z</time></trkpt><trkpt lat="45.7385453" lon="11.6897996"><ele>90.0</ele><time>2026-04-26T15:59:04.396Z</time></trkpt><trkpt lat="45.7384065" lon="11.6898553"><ele>90.0</ele><time>2026-04-26T15:59:05.395Z</time></trkpt><trkpt lat="45.7382642" lon="11.6898991"><ele>90.0</ele><time>2026-04-26T15:59:06.396Z</time></trkpt><trkpt lat="45.7381197" lon="11.6899419"><ele>90.0</ele><time>2026-04-26T15:59:07.396Z</time></trkpt><trkpt lat="45.7379768" lon="11.6899734"><ele>90.0</ele><time>2026-04-26T15:59:08.395Z</time></trkpt><trkpt lat="45.7378389" lon="11.6899915"><ele>90.0</ele><time>2026-04-26T15:59:09.395Z</time></trkpt><trkpt lat="45.7377032" lon="11.689985"><ele>90.0</ele><time>2026-04-26T15:59:10.395Z</time></trkpt><trkpt lat="45.7375666" lon="11.6899412"><ele>90.0</ele><time>2026-04-26T15:59:11.397Z</time></trkpt><trkpt lat="45.7374566" lon="11.689882"><ele>90.0</ele><time>2026-04-26T15:59:12.198Z</time></trkpt><trkpt lat="45.7372893" lon="11.6897563"><ele>90.0</ele><time>2026-04-26T15:59:13.397Z</time></trkpt><trkpt lat="45.7371469" lon="11.6896341"><ele>90.0</ele><time>2026-04-26T15:59:14.397Z</time></trkpt><trkpt lat="45.7370113" lon="11.6895124"><ele>90.0</ele><time>2026-04-26T15:59:15.396Z</time></trkpt><trkpt lat="45.7368794" lon="11.6893978"><ele>90.0</ele><time>2026-04-26T15:59:16.395Z</time></trkpt><trkpt lat="45.7367419" lon="11.689292"><ele>90.0</ele><time>2026-04-26T15:59:17.395Z</time></trkpt><trkpt lat="45.7365971" lon="11.6891991"><ele>90.0</ele><time>2026-04-26T15:59:18.397Z</time></trkpt><trkpt lat="45.7364555" lon="11.6891185"><ele>90.0</ele><time>2026-04-26T15:59:19.395Z</time></trkpt><trkpt lat="45.7363202" lon="11.6890435"><ele>90.0</ele><time>2026-04-26T15:59:20.396Z</time></trkpt><trkpt lat="45.7361879" lon="11.6889671"><ele>90.0</ele><time>2026-04-26T15:59:21.396Z</time></trkpt><trkpt lat="45.7359196" lon="11.6888131"><ele>90.0</ele><time>2026-04-26T15:59:23.395Z</time></trkpt><trkpt lat="45.7357949" lon="11.6887394"><ele>90.0</ele><time>2026-04-26T15:59:24.397Z</time></trkpt><trkpt lat="45.7356793" lon="11.6886613"><ele>90.0</ele><time>2026-04-26T15:59:25.396Z</time></trkpt><trkpt lat="45.7355695" lon="11.6885625"><ele>90.0</ele><time>2026-04-26T15:59:26.396Z</time></trkpt><trkpt lat="45.7354611" lon="11.688435"><ele>90.0</ele><time>2026-04-26T15:59:27.394Z</time></trkpt><trkpt lat="45.7353554" lon="11.6882827"><ele>90.0</ele><time>2026-04-26T15:59:28.395Z</time></trkpt><trkpt lat="45.7352514" lon="11.6881265"><ele>90.0</ele><time>2026-04-26T15:59:29.394Z</time></trkpt><trkpt lat="45.7351527" lon="11.6879775"><ele>90.0</ele><time>2026-04-26T15:59:30.396Z</time></trkpt><trkpt lat="45.7350525" lon="11.6878314"><ele>90.0</ele><time>2026-04-26T15:59:31.394Z</time></trkpt><trkpt lat="45.7349454" lon="11.68769"><ele>89.0</ele><time>2026-04-26T15:59:32.393Z</time></trkpt><trkpt lat="45.7348269" lon="11.6875559"><ele>88.0</ele><time>2026-04-26T15:59:33.394Z</time></trkpt><trkpt lat="45.7346992" lon="11.6874399"><ele>87.0</ele><time>2026-04-26T15:59:34.393Z</time></trkpt><trkpt lat="45.7345705" lon="11.6873501"><ele>86.0</ele><time>2026-04-26T15:59:35.392Z</time></trkpt><trkpt lat="45.7344414" lon="11.6872757"><ele>86.0</ele><time>2026-04-26T15:59:36.394Z</time></trkpt><trkpt lat="45.7343051" lon="11.6872031"><ele>86.0</ele><time>2026-04-26T15:59:37.4Z</time></trkpt><trkpt lat="45.7341616" lon="11.6871277"><ele>86.0</ele><time>2026-04-26T15:59:38.396Z</time></trkpt><trkpt lat="45.7340159" lon="11.6870408"><ele>86.0</ele><time>2026-04-26T15:59:39.395Z</time></trkpt><trkpt lat="45.7338719" lon="11.68694"><ele>86.0</ele><time>2026-04-26T15:59:40.395Z</time></trkpt><trkpt lat="45.7337391" lon="11.6868297"><ele>86.0</ele><time>2026-04-26T15:59:41.394Z</time></trkpt><trkpt lat="45.733614" lon="11.6867191"><ele>86.0</ele><time>2026-04-26T15:59:42.395Z</time></trkpt><trkpt lat="45.7333504" lon="11.6864807"><ele>86.0</ele><time>2026-04-26T15:59:44.394Z</time></trkpt><trkpt lat="45.7332061" lon="11.686348"><ele>86.0</ele><time>2026-04-26T15:59:45.394Z</time></trkpt><trkpt lat="45.7330632" lon="11.6862028"><ele>86.0</ele><time>2026-04-26T15:59:46.394Z</time></trkpt><trkpt lat="45.7329307" lon="11.6860518"><ele>86.0</ele><time>2026-04-26T15:59:47.394Z</time></trkpt><trkpt lat="45.7328076" lon="11.6858974"><ele>85.66666666666667</ele><time>2026-04-26T15:59:48.398Z</time></trkpt><trkpt lat="45.7326904" lon="11.6857495"><ele>85.33333333333333</ele><time>2026-04-26T15:59:49.393Z</time></trkpt><trkpt lat="45.7325747" lon="11.685599"><ele>85.0</ele><time>2026-04-26T15:59:50.394Z</time></trkpt><trkpt lat="45.7324558" lon="11.685443"><ele>85.0</ele><time>2026-04-26T15:59:51.396Z</time></trkpt><trkpt lat="45.7323328" lon="11.6852857"><ele>85.0</ele><time>2026-04-26T15:59:52.393Z</time></trkpt><trkpt lat="45.7322073" lon="11.6851274"><ele>85.0</ele><time>2026-04-26T15:59:53.394Z</time></trkpt><trkpt lat="45.7320828" lon="11.6849693"><ele>85.33333333333333</ele><time>2026-04-26T15:59:54.395Z</time></trkpt><trkpt lat="45.7319608" lon="11.684812"><ele>85.66666666666667</ele><time>2026-04-26T15:59:55.396Z</time></trkpt><trkpt lat="45.7318406" lon="11.6846556"><ele>86.0</ele><time>2026-04-26T15:59:56.392Z</time></trkpt><trkpt lat="45.7317199" lon="11.684503"><ele>86.0</ele><time>2026-04-26T15:59:57.393Z</time></trkpt><trkpt lat="45.7316016" lon="11.6843538"><ele>86.0</ele><time>2026-04-26T15:59:58.393Z</time></trkpt><trkpt lat="45.7314861" lon="11.6842073"><ele>86.0</ele><time>2026-04-26T15:59:59.392Z</time></trkpt><trkpt lat="45.7313713" lon="11.6840631"><ele>86.0</ele><time>2026-04-26T16:00:00.396Z</time></trkpt><trkpt lat="45.7312544" lon="11.683925"><ele>86.0</ele><time>2026-04-26T16:00:01.396Z</time></trkpt><trkpt lat="45.731133" lon="11.6837958"><ele>86.0</ele><time>2026-04-26T16:00:02.394Z</time></trkpt><trkpt lat="45.7310051" lon="11.6836684"><ele>86.0</ele><time>2026-04-26T16:00:03.393Z</time></trkpt><trkpt lat="45.7307386" lon="11.6834238"><ele>86.0</ele><time>2026-04-26T16:00:05.394Z</time></trkpt><trkpt lat="45.7305947" lon="11.6833197"><ele>86.0</ele><time>2026-04-26T16:00:06.393Z</time></trkpt><trkpt lat="45.7304449" lon="11.6832356"><ele>86.0</ele><time>2026-04-26T16:00:07.397Z</time></trkpt><trkpt lat="45.7302925" lon="11.6831677"><ele>86.0</ele><time>2026-04-26T16:00:08.395Z</time></trkpt><trkpt lat="45.7301342" lon="11.6831054"><ele>85.33333333333334</ele><time>2026-04-26T16:00:09.394Z</time></trkpt><trkpt lat="45.7299744" lon="11.6830348"><ele>84.66666666666667</ele><time>2026-04-26T16:00:10.394Z</time></trkpt><trkpt lat="45.7298167" lon="11.682949"><ele>84.0</ele><time>2026-04-26T16:00:11.393Z</time></trkpt><trkpt lat="45.7296616" lon="11.6828545"><ele>83.66666666666667</ele><time>2026-04-26T16:00:12.396Z</time></trkpt><trkpt lat="45.7295066" lon="11.6827579"><ele>83.33333333333334</ele><time>2026-04-26T16:00:13.395Z</time></trkpt><trkpt lat="45.7293531" lon="11.6826618"><ele>83.0</ele><time>2026-04-26T16:00:14.395Z</time></trkpt><trkpt lat="45.7292047" lon="11.6825665"><ele>83.0</ele><time>2026-04-26T16:00:15.394Z</time></trkpt><trkpt lat="45.7290609" lon="11.6824734"><ele>83.0</ele><time>2026-04-26T16:00:16.398Z</time></trkpt><trkpt lat="45.7289196" lon="11.6823839"><ele>83.0</ele><time>2026-04-26T16:00:17.396Z</time></trkpt><trkpt lat="45.7287766" lon="11.682295"><ele>83.0</ele><time>2026-04-26T16:00:18.394Z</time></trkpt><trkpt lat="45.7286311" lon="11.6822048"><ele>83.0</ele><time>2026-04-26T16:00:19.396Z</time></trkpt><trkpt lat="45.7284837" lon="11.6821136"><ele>83.0</ele><time>2026-04-26T16:00:20.394Z</time></trkpt><trkpt lat="45.7283333" lon="11.68202"><ele>83.33333333333334</ele><time>2026-04-26T16:00:21.394Z</time></trkpt><trkpt lat="45.7281816" lon="11.6819254"><ele>83.66666666666667</ele><time>2026-04-26T16:00:22.393Z</time></trkpt><trkpt lat="45.7280299" lon="11.6818313"><ele>84.0</ele><time>2026-04-26T16:00:23.394Z</time></trkpt><trkpt lat="45.7278824" lon="11.6817385"><ele>84.5</ele><time>2026-04-26T16:00:24.395Z</time></trkpt><trkpt lat="45.7276021" lon="11.6815617"><ele>85.0</ele><time>2026-04-26T16:00:26.395Z</time></trkpt><trkpt lat="45.727465" lon="11.6814756"><ele>85.0</ele><time>2026-04-26T16:00:27.396Z</time></trkpt><trkpt lat="45.7273299" lon="11.6813943"><ele>85.0</ele><time>2026-04-26T16:00:28.395Z</time></trkpt><trkpt lat="45.7272" lon="11.6813176"><ele>85.0</ele><time>2026-04-26T16:00:29.395Z</time></trkpt><trkpt lat="45.7270717" lon="11.6812393"><ele>85.0</ele><time>2026-04-26T16:00:30.395Z</time></trkpt><trkpt lat="45.7269636" lon="11.6811715"><ele>85.0</ele><time>2026-04-26T16:00:31.193Z</time></trkpt><trkpt lat="45.7267997" lon="11.6810728"><ele>85.0</ele><time>2026-04-26T16:00:32.395Z</time></trkpt><trkpt lat="45.7266678" lon="11.6809985"><ele>85.0</ele><time>2026-04-26T16:00:33.394Z</time></trkpt><trkpt lat="45.7265441" lon="11.6809231"><ele>85.0</ele><time>2026-04-26T16:00:34.393Z</time></trkpt><trkpt lat="45.7264262" lon="11.6808463"><ele>85.0</ele><time>2026-04-26T16:00:35.394Z</time></trkpt><trkpt lat="45.7263188" lon="11.6807525"><ele>85.0</ele><time>2026-04-26T16:00:36.396Z</time></trkpt><trkpt lat="45.7262228" lon="11.6806503"><ele>85.0</ele><time>2026-04-26T16:00:37.393Z</time></trkpt><trkpt lat="45.7261363" lon="11.6805475"><ele>84.8</ele><time>2026-04-26T16:00:38.394Z</time></trkpt><trkpt lat="45.7260574" lon="11.6804505"><ele>84.6</ele><time>2026-04-26T16:00:39.396Z</time></trkpt><trkpt lat="45.7259877" lon="11.6803648"><ele>84.4</ele><time>2026-04-26T16:00:40.392Z</time></trkpt><trkpt lat="45.7259321" lon="11.6802944"><ele>84.2</ele><time>2026-04-26T16:00:41.394Z</time></trkpt><trkpt lat="45.7258468" lon="11.6801893"><ele>84.0</ele><time>2026-04-26T16:00:43.394Z</time></trkpt><trkpt lat="45.7257904" lon="11.6801185"><ele>84.0</ele><time>2026-04-26T16:00:45.394Z</time></trkpt><trkpt lat="45.725591" lon="11.6799023"><ele>84.0</ele><time>2026-04-26T16:01:53.398Z</time></trkpt><trkpt lat="45.7255051" lon="11.6798201"><ele>84.0</ele><time>2026-04-26T16:01:54.397Z</time></trkpt><trkpt lat="45.7254097" lon="11.6797266"><ele>84.0</ele><time>2026-04-26T16:01:55.395Z</time></trkpt><trkpt lat="45.7253108" lon="11.6796194"><ele>84.0</ele><time>2026-04-26T16:01:56.395Z</time></trkpt><trkpt lat="45.7252189" lon="11.6795106"><ele>84.0</ele><time>2026-04-26T16:01:57.395Z</time></trkpt><trkpt lat="45.7251314" lon="11.679406"><ele>84.0</ele><time>2026-04-26T16:01:58.395Z</time></trkpt><trkpt lat="45.7250394" lon="11.679298"><ele>83.5</ele><time>2026-04-26T16:01:59.393Z</time></trkpt><trkpt lat="45.7249387" lon="11.6791861"><ele>83.0</ele><time>2026-04-26T16:02:00.393Z</time></trkpt><trkpt lat="45.7248284" lon="11.6790653"><ele>82.5</ele><time>2026-04-26T16:02:01.394Z</time></trkpt><trkpt lat="45.7247345" lon="11.6789546"><ele>82.0</ele><time>2026-04-26T16:02:02.197Z</time></trkpt><trkpt lat="45.7245875" lon="11.6787806"><ele>82.0</ele><time>2026-04-26T16:02:03.397Z</time></trkpt><trkpt lat="45.7244697" lon="11.6786414"><ele>82.0</ele><time>2026-04-26T16:02:04.396Z</time></trkpt><trkpt lat="45.7243591" lon="11.6785094"><ele>82.0</ele><time>2026-04-26T16:02:05.396Z</time></trkpt><trkpt lat="45.7241422" lon="11.6782573"><ele>81.5</ele><time>2026-04-26T16:02:07.397Z</time></trkpt><trkpt lat="45.724028" lon="11.6781345"><ele>81.0</ele><time>2026-04-26T16:02:08.396Z</time></trkpt><trkpt lat="45.7239077" lon="11.6780109"><ele>80.5</ele><time>2026-04-26T16:02:09.396Z</time></trkpt><trkpt lat="45.7237833" lon="11.6778942"><ele>80.0</ele><time>2026-04-26T16:02:10.397Z</time></trkpt><trkpt lat="45.7236598" lon="11.6777947"><ele>81.0</ele><time>2026-04-26T16:02:11.396Z</time></trkpt><trkpt lat="45.7235343" lon="11.6777181"><ele>82.0</ele><time>2026-04-26T16:02:12.397Z</time></trkpt><trkpt lat="45.7232578" lon="11.6776651"><ele>83.0</ele><time>2026-04-26T16:02:14.396Z</time></trkpt><trkpt lat="45.7231138" lon="11.6776743"><ele>83.0</ele><time>2026-04-26T16:02:15.396Z</time></trkpt><trkpt lat="45.7229774" lon="11.677693"><ele>83.0</ele><time>2026-04-26T16:02:16.396Z</time></trkpt><trkpt lat="45.7228388" lon="11.6777129"><ele>83.0</ele><time>2026-04-26T16:02:17.394Z</time></trkpt><trkpt lat="45.722691" lon="11.6777307"><ele>83.0</ele><time>2026-04-26T16:02:18.397Z</time></trkpt><trkpt lat="45.7225317" lon="11.677755"><ele>82.0</ele><time>2026-04-26T16:02:19.396Z</time></trkpt><trkpt lat="45.7223608" lon="11.6777847"><ele>81.0</ele><time>2026-04-26T16:02:20.397Z</time></trkpt><trkpt lat="45.7221913" lon="11.677816"><ele>80.0</ele><time>2026-04-26T16:02:21.397Z</time></trkpt><trkpt lat="45.7220229" lon="11.6778489"><ele>80.33333333333334</ele><time>2026-04-26T16:02:22.396Z</time></trkpt><trkpt lat="45.7218496" lon="11.6778875"><ele>80.66666666666667</ele><time>2026-04-26T16:02:23.393Z</time></trkpt><trkpt lat="45.7216771" lon="11.6779362"><ele>81.0</ele><time>2026-04-26T16:02:24.395Z</time></trkpt><trkpt lat="45.7215082" lon="11.6780069"><ele>81.0</ele><time>2026-04-26T16:02:25.393Z</time></trkpt><trkpt lat="45.7213413" lon="11.678102"><ele>81.0</ele><time>2026-04-26T16:02:26.394Z</time></trkpt><trkpt lat="45.7211773" lon="11.6782073"><ele>81.0</ele><time>2026-04-26T16:02:27.395Z</time></trkpt><trkpt lat="45.721025" lon="11.6783163"><ele>81.33333333333333</ele><time>2026-04-26T16:02:28.395Z</time></trkpt><trkpt lat="45.7208808" lon="11.67842"><ele>81.66666666666666</ele><time>2026-04-26T16:02:29.394Z</time></trkpt><trkpt lat="45.7207388" lon="11.6785162"><ele>82.0</ele><time>2026-04-26T16:02:30.394Z</time></trkpt><trkpt lat="45.7205886" lon="11.6785999"><ele>82.0</ele><time>2026-04-26T16:02:31.395Z</time></trkpt><trkpt lat="45.7204281" lon="11.6786683"><ele>82.0</ele><time>2026-04-26T16:02:32.394Z</time></trkpt><trkpt lat="45.720259" lon="11.678725"><ele>82.0</ele><time>2026-04-26T16:02:33.395Z</time></trkpt><trkpt lat="45.7199422" lon="11.6788203"><ele>82.0</ele><time>2026-04-26T16:02:35.394Z</time></trkpt><trkpt lat="45.7198027" lon="11.6788553"><ele>82.0</ele><time>2026-04-26T16:02:36.393Z</time></trkpt><trkpt lat="45.7196743" lon="11.6788569"><ele>82.0</ele><time>2026-04-26T16:02:37.397Z</time></trkpt><trkpt lat="45.719552" lon="11.6788206"><ele>82.0</ele><time>2026-04-26T16:02:38.392Z</time></trkpt><trkpt lat="45.7194326" lon="11.678751"><ele>81.75</ele><time>2026-04-26T16:02:39.394Z</time></trkpt><trkpt lat="45.7193261" lon="11.6786356"><ele>81.5</ele><time>2026-04-26T16:02:40.394Z</time></trkpt><trkpt lat="45.7192425" lon="11.6784997"><ele>81.25</ele><time>2026-04-26T16:02:41.393Z</time></trkpt><trkpt lat="45.7191599" lon="11.6783592"><ele>81.0</ele><time>2026-04-26T16:02:42.398Z</time></trkpt><trkpt lat="45.7190562" lon="11.67823"><ele>81.0</ele><time>2026-04-26T16:02:43.394Z</time></trkpt><trkpt lat="45.7189284" lon="11.6781204"><ele>81.0</ele><time>2026-04-26T16:02:44.397Z</time></trkpt><trkpt lat="45.7187848" lon="11.678033"><ele>81.0</ele><time>2026-04-26T16:02:45.395Z</time></trkpt><trkpt lat="45.7186273" lon="11.6779605"><ele>80.0</ele><time>2026-04-26T16:02:46.396Z</time></trkpt><trkpt lat="45.7184618" lon="11.6778926"><ele>79.0</ele><time>2026-04-26T16:02:47.394Z</time></trkpt><trkpt lat="45.7182932" lon="11.6778318"><ele>78.0</ele><time>2026-04-26T16:02:48.393Z</time></trkpt><trkpt lat="45.7181311" lon="11.6777802"><ele>79.0</ele><time>2026-04-26T16:02:49.393Z</time></trkpt><trkpt lat="45.7179726" lon="11.677739"><ele>80.0</ele><time>2026-04-26T16:02:50.391Z</time></trkpt><trkpt lat="45.7178202" lon="11.6777089"><ele>81.0</ele><time>2026-04-26T16:02:51.395Z</time></trkpt><trkpt lat="45.7176725" lon="11.6776975"><ele>81.0</ele><time>2026-04-26T16:02:52.397Z</time></trkpt><trkpt lat="45.7175439" lon="11.6777072"><ele>81.0</ele><time>2026-04-26T16:02:53.395Z</time></trkpt><trkpt lat="45.7174275" lon="11.6777264"><ele>81.0</ele><time>2026-04-26T16:02:54.396Z</time></trkpt><trkpt lat="45.7172313" lon="11.6777703"><ele>81.0</ele><time>2026-04-26T16:02:56.395Z</time></trkpt><trkpt lat="45.7171512" lon="11.6777914"><ele>80.8</ele><time>2026-04-26T16:02:57.395Z</time></trkpt><trkpt lat="45.7170765" lon="11.6778106"><ele>80.6</ele><time>2026-04-26T16:02:58.394Z</time></trkpt><trkpt lat="45.7170092" lon="11.6778224"><ele>80.4</ele><time>2026-04-26T16:02:59.395Z</time></trkpt><trkpt lat="45.7168989" lon="11.6778515"><ele>80.2</ele><time>2026-04-26T16:03:01.398Z</time></trkpt><trkpt lat="45.7167775" lon="11.6778844"><ele>80.0</ele><time>2026-04-26T16:03:03.395Z</time></trkpt><trkpt lat="45.7167071" lon="11.6778978"><ele>80.0</ele><time>2026-04-26T16:03:04.396Z</time></trkpt><trkpt lat="45.7166338" lon="11.677906"><ele>80.0</ele><time>2026-04-26T16:03:05.396Z</time></trkpt><trkpt lat="45.7165504" lon="11.6779117"><ele>80.0</ele><time>2026-04-26T16:03:06.397Z</time></trkpt><trkpt lat="45.7164609" lon="11.6779163"><ele>80.0</ele><time>2026-04-26T16:03:07.398Z</time></trkpt><trkpt lat="45.7163767" lon="11.6779198"><ele>80.0</ele><time>2026-04-26T16:03:08.398Z</time></trkpt><trkpt lat="45.7162967" lon="11.6779237"><ele>80.0</ele><time>2026-04-26T16:03:09.395Z</time></trkpt><trkpt lat="45.7162176" lon="11.6779256"><ele>80.0</ele><time>2026-04-26T16:03:10.399Z</time></trkpt><trkpt lat="45.7161336" lon="11.6779268"><ele>80.0</ele><time>2026-04-26T16:03:11.395Z</time></trkpt><trkpt lat="45.7160412" lon="11.6779319"><ele>80.0</ele><time>2026-04-26T16:03:12.394Z</time></trkpt><trkpt lat="45.7159352" lon="11.677947"><ele>80.0</ele><time>2026-04-26T16:03:13.393Z</time></trkpt><trkpt lat="45.7158042" lon="11.6779535"><ele>80.0</ele><time>2026-04-26T16:03:14.394Z</time></trkpt><trkpt lat="45.7156451" lon="11.6779466"><ele>79.0</ele><time>2026-04-26T16:03:15.395Z</time></trkpt><trkpt lat="45.7153314" lon="11.6779297"><ele>78.0</ele><time>2026-04-26T16:03:17.196Z</time></trkpt><trkpt lat="45.7151312" lon="11.6779164"><ele>77.33333333333333</ele><time>2026-04-26T16:03:18.396Z</time></trkpt><trkpt lat="45.7149743" lon="11.6778989"><ele>76.66666666666666</ele><time>2026-04-26T16:03:19.397Z</time></trkpt><trkpt lat="45.7148248" lon="11.6778837"><ele>76.0</ele><time>2026-04-26T16:03:20.398Z</time></trkpt><trkpt lat="45.7146805" lon="11.6778714"><ele>76.0</ele><time>2026-04-26T16:03:21.396Z</time></trkpt><trkpt lat="45.7145361" lon="11.6778666"><ele>76.0</ele><time>2026-04-26T16:03:22.395Z</time></trkpt><trkpt lat="45.7143895" lon="11.6778706"><ele>76.0</ele><time>2026-04-26T16:03:23.395Z</time></trkpt><trkpt lat="45.7142489" lon="11.6778825"><ele>76.0</ele><time>2026-04-26T16:03:24.395Z</time></trkpt><trkpt lat="45.7141156" lon="11.6779025"><ele>76.0</ele><time>2026-04-26T16:03:25.398Z</time></trkpt><trkpt lat="45.7139885" lon="11.6779221"><ele>76.0</ele><time>2026-04-26T16:03:26.396Z</time></trkpt><trkpt lat="45.7138634" lon="11.6779423"><ele>76.0</ele><time>2026-04-26T16:03:27.397Z</time></trkpt><trkpt lat="45.7137374" lon="11.6779589"><ele>76.0</ele><time>2026-04-26T16:03:28.396Z</time></trkpt><trkpt lat="45.71361" lon="11.6779691"><ele>76.0</ele><time>2026-04-26T16:03:29.395Z</time></trkpt><trkpt lat="45.7134799" lon="11.6779715"><ele>76.0</ele><time>2026-04-26T16:03:30.397Z</time></trkpt><trkpt lat="45.7133446" lon="11.6779627"><ele>76.0</ele><time>2026-04-26T16:03:31.395Z</time></trkpt><trkpt lat="45.7132042" lon="11.677941"><ele>76.0</ele><time>2026-04-26T16:03:32.395Z</time></trkpt><trkpt lat="45.7130697" lon="11.6779076"><ele>76.0</ele><time>2026-04-26T16:03:33.395Z</time></trkpt><trkpt lat="45.7129434" lon="11.6778672"><ele>76.0</ele><time>2026-04-26T16:03:34.396Z</time></trkpt><trkpt lat="45.7128259" lon="11.6778155"><ele>76.0</ele><time>2026-04-26T16:03:35.395Z</time></trkpt><trkpt lat="45.7127137" lon="11.6777541"><ele>76.0</ele><time>2026-04-26T16:03:36.394Z</time></trkpt><trkpt lat="45.712486" lon="11.6775974"><ele>76.25</ele><time>2026-04-26T16:03:38.393Z</time></trkpt><trkpt lat="45.7123737" lon="11.6775051"><ele>76.5</ele><time>2026-04-26T16:03:39.394Z</time></trkpt><trkpt lat="45.7122678" lon="11.6774118"><ele>76.75</ele><time>2026-04-26T16:03:40.399Z</time></trkpt><trkpt lat="45.7121643" lon="11.6773153"><ele>77.0</ele><time>2026-04-26T16:03:41.396Z</time></trkpt><trkpt lat="45.7120605" lon="11.6772159"><ele>77.0</ele><time>2026-04-26T16:03:42.396Z</time></trkpt><trkpt lat="45.7119979" lon="11.6771566"><ele>77.0</ele><time>2026-04-26T16:03:42.997Z</time></trkpt><trkpt lat="45.7118481" lon="11.6770166"><ele>77.0</ele><time>2026-04-26T16:03:44.394Z</time></trkpt><trkpt lat="45.7117352" lon="11.6769117"><ele>77.0</ele><time>2026-04-26T16:03:45.397Z</time></trkpt><trkpt lat="45.71162" lon="11.6768048"><ele>77.25</ele><time>2026-04-26T16:03:46.396Z</time></trkpt><trkpt lat="45.7115049" lon="11.6766957"><ele>77.5</ele><time>2026-04-26T16:03:47.396Z</time></trkpt><trkpt lat="45.7113928" lon="11.6765853"><ele>77.75</ele><time>2026-04-26T16:03:48.397Z</time></trkpt><trkpt lat="45.7112801" lon="11.6764747"><ele>78.0</ele><time>2026-04-26T16:03:49.396Z</time></trkpt><trkpt lat="45.7111656" lon="11.676366"><ele>78.0</ele><time>2026-04-26T16:03:50.397Z</time></trkpt><trkpt lat="45.7110541" lon="11.6762606"><ele>78.0</ele><time>2026-04-26T16:03:51.396Z</time></trkpt><trkpt lat="45.7109474" lon="11.6761624"><ele>78.0</ele><time>2026-04-26T16:03:52.397Z</time></trkpt><trkpt lat="45.7108439" lon="11.6760687"><ele>78.0</ele><time>2026-04-26T16:03:53.396Z</time></trkpt><trkpt lat="45.7107378" lon="11.6759734"><ele>78.0</ele><time>2026-04-26T16:03:54.395Z</time></trkpt><trkpt lat="45.7106232" lon="11.6758746"><ele>78.0</ele><time>2026-04-26T16:03:55.395Z</time></trkpt><trkpt lat="45.710501" lon="11.6757709"><ele>78.0</ele><time>2026-04-26T16:03:56.394Z</time></trkpt><trkpt lat="45.7103761" lon="11.6756629"><ele>78.0</ele><time>2026-04-26T16:03:57.395Z</time></trkpt><trkpt lat="45.7101382" lon="11.675446"><ele>78.0</ele><time>2026-04-26T16:03:59.399Z</time></trkpt><trkpt lat="45.7100197" lon="11.6753375"><ele>78.0</ele><time>2026-04-26T16:04:00.397Z</time></trkpt><trkpt lat="45.7098969" lon="11.6752245"><ele>78.0</ele><time>2026-04-26T16:04:01.394Z</time></trkpt><trkpt lat="45.709773" lon="11.6751094"><ele>78.0</ele><time>2026-04-26T16:04:02.394Z</time></trkpt><trkpt lat="45.7096537" lon="11.674997"><ele>78.0</ele><time>2026-04-26T16:04:03.394Z</time></trkpt><trkpt lat="45.7095377" lon="11.6748892"><ele>78.0</ele><time>2026-04-26T16:04:04.394Z</time></trkpt><trkpt lat="45.7094245" lon="11.6747898"><ele>78.0</ele><time>2026-04-26T16:04:05.396Z</time></trkpt><trkpt lat="45.7093103" lon="11.6747016"><ele>78.0</ele><time>2026-04-26T16:04:06.397Z</time></trkpt><trkpt lat="45.7091911" lon="11.6746232"><ele>78.0</ele><time>2026-04-26T16:04:07.398Z</time></trkpt><trkpt lat="45.7090633" lon="11.674554"><ele>78.0</ele><time>2026-04-26T16:04:08.398Z</time></trkpt><trkpt lat="45.7089247" lon="11.6745007"><ele>78.0</ele><time>2026-04-26T16:04:09.396Z</time></trkpt><trkpt lat="45.7087766" lon="11.6744625"><ele>78.0</ele><time>2026-04-26T16:04:10.397Z</time></trkpt><trkpt lat="45.7086212" lon="11.6744382"><ele>77.33333333333333</ele><time>2026-04-26T16:04:11.396Z</time></trkpt><trkpt lat="45.7084621" lon="11.6744245"><ele>76.66666666666666</ele><time>2026-04-26T16:04:12.396Z</time></trkpt><trkpt lat="45.708305" lon="11.6744189"><ele>76.0</ele><time>2026-04-26T16:04:13.396Z</time></trkpt><trkpt lat="45.7081509" lon="11.6744136"><ele>76.0</ele><time>2026-04-26T16:04:14.394Z</time></trkpt><trkpt lat="45.7080002" lon="11.6744048"><ele>76.0</ele><time>2026-04-26T16:04:15.396Z</time></trkpt><trkpt lat="45.7078545" lon="11.6743933"><ele>76.0</ele><time>2026-04-26T16:04:16.397Z</time></trkpt><trkpt lat="45.7077122" lon="11.6743849"><ele>76.0</ele><time>2026-04-26T16:04:17.396Z</time></trkpt><trkpt lat="45.7075719" lon="11.6743807"><ele>76.33333333333333</ele><time>2026-04-26T16:04:18.395Z</time></trkpt><trkpt lat="45.7072981" lon="11.6743705"><ele>76.66666666666667</ele><time>2026-04-26T16:04:20.396Z</time></trkpt><trkpt lat="45.7071668" lon="11.6743651"><ele>77.0</ele><time>2026-04-26T16:04:21.396Z</time></trkpt><trkpt lat="45.7070646" lon="11.6743614"><ele>77.0</ele><time>2026-04-26T16:04:22.198Z</time></trkpt><trkpt lat="45.7069155" lon="11.6743571"><ele>77.0</ele><time>2026-04-26T16:04:23.396Z</time></trkpt><trkpt lat="45.7067931" lon="11.6743535"><ele>77.0</ele><time>2026-04-26T16:04:24.397Z</time></trkpt><trkpt lat="45.7066701" lon="11.6743488"><ele>77.0</ele><time>2026-04-26T16:04:25.396Z</time></trkpt><trkpt lat="45.7065453" lon="11.6743367"><ele>76.75</ele><time>2026-04-26T16:04:26.393Z</time></trkpt><trkpt lat="45.7064182" lon="11.6743138"><ele>76.5</ele><time>2026-04-26T16:04:27.394Z</time></trkpt><trkpt lat="45.7062904" lon="11.6742722"><ele>76.25</ele><time>2026-04-26T16:04:28.394Z</time></trkpt><trkpt lat="45.7061619" lon="11.6742102"><ele>76.0</ele><time>2026-04-26T16:04:29.395Z</time></trkpt><trkpt lat="45.7060317" lon="11.674129"><ele>75.75</ele><time>2026-04-26T16:04:30.396Z</time></trkpt><trkpt lat="45.7059033" lon="11.6740342"><ele>75.5</ele><time>2026-04-26T16:04:31.395Z</time></trkpt><trkpt lat="45.7057798" lon="11.6739379"><ele>75.25</ele><time>2026-04-26T16:04:32.398Z</time></trkpt><trkpt lat="45.705657" lon="11.6738449"><ele>75.0</ele><time>2026-04-26T16:04:33.397Z</time></trkpt><trkpt lat="45.7055315" lon="11.6737497"><ele>75.0</ele><time>2026-04-26T16:04:34.396Z</time></trkpt><trkpt lat="45.7054023" lon="11.6736512"><ele>75.0</ele><time>2026-04-26T16:04:35.395Z</time></trkpt><trkpt lat="45.705273" lon="11.6735521"><ele>75.0</ele><time>2026-04-26T16:04:36.398Z</time></trkpt><trkpt lat="45.7051471" lon="11.6734588"><ele>75.0</ele><time>2026-04-26T16:04:37.396Z</time></trkpt><trkpt lat="45.7050265" lon="11.6733721"><ele>75.33333333333333</ele><time>2026-04-26T16:04:38.397Z</time></trkpt><trkpt lat="45.704913" lon="11.6732872"><ele>75.66666666666666</ele><time>2026-04-26T16:04:39.396Z</time></trkpt><trkpt lat="45.7046944" lon="11.6731213"><ele>76.0</ele><time>2026-04-26T16:04:41.397Z</time></trkpt><trkpt lat="45.7045797" lon="11.6730464"><ele>76.0</ele><time>2026-04-26T16:04:42.396Z</time></trkpt><trkpt lat="45.7044651" lon="11.6729831"><ele>76.0</ele><time>2026-04-26T16:04:43.395Z</time></trkpt><trkpt lat="45.7043486" lon="11.6729299"><ele>76.0</ele><time>2026-04-26T16:04:44.396Z</time></trkpt><trkpt lat="45.7042298" lon="11.6728832"><ele>76.0</ele><time>2026-04-26T16:04:45.396Z</time></trkpt><trkpt lat="45.7041076" lon="11.6728379"><ele>75.75</ele><time>2026-04-26T16:04:46.396Z</time></trkpt><trkpt lat="45.7039796" lon="11.6727942"><ele>75.5</ele><time>2026-04-26T16:04:47.399Z</time></trkpt><trkpt lat="45.7038496" lon="11.6727533"><ele>75.25</ele><time>2026-04-26T16:04:48.395Z</time></trkpt><trkpt lat="45.7037215" lon="11.6727111"><ele>75.0</ele><time>2026-04-26T16:04:49.395Z</time></trkpt><trkpt lat="45.703592" lon="11.672668"><ele>75.0</ele><time>2026-04-26T16:04:50.394Z</time></trkpt><trkpt lat="45.7034571" lon="11.6726243"><ele>75.0</ele><time>2026-04-26T16:04:51.393Z</time></trkpt><trkpt lat="45.7033196" lon="11.6725774"><ele>75.0</ele><time>2026-04-26T16:04:52.393Z</time></trkpt><trkpt lat="45.7031831" lon="11.6725333"><ele>75.0</ele><time>2026-04-26T16:04:53.396Z</time></trkpt><trkpt lat="45.7030489" lon="11.6724907"><ele>75.0</ele><time>2026-04-26T16:04:54.394Z</time></trkpt><trkpt lat="45.7029128" lon="11.6724434"><ele>75.0</ele><time>2026-04-26T16:04:55.395Z</time></trkpt><trkpt lat="45.7027733" lon="11.6723896"><ele>75.0</ele><time>2026-04-26T16:04:56.395Z</time></trkpt><trkpt lat="45.7026308" lon="11.6723267"><ele>75.0</ele><time>2026-04-26T16:04:57.397Z</time></trkpt><trkpt lat="45.7024871" lon="11.6722532"><ele>74.66666666666667</ele><time>2026-04-26T16:04:58.393Z</time></trkpt><trkpt lat="45.702339" lon="11.6721698"><ele>74.33333333333334</ele><time>2026-04-26T16:04:59.394Z</time></trkpt><trkpt lat="45.7021908" lon="11.672083"><ele>74.0</ele><time>2026-04-26T16:05:00.399Z</time></trkpt><trkpt lat="45.7019183" lon="11.671923"><ele>73.75</ele><time>2026-04-26T16:05:02.395Z</time></trkpt><trkpt lat="45.7017896" lon="11.6718507"><ele>73.5</ele><time>2026-04-26T16:05:03.395Z</time></trkpt><trkpt lat="45.7016561" lon="11.6717869"><ele>73.25</ele><time>2026-04-26T16:05:04.396Z</time></trkpt><trkpt lat="45.7015135" lon="11.6717337"><ele>73.0</ele><time>2026-04-26T16:05:05.395Z</time></trkpt><trkpt lat="45.701364" lon="11.6716839"><ele>73.0</ele><time>2026-04-26T16:05:06.396Z</time></trkpt><trkpt lat="45.7012118" lon="11.6716319"><ele>73.0</ele><time>2026-04-26T16:05:07.396Z</time></trkpt><trkpt lat="45.7010585" lon="11.6715792"><ele>73.0</ele><time>2026-04-26T16:05:08.396Z</time></trkpt><trkpt lat="45.7009082" lon="11.6715299"><ele>73.25</ele><time>2026-04-26T16:05:09.397Z</time></trkpt><trkpt lat="45.7007639" lon="11.6714887"><ele>73.5</ele><time>2026-04-26T16:05:10.396Z</time></trkpt><trkpt lat="45.7006249" lon="11.6714479"><ele>73.75</ele><time>2026-04-26T16:05:11.395Z</time></trkpt><trkpt lat="45.7004844" lon="11.6714017"><ele>74.0</ele><time>2026-04-26T16:05:12.396Z</time></trkpt><trkpt lat="45.7003413" lon="11.6713534"><ele>73.66666666666667</ele><time>2026-04-26T16:05:13.397Z</time></trkpt><trkpt lat="45.7001952" lon="11.6713043"><ele>73.33333333333333</ele><time>2026-04-26T16:05:14.395Z</time></trkpt><trkpt lat="45.7000445" lon="11.6712537"><ele>73.0</ele><time>2026-04-26T16:05:15.393Z</time></trkpt><trkpt lat="45.6998889" lon="11.6712052"><ele>73.0</ele><time>2026-04-26T16:05:16.395Z</time></trkpt><trkpt lat="45.6997311" lon="11.6711564"><ele>73.0</ele><time>2026-04-26T16:05:17.393Z</time></trkpt><trkpt lat="45.6995731" lon="11.6711066"><ele>73.0</ele><time>2026-04-26T16:05:18.396Z</time></trkpt><trkpt lat="45.6994185" lon="11.6710553"><ele>73.0</ele><time>2026-04-26T16:05:19.395Z</time></trkpt><trkpt lat="45.6992663" lon="11.671004"><ele>73.0</ele><time>2026-04-26T16:05:20.394Z</time></trkpt><trkpt lat="45.699115" lon="11.6709544"><ele>73.0</ele><time>2026-04-26T16:05:21.395Z</time></trkpt><trkpt lat="45.6988214" lon="11.6708589"><ele>73.0</ele><time>2026-04-26T16:05:23.395Z</time></trkpt><trkpt lat="45.698677" lon="11.6708105"><ele>73.0</ele><time>2026-04-26T16:05:24.396Z</time></trkpt><trkpt lat="45.698532" lon="11.6707615"><ele>73.0</ele><time>2026-04-26T16:05:25.395Z</time></trkpt><trkpt lat="45.6983845" lon="11.6707108"><ele>73.0</ele><time>2026-04-26T16:05:26.396Z</time></trkpt><trkpt lat="45.6982352" lon="11.6706601"><ele>73.0</ele><time>2026-04-26T16:05:27.396Z</time></trkpt><trkpt lat="45.6980839" lon="11.670609"><ele>73.0</ele><time>2026-04-26T16:05:28.396Z</time></trkpt><trkpt lat="45.6979335" lon="11.6705588"><ele>73.0</ele><time>2026-04-26T16:05:29.395Z</time></trkpt><trkpt lat="45.697786" lon="11.6705101"><ele>73.25</ele><time>2026-04-26T16:05:30.397Z</time></trkpt><trkpt lat="45.6976461" lon="11.6704618"><ele>73.5</ele><time>2026-04-26T16:05:31.397Z</time></trkpt><trkpt lat="45.6975183" lon="11.6704164"><ele>73.75</ele><time>2026-04-26T16:05:32.397Z</time></trkpt><trkpt lat="45.6974076" lon="11.6703767"><ele>74.0</ele><time>2026-04-26T16:05:33.398Z</time></trkpt><trkpt lat="45.6973066" lon="11.6703444"><ele>74.0</ele><time>2026-04-26T16:05:34.398Z</time></trkpt><trkpt lat="45.6972099" lon="11.6703141"><ele>74.0</ele><time>2026-04-26T16:05:35.398Z</time></trkpt><trkpt lat="45.6971065" lon="11.6702845"><ele>74.0</ele><time>2026-04-26T16:05:36.397Z</time></trkpt><trkpt lat="45.6969907" lon="11.6702498"><ele>74.0</ele><time>2026-04-26T16:05:37.397Z</time></trkpt><trkpt lat="45.6968607" lon="11.6702089"><ele>73.66666666666667</ele><time>2026-04-26T16:05:38.397Z</time></trkpt><trkpt lat="45.6967151" lon="11.6701637"><ele>73.33333333333333</ele><time>2026-04-26T16:05:39.396Z</time></trkpt><trkpt lat="45.6966199" lon="11.6701354"><ele>73.0</ele><time>2026-04-26T16:05:39.996Z</time></trkpt><trkpt lat="45.6963914" lon="11.670068"><ele>73.0</ele><time>2026-04-26T16:05:41.396Z</time></trkpt><trkpt lat="45.6962349" lon="11.6700312"><ele>73.0</ele><time>2026-04-26T16:05:42.396Z</time></trkpt><trkpt lat="45.6959252" lon="11.6700055"><ele>72.66666666666666</ele><time>2026-04-26T16:05:44.395Z</time></trkpt><trkpt lat="45.6957614" lon="11.6700168"><ele>72.33333333333333</ele><time>2026-04-26T16:05:45.397Z</time></trkpt><trkpt lat="45.695589" lon="11.6700386"><ele>72.0</ele><time>2026-04-26T16:05:46.4Z</time></trkpt><trkpt lat="45.6954037" lon="11.670076"><ele>71.66666666666667</ele><time>2026-04-26T16:05:47.397Z</time></trkpt><trkpt lat="45.6952026" lon="11.670132"><ele>71.33333333333334</ele><time>2026-04-26T16:05:48.398Z</time></trkpt><trkpt lat="45.6949859" lon="11.6701876"><ele>71.0</ele><time>2026-04-26T16:05:49.4Z</time></trkpt><trkpt lat="45.6947614" lon="11.6702323"><ele>71.0</ele><time>2026-04-26T16:05:50.397Z</time></trkpt><trkpt lat="45.6945421" lon="11.6702727"><ele>71.0</ele><time>2026-04-26T16:05:51.399Z</time></trkpt><trkpt lat="45.6943354" lon="11.6703144"><ele>71.0</ele><time>2026-04-26T16:05:52.398Z</time></trkpt><trkpt lat="45.6941233" lon="11.6703647"><ele>70.5</ele><time>2026-04-26T16:05:53.397Z</time></trkpt><trkpt lat="45.6938943" lon="11.6704252"><ele>70.0</ele><time>2026-04-26T16:05:54.397Z</time></trkpt><trkpt lat="45.6936513" lon="11.6704788"><ele>70.0</ele><time>2026-04-26T16:05:55.403Z</time></trkpt><trkpt lat="45.6934085" lon="11.6705201"><ele>70.0</ele><time>2026-04-26T16:05:56.399Z</time></trkpt><trkpt lat="45.6932158" lon="11.6705524"><ele>70.0</ele><time>2026-04-26T16:05:57.197Z</time></trkpt><trkpt lat="45.6929339" lon="11.6706058"><ele>69.66666666666666</ele><time>2026-04-26T16:05:58.398Z</time></trkpt><trkpt lat="45.6927096" lon="11.6706499"><ele>69.33333333333333</ele><time>2026-04-26T16:05:59.397Z</time></trkpt><trkpt lat="45.6924962" lon="11.6706946"><ele>69.0</ele><time>2026-04-26T16:06:00.398Z</time></trkpt><trkpt lat="45.6922949" lon="11.6707397"><ele>69.0</ele><time>2026-04-26T16:06:01.398Z</time></trkpt><trkpt lat="45.6921043" lon="11.6707838"><ele>69.0</ele><time>2026-04-26T16:06:02.398Z</time></trkpt><trkpt lat="45.6919224" lon="11.6708236"><ele>69.0</ele><time>2026-04-26T16:06:03.397Z</time></trkpt><trkpt lat="45.6915799" lon="11.670896"><ele>69.0</ele><time>2026-04-26T16:06:05.395Z</time></trkpt><trkpt lat="45.6914171" lon="11.670923"><ele>69.0</ele><time>2026-04-26T16:06:06.396Z</time></trkpt><trkpt lat="45.6912588" lon="11.67094"><ele>69.0</ele><time>2026-04-26T16:06:07.398Z</time></trkpt><trkpt lat="45.6910997" lon="11.670949"><ele>69.0</ele><time>2026-04-26T16:06:08.399Z</time></trkpt><trkpt lat="45.6907645" lon="11.6709485"><ele>69.0</ele><time>2026-04-26T16:06:10.398Z</time></trkpt><trkpt lat="45.6905892" lon="11.6709306"><ele>69.0</ele><time>2026-04-26T16:06:11.398Z</time></trkpt><trkpt lat="45.6904026" lon="11.670903"><ele>69.0</ele><time>2026-04-26T16:06:12.399Z</time></trkpt><trkpt lat="45.6902088" lon="11.6708648"><ele>69.0</ele><time>2026-04-26T16:06:13.397Z</time></trkpt><trkpt lat="45.6900095" lon="11.6708187"><ele>68.66666666666667</ele><time>2026-04-26T16:06:14.396Z</time></trkpt><trkpt lat="45.6897996" lon="11.6707733"><ele>68.33333333333334</ele><time>2026-04-26T16:06:15.397Z</time></trkpt><trkpt lat="45.6895815" lon="11.670728"><ele>68.0</ele><time>2026-04-26T16:06:16.397Z</time></trkpt><trkpt lat="45.6893625" lon="11.6706819"><ele>68.0</ele><time>2026-04-26T16:06:17.397Z</time></trkpt><trkpt lat="45.6891433" lon="11.6706341"><ele>68.0</ele><time>2026-04-26T16:06:18.398Z</time></trkpt><trkpt lat="45.6889314" lon="11.6705871"><ele>68.0</ele><time>2026-04-26T16:06:19.397Z</time></trkpt><trkpt lat="45.6887291" lon="11.670541"><ele>68.0</ele><time>2026-04-26T16:06:20.396Z</time></trkpt><trkpt lat="45.6885349" lon="11.6704948"><ele>68.0</ele><time>2026-04-26T16:06:21.396Z</time></trkpt><trkpt lat="45.6883478" lon="11.6704487"><ele>68.0</ele><time>2026-04-26T16:06:22.399Z</time></trkpt><trkpt lat="45.6881682" lon="11.6704025"><ele>68.0</ele><time>2026-04-26T16:06:23.398Z</time></trkpt><trkpt lat="45.6879953" lon="11.6703576"><ele>68.0</ele><time>2026-04-26T16:06:24.396Z</time></trkpt><trkpt lat="45.6876505" lon="11.6702657"><ele>67.66666666666667</ele><time>2026-04-26T16:06:26.395Z</time></trkpt><trkpt lat="45.687477" lon="11.6702113"><ele>67.33333333333333</ele><time>2026-04-26T16:06:27.395Z</time></trkpt><trkpt lat="45.6873065" lon="11.670145"><ele>67.0</ele><time>2026-04-26T16:06:28.395Z</time></trkpt><trkpt lat="45.6871429" lon="11.6700705"><ele>67.0</ele><time>2026-04-26T16:06:29.394Z</time></trkpt><trkpt lat="45.6869844" lon="11.669995"><ele>67.0</ele><time>2026-04-26T16:06:30.395Z</time></trkpt><trkpt lat="45.6868299" lon="11.6699209"><ele>67.0</ele><time>2026-04-26T16:06:31.394Z</time></trkpt><trkpt lat="45.6866809" lon="11.6698402"><ele>67.66666666666666</ele><time>2026-04-26T16:06:32.395Z</time></trkpt><trkpt lat="45.6865347" lon="11.6697486"><ele>68.33333333333333</ele><time>2026-04-26T16:06:33.396Z</time></trkpt><trkpt lat="45.6863865" lon="11.6696467"><ele>69.0</ele><time>2026-04-26T16:06:34.397Z</time></trkpt><trkpt lat="45.6862301" lon="11.6695399"><ele>68.66666666666667</ele><time>2026-04-26T16:06:35.397Z</time></trkpt><trkpt lat="45.6860656" lon="11.6694323"><ele>68.33333333333334</ele><time>2026-04-26T16:06:36.396Z</time></trkpt><trkpt lat="45.6859028" lon="11.6693226"><ele>68.0</ele><time>2026-04-26T16:06:37.397Z</time></trkpt><trkpt lat="45.6857479" lon="11.6692157"><ele>68.0</ele><time>2026-04-26T16:06:38.396Z</time></trkpt><trkpt lat="45.6855993" lon="11.669114"><ele>68.0</ele><time>2026-04-26T16:06:39.399Z</time></trkpt><trkpt lat="45.685455" lon="11.6690154"><ele>68.0</ele><time>2026-04-26T16:06:40.399Z</time></trkpt><trkpt lat="45.6853073" lon="11.6689208"><ele>67.66666666666667</ele><time>2026-04-26T16:06:41.395Z</time></trkpt><trkpt lat="45.6851535" lon="11.6688337"><ele>67.33333333333333</ele><time>2026-04-26T16:06:42.397Z</time></trkpt><trkpt lat="45.6849917" lon="11.66876"><ele>67.0</ele><time>2026-04-26T16:06:43.396Z</time></trkpt><trkpt lat="45.6848224" lon="11.6687019"><ele>67.0</ele><time>2026-04-26T16:06:44.395Z</time></trkpt><trkpt lat="45.6846574" lon="11.6686581"><ele>67.0</ele><time>2026-04-26T16:06:45.396Z</time></trkpt><trkpt lat="45.6843501" lon="11.6685836"><ele>66.25</ele><time>2026-04-26T16:06:47.396Z</time></trkpt><trkpt lat="45.6842085" lon="11.6685486"><ele>65.5</ele><time>2026-04-26T16:06:48.4Z</time></trkpt><trkpt lat="45.6840696" lon="11.6685152"><ele>64.75</ele><time>2026-04-26T16:06:49.397Z</time></trkpt><trkpt lat="45.6839268" lon="11.6684803"><ele>64.0</ele><time>2026-04-26T16:06:50.399Z</time></trkpt><trkpt lat="45.6837794" lon="11.6684439"><ele>64.0</ele><time>2026-04-26T16:06:51.399Z</time></trkpt><trkpt lat="45.6836293" lon="11.6684072"><ele>64.0</ele><time>2026-04-26T16:06:52.397Z</time></trkpt><trkpt lat="45.6834777" lon="11.6683703"><ele>64.0</ele><time>2026-04-26T16:06:53.397Z</time></trkpt><trkpt lat="45.6833235" lon="11.6683311"><ele>64.33333333333333</ele><time>2026-04-26T16:06:54.395Z</time></trkpt><trkpt lat="45.6831653" lon="11.6682918"><ele>64.66666666666667</ele><time>2026-04-26T16:06:55.394Z</time></trkpt><trkpt lat="45.6830034" lon="11.6682522"><ele>65.0</ele><time>2026-04-26T16:06:56.396Z</time></trkpt><trkpt lat="45.6828378" lon="11.6682107"><ele>64.66666666666667</ele><time>2026-04-26T16:06:57.398Z</time></trkpt><trkpt lat="45.6826719" lon="11.6681665"><ele>64.33333333333333</ele><time>2026-04-26T16:06:58.396Z</time></trkpt><trkpt lat="45.6825084" lon="11.6681221"><ele>64.0</ele><time>2026-04-26T16:06:59.398Z</time></trkpt><trkpt lat="45.6823464" lon="11.668078"><ele>64.0</ele><time>2026-04-26T16:07:00.398Z</time></trkpt><trkpt lat="45.6821834" lon="11.6680346"><ele>64.0</ele><time>2026-04-26T16:07:01.398Z</time></trkpt><trkpt lat="45.6820207" lon="11.6679916"><ele>64.0</ele><time>2026-04-26T16:07:02.398Z</time></trkpt><trkpt lat="45.6818633" lon="11.66795"><ele>64.66666666666666</ele><time>2026-04-26T16:07:03.396Z</time></trkpt><trkpt lat="45.681709" lon="11.667911"><ele>65.33333333333333</ele><time>2026-04-26T16:07:04.394Z</time></trkpt><trkpt lat="45.6815489" lon="11.6678727"><ele>66.0</ele><time>2026-04-26T16:07:05.397Z</time></trkpt><trkpt lat="45.681198" lon="11.6677866"><ele>65.0</ele><time>2026-04-26T16:07:07.4Z</time></trkpt><trkpt lat="45.6810117" lon="11.6677372"><ele>64.0</ele><time>2026-04-26T16:07:08.396Z</time></trkpt><trkpt lat="45.6808267" lon="11.6676884"><ele>63.0</ele><time>2026-04-26T16:07:09.395Z</time></trkpt><trkpt lat="45.6806446" lon="11.6676389"><ele>63.0</ele><time>2026-04-26T16:07:10.393Z</time></trkpt><trkpt lat="45.6804645" lon="11.6675901"><ele>63.0</ele><time>2026-04-26T16:07:11.395Z</time></trkpt><trkpt lat="45.6802834" lon="11.6675417"><ele>63.0</ele><time>2026-04-26T16:07:12.395Z</time></trkpt><trkpt lat="45.6801047" lon="11.6674952"><ele>63.33333333333333</ele><time>2026-04-26T16:07:13.396Z</time></trkpt><trkpt lat="45.6799327" lon="11.6674512"><ele>63.666666666666664</ele><time>2026-04-26T16:07:14.393Z</time></trkpt><trkpt lat="45.6797638" lon="11.6674078"><ele>64.0</ele><time>2026-04-26T16:07:15.395Z</time></trkpt><trkpt lat="45.6795921" lon="11.6673625"><ele>64.33333333333333</ele><time>2026-04-26T16:07:16.395Z</time></trkpt><trkpt lat="45.679417" lon="11.6673157"><ele>64.66666666666667</ele><time>2026-04-26T16:07:17.391Z</time></trkpt><trkpt lat="45.6792369" lon="11.6672683"><ele>65.0</ele><time>2026-04-26T16:07:18.393Z</time></trkpt><trkpt lat="45.679053" lon="11.6672201"><ele>65.0</ele><time>2026-04-26T16:07:19.393Z</time></trkpt><trkpt lat="45.6788655" lon="11.6671727"><ele>65.0</ele><time>2026-04-26T16:07:20.394Z</time></trkpt><trkpt lat="45.6786742" lon="11.6671292"><ele>65.0</ele><time>2026-04-26T16:07:21.396Z</time></trkpt><trkpt lat="45.678485" lon="11.6670959"><ele>65.0</ele><time>2026-04-26T16:07:22.393Z</time></trkpt><trkpt lat="45.678299" lon="11.6670706"><ele>65.0</ele><time>2026-04-26T16:07:23.397Z</time></trkpt><trkpt lat="45.6781143" lon="11.6670502"><ele>65.0</ele><time>2026-04-26T16:07:24.396Z</time></trkpt><trkpt lat="45.6779294" lon="11.6670311"><ele>65.0</ele><time>2026-04-26T16:07:25.393Z</time></trkpt><trkpt lat="45.6777477" lon="11.6670118"><ele>65.0</ele><time>2026-04-26T16:07:26.394Z</time></trkpt><trkpt lat="45.6773835" lon="11.6669762"><ele>65.0</ele><time>2026-04-26T16:07:28.395Z</time></trkpt><trkpt lat="45.6772026" lon="11.666957"><ele>65.0</ele><time>2026-04-26T16:07:29.397Z</time></trkpt><trkpt lat="45.6770235" lon="11.6669384"><ele>65.0</ele><time>2026-04-26T16:07:30.395Z</time></trkpt><trkpt lat="45.6768436" lon="11.6669214"><ele>64.33333333333334</ele><time>2026-04-26T16:07:31.394Z</time></trkpt><trkpt lat="45.6766635" lon="11.6669019"><ele>63.66666666666667</ele><time>2026-04-26T16:07:32.394Z</time></trkpt><trkpt lat="45.6764837" lon="11.6668839"><ele>63.0</ele><time>2026-04-26T16:07:33.396Z</time></trkpt><trkpt lat="45.6763025" lon="11.6668706"><ele>63.0</ele><time>2026-04-26T16:07:34.397Z</time></trkpt><trkpt lat="45.6761172" lon="11.6668592"><ele>63.0</ele><time>2026-04-26T16:07:35.394Z</time></trkpt><trkpt lat="45.6759289" lon="11.6668441"><ele>63.0</ele><time>2026-04-26T16:07:36.396Z</time></trkpt><trkpt lat="45.6757394" lon="11.6668253"><ele>62.66666666666667</ele><time>2026-04-26T16:07:37.394Z</time></trkpt><trkpt lat="45.6755494" lon="11.666805"><ele>62.333333333333336</ele><time>2026-04-26T16:07:38.396Z</time></trkpt><trkpt lat="45.6753647" lon="11.6667852"><ele>62.0</ele><time>2026-04-26T16:07:39.394Z</time></trkpt><trkpt lat="45.6752187" lon="11.6667684"><ele>62.0</ele><time>2026-04-26T16:07:40.195Z</time></trkpt><trkpt lat="45.674995" lon="11.6667414"><ele>62.0</ele><time>2026-04-26T16:07:41.394Z</time></trkpt><trkpt lat="45.6748058" lon="11.6667207"><ele>62.0</ele><time>2026-04-26T16:07:42.392Z</time></trkpt><trkpt lat="45.674621" lon="11.6667042"><ele>62.0</ele><time>2026-04-26T16:07:43.394Z</time></trkpt><trkpt lat="45.6744434" lon="11.6666847"><ele>62.0</ele><time>2026-04-26T16:07:44.393Z</time></trkpt><trkpt lat="45.6742734" lon="11.666666"><ele>62.0</ele><time>2026-04-26T16:07:45.394Z</time></trkpt><trkpt lat="45.6741082" lon="11.666651"><ele>61.0</ele><time>2026-04-26T16:07:46.393Z</time></trkpt><trkpt lat="45.6739464" lon="11.6666376"><ele>60.0</ele><time>2026-04-26T16:07:47.394Z</time></trkpt><trkpt lat="45.6736247" lon="11.6666079"><ele>60.33333333333333</ele><time>2026-04-26T16:07:49.396Z</time></trkpt><trkpt lat="45.6734568" lon="11.6665933"><ele>60.666666666666664</ele><time>2026-04-26T16:07:50.396Z</time></trkpt><trkpt lat="45.673283" lon="11.6665812"><ele>61.0</ele><time>2026-04-26T16:07:51.397Z</time></trkpt><trkpt lat="45.6731052" lon="11.6665705"><ele>61.0</ele><time>2026-04-26T16:07:52.395Z</time></trkpt><trkpt lat="45.6729276" lon="11.6665636"><ele>61.0</ele><time>2026-04-26T16:07:53.394Z</time></trkpt><trkpt lat="45.6727519" lon="11.6665586"><ele>61.0</ele><time>2026-04-26T16:07:54.395Z</time></trkpt><trkpt lat="45.6725777" lon="11.6665551"><ele>61.33333333333333</ele><time>2026-04-26T16:07:55.394Z</time></trkpt><trkpt lat="45.6724021" lon="11.6665501"><ele>61.66666666666667</ele><time>2026-04-26T16:07:56.397Z</time></trkpt><trkpt lat="45.6722268" lon="11.6665468"><ele>62.0</ele><time>2026-04-26T16:07:57.396Z</time></trkpt><trkpt lat="45.6720532" lon="11.6665429"><ele>62.0</ele><time>2026-04-26T16:07:58.396Z</time></trkpt><trkpt lat="45.6718841" lon="11.6665387"><ele>62.0</ele><time>2026-04-26T16:07:59.394Z</time></trkpt><trkpt lat="45.6717194" lon="11.6665328"><ele>62.0</ele><time>2026-04-26T16:08:00.396Z</time></trkpt><trkpt lat="45.671555" lon="11.6665275"><ele>62.0</ele><time>2026-04-26T16:08:01.394Z</time></trkpt><trkpt lat="45.6713855" lon="11.6665243"><ele>62.0</ele><time>2026-04-26T16:08:02.394Z</time></trkpt><trkpt lat="45.6712109" lon="11.6665211"><ele>62.0</ele><time>2026-04-26T16:08:03.395Z</time></trkpt><trkpt lat="45.6710338" lon="11.6665187"><ele>61.66666666666667</ele><time>2026-04-26T16:08:04.398Z</time></trkpt><trkpt lat="45.6708565" lon="11.6665162"><ele>61.33333333333333</ele><time>2026-04-26T16:08:05.396Z</time></trkpt><trkpt lat="45.6706755" lon="11.666513"><ele>61.0</ele><time>2026-04-26T16:08:06.392Z</time></trkpt><trkpt lat="45.6704866" lon="11.6665091"><ele>61.0</ele><time>2026-04-26T16:08:07.395Z</time></trkpt><trkpt lat="45.6702879" lon="11.6665049"><ele>61.0</ele><time>2026-04-26T16:08:08.393Z</time></trkpt><trkpt lat="45.6698514" lon="11.6665208"><ele>60.666666666666664</ele><time>2026-04-26T16:08:10.397Z</time></trkpt><trkpt lat="45.669626" lon="11.666522"><ele>60.33333333333333</ele><time>2026-04-26T16:08:11.394Z</time></trkpt><trkpt lat="45.6694118" lon="11.6665073"><ele>60.0</ele><time>2026-04-26T16:08:12.396Z</time></trkpt><trkpt lat="45.6692077" lon="11.6664891"><ele>60.0</ele><time>2026-04-26T16:08:13.397Z</time></trkpt><trkpt lat="45.6690117" lon="11.6664766"><ele>60.0</ele><time>2026-04-26T16:08:14.397Z</time></trkpt><trkpt lat="45.6688248" lon="11.6664686"><ele>60.0</ele><time>2026-04-26T16:08:15.398Z</time></trkpt><trkpt lat="45.6686507" lon="11.6664621"><ele>59.66666666666667</ele><time>2026-04-26T16:08:16.395Z</time></trkpt><trkpt lat="45.6684864" lon="11.6664584"><ele>59.333333333333336</ele><time>2026-04-26T16:08:17.398Z</time></trkpt><trkpt lat="45.6683279" lon="11.666456"><ele>59.0</ele><time>2026-04-26T16:08:18.396Z</time></trkpt><trkpt lat="45.6681698" lon="11.6664537"><ele>59.0</ele><time>2026-04-26T16:08:19.397Z</time></trkpt><trkpt lat="45.6680108" lon="11.666451"><ele>59.0</ele><time>2026-04-26T16:08:20.397Z</time></trkpt><trkpt lat="45.6678563" lon="11.6664467"><ele>59.0</ele><time>2026-04-26T16:08:21.396Z</time></trkpt><trkpt lat="45.6677082" lon="11.6664426"><ele>59.25</ele><time>2026-04-26T16:08:22.397Z</time></trkpt><trkpt lat="45.6675628" lon="11.666434"><ele>59.5</ele><time>2026-04-26T16:08:23.394Z</time></trkpt><trkpt lat="45.6674167" lon="11.6664112"><ele>59.75</ele><time>2026-04-26T16:08:24.395Z</time></trkpt><trkpt lat="45.667271" lon="11.6663726"><ele>60.0</ele><time>2026-04-26T16:08:25.396Z</time></trkpt><trkpt lat="45.6671258" lon="11.6663206"><ele>60.0</ele><time>2026-04-26T16:08:26.394Z</time></trkpt><trkpt lat="45.6669778" lon="11.6662558"><ele>60.0</ele><time>2026-04-26T16:08:27.394Z</time></trkpt><trkpt lat="45.666825" lon="11.6661834"><ele>60.0</ele><time>2026-04-26T16:08:28.397Z</time></trkpt><trkpt lat="45.6666735" lon="11.6661079"><ele>60.0</ele><time>2026-04-26T16:08:29.396Z</time></trkpt><trkpt lat="45.6663861" lon="11.6659642"><ele>60.0</ele><time>2026-04-26T16:08:31.394Z</time></trkpt><trkpt lat="45.6662511" lon="11.6658982"><ele>60.0</ele><time>2026-04-26T16:08:32.392Z</time></trkpt><trkpt lat="45.6661164" lon="11.6658336"><ele>60.0</ele><time>2026-04-26T16:08:33.394Z</time></trkpt><trkpt lat="45.6659758" lon="11.665766"><ele>60.0</ele><time>2026-04-26T16:08:34.396Z</time></trkpt><trkpt lat="45.6658316" lon="11.6656968"><ele>60.0</ele><time>2026-04-26T16:08:35.395Z</time></trkpt><trkpt lat="45.6656841" lon="11.6656254"><ele>60.0</ele><time>2026-04-26T16:08:36.396Z</time></trkpt><trkpt lat="45.6655366" lon="11.6655525"><ele>60.0</ele><time>2026-04-26T16:08:37.396Z</time></trkpt><trkpt lat="45.6653953" lon="11.6654833"><ele>60.0</ele><time>2026-04-26T16:08:38.396Z</time></trkpt><trkpt lat="45.6652606" lon="11.6654166"><ele>60.0</ele><time>2026-04-26T16:08:39.395Z</time></trkpt><trkpt lat="45.6651315" lon="11.6653522"><ele>59.75</ele><time>2026-04-26T16:08:40.395Z</time></trkpt><trkpt lat="45.6650058" lon="11.665291"><ele>59.5</ele><time>2026-04-26T16:08:41.396Z</time></trkpt><trkpt lat="45.6648818" lon="11.6652328"><ele>59.25</ele><time>2026-04-26T16:08:42.396Z</time></trkpt><trkpt lat="45.6647542" lon="11.6651786"><ele>59.0</ele><time>2026-04-26T16:08:43.395Z</time></trkpt><trkpt lat="45.6646194" lon="11.6651343"><ele>58.75</ele><time>2026-04-26T16:08:44.395Z</time></trkpt><trkpt lat="45.6644775" lon="11.6651046"><ele>58.5</ele><time>2026-04-26T16:08:45.397Z</time></trkpt><trkpt lat="45.6643303" lon="11.6650877"><ele>58.25</ele><time>2026-04-26T16:08:46.396Z</time></trkpt><trkpt lat="45.6641853" lon="11.6650774"><ele>58.0</ele><time>2026-04-26T16:08:47.394Z</time></trkpt><trkpt lat="45.6640422" lon="11.6650718"><ele>58.0</ele><time>2026-04-26T16:08:48.399Z</time></trkpt><trkpt lat="45.6638986" lon="11.6650698"><ele>58.0</ele><time>2026-04-26T16:08:49.399Z</time></trkpt><trkpt lat="45.6637518" lon="11.6650659"><ele>58.0</ele><time>2026-04-26T16:08:50.397Z</time></trkpt><trkpt lat="45.6634678" lon="11.6650556"><ele>58.25</ele><time>2026-04-26T16:08:52.399Z</time></trkpt><trkpt lat="45.6633322" lon="11.6650536"><ele>58.5</ele><time>2026-04-26T16:08:53.398Z</time></trkpt><trkpt lat="45.6632011" lon="11.6650538"><ele>58.75</ele><time>2026-04-26T16:08:54.396Z</time></trkpt><trkpt lat="45.6630724" lon="11.6650536"><ele>59.0</ele><time>2026-04-26T16:08:55.395Z</time></trkpt><trkpt lat="45.662946" lon="11.6650521"><ele>59.0</ele><time>2026-04-26T16:08:56.394Z</time></trkpt><trkpt lat="45.6628228" lon="11.6650483"><ele>59.00000000000001</ele><time>2026-04-26T16:08:57.395Z</time></trkpt><trkpt lat="45.6627096" lon="11.6650409"><ele>59.00000000000001</ele><time>2026-04-26T16:08:58.395Z</time></trkpt><trkpt lat="45.6626115" lon="11.6650375"><ele>59.0</ele><time>2026-04-26T16:08:59.397Z</time></trkpt><trkpt lat="45.6625324" lon="11.6650349"><ele>59.0</ele><time>2026-04-26T16:09:00.398Z</time></trkpt><trkpt lat="45.6624644" lon="11.665032"><ele>59.00000000000001</ele><time>2026-04-26T16:09:01.399Z</time></trkpt><trkpt lat="45.6624001" lon="11.6650253"><ele>59.0</ele><time>2026-04-26T16:09:02.396Z</time></trkpt><trkpt lat="45.6622805" lon="11.6649911"><ele>59.0</ele><time>2026-04-26T16:09:04.396Z</time></trkpt><trkpt lat="45.6622204" lon="11.6649573"><ele>59.0</ele><time>2026-04-26T16:09:05.396Z</time></trkpt><trkpt lat="45.6621604" lon="11.6649046"><ele>59.00000000000001</ele><time>2026-04-26T16:09:06.396Z</time></trkpt><trkpt lat="45.6621082" lon="11.6648305"><ele>59.0</ele><time>2026-04-26T16:09:07.399Z</time></trkpt><trkpt lat="45.6620637" lon="11.6647482"><ele>59.0</ele><time>2026-04-26T16:09:08.397Z</time></trkpt><trkpt lat="45.6620104" lon="11.6646761"><ele>59.0</ele><time>2026-04-26T16:09:09.399Z</time></trkpt><trkpt lat="45.6619396" lon="11.6646198"><ele>59.0</ele><time>2026-04-26T16:09:10.398Z</time></trkpt><trkpt lat="45.6618494" lon="11.6645946"><ele>59.0</ele><time>2026-04-26T16:09:11.397Z</time></trkpt><trkpt lat="45.6616428" lon="11.6646427"><ele>58.6</ele><time>2026-04-26T16:09:13.397Z</time></trkpt><trkpt lat="45.6615497" lon="11.6646944"><ele>58.2</ele><time>2026-04-26T16:09:14.397Z</time></trkpt><trkpt lat="45.6614527" lon="11.6647296"><ele>57.800000000000004</ele><time>2026-04-26T16:09:15.399Z</time></trkpt><trkpt lat="45.6613434" lon="11.6647394"><ele>57.400000000000006</ele><time>2026-04-26T16:09:16.397Z</time></trkpt><trkpt lat="45.6612216" lon="11.6647162"><ele>57.0</ele><time>2026-04-26T16:09:17.396Z</time></trkpt><trkpt lat="45.6610852" lon="11.6646587"><ele>57.0</ele><time>2026-04-26T16:09:18.397Z</time></trkpt><trkpt lat="45.6609387" lon="11.6645796"><ele>57.0</ele><time>2026-04-26T16:09:19.396Z</time></trkpt><trkpt lat="45.6607967" lon="11.6644983"><ele>57.0</ele><time>2026-04-26T16:09:20.395Z</time></trkpt><trkpt lat="45.6606605" lon="11.6644242"><ele>57.25</ele><time>2026-04-26T16:09:21.395Z</time></trkpt><trkpt lat="45.6605284" lon="11.6643567"><ele>57.5</ele><time>2026-04-26T16:09:22.394Z</time></trkpt><trkpt lat="45.6603961" lon="11.664288"><ele>57.75</ele><time>2026-04-26T16:09:23.396Z</time></trkpt><trkpt lat="45.6602594" lon="11.6642145"><ele>58.0</ele><time>2026-04-26T16:09:24.397Z</time></trkpt><trkpt lat="45.660118" lon="11.6641366"><ele>58.0</ele><time>2026-04-26T16:09:25.399Z</time></trkpt><trkpt lat="45.6599691" lon="11.6640583"><ele>58.0</ele><time>2026-04-26T16:09:26.396Z</time></trkpt><trkpt lat="45.659815" lon="11.6639784"><ele>58.0</ele><time>2026-04-26T16:09:27.396Z</time></trkpt><trkpt lat="45.6596654" lon="11.6639004"><ele>58.0</ele><time>2026-04-26T16:09:28.398Z</time></trkpt><trkpt lat="45.6595145" lon="11.6638254"><ele>58.0</ele><time>2026-04-26T16:09:29.399Z</time></trkpt><trkpt lat="45.6593546" lon="11.6637557"><ele>58.0</ele><time>2026-04-26T16:09:30.397Z</time></trkpt><trkpt lat="45.6591829" lon="11.6636974"><ele>57.5</ele><time>2026-04-26T16:09:31.396Z</time></trkpt><trkpt lat="45.6590019" lon="11.663651"><ele>57.0</ele><time>2026-04-26T16:09:32.399Z</time></trkpt><trkpt lat="45.65866" lon="11.6635727"><ele>56.33333333333333</ele><time>2026-04-26T16:09:34.398Z</time></trkpt><trkpt lat="45.6584933" lon="11.6635363"><ele>55.666666666666664</ele><time>2026-04-26T16:09:35.397Z</time></trkpt><trkpt lat="45.6583242" lon="11.6635"><ele>55.0</ele><time>2026-04-26T16:09:36.398Z</time></trkpt><trkpt lat="45.6581572" lon="11.6634641"><ele>55.0</ele><time>2026-04-26T16:09:37.398Z</time></trkpt><trkpt lat="45.6579939" lon="11.6634283"><ele>55.0</ele><time>2026-04-26T16:09:38.398Z</time></trkpt><trkpt lat="45.6578304" lon="11.6633927"><ele>55.0</ele><time>2026-04-26T16:09:39.398Z</time></trkpt><trkpt lat="45.6576645" lon="11.6633581"><ele>55.666666666666664</ele><time>2026-04-26T16:09:40.398Z</time></trkpt><trkpt lat="45.6574997" lon="11.6633229"><ele>56.33333333333333</ele><time>2026-04-26T16:09:41.398Z</time></trkpt><trkpt lat="45.6573392" lon="11.663288"><ele>57.0</ele><time>2026-04-26T16:09:42.398Z</time></trkpt><trkpt lat="45.6571846" lon="11.6632534"><ele>57.0</ele><time>2026-04-26T16:09:43.397Z</time></trkpt><trkpt lat="45.6570374" lon="11.6632209"><ele>57.0</ele><time>2026-04-26T16:09:44.394Z</time></trkpt><trkpt lat="45.6568959" lon="11.6631903"><ele>57.0</ele><time>2026-04-26T16:09:45.395Z</time></trkpt><trkpt lat="45.6567592" lon="11.6631608"><ele>57.0</ele><time>2026-04-26T16:09:46.395Z</time></trkpt><trkpt lat="45.6566216" lon="11.6631295"><ele>57.0</ele><time>2026-04-26T16:09:47.396Z</time></trkpt><trkpt lat="45.6564827" lon="11.6630916"><ele>57.0</ele><time>2026-04-26T16:09:48.396Z</time></trkpt><trkpt lat="45.6563442" lon="11.6630403"><ele>57.0</ele><time>2026-04-26T16:09:49.397Z</time></trkpt><trkpt lat="45.6562011" lon="11.6629754"><ele>57.0</ele><time>2026-04-26T16:09:50.397Z</time></trkpt><trkpt lat="45.6560498" lon="11.662897"><ele>57.0</ele><time>2026-04-26T16:09:51.401Z</time></trkpt><trkpt lat="45.6558988" lon="11.6628048"><ele>57.0</ele><time>2026-04-26T16:09:52.399Z</time></trkpt><trkpt lat="45.655754" lon="11.6627055"><ele>57.0</ele><time>2026-04-26T16:09:53.396Z</time></trkpt><trkpt lat="45.6554777" lon="11.6625068"><ele>57.0</ele><time>2026-04-26T16:09:55.397Z</time></trkpt><trkpt lat="45.6553418" lon="11.6624087"><ele>57.0</ele><time>2026-04-26T16:09:56.397Z</time></trkpt><trkpt lat="45.6552084" lon="11.6623139"><ele>57.0</ele><time>2026-04-26T16:09:57.397Z</time></trkpt><trkpt lat="45.6550809" lon="11.6622228"><ele>57.0</ele><time>2026-04-26T16:09:58.396Z</time></trkpt><trkpt lat="45.654958" lon="11.6621338"><ele>56.75</ele><time>2026-04-26T16:09:59.396Z</time></trkpt><trkpt lat="45.654831" lon="11.6620443"><ele>56.5</ele><time>2026-04-26T16:10:00.397Z</time></trkpt><trkpt lat="45.6547006" lon="11.6619537"><ele>56.25</ele><time>2026-04-26T16:10:01.394Z</time></trkpt><trkpt lat="45.6545693" lon="11.6618613"><ele>56.0</ele><time>2026-04-26T16:10:02.398Z</time></trkpt><trkpt lat="45.6544408" lon="11.6617686"><ele>55.66666666666667</ele><time>2026-04-26T16:10:03.397Z</time></trkpt><trkpt lat="45.6543084" lon="11.6616759"><ele>55.33333333333333</ele><time>2026-04-26T16:10:04.397Z</time></trkpt><trkpt lat="45.6541689" lon="11.6615817"><ele>55.0</ele><time>2026-04-26T16:10:05.396Z</time></trkpt><trkpt lat="45.6540245" lon="11.6614972"><ele>55.0</ele><time>2026-04-26T16:10:06.397Z</time></trkpt><trkpt lat="45.6538808" lon="11.6614234"><ele>55.0</ele><time>2026-04-26T16:10:07.398Z</time></trkpt><trkpt lat="45.6537412" lon="11.6613587"><ele>55.0</ele><time>2026-04-26T16:10:08.395Z</time></trkpt><trkpt lat="45.6536023" lon="11.6612999"><ele>55.0</ele><time>2026-04-26T16:10:09.395Z</time></trkpt><trkpt lat="45.6534603" lon="11.6612424"><ele>55.0</ele><time>2026-04-26T16:10:10.394Z</time></trkpt><trkpt lat="45.6531911" lon="11.6611306"><ele>55.0</ele><time>2026-04-26T16:10:12.396Z</time></trkpt><trkpt lat="45.6530632" lon="11.6610778"><ele>55.0</ele><time>2026-04-26T16:10:13.398Z</time></trkpt><trkpt lat="45.6529324" lon="11.6610253"><ele>55.0</ele><time>2026-04-26T16:10:14.397Z</time></trkpt><trkpt lat="45.6526688" lon="11.6609178"><ele>55.0</ele><time>2026-04-26T16:10:16.396Z</time></trkpt><trkpt lat="45.6525447" lon="11.660868"><ele>55.0</ele><time>2026-04-26T16:10:17.397Z</time></trkpt><trkpt lat="45.6524266" lon="11.6608214"><ele>55.0</ele><time>2026-04-26T16:10:18.396Z</time></trkpt><trkpt lat="45.6523144" lon="11.6607773"><ele>55.0</ele><time>2026-04-26T16:10:19.396Z</time></trkpt><trkpt lat="45.6522075" lon="11.6607325"><ele>55.0</ele><time>2026-04-26T16:10:20.396Z</time></trkpt><trkpt lat="45.6520976" lon="11.6606852"><ele>55.0</ele><time>2026-04-26T16:10:21.398Z</time></trkpt><trkpt lat="45.6519827" lon="11.6606332"><ele>55.25</ele><time>2026-04-26T16:10:22.397Z</time></trkpt><trkpt lat="45.6518612" lon="11.6605756"><ele>55.5</ele><time>2026-04-26T16:10:23.396Z</time></trkpt><trkpt lat="45.6517415" lon="11.6605134"><ele>55.75</ele><time>2026-04-26T16:10:24.396Z</time></trkpt><trkpt lat="45.6516255" lon="11.6604523"><ele>56.0</ele><time>2026-04-26T16:10:25.399Z</time></trkpt><trkpt lat="45.6515122" lon="11.6603918"><ele>56.0</ele><time>2026-04-26T16:10:26.396Z</time></trkpt><trkpt lat="45.6514034" lon="11.6603298"><ele>55.99999999999999</ele><time>2026-04-26T16:10:27.402Z</time></trkpt><trkpt lat="45.6513016" lon="11.6602704"><ele>55.99999999999999</ele><time>2026-04-26T16:10:28.398Z</time></trkpt><trkpt lat="45.6512083" lon="11.660214"><ele>56.0</ele><time>2026-04-26T16:10:29.397Z</time></trkpt><trkpt lat="45.6511316" lon="11.6601607"><ele>56.0</ele><time>2026-04-26T16:10:30.397Z</time></trkpt><trkpt lat="45.6510714" lon="11.6601112"><ele>55.75</ele><time>2026-04-26T16:10:31.397Z</time></trkpt><trkpt lat="45.6509784" lon="11.6600079"><ele>55.5</ele><time>2026-04-26T16:10:33.396Z</time></trkpt><trkpt lat="45.6508975" lon="11.6598543"><ele>55.25</ele><time>2026-04-26T16:10:35.394Z</time></trkpt><trkpt lat="45.6507954" lon="11.6597021"><ele>55.0</ele><time>2026-04-26T16:10:37.398Z</time></trkpt><trkpt lat="45.6507361" lon="11.6596703"><ele>54.99999999999999</ele><time>2026-04-26T16:10:38.396Z</time></trkpt><trkpt lat="45.6506658" lon="11.6596681"><ele>55.0</ele><time>2026-04-26T16:10:39.397Z</time></trkpt><trkpt lat="45.6505978" lon="11.6597061"><ele>55.0</ele><time>2026-04-26T16:10:40.4Z</time></trkpt><trkpt lat="45.6505437" lon="11.6597779"><ele>55.0</ele><time>2026-04-26T16:10:41.396Z</time></trkpt><trkpt lat="45.6505142" lon="11.6598738"><ele>54.99999999999999</ele><time>2026-04-26T16:10:42.397Z</time></trkpt><trkpt lat="45.6505061" lon="11.6599923"><ele>55.0</ele><time>2026-04-26T16:10:43.398Z</time></trkpt><trkpt lat="45.6504934" lon="11.6601312"><ele>54.75</ele><time>2026-04-26T16:10:44.398Z</time></trkpt><trkpt lat="45.6504605" lon="11.6602869"><ele>54.5</ele><time>2026-04-26T16:10:45.397Z</time></trkpt><trkpt lat="45.6504105" lon="11.6604636"><ele>54.25</ele><time>2026-04-26T16:10:46.396Z</time></trkpt><trkpt lat="45.6503568" lon="11.6606446"><ele>54.0</ele><time>2026-04-26T16:10:47.397Z</time></trkpt><trkpt lat="45.6503057" lon="11.6608118"><ele>54.25</ele><time>2026-04-26T16:10:48.396Z</time></trkpt><trkpt lat="45.6502601" lon="11.6609726"><ele>54.5</ele><time>2026-04-26T16:10:49.397Z</time></trkpt><trkpt lat="45.6502193" lon="11.6611438"><ele>54.75</ele><time>2026-04-26T16:10:50.396Z</time></trkpt><trkpt lat="45.6501818" lon="11.6613292"><ele>55.0</ele><time>2026-04-26T16:10:51.398Z</time></trkpt><trkpt lat="45.6501518" lon="11.6615388"><ele>54.33333333333333</ele><time>2026-04-26T16:10:52.396Z</time></trkpt><trkpt lat="45.6501271" lon="11.6617826"><ele>53.66666666666667</ele><time>2026-04-26T16:10:53.396Z</time></trkpt><trkpt lat="45.6500916" lon="11.6620557"><ele>53.0</ele><time>2026-04-26T16:10:54.398Z</time></trkpt><trkpt lat="45.6500417" lon="11.6623401"><ele>52.5</ele><time>2026-04-26T16:10:55.397Z</time></trkpt><trkpt lat="45.64999" lon="11.6626314"><ele>52.0</ele><time>2026-04-26T16:10:56.397Z</time></trkpt><trkpt lat="45.6498922" lon="11.6632105"><ele>52.0</ele><time>2026-04-26T16:10:58.394Z</time></trkpt><trkpt lat="45.6498512" lon="11.6634809"><ele>52.0</ele><time>2026-04-26T16:10:59.395Z</time></trkpt><trkpt lat="45.6498132" lon="11.6637326"><ele>52.0</ele><time>2026-04-26T16:11:00.395Z</time></trkpt><trkpt lat="45.649779" lon="11.6639711"><ele>52.33333333333333</ele><time>2026-04-26T16:11:01.398Z</time></trkpt><trkpt lat="45.6497454" lon="11.6642005"><ele>52.66666666666667</ele><time>2026-04-26T16:11:02.395Z</time></trkpt><trkpt lat="45.6497107" lon="11.6644273"><ele>53.0</ele><time>2026-04-26T16:11:03.397Z</time></trkpt><trkpt lat="45.6496755" lon="11.6646531"><ele>53.0</ele><time>2026-04-26T16:11:04.398Z</time></trkpt><trkpt lat="45.6496423" lon="11.6648694"><ele>53.0</ele><time>2026-04-26T16:11:05.396Z</time></trkpt><trkpt lat="45.6496113" lon="11.6650778"><ele>53.0</ele><time>2026-04-26T16:11:06.396Z</time></trkpt><trkpt lat="45.6495811" lon="11.6652865"><ele>53.0</ele><time>2026-04-26T16:11:07.401Z</time></trkpt><trkpt lat="45.6495513" lon="11.6654998"><ele>53.0</ele><time>2026-04-26T16:11:08.396Z</time></trkpt><trkpt lat="45.6495197" lon="11.6657199"><ele>53.0</ele><time>2026-04-26T16:11:09.395Z</time></trkpt><trkpt lat="45.6494841" lon="11.6659455"><ele>52.66666666666667</ele><time>2026-04-26T16:11:10.395Z</time></trkpt><trkpt lat="45.6494471" lon="11.6661775"><ele>52.33333333333333</ele><time>2026-04-26T16:11:11.397Z</time></trkpt><trkpt lat="45.649411" lon="11.6664149"><ele>52.0</ele><time>2026-04-26T16:11:12.396Z</time></trkpt><trkpt lat="45.6493745" lon="11.6666545"><ele>52.0</ele><time>2026-04-26T16:11:13.395Z</time></trkpt><trkpt lat="45.6493451" lon="11.6668422"><ele>52.0</ele><time>2026-04-26T16:11:14.194Z</time></trkpt><trkpt lat="45.6493007" lon="11.6671206"><ele>52.0</ele><time>2026-04-26T16:11:15.397Z</time></trkpt><trkpt lat="45.6492651" lon="11.6673555"><ele>52.5</ele><time>2026-04-26T16:11:16.396Z</time></trkpt><trkpt lat="45.6492296" lon="11.6675923"><ele>53.0</ele><time>2026-04-26T16:11:17.396Z</time></trkpt><trkpt lat="45.6491586" lon="11.6680515"><ele>53.0</ele><time>2026-04-26T16:11:19.394Z</time></trkpt><trkpt lat="45.6491249" lon="11.6682798"><ele>53.0</ele><time>2026-04-26T16:11:20.394Z</time></trkpt><trkpt lat="45.6490889" lon="11.6685129"><ele>53.0</ele><time>2026-04-26T16:11:21.393Z</time></trkpt><trkpt lat="45.6490518" lon="11.6687498"><ele>52.333333333333336</ele><time>2026-04-26T16:11:22.393Z</time></trkpt><trkpt lat="45.6490139" lon="11.6689912"><ele>51.66666666666667</ele><time>2026-04-26T16:11:23.392Z</time></trkpt><trkpt lat="45.6489772" lon="11.6692387"><ele>51.0</ele><time>2026-04-26T16:11:24.392Z</time></trkpt><trkpt lat="45.6489408" lon="11.6694884"><ele>50.66666666666667</ele><time>2026-04-26T16:11:25.391Z</time></trkpt><trkpt lat="45.6489046" lon="11.6697356"><ele>50.333333333333336</ele><time>2026-04-26T16:11:26.394Z</time></trkpt><trkpt lat="45.6488671" lon="11.6699753"><ele>50.0</ele><time>2026-04-26T16:11:27.394Z</time></trkpt><trkpt lat="45.6488303" lon="11.6702062"><ele>50.66666666666667</ele><time>2026-04-26T16:11:28.393Z</time></trkpt><trkpt lat="45.648795" lon="11.6704287"><ele>51.33333333333333</ele><time>2026-04-26T16:11:29.394Z</time></trkpt><trkpt lat="45.6487604" lon="11.6706455"><ele>52.0</ele><time>2026-04-26T16:11:30.393Z</time></trkpt><trkpt lat="45.6487262" lon="11.6708643"><ele>52.0</ele><time>2026-04-26T16:11:31.395Z</time></trkpt><trkpt lat="45.6486916" lon="11.671088"><ele>52.0</ele><time>2026-04-26T16:11:32.394Z</time></trkpt><trkpt lat="45.6486564" lon="11.6713173"><ele>52.0</ele><time>2026-04-26T16:11:33.393Z</time></trkpt><trkpt lat="45.6486206" lon="11.6715542"><ele>52.0</ele><time>2026-04-26T16:11:34.396Z</time></trkpt><trkpt lat="45.6485888" lon="11.6717885"><ele>52.0</ele><time>2026-04-26T16:11:35.394Z</time></trkpt><trkpt lat="45.6485622" lon="11.6720133"><ele>52.0</ele><time>2026-04-26T16:11:36.397Z</time></trkpt><trkpt lat="45.6485422" lon="11.672235"><ele>52.0</ele><time>2026-04-26T16:11:37.394Z</time></trkpt><trkpt lat="45.6485265" lon="11.67246"><ele>52.0</ele><time>2026-04-26T16:11:38.394Z</time></trkpt><trkpt lat="45.6485013" lon="11.6729118"><ele>51.666666666666664</ele><time>2026-04-26T16:11:40.395Z</time></trkpt><trkpt lat="45.6484898" lon="11.6731313"><ele>51.33333333333333</ele><time>2026-04-26T16:11:41.394Z</time></trkpt><trkpt lat="45.6484782" lon="11.6733422"><ele>51.0</ele><time>2026-04-26T16:11:42.396Z</time></trkpt><trkpt lat="45.6484664" lon="11.673553"><ele>51.33333333333333</ele><time>2026-04-26T16:11:43.395Z</time></trkpt><trkpt lat="45.6484549" lon="11.6737707"><ele>51.666666666666664</ele><time>2026-04-26T16:11:44.394Z</time></trkpt><trkpt lat="45.6484444" lon="11.6739969"><ele>52.0</ele><time>2026-04-26T16:11:45.395Z</time></trkpt><trkpt lat="45.6484346" lon="11.6742322"><ele>51.666666666666664</ele><time>2026-04-26T16:11:46.393Z</time></trkpt><trkpt lat="45.6484248" lon="11.6744695"><ele>51.33333333333333</ele><time>2026-04-26T16:11:47.391Z</time></trkpt><trkpt lat="45.6484131" lon="11.6747005"><ele>51.0</ele><time>2026-04-26T16:11:48.391Z</time></trkpt><trkpt lat="45.6483995" lon="11.6749321"><ele>51.0</ele><time>2026-04-26T16:11:49.393Z</time></trkpt><trkpt lat="45.6483845" lon="11.6751664"><ele>51.0</ele><time>2026-04-26T16:11:50.392Z</time></trkpt><trkpt lat="45.6483689" lon="11.6753983"><ele>51.0</ele><time>2026-04-26T16:11:51.395Z</time></trkpt><trkpt lat="45.6483562" lon="11.675622"><ele>51.33333333333333</ele><time>2026-04-26T16:11:52.396Z</time></trkpt><trkpt lat="45.6483529" lon="11.6758417"><ele>51.666666666666664</ele><time>2026-04-26T16:11:53.394Z</time></trkpt><trkpt lat="45.6483631" lon="11.6760646"><ele>52.0</ele><time>2026-04-26T16:11:54.393Z</time></trkpt><trkpt lat="45.648387" lon="11.676287"><ele>51.75</ele><time>2026-04-26T16:11:55.393Z</time></trkpt><trkpt lat="45.6484169" lon="11.6765047"><ele>51.5</ele><time>2026-04-26T16:11:56.393Z</time></trkpt><trkpt lat="45.6484476" lon="11.6767135"><ele>51.25</ele><time>2026-04-26T16:11:57.394Z</time></trkpt><trkpt lat="45.6484778" lon="11.676911"><ele>51.0</ele><time>2026-04-26T16:11:58.392Z</time></trkpt><trkpt lat="45.6485045" lon="11.6771001"><ele>51.0</ele><time>2026-04-26T16:11:59.393Z</time></trkpt><trkpt lat="45.6485611" lon="11.6774749"><ele>51.0</ele><time>2026-04-26T16:12:01.393Z</time></trkpt><trkpt lat="45.6485937" lon="11.6776647"><ele>51.0</ele><time>2026-04-26T16:12:02.395Z</time></trkpt><trkpt lat="45.6486259" lon="11.6778455"><ele>51.75</ele><time>2026-04-26T16:12:03.393Z</time></trkpt><trkpt lat="45.6486555" lon="11.6780186"><ele>52.5</ele><time>2026-04-26T16:12:04.396Z</time></trkpt><trkpt lat="45.6486813" lon="11.6781837"><ele>53.25</ele><time>2026-04-26T16:12:05.393Z</time></trkpt><trkpt lat="45.6487057" lon="11.67834"><ele>54.0</ele><time>2026-04-26T16:12:06.392Z</time></trkpt><trkpt lat="45.6487285" lon="11.6784828"><ele>54.0</ele><time>2026-04-26T16:12:07.396Z</time></trkpt><trkpt lat="45.648747" lon="11.6785927"><ele>54.0</ele><time>2026-04-26T16:12:08.393Z</time></trkpt><trkpt lat="45.6487597" lon="11.6786829"><ele>54.0</ele><time>2026-04-26T16:12:09.392Z</time></trkpt><trkpt lat="45.6487754" lon="11.6788125"><ele>54.0</ele><time>2026-04-26T16:12:11.389Z</time></trkpt><trkpt lat="45.6487937" lon="11.6789381"><ele>54.0</ele><time>2026-04-26T16:12:13.39Z</time></trkpt><trkpt lat="45.6487984" lon="11.6790576"><ele>54.0</ele><time>2026-04-26T16:12:15.392Z</time></trkpt><trkpt lat="45.6487804" lon="11.6791723"><ele>53.75</ele><time>2026-04-26T16:12:17.393Z</time></trkpt><trkpt lat="45.6487363" lon="11.6792382"><ele>53.5</ele><time>2026-04-26T16:12:18.394Z</time></trkpt><trkpt lat="45.6486585" lon="11.6792788"><ele>53.25</ele><time>2026-04-26T16:12:19.392Z</time></trkpt><trkpt lat="45.6485532" lon="11.679295"><ele>53.0</ele><time>2026-04-26T16:12:20.394Z</time></trkpt><trkpt lat="45.6482455" lon="11.6793041"><ele>52.66666666666667</ele><time>2026-04-26T16:12:22.395Z</time></trkpt><trkpt lat="45.6480717" lon="11.6793108"><ele>52.33333333333333</ele><time>2026-04-26T16:12:23.393Z</time></trkpt><trkpt lat="45.647907" lon="11.6793173"><ele>52.0</ele><time>2026-04-26T16:12:24.393Z</time></trkpt><trkpt lat="45.6477534" lon="11.6793295"><ele>51.666666666666664</ele><time>2026-04-26T16:12:25.394Z</time></trkpt><trkpt lat="45.6475992" lon="11.6793609"><ele>51.33333333333333</ele><time>2026-04-26T16:12:26.393Z</time></trkpt><trkpt lat="45.647438" lon="11.6794222"><ele>51.0</ele><time>2026-04-26T16:12:27.393Z</time></trkpt><trkpt lat="45.6472711" lon="11.6795139"><ele>51.0</ele><time>2026-04-26T16:12:28.394Z</time></trkpt><trkpt lat="45.6471172" lon="11.6796179"><ele>51.0</ele><time>2026-04-26T16:12:29.393Z</time></trkpt><trkpt lat="45.6470046" lon="11.6797076"><ele>51.0</ele><time>2026-04-26T16:12:30.194Z</time></trkpt><trkpt lat="45.6468562" lon="11.6798594"><ele>51.25</ele><time>2026-04-26T16:12:31.393Z</time></trkpt><trkpt lat="45.6467548" lon="11.6800017"><ele>51.5</ele><time>2026-04-26T16:12:32.392Z</time></trkpt><trkpt lat="45.6466733" lon="11.6801542"><ele>51.75</ele><time>2026-04-26T16:12:33.394Z</time></trkpt><trkpt lat="45.6466056" lon="11.6803052"><ele>52.0</ele><time>2026-04-26T16:12:34.392Z</time></trkpt><trkpt lat="45.6465439" lon="11.6804439"><ele>52.0</ele><time>2026-04-26T16:12:35.393Z</time></trkpt><trkpt lat="45.6464803" lon="11.6805652"><ele>52.0</ele><time>2026-04-26T16:12:36.392Z</time></trkpt><trkpt lat="45.6463991" lon="11.6806474"><ele>52.0</ele><time>2026-04-26T16:12:37.392Z</time></trkpt><trkpt lat="45.6462903" lon="11.6806948"><ele>52.0</ele><time>2026-04-26T16:12:38.395Z</time></trkpt><trkpt lat="45.6461533" lon="11.6807166"><ele>51.666666666666664</ele><time>2026-04-26T16:12:39.395Z</time></trkpt><trkpt lat="45.6459919" lon="11.6807155"><ele>51.33333333333333</ele><time>2026-04-26T16:12:40.395Z</time></trkpt><trkpt lat="45.6458076" lon="11.680697"><ele>51.0</ele><time>2026-04-26T16:12:41.397Z</time></trkpt><trkpt lat="45.6454189" lon="11.6805841"><ele>51.0</ele><time>2026-04-26T16:12:43.397Z</time></trkpt><trkpt lat="45.6452247" lon="11.6804791"><ele>51.0</ele><time>2026-04-26T16:12:44.396Z</time></trkpt><trkpt lat="45.6450383" lon="11.6803543"><ele>51.0</ele><time>2026-04-26T16:12:45.393Z</time></trkpt><trkpt lat="45.6448586" lon="11.6802257"><ele>51.0</ele><time>2026-04-26T16:12:46.393Z</time></trkpt><trkpt lat="45.6446785" lon="11.6800955"><ele>51.0</ele><time>2026-04-26T16:12:47.393Z</time></trkpt><trkpt lat="45.644499" lon="11.6799628"><ele>51.0</ele><time>2026-04-26T16:12:48.394Z</time></trkpt><trkpt lat="45.6443266" lon="11.6798358"><ele>50.66666666666667</ele><time>2026-04-26T16:12:49.396Z</time></trkpt><trkpt lat="45.644161" lon="11.6797145"><ele>50.333333333333336</ele><time>2026-04-26T16:12:50.393Z</time></trkpt><trkpt lat="45.6439917" lon="11.6795993"><ele>50.0</ele><time>2026-04-26T16:12:51.395Z</time></trkpt><trkpt lat="45.6438143" lon="11.679502"><ele>49.66666666666667</ele><time>2026-04-26T16:12:52.393Z</time></trkpt><trkpt lat="45.6436271" lon="11.6794307"><ele>49.33333333333333</ele><time>2026-04-26T16:12:53.397Z</time></trkpt><trkpt lat="45.6434341" lon="11.679387"><ele>49.0</ele><time>2026-04-26T16:12:54.395Z</time></trkpt><trkpt lat="45.6432445" lon="11.6793709"><ele>49.0</ele><time>2026-04-26T16:12:55.395Z</time></trkpt><trkpt lat="45.6430592" lon="11.6793806"><ele>49.0</ele><time>2026-04-26T16:12:56.394Z</time></trkpt><trkpt lat="45.6428723" lon="11.679418"><ele>49.0</ele><time>2026-04-26T16:12:57.394Z</time></trkpt><trkpt lat="45.6426758" lon="11.6794893"><ele>49.5</ele><time>2026-04-26T16:12:58.396Z</time></trkpt><trkpt lat="45.6424675" lon="11.6795841"><ele>50.0</ele><time>2026-04-26T16:12:59.396Z</time></trkpt><trkpt lat="45.6422426" lon="11.6796855"><ele>50.0</ele><time>2026-04-26T16:13:00.391Z</time></trkpt><trkpt lat="45.642" lon="11.6797837"><ele>50.0</ele><time>2026-04-26T16:13:01.392Z</time></trkpt><trkpt lat="45.6417467" lon="11.6798806"><ele>50.0</ele><time>2026-04-26T16:13:02.392Z</time></trkpt><trkpt lat="45.641273" lon="11.6800551"><ele>49.66666666666667</ele><time>2026-04-26T16:13:04.394Z</time></trkpt><trkpt lat="45.6410556" lon="11.6801374"><ele>49.33333333333333</ele><time>2026-04-26T16:13:05.394Z</time></trkpt><trkpt lat="45.6408488" lon="11.6802166"><ele>49.0</ele><time>2026-04-26T16:13:06.395Z</time></trkpt><trkpt lat="45.6406487" lon="11.6802924"><ele>48.666666666666664</ele><time>2026-04-26T16:13:07.396Z</time></trkpt><trkpt lat="45.6404488" lon="11.6803691"><ele>48.33333333333333</ele><time>2026-04-26T16:13:08.393Z</time></trkpt><trkpt lat="45.6402874" lon="11.6804296"><ele>48.0</ele><time>2026-04-26T16:13:09.195Z</time></trkpt><trkpt lat="45.6400421" lon="11.6805219"><ele>48.0</ele><time>2026-04-26T16:13:10.394Z</time></trkpt><trkpt lat="45.6398345" lon="11.6806036"><ele>48.0</ele><time>2026-04-26T16:13:11.394Z</time></trkpt><trkpt lat="45.6396263" lon="11.6806864"><ele>48.0</ele><time>2026-04-26T16:13:12.395Z</time></trkpt><trkpt lat="45.6394245" lon="11.6807663"><ele>48.33333333333333</ele><time>2026-04-26T16:13:13.394Z</time></trkpt><trkpt lat="45.6392314" lon="11.6808415"><ele>48.666666666666664</ele><time>2026-04-26T16:13:14.393Z</time></trkpt><trkpt lat="45.6390411" lon="11.6809154"><ele>49.0</ele><time>2026-04-26T16:13:15.394Z</time></trkpt><trkpt lat="45.6388502" lon="11.68099"><ele>49.0</ele><time>2026-04-26T16:13:16.394Z</time></trkpt><trkpt lat="45.6386517" lon="11.6810694"><ele>49.0</ele><time>2026-04-26T16:13:17.396Z</time></trkpt><trkpt lat="45.6384424" lon="11.6811624"><ele>49.0</ele><time>2026-04-26T16:13:18.394Z</time></trkpt><trkpt lat="45.6382201" lon="11.6812666"><ele>48.5</ele><time>2026-04-26T16:13:19.394Z</time></trkpt><trkpt lat="45.6379845" lon="11.6813689"><ele>48.0</ele><time>2026-04-26T16:13:20.394Z</time></trkpt><trkpt lat="45.6377394" lon="11.681463"><ele>48.0</ele><time>2026-04-26T16:13:21.395Z</time></trkpt><trkpt lat="45.637492" lon="11.6815478"><ele>48.0</ele><time>2026-04-26T16:13:22.395Z</time></trkpt><trkpt lat="45.6372465" lon="11.6816331"><ele>49.0</ele><time>2026-04-26T16:13:23.396Z</time></trkpt><trkpt lat="45.6367903" lon="11.6818088"><ele>49.0</ele><time>2026-04-26T16:13:25.392Z</time></trkpt><trkpt lat="45.6365793" lon="11.6818897"><ele>49.0</ele><time>2026-04-26T16:13:26.392Z</time></trkpt><trkpt lat="45.6363759" lon="11.6819671"><ele>49.0</ele><time>2026-04-26T16:13:27.391Z</time></trkpt><trkpt lat="45.6361747" lon="11.6820452"><ele>49.33333333333333</ele><time>2026-04-26T16:13:28.392Z</time></trkpt><trkpt lat="45.6359725" lon="11.682125"><ele>49.66666666666667</ele><time>2026-04-26T16:13:29.394Z</time></trkpt><trkpt lat="45.6357688" lon="11.6822053"><ele>50.0</ele><time>2026-04-26T16:13:30.396Z</time></trkpt><trkpt lat="45.6355701" lon="11.6822823"><ele>50.0</ele><time>2026-04-26T16:13:31.393Z</time></trkpt><trkpt lat="45.635371" lon="11.6823557"><ele>50.0</ele><time>2026-04-26T16:13:32.394Z</time></trkpt><trkpt lat="45.6351726" lon="11.6824313"><ele>50.0</ele><time>2026-04-26T16:13:33.393Z</time></trkpt><trkpt lat="45.6349805" lon="11.6825085"><ele>50.0</ele><time>2026-04-26T16:13:34.396Z</time></trkpt><trkpt lat="45.6347947" lon="11.6825833"><ele>50.0</ele><time>2026-04-26T16:13:35.392Z</time></trkpt><trkpt lat="45.6346148" lon="11.6826538"><ele>50.0</ele><time>2026-04-26T16:13:36.395Z</time></trkpt><trkpt lat="45.6344392" lon="11.6827208"><ele>50.333333333333336</ele><time>2026-04-26T16:13:37.394Z</time></trkpt><trkpt lat="45.6342627" lon="11.6827883"><ele>50.66666666666667</ele><time>2026-04-26T16:13:38.393Z</time></trkpt><trkpt lat="45.6340815" lon="11.6828592"><ele>51.0</ele><time>2026-04-26T16:13:39.393Z</time></trkpt><trkpt lat="45.6339004" lon="11.6829314"><ele>51.0</ele><time>2026-04-26T16:13:40.395Z</time></trkpt><trkpt lat="45.6337219" lon="11.6830035"><ele>51.0</ele><time>2026-04-26T16:13:41.393Z</time></trkpt><trkpt lat="45.6335419" lon="11.6830748"><ele>51.0</ele><time>2026-04-26T16:13:42.394Z</time></trkpt><trkpt lat="45.6333617" lon="11.6831453"><ele>49.5</ele><time>2026-04-26T16:13:43.395Z</time></trkpt><trkpt lat="45.6331791" lon="11.6832176"><ele>48.0</ele><time>2026-04-26T16:13:44.396Z</time></trkpt><trkpt lat="45.6328077" lon="11.6833645"><ele>48.0</ele><time>2026-04-26T16:13:46.394Z</time></trkpt><trkpt lat="45.6326257" lon="11.6834334"><ele>48.0</ele><time>2026-04-26T16:13:47.395Z</time></trkpt><trkpt lat="45.6324522" lon="11.6835002"><ele>48.0</ele><time>2026-04-26T16:13:48.394Z</time></trkpt><trkpt lat="45.6322859" lon="11.6835651"><ele>48.0</ele><time>2026-04-26T16:13:49.392Z</time></trkpt><trkpt lat="45.6321268" lon="11.6836283"><ele>48.0</ele><time>2026-04-26T16:13:50.393Z</time></trkpt><trkpt lat="45.631974" lon="11.6836892"><ele>48.0</ele><time>2026-04-26T16:13:51.395Z</time></trkpt><trkpt lat="45.6318254" lon="11.6837477"><ele>48.0</ele><time>2026-04-26T16:13:52.392Z</time></trkpt><trkpt lat="45.6316755" lon="11.6838072"><ele>48.0</ele><time>2026-04-26T16:13:53.394Z</time></trkpt><trkpt lat="45.6315217" lon="11.683871"><ele>48.0</ele><time>2026-04-26T16:13:54.394Z</time></trkpt><trkpt lat="45.6313624" lon="11.6839424"><ele>48.0</ele><time>2026-04-26T16:13:55.394Z</time></trkpt><trkpt lat="45.6312003" lon="11.6840257"><ele>48.0</ele><time>2026-04-26T16:13:56.393Z</time></trkpt><trkpt lat="45.6310408" lon="11.6841165"><ele>48.0</ele><time>2026-04-26T16:13:57.394Z</time></trkpt><trkpt lat="45.6308836" lon="11.684219"><ele>47.333333333333336</ele><time>2026-04-26T16:13:58.396Z</time></trkpt><trkpt lat="45.6307281" lon="11.6843297"><ele>46.66666666666667</ele><time>2026-04-26T16:13:59.392Z</time></trkpt><trkpt lat="45.6305723" lon="11.6844456"><ele>46.0</ele><time>2026-04-26T16:14:00.394Z</time></trkpt><trkpt lat="45.6304134" lon="11.6845656"><ele>45.66666666666667</ele><time>2026-04-26T16:14:01.395Z</time></trkpt><trkpt lat="45.6302564" lon="11.6846864"><ele>45.333333333333336</ele><time>2026-04-26T16:14:02.393Z</time></trkpt><trkpt lat="45.6301081" lon="11.6848076"><ele>45.0</ele><time>2026-04-26T16:14:03.395Z</time></trkpt><trkpt lat="45.6299603" lon="11.684933"><ele>45.0</ele><time>2026-04-26T16:14:04.393Z</time></trkpt><trkpt lat="45.6298085" lon="11.6850647"><ele>45.0</ele><time>2026-04-26T16:14:05.394Z</time></trkpt><trkpt lat="45.6294849" lon="11.6853387"><ele>44.666666666666664</ele><time>2026-04-26T16:14:07.395Z</time></trkpt><trkpt lat="45.6293498" lon="11.6854481"><ele>44.33333333333333</ele><time>2026-04-26T16:14:08.195Z</time></trkpt><trkpt lat="45.6291474" lon="11.6856153"><ele>44.0</ele><time>2026-04-26T16:14:09.394Z</time></trkpt><trkpt lat="45.6289836" lon="11.6857514"><ele>44.0</ele><time>2026-04-26T16:14:10.394Z</time></trkpt><trkpt lat="45.6288255" lon="11.6858834"><ele>44.0</ele><time>2026-04-26T16:14:11.395Z</time></trkpt><trkpt lat="45.6286739" lon="11.6860086"><ele>44.0</ele><time>2026-04-26T16:14:12.395Z</time></trkpt><trkpt lat="45.6283869" lon="11.6862297"><ele>44.33333333333333</ele><time>2026-04-26T16:14:14.392Z</time></trkpt><trkpt lat="45.628249" lon="11.6863256"><ele>44.666666666666664</ele><time>2026-04-26T16:14:15.394Z</time></trkpt><trkpt lat="45.6281144" lon="11.6864154"><ele>45.0</ele><time>2026-04-26T16:14:16.391Z</time></trkpt><trkpt lat="45.6279779" lon="11.6865017"><ele>45.0</ele><time>2026-04-26T16:14:17.394Z</time></trkpt><trkpt lat="45.6278382" lon="11.6865859"><ele>45.0</ele><time>2026-04-26T16:14:18.393Z</time></trkpt><trkpt lat="45.6276955" lon="11.6866694"><ele>45.0</ele><time>2026-04-26T16:14:19.393Z</time></trkpt><trkpt lat="45.627549" lon="11.686752"><ele>45.0</ele><time>2026-04-26T16:14:20.397Z</time></trkpt><trkpt lat="45.6274029" lon="11.6868309"><ele>45.0</ele><time>2026-04-26T16:14:21.395Z</time></trkpt><trkpt lat="45.6272631" lon="11.6869048"><ele>45.0</ele><time>2026-04-26T16:14:22.396Z</time></trkpt><trkpt lat="45.6271257" lon="11.6869705"><ele>45.0</ele><time>2026-04-26T16:14:23.393Z</time></trkpt><trkpt lat="45.6269826" lon="11.6870326"><ele>45.0</ele><time>2026-04-26T16:14:24.395Z</time></trkpt><trkpt lat="45.6268332" lon="11.6870936"><ele>45.0</ele><time>2026-04-26T16:14:25.397Z</time></trkpt><trkpt lat="45.6266791" lon="11.6871517"><ele>45.5</ele><time>2026-04-26T16:14:26.397Z</time></trkpt><trkpt lat="45.626369" lon="11.6872548"><ele>46.0</ele><time>2026-04-26T16:14:28.397Z</time></trkpt><trkpt lat="45.6262113" lon="11.6873028"><ele>45.0</ele><time>2026-04-26T16:14:29.397Z</time></trkpt><trkpt lat="45.6260529" lon="11.6873461"><ele>44.0</ele><time>2026-04-26T16:14:30.396Z</time></trkpt><trkpt lat="45.6258938" lon="11.6873869"><ele>43.0</ele><time>2026-04-26T16:14:31.395Z</time></trkpt><trkpt lat="45.625733" lon="11.687427"><ele>43.0</ele><time>2026-04-26T16:14:32.397Z</time></trkpt><trkpt lat="45.6255729" lon="11.6874652"><ele>43.0</ele><time>2026-04-26T16:14:33.397Z</time></trkpt><trkpt lat="45.6254125" lon="11.6875035"><ele>43.0</ele><time>2026-04-26T16:14:34.395Z</time></trkpt><trkpt lat="45.625251" lon="11.6875446"><ele>43.66666666666667</ele><time>2026-04-26T16:14:35.395Z</time></trkpt><trkpt lat="45.6250908" lon="11.6875832"><ele>44.333333333333336</ele><time>2026-04-26T16:14:36.395Z</time></trkpt><trkpt lat="45.6249362" lon="11.6876192"><ele>45.0</ele><time>2026-04-26T16:14:37.395Z</time></trkpt><trkpt lat="45.6247867" lon="11.6876543"><ele>45.0</ele><time>2026-04-26T16:14:38.393Z</time></trkpt><trkpt lat="45.6246385" lon="11.6876904"><ele>45.0</ele><time>2026-04-26T16:14:39.393Z</time></trkpt><trkpt lat="45.6244895" lon="11.6877269"><ele>45.0</ele><time>2026-04-26T16:14:40.394Z</time></trkpt><trkpt lat="45.6243414" lon="11.6877622"><ele>44.75</ele><time>2026-04-26T16:14:41.392Z</time></trkpt><trkpt lat="45.6241961" lon="11.6877955"><ele>44.5</ele><time>2026-04-26T16:14:42.394Z</time></trkpt><trkpt lat="45.6240541" lon="11.6878265"><ele>44.25</ele><time>2026-04-26T16:14:43.395Z</time></trkpt><trkpt lat="45.623909" lon="11.687861"><ele>44.0</ele><time>2026-04-26T16:14:44.395Z</time></trkpt><trkpt lat="45.6237593" lon="11.6878974"><ele>44.0</ele><time>2026-04-26T16:14:45.397Z</time></trkpt><trkpt lat="45.6236063" lon="11.6879334"><ele>44.0</ele><time>2026-04-26T16:14:46.394Z</time></trkpt><trkpt lat="45.62345" lon="11.6879696"><ele>44.0</ele><time>2026-04-26T16:14:47.396Z</time></trkpt><trkpt lat="45.6231511" lon="11.6880374"><ele>44.0</ele><time>2026-04-26T16:14:49.394Z</time></trkpt><trkpt lat="45.6230102" lon="11.6880694"><ele>44.0</ele><time>2026-04-26T16:14:50.396Z</time></trkpt><trkpt lat="45.6228705" lon="11.6881008"><ele>44.0</ele><time>2026-04-26T16:14:51.396Z</time></trkpt><trkpt lat="45.6227355" lon="11.6881325"><ele>44.0</ele><time>2026-04-26T16:14:52.394Z</time></trkpt><trkpt lat="45.6226079" lon="11.6881627"><ele>44.0</ele><time>2026-04-26T16:14:53.396Z</time></trkpt><trkpt lat="45.6224873" lon="11.6881922"><ele>44.0</ele><time>2026-04-26T16:14:54.397Z</time></trkpt><trkpt lat="45.6223706" lon="11.6882231"><ele>44.0</ele><time>2026-04-26T16:14:55.398Z</time></trkpt><trkpt lat="45.6222509" lon="11.6882531"><ele>44.0</ele><time>2026-04-26T16:14:56.396Z</time></trkpt><trkpt lat="45.6221291" lon="11.6882793"><ele>44.0</ele><time>2026-04-26T16:14:57.396Z</time></trkpt><trkpt lat="45.6220127" lon="11.6883026"><ele>44.0</ele><time>2026-04-26T16:14:58.396Z</time></trkpt><trkpt lat="45.6219024" lon="11.6883261"><ele>44.0</ele><time>2026-04-26T16:14:59.396Z</time></trkpt><trkpt lat="45.6218022" lon="11.6883511"><ele>44.0</ele><time>2026-04-26T16:15:00.397Z</time></trkpt><trkpt lat="45.6217156" lon="11.6883732"><ele>44.0</ele><time>2026-04-26T16:15:01.395Z</time></trkpt><trkpt lat="45.6216386" lon="11.6883915"><ele>44.285714285714285</ele><time>2026-04-26T16:15:02.393Z</time></trkpt><trkpt lat="45.6215662" lon="11.6884099"><ele>44.57142857142857</ele><time>2026-04-26T16:15:03.396Z</time></trkpt><trkpt lat="45.6214964" lon="11.6884228"><ele>44.85714285714286</ele><time>2026-04-26T16:15:04.394Z</time></trkpt><trkpt lat="45.6214275" lon="11.6884222"><ele>45.14285714285714</ele><time>2026-04-26T16:15:05.396Z</time></trkpt><trkpt lat="45.6213596" lon="11.6884011"><ele>45.42857142857142</ele><time>2026-04-26T16:15:06.395Z</time></trkpt><trkpt lat="45.6212966" lon="11.6883745"><ele>45.714285714285715</ele><time>2026-04-26T16:15:07.398Z</time></trkpt><trkpt lat="45.6212114" lon="11.6883448"><ele>46.0</ele><time>2026-04-26T16:15:09.395Z</time></trkpt><trkpt lat="45.6210705" lon="11.6885665"><ele>45.333333333333336</ele><time>2026-04-26T16:15:19.398Z</time></trkpt><trkpt lat="45.6210726" lon="11.688749"><ele>44.666666666666664</ele><time>2026-04-26T16:15:20.398Z</time></trkpt><trkpt lat="45.6210857" lon="11.6889865"><ele>44.0</ele><time>2026-04-26T16:15:21.397Z</time></trkpt><trkpt lat="45.6210978" lon="11.6892599"><ele>44.0</ele><time>2026-04-26T16:15:22.399Z</time></trkpt><trkpt lat="45.6211095" lon="11.6895284"><ele>44.0</ele><time>2026-04-26T16:15:23.399Z</time></trkpt><trkpt lat="45.6211237" lon="11.6897787"><ele>44.0</ele><time>2026-04-26T16:15:24.399Z</time></trkpt><trkpt lat="45.6211413" lon="11.6900339"><ele>44.666666666666664</ele><time>2026-04-26T16:15:25.401Z</time></trkpt><trkpt lat="45.6211596" lon="11.690298"><ele>45.333333333333336</ele><time>2026-04-26T16:15:26.398Z</time></trkpt><trkpt lat="45.6211788" lon="11.690581"><ele>46.0</ele><time>2026-04-26T16:15:27.396Z</time></trkpt><trkpt lat="45.6212038" lon="11.6909"><ele>45.0</ele><time>2026-04-26T16:15:28.395Z</time></trkpt><trkpt lat="45.6212221" lon="11.6911838"><ele>44.0</ele><time>2026-04-26T16:15:29.195Z</time></trkpt><trkpt lat="45.6212344" lon="11.6916502"><ele>41.0</ele><time>2026-04-26T16:15:30.396Z</time></trkpt><trkpt lat="45.6212532" lon="11.6924101"><ele>41.0</ele><time>2026-04-26T16:15:32.399Z</time></trkpt><trkpt lat="45.6212653" lon="11.6927524"><ele>41.0</ele><time>2026-04-26T16:15:33.399Z</time></trkpt><trkpt lat="45.6212767" lon="11.6930752"><ele>40.666666666666664</ele><time>2026-04-26T16:15:34.398Z</time></trkpt><trkpt lat="45.6212865" lon="11.6933813"><ele>40.333333333333336</ele><time>2026-04-26T16:15:35.398Z</time></trkpt><trkpt lat="45.6212926" lon="11.6936716"><ele>40.0</ele><time>2026-04-26T16:15:36.399Z</time></trkpt><trkpt lat="45.6212899" lon="11.6939554"><ele>40.0</ele><time>2026-04-26T16:15:37.4Z</time></trkpt><trkpt lat="45.6212776" lon="11.6942423"><ele>40.0</ele><time>2026-04-26T16:15:38.398Z</time></trkpt><trkpt lat="45.6212643" lon="11.6945354"><ele>40.0</ele><time>2026-04-26T16:15:39.401Z</time></trkpt><trkpt lat="45.6212517" lon="11.6948341"><ele>40.0</ele><time>2026-04-26T16:15:40.4Z</time></trkpt><trkpt lat="45.6212385" lon="11.6951364"><ele>40.0</ele><time>2026-04-26T16:15:41.398Z</time></trkpt><trkpt lat="45.6212247" lon="11.6954396"><ele>40.0</ele><time>2026-04-26T16:15:42.399Z</time></trkpt><trkpt lat="45.6212109" lon="11.6957414"><ele>40.0</ele><time>2026-04-26T16:15:43.399Z</time></trkpt><trkpt lat="45.6211974" lon="11.6960286"><ele>40.0</ele><time>2026-04-26T16:15:44.399Z</time></trkpt><trkpt lat="45.6211845" lon="11.6963008"><ele>40.0</ele><time>2026-04-26T16:15:45.401Z</time></trkpt><trkpt lat="45.6211734" lon="11.6965568"><ele>40.5</ele><time>2026-04-26T16:15:46.4Z</time></trkpt><trkpt lat="45.6211634" lon="11.6967909"><ele>41.0</ele><time>2026-04-26T16:15:47.401Z</time></trkpt><trkpt lat="45.6211544" lon="11.6969998"><ele>41.5</ele><time>2026-04-26T16:15:48.398Z</time></trkpt><trkpt lat="45.621146" lon="11.6971845"><ele>42.0</ele><time>2026-04-26T16:15:49.4Z</time></trkpt><trkpt lat="45.6211385" lon="11.6973455"><ele>42.0</ele><time>2026-04-26T16:15:50.399Z</time></trkpt><trkpt lat="45.6211324" lon="11.6974828"><ele>42.0</ele><time>2026-04-26T16:15:51.398Z</time></trkpt><trkpt lat="45.6211183" lon="11.6976957"><ele>42.0</ele><time>2026-04-26T16:15:53.397Z</time></trkpt><trkpt lat="45.6211024" lon="11.697784"><ele>42.0</ele><time>2026-04-26T16:15:54.396Z</time></trkpt><trkpt lat="45.6210637" lon="11.697878"><ele>42.0</ele><time>2026-04-26T16:15:55.397Z</time></trkpt><trkpt lat="45.6209934" lon="11.6979696"><ele>41.5</ele><time>2026-04-26T16:15:56.399Z</time></trkpt><trkpt lat="45.6208981" lon="11.6980504"><ele>41.0</ele><time>2026-04-26T16:15:57.399Z</time></trkpt><trkpt lat="45.6207915" lon="11.6980904"><ele>40.5</ele><time>2026-04-26T16:15:58.399Z</time></trkpt><trkpt lat="45.6206574" lon="11.6980972"><ele>40.0</ele><time>2026-04-26T16:15:59.397Z</time></trkpt><trkpt lat="45.6204901" lon="11.6980783"><ele>39.66666666666667</ele><time>2026-04-26T16:16:00.4Z</time></trkpt><trkpt lat="45.6202947" lon="11.6980532"><ele>39.333333333333336</ele><time>2026-04-26T16:16:01.406Z</time></trkpt><trkpt lat="45.6200748" lon="11.6980313"><ele>39.0</ele><time>2026-04-26T16:16:02.398Z</time></trkpt><trkpt lat="45.6198389" lon="11.6980093"><ele>39.0</ele><time>2026-04-26T16:16:03.401Z</time></trkpt><trkpt lat="45.6195974" lon="11.6979878"><ele>39.0</ele><time>2026-04-26T16:16:04.4Z</time></trkpt><trkpt lat="45.6193584" lon="11.6979685"><ele>39.333333333333336</ele><time>2026-04-26T16:16:05.398Z</time></trkpt><trkpt lat="45.6191236" lon="11.6979494"><ele>39.66666666666667</ele><time>2026-04-26T16:16:06.399Z</time></trkpt><trkpt lat="45.6189843" lon="11.697938"><ele>40.0</ele><time>2026-04-26T16:16:07.001Z</time></trkpt><trkpt lat="45.6186648" lon="11.697914"><ele>40.66666666666667</ele><time>2026-04-26T16:16:08.4Z</time></trkpt><trkpt lat="45.6184459" lon="11.6978956"><ele>41.333333333333336</ele><time>2026-04-26T16:16:09.401Z</time></trkpt><trkpt lat="45.6182464" lon="11.6978783"><ele>42.0</ele><time>2026-04-26T16:16:10.4Z</time></trkpt><trkpt lat="45.6180763" lon="11.6978652"><ele>42.0</ele><time>2026-04-26T16:16:11.402Z</time></trkpt><trkpt lat="45.6179331" lon="11.6978536"><ele>42.0</ele><time>2026-04-26T16:16:12.397Z</time></trkpt><trkpt lat="45.617711" lon="11.6978324"><ele>42.0</ele><time>2026-04-26T16:16:14.399Z</time></trkpt><trkpt lat="45.6176278" lon="11.697834"><ele>42.0</ele><time>2026-04-26T16:16:15.395Z</time></trkpt><trkpt lat="45.6175533" lon="11.6978776"><ele>42.0</ele><time>2026-04-26T16:16:16.395Z</time></trkpt><trkpt lat="45.6174952" lon="11.6979705"><ele>42.0</ele><time>2026-04-26T16:16:17.394Z</time></trkpt><trkpt lat="45.6174594" lon="11.6981099"><ele>42.0</ele><time>2026-04-26T16:16:18.393Z</time></trkpt><trkpt lat="45.6174447" lon="11.6983007"><ele>42.0</ele><time>2026-04-26T16:16:19.394Z</time></trkpt><trkpt lat="45.6174357" lon="11.6985415"><ele>42.0</ele><time>2026-04-26T16:16:20.398Z</time></trkpt><trkpt lat="45.6174161" lon="11.6988214"><ele>42.0</ele><time>2026-04-26T16:16:21.397Z</time></trkpt><trkpt lat="45.6173795" lon="11.6991244"><ele>42.0</ele><time>2026-04-26T16:16:22.397Z</time></trkpt><trkpt lat="45.6173328" lon="11.6994276"><ele>42.0</ele><time>2026-04-26T16:16:23.396Z</time></trkpt><trkpt lat="45.6172886" lon="11.69971"><ele>42.0</ele><time>2026-04-26T16:16:24.399Z</time></trkpt><trkpt lat="45.6172525" lon="11.6999681"><ele>42.0</ele><time>2026-04-26T16:16:25.398Z</time></trkpt><trkpt lat="45.6172197" lon="11.700206"><ele>42.333333333333336</ele><time>2026-04-26T16:16:26.398Z</time></trkpt><trkpt lat="45.6171766" lon="11.7004308"><ele>42.66666666666667</ele><time>2026-04-26T16:16:27.397Z</time></trkpt><trkpt lat="45.6171111" lon="11.7006511"><ele>43.0</ele><time>2026-04-26T16:16:28.398Z</time></trkpt><trkpt lat="45.6170183" lon="11.7008559"><ele>43.0</ele><time>2026-04-26T16:16:29.398Z</time></trkpt><trkpt lat="45.6168985" lon="11.7010403"><ele>43.0</ele><time>2026-04-26T16:16:30.397Z</time></trkpt><trkpt lat="45.6167563" lon="11.7012088"><ele>43.0</ele><time>2026-04-26T16:16:31.396Z</time></trkpt><trkpt lat="45.6166131" lon="11.7013563"><ele>43.0</ele><time>2026-04-26T16:16:32.398Z</time></trkpt><trkpt lat="45.6164825" lon="11.7014924"><ele>43.0</ele><time>2026-04-26T16:16:33.398Z</time></trkpt><trkpt lat="45.6162443" lon="11.7017502"><ele>42.333333333333336</ele><time>2026-04-26T16:16:35.399Z</time></trkpt><trkpt lat="45.6161159" lon="11.7018777"><ele>41.666666666666664</ele><time>2026-04-26T16:16:36.397Z</time></trkpt><trkpt lat="45.6159771" lon="11.7020143"><ele>41.0</ele><time>2026-04-26T16:16:37.397Z</time></trkpt><trkpt lat="45.6158284" lon="11.7021596"><ele>41.0</ele><time>2026-04-26T16:16:38.396Z</time></trkpt><trkpt lat="45.6156818" lon="11.702305"><ele>41.0</ele><time>2026-04-26T16:16:39.396Z</time></trkpt><trkpt lat="45.6155398" lon="11.702448"><ele>41.0</ele><time>2026-04-26T16:16:40.394Z</time></trkpt><trkpt lat="45.6154012" lon="11.7025866"><ele>40.666666666666664</ele><time>2026-04-26T16:16:41.396Z</time></trkpt><trkpt lat="45.615271" lon="11.7027188"><ele>40.333333333333336</ele><time>2026-04-26T16:16:42.394Z</time></trkpt><trkpt lat="45.6151465" lon="11.7028472"><ele>40.0</ele><time>2026-04-26T16:16:43.394Z</time></trkpt><trkpt lat="45.6150168" lon="11.7029826"><ele>39.66666666666667</ele><time>2026-04-26T16:16:44.396Z</time></trkpt><trkpt lat="45.6148747" lon="11.7031401"><ele>39.333333333333336</ele><time>2026-04-26T16:16:45.398Z</time></trkpt><trkpt lat="45.614718" lon="11.7033182"><ele>39.0</ele><time>2026-04-26T16:16:46.395Z</time></trkpt><trkpt lat="45.6145554" lon="11.7034875"><ele>39.333333333333336</ele><time>2026-04-26T16:16:47.397Z</time></trkpt><trkpt lat="45.6143974" lon="11.7036378"><ele>39.66666666666667</ele><time>2026-04-26T16:16:48.398Z</time></trkpt><trkpt lat="45.6142542" lon="11.7037768"><ele>40.0</ele><time>2026-04-26T16:16:49.398Z</time></trkpt><trkpt lat="45.6141256" lon="11.7039056"><ele>40.0</ele><time>2026-04-26T16:16:50.396Z</time></trkpt><trkpt lat="45.6140077" lon="11.7040223"><ele>40.0</ele><time>2026-04-26T16:16:51.397Z</time></trkpt><trkpt lat="45.6138968" lon="11.7041274"><ele>40.0</ele><time>2026-04-26T16:16:52.396Z</time></trkpt><trkpt lat="45.613789" lon="11.704225"><ele>40.0</ele><time>2026-04-26T16:16:53.396Z</time></trkpt><trkpt lat="45.6136856" lon="11.7043221"><ele>39.25</ele><time>2026-04-26T16:16:54.398Z</time></trkpt><trkpt lat="45.6134991" lon="11.7045055"><ele>38.5</ele><time>2026-04-26T16:16:56.395Z</time></trkpt><trkpt lat="45.6134188" lon="11.7045861"><ele>37.75</ele><time>2026-04-26T16:16:57.397Z</time></trkpt><trkpt lat="45.613347" lon="11.7046583"><ele>37.0</ele><time>2026-04-26T16:16:58.397Z</time></trkpt><trkpt lat="45.6132953" lon="11.7047103"><ele>37.0</ele><time>2026-04-26T16:16:59.196Z</time></trkpt><trkpt lat="45.6132302" lon="11.7047773"><ele>37.0</ele><time>2026-04-26T16:17:00.397Z</time></trkpt><trkpt lat="45.6131394" lon="11.7048716"><ele>37.0</ele><time>2026-04-26T16:17:02.398Z</time></trkpt><trkpt lat="45.6130765" lon="11.7049479"><ele>37.0</ele><time>2026-04-26T16:17:03.397Z</time></trkpt><trkpt lat="45.612988" lon="11.7050603"><ele>37.0</ele><time>2026-04-26T16:17:04.396Z</time></trkpt><trkpt lat="45.6128673" lon="11.7052023"><ele>37.0</ele><time>2026-04-26T16:17:05.394Z</time></trkpt><trkpt lat="45.6127077" lon="11.7053616"><ele>37.0</ele><time>2026-04-26T16:17:06.393Z</time></trkpt><trkpt lat="45.6125179" lon="11.7055381"><ele>37.0</ele><time>2026-04-26T16:17:07.395Z</time></trkpt><trkpt lat="45.6123069" lon="11.7057429"><ele>37.0</ele><time>2026-04-26T16:17:08.393Z</time></trkpt><trkpt lat="45.6120869" lon="11.7059659"><ele>37.0</ele><time>2026-04-26T16:17:09.397Z</time></trkpt><trkpt lat="45.6118626" lon="11.7061945"><ele>37.0</ele><time>2026-04-26T16:17:10.395Z</time></trkpt><trkpt lat="45.611633" lon="11.7064294"><ele>37.0</ele><time>2026-04-26T16:17:11.395Z</time></trkpt><trkpt lat="45.6113993" lon="11.7066691"><ele>37.0</ele><time>2026-04-26T16:17:12.395Z</time></trkpt><trkpt lat="45.611172" lon="11.7069031"><ele>37.0</ele><time>2026-04-26T16:17:13.396Z</time></trkpt><trkpt lat="45.6109581" lon="11.7071241"><ele>37.0</ele><time>2026-04-26T16:17:14.395Z</time></trkpt><trkpt lat="45.6107521" lon="11.7073359"><ele>37.0</ele><time>2026-04-26T16:17:15.394Z</time></trkpt><trkpt lat="45.6103397" lon="11.7077572"><ele>36.0</ele><time>2026-04-26T16:17:17.395Z</time></trkpt><trkpt lat="45.6101319" lon="11.7079695"><ele>35.0</ele><time>2026-04-26T16:17:18.397Z</time></trkpt><trkpt lat="45.609923" lon="11.7081814"><ele>35.0</ele><time>2026-04-26T16:17:19.395Z</time></trkpt><trkpt lat="45.6097148" lon="11.7083913"><ele>35.0</ele><time>2026-04-26T16:17:20.397Z</time></trkpt><trkpt lat="45.6095109" lon="11.7085967"><ele>35.5</ele><time>2026-04-26T16:17:21.397Z</time></trkpt><trkpt lat="45.609311" lon="11.7087981"><ele>36.0</ele><time>2026-04-26T16:17:22.397Z</time></trkpt><trkpt lat="45.6091136" lon="11.708998"><ele>36.0</ele><time>2026-04-26T16:17:23.396Z</time></trkpt><trkpt lat="45.6089172" lon="11.7091982"><ele>36.0</ele><time>2026-04-26T16:17:24.398Z</time></trkpt><trkpt lat="45.6087218" lon="11.7093976"><ele>37.0</ele><time>2026-04-26T16:17:25.395Z</time></trkpt><trkpt lat="45.6085291" lon="11.7095926"><ele>38.0</ele><time>2026-04-26T16:17:26.394Z</time></trkpt><trkpt lat="45.6083408" lon="11.7097816"><ele>38.0</ele><time>2026-04-26T16:17:27.396Z</time></trkpt><trkpt lat="45.6081568" lon="11.7099678"><ele>38.0</ele><time>2026-04-26T16:17:28.397Z</time></trkpt><trkpt lat="45.607974" lon="11.7101534"><ele>38.0</ele><time>2026-04-26T16:17:29.394Z</time></trkpt><trkpt lat="45.6077906" lon="11.7103391"><ele>38.0</ele><time>2026-04-26T16:17:30.393Z</time></trkpt><trkpt lat="45.6076058" lon="11.7105245"><ele>38.0</ele><time>2026-04-26T16:17:31.394Z</time></trkpt><trkpt lat="45.6074194" lon="11.7107083"><ele>38.0</ele><time>2026-04-26T16:17:32.392Z</time></trkpt><trkpt lat="45.6072331" lon="11.7108928"><ele>37.5</ele><time>2026-04-26T16:17:33.393Z</time></trkpt><trkpt lat="45.6070466" lon="11.7110793"><ele>37.0</ele><time>2026-04-26T16:17:34.395Z</time></trkpt><trkpt lat="45.6068604" lon="11.7112666"><ele>36.0</ele><time>2026-04-26T16:17:35.395Z</time></trkpt><trkpt lat="45.6066754" lon="11.7114523"><ele>35.0</ele><time>2026-04-26T16:17:36.395Z</time></trkpt><trkpt lat="45.606311" lon="11.7118192"><ele>35.33333333333333</ele><time>2026-04-26T16:17:38.398Z</time></trkpt><trkpt lat="45.6061314" lon="11.7120006"><ele>35.666666666666664</ele><time>2026-04-26T16:17:39.395Z</time></trkpt><trkpt lat="45.6059512" lon="11.7121808"><ele>36.0</ele><time>2026-04-26T16:17:40.396Z</time></trkpt><trkpt lat="45.6057704" lon="11.7123585"><ele>36.0</ele><time>2026-04-26T16:17:41.395Z</time></trkpt><trkpt lat="45.6055907" lon="11.7125374"><ele>36.0</ele><time>2026-04-26T16:17:42.394Z</time></trkpt><trkpt lat="45.6054122" lon="11.7127182"><ele>36.0</ele><time>2026-04-26T16:17:43.395Z</time></trkpt><trkpt lat="45.6052334" lon="11.7128994"><ele>36.333333333333336</ele><time>2026-04-26T16:17:44.395Z</time></trkpt><trkpt lat="45.6050554" lon="11.71308"><ele>36.66666666666667</ele><time>2026-04-26T16:17:45.396Z</time></trkpt><trkpt lat="45.6048777" lon="11.7132608"><ele>37.0</ele><time>2026-04-26T16:17:46.394Z</time></trkpt><trkpt lat="45.6047001" lon="11.7134491"><ele>37.0</ele><time>2026-04-26T16:17:47.397Z</time></trkpt><trkpt lat="45.6045204" lon="11.7136452"><ele>37.0</ele><time>2026-04-26T16:17:48.396Z</time></trkpt><trkpt lat="45.6043404" lon="11.7138341"><ele>37.0</ele><time>2026-04-26T16:17:49.396Z</time></trkpt><trkpt lat="45.6041653" lon="11.7140118"><ele>36.66666666666667</ele><time>2026-04-26T16:17:50.394Z</time></trkpt><trkpt lat="45.6039932" lon="11.7141863"><ele>36.333333333333336</ele><time>2026-04-26T16:17:51.394Z</time></trkpt><trkpt lat="45.6038191" lon="11.7143611"><ele>36.0</ele><time>2026-04-26T16:17:52.395Z</time></trkpt><trkpt lat="45.6036425" lon="11.7145376"><ele>37.0</ele><time>2026-04-26T16:17:53.395Z</time></trkpt><trkpt lat="45.6034599" lon="11.7147199"><ele>38.0</ele><time>2026-04-26T16:17:54.394Z</time></trkpt><trkpt lat="45.6032705" lon="11.714907"><ele>38.0</ele><time>2026-04-26T16:17:55.396Z</time></trkpt><trkpt lat="45.6030769" lon="11.7150988"><ele>38.0</ele><time>2026-04-26T16:17:56.393Z</time></trkpt><trkpt lat="45.6028777" lon="11.7152962"><ele>36.0</ele><time>2026-04-26T16:17:57.396Z</time></trkpt><trkpt lat="45.6024667" lon="11.7157095"><ele>36.0</ele><time>2026-04-26T16:17:59.399Z</time></trkpt><trkpt lat="45.6022556" lon="11.7159226"><ele>36.0</ele><time>2026-04-26T16:18:00.398Z</time></trkpt><trkpt lat="45.6020434" lon="11.71614"><ele>35.5</ele><time>2026-04-26T16:18:01.399Z</time></trkpt><trkpt lat="45.6018322" lon="11.7163559"><ele>35.0</ele><time>2026-04-26T16:18:02.4Z</time></trkpt><trkpt lat="45.6016226" lon="11.716567"><ele>35.0</ele><time>2026-04-26T16:18:03.401Z</time></trkpt><trkpt lat="45.6014149" lon="11.7167752"><ele>35.0</ele><time>2026-04-26T16:18:04.399Z</time></trkpt><trkpt lat="45.601209" lon="11.7169819"><ele>34.5</ele><time>2026-04-26T16:18:05.399Z</time></trkpt><trkpt lat="45.6010076" lon="11.717185"><ele>34.0</ele><time>2026-04-26T16:18:06.4Z</time></trkpt><trkpt lat="45.6008159" lon="11.7173785"><ele>34.0</ele><time>2026-04-26T16:18:07.401Z</time></trkpt><trkpt lat="45.6006337" lon="11.717562"><ele>34.0</ele><time>2026-04-26T16:18:08.397Z</time></trkpt><trkpt lat="45.6004573" lon="11.7177379"><ele>34.0</ele><time>2026-04-26T16:18:09.399Z</time></trkpt><trkpt lat="45.6002863" lon="11.7179097"><ele>34.333333333333336</ele><time>2026-04-26T16:18:10.398Z</time></trkpt><trkpt lat="45.6001194" lon="11.718078"><ele>34.666666666666664</ele><time>2026-04-26T16:18:11.397Z</time></trkpt><trkpt lat="45.5999591" lon="11.71824"><ele>35.0</ele><time>2026-04-26T16:18:12.397Z</time></trkpt><trkpt lat="45.5998035" lon="11.7184007"><ele>35.0</ele><time>2026-04-26T16:18:13.4Z</time></trkpt><trkpt lat="45.5996476" lon="11.7185613"><ele>35.0</ele><time>2026-04-26T16:18:14.397Z</time></trkpt><trkpt lat="45.5993439" lon="11.7188604"><ele>35.0</ele><time>2026-04-26T16:18:16.399Z</time></trkpt><trkpt lat="45.5991947" lon="11.7190069"><ele>35.0</ele><time>2026-04-26T16:18:17.397Z</time></trkpt><trkpt lat="45.5990448" lon="11.7191568"><ele>35.0</ele><time>2026-04-26T16:18:18.396Z</time></trkpt><trkpt lat="45.5987549" lon="11.719444"><ele>35.0</ele><time>2026-04-26T16:18:20.394Z</time></trkpt><trkpt lat="45.5986171" lon="11.7195846"><ele>35.0</ele><time>2026-04-26T16:18:21.395Z</time></trkpt><trkpt lat="45.5984797" lon="11.7197258"><ele>35.0</ele><time>2026-04-26T16:18:22.395Z</time></trkpt><trkpt lat="45.5983414" lon="11.7198702"><ele>35.0</ele><time>2026-04-26T16:18:23.396Z</time></trkpt><trkpt lat="45.5982056" lon="11.7200111"><ele>35.0</ele><time>2026-04-26T16:18:24.396Z</time></trkpt><trkpt lat="45.5980752" lon="11.7201435"><ele>35.0</ele><time>2026-04-26T16:18:25.397Z</time></trkpt><trkpt lat="45.5979515" lon="11.7202691"><ele>34.75</ele><time>2026-04-26T16:18:26.395Z</time></trkpt><trkpt lat="45.5978311" lon="11.7203889"><ele>34.5</ele><time>2026-04-26T16:18:27.395Z</time></trkpt><trkpt lat="45.5977092" lon="11.7205109"><ele>34.25</ele><time>2026-04-26T16:18:28.396Z</time></trkpt><trkpt lat="45.5975851" lon="11.7206373"><ele>34.0</ele><time>2026-04-26T16:18:29.396Z</time></trkpt><trkpt lat="45.597461" lon="11.7207648"><ele>34.0</ele><time>2026-04-26T16:18:30.397Z</time></trkpt><trkpt lat="45.5973397" lon="11.7208888"><ele>34.0</ele><time>2026-04-26T16:18:31.397Z</time></trkpt><trkpt lat="45.5972682" lon="11.7209618"><ele>34.0</ele><time>2026-04-26T16:18:31.998Z</time></trkpt><trkpt lat="45.597104" lon="11.7211268"><ele>34.0</ele><time>2026-04-26T16:18:33.396Z</time></trkpt><trkpt lat="45.5969921" lon="11.7212384"><ele>34.25</ele><time>2026-04-26T16:18:34.397Z</time></trkpt><trkpt lat="45.5968862" lon="11.7213447"><ele>34.5</ele><time>2026-04-26T16:18:35.397Z</time></trkpt><trkpt lat="45.5967848" lon="11.7214472"><ele>34.75</ele><time>2026-04-26T16:18:36.397Z</time></trkpt><trkpt lat="45.5966845" lon="11.7215489"><ele>35.0</ele><time>2026-04-26T16:18:37.398Z</time></trkpt><trkpt lat="45.5965787" lon="11.7216561"><ele>35.0</ele><time>2026-04-26T16:18:38.397Z</time></trkpt><trkpt lat="45.5964654" lon="11.7217713"><ele>35.0</ele><time>2026-04-26T16:18:39.397Z</time></trkpt><trkpt lat="45.596227" lon="11.7220139"><ele>35.0</ele><time>2026-04-26T16:18:41.397Z</time></trkpt><trkpt lat="45.5961033" lon="11.7221417"><ele>35.0</ele><time>2026-04-26T16:18:42.397Z</time></trkpt><trkpt lat="45.5959783" lon="11.7222708"><ele>35.0</ele><time>2026-04-26T16:18:43.397Z</time></trkpt><trkpt lat="45.5958531" lon="11.7223976"><ele>35.0</ele><time>2026-04-26T16:18:44.397Z</time></trkpt><trkpt lat="45.5957313" lon="11.7225211"><ele>35.0</ele><time>2026-04-26T16:18:45.397Z</time></trkpt><trkpt lat="45.5956104" lon="11.7226446"><ele>35.0</ele><time>2026-04-26T16:18:46.397Z</time></trkpt><trkpt lat="45.5954881" lon="11.7227697"><ele>35.0</ele><time>2026-04-26T16:18:47.398Z</time></trkpt><trkpt lat="45.595364" lon="11.7228976"><ele>33.33333333333333</ele><time>2026-04-26T16:18:48.399Z</time></trkpt><trkpt lat="45.5952379" lon="11.7230296"><ele>31.666666666666664</ele><time>2026-04-26T16:18:49.399Z</time></trkpt><trkpt lat="45.5951081" lon="11.7231646"><ele>30.0</ele><time>2026-04-26T16:18:50.398Z</time></trkpt><trkpt lat="45.5949721" lon="11.7233087"><ele>30.0</ele><time>2026-04-26T16:18:51.398Z</time></trkpt><trkpt lat="45.5948288" lon="11.7234734"><ele>30.0</ele><time>2026-04-26T16:18:52.399Z</time></trkpt><trkpt lat="45.594673" lon="11.7236572"><ele>30.0</ele><time>2026-04-26T16:18:53.398Z</time></trkpt><trkpt lat="45.5944999" lon="11.7238457"><ele>30.0</ele><time>2026-04-26T16:18:54.4Z</time></trkpt><trkpt lat="45.5943189" lon="11.7240299"><ele>30.0</ele><time>2026-04-26T16:18:55.4Z</time></trkpt><trkpt lat="45.5941383" lon="11.7242108"><ele>30.0</ele><time>2026-04-26T16:18:56.398Z</time></trkpt><trkpt lat="45.5939578" lon="11.7243932"><ele>30.333333333333336</ele><time>2026-04-26T16:18:57.399Z</time></trkpt><trkpt lat="45.5937759" lon="11.7245795"><ele>30.666666666666668</ele><time>2026-04-26T16:18:58.399Z</time></trkpt><trkpt lat="45.5935995" lon="11.724765"><ele>31.0</ele><time>2026-04-26T16:18:59.398Z</time></trkpt><trkpt lat="45.5934307" lon="11.7249433"><ele>32.0</ele><time>2026-04-26T16:19:00.399Z</time></trkpt><trkpt lat="45.5931071" lon="11.7252855"><ele>33.0</ele><time>2026-04-26T16:19:02.397Z</time></trkpt><trkpt lat="45.5929448" lon="11.7254573"><ele>32.666666666666664</ele><time>2026-04-26T16:19:03.398Z</time></trkpt><trkpt lat="45.5927824" lon="11.7256301"><ele>32.33333333333333</ele><time>2026-04-26T16:19:04.4Z</time></trkpt><trkpt lat="45.5926229" lon="11.7257997"><ele>32.0</ele><time>2026-04-26T16:19:05.398Z</time></trkpt><trkpt lat="45.5924666" lon="11.7259666"><ele>32.0</ele><time>2026-04-26T16:19:06.4Z</time></trkpt><trkpt lat="45.5923416" lon="11.7261003"><ele>32.0</ele><time>2026-04-26T16:19:07.2Z</time></trkpt><trkpt lat="45.5921525" lon="11.7263018"><ele>32.0</ele><time>2026-04-26T16:19:08.395Z</time></trkpt><trkpt lat="45.5919953" lon="11.7264674"><ele>32.0</ele><time>2026-04-26T16:19:09.396Z</time></trkpt><trkpt lat="45.5918424" lon="11.7266289"><ele>32.0</ele><time>2026-04-26T16:19:10.396Z</time></trkpt><trkpt lat="45.591691" lon="11.7267898"><ele>32.0</ele><time>2026-04-26T16:19:11.396Z</time></trkpt><trkpt lat="45.5915399" lon="11.726949"><ele>32.0</ele><time>2026-04-26T16:19:12.398Z</time></trkpt><trkpt lat="45.5913906" lon="11.7271067"><ele>32.0</ele><time>2026-04-26T16:19:13.399Z</time></trkpt><trkpt lat="45.5912433" lon="11.7272617"><ele>32.0</ele><time>2026-04-26T16:19:14.397Z</time></trkpt><trkpt lat="45.5910953" lon="11.7274169"><ele>32.33333333333333</ele><time>2026-04-26T16:19:15.397Z</time></trkpt><trkpt lat="45.5909452" lon="11.727574"><ele>32.666666666666664</ele><time>2026-04-26T16:19:16.397Z</time></trkpt><trkpt lat="45.5907936" lon="11.7277313"><ele>33.0</ele><time>2026-04-26T16:19:17.398Z</time></trkpt><trkpt lat="45.5906394" lon="11.7278901"><ele>33.0</ele><time>2026-04-26T16:19:18.398Z</time></trkpt><trkpt lat="45.5904864" lon="11.7280475"><ele>33.0</ele><time>2026-04-26T16:19:19.397Z</time></trkpt><trkpt lat="45.5903333" lon="11.7282042"><ele>33.0</ele><time>2026-04-26T16:19:20.396Z</time></trkpt><trkpt lat="45.59018" lon="11.7283602"><ele>32.0</ele><time>2026-04-26T16:19:21.398Z</time></trkpt><trkpt lat="45.5898853" lon="11.7286604"><ele>31.0</ele><time>2026-04-26T16:19:23.397Z</time></trkpt><trkpt lat="45.5897431" lon="11.7288036"><ele>31.0</ele><time>2026-04-26T16:19:24.396Z</time></trkpt><trkpt lat="45.5895997" lon="11.7289449"><ele>31.0</ele><time>2026-04-26T16:19:25.397Z</time></trkpt><trkpt lat="45.589452" lon="11.7290938"><ele>31.0</ele><time>2026-04-26T16:19:26.395Z</time></trkpt><trkpt lat="45.5892994" lon="11.7292513"><ele>31.666666666666668</ele><time>2026-04-26T16:19:27.397Z</time></trkpt><trkpt lat="45.5891423" lon="11.7294157"><ele>32.333333333333336</ele><time>2026-04-26T16:19:28.397Z</time></trkpt><trkpt lat="45.5889885" lon="11.7295753"><ele>33.0</ele><time>2026-04-26T16:19:29.396Z</time></trkpt><trkpt lat="45.5888422" lon="11.7297278"><ele>33.0</ele><time>2026-04-26T16:19:30.399Z</time></trkpt><trkpt lat="45.5887022" lon="11.7298732"><ele>33.0</ele><time>2026-04-26T16:19:31.397Z</time></trkpt><trkpt lat="45.588561" lon="11.7300178"><ele>33.0</ele><time>2026-04-26T16:19:32.394Z</time></trkpt><trkpt lat="45.5884181" lon="11.7301647"><ele>32.666666666666664</ele><time>2026-04-26T16:19:33.395Z</time></trkpt><trkpt lat="45.5882792" lon="11.7303074"><ele>32.33333333333333</ele><time>2026-04-26T16:19:34.395Z</time></trkpt><trkpt lat="45.5881419" lon="11.7304496"><ele>32.0</ele><time>2026-04-26T16:19:35.393Z</time></trkpt><trkpt lat="45.588002" lon="11.7305938"><ele>32.0</ele><time>2026-04-26T16:19:36.396Z</time></trkpt><trkpt lat="45.5878654" lon="11.7307322"><ele>32.0</ele><time>2026-04-26T16:19:37.399Z</time></trkpt><trkpt lat="45.5877357" lon="11.7308635"><ele>32.0</ele><time>2026-04-26T16:19:38.397Z</time></trkpt><trkpt lat="45.5876073" lon="11.7309921"><ele>32.666666666666664</ele><time>2026-04-26T16:19:39.398Z</time></trkpt><trkpt lat="45.5874808" lon="11.7311183"><ele>33.333333333333336</ele><time>2026-04-26T16:19:40.397Z</time></trkpt><trkpt lat="45.5873582" lon="11.7312431"><ele>34.0</ele><time>2026-04-26T16:19:41.398Z</time></trkpt><trkpt lat="45.5872372" lon="11.7313661"><ele>33.5</ele><time>2026-04-26T16:19:42.398Z</time></trkpt><trkpt lat="45.5869856" lon="11.7316402"><ele>33.0</ele><time>2026-04-26T16:19:44.397Z</time></trkpt><trkpt lat="45.5868408" lon="11.7318049"><ele>32.666666666666664</ele><time>2026-04-26T16:19:45.4Z</time></trkpt><trkpt lat="45.5866726" lon="11.7319707"><ele>32.33333333333333</ele><time>2026-04-26T16:19:46.399Z</time></trkpt><trkpt lat="45.5864935" lon="11.7321354"><ele>32.0</ele><time>2026-04-26T16:19:47.4Z</time></trkpt><trkpt lat="45.5863202" lon="11.7323009"><ele>32.0</ele><time>2026-04-26T16:19:48.399Z</time></trkpt><trkpt lat="45.5861571" lon="11.7324642"><ele>32.0</ele><time>2026-04-26T16:19:49.399Z</time></trkpt><trkpt lat="45.5860034" lon="11.7326191"><ele>32.0</ele><time>2026-04-26T16:19:50.398Z</time></trkpt><trkpt lat="45.5858596" lon="11.7327629"><ele>32.0</ele><time>2026-04-26T16:19:51.399Z</time></trkpt><trkpt lat="45.5857276" lon="11.7328934"><ele>32.0</ele><time>2026-04-26T16:19:52.398Z</time></trkpt><trkpt lat="45.585605" lon="11.7330178"><ele>32.0</ele><time>2026-04-26T16:19:53.398Z</time></trkpt><trkpt lat="45.585491" lon="11.7331374"><ele>32.0</ele><time>2026-04-26T16:19:54.397Z</time></trkpt><trkpt lat="45.5853833" lon="11.7332498"><ele>32.0</ele><time>2026-04-26T16:19:55.399Z</time></trkpt><trkpt lat="45.5852815" lon="11.7333572"><ele>32.0</ele><time>2026-04-26T16:19:56.397Z</time></trkpt><trkpt lat="45.5851812" lon="11.7334638"><ele>32.0</ele><time>2026-04-26T16:19:57.396Z</time></trkpt><trkpt lat="45.5850806" lon="11.7335809"><ele>31.666666666666664</ele><time>2026-04-26T16:19:58.396Z</time></trkpt><trkpt lat="45.5849627" lon="11.7337164"><ele>31.333333333333336</ele><time>2026-04-26T16:19:59.394Z</time></trkpt><trkpt lat="45.58483" lon="11.7338443"><ele>31.0</ele><time>2026-04-26T16:20:00.397Z</time></trkpt><trkpt lat="45.5847054" lon="11.7339618"><ele>31.0</ele><time>2026-04-26T16:20:01.399Z</time></trkpt><trkpt lat="45.5845974" lon="11.7340709"><ele>31.0</ele><time>2026-04-26T16:20:02.399Z</time></trkpt><trkpt lat="45.5844932" lon="11.734182"><ele>31.0</ele><time>2026-04-26T16:20:03.397Z</time></trkpt><trkpt lat="45.5842931" lon="11.7343701"><ele>31.75</ele><time>2026-04-26T16:20:05.396Z</time></trkpt><trkpt lat="45.5842081" lon="11.734448"><ele>32.5</ele><time>2026-04-26T16:20:06.399Z</time></trkpt><trkpt lat="45.584136" lon="11.7345306"><ele>33.25</ele><time>2026-04-26T16:20:07.398Z</time></trkpt><trkpt lat="45.5840921" lon="11.734597"><ele>34.0</ele><time>2026-04-26T16:20:08.001Z</time></trkpt><trkpt lat="45.5839636" lon="11.734805"><ele>34.0</ele><time>2026-04-26T16:20:09.399Z</time></trkpt><trkpt lat="45.5838487" lon="11.734951"><ele>34.0</ele><time>2026-04-26T16:20:10.398Z</time></trkpt><trkpt lat="45.5837434" lon="11.7350708"><ele>34.0</ele><time>2026-04-26T16:20:11.397Z</time></trkpt><trkpt lat="45.5836497" lon="11.7351622"><ele>34.0</ele><time>2026-04-26T16:20:12.397Z</time></trkpt><trkpt lat="45.5835597" lon="11.7352069"><ele>33.6</ele><time>2026-04-26T16:20:13.397Z</time></trkpt><trkpt lat="45.5834654" lon="11.7352223"><ele>33.2</ele><time>2026-04-26T16:20:14.397Z</time></trkpt><trkpt lat="45.5833663" lon="11.7352647"><ele>32.800000000000004</ele><time>2026-04-26T16:20:15.397Z</time></trkpt><trkpt lat="45.5832813" lon="11.7353535"><ele>32.4</ele><time>2026-04-26T16:20:16.399Z</time></trkpt><trkpt lat="45.583198" lon="11.7354798"><ele>32.0</ele><time>2026-04-26T16:20:17.397Z</time></trkpt><trkpt lat="45.583087" lon="11.7356201"><ele>32.0</ele><time>2026-04-26T16:20:18.399Z</time></trkpt><trkpt lat="45.5829375" lon="11.7357659"><ele>32.0</ele><time>2026-04-26T16:20:19.398Z</time></trkpt><trkpt lat="45.5827646" lon="11.7359208"><ele>32.0</ele><time>2026-04-26T16:20:20.396Z</time></trkpt><trkpt lat="45.5825966" lon="11.7360765"><ele>32.0</ele><time>2026-04-26T16:20:21.394Z</time></trkpt><trkpt lat="45.5824379" lon="11.7362325"><ele>32.0</ele><time>2026-04-26T16:20:22.396Z</time></trkpt><trkpt lat="45.5822888" lon="11.7363786"><ele>32.0</ele><time>2026-04-26T16:20:23.394Z</time></trkpt><trkpt lat="45.5821483" lon="11.736517"><ele>32.0</ele><time>2026-04-26T16:20:24.394Z</time></trkpt><trkpt lat="45.5818688" lon="11.7367914"><ele>32.0</ele><time>2026-04-26T16:20:26.397Z</time></trkpt><trkpt lat="45.5817267" lon="11.7369302"><ele>32.0</ele><time>2026-04-26T16:20:27.399Z</time></trkpt><trkpt lat="45.5815848" lon="11.7370674"><ele>32.0</ele><time>2026-04-26T16:20:28.398Z</time></trkpt><trkpt lat="45.5814439" lon="11.7372049"><ele>32.0</ele><time>2026-04-26T16:20:29.399Z</time></trkpt><trkpt lat="45.5813024" lon="11.7373448"><ele>32.0</ele><time>2026-04-26T16:20:30.398Z</time></trkpt><trkpt lat="45.58116" lon="11.7374856"><ele>32.0</ele><time>2026-04-26T16:20:31.397Z</time></trkpt><trkpt lat="45.581017" lon="11.7376271"><ele>32.0</ele><time>2026-04-26T16:20:32.396Z</time></trkpt><trkpt lat="45.5808732" lon="11.7377689"><ele>32.0</ele><time>2026-04-26T16:20:33.399Z</time></trkpt><trkpt lat="45.5807295" lon="11.7379107"><ele>32.0</ele><time>2026-04-26T16:20:34.397Z</time></trkpt><trkpt lat="45.5805866" lon="11.738055"><ele>32.0</ele><time>2026-04-26T16:20:35.395Z</time></trkpt><trkpt lat="45.5804462" lon="11.7381961"><ele>32.0</ele><time>2026-04-26T16:20:36.396Z</time></trkpt><trkpt lat="45.5803131" lon="11.7383279"><ele>32.0</ele><time>2026-04-26T16:20:37.396Z</time></trkpt><trkpt lat="45.5801854" lon="11.738456"><ele>32.0</ele><time>2026-04-26T16:20:38.398Z</time></trkpt><trkpt lat="45.5800537" lon="11.7385851"><ele>31.666666666666664</ele><time>2026-04-26T16:20:39.398Z</time></trkpt><trkpt lat="45.5799186" lon="11.7387175"><ele>31.333333333333336</ele><time>2026-04-26T16:20:40.398Z</time></trkpt><trkpt lat="45.5797798" lon="11.7388537"><ele>31.0</ele><time>2026-04-26T16:20:41.396Z</time></trkpt><trkpt lat="45.5796365" lon="11.7389948"><ele>31.333333333333336</ele><time>2026-04-26T16:20:42.398Z</time></trkpt><trkpt lat="45.5794964" lon="11.7391333"><ele>31.666666666666664</ele><time>2026-04-26T16:20:43.397Z</time></trkpt><trkpt lat="45.5793648" lon="11.7392655"><ele>32.0</ele><time>2026-04-26T16:20:44.397Z</time></trkpt><trkpt lat="45.5792415" lon="11.7393885"><ele>32.33333333333333</ele><time>2026-04-26T16:20:45.396Z</time></trkpt><trkpt lat="45.5790294" lon="11.7395935"><ele>32.666666666666664</ele><time>2026-04-26T16:20:47.395Z</time></trkpt><trkpt lat="45.578939" lon="11.7396813"><ele>33.0</ele><time>2026-04-26T16:20:48.394Z</time></trkpt><trkpt lat="45.5788603" lon="11.7397568"><ele>33.0</ele><time>2026-04-26T16:20:49.396Z</time></trkpt><trkpt lat="45.5788022" lon="11.7398122"><ele>33.0</ele><time>2026-04-26T16:20:50.396Z</time></trkpt><trkpt lat="45.5787035" lon="11.7399104"><ele>33.0</ele><time>2026-04-26T16:20:52.396Z</time></trkpt><trkpt lat="45.5786059" lon="11.7400128"><ele>33.0</ele><time>2026-04-26T16:20:54.397Z</time></trkpt><trkpt lat="45.5785107" lon="11.7401192"><ele>33.0</ele><time>2026-04-26T16:20:56.396Z</time></trkpt><trkpt lat="45.5784197" lon="11.7402333"><ele>32.5</ele><time>2026-04-26T16:20:58.397Z</time></trkpt><trkpt lat="45.5783445" lon="11.7403508"><ele>32.0</ele><time>2026-04-26T16:21:00.397Z</time></trkpt><trkpt lat="45.5782613" lon="11.7404336"><ele>31.5</ele><time>2026-04-26T16:21:02.395Z</time></trkpt><trkpt lat="45.5782006" lon="11.7404651"><ele>31.0</ele><time>2026-04-26T16:21:03.396Z</time></trkpt><trkpt lat="45.5781336" lon="11.7405161"><ele>30.5</ele><time>2026-04-26T16:21:04.398Z</time></trkpt><trkpt lat="45.5780617" lon="11.7405875"><ele>30.0</ele><time>2026-04-26T16:21:05.396Z</time></trkpt><trkpt lat="45.5779767" lon="11.740665"><ele>30.666666666666664</ele><time>2026-04-26T16:21:06.397Z</time></trkpt><trkpt lat="45.5777781" lon="11.7408674"><ele>31.333333333333332</ele><time>2026-04-26T16:21:08.398Z</time></trkpt><trkpt lat="45.5776529" lon="11.7409988"><ele>32.0</ele><time>2026-04-26T16:21:09.397Z</time></trkpt><trkpt lat="45.5775098" lon="11.7411516"><ele>32.0</ele><time>2026-04-26T16:21:10.395Z</time></trkpt><trkpt lat="45.577355" lon="11.7413199"><ele>32.0</ele><time>2026-04-26T16:21:11.394Z</time></trkpt><trkpt lat="45.5771902" lon="11.7414953"><ele>32.0</ele><time>2026-04-26T16:21:12.394Z</time></trkpt><trkpt lat="45.577019" lon="11.7416801"><ele>32.33333333333333</ele><time>2026-04-26T16:21:13.394Z</time></trkpt><trkpt lat="45.5768838" lon="11.7418268"><ele>32.666666666666664</ele><time>2026-04-26T16:21:14.2Z</time></trkpt><trkpt lat="45.576693" lon="11.7420318"><ele>33.0</ele><time>2026-04-26T16:21:15.397Z</time></trkpt><trkpt lat="45.5765422" lon="11.7421949"><ele>33.0</ele><time>2026-04-26T16:21:16.397Z</time></trkpt><trkpt lat="45.5763939" lon="11.7423554"><ele>33.0</ele><time>2026-04-26T16:21:17.397Z</time></trkpt><trkpt lat="45.5762454" lon="11.742516"><ele>33.0</ele><time>2026-04-26T16:21:18.398Z</time></trkpt><trkpt lat="45.5760941" lon="11.7426785"><ele>31.666666666666664</ele><time>2026-04-26T16:21:19.399Z</time></trkpt><trkpt lat="45.5759414" lon="11.7428463"><ele>30.333333333333332</ele><time>2026-04-26T16:21:20.397Z</time></trkpt><trkpt lat="45.5757852" lon="11.7430191"><ele>29.0</ele><time>2026-04-26T16:21:21.397Z</time></trkpt><trkpt lat="45.5756248" lon="11.7431964"><ele>29.0</ele><time>2026-04-26T16:21:22.397Z</time></trkpt><trkpt lat="45.5754615" lon="11.7433775"><ele>29.0</ele><time>2026-04-26T16:21:23.397Z</time></trkpt><trkpt lat="45.5753026" lon="11.7435532"><ele>29.0</ele><time>2026-04-26T16:21:24.397Z</time></trkpt><trkpt lat="45.5751509" lon="11.7437186"><ele>30.333333333333332</ele><time>2026-04-26T16:21:25.396Z</time></trkpt><trkpt lat="45.5750047" lon="11.7438765"><ele>31.666666666666664</ele><time>2026-04-26T16:21:26.398Z</time></trkpt><trkpt lat="45.5748592" lon="11.7440311"><ele>33.0</ele><time>2026-04-26T16:21:27.398Z</time></trkpt><trkpt lat="45.5745682" lon="11.7443386"><ele>32.0</ele><time>2026-04-26T16:21:29.396Z</time></trkpt><trkpt lat="45.5744214" lon="11.7444968"><ele>31.0</ele><time>2026-04-26T16:21:30.398Z</time></trkpt><trkpt lat="45.5742721" lon="11.7446589"><ele>30.0</ele><time>2026-04-26T16:21:31.398Z</time></trkpt><trkpt lat="45.5741244" lon="11.7448227"><ele>30.0</ele><time>2026-04-26T16:21:32.396Z</time></trkpt><trkpt lat="45.5739813" lon="11.7449851"><ele>30.0</ele><time>2026-04-26T16:21:33.4Z</time></trkpt><trkpt lat="45.5738432" lon="11.7451378"><ele>30.0</ele><time>2026-04-26T16:21:34.395Z</time></trkpt><trkpt lat="45.5737063" lon="11.7452838"><ele>29.0</ele><time>2026-04-26T16:21:35.394Z</time></trkpt><trkpt lat="45.5735666" lon="11.7454323"><ele>28.0</ele><time>2026-04-26T16:21:36.396Z</time></trkpt><trkpt lat="45.5734238" lon="11.7455862"><ele>27.0</ele><time>2026-04-26T16:21:37.395Z</time></trkpt><trkpt lat="45.5732795" lon="11.7457431"><ele>27.0</ele><time>2026-04-26T16:21:38.396Z</time></trkpt><trkpt lat="45.5731366" lon="11.7458994"><ele>27.0</ele><time>2026-04-26T16:21:39.398Z</time></trkpt><trkpt lat="45.5729985" lon="11.7460525"><ele>27.0</ele><time>2026-04-26T16:21:40.399Z</time></trkpt><trkpt lat="45.5728599" lon="11.7462081"><ele>28.666666666666664</ele><time>2026-04-26T16:21:41.396Z</time></trkpt><trkpt lat="45.5727172" lon="11.7463648"><ele>30.333333333333332</ele><time>2026-04-26T16:21:42.396Z</time></trkpt><trkpt lat="45.5725738" lon="11.7465224"><ele>32.0</ele><time>2026-04-26T16:21:43.397Z</time></trkpt><trkpt lat="45.5724307" lon="11.7466789"><ele>32.0</ele><time>2026-04-26T16:21:44.395Z</time></trkpt><trkpt lat="45.5722881" lon="11.746834"><ele>32.0</ele><time>2026-04-26T16:21:45.397Z</time></trkpt><trkpt lat="45.5721455" lon="11.7469902"><ele>32.0</ele><time>2026-04-26T16:21:46.399Z</time></trkpt><trkpt lat="45.5720049" lon="11.7471458"><ele>30.0</ele><time>2026-04-26T16:21:47.399Z</time></trkpt><trkpt lat="45.5718693" lon="11.7472945"><ele>28.0</ele><time>2026-04-26T16:21:48.399Z</time></trkpt><trkpt lat="45.5716081" lon="11.7475675"><ele>28.0</ele><time>2026-04-26T16:21:50.398Z</time></trkpt><trkpt lat="45.57148" lon="11.747702"><ele>28.0</ele><time>2026-04-26T16:21:51.398Z</time></trkpt><trkpt lat="45.5713507" lon="11.7478425"><ele>28.0</ele><time>2026-04-26T16:21:52.397Z</time></trkpt><trkpt lat="45.5712225" lon="11.7479854"><ele>29.0</ele><time>2026-04-26T16:21:53.398Z</time></trkpt><trkpt lat="45.5710942" lon="11.7481261"><ele>30.0</ele><time>2026-04-26T16:21:54.396Z</time></trkpt><trkpt lat="45.5709636" lon="11.7482656"><ele>31.0</ele><time>2026-04-26T16:21:55.396Z</time></trkpt><trkpt lat="45.5708305" lon="11.7484063"><ele>31.0</ele><time>2026-04-26T16:21:56.398Z</time></trkpt><trkpt lat="45.5706966" lon="11.7485518"><ele>31.0</ele><time>2026-04-26T16:21:57.399Z</time></trkpt><trkpt lat="45.5705629" lon="11.7487016"><ele>31.0</ele><time>2026-04-26T16:21:58.396Z</time></trkpt><trkpt lat="45.5704275" lon="11.7488495"><ele>30.333333333333336</ele><time>2026-04-26T16:21:59.395Z</time></trkpt><trkpt lat="45.5702907" lon="11.7489944"><ele>29.666666666666664</ele><time>2026-04-26T16:22:00.396Z</time></trkpt><trkpt lat="45.5701526" lon="11.7491405"><ele>29.0</ele><time>2026-04-26T16:22:01.395Z</time></trkpt><trkpt lat="45.5700141" lon="11.7492899"><ele>29.333333333333332</ele><time>2026-04-26T16:22:02.396Z</time></trkpt><trkpt lat="45.5698751" lon="11.7494413"><ele>29.666666666666664</ele><time>2026-04-26T16:22:03.399Z</time></trkpt><trkpt lat="45.5697373" lon="11.7495918"><ele>30.0</ele><time>2026-04-26T16:22:04.399Z</time></trkpt><trkpt lat="45.5695999" lon="11.7497429"><ele>29.333333333333336</ele><time>2026-04-26T16:22:05.396Z</time></trkpt><trkpt lat="45.5694632" lon="11.7498934"><ele>28.666666666666668</ele><time>2026-04-26T16:22:06.397Z</time></trkpt><trkpt lat="45.5693267" lon="11.7500397"><ele>28.0</ele><time>2026-04-26T16:22:07.399Z</time></trkpt><trkpt lat="45.5691913" lon="11.750185"><ele>28.5</ele><time>2026-04-26T16:22:08.397Z</time></trkpt><trkpt lat="45.5690557" lon="11.7503335"><ele>29.0</ele><time>2026-04-26T16:22:09.398Z</time></trkpt><trkpt lat="45.5687831" lon="11.750631"><ele>28.666666666666664</ele><time>2026-04-26T16:22:11.397Z</time></trkpt><trkpt lat="45.5686454" lon="11.7507768"><ele>28.333333333333336</ele><time>2026-04-26T16:22:12.398Z</time></trkpt><trkpt lat="45.568508" lon="11.7509181"><ele>28.0</ele><time>2026-04-26T16:22:13.399Z</time></trkpt><trkpt lat="45.5683746" lon="11.7510553"><ele>28.0</ele><time>2026-04-26T16:22:14.397Z</time></trkpt><trkpt lat="45.5682704" lon="11.7511679"><ele>28.0</ele><time>2026-04-26T16:22:15.2Z</time></trkpt><trkpt lat="45.5678605" lon="11.7516237"><ele>28.0</ele><time>2026-04-26T16:22:18.398Z</time></trkpt><trkpt lat="45.5677318" lon="11.7517635"><ele>28.0</ele><time>2026-04-26T16:22:19.399Z</time></trkpt><trkpt lat="45.5676015" lon="11.7519"><ele>28.0</ele><time>2026-04-26T16:22:20.396Z</time></trkpt><trkpt lat="45.5674709" lon="11.7520385"><ele>28.0</ele><time>2026-04-26T16:22:21.397Z</time></trkpt><trkpt lat="45.5673396" lon="11.7521825"><ele>28.0</ele><time>2026-04-26T16:22:22.396Z</time></trkpt><trkpt lat="45.5672049" lon="11.7523335"><ele>28.0</ele><time>2026-04-26T16:22:23.396Z</time></trkpt><trkpt lat="45.567065" lon="11.7524905"><ele>28.0</ele><time>2026-04-26T16:22:24.394Z</time></trkpt><trkpt lat="45.5669194" lon="11.7526507"><ele>28.0</ele><time>2026-04-26T16:22:25.394Z</time></trkpt><trkpt lat="45.5667714" lon="11.752812"><ele>28.0</ele><time>2026-04-26T16:22:26.394Z</time></trkpt><trkpt lat="45.5666276" lon="11.7529697"><ele>28.0</ele><time>2026-04-26T16:22:27.395Z</time></trkpt><trkpt lat="45.5664897" lon="11.7531199"><ele>28.0</ele><time>2026-04-26T16:22:28.398Z</time></trkpt><trkpt lat="45.5663562" lon="11.7532624"><ele>28.0</ele><time>2026-04-26T16:22:29.396Z</time></trkpt><trkpt lat="45.5662228" lon="11.7534066"><ele>27.0</ele><time>2026-04-26T16:22:30.396Z</time></trkpt><trkpt lat="45.5659472" lon="11.7537067"><ele>26.0</ele><time>2026-04-26T16:22:32.398Z</time></trkpt><trkpt lat="45.5658073" lon="11.7538597"><ele>26.0</ele><time>2026-04-26T16:22:33.398Z</time></trkpt><trkpt lat="45.5656696" lon="11.7540105"><ele>26.0</ele><time>2026-04-26T16:22:34.398Z</time></trkpt><trkpt lat="45.5655889" lon="11.7540996"><ele>26.0</ele><time>2026-04-26T16:22:34.998Z</time></trkpt><trkpt lat="45.5655353" lon="11.7541587"><ele>26.0</ele><time>2026-04-26T16:22:35.397Z</time></trkpt><trkpt lat="45.5654034" lon="11.7543043"><ele>27.0</ele><time>2026-04-26T16:22:36.396Z</time></trkpt><trkpt lat="45.5652739" lon="11.7544445"><ele>28.0</ele><time>2026-04-26T16:22:37.396Z</time></trkpt><trkpt lat="45.5651477" lon="11.7545837"><ele>29.0</ele><time>2026-04-26T16:22:38.396Z</time></trkpt><trkpt lat="45.565021" lon="11.7547184"><ele>29.0</ele><time>2026-04-26T16:22:39.396Z</time></trkpt><trkpt lat="45.5648938" lon="11.7548556"><ele>29.0</ele><time>2026-04-26T16:22:40.396Z</time></trkpt><trkpt lat="45.5647642" lon="11.7549955"><ele>29.0</ele><time>2026-04-26T16:22:41.397Z</time></trkpt><trkpt lat="45.5646333" lon="11.7551378"><ele>29.0</ele><time>2026-04-26T16:22:42.397Z</time></trkpt><trkpt lat="45.5645011" lon="11.7552828"><ele>29.0</ele><time>2026-04-26T16:22:43.396Z</time></trkpt><trkpt lat="45.5643677" lon="11.7554274"><ele>29.0</ele><time>2026-04-26T16:22:44.395Z</time></trkpt><trkpt lat="45.5642333" lon="11.7555719"><ele>29.0</ele><time>2026-04-26T16:22:45.397Z</time></trkpt><trkpt lat="45.5641001" lon="11.7557178"><ele>29.0</ele><time>2026-04-26T16:22:46.396Z</time></trkpt><trkpt lat="45.5639681" lon="11.7558626"><ele>29.0</ele><time>2026-04-26T16:22:47.395Z</time></trkpt><trkpt lat="45.5638359" lon="11.7560039"><ele>29.0</ele><time>2026-04-26T16:22:48.393Z</time></trkpt><trkpt lat="45.5637033" lon="11.7561454"><ele>29.0</ele><time>2026-04-26T16:22:49.394Z</time></trkpt><trkpt lat="45.5635697" lon="11.7562888"><ele>29.0</ele><time>2026-04-26T16:22:50.394Z</time></trkpt><trkpt lat="45.5634346" lon="11.7564345"><ele>29.0</ele><time>2026-04-26T16:22:51.394Z</time></trkpt><trkpt lat="45.5631648" lon="11.7567291"><ele>29.0</ele><time>2026-04-26T16:22:53.395Z</time></trkpt><trkpt lat="45.5630353" lon="11.7568701"><ele>29.0</ele><time>2026-04-26T16:22:54.399Z</time></trkpt><trkpt lat="45.5629099" lon="11.757002"><ele>29.0</ele><time>2026-04-26T16:22:55.396Z</time></trkpt><trkpt lat="45.5627886" lon="11.7571325"><ele>29.0</ele><time>2026-04-26T16:22:56.397Z</time></trkpt><trkpt lat="45.5626666" lon="11.7572671"><ele>29.0</ele><time>2026-04-26T16:22:57.398Z</time></trkpt><trkpt lat="45.5625416" lon="11.7574049"><ele>29.0</ele><time>2026-04-26T16:22:58.397Z</time></trkpt><trkpt lat="45.5624153" lon="11.7575439"><ele>29.0</ele><time>2026-04-26T16:22:59.396Z</time></trkpt><trkpt lat="45.5622873" lon="11.7576854"><ele>28.666666666666664</ele><time>2026-04-26T16:23:00.395Z</time></trkpt><trkpt lat="45.5621574" lon="11.7578308"><ele>28.333333333333336</ele><time>2026-04-26T16:23:01.397Z</time></trkpt><trkpt lat="45.5620242" lon="11.7579768"><ele>28.0</ele><time>2026-04-26T16:23:02.395Z</time></trkpt><trkpt lat="45.5618905" lon="11.7581229"><ele>28.0</ele><time>2026-04-26T16:23:03.396Z</time></trkpt><trkpt lat="45.5617589" lon="11.7582657"><ele>28.0</ele><time>2026-04-26T16:23:04.397Z</time></trkpt><trkpt lat="45.5616293" lon="11.7584058"><ele>28.0</ele><time>2026-04-26T16:23:05.399Z</time></trkpt><trkpt lat="45.5615025" lon="11.7585434"><ele>28.0</ele><time>2026-04-26T16:23:06.398Z</time></trkpt><trkpt lat="45.5613775" lon="11.7586799"><ele>28.0</ele><time>2026-04-26T16:23:07.396Z</time></trkpt><trkpt lat="45.5612532" lon="11.7588162"><ele>28.0</ele><time>2026-04-26T16:23:08.397Z</time></trkpt><trkpt lat="45.5611283" lon="11.7589524"><ele>28.0</ele><time>2026-04-26T16:23:09.397Z</time></trkpt><trkpt lat="45.5610057" lon="11.7590858"><ele>28.0</ele><time>2026-04-26T16:23:10.395Z</time></trkpt><trkpt lat="45.5608915" lon="11.759211"><ele>28.0</ele><time>2026-04-26T16:23:11.396Z</time></trkpt><trkpt lat="45.560788" lon="11.759323"><ele>28.0</ele><time>2026-04-26T16:23:12.395Z</time></trkpt><trkpt lat="45.5605928" lon="11.7595318"><ele>28.25</ele><time>2026-04-26T16:23:14.394Z</time></trkpt><trkpt lat="45.5604979" lon="11.7596354"><ele>28.5</ele><time>2026-04-26T16:23:15.395Z</time></trkpt><trkpt lat="45.5604061" lon="11.7597351"><ele>28.75</ele><time>2026-04-26T16:23:16.395Z</time></trkpt><trkpt lat="45.560312" lon="11.7598376"><ele>29.0</ele><time>2026-04-26T16:23:17.396Z</time></trkpt><trkpt lat="45.5602105" lon="11.7599468"><ele>29.333333333333332</ele><time>2026-04-26T16:23:18.396Z</time></trkpt><trkpt lat="45.5600927" lon="11.7600712"><ele>29.666666666666664</ele><time>2026-04-26T16:23:19.397Z</time></trkpt><trkpt lat="45.5599588" lon="11.7602165"><ele>30.0</ele><time>2026-04-26T16:23:20.395Z</time></trkpt><trkpt lat="45.5598119" lon="11.7603886"><ele>30.0</ele><time>2026-04-26T16:23:21.397Z</time></trkpt><trkpt lat="45.5596482" lon="11.7605806"><ele>30.0</ele><time>2026-04-26T16:23:22.397Z</time></trkpt><trkpt lat="45.5594635" lon="11.7607822"><ele>30.0</ele><time>2026-04-26T16:23:23.396Z</time></trkpt><trkpt lat="45.5592675" lon="11.7609884"><ele>30.0</ele><time>2026-04-26T16:23:24.398Z</time></trkpt><trkpt lat="45.5590816" lon="11.761185"><ele>30.0</ele><time>2026-04-26T16:23:25.396Z</time></trkpt><trkpt lat="45.5589153" lon="11.7613618"><ele>30.0</ele><time>2026-04-26T16:23:26.395Z</time></trkpt><trkpt lat="45.5587624" lon="11.7615223"><ele>28.666666666666664</ele><time>2026-04-26T16:23:27.396Z</time></trkpt><trkpt lat="45.5586173" lon="11.7616729"><ele>27.333333333333332</ele><time>2026-04-26T16:23:28.396Z</time></trkpt><trkpt lat="45.5584813" lon="11.7618196"><ele>26.0</ele><time>2026-04-26T16:23:29.396Z</time></trkpt><trkpt lat="45.5583467" lon="11.7619657"><ele>26.0</ele><time>2026-04-26T16:23:30.396Z</time></trkpt><trkpt lat="45.5582101" lon="11.7621139"><ele>26.0</ele><time>2026-04-26T16:23:31.397Z</time></trkpt><trkpt lat="45.5580743" lon="11.7622612"><ele>26.0</ele><time>2026-04-26T16:23:32.397Z</time></trkpt><trkpt lat="45.5579323" lon="11.7624276"><ele>27.0</ele><time>2026-04-26T16:23:33.398Z</time></trkpt><trkpt lat="45.5576017" lon="11.7628022"><ele>28.0</ele><time>2026-04-26T16:23:35.396Z</time></trkpt><trkpt lat="45.5574157" lon="11.7629873"><ele>28.0</ele><time>2026-04-26T16:23:36.396Z</time></trkpt><trkpt lat="45.557231" lon="11.7631765"><ele>28.0</ele><time>2026-04-26T16:23:37.396Z</time></trkpt><trkpt lat="45.5570542" lon="11.763365"><ele>28.0</ele><time>2026-04-26T16:23:38.395Z</time></trkpt><trkpt lat="45.5568863" lon="11.7635465"><ele>28.0</ele><time>2026-04-26T16:23:39.395Z</time></trkpt><trkpt lat="45.5567242" lon="11.7637223"><ele>28.0</ele><time>2026-04-26T16:23:40.395Z</time></trkpt><trkpt lat="45.556559" lon="11.7639037"><ele>28.0</ele><time>2026-04-26T16:23:41.397Z</time></trkpt><trkpt lat="45.5563872" lon="11.7640938"><ele>28.0</ele><time>2026-04-26T16:23:42.397Z</time></trkpt><trkpt lat="45.5562079" lon="11.7642917"><ele>28.0</ele><time>2026-04-26T16:23:43.397Z</time></trkpt><trkpt lat="45.5560261" lon="11.7644918"><ele>27.666666666666668</ele><time>2026-04-26T16:23:44.396Z</time></trkpt><trkpt lat="45.5558454" lon="11.7646888"><ele>27.333333333333336</ele><time>2026-04-26T16:23:45.398Z</time></trkpt><trkpt lat="45.5556719" lon="11.7648766"><ele>27.0</ele><time>2026-04-26T16:23:46.396Z</time></trkpt><trkpt lat="45.5555079" lon="11.7650542"><ele>27.333333333333336</ele><time>2026-04-26T16:23:47.397Z</time></trkpt><trkpt lat="45.555348" lon="11.7652282"><ele>27.666666666666668</ele><time>2026-04-26T16:23:48.398Z</time></trkpt><trkpt lat="45.5551855" lon="11.7654039"><ele>28.0</ele><time>2026-04-26T16:23:49.399Z</time></trkpt><trkpt lat="45.5550215" lon="11.7655823"><ele>28.0</ele><time>2026-04-26T16:23:50.396Z</time></trkpt><trkpt lat="45.5548593" lon="11.7657617"><ele>28.0</ele><time>2026-04-26T16:23:51.396Z</time></trkpt><trkpt lat="45.5547014" lon="11.765937"><ele>28.0</ele><time>2026-04-26T16:23:52.398Z</time></trkpt><trkpt lat="45.5545479" lon="11.7661062"><ele>27.0</ele><time>2026-04-26T16:23:53.396Z</time></trkpt><trkpt lat="45.5543947" lon="11.7662733"><ele>26.0</ele><time>2026-04-26T16:23:54.396Z</time></trkpt><trkpt lat="45.5540968" lon="11.7665947"><ele>26.0</ele><time>2026-04-26T16:23:56.396Z</time></trkpt><trkpt lat="45.5539541" lon="11.7667483"><ele>26.0</ele><time>2026-04-26T16:23:57.397Z</time></trkpt><trkpt lat="45.553809" lon="11.7668999"><ele>26.0</ele><time>2026-04-26T16:23:58.396Z</time></trkpt><trkpt lat="45.5536551" lon="11.7670445"><ele>26.0</ele><time>2026-04-26T16:23:59.397Z</time></trkpt><trkpt lat="45.5534859" lon="11.7671797"><ele>26.0</ele><time>2026-04-26T16:24:00.396Z</time></trkpt><trkpt lat="45.5532961" lon="11.7673088"><ele>26.0</ele><time>2026-04-26T16:24:01.395Z</time></trkpt><trkpt lat="45.5530856" lon="11.7674335"><ele>26.0</ele><time>2026-04-26T16:24:02.393Z</time></trkpt><trkpt lat="45.5528541" lon="11.7675521"><ele>26.0</ele><time>2026-04-26T16:24:03.395Z</time></trkpt><trkpt lat="45.5526051" lon="11.7676705"><ele>26.0</ele><time>2026-04-26T16:24:04.396Z</time></trkpt><trkpt lat="45.5523972" lon="11.7677733"><ele>26.0</ele><time>2026-04-26T16:24:05.204Z</time></trkpt><trkpt lat="45.5520937" lon="11.7679318"><ele>27.0</ele><time>2026-04-26T16:24:06.397Z</time></trkpt><trkpt lat="45.5518541" lon="11.7680591"><ele>28.0</ele><time>2026-04-26T16:24:07.397Z</time></trkpt><trkpt lat="45.5516281" lon="11.7681792"><ele>28.0</ele><time>2026-04-26T16:24:08.396Z</time></trkpt><trkpt lat="45.5514193" lon="11.7682894"><ele>28.0</ele><time>2026-04-26T16:24:09.396Z</time></trkpt><trkpt lat="45.5512288" lon="11.768386"><ele>28.0</ele><time>2026-04-26T16:24:10.395Z</time></trkpt><trkpt lat="45.551054" lon="11.7684729"><ele>28.0</ele><time>2026-04-26T16:24:11.395Z</time></trkpt><trkpt lat="45.5508927" lon="11.7685563"><ele>28.0</ele><time>2026-04-26T16:24:12.397Z</time></trkpt><trkpt lat="45.5507455" lon="11.768635"><ele>28.0</ele><time>2026-04-26T16:24:13.397Z</time></trkpt><trkpt lat="45.5506121" lon="11.7687088"><ele>28.0</ele><time>2026-04-26T16:24:14.397Z</time></trkpt><trkpt lat="45.5504877" lon="11.7687763"><ele>28.0</ele><time>2026-04-26T16:24:15.395Z</time></trkpt><trkpt lat="45.5502599" lon="11.7688955"><ele>28.0</ele><time>2026-04-26T16:24:17.396Z</time></trkpt><trkpt lat="45.5501564" lon="11.7689477"><ele>27.833333333333336</ele><time>2026-04-26T16:24:18.396Z</time></trkpt><trkpt lat="45.5500614" lon="11.768996"><ele>27.666666666666668</ele><time>2026-04-26T16:24:19.396Z</time></trkpt><trkpt lat="45.5499746" lon="11.7690404"><ele>27.5</ele><time>2026-04-26T16:24:20.396Z</time></trkpt><trkpt lat="45.5498951" lon="11.7690815"><ele>27.333333333333336</ele><time>2026-04-26T16:24:21.394Z</time></trkpt><trkpt lat="45.5498222" lon="11.7691198"><ele>27.166666666666668</ele><time>2026-04-26T16:24:22.395Z</time></trkpt><trkpt lat="45.5497542" lon="11.7691531"><ele>27.0</ele><time>2026-04-26T16:24:23.396Z</time></trkpt><trkpt lat="45.5496911" lon="11.7691847"><ele>27.0</ele><time>2026-04-26T16:24:24.395Z</time></trkpt><trkpt lat="45.5495829" lon="11.7692381"><ele>27.0</ele><time>2026-04-26T16:24:26.393Z</time></trkpt><trkpt lat="45.5495139" lon="11.7692805"><ele>27.0</ele><time>2026-04-26T16:24:28.394Z</time></trkpt><trkpt lat="45.5494316" lon="11.7692909"><ele>27.0</ele><time>2026-04-26T16:25:51.401Z</time></trkpt><trkpt lat="45.5492633" lon="11.7693908"><ele>27.0</ele><time>2026-04-26T16:25:54.4Z</time></trkpt><trkpt lat="45.5491951" lon="11.769429"><ele>27.0</ele><time>2026-04-26T16:25:55.399Z</time></trkpt><trkpt lat="45.5491346" lon="11.7694627"><ele>27.0</ele><time>2026-04-26T16:25:56.399Z</time></trkpt><trkpt lat="45.5490694" lon="11.7694973"><ele>27.0</ele><time>2026-04-26T16:25:57.398Z</time></trkpt><trkpt lat="45.5489901" lon="11.7695373"><ele>27.0</ele><time>2026-04-26T16:25:58.399Z</time></trkpt><trkpt lat="45.548898" lon="11.7695841"><ele>27.0</ele><time>2026-04-26T16:25:59.397Z</time></trkpt><trkpt lat="45.5487921" lon="11.7696383"><ele>26.5</ele><time>2026-04-26T16:26:00.4Z</time></trkpt><trkpt lat="45.548671" lon="11.7697031"><ele>26.0</ele><time>2026-04-26T16:26:01.398Z</time></trkpt><trkpt lat="45.5485449" lon="11.7697699"><ele>25.5</ele><time>2026-04-26T16:26:02.399Z</time></trkpt><trkpt lat="45.5484227" lon="11.7698332"><ele>25.0</ele><time>2026-04-26T16:26:03.399Z</time></trkpt><trkpt lat="45.5483001" lon="11.7698983"><ele>25.0</ele><time>2026-04-26T16:26:04.398Z</time></trkpt><trkpt lat="45.5481776" lon="11.7699671"><ele>25.0</ele><time>2026-04-26T16:26:05.398Z</time></trkpt><trkpt lat="45.5480482" lon="11.7700385"><ele>25.0</ele><time>2026-04-26T16:26:06.397Z</time></trkpt><trkpt lat="45.5479368" lon="11.7700949"><ele>25.0</ele><time>2026-04-26T16:26:07.197Z</time></trkpt><trkpt lat="45.5477646" lon="11.7701818"><ele>25.0</ele><time>2026-04-26T16:26:08.399Z</time></trkpt><trkpt lat="45.5476287" lon="11.7702556"><ele>25.0</ele><time>2026-04-26T16:26:09.4Z</time></trkpt><trkpt lat="45.5474993" lon="11.7703267"><ele>25.0</ele><time>2026-04-26T16:26:10.399Z</time></trkpt><trkpt lat="45.5473752" lon="11.7703934"><ele>25.0</ele><time>2026-04-26T16:26:11.4Z</time></trkpt><trkpt lat="45.5472538" lon="11.77046"><ele>24.666666666666668</ele><time>2026-04-26T16:26:12.401Z</time></trkpt><trkpt lat="45.5469973" lon="11.7706029"><ele>24.333333333333336</ele><time>2026-04-26T16:26:14.4Z</time></trkpt><trkpt lat="45.5468661" lon="11.7706728"><ele>24.0</ele><time>2026-04-26T16:26:15.399Z</time></trkpt><trkpt lat="45.5467361" lon="11.7707418"><ele>24.0</ele><time>2026-04-26T16:26:16.4Z</time></trkpt><trkpt lat="45.5466071" lon="11.7708105"><ele>24.0</ele><time>2026-04-26T16:26:17.399Z</time></trkpt><trkpt lat="45.5464791" lon="11.7708784"><ele>24.0</ele><time>2026-04-26T16:26:18.399Z</time></trkpt><trkpt lat="45.5462234" lon="11.7710089"><ele>24.25</ele><time>2026-04-26T16:26:20.402Z</time></trkpt><trkpt lat="45.5460908" lon="11.771075"><ele>24.5</ele><time>2026-04-26T16:26:21.402Z</time></trkpt><trkpt lat="45.5459529" lon="11.7711441"><ele>24.75</ele><time>2026-04-26T16:26:22.399Z</time></trkpt><trkpt lat="45.5458079" lon="11.7712194"><ele>25.0</ele><time>2026-04-26T16:26:23.399Z</time></trkpt><trkpt lat="45.5456598" lon="11.7712976"><ele>25.0</ele><time>2026-04-26T16:26:24.4Z</time></trkpt><trkpt lat="45.5455181" lon="11.7713726"><ele>25.0</ele><time>2026-04-26T16:26:25.4Z</time></trkpt><trkpt lat="45.5453829" lon="11.771445"><ele>25.0</ele><time>2026-04-26T16:26:26.398Z</time></trkpt><trkpt lat="45.5452493" lon="11.7715156"><ele>25.0</ele><time>2026-04-26T16:26:27.398Z</time></trkpt><trkpt lat="45.5451121" lon="11.7715873"><ele>25.333333333333336</ele><time>2026-04-26T16:26:28.399Z</time></trkpt><trkpt lat="45.5449696" lon="11.7716597"><ele>25.666666666666664</ele><time>2026-04-26T16:26:29.398Z</time></trkpt><trkpt lat="45.5448254" lon="11.7717351"><ele>26.0</ele><time>2026-04-26T16:26:30.397Z</time></trkpt><trkpt lat="45.5446822" lon="11.7718081"><ele>25.666666666666664</ele><time>2026-04-26T16:26:31.397Z</time></trkpt><trkpt lat="45.5445438" lon="11.7718799"><ele>25.333333333333336</ele><time>2026-04-26T16:26:32.4Z</time></trkpt><trkpt lat="45.5444086" lon="11.7719497"><ele>25.0</ele><time>2026-04-26T16:26:33.4Z</time></trkpt><trkpt lat="45.5441403" lon="11.772087"><ele>25.0</ele><time>2026-04-26T16:26:35.399Z</time></trkpt><trkpt lat="45.5440053" lon="11.7721568"><ele>25.0</ele><time>2026-04-26T16:26:36.401Z</time></trkpt><trkpt lat="45.5438687" lon="11.7722281"><ele>25.0</ele><time>2026-04-26T16:26:37.4Z</time></trkpt><trkpt lat="45.5437291" lon="11.7722998"><ele>25.0</ele><time>2026-04-26T16:26:38.399Z</time></trkpt><trkpt lat="45.5435868" lon="11.7723729"><ele>25.25</ele><time>2026-04-26T16:26:39.4Z</time></trkpt><trkpt lat="45.5434437" lon="11.7724486"><ele>25.5</ele><time>2026-04-26T16:26:40.4Z</time></trkpt><trkpt lat="45.5433051" lon="11.7725222"><ele>25.75</ele><time>2026-04-26T16:26:41.401Z</time></trkpt><trkpt lat="45.5431741" lon="11.7725913"><ele>26.0</ele><time>2026-04-26T16:26:42.398Z</time></trkpt><trkpt lat="45.5430496" lon="11.7726576"><ele>26.0</ele><time>2026-04-26T16:26:43.399Z</time></trkpt><trkpt lat="45.5429295" lon="11.7727224"><ele>26.0</ele><time>2026-04-26T16:26:44.399Z</time></trkpt><trkpt lat="45.5428335" lon="11.772773"><ele>26.0</ele><time>2026-04-26T16:26:45.197Z</time></trkpt><trkpt lat="45.5426857" lon="11.7728535"><ele>26.0</ele><time>2026-04-26T16:26:46.399Z</time></trkpt><trkpt lat="45.5425584" lon="11.7729209"><ele>26.0</ele><time>2026-04-26T16:26:47.397Z</time></trkpt><trkpt lat="45.542434" lon="11.7729849"><ele>26.0</ele><time>2026-04-26T16:26:48.399Z</time></trkpt><trkpt lat="45.542313" lon="11.7730485"><ele>26.0</ele><time>2026-04-26T16:26:49.399Z</time></trkpt><trkpt lat="45.5421931" lon="11.7731104"><ele>26.0</ele><time>2026-04-26T16:26:50.4Z</time></trkpt><trkpt lat="45.5420739" lon="11.7731732"><ele>25.75</ele><time>2026-04-26T16:26:51.399Z</time></trkpt><trkpt lat="45.5419561" lon="11.7732363"><ele>25.5</ele><time>2026-04-26T16:26:52.398Z</time></trkpt><trkpt lat="45.5418385" lon="11.7733003"><ele>25.25</ele><time>2026-04-26T16:26:53.397Z</time></trkpt><trkpt lat="45.5417157" lon="11.7733657"><ele>25.0</ele><time>2026-04-26T16:26:54.396Z</time></trkpt><trkpt lat="45.541454" lon="11.7734989"><ele>25.25</ele><time>2026-04-26T16:26:56.395Z</time></trkpt><trkpt lat="45.5413276" lon="11.7735622"><ele>25.5</ele><time>2026-04-26T16:26:57.399Z</time></trkpt><trkpt lat="45.541203" lon="11.7736275"><ele>25.75</ele><time>2026-04-26T16:26:58.398Z</time></trkpt><trkpt lat="45.5410769" lon="11.7736936"><ele>26.0</ele><time>2026-04-26T16:26:59.399Z</time></trkpt><trkpt lat="45.5409467" lon="11.7737617"><ele>26.0</ele><time>2026-04-26T16:27:00.398Z</time></trkpt><trkpt lat="45.540812" lon="11.7738331"><ele>26.0</ele><time>2026-04-26T16:27:01.398Z</time></trkpt><trkpt lat="45.5406731" lon="11.7739091"><ele>26.0</ele><time>2026-04-26T16:27:02.4Z</time></trkpt><trkpt lat="45.5405288" lon="11.7739877"><ele>26.0</ele><time>2026-04-26T16:27:03.397Z</time></trkpt><trkpt lat="45.5403789" lon="11.7740668"><ele>26.0</ele><time>2026-04-26T16:27:04.399Z</time></trkpt><trkpt lat="45.5402875" lon="11.7741129"><ele>26.0</ele><time>2026-04-26T16:27:04.996Z</time></trkpt><trkpt lat="45.540067" lon="11.7742267"><ele>26.0</ele><time>2026-04-26T16:27:06.4Z</time></trkpt><trkpt lat="45.5399033" lon="11.774312"><ele>26.333333333333332</ele><time>2026-04-26T16:27:07.399Z</time></trkpt><trkpt lat="45.5397331" lon="11.7744002"><ele>26.666666666666664</ele><time>2026-04-26T16:27:08.398Z</time></trkpt><trkpt lat="45.5395566" lon="11.7744899"><ele>27.0</ele><time>2026-04-26T16:27:09.399Z</time></trkpt><trkpt lat="45.539375" lon="11.7745848"><ele>27.0</ele><time>2026-04-26T16:27:10.398Z</time></trkpt><trkpt lat="45.5391896" lon="11.774683"><ele>27.0</ele><time>2026-04-26T16:27:11.399Z</time></trkpt><trkpt lat="45.5390026" lon="11.774782"><ele>27.0</ele><time>2026-04-26T16:27:12.397Z</time></trkpt><trkpt lat="45.5388187" lon="11.7748786"><ele>26.333333333333336</ele><time>2026-04-26T16:27:13.398Z</time></trkpt><trkpt lat="45.5386407" lon="11.7749715"><ele>25.666666666666668</ele><time>2026-04-26T16:27:14.398Z</time></trkpt><trkpt lat="45.5384649" lon="11.7750628"><ele>25.0</ele><time>2026-04-26T16:27:15.398Z</time></trkpt><trkpt lat="45.5381054" lon="11.7752462"><ele>25.0</ele><time>2026-04-26T16:27:17.397Z</time></trkpt><trkpt lat="45.5379234" lon="11.7753415"><ele>25.0</ele><time>2026-04-26T16:27:18.396Z</time></trkpt><trkpt lat="45.5377428" lon="11.7754342"><ele>25.0</ele><time>2026-04-26T16:27:19.4Z</time></trkpt><trkpt lat="45.5375636" lon="11.7755261"><ele>25.0</ele><time>2026-04-26T16:27:20.395Z</time></trkpt><trkpt lat="45.5373898" lon="11.775615"><ele>25.0</ele><time>2026-04-26T16:27:21.397Z</time></trkpt><trkpt lat="45.5372225" lon="11.775702"><ele>25.0</ele><time>2026-04-26T16:27:22.399Z</time></trkpt><trkpt lat="45.5370923" lon="11.7757701"><ele>25.0</ele><time>2026-04-26T16:27:23.197Z</time></trkpt><trkpt lat="45.5369004" lon="11.7758704"><ele>25.0</ele><time>2026-04-26T16:27:24.398Z</time></trkpt><trkpt lat="45.5367421" lon="11.7759521"><ele>25.0</ele><time>2026-04-26T16:27:25.4Z</time></trkpt><trkpt lat="45.5365889" lon="11.7760316"><ele>25.0</ele><time>2026-04-26T16:27:26.4Z</time></trkpt><trkpt lat="45.5364433" lon="11.7761065"><ele>25.0</ele><time>2026-04-26T16:27:27.398Z</time></trkpt><trkpt lat="45.5363052" lon="11.7761775"><ele>25.0</ele><time>2026-04-26T16:27:28.399Z</time></trkpt><trkpt lat="45.5361756" lon="11.7762457"><ele>25.0</ele><time>2026-04-26T16:27:29.397Z</time></trkpt><trkpt lat="45.5360546" lon="11.7763096"><ele>25.0</ele><time>2026-04-26T16:27:30.4Z</time></trkpt><trkpt lat="45.5359412" lon="11.7763674"><ele>25.0</ele><time>2026-04-26T16:27:31.399Z</time></trkpt><trkpt lat="45.5358367" lon="11.7764202"><ele>25.0</ele><time>2026-04-26T16:27:32.398Z</time></trkpt><trkpt lat="45.5357437" lon="11.7764694"><ele>25.0</ele><time>2026-04-26T16:27:33.401Z</time></trkpt><trkpt lat="45.5356624" lon="11.7765128"><ele>25.0</ele><time>2026-04-26T16:27:34.398Z</time></trkpt><trkpt lat="45.5355921" lon="11.7765497"><ele>25.0</ele><time>2026-04-26T16:27:35.397Z</time></trkpt><trkpt lat="45.5355309" lon="11.7765817"><ele>25.0</ele><time>2026-04-26T16:27:36.399Z</time></trkpt><trkpt lat="45.5353643" lon="11.77665"><ele>25.0</ele><time>2026-04-26T16:27:40.4Z</time></trkpt><trkpt lat="45.5352831" lon="11.7766912"><ele>25.0</ele><time>2026-04-26T16:27:43.395Z</time></trkpt><trkpt lat="45.5352138" lon="11.7767159"><ele>25.0</ele><time>2026-04-26T16:27:55.4Z</time></trkpt><trkpt lat="45.5351046" lon="11.7767766"><ele>25.0</ele><time>2026-04-26T16:27:57.397Z</time></trkpt><trkpt lat="45.5348954" lon="11.7769074"><ele>25.0</ele><time>2026-04-26T16:27:59.396Z</time></trkpt><trkpt lat="45.53475" lon="11.776986"><ele>25.0</ele><time>2026-04-26T16:28:00.399Z</time></trkpt><trkpt lat="45.5345808" lon="11.7770735"><ele>25.0</ele><time>2026-04-26T16:28:01.398Z</time></trkpt><trkpt lat="45.5343951" lon="11.7771701"><ele>25.0</ele><time>2026-04-26T16:28:02.397Z</time></trkpt><trkpt lat="45.5342042" lon="11.7772678"><ele>25.0</ele><time>2026-04-26T16:28:03.398Z</time></trkpt><trkpt lat="45.5340086" lon="11.7773701"><ele>25.0</ele><time>2026-04-26T16:28:04.399Z</time></trkpt><trkpt lat="45.5338878" lon="11.7774334"><ele>25.0</ele><time>2026-04-26T16:28:04.993Z</time></trkpt><trkpt lat="45.533597" lon="11.7775859"><ele>25.0</ele><time>2026-04-26T16:28:06.397Z</time></trkpt><trkpt lat="45.5333962" lon="11.77769"><ele>24.666666666666668</ele><time>2026-04-26T16:28:07.397Z</time></trkpt><trkpt lat="45.5332005" lon="11.7777913"><ele>24.333333333333336</ele><time>2026-04-26T16:28:08.395Z</time></trkpt><trkpt lat="45.5330036" lon="11.7778921"><ele>24.0</ele><time>2026-04-26T16:28:09.396Z</time></trkpt><trkpt lat="45.532804" lon="11.7779951"><ele>24.0</ele><time>2026-04-26T16:28:10.396Z</time></trkpt><trkpt lat="45.5326002" lon="11.7780996"><ele>24.0</ele><time>2026-04-26T16:28:11.397Z</time></trkpt><trkpt lat="45.5323934" lon="11.7782059"><ele>24.0</ele><time>2026-04-26T16:28:12.399Z</time></trkpt><trkpt lat="45.5321904" lon="11.778313"><ele>24.333333333333336</ele><time>2026-04-26T16:28:13.399Z</time></trkpt><trkpt lat="45.5319962" lon="11.7784151"><ele>24.666666666666668</ele><time>2026-04-26T16:28:14.397Z</time></trkpt><trkpt lat="45.5318084" lon="11.7785138"><ele>25.0</ele><time>2026-04-26T16:28:15.4Z</time></trkpt><trkpt lat="45.5316212" lon="11.7786113"><ele>25.0</ele><time>2026-04-26T16:28:16.398Z</time></trkpt><trkpt lat="45.5314325" lon="11.7787071"><ele>25.0</ele><time>2026-04-26T16:28:17.397Z</time></trkpt><trkpt lat="45.5312429" lon="11.7788043"><ele>25.0</ele><time>2026-04-26T16:28:18.398Z</time></trkpt><trkpt lat="45.5308628" lon="11.7790012"><ele>24.666666666666668</ele><time>2026-04-26T16:28:20.398Z</time></trkpt><trkpt lat="45.5306782" lon="11.7790976"><ele>24.333333333333336</ele><time>2026-04-26T16:28:21.4Z</time></trkpt><trkpt lat="45.5304943" lon="11.7791933"><ele>24.0</ele><time>2026-04-26T16:28:22.4Z</time></trkpt><trkpt lat="45.5303116" lon="11.7792897"><ele>24.333333333333336</ele><time>2026-04-26T16:28:23.399Z</time></trkpt><trkpt lat="45.5301351" lon="11.7793834"><ele>24.666666666666668</ele><time>2026-04-26T16:28:24.399Z</time></trkpt><trkpt lat="45.5299656" lon="11.7794739"><ele>25.0</ele><time>2026-04-26T16:28:25.399Z</time></trkpt><trkpt lat="45.5298015" lon="11.7795619"><ele>25.0</ele><time>2026-04-26T16:28:26.399Z</time></trkpt><trkpt lat="45.5296399" lon="11.7796478"><ele>25.0</ele><time>2026-04-26T16:28:27.397Z</time></trkpt><trkpt lat="45.5294805" lon="11.7797298"><ele>25.0</ele><time>2026-04-26T16:28:28.398Z</time></trkpt><trkpt lat="45.529324" lon="11.7798118"><ele>24.333333333333336</ele><time>2026-04-26T16:28:29.398Z</time></trkpt><trkpt lat="45.5291684" lon="11.7798951"><ele>23.666666666666668</ele><time>2026-04-26T16:28:30.398Z</time></trkpt><trkpt lat="45.5290131" lon="11.7799778"><ele>23.0</ele><time>2026-04-26T16:28:31.394Z</time></trkpt><trkpt lat="45.5288637" lon="11.7800565"><ele>23.0</ele><time>2026-04-26T16:28:32.394Z</time></trkpt><trkpt lat="45.5287253" lon="11.7801303"><ele>23.0</ele><time>2026-04-26T16:28:33.396Z</time></trkpt><trkpt lat="45.5286024" lon="11.7801959"><ele>23.0</ele><time>2026-04-26T16:28:34.396Z</time></trkpt><trkpt lat="45.5284881" lon="11.7802561"><ele>23.0</ele><time>2026-04-26T16:28:35.402Z</time></trkpt><trkpt lat="45.5283661" lon="11.7803249"><ele>23.0</ele><time>2026-04-26T16:28:36.396Z</time></trkpt><trkpt lat="45.5282224" lon="11.7804143"><ele>23.0</ele><time>2026-04-26T16:28:37.398Z</time></trkpt><trkpt lat="45.5280517" lon="11.7805078"><ele>23.0</ele><time>2026-04-26T16:28:38.397Z</time></trkpt><trkpt lat="45.5278556" lon="11.7806039"><ele>23.0</ele><time>2026-04-26T16:28:39.397Z</time></trkpt><trkpt lat="45.5273998" lon="11.7808476"><ele>23.0</ele><time>2026-04-26T16:28:41.395Z</time></trkpt><trkpt lat="45.5271397" lon="11.7809749"><ele>23.0</ele><time>2026-04-26T16:28:42.398Z</time></trkpt><trkpt lat="45.526865" lon="11.7811054"><ele>22.5</ele><time>2026-04-26T16:28:43.4Z</time></trkpt><trkpt lat="45.5265913" lon="11.7812388"><ele>22.0</ele><time>2026-04-26T16:28:44.396Z</time></trkpt><trkpt lat="45.526333" lon="11.7813702"><ele>23.0</ele><time>2026-04-26T16:28:45.4Z</time></trkpt><trkpt lat="45.5260901" lon="11.7814968"><ele>24.0</ele><time>2026-04-26T16:28:46.398Z</time></trkpt><trkpt lat="45.5258622" lon="11.7816139"><ele>24.0</ele><time>2026-04-26T16:28:47.399Z</time></trkpt><trkpt lat="45.5256526" lon="11.7817204"><ele>24.0</ele><time>2026-04-26T16:28:48.399Z</time></trkpt><trkpt lat="45.5254576" lon="11.7818196"><ele>24.0</ele><time>2026-04-26T16:28:49.397Z</time></trkpt><trkpt lat="45.5252734" lon="11.7819161"><ele>23.666666666666668</ele><time>2026-04-26T16:28:50.398Z</time></trkpt><trkpt lat="45.5250974" lon="11.7820071"><ele>23.333333333333336</ele><time>2026-04-26T16:28:51.4Z</time></trkpt><trkpt lat="45.5249304" lon="11.7820927"><ele>23.0</ele><time>2026-04-26T16:28:52.399Z</time></trkpt><trkpt lat="45.5247754" lon="11.7821677"><ele>23.0</ele><time>2026-04-26T16:28:53.399Z</time></trkpt><trkpt lat="45.5246324" lon="11.7822255"><ele>23.0</ele><time>2026-04-26T16:28:54.399Z</time></trkpt><trkpt lat="45.524505" lon="11.7822634"><ele>23.0</ele><time>2026-04-26T16:28:55.399Z</time></trkpt><trkpt lat="45.5244036" lon="11.7822792"><ele>23.0</ele><time>2026-04-26T16:28:56.393Z</time></trkpt><trkpt lat="45.5243216" lon="11.782277"><ele>22.75</ele><time>2026-04-26T16:28:57.395Z</time></trkpt><trkpt lat="45.5242442" lon="11.7822481"><ele>22.5</ele><time>2026-04-26T16:28:58.395Z</time></trkpt><trkpt lat="45.5241637" lon="11.7821812"><ele>22.25</ele><time>2026-04-26T16:28:59.396Z</time></trkpt><trkpt lat="45.5240765" lon="11.7821141"><ele>22.0</ele><time>2026-04-26T16:29:00.397Z</time></trkpt><trkpt lat="45.5238924" lon="11.7821237"><ele>22.0</ele><time>2026-04-26T16:29:02.399Z</time></trkpt><trkpt lat="45.5237944" lon="11.7822003"><ele>22.0</ele><time>2026-04-26T16:29:03.398Z</time></trkpt><trkpt lat="45.5236826" lon="11.7822687"><ele>22.0</ele><time>2026-04-26T16:29:04.399Z</time></trkpt><trkpt lat="45.5235416" lon="11.7822972"><ele>22.0</ele><time>2026-04-26T16:29:05.397Z</time></trkpt><trkpt lat="45.5233732" lon="11.7822939"><ele>22.0</ele><time>2026-04-26T16:29:06.397Z</time></trkpt><trkpt lat="45.5231858" lon="11.7822857"><ele>22.0</ele><time>2026-04-26T16:29:07.397Z</time></trkpt><trkpt lat="45.5229978" lon="11.7822961"><ele>22.0</ele><time>2026-04-26T16:29:08.4Z</time></trkpt><trkpt lat="45.5228187" lon="11.7823336"><ele>22.333333333333332</ele><time>2026-04-26T16:29:09.4Z</time></trkpt><trkpt lat="45.5226439" lon="11.7823969"><ele>22.666666666666668</ele><time>2026-04-26T16:29:10.398Z</time></trkpt><trkpt lat="45.5224742" lon="11.7824832"><ele>23.0</ele><time>2026-04-26T16:29:11.399Z</time></trkpt><trkpt lat="45.5223147" lon="11.7825814"><ele>23.0</ele><time>2026-04-26T16:29:12.398Z</time></trkpt><trkpt lat="45.5221656" lon="11.782678"><ele>23.0</ele><time>2026-04-26T16:29:13.399Z</time></trkpt><trkpt lat="45.5220237" lon="11.78277"><ele>23.0</ele><time>2026-04-26T16:29:14.399Z</time></trkpt><trkpt lat="45.5218863" lon="11.7828594"><ele>22.666666666666668</ele><time>2026-04-26T16:29:15.4Z</time></trkpt><trkpt lat="45.5217441" lon="11.7829482"><ele>22.333333333333332</ele><time>2026-04-26T16:29:16.399Z</time></trkpt><trkpt lat="45.5215954" lon="11.7830423"><ele>22.0</ele><time>2026-04-26T16:29:17.399Z</time></trkpt><trkpt lat="45.521438" lon="11.7831376"><ele>22.0</ele><time>2026-04-26T16:29:18.398Z</time></trkpt><trkpt lat="45.521281" lon="11.7832349"><ele>22.0</ele><time>2026-04-26T16:29:19.398Z</time></trkpt><trkpt lat="45.5211299" lon="11.7833289"><ele>22.0</ele><time>2026-04-26T16:29:20.397Z</time></trkpt><trkpt lat="45.5209868" lon="11.7834183"><ele>22.0</ele><time>2026-04-26T16:29:21.394Z</time></trkpt><trkpt lat="45.5207034" lon="11.7835955"><ele>22.0</ele><time>2026-04-26T16:29:23.394Z</time></trkpt><trkpt lat="45.5205581" lon="11.7836847"><ele>22.0</ele><time>2026-04-26T16:29:24.396Z</time></trkpt><trkpt lat="45.5204094" lon="11.7837702"><ele>22.0</ele><time>2026-04-26T16:29:25.399Z</time></trkpt><trkpt lat="45.5202627" lon="11.783851"><ele>22.0</ele><time>2026-04-26T16:29:26.4Z</time></trkpt><trkpt lat="45.5201138" lon="11.78393"><ele>21.666666666666664</ele><time>2026-04-26T16:29:27.398Z</time></trkpt><trkpt lat="45.5199616" lon="11.78401"><ele>21.333333333333332</ele><time>2026-04-26T16:29:28.399Z</time></trkpt><trkpt lat="45.5198124" lon="11.7840881"><ele>21.0</ele><time>2026-04-26T16:29:29.398Z</time></trkpt><trkpt lat="45.5196656" lon="11.7841658"><ele>21.0</ele><time>2026-04-26T16:29:30.4Z</time></trkpt><trkpt lat="45.5195181" lon="11.7842435"><ele>21.0</ele><time>2026-04-26T16:29:31.398Z</time></trkpt><trkpt lat="45.5193688" lon="11.7843224"><ele>21.0</ele><time>2026-04-26T16:29:32.398Z</time></trkpt><trkpt lat="45.5192137" lon="11.7844051"><ele>20.666666666666668</ele><time>2026-04-26T16:29:33.401Z</time></trkpt><trkpt lat="45.5191172" lon="11.7844569"><ele>20.333333333333336</ele><time>2026-04-26T16:29:33.997Z</time></trkpt><trkpt lat="45.51889" lon="11.7845769"><ele>20.0</ele><time>2026-04-26T16:29:35.399Z</time></trkpt><trkpt lat="45.5187378" lon="11.7846536"><ele>20.5</ele><time>2026-04-26T16:29:36.399Z</time></trkpt><trkpt lat="45.518594" lon="11.784726"><ele>21.0</ele><time>2026-04-26T16:29:37.398Z</time></trkpt><trkpt lat="45.5184558" lon="11.7847983"><ele>21.5</ele><time>2026-04-26T16:29:38.4Z</time></trkpt><trkpt lat="45.5183186" lon="11.7848699"><ele>22.0</ele><time>2026-04-26T16:29:39.398Z</time></trkpt><trkpt lat="45.5181771" lon="11.7849377"><ele>22.0</ele><time>2026-04-26T16:29:40.4Z</time></trkpt><trkpt lat="45.5180312" lon="11.7850027"><ele>22.0</ele><time>2026-04-26T16:29:41.397Z</time></trkpt><trkpt lat="45.5178781" lon="11.7850634"><ele>22.0</ele><time>2026-04-26T16:29:42.398Z</time></trkpt><trkpt lat="45.5175682" lon="11.785164"><ele>21.75</ele><time>2026-04-26T16:29:44.397Z</time></trkpt><trkpt lat="45.5174164" lon="11.7852084"><ele>21.5</ele><time>2026-04-26T16:29:45.395Z</time></trkpt><trkpt lat="45.51727" lon="11.785251"><ele>21.25</ele><time>2026-04-26T16:29:46.396Z</time></trkpt><trkpt lat="45.5171313" lon="11.7852895"><ele>21.0</ele><time>2026-04-26T16:29:47.398Z</time></trkpt><trkpt lat="45.5169987" lon="11.7853265"><ele>21.0</ele><time>2026-04-26T16:29:48.395Z</time></trkpt><trkpt lat="45.5168699" lon="11.7853638"><ele>21.0</ele><time>2026-04-26T16:29:49.399Z</time></trkpt><trkpt lat="45.5167421" lon="11.7854021"><ele>21.0</ele><time>2026-04-26T16:29:50.398Z</time></trkpt><trkpt lat="45.5166098" lon="11.785442"><ele>21.0</ele><time>2026-04-26T16:29:51.398Z</time></trkpt><trkpt lat="45.5164721" lon="11.785483"><ele>21.0</ele><time>2026-04-26T16:29:52.399Z</time></trkpt><trkpt lat="45.5163293" lon="11.785525"><ele>21.0</ele><time>2026-04-26T16:29:53.399Z</time></trkpt><trkpt lat="45.5161819" lon="11.7855669"><ele>21.0</ele><time>2026-04-26T16:29:54.398Z</time></trkpt><trkpt lat="45.5160293" lon="11.7856081"><ele>21.333333333333332</ele><time>2026-04-26T16:29:55.399Z</time></trkpt><trkpt lat="45.5158684" lon="11.785656"><ele>21.666666666666664</ele><time>2026-04-26T16:29:56.398Z</time></trkpt><trkpt lat="45.5156963" lon="11.7857138"><ele>22.0</ele><time>2026-04-26T16:29:57.4Z</time></trkpt><trkpt lat="45.5155082" lon="11.7857804"><ele>22.0</ele><time>2026-04-26T16:29:58.398Z</time></trkpt><trkpt lat="45.5153009" lon="11.78585"><ele>22.0</ele><time>2026-04-26T16:29:59.399Z</time></trkpt><trkpt lat="45.5150757" lon="11.7859149"><ele>22.0</ele><time>2026-04-26T16:30:00.398Z</time></trkpt><trkpt lat="45.5148421" lon="11.7859721"><ele>21.5</ele><time>2026-04-26T16:30:01.399Z</time></trkpt><trkpt lat="45.5146115" lon="11.7860282"><ele>21.0</ele><time>2026-04-26T16:30:02.399Z</time></trkpt><trkpt lat="45.5143879" lon="11.7860836"><ele>21.0</ele><time>2026-04-26T16:30:03.398Z</time></trkpt><trkpt lat="45.5139506" lon="11.7861999"><ele>21.0</ele><time>2026-04-26T16:30:05.398Z</time></trkpt><trkpt lat="45.5137326" lon="11.7862625"><ele>21.0</ele><time>2026-04-26T16:30:06.399Z</time></trkpt><trkpt lat="45.513516" lon="11.7863241"><ele>21.0</ele><time>2026-04-26T16:30:07.402Z</time></trkpt><trkpt lat="45.5133057" lon="11.7863837"><ele>21.0</ele><time>2026-04-26T16:30:08.397Z</time></trkpt><trkpt lat="45.513098" lon="11.7864438"><ele>21.333333333333332</ele><time>2026-04-26T16:30:09.395Z</time></trkpt><trkpt lat="45.5128899" lon="11.7865073"><ele>21.666666666666664</ele><time>2026-04-26T16:30:10.396Z</time></trkpt><trkpt lat="45.5126805" lon="11.7865669"><ele>22.0</ele><time>2026-04-26T16:30:11.395Z</time></trkpt><trkpt lat="45.5125151" lon="11.7866131"><ele>22.0</ele><time>2026-04-26T16:30:12.196Z</time></trkpt><trkpt lat="45.5122791" lon="11.7866813"><ele>22.0</ele><time>2026-04-26T16:30:13.399Z</time></trkpt><trkpt lat="45.5120935" lon="11.7867361"><ele>22.0</ele><time>2026-04-26T16:30:14.399Z</time></trkpt><trkpt lat="45.5119111" lon="11.7867883"><ele>22.0</ele><time>2026-04-26T16:30:15.401Z</time></trkpt><trkpt lat="45.5117242" lon="11.7868382"><ele>22.0</ele><time>2026-04-26T16:30:16.397Z</time></trkpt><trkpt lat="45.511534" lon="11.7868921"><ele>22.0</ele><time>2026-04-26T16:30:17.398Z</time></trkpt><trkpt lat="45.5113391" lon="11.7869576"><ele>22.0</ele><time>2026-04-26T16:30:18.397Z</time></trkpt><trkpt lat="45.5111413" lon="11.7870397"><ele>22.0</ele><time>2026-04-26T16:30:19.398Z</time></trkpt><trkpt lat="45.5109444" lon="11.7871363"><ele>22.0</ele><time>2026-04-26T16:30:20.398Z</time></trkpt><trkpt lat="45.5107511" lon="11.7872476"><ele>21.5</ele><time>2026-04-26T16:30:21.4Z</time></trkpt><trkpt lat="45.5103645" lon="11.7875044"><ele>21.0</ele><time>2026-04-26T16:30:23.399Z</time></trkpt><trkpt lat="45.5101659" lon="11.787646"><ele>22.0</ele><time>2026-04-26T16:30:24.399Z</time></trkpt><trkpt lat="45.5097586" lon="11.7879309"><ele>22.0</ele><time>2026-04-26T16:30:26.398Z</time></trkpt><trkpt lat="45.509561" lon="11.7880661"><ele>23.0</ele><time>2026-04-26T16:30:27.399Z</time></trkpt></trkseg><trkseg><trkpt lat="45.5011574" lon="11.793835"><ele>20.0</ele><time>2026-04-26T16:31:19.195Z</time></trkpt><trkpt lat="45.5009877" lon="11.7939533"><ele>20.0</ele><time>2026-04-26T16:31:20.196Z</time></trkpt><trkpt lat="45.5008238" lon="11.7940668"><ele>20.0</ele><time>2026-04-26T16:31:21.196Z</time></trkpt><trkpt lat="45.5005053" lon="11.7942811"><ele>20.0</ele><time>2026-04-26T16:31:23.197Z</time></trkpt><trkpt lat="45.5003474" lon="11.7943885"><ele>20.0</ele><time>2026-04-26T16:31:24.194Z</time></trkpt><trkpt lat="45.5001889" lon="11.7944999"><ele>20.0</ele><time>2026-04-26T16:31:25.193Z</time></trkpt><trkpt lat="45.5000305" lon="11.7946117"><ele>20.0</ele><time>2026-04-26T16:31:26.195Z</time></trkpt><trkpt lat="45.4998725" lon="11.7947208"><ele>20.0</ele><time>2026-04-26T16:31:27.195Z</time></trkpt><trkpt lat="45.499713" lon="11.7948281"><ele>20.0</ele><time>2026-04-26T16:31:28.195Z</time></trkpt><trkpt lat="45.4995523" lon="11.7949365"><ele>20.0</ele><time>2026-04-26T16:31:29.195Z</time></trkpt><trkpt lat="45.4993905" lon="11.7950447"><ele>20.0</ele><time>2026-04-26T16:31:30.195Z</time></trkpt></trkseg></trk></gpx>